<?xml version="1.0" encoding="UTF-8" standalone="no" ?>
<gpx xmlns="http://www.topografix.com/GPX/1/1" xmlns:xsi="http://www.w3.org/2001/XMLSchema-instance" xsi:schemaLocation="http://www.topografix.com/GPX/1/1 http://www.topografix.com/GPX/1/1/gpx.xsd" version="1.1" creator="VisuGPX - https://www.visugpx.com">
  <metadata>
    <name>Ronda dels Cims</name>
    <desc><![CDATA[RONDA DE CIMS2019------------------------]]></desc>
  </metadata>
  <trk>
    <name><![CDATA[Ronda dels Cims]]></name>
    <trkseg>
      <trkpt lat="42.55672" lon="1.53272">
        <ele>1295.975</ele>
        <time>2016-05-05T09:37:22Z</time>
      </trkpt>
      <trkpt lat="42.55671" lon="1.5326">
        <ele>1293.528</ele>
        <time>2016-05-05T09:37:42Z</time>
      </trkpt>
      <trkpt lat="42.55664" lon="1.53256">
        <ele>1292.52</ele>
        <time>2016-05-05T09:38:02Z</time>
      </trkpt>
      <trkpt lat="42.55654" lon="1.53257">
        <ele>1291.508</ele>
        <time>2016-05-05T09:38:22Z</time>
      </trkpt>
      <trkpt lat="42.5564" lon="1.53258">
        <ele>1289.838</ele>
        <time>2016-05-05T09:38:42Z</time>
      </trkpt>
      <trkpt lat="42.55627" lon="1.53263">
        <ele>1289.19</ele>
        <time>2016-05-05T09:39:02Z</time>
      </trkpt>
      <trkpt lat="42.55614" lon="1.53269">
        <ele>1288.648</ele>
        <time>2016-05-05T09:39:22Z</time>
      </trkpt>
      <trkpt lat="42.55606" lon="1.53275">
        <ele>1287.576</ele>
        <time>2016-05-05T09:39:42Z</time>
      </trkpt>
      <trkpt lat="42.55592" lon="1.53284">
        <ele>1285.164</ele>
        <time>2016-05-05T09:40:02Z</time>
      </trkpt>
      <trkpt lat="42.55581" lon="1.53287">
        <ele>1283.815</ele>
        <time>2016-05-05T09:40:22Z</time>
      </trkpt>
      <trkpt lat="42.55571" lon="1.5329">
        <ele>1284.483</ele>
        <time>2016-05-05T09:40:42Z</time>
      </trkpt>
      <trkpt lat="42.55563" lon="1.53296">
        <ele>1284.881</ele>
        <time>2016-05-05T09:41:02Z</time>
      </trkpt>
      <trkpt lat="42.55552" lon="1.53296">
        <ele>1285.423</ele>
        <time>2016-05-05T09:41:22Z</time>
      </trkpt>
      <trkpt lat="42.55541" lon="1.53294">
        <ele>1286.483</ele>
        <time>2016-05-05T09:41:42Z</time>
      </trkpt>
      <trkpt lat="42.55533" lon="1.53291">
        <ele>1287.011</ele>
        <time>2016-05-05T09:42:02Z</time>
      </trkpt>
      <trkpt lat="42.55522" lon="1.53284">
        <ele>1287.608</ele>
        <time>2016-05-05T09:42:22Z</time>
      </trkpt>
      <trkpt lat="42.5551" lon="1.53274">
        <ele>1288.273</ele>
        <time>2016-05-05T09:42:42Z</time>
      </trkpt>
      <trkpt lat="42.55495" lon="1.53262">
        <ele>1288.935</ele>
        <time>2016-05-05T09:43:02Z</time>
      </trkpt>
      <trkpt lat="42.55484" lon="1.53249">
        <ele>1289.263</ele>
        <time>2016-05-05T09:43:22Z</time>
      </trkpt>
      <trkpt lat="42.55471" lon="1.53238">
        <ele>1289.651</ele>
        <time>2016-05-05T09:43:42Z</time>
      </trkpt>
      <trkpt lat="42.55456" lon="1.53226">
        <ele>1289.839</ele>
        <time>2016-05-05T09:44:02Z</time>
      </trkpt>
      <trkpt lat="42.55447" lon="1.53221">
        <ele>1289.88</ele>
        <time>2016-05-05T09:44:22Z</time>
      </trkpt>
      <trkpt lat="42.55433" lon="1.53213">
        <ele>1289.778</ele>
        <time>2016-05-05T09:44:42Z</time>
      </trkpt>
      <trkpt lat="42.55419" lon="1.53203">
        <ele>1289.636</ele>
        <time>2016-05-05T09:45:02Z</time>
      </trkpt>
      <trkpt lat="42.55404" lon="1.53198">
        <ele>1289.794</ele>
        <time>2016-05-05T09:45:22Z</time>
      </trkpt>
      <trkpt lat="42.55395" lon="1.53195">
        <ele>1289.857</ele>
        <time>2016-05-05T09:45:42Z</time>
      </trkpt>
      <trkpt lat="42.55384" lon="1.53193">
        <ele>1289.922</ele>
        <time>2016-05-05T09:46:02Z</time>
      </trkpt>
      <trkpt lat="42.55374" lon="1.53196">
        <ele>1290.208</ele>
        <time>2016-05-05T09:46:22Z</time>
      </trkpt>
      <trkpt lat="42.55375" lon="1.53208">
        <ele>1291.52</ele>
        <time>2016-05-05T09:46:42Z</time>
      </trkpt>
      <trkpt lat="42.55379" lon="1.53228">
        <ele>1293.582</ele>
        <time>2016-05-05T09:47:02Z</time>
      </trkpt>
      <trkpt lat="42.55384" lon="1.53247">
        <ele>1295.01</ele>
        <time>2016-05-05T09:47:22Z</time>
      </trkpt>
      <trkpt lat="42.5539" lon="1.53269">
        <ele>1295.348</ele>
        <time>2016-05-05T09:47:42Z</time>
      </trkpt>
      <trkpt lat="42.55391" lon="1.53291">
        <ele>1297.976</ele>
        <time>2016-05-05T09:48:02Z</time>
      </trkpt>
      <trkpt lat="42.55395" lon="1.53313">
        <ele>1300.727</ele>
        <time>2016-05-05T09:48:22Z</time>
      </trkpt>
      <trkpt lat="42.55399" lon="1.53338">
        <ele>1303.335</ele>
        <time>2016-05-05T09:48:42Z</time>
      </trkpt>
      <trkpt lat="42.55401" lon="1.53355">
        <ele>1304.653</ele>
        <time>2016-05-05T09:49:02Z</time>
      </trkpt>
      <trkpt lat="42.55399" lon="1.53374">
        <ele>1305.021</ele>
        <time>2016-05-05T09:49:22Z</time>
      </trkpt>
      <trkpt lat="42.5539" lon="1.53381">
        <ele>1305.041</ele>
        <time>2016-05-05T09:49:42Z</time>
      </trkpt>
      <trkpt lat="42.55377" lon="1.53382">
        <ele>1306.905</ele>
        <time>2016-05-05T09:50:02Z</time>
      </trkpt>
      <trkpt lat="42.55367" lon="1.53371">
        <ele>1307.908</ele>
        <time>2016-05-05T09:50:22Z</time>
      </trkpt>
      <trkpt lat="42.55355" lon="1.53355">
        <ele>1308.953</ele>
        <time>2016-05-05T09:50:42Z</time>
      </trkpt>
      <trkpt lat="42.55344" lon="1.53339">
        <ele>1309.875</ele>
        <time>2016-05-05T09:51:02Z</time>
      </trkpt>
      <trkpt lat="42.55333" lon="1.53327">
        <ele>1309.653</ele>
        <time>2016-05-05T09:51:22Z</time>
      </trkpt>
      <trkpt lat="42.55326" lon="1.53317">
        <ele>1309.941</ele>
        <time>2016-05-05T09:51:42Z</time>
      </trkpt>
      <trkpt lat="42.55316" lon="1.5331">
        <ele>1310.479</ele>
        <time>2016-05-05T09:52:02Z</time>
      </trkpt>
      <trkpt lat="42.55305" lon="1.53301">
        <ele>1310.44</ele>
        <time>2016-05-05T09:52:22Z</time>
      </trkpt>
      <trkpt lat="42.55293" lon="1.533">
        <ele>1312.688</ele>
        <time>2016-05-05T09:52:42Z</time>
      </trkpt>
      <trkpt lat="42.55282" lon="1.53296">
        <ele>1314.066</ele>
        <time>2016-05-05T09:53:02Z</time>
      </trkpt>
      <trkpt lat="42.55268" lon="1.53288">
        <ele>1315.631</ele>
        <time>2016-05-05T09:53:22Z</time>
      </trkpt>
      <trkpt lat="42.55255" lon="1.53281">
        <ele>1316.761</ele>
        <time>2016-05-05T09:53:42Z</time>
      </trkpt>
      <trkpt lat="42.55244" lon="1.53273">
        <ele>1317.407</ele>
        <time>2016-05-05T09:54:02Z</time>
      </trkpt>
      <trkpt lat="42.55234" lon="1.53266">
        <ele>1318.808</ele>
        <time>2016-05-05T09:54:22Z</time>
      </trkpt>
      <trkpt lat="42.55224" lon="1.53247">
        <ele>1320.274</ele>
        <time>2016-05-05T09:54:42Z</time>
      </trkpt>
      <trkpt lat="42.55221" lon="1.53228">
        <ele>1319.796</ele>
        <time>2016-05-05T09:55:02Z</time>
      </trkpt>
      <trkpt lat="42.55215" lon="1.53213">
        <ele>1319.814</ele>
        <time>2016-05-05T09:55:22Z</time>
      </trkpt>
      <trkpt lat="42.55209" lon="1.53196">
        <ele>1321.462</ele>
        <time>2016-05-05T09:55:42Z</time>
      </trkpt>
      <trkpt lat="42.55205" lon="1.53181">
        <ele>1321.94</ele>
        <time>2016-05-05T09:56:02Z</time>
      </trkpt>
      <trkpt lat="42.55196" lon="1.53164">
        <ele>1324.021</ele>
        <time>2016-05-05T09:56:22Z</time>
      </trkpt>
      <trkpt lat="42.55195" lon="1.53149">
        <ele>1323.379</ele>
        <time>2016-05-05T09:56:42Z</time>
      </trkpt>
      <trkpt lat="42.55186" lon="1.53128">
        <ele>1324.487</ele>
        <time>2016-05-05T09:57:02Z</time>
      </trkpt>
      <trkpt lat="42.55183" lon="1.53113">
        <ele>1324.543</ele>
        <time>2016-05-05T09:57:22Z</time>
      </trkpt>
      <trkpt lat="42.55178" lon="1.531">
        <ele>1325.364</ele>
        <time>2016-05-05T09:57:42Z</time>
      </trkpt>
      <trkpt lat="42.55173" lon="1.53089">
        <ele>1326.21</ele>
        <time>2016-05-05T09:58:02Z</time>
      </trkpt>
      <trkpt lat="42.55169" lon="1.53079">
        <ele>1327.308</ele>
        <time>2016-05-05T09:58:22Z</time>
      </trkpt>
      <trkpt lat="42.55158" lon="1.5307">
        <ele>1329.265</ele>
        <time>2016-05-05T09:58:42Z</time>
      </trkpt>
      <trkpt lat="42.5515" lon="1.53063">
        <ele>1330.447</ele>
        <time>2016-05-05T09:59:02Z</time>
      </trkpt>
      <trkpt lat="42.55142" lon="1.5306">
        <ele>1331.585</ele>
        <time>2016-05-05T09:59:22Z</time>
      </trkpt>
      <trkpt lat="42.55133" lon="1.53058">
        <ele>1333.993</ele>
        <time>2016-05-05T09:59:42Z</time>
      </trkpt>
      <trkpt lat="42.5513" lon="1.53061">
        <ele>1335.221</ele>
        <time>2016-05-05T10:00:02Z</time>
      </trkpt>
      <trkpt lat="42.55129" lon="1.5307">
        <ele>1335.512</ele>
        <time>2016-05-05T10:00:22Z</time>
      </trkpt>
      <trkpt lat="42.55131" lon="1.5308">
        <ele>1335.28</ele>
        <time>2016-05-05T10:00:42Z</time>
      </trkpt>
      <trkpt lat="42.55132" lon="1.53093">
        <ele>1335.288</ele>
        <time>2016-05-05T10:01:02Z</time>
      </trkpt>
      <trkpt lat="42.55132" lon="1.53106">
        <ele>1335.648</ele>
        <time>2016-05-05T10:01:22Z</time>
      </trkpt>
      <trkpt lat="42.55134" lon="1.5312">
        <ele>1335.761</ele>
        <time>2016-05-05T10:01:42Z</time>
      </trkpt>
      <trkpt lat="42.55136" lon="1.53139">
        <ele>1337.017</ele>
        <time>2016-05-05T10:02:02Z</time>
      </trkpt>
      <trkpt lat="42.55138" lon="1.53153">
        <ele>1336.808</ele>
        <time>2016-05-05T10:02:22Z</time>
      </trkpt>
      <trkpt lat="42.55145" lon="1.53174">
        <ele>1336.285</ele>
        <time>2016-05-05T10:02:42Z</time>
      </trkpt>
      <trkpt lat="42.5515" lon="1.53178">
        <ele>1335.137</ele>
        <time>2016-05-05T10:03:02Z</time>
      </trkpt>
      <trkpt lat="42.55152" lon="1.53186">
        <ele>1335.295</ele>
        <time>2016-05-05T10:03:22Z</time>
      </trkpt>
      <trkpt lat="42.55151" lon="1.53198">
        <ele>1335.933</ele>
        <time>2016-05-05T10:03:42Z</time>
      </trkpt>
      <trkpt lat="42.55152" lon="1.53205">
        <ele>1335.661</ele>
        <time>2016-05-05T10:04:02Z</time>
      </trkpt>
      <trkpt lat="42.55159" lon="1.5321">
        <ele>1333.622</ele>
        <time>2016-05-05T10:04:22Z</time>
      </trkpt>
      <trkpt lat="42.55163" lon="1.53216">
        <ele>1332.21</ele>
        <time>2016-05-05T10:04:42Z</time>
      </trkpt>
      <trkpt lat="42.55172" lon="1.53226">
        <ele>1329.658</ele>
        <time>2016-05-05T10:05:02Z</time>
      </trkpt>
      <trkpt lat="42.55172" lon="1.5324">
        <ele>1329.857</ele>
        <time>2016-05-05T10:05:22Z</time>
      </trkpt>
      <trkpt lat="42.55173" lon="1.53254">
        <ele>1329.9</ele>
        <time>2016-05-05T10:05:42Z</time>
      </trkpt>
      <trkpt lat="42.55171" lon="1.53268">
        <ele>1330.92</ele>
        <time>2016-05-05T10:06:02Z</time>
      </trkpt>
      <trkpt lat="42.55171" lon="1.53284">
        <ele>1332.108</ele>
        <time>2016-05-05T10:06:22Z</time>
      </trkpt>
      <trkpt lat="42.55176" lon="1.53303">
        <ele>1334.186</ele>
        <time>2016-05-05T10:06:42Z</time>
      </trkpt>
      <trkpt lat="42.55176" lon="1.53317">
        <ele>1336.358</ele>
        <time>2016-05-05T10:07:02Z</time>
      </trkpt>
      <trkpt lat="42.55179" lon="1.5333">
        <ele>1338.396</ele>
        <time>2016-05-05T10:07:22Z</time>
      </trkpt>
      <trkpt lat="42.5518" lon="1.53345">
        <ele>1339.474</ele>
        <time>2016-05-05T10:07:42Z</time>
      </trkpt>
      <trkpt lat="42.55183" lon="1.53363">
        <ele>1340.152</ele>
        <time>2016-05-05T10:08:02Z</time>
      </trkpt>
      <trkpt lat="42.5519" lon="1.53381">
        <ele>1339.673</ele>
        <time>2016-05-05T10:08:22Z</time>
      </trkpt>
      <trkpt lat="42.55194" lon="1.53396">
        <ele>1339.511</ele>
        <time>2016-05-05T10:08:42Z</time>
      </trkpt>
      <trkpt lat="42.55199" lon="1.53411">
        <ele>1339.039</ele>
        <time>2016-05-05T10:09:02Z</time>
      </trkpt>
      <trkpt lat="42.55202" lon="1.53433">
        <ele>1339.837</ele>
        <time>2016-05-05T10:09:22Z</time>
      </trkpt>
      <trkpt lat="42.55209" lon="1.53455">
        <ele>1340.249</ele>
        <time>2016-05-05T10:09:42Z</time>
      </trkpt>
      <trkpt lat="42.55217" lon="1.53476">
        <ele>1340.513</ele>
        <time>2016-05-05T10:10:02Z</time>
      </trkpt>
      <trkpt lat="42.55221" lon="1.53498">
        <ele>1342.008</ele>
        <time>2016-05-05T10:10:22Z</time>
      </trkpt>
      <trkpt lat="42.55228" lon="1.53517">
        <ele>1342.114</ele>
        <time>2016-05-05T10:10:42Z</time>
      </trkpt>
      <trkpt lat="42.55235" lon="1.53533">
        <ele>1342.486</ele>
        <time>2016-05-05T10:11:02Z</time>
      </trkpt>
      <trkpt lat="42.55242" lon="1.53547">
        <ele>1342.984</ele>
        <time>2016-05-05T10:11:22Z</time>
      </trkpt>
      <trkpt lat="42.55254" lon="1.53567">
        <ele>1343.072</ele>
        <time>2016-05-05T10:11:42Z</time>
      </trkpt>
      <trkpt lat="42.55251" lon="1.53581">
        <ele>1344.66</ele>
        <time>2016-05-05T10:12:02Z</time>
      </trkpt>
      <trkpt lat="42.55245" lon="1.53596">
        <ele>1347.271</ele>
        <time>2016-05-05T10:12:22Z</time>
      </trkpt>
      <trkpt lat="42.55253" lon="1.53613">
        <ele>1347.769</ele>
        <time>2016-05-05T10:12:42Z</time>
      </trkpt>
      <trkpt lat="42.55263" lon="1.53632">
        <ele>1349.357</ele>
        <time>2016-05-05T10:13:02Z</time>
      </trkpt>
      <trkpt lat="42.5527" lon="1.53652">
        <ele>1351.343</ele>
        <time>2016-05-05T10:13:22Z</time>
      </trkpt>
      <trkpt lat="42.55282" lon="1.53665">
        <ele>1350.364</ele>
        <time>2016-05-05T10:13:42Z</time>
      </trkpt>
      <trkpt lat="42.55294" lon="1.53673">
        <ele>1349.21</ele>
        <time>2016-05-05T10:14:02Z</time>
      </trkpt>
      <trkpt lat="42.55305" lon="1.53677">
        <ele>1347.908</ele>
        <time>2016-05-05T10:14:22Z</time>
      </trkpt>
      <trkpt lat="42.55314" lon="1.53689">
        <ele>1347.555</ele>
        <time>2016-05-05T10:14:42Z</time>
      </trkpt>
      <trkpt lat="42.55319" lon="1.53691">
        <ele>1347.287</ele>
        <time>2016-05-05T10:15:02Z</time>
      </trkpt>
      <trkpt lat="42.55323" lon="1.53694">
        <ele>1347.185</ele>
        <time>2016-05-05T10:15:22Z</time>
      </trkpt>
      <trkpt lat="42.55327" lon="1.53696">
        <ele>1347.023</ele>
        <time>2016-05-05T10:15:42Z</time>
      </trkpt>
      <trkpt lat="42.55332" lon="1.537">
        <ele>1347.091</ele>
        <time>2016-05-05T10:16:02Z</time>
      </trkpt>
      <trkpt lat="42.55337" lon="1.53702">
        <ele>1346.722</ele>
        <time>2016-05-05T10:16:22Z</time>
      </trkpt>
      <trkpt lat="42.55342" lon="1.53705">
        <ele>1346.31</ele>
        <time>2016-05-05T10:16:42Z</time>
      </trkpt>
      <trkpt lat="42.55352" lon="1.53704">
        <ele>1344.948</ele>
        <time>2016-05-05T10:17:02Z</time>
      </trkpt>
      <trkpt lat="42.55358" lon="1.53703">
        <ele>1344.091</ele>
        <time>2016-05-05T10:17:22Z</time>
      </trkpt>
      <trkpt lat="42.55364" lon="1.53702">
        <ele>1343.181</ele>
        <time>2016-05-05T10:17:42Z</time>
      </trkpt>
      <trkpt lat="42.5537" lon="1.53703">
        <ele>1342.319</ele>
        <time>2016-05-05T10:18:02Z</time>
      </trkpt>
      <trkpt lat="42.55377" lon="1.53704">
        <ele>1341.408</ele>
        <time>2016-05-05T10:18:22Z</time>
      </trkpt>
      <trkpt lat="42.55383" lon="1.53705">
        <ele>1340.78</ele>
        <time>2016-05-05T10:18:42Z</time>
      </trkpt>
      <trkpt lat="42.5539" lon="1.53708">
        <ele>1339.882</ele>
        <time>2016-05-05T10:19:02Z</time>
      </trkpt>
      <trkpt lat="42.55397" lon="1.5371">
        <ele>1339.02</ele>
        <time>2016-05-05T10:19:22Z</time>
      </trkpt>
      <trkpt lat="42.55405" lon="1.53711">
        <ele>1338.078</ele>
        <time>2016-05-05T10:19:42Z</time>
      </trkpt>
      <trkpt lat="42.55413" lon="1.53712">
        <ele>1337.146</ele>
        <time>2016-05-05T10:20:02Z</time>
      </trkpt>
      <trkpt lat="42.55422" lon="1.53713">
        <ele>1336.167</ele>
        <time>2016-05-05T10:20:22Z</time>
      </trkpt>
      <trkpt lat="42.55428" lon="1.53713">
        <ele>1335.255</ele>
        <time>2016-05-05T10:20:42Z</time>
      </trkpt>
      <trkpt lat="42.55437" lon="1.53714">
        <ele>1334.233</ele>
        <time>2016-05-05T10:21:02Z</time>
      </trkpt>
      <trkpt lat="42.55441" lon="1.53716">
        <ele>1333.723</ele>
        <time>2016-05-05T10:21:22Z</time>
      </trkpt>
      <trkpt lat="42.55457" lon="1.53719">
        <ele>1332.383</ele>
        <time>2016-05-05T10:21:42Z</time>
      </trkpt>
      <trkpt lat="42.55468" lon="1.5372">
        <ele>1331.211</ele>
        <time>2016-05-05T10:22:02Z</time>
      </trkpt>
      <trkpt lat="42.5548" lon="1.53721">
        <ele>1330.308</ele>
        <time>2016-05-05T10:22:22Z</time>
      </trkpt>
      <trkpt lat="42.55488" lon="1.5372">
        <ele>1329.533</ele>
        <time>2016-05-05T10:22:42Z</time>
      </trkpt>
      <trkpt lat="42.55499" lon="1.53719">
        <ele>1328.595</ele>
        <time>2016-05-05T10:23:02Z</time>
      </trkpt>
      <trkpt lat="42.55509" lon="1.53718">
        <ele>1327.933</ele>
        <time>2016-05-05T10:23:22Z</time>
      </trkpt>
      <trkpt lat="42.55523" lon="1.53716">
        <ele>1327.271</ele>
        <time>2016-05-05T10:23:42Z</time>
      </trkpt>
      <trkpt lat="42.5554" lon="1.53715">
        <ele>1326.299</ele>
        <time>2016-05-05T10:24:02Z</time>
      </trkpt>
      <trkpt lat="42.55552" lon="1.53714">
        <ele>1325.34</ele>
        <time>2016-05-05T10:24:22Z</time>
      </trkpt>
      <trkpt lat="42.55566" lon="1.53713">
        <ele>1324.388</ele>
        <time>2016-05-05T10:24:42Z</time>
      </trkpt>
      <trkpt lat="42.55573" lon="1.53713">
        <ele>1323.756</ele>
        <time>2016-05-05T10:25:02Z</time>
      </trkpt>
      <trkpt lat="42.55599" lon="1.53707">
        <ele>1321.672</ele>
        <time>2016-05-05T10:25:22Z</time>
      </trkpt>
      <trkpt lat="42.5561" lon="1.53703">
        <ele>1320.713</ele>
        <time>2016-05-05T10:25:42Z</time>
      </trkpt>
      <trkpt lat="42.55622" lon="1.53701">
        <ele>1320.214</ele>
        <time>2016-05-05T10:26:02Z</time>
      </trkpt>
      <trkpt lat="42.55652" lon="1.53698">
        <ele>1319.408</ele>
        <time>2016-05-05T10:26:22Z</time>
      </trkpt>
      <trkpt lat="42.55667" lon="1.53697">
        <ele>1319.258</ele>
        <time>2016-05-05T10:26:42Z</time>
      </trkpt>
      <trkpt lat="42.55682" lon="1.53702">
        <ele>1319.29</ele>
        <time>2016-05-05T10:27:02Z</time>
      </trkpt>
      <trkpt lat="42.55693" lon="1.53714">
        <ele>1320.118</ele>
        <time>2016-05-05T10:27:22Z</time>
      </trkpt>
      <trkpt lat="42.55703" lon="1.53728">
        <ele>1320.676</ele>
        <time>2016-05-05T10:27:42Z</time>
      </trkpt>
      <trkpt lat="42.55718" lon="1.53744">
        <ele>1320.994</ele>
        <time>2016-05-05T10:28:02Z</time>
      </trkpt>
      <trkpt lat="42.55728" lon="1.53752">
        <ele>1321.935</ele>
        <time>2016-05-05T10:28:22Z</time>
      </trkpt>
      <trkpt lat="42.55741" lon="1.53766">
        <ele>1325.333</ele>
        <time>2016-05-05T10:28:42Z</time>
      </trkpt>
      <trkpt lat="42.55732" lon="1.53792">
        <ele>1326.131</ele>
        <time>2016-05-05T10:29:02Z</time>
      </trkpt>
      <trkpt lat="42.55733" lon="1.53814">
        <ele>1328.361</ele>
        <time>2016-05-05T10:29:22Z</time>
      </trkpt>
      <trkpt lat="42.55736" lon="1.53834">
        <ele>1330.521</ele>
        <time>2016-05-05T10:29:42Z</time>
      </trkpt>
      <trkpt lat="42.55741" lon="1.53843">
        <ele>1331.413</ele>
        <time>2016-05-05T10:30:02Z</time>
      </trkpt>
      <trkpt lat="42.55744" lon="1.53857">
        <ele>1331.908</ele>
        <time>2016-05-05T10:30:22Z</time>
      </trkpt>
      <trkpt lat="42.55751" lon="1.53871">
        <ele>1332.647</ele>
        <time>2016-05-05T10:30:42Z</time>
      </trkpt>
      <trkpt lat="42.55756" lon="1.53884">
        <ele>1334.869</ele>
        <time>2016-05-05T10:31:02Z</time>
      </trkpt>
      <trkpt lat="42.55762" lon="1.53896">
        <ele>1337.317</ele>
        <time>2016-05-05T10:31:22Z</time>
      </trkpt>
      <trkpt lat="42.55767" lon="1.53909">
        <ele>1338.765</ele>
        <time>2016-05-05T10:31:42Z</time>
      </trkpt>
      <trkpt lat="42.55771" lon="1.53919">
        <ele>1339.343</ele>
        <time>2016-05-05T10:32:02Z</time>
      </trkpt>
      <trkpt lat="42.55775" lon="1.53932">
        <ele>1339.544</ele>
        <time>2016-05-05T10:32:22Z</time>
      </trkpt>
      <trkpt lat="42.55778" lon="1.53945">
        <ele>1339.312</ele>
        <time>2016-05-05T10:32:42Z</time>
      </trkpt>
      <trkpt lat="42.55781" lon="1.53953">
        <ele>1341.05</ele>
        <time>2016-05-05T10:33:02Z</time>
      </trkpt>
      <trkpt lat="42.55784" lon="1.5397">
        <ele>1343.067</ele>
        <time>2016-05-05T10:33:22Z</time>
      </trkpt>
      <trkpt lat="42.55788" lon="1.53977">
        <ele>1344.681</ele>
        <time>2016-05-05T10:33:42Z</time>
      </trkpt>
      <trkpt lat="42.55794" lon="1.53986">
        <ele>1346.319</ele>
        <time>2016-05-05T10:34:02Z</time>
      </trkpt>
      <trkpt lat="42.55799" lon="1.53995">
        <ele>1347.308</ele>
        <time>2016-05-05T10:34:22Z</time>
      </trkpt>
      <trkpt lat="42.55805" lon="1.54005">
        <ele>1347.857</ele>
        <time>2016-05-05T10:34:42Z</time>
      </trkpt>
      <trkpt lat="42.55809" lon="1.54017">
        <ele>1349.199</ele>
        <time>2016-05-05T10:35:02Z</time>
      </trkpt>
      <trkpt lat="42.55813" lon="1.54028">
        <ele>1350.677</ele>
        <time>2016-05-05T10:35:22Z</time>
      </trkpt>
      <trkpt lat="42.55813" lon="1.54046">
        <ele>1351.355</ele>
        <time>2016-05-05T10:35:42Z</time>
      </trkpt>
      <trkpt lat="42.5581" lon="1.54058">
        <ele>1350.213</ele>
        <time>2016-05-05T10:36:02Z</time>
      </trkpt>
      <trkpt lat="42.55806" lon="1.54074">
        <ele>1349.624</ele>
        <time>2016-05-05T10:36:22Z</time>
      </trkpt>
      <trkpt lat="42.55805" lon="1.54091">
        <ele>1350.862</ele>
        <time>2016-05-05T10:36:42Z</time>
      </trkpt>
      <trkpt lat="42.55807" lon="1.54103">
        <ele>1352.21</ele>
        <time>2016-05-05T10:37:02Z</time>
      </trkpt>
      <trkpt lat="42.55809" lon="1.54118">
        <ele>1354.173</ele>
        <time>2016-05-05T10:37:22Z</time>
      </trkpt>
      <trkpt lat="42.55809" lon="1.54126">
        <ele>1354.585</ele>
        <time>2016-05-05T10:37:42Z</time>
      </trkpt>
      <trkpt lat="42.55804" lon="1.54136">
        <ele>1354.413</ele>
        <time>2016-05-05T10:38:02Z</time>
      </trkpt>
      <trkpt lat="42.55793" lon="1.54146">
        <ele>1358.608</ele>
        <time>2016-05-05T10:38:22Z</time>
      </trkpt>
      <trkpt lat="42.55788" lon="1.5415">
        <ele>1360.588</ele>
        <time>2016-05-05T10:38:42Z</time>
      </trkpt>
      <trkpt lat="42.55785" lon="1.54154">
        <ele>1361.72</ele>
        <time>2016-05-05T10:39:02Z</time>
      </trkpt>
      <trkpt lat="42.5578" lon="1.5416">
        <ele>1363.348</ele>
        <time>2016-05-05T10:39:22Z</time>
      </trkpt>
      <trkpt lat="42.55781" lon="1.54158">
        <ele>1362.936</ele>
        <time>2016-05-05T10:39:42Z</time>
      </trkpt>
      <trkpt lat="42.55775" lon="1.54165">
        <ele>1366.034</ele>
        <time>2016-05-05T10:40:02Z</time>
      </trkpt>
      <trkpt lat="42.55765" lon="1.54182">
        <ele>1374.865</ele>
        <time>2016-05-05T10:40:22Z</time>
      </trkpt>
      <trkpt lat="42.55761" lon="1.54192">
        <ele>1378.823</ele>
        <time>2016-05-05T10:40:42Z</time>
      </trkpt>
      <trkpt lat="42.55756" lon="1.54201">
        <ele>1382.841</ele>
        <time>2016-05-05T10:41:02Z</time>
      </trkpt>
      <trkpt lat="42.55746" lon="1.5422">
        <ele>1392.635</ele>
        <time>2016-05-05T10:41:22Z</time>
      </trkpt>
      <trkpt lat="42.55741" lon="1.54224">
        <ele>1396.686</ele>
        <time>2016-05-05T10:41:42Z</time>
      </trkpt>
      <trkpt lat="42.55747" lon="1.54245">
        <ele>1393.414</ele>
        <time>2016-05-05T10:42:02Z</time>
      </trkpt>
      <trkpt lat="42.55746" lon="1.54262">
        <ele>1395.608</ele>
        <time>2016-05-05T10:42:22Z</time>
      </trkpt>
      <trkpt lat="42.55738" lon="1.54287">
        <ele>1405.034</ele>
        <time>2016-05-05T10:42:42Z</time>
      </trkpt>
      <trkpt lat="42.55739" lon="1.54313">
        <ele>1405.886</ele>
        <time>2016-05-05T10:43:02Z</time>
      </trkpt>
      <trkpt lat="42.55731" lon="1.54336">
        <ele>1412.874</ele>
        <time>2016-05-05T10:43:22Z</time>
      </trkpt>
      <trkpt lat="42.55724" lon="1.5435">
        <ele>1418.592</ele>
        <time>2016-05-05T10:43:42Z</time>
      </trkpt>
      <trkpt lat="42.55731" lon="1.54373">
        <ele>1414.37</ele>
        <time>2016-05-05T10:44:02Z</time>
      </trkpt>
      <trkpt lat="42.55726" lon="1.54389">
        <ele>1417.921</ele>
        <time>2016-05-05T10:44:22Z</time>
      </trkpt>
      <trkpt lat="42.55761" lon="1.54377">
        <ele>1398.759</ele>
        <time>2016-05-05T10:44:42Z</time>
      </trkpt>
      <trkpt lat="42.55747" lon="1.54435">
        <ele>1412.277</ele>
        <time>2016-05-05T10:45:02Z</time>
      </trkpt>
      <trkpt lat="42.55734" lon="1.54452">
        <ele>1418.572</ele>
        <time>2016-05-05T10:45:22Z</time>
      </trkpt>
      <trkpt lat="42.55718" lon="1.54458">
        <ele>1420.613</ele>
        <time>2016-05-05T10:45:42Z</time>
      </trkpt>
      <trkpt lat="42.5571" lon="1.54474">
        <ele>1425.314</ele>
        <time>2016-05-05T10:46:02Z</time>
      </trkpt>
      <trkpt lat="42.55699" lon="1.54483">
        <ele>1431.408</ele>
        <time>2016-05-05T10:46:22Z</time>
      </trkpt>
      <trkpt lat="42.5572" lon="1.54491">
        <ele>1426.318</ele>
        <time>2016-05-05T10:46:42Z</time>
      </trkpt>
      <trkpt lat="42.55722" lon="1.54542">
        <ele>1440.47</ele>
        <time>2016-05-05T10:47:02Z</time>
      </trkpt>
      <trkpt lat="42.55755" lon="1.54551">
        <ele>1438.158</ele>
        <time>2016-05-05T10:47:22Z</time>
      </trkpt>
      <trkpt lat="42.55769" lon="1.54523">
        <ele>1439.716</ele>
        <time>2016-05-05T10:47:42Z</time>
      </trkpt>
      <trkpt lat="42.55785" lon="1.54555">
        <ele>1449.584</ele>
        <time>2016-05-05T10:48:02Z</time>
      </trkpt>
      <trkpt lat="42.55788" lon="1.54616">
        <ele>1459.355</ele>
        <time>2016-05-05T10:48:22Z</time>
      </trkpt>
      <trkpt lat="42.55824" lon="1.54618">
        <ele>1474.393</ele>
        <time>2016-05-05T10:48:42Z</time>
      </trkpt>
      <trkpt lat="42.55825" lon="1.54692">
        <ele>1470.891</ele>
        <time>2016-05-05T10:49:02Z</time>
      </trkpt>
      <trkpt lat="42.55813" lon="1.54729">
        <ele>1475.648</ele>
        <time>2016-05-05T10:49:22Z</time>
      </trkpt>
      <trkpt lat="42.55836" lon="1.54718">
        <ele>1478.761</ele>
        <time>2016-05-05T10:49:42Z</time>
      </trkpt>
      <trkpt lat="42.55822" lon="1.54744">
        <ele>1479.517</ele>
        <time>2016-05-05T10:50:02Z</time>
      </trkpt>
      <trkpt lat="42.55823" lon="1.54804">
        <ele>1486.408</ele>
        <time>2016-05-05T10:50:22Z</time>
      </trkpt>
      <trkpt lat="42.55822" lon="1.54858">
        <ele>1494.855</ele>
        <time>2016-05-05T10:50:42Z</time>
      </trkpt>
      <trkpt lat="42.55822" lon="1.54894">
        <ele>1498.797</ele>
        <time>2016-05-05T10:51:02Z</time>
      </trkpt>
      <trkpt lat="42.55821" lon="1.54915">
        <ele>1501.915</ele>
        <time>2016-05-05T10:51:22Z</time>
      </trkpt>
      <trkpt lat="42.55822" lon="1.54939">
        <ele>1503.623</ele>
        <time>2016-05-05T10:51:42Z</time>
      </trkpt>
      <trkpt lat="42.5583" lon="1.54983">
        <ele>1500.341</ele>
        <time>2016-05-05T10:52:02Z</time>
      </trkpt>
      <trkpt lat="42.55851" lon="1.5497">
        <ele>1501.752</ele>
        <time>2016-05-05T10:52:22Z</time>
      </trkpt>
      <trkpt lat="42.55859" lon="1.54995">
        <ele>1502.77</ele>
        <time>2016-05-05T10:52:42Z</time>
      </trkpt>
      <trkpt lat="42.55852" lon="1.55015">
        <ele>1503.138</ele>
        <time>2016-05-05T10:53:02Z</time>
      </trkpt>
      <trkpt lat="42.55855" lon="1.5503">
        <ele>1505.047</ele>
        <time>2016-05-05T10:53:22Z</time>
      </trkpt>
      <trkpt lat="42.55862" lon="1.55056">
        <ele>1507.229</ele>
        <time>2016-05-05T10:53:42Z</time>
      </trkpt>
      <trkpt lat="42.5587" lon="1.55073">
        <ele>1507.921</ele>
        <time>2016-05-05T10:54:02Z</time>
      </trkpt>
      <trkpt lat="42.55881" lon="1.55073">
        <ele>1509.708</ele>
        <time>2016-05-05T10:54:22Z</time>
      </trkpt>
      <trkpt lat="42.55896" lon="1.55059">
        <ele>1514.635</ele>
        <time>2016-05-05T10:54:42Z</time>
      </trkpt>
      <trkpt lat="42.55905" lon="1.55061">
        <ele>1517.087</ele>
        <time>2016-05-05T10:55:02Z</time>
      </trkpt>
      <trkpt lat="42.55916" lon="1.55085">
        <ele>1516.125</ele>
        <time>2016-05-05T10:55:22Z</time>
      </trkpt>
      <trkpt lat="42.55923" lon="1.55097">
        <ele>1519.663</ele>
        <time>2016-05-05T10:55:42Z</time>
      </trkpt>
      <trkpt lat="42.55939" lon="1.55108">
        <ele>1523.381</ele>
        <time>2016-05-05T10:56:02Z</time>
      </trkpt>
      <trkpt lat="42.55949" lon="1.55116">
        <ele>1525.742</ele>
        <time>2016-05-05T10:56:22Z</time>
      </trkpt>
      <trkpt lat="42.55961" lon="1.55129">
        <ele>1528.84</ele>
        <time>2016-05-05T10:56:42Z</time>
      </trkpt>
      <trkpt lat="42.55974" lon="1.55135">
        <ele>1531.018</ele>
        <time>2016-05-05T10:57:02Z</time>
      </trkpt>
      <trkpt lat="42.55983" lon="1.55154">
        <ele>1535.055</ele>
        <time>2016-05-05T10:57:22Z</time>
      </trkpt>
      <trkpt lat="42.5599" lon="1.55166">
        <ele>1536.507</ele>
        <time>2016-05-05T10:57:42Z</time>
      </trkpt>
      <trkpt lat="42.55994" lon="1.55181">
        <ele>1536.417</ele>
        <time>2016-05-05T10:58:02Z</time>
      </trkpt>
      <trkpt lat="42.55998" lon="1.55187">
        <ele>1536.508</ele>
        <time>2016-05-05T10:58:22Z</time>
      </trkpt>
      <trkpt lat="42.56002" lon="1.55193">
        <ele>1537.056</ele>
        <time>2016-05-05T10:58:42Z</time>
      </trkpt>
      <trkpt lat="42.56007" lon="1.55185">
        <ele>1540.648</ele>
        <time>2016-05-05T10:59:02Z</time>
      </trkpt>
      <trkpt lat="42.56002" lon="1.55166">
        <ele>1539.926</ele>
        <time>2016-05-05T10:59:22Z</time>
      </trkpt>
      <trkpt lat="42.56002" lon="1.5515">
        <ele>1543.044</ele>
        <time>2016-05-05T10:59:42Z</time>
      </trkpt>
      <trkpt lat="42.56001" lon="1.55128">
        <ele>1546.782</ele>
        <time>2016-05-05T11:00:02Z</time>
      </trkpt>
      <trkpt lat="42.56" lon="1.55108">
        <ele>1550.093</ele>
        <time>2016-05-05T11:00:22Z</time>
      </trkpt>
      <trkpt lat="42.55995" lon="1.5507">
        <ele>1557.171</ele>
        <time>2016-05-05T11:00:42Z</time>
      </trkpt>
      <trkpt lat="42.55996" lon="1.55048">
        <ele>1565.389</ele>
        <time>2016-05-05T11:01:02Z</time>
      </trkpt>
      <trkpt lat="42.55997" lon="1.55035">
        <ele>1570.088</ele>
        <time>2016-05-05T11:01:22Z</time>
      </trkpt>
      <trkpt lat="42.55997" lon="1.55022">
        <ele>1574.124</ele>
        <time>2016-05-05T11:01:42Z</time>
      </trkpt>
      <trkpt lat="42.55998" lon="1.55006">
        <ele>1578.726</ele>
        <time>2016-05-05T11:02:02Z</time>
      </trkpt>
      <trkpt lat="42.55988" lon="1.54985">
        <ele>1579.708</ele>
        <time>2016-05-05T11:02:22Z</time>
      </trkpt>
      <trkpt lat="42.55988" lon="1.54952">
        <ele>1585.899</ele>
        <time>2016-05-05T11:02:42Z</time>
      </trkpt>
      <trkpt lat="42.55984" lon="1.54923">
        <ele>1587.551</ele>
        <time>2016-05-05T11:03:02Z</time>
      </trkpt>
      <trkpt lat="42.55974" lon="1.54905">
        <ele>1586.739</ele>
        <time>2016-05-05T11:03:22Z</time>
      </trkpt>
      <trkpt lat="42.55977" lon="1.54888">
        <ele>1588.667</ele>
        <time>2016-05-05T11:03:42Z</time>
      </trkpt>
      <trkpt lat="42.55991" lon="1.5486">
        <ele>1590.245</ele>
        <time>2016-05-05T11:04:02Z</time>
      </trkpt>
      <trkpt lat="42.56006" lon="1.54847">
        <ele>1588.086</ele>
        <time>2016-05-05T11:04:22Z</time>
      </trkpt>
      <trkpt lat="42.56015" lon="1.54835">
        <ele>1585.194</ele>
        <time>2016-05-05T11:04:42Z</time>
      </trkpt>
      <trkpt lat="42.56027" lon="1.54831">
        <ele>1582.342</ele>
        <time>2016-05-05T11:05:02Z</time>
      </trkpt>
      <trkpt lat="42.56021" lon="1.54804">
        <ele>1575.888</ele>
        <time>2016-05-05T11:05:22Z</time>
      </trkpt>
      <trkpt lat="42.56018" lon="1.54784">
        <ele>1572.024</ele>
        <time>2016-05-05T11:05:42Z</time>
      </trkpt>
      <trkpt lat="42.56012" lon="1.54758">
        <ele>1568.426</ele>
        <time>2016-05-05T11:06:02Z</time>
      </trkpt>
      <trkpt lat="42.56028" lon="1.54756">
        <ele>1558.808</ele>
        <time>2016-05-05T11:06:22Z</time>
      </trkpt>
      <trkpt lat="42.5604" lon="1.54752">
        <ele>1554.469</ele>
        <time>2016-05-05T11:06:42Z</time>
      </trkpt>
      <trkpt lat="42.56059" lon="1.54758">
        <ele>1552.731</ele>
        <time>2016-05-05T11:07:02Z</time>
      </trkpt>
      <trkpt lat="42.56072" lon="1.54742">
        <ele>1547.969</ele>
        <time>2016-05-05T11:07:22Z</time>
      </trkpt>
      <trkpt lat="42.56067" lon="1.54725">
        <ele>1541.647</ele>
        <time>2016-05-05T11:07:42Z</time>
      </trkpt>
      <trkpt lat="42.56058" lon="1.54709">
        <ele>1535.835</ele>
        <time>2016-05-05T11:08:02Z</time>
      </trkpt>
      <trkpt lat="42.56066" lon="1.54645">
        <ele>1514.066</ele>
        <time>2016-05-05T11:08:22Z</time>
      </trkpt>
      <trkpt lat="42.56099" lon="1.54623">
        <ele>1505.754</ele>
        <time>2016-05-05T11:08:42Z</time>
      </trkpt>
      <trkpt lat="42.56123" lon="1.54611">
        <ele>1502.772</ele>
        <time>2016-05-05T11:09:02Z</time>
      </trkpt>
      <trkpt lat="42.56128" lon="1.54595">
        <ele>1495.261</ele>
        <time>2016-05-05T11:09:22Z</time>
      </trkpt>
      <trkpt lat="42.56159" lon="1.54587">
        <ele>1495.821</ele>
        <time>2016-05-05T11:09:42Z</time>
      </trkpt>
      <trkpt lat="42.56187" lon="1.54569">
        <ele>1490.613</ele>
        <time>2016-05-05T11:10:02Z</time>
      </trkpt>
      <trkpt lat="42.56205" lon="1.54558">
        <ele>1485.008</ele>
        <time>2016-05-05T11:10:22Z</time>
      </trkpt>
      <trkpt lat="42.56244" lon="1.54566">
        <ele>1483.887</ele>
        <time>2016-05-05T11:10:42Z</time>
      </trkpt>
      <trkpt lat="42.56288" lon="1.54566">
        <ele>1484.159</ele>
        <time>2016-05-05T11:11:02Z</time>
      </trkpt>
      <trkpt lat="42.56308" lon="1.54561">
        <ele>1485.557</ele>
        <time>2016-05-05T11:11:22Z</time>
      </trkpt>
      <trkpt lat="42.56298" lon="1.5455">
        <ele>1484.755</ele>
        <time>2016-05-05T11:11:42Z</time>
      </trkpt>
      <trkpt lat="42.56292" lon="1.54537">
        <ele>1487.593</ele>
        <time>2016-05-05T11:12:02Z</time>
      </trkpt>
      <trkpt lat="42.56281" lon="1.54518">
        <ele>1490.534</ele>
        <time>2016-05-05T11:12:22Z</time>
      </trkpt>
      <trkpt lat="42.56209" lon="1.54466">
        <ele>1494.472</ele>
        <time>2016-05-05T11:12:42Z</time>
      </trkpt>
      <trkpt lat="42.56254" lon="1.54475">
        <ele>1501.64</ele>
        <time>2016-05-05T11:13:02Z</time>
      </trkpt>
      <trkpt lat="42.56256" lon="1.54457">
        <ele>1508.861</ele>
        <time>2016-05-05T11:13:22Z</time>
      </trkpt>
      <trkpt lat="42.56251" lon="1.54434">
        <ele>1516.021</ele>
        <time>2016-05-05T11:13:42Z</time>
      </trkpt>
      <trkpt lat="42.56249" lon="1.54419">
        <ele>1521.113</ele>
        <time>2016-05-05T11:14:02Z</time>
      </trkpt>
      <trkpt lat="42.56245" lon="1.54405">
        <ele>1524.508</ele>
        <time>2016-05-05T11:14:22Z</time>
      </trkpt>
      <trkpt lat="42.56238" lon="1.54392">
        <ele>1526.857</ele>
        <time>2016-05-05T11:14:42Z</time>
      </trkpt>
      <trkpt lat="42.56229" lon="1.54379">
        <ele>1529.199</ele>
        <time>2016-05-05T11:15:02Z</time>
      </trkpt>
      <trkpt lat="42.56226" lon="1.54365">
        <ele>1532.737</ele>
        <time>2016-05-05T11:15:22Z</time>
      </trkpt>
      <trkpt lat="42.56218" lon="1.54352">
        <ele>1534.415</ele>
        <time>2016-05-05T11:15:42Z</time>
      </trkpt>
      <trkpt lat="42.56213" lon="1.54336">
        <ele>1538.023</ele>
        <time>2016-05-05T11:16:02Z</time>
      </trkpt>
      <trkpt lat="42.56199" lon="1.54324">
        <ele>1538.114</ele>
        <time>2016-05-05T11:16:22Z</time>
      </trkpt>
      <trkpt lat="42.56197" lon="1.54316">
        <ele>1540.452</ele>
        <time>2016-05-05T11:16:42Z</time>
      </trkpt>
      <trkpt lat="42.56215" lon="1.54295">
        <ele>1550.43</ele>
        <time>2016-05-05T11:17:02Z</time>
      </trkpt>
      <trkpt lat="42.56201" lon="1.54288">
        <ele>1550.627</ele>
        <time>2016-05-05T11:17:22Z</time>
      </trkpt>
      <trkpt lat="42.56189" lon="1.54281">
        <ele>1551.968</ele>
        <time>2016-05-05T11:17:42Z</time>
      </trkpt>
      <trkpt lat="42.56184" lon="1.54273">
        <ele>1554.614</ele>
        <time>2016-05-05T11:18:02Z</time>
      </trkpt>
      <trkpt lat="42.56178" lon="1.54269">
        <ele>1555.508</ele>
        <time>2016-05-05T11:18:22Z</time>
      </trkpt>
      <trkpt lat="42.56185" lon="1.54261">
        <ele>1560.053</ele>
        <time>2016-05-05T11:18:42Z</time>
      </trkpt>
      <trkpt lat="42.56185" lon="1.54244">
        <ele>1566.825</ele>
        <time>2016-05-05T11:19:02Z</time>
      </trkpt>
      <trkpt lat="42.56181" lon="1.54237">
        <ele>1568.793</ele>
        <time>2016-05-05T11:19:22Z</time>
      </trkpt>
      <trkpt lat="42.5618" lon="1.54228">
        <ele>1571.241</ele>
        <time>2016-05-05T11:19:42Z</time>
      </trkpt>
      <trkpt lat="42.56185" lon="1.54218">
        <ele>1575.859</ele>
        <time>2016-05-05T11:20:02Z</time>
      </trkpt>
      <trkpt lat="42.56185" lon="1.54206">
        <ele>1579.24</ele>
        <time>2016-05-05T11:20:22Z</time>
      </trkpt>
      <trkpt lat="42.56184" lon="1.54193">
        <ele>1582.098</ele>
        <time>2016-05-05T11:20:42Z</time>
      </trkpt>
      <trkpt lat="42.56184" lon="1.54181">
        <ele>1585.996</ele>
        <time>2016-05-05T11:21:02Z</time>
      </trkpt>
      <trkpt lat="42.56184" lon="1.54167">
        <ele>1590.265</ele>
        <time>2016-05-05T11:21:22Z</time>
      </trkpt>
      <trkpt lat="42.56186" lon="1.54157">
        <ele>1593.768</ele>
        <time>2016-05-05T11:21:42Z</time>
      </trkpt>
      <trkpt lat="42.56185" lon="1.54147">
        <ele>1595.914</ele>
        <time>2016-05-05T11:22:02Z</time>
      </trkpt>
      <trkpt lat="42.56184" lon="1.5414">
        <ele>1597.608</ele>
        <time>2016-05-05T11:22:22Z</time>
      </trkpt>
      <trkpt lat="42.56188" lon="1.54136">
        <ele>1600.357</ele>
        <time>2016-05-05T11:22:42Z</time>
      </trkpt>
      <trkpt lat="42.56185" lon="1.54113">
        <ele>1605.119</ele>
        <time>2016-05-05T11:23:02Z</time>
      </trkpt>
      <trkpt lat="42.56179" lon="1.54089">
        <ele>1609.877</ele>
        <time>2016-05-05T11:23:22Z</time>
      </trkpt>
      <trkpt lat="42.56174" lon="1.54077">
        <ele>1611.765</ele>
        <time>2016-05-05T11:23:42Z</time>
      </trkpt>
      <trkpt lat="42.56171" lon="1.54055">
        <ele>1617.183</ele>
        <time>2016-05-05T11:24:02Z</time>
      </trkpt>
      <trkpt lat="42.5617" lon="1.54043">
        <ele>1618.414</ele>
        <time>2016-05-05T11:24:22Z</time>
      </trkpt>
      <trkpt lat="42.56167" lon="1.54038">
        <ele>1618.382</ele>
        <time>2016-05-05T11:24:42Z</time>
      </trkpt>
      <trkpt lat="42.56169" lon="1.5401">
        <ele>1620.88</ele>
        <time>2016-05-05T11:25:02Z</time>
      </trkpt>
      <trkpt lat="42.56168" lon="1.53989">
        <ele>1618.984</ele>
        <time>2016-05-05T11:25:22Z</time>
      </trkpt>
      <trkpt lat="42.56166" lon="1.53965">
        <ele>1614.707</ele>
        <time>2016-05-05T11:25:42Z</time>
      </trkpt>
      <trkpt lat="42.56174" lon="1.53934">
        <ele>1615.717</ele>
        <time>2016-05-05T11:26:02Z</time>
      </trkpt>
      <trkpt lat="42.56179" lon="1.53911">
        <ele>1619.908</ele>
        <time>2016-05-05T11:26:22Z</time>
      </trkpt>
      <trkpt lat="42.56179" lon="1.53886">
        <ele>1622.849</ele>
        <time>2016-05-05T11:26:42Z</time>
      </trkpt>
      <trkpt lat="42.56179" lon="1.53859">
        <ele>1624.461</ele>
        <time>2016-05-05T11:27:02Z</time>
      </trkpt>
      <trkpt lat="42.56182" lon="1.53829">
        <ele>1628.239</ele>
        <time>2016-05-05T11:27:22Z</time>
      </trkpt>
      <trkpt lat="42.56183" lon="1.53812">
        <ele>1630.217</ele>
        <time>2016-05-05T11:27:42Z</time>
      </trkpt>
      <trkpt lat="42.56184" lon="1.53791">
        <ele>1631.035</ele>
        <time>2016-05-05T11:28:02Z</time>
      </trkpt>
      <trkpt lat="42.56185" lon="1.53782">
        <ele>1631.286</ele>
        <time>2016-05-05T11:28:22Z</time>
      </trkpt>
      <trkpt lat="42.56185" lon="1.53769">
        <ele>1629.384</ele>
        <time>2016-05-05T11:28:42Z</time>
      </trkpt>
      <trkpt lat="42.56191" lon="1.53757">
        <ele>1630.892</ele>
        <time>2016-05-05T11:29:02Z</time>
      </trkpt>
      <trkpt lat="42.56194" lon="1.53747">
        <ele>1630.182</ele>
        <time>2016-05-05T11:29:22Z</time>
      </trkpt>
      <trkpt lat="42.56199" lon="1.53737">
        <ele>1627.643</ele>
        <time>2016-05-05T11:29:42Z</time>
      </trkpt>
      <trkpt lat="42.56208" lon="1.53729">
        <ele>1627.217</ele>
        <time>2016-05-05T11:30:02Z</time>
      </trkpt>
      <trkpt lat="42.56208" lon="1.53713">
        <ele>1621.508</ele>
        <time>2016-05-05T11:30:22Z</time>
      </trkpt>
      <trkpt lat="42.56207" lon="1.53696">
        <ele>1614.889</ele>
        <time>2016-05-05T11:30:42Z</time>
      </trkpt>
      <trkpt lat="42.56204" lon="1.53666">
        <ele>1604.971</ele>
        <time>2016-05-05T11:31:02Z</time>
      </trkpt>
      <trkpt lat="42.56205" lon="1.53642">
        <ele>1594.939</ele>
        <time>2016-05-05T11:31:22Z</time>
      </trkpt>
      <trkpt lat="42.56207" lon="1.53631">
        <ele>1591.117</ele>
        <time>2016-05-05T11:31:42Z</time>
      </trkpt>
      <trkpt lat="42.56204" lon="1.53621">
        <ele>1587.625</ele>
        <time>2016-05-05T11:32:02Z</time>
      </trkpt>
      <trkpt lat="42.56205" lon="1.53604">
        <ele>1582.556</ele>
        <time>2016-05-05T11:32:22Z</time>
      </trkpt>
      <trkpt lat="42.56204" lon="1.5359">
        <ele>1578.424</ele>
        <time>2016-05-05T11:32:42Z</time>
      </trkpt>
      <trkpt lat="42.562" lon="1.53578">
        <ele>1575.152</ele>
        <time>2016-05-05T11:33:02Z</time>
      </trkpt>
      <trkpt lat="42.562" lon="1.53557">
        <ele>1569.179</ele>
        <time>2016-05-05T11:33:22Z</time>
      </trkpt>
      <trkpt lat="42.56211" lon="1.53557">
        <ele>1568.305</ele>
        <time>2016-05-05T11:33:42Z</time>
      </trkpt>
      <trkpt lat="42.56211" lon="1.53539">
        <ele>1560.225</ele>
        <time>2016-05-05T11:34:02Z</time>
      </trkpt>
      <trkpt lat="42.56212" lon="1.53528">
        <ele>1555.208</ele>
        <time>2016-05-05T11:34:22Z</time>
      </trkpt>
      <trkpt lat="42.56224" lon="1.53534">
        <ele>1558.538</ele>
        <time>2016-05-05T11:34:42Z</time>
      </trkpt>
      <trkpt lat="42.56234" lon="1.53554">
        <ele>1560.48</ele>
        <time>2016-05-05T11:35:02Z</time>
      </trkpt>
      <trkpt lat="42.56247" lon="1.53564">
        <ele>1557.088</ele>
        <time>2016-05-05T11:35:22Z</time>
      </trkpt>
      <trkpt lat="42.5626" lon="1.53563">
        <ele>1551.066</ele>
        <time>2016-05-05T11:35:42Z</time>
      </trkpt>
      <trkpt lat="42.56265" lon="1.53563">
        <ele>1549.244</ele>
        <time>2016-05-05T11:36:02Z</time>
      </trkpt>
      <trkpt lat="42.56274" lon="1.53571">
        <ele>1549.815</ele>
        <time>2016-05-05T11:36:22Z</time>
      </trkpt>
      <trkpt lat="42.56283" lon="1.5357">
        <ele>1546.253</ele>
        <time>2016-05-05T11:36:42Z</time>
      </trkpt>
      <trkpt lat="42.56294" lon="1.53579">
        <ele>1548.291</ele>
        <time>2016-05-05T11:37:02Z</time>
      </trkpt>
      <trkpt lat="42.563" lon="1.5357">
        <ele>1541.315</ele>
        <time>2016-05-05T11:37:22Z</time>
      </trkpt>
      <trkpt lat="42.56315" lon="1.53572">
        <ele>1537.265</ele>
        <time>2016-05-05T11:37:42Z</time>
      </trkpt>
      <trkpt lat="42.56327" lon="1.53574">
        <ele>1533.311</ele>
        <time>2016-05-05T11:38:02Z</time>
      </trkpt>
      <trkpt lat="42.56337" lon="1.53571">
        <ele>1529.108</ele>
        <time>2016-05-05T11:38:22Z</time>
      </trkpt>
      <trkpt lat="42.56347" lon="1.53571">
        <ele>1527.742</ele>
        <time>2016-05-05T11:38:42Z</time>
      </trkpt>
      <trkpt lat="42.56351" lon="1.53574">
        <ele>1528.344</ele>
        <time>2016-05-05T11:39:02Z</time>
      </trkpt>
      <trkpt lat="42.56356" lon="1.53576">
        <ele>1528.252</ele>
        <time>2016-05-05T11:39:22Z</time>
      </trkpt>
      <trkpt lat="42.5636" lon="1.53574">
        <ele>1526.78</ele>
        <time>2016-05-05T11:39:42Z</time>
      </trkpt>
      <trkpt lat="42.56368" lon="1.53567">
        <ele>1527.988</ele>
        <time>2016-05-05T11:40:02Z</time>
      </trkpt>
      <trkpt lat="42.56376" lon="1.53555">
        <ele>1527.169</ele>
        <time>2016-05-05T11:40:22Z</time>
      </trkpt>
      <trkpt lat="42.5638" lon="1.53539">
        <ele>1524.667</ele>
        <time>2016-05-05T11:40:42Z</time>
      </trkpt>
      <trkpt lat="42.56383" lon="1.53527">
        <ele>1522.435</ele>
        <time>2016-05-05T11:41:02Z</time>
      </trkpt>
      <trkpt lat="42.56388" lon="1.53516">
        <ele>1521.622</ele>
        <time>2016-05-05T11:41:22Z</time>
      </trkpt>
      <trkpt lat="42.56389" lon="1.53504">
        <ele>1518.362</ele>
        <time>2016-05-05T11:41:42Z</time>
      </trkpt>
      <trkpt lat="42.56405" lon="1.53488">
        <ele>1513.608</ele>
        <time>2016-05-05T11:42:02Z</time>
      </trkpt>
      <trkpt lat="42.56418" lon="1.53478">
        <ele>1512.508</ele>
        <time>2016-05-05T11:42:22Z</time>
      </trkpt>
      <trkpt lat="42.56424" lon="1.53457">
        <ele>1508.173</ele>
        <time>2016-05-05T11:42:42Z</time>
      </trkpt>
      <trkpt lat="42.56433" lon="1.53433">
        <ele>1503.215</ele>
        <time>2016-05-05T11:43:02Z</time>
      </trkpt>
      <trkpt lat="42.56446" lon="1.53415">
        <ele>1500.943</ele>
        <time>2016-05-05T11:43:22Z</time>
      </trkpt>
      <trkpt lat="42.5646" lon="1.53395">
        <ele>1500.081</ele>
        <time>2016-05-05T11:43:42Z</time>
      </trkpt>
      <trkpt lat="42.56465" lon="1.53381">
        <ele>1499.039</ele>
        <time>2016-05-05T11:44:02Z</time>
      </trkpt>
      <trkpt lat="42.56469" lon="1.53357">
        <ele>1496.53</ele>
        <time>2016-05-05T11:44:22Z</time>
      </trkpt>
      <trkpt lat="42.56472" lon="1.53338">
        <ele>1494.638</ele>
        <time>2016-05-05T11:44:42Z</time>
      </trkpt>
      <trkpt lat="42.56478" lon="1.53317">
        <ele>1490.246</ele>
        <time>2016-05-05T11:45:02Z</time>
      </trkpt>
      <trkpt lat="42.56486" lon="1.53301">
        <ele>1487.363</ele>
        <time>2016-05-05T11:45:22Z</time>
      </trkpt>
      <trkpt lat="42.56493" lon="1.53282">
        <ele>1484.544</ele>
        <time>2016-05-05T11:45:42Z</time>
      </trkpt>
      <trkpt lat="42.56499" lon="1.53264">
        <ele>1482.618</ele>
        <time>2016-05-05T11:46:02Z</time>
      </trkpt>
      <trkpt lat="42.5651" lon="1.53241">
        <ele>1482.608</ele>
        <time>2016-05-05T11:46:22Z</time>
      </trkpt>
      <trkpt lat="42.56518" lon="1.53227">
        <ele>1482.647</ele>
        <time>2016-05-05T11:46:42Z</time>
      </trkpt>
      <trkpt lat="42.56521" lon="1.53222">
        <ele>1482.329</ele>
        <time>2016-05-05T11:47:02Z</time>
      </trkpt>
      <trkpt lat="42.56532" lon="1.53239">
        <ele>1488.157</ele>
        <time>2016-05-05T11:47:22Z</time>
      </trkpt>
      <trkpt lat="42.56528" lon="1.53255">
        <ele>1491.925</ele>
        <time>2016-05-05T11:47:42Z</time>
      </trkpt>
      <trkpt lat="42.56526" lon="1.53267">
        <ele>1493.443</ele>
        <time>2016-05-05T11:48:02Z</time>
      </trkpt>
      <trkpt lat="42.56534" lon="1.53272">
        <ele>1495.524</ele>
        <time>2016-05-05T11:48:22Z</time>
      </trkpt>
      <trkpt lat="42.56547" lon="1.53284">
        <ele>1499.622</ele>
        <time>2016-05-05T11:48:42Z</time>
      </trkpt>
      <trkpt lat="42.56552" lon="1.533">
        <ele>1503.94</ele>
        <time>2016-05-05T11:49:02Z</time>
      </trkpt>
      <trkpt lat="42.56559" lon="1.53313">
        <ele>1507.113</ele>
        <time>2016-05-05T11:49:22Z</time>
      </trkpt>
      <trkpt lat="42.56568" lon="1.53325">
        <ele>1508.543</ele>
        <time>2016-05-05T11:49:42Z</time>
      </trkpt>
      <trkpt lat="42.56577" lon="1.53338">
        <ele>1510.307</ele>
        <time>2016-05-05T11:50:02Z</time>
      </trkpt>
      <trkpt lat="42.56586" lon="1.53357">
        <ele>1515.208</ele>
        <time>2016-05-05T11:50:22Z</time>
      </trkpt>
      <trkpt lat="42.56593" lon="1.53377">
        <ele>1521.012</ele>
        <time>2016-05-05T11:50:42Z</time>
      </trkpt>
      <trkpt lat="42.56603" lon="1.53393">
        <ele>1524.054</ele>
        <time>2016-05-05T11:51:02Z</time>
      </trkpt>
      <trkpt lat="42.56606" lon="1.53407">
        <ele>1529.992</ele>
        <time>2016-05-05T11:51:22Z</time>
      </trkpt>
      <trkpt lat="42.5661" lon="1.53417">
        <ele>1533.59</ele>
        <time>2016-05-05T11:51:42Z</time>
      </trkpt>
      <trkpt lat="42.56624" lon="1.53422">
        <ele>1530.748</ele>
        <time>2016-05-05T11:52:02Z</time>
      </trkpt>
      <trkpt lat="42.56629" lon="1.53438">
        <ele>1534.959</ele>
        <time>2016-05-05T11:52:22Z</time>
      </trkpt>
      <trkpt lat="42.56642" lon="1.53463">
        <ele>1540.717</ele>
        <time>2016-05-05T11:52:42Z</time>
      </trkpt>
      <trkpt lat="42.56639" lon="1.53457">
        <ele>1538.245</ele>
        <time>2016-05-05T11:53:02Z</time>
      </trkpt>
      <trkpt lat="42.56644" lon="1.53473">
        <ele>1544.767</ele>
        <time>2016-05-05T11:53:22Z</time>
      </trkpt>
      <trkpt lat="42.56649" lon="1.53484">
        <ele>1551.181</ele>
        <time>2016-05-05T11:53:42Z</time>
      </trkpt>
      <trkpt lat="42.56657" lon="1.53486">
        <ele>1553.319</ele>
        <time>2016-05-05T11:54:02Z</time>
      </trkpt>
      <trkpt lat="42.56671" lon="1.53477">
        <ele>1551.108</ele>
        <time>2016-05-05T11:54:22Z</time>
      </trkpt>
      <trkpt lat="42.56691" lon="1.53453">
        <ele>1552.187</ele>
        <time>2016-05-05T11:54:42Z</time>
      </trkpt>
      <trkpt lat="42.56703" lon="1.5346">
        <ele>1558.229</ele>
        <time>2016-05-05T11:55:02Z</time>
      </trkpt>
      <trkpt lat="42.56716" lon="1.53461">
        <ele>1560.727</ele>
        <time>2016-05-05T11:55:22Z</time>
      </trkpt>
      <trkpt lat="42.56732" lon="1.53458">
        <ele>1566.765</ele>
        <time>2016-05-05T11:55:42Z</time>
      </trkpt>
      <trkpt lat="42.56732" lon="1.53466">
        <ele>1570.873</ele>
        <time>2016-05-05T11:56:02Z</time>
      </trkpt>
      <trkpt lat="42.56753" lon="1.53449">
        <ele>1577.474</ele>
        <time>2016-05-05T11:56:22Z</time>
      </trkpt>
      <trkpt lat="42.56762" lon="1.53448">
        <ele>1584.972</ele>
        <time>2016-05-05T11:56:42Z</time>
      </trkpt>
      <trkpt lat="42.56768" lon="1.53436">
        <ele>1586.86</ele>
        <time>2016-05-05T11:57:02Z</time>
      </trkpt>
      <trkpt lat="42.56774" lon="1.53419">
        <ele>1587.618</ele>
        <time>2016-05-05T11:57:22Z</time>
      </trkpt>
      <trkpt lat="42.5678" lon="1.53399">
        <ele>1587.298</ele>
        <time>2016-05-05T11:57:42Z</time>
      </trkpt>
      <trkpt lat="42.56781" lon="1.53414">
        <ele>1593.217</ele>
        <time>2016-05-05T11:58:02Z</time>
      </trkpt>
      <trkpt lat="42.56784" lon="1.53418">
        <ele>1595.908</ele>
        <time>2016-05-05T11:58:22Z</time>
      </trkpt>
      <trkpt lat="42.56793" lon="1.53397">
        <ele>1597.572</ele>
        <time>2016-05-05T11:58:42Z</time>
      </trkpt>
      <trkpt lat="42.56799" lon="1.53383">
        <ele>1598.614</ele>
        <time>2016-05-05T11:59:02Z</time>
      </trkpt>
      <trkpt lat="42.56803" lon="1.53358">
        <ele>1595.742</ele>
        <time>2016-05-05T11:59:22Z</time>
      </trkpt>
      <trkpt lat="42.5681" lon="1.53339">
        <ele>1595.11</ele>
        <time>2016-05-05T11:59:42Z</time>
      </trkpt>
      <trkpt lat="42.56821" lon="1.53332">
        <ele>1597.618</ele>
        <time>2016-05-05T12:00:02Z</time>
      </trkpt>
      <trkpt lat="42.56819" lon="1.53332">
        <ele>1596.939</ele>
        <time>2016-05-05T12:00:22Z</time>
      </trkpt>
      <trkpt lat="42.56825" lon="1.53333">
        <ele>1599.697</ele>
        <time>2016-05-05T12:00:42Z</time>
      </trkpt>
      <trkpt lat="42.5683" lon="1.53342">
        <ele>1603.075</ele>
        <time>2016-05-05T12:01:02Z</time>
      </trkpt>
      <trkpt lat="42.56835" lon="1.53355">
        <ele>1605.899</ele>
        <time>2016-05-05T12:01:22Z</time>
      </trkpt>
      <trkpt lat="42.5684" lon="1.53378">
        <ele>1607.007</ele>
        <time>2016-05-05T12:01:42Z</time>
      </trkpt>
      <trkpt lat="42.56849" lon="1.53399">
        <ele>1606.427</ele>
        <time>2016-05-05T12:02:02Z</time>
      </trkpt>
      <trkpt lat="42.56858" lon="1.53427">
        <ele>1606.108</ele>
        <time>2016-05-05T12:02:22Z</time>
      </trkpt>
      <trkpt lat="42.56868" lon="1.53448">
        <ele>1604.53</ele>
        <time>2016-05-05T12:02:42Z</time>
      </trkpt>
      <trkpt lat="42.56876" lon="1.53471">
        <ele>1605.752</ele>
        <time>2016-05-05T12:03:02Z</time>
      </trkpt>
      <trkpt lat="42.56892" lon="1.53497">
        <ele>1605.84</ele>
        <time>2016-05-05T12:03:22Z</time>
      </trkpt>
      <trkpt lat="42.56897" lon="1.5351">
        <ele>1608.758</ele>
        <time>2016-05-05T12:03:42Z</time>
      </trkpt>
      <trkpt lat="42.5691" lon="1.53523">
        <ele>1608.066</ele>
        <time>2016-05-05T12:04:02Z</time>
      </trkpt>
      <trkpt lat="42.56928" lon="1.53534">
        <ele>1602.947</ele>
        <time>2016-05-05T12:04:22Z</time>
      </trkpt>
      <trkpt lat="42.56944" lon="1.53539">
        <ele>1596.365</ele>
        <time>2016-05-05T12:04:42Z</time>
      </trkpt>
      <trkpt lat="42.5696" lon="1.53538">
        <ele>1602.363</ele>
        <time>2016-05-05T12:05:02Z</time>
      </trkpt>
      <trkpt lat="42.56988" lon="1.53521">
        <ele>1608.779</ele>
        <time>2016-05-05T12:05:22Z</time>
      </trkpt>
      <trkpt lat="42.57004" lon="1.53505">
        <ele>1608.605</ele>
        <time>2016-05-05T12:05:42Z</time>
      </trkpt>
      <trkpt lat="42.57024" lon="1.53479">
        <ele>1605.025</ele>
        <time>2016-05-05T12:06:02Z</time>
      </trkpt>
      <trkpt lat="42.57038" lon="1.53465">
        <ele>1601.508</ele>
        <time>2016-05-05T12:06:22Z</time>
      </trkpt>
      <trkpt lat="42.57043" lon="1.53458">
        <ele>1599.218</ele>
        <time>2016-05-05T12:06:42Z</time>
      </trkpt>
      <trkpt lat="42.57052" lon="1.53454">
        <ele>1597.95</ele>
        <time>2016-05-05T12:07:02Z</time>
      </trkpt>
      <trkpt lat="42.57061" lon="1.5345">
        <ele>1596.088</ele>
        <time>2016-05-05T12:07:22Z</time>
      </trkpt>
      <trkpt lat="42.57064" lon="1.53449">
        <ele>1594.896</ele>
        <time>2016-05-05T12:07:42Z</time>
      </trkpt>
      <trkpt lat="42.57069" lon="1.53447">
        <ele>1593.584</ele>
        <time>2016-05-05T12:08:02Z</time>
      </trkpt>
      <trkpt lat="42.57072" lon="1.53445">
        <ele>1592.275</ele>
        <time>2016-05-05T12:08:22Z</time>
      </trkpt>
      <trkpt lat="42.57076" lon="1.53446">
        <ele>1591.843</ele>
        <time>2016-05-05T12:08:42Z</time>
      </trkpt>
      <trkpt lat="42.5708" lon="1.5344">
        <ele>1588.841</ele>
        <time>2016-05-05T12:09:02Z</time>
      </trkpt>
      <trkpt lat="42.57085" lon="1.53425">
        <ele>1581.687</ele>
        <time>2016-05-05T12:09:22Z</time>
      </trkpt>
      <trkpt lat="42.57074" lon="1.53403">
        <ele>1575.342</ele>
        <time>2016-05-05T12:09:42Z</time>
      </trkpt>
      <trkpt lat="42.57064" lon="1.53389">
        <ele>1572.026</ele>
        <time>2016-05-05T12:10:02Z</time>
      </trkpt>
      <trkpt lat="42.57074" lon="1.53378">
        <ele>1565.508</ele>
        <time>2016-05-05T12:10:22Z</time>
      </trkpt>
      <trkpt lat="42.57094" lon="1.53376">
        <ele>1560.149</ele>
        <time>2016-05-05T12:10:42Z</time>
      </trkpt>
      <trkpt lat="42.57115" lon="1.53369">
        <ele>1551.751</ele>
        <time>2016-05-05T12:11:02Z</time>
      </trkpt>
      <trkpt lat="42.57129" lon="1.53371">
        <ele>1547.419</ele>
        <time>2016-05-05T12:11:22Z</time>
      </trkpt>
      <trkpt lat="42.57139" lon="1.53389">
        <ele>1547.047</ele>
        <time>2016-05-05T12:11:42Z</time>
      </trkpt>
      <trkpt lat="42.57146" lon="1.53352">
        <ele>1544.255</ele>
        <time>2016-05-05T12:12:02Z</time>
      </trkpt>
      <trkpt lat="42.57144" lon="1.53325">
        <ele>1542.696</ele>
        <time>2016-05-05T12:12:22Z</time>
      </trkpt>
      <trkpt lat="42.57131" lon="1.533">
        <ele>1538.974</ele>
        <time>2016-05-05T12:12:42Z</time>
      </trkpt>
      <trkpt lat="42.5713" lon="1.53276">
        <ele>1540.562</ele>
        <time>2016-05-05T12:13:02Z</time>
      </trkpt>
      <trkpt lat="42.57122" lon="1.53257">
        <ele>1537.847</ele>
        <time>2016-05-05T12:13:22Z</time>
      </trkpt>
      <trkpt lat="42.57117" lon="1.53233">
        <ele>1539.929</ele>
        <time>2016-05-05T12:13:42Z</time>
      </trkpt>
      <trkpt lat="42.57103" lon="1.53217">
        <ele>1536.221</ele>
        <time>2016-05-05T12:14:02Z</time>
      </trkpt>
      <trkpt lat="42.57095" lon="1.53171">
        <ele>1537.808</ele>
        <time>2016-05-05T12:14:22Z</time>
      </trkpt>
      <trkpt lat="42.571" lon="1.53139">
        <ele>1539.085</ele>
        <time>2016-05-05T12:14:42Z</time>
      </trkpt>
      <trkpt lat="42.57101" lon="1.53084">
        <ele>1537.297</ele>
        <time>2016-05-05T12:15:02Z</time>
      </trkpt>
      <trkpt lat="42.57095" lon="1.53057">
        <ele>1534.485</ele>
        <time>2016-05-05T12:15:22Z</time>
      </trkpt>
      <trkpt lat="42.57088" lon="1.53039">
        <ele>1532.223</ele>
        <time>2016-05-05T12:15:42Z</time>
      </trkpt>
      <trkpt lat="42.57084" lon="1.53004">
        <ele>1534.411</ele>
        <time>2016-05-05T12:16:02Z</time>
      </trkpt>
      <trkpt lat="42.57074" lon="1.52968">
        <ele>1535.562</ele>
        <time>2016-05-05T12:16:22Z</time>
      </trkpt>
      <trkpt lat="42.57062" lon="1.52932">
        <ele>1535.78</ele>
        <time>2016-05-05T12:16:42Z</time>
      </trkpt>
      <trkpt lat="42.57053" lon="1.529">
        <ele>1537.218</ele>
        <time>2016-05-05T12:17:02Z</time>
      </trkpt>
      <trkpt lat="42.57057" lon="1.52852">
        <ele>1541.656</ele>
        <time>2016-05-05T12:17:22Z</time>
      </trkpt>
      <trkpt lat="42.57063" lon="1.5282">
        <ele>1544.059</ele>
        <time>2016-05-05T12:17:42Z</time>
      </trkpt>
      <trkpt lat="42.57075" lon="1.52788">
        <ele>1551.414</ele>
        <time>2016-05-05T12:18:02Z</time>
      </trkpt>
      <trkpt lat="42.57067" lon="1.52766">
        <ele>1547.908</ele>
        <time>2016-05-05T12:18:22Z</time>
      </trkpt>
      <trkpt lat="42.57086" lon="1.5275">
        <ele>1559.486</ele>
        <time>2016-05-05T12:18:42Z</time>
      </trkpt>
      <trkpt lat="42.57094" lon="1.52722">
        <ele>1567.388</ele>
        <time>2016-05-05T12:19:02Z</time>
      </trkpt>
      <trkpt lat="42.57105" lon="1.52709">
        <ele>1576.886</ele>
        <time>2016-05-05T12:19:22Z</time>
      </trkpt>
      <trkpt lat="42.57115" lon="1.52679">
        <ele>1583.874</ele>
        <time>2016-05-05T12:19:42Z</time>
      </trkpt>
      <trkpt lat="42.57135" lon="1.52694">
        <ele>1593.392</ele>
        <time>2016-05-05T12:20:02Z</time>
      </trkpt>
      <trkpt lat="42.57149" lon="1.52712">
        <ele>1596.253</ele>
        <time>2016-05-05T12:20:22Z</time>
      </trkpt>
      <trkpt lat="42.57157" lon="1.52731">
        <ele>1600.731</ele>
        <time>2016-05-05T12:20:42Z</time>
      </trkpt>
      <trkpt lat="42.57177" lon="1.52734">
        <ele>1605.789</ele>
        <time>2016-05-05T12:21:02Z</time>
      </trkpt>
      <trkpt lat="42.57187" lon="1.52764">
        <ele>1617.873</ele>
        <time>2016-05-05T12:21:22Z</time>
      </trkpt>
      <trkpt lat="42.57205" lon="1.52781">
        <ele>1629.885</ele>
        <time>2016-05-05T12:21:42Z</time>
      </trkpt>
      <trkpt lat="42.57221" lon="1.52788">
        <ele>1635.713</ele>
        <time>2016-05-05T12:22:02Z</time>
      </trkpt>
      <trkpt lat="42.57239" lon="1.5279">
        <ele>1638.408</ele>
        <time>2016-05-05T12:22:22Z</time>
      </trkpt>
      <trkpt lat="42.5726" lon="1.52793">
        <ele>1640.858</ele>
        <time>2016-05-05T12:22:42Z</time>
      </trkpt>
      <trkpt lat="42.57273" lon="1.52795">
        <ele>1641.76</ele>
        <time>2016-05-05T12:23:02Z</time>
      </trkpt>
      <trkpt lat="42.57294" lon="1.52812">
        <ele>1644.548</ele>
        <time>2016-05-05T12:23:22Z</time>
      </trkpt>
      <trkpt lat="42.57311" lon="1.52824">
        <ele>1644.146</ele>
        <time>2016-05-05T12:23:42Z</time>
      </trkpt>
      <trkpt lat="42.57324" lon="1.52851">
        <ele>1648.134</ele>
        <time>2016-05-05T12:24:02Z</time>
      </trkpt>
      <trkpt lat="42.57347" lon="1.52866">
        <ele>1645.485</ele>
        <time>2016-05-05T12:24:22Z</time>
      </trkpt>
      <trkpt lat="42.57358" lon="1.52897">
        <ele>1652.623</ele>
        <time>2016-05-05T12:24:42Z</time>
      </trkpt>
      <trkpt lat="42.57368" lon="1.52917">
        <ele>1658.981</ele>
        <time>2016-05-05T12:25:02Z</time>
      </trkpt>
      <trkpt lat="42.57374" lon="1.5293">
        <ele>1662.663</ele>
        <time>2016-05-05T12:25:22Z</time>
      </trkpt>
      <trkpt lat="42.57397" lon="1.52947">
        <ele>1666.544</ele>
        <time>2016-05-05T12:25:42Z</time>
      </trkpt>
      <trkpt lat="42.57416" lon="1.52961">
        <ele>1672.318</ele>
        <time>2016-05-05T12:26:02Z</time>
      </trkpt>
      <trkpt lat="42.57435" lon="1.52956">
        <ele>1670.408</ele>
        <time>2016-05-05T12:26:22Z</time>
      </trkpt>
      <trkpt lat="42.57454" lon="1.52971">
        <ele>1677.557</ele>
        <time>2016-05-05T12:26:42Z</time>
      </trkpt>
      <trkpt lat="42.5747" lon="1.52991">
        <ele>1685.399</ele>
        <time>2016-05-05T12:27:02Z</time>
      </trkpt>
      <trkpt lat="42.57485" lon="1.53002">
        <ele>1692.317</ele>
        <time>2016-05-05T12:27:22Z</time>
      </trkpt>
      <trkpt lat="42.57489" lon="1.52994">
        <ele>1692.095</ele>
        <time>2016-05-05T12:27:42Z</time>
      </trkpt>
      <trkpt lat="42.57501" lon="1.52979">
        <ele>1694.993</ele>
        <time>2016-05-05T12:28:02Z</time>
      </trkpt>
      <trkpt lat="42.57506" lon="1.52965">
        <ele>1697.814</ele>
        <time>2016-05-05T12:28:22Z</time>
      </trkpt>
      <trkpt lat="42.57509" lon="1.52951">
        <ele>1699.752</ele>
        <time>2016-05-05T12:28:42Z</time>
      </trkpt>
      <trkpt lat="42.57506" lon="1.52922">
        <ele>1697.76</ele>
        <time>2016-05-05T12:29:02Z</time>
      </trkpt>
      <trkpt lat="42.57505" lon="1.52899">
        <ele>1697.318</ele>
        <time>2016-05-05T12:29:22Z</time>
      </trkpt>
      <trkpt lat="42.57506" lon="1.52881">
        <ele>1696.398</ele>
        <time>2016-05-05T12:29:42Z</time>
      </trkpt>
      <trkpt lat="42.57518" lon="1.52878">
        <ele>1702.817</ele>
        <time>2016-05-05T12:30:02Z</time>
      </trkpt>
      <trkpt lat="42.57528" lon="1.52894">
        <ele>1711.408</ele>
        <time>2016-05-05T12:30:22Z</time>
      </trkpt>
      <trkpt lat="42.57536" lon="1.52908">
        <ele>1717.042</ele>
        <time>2016-05-05T12:30:42Z</time>
      </trkpt>
      <trkpt lat="42.57552" lon="1.52914">
        <ele>1727.384</ele>
        <time>2016-05-05T12:31:02Z</time>
      </trkpt>
      <trkpt lat="42.57561" lon="1.52932">
        <ele>1735.322</ele>
        <time>2016-05-05T12:31:22Z</time>
      </trkpt>
      <trkpt lat="42.57568" lon="1.52955">
        <ele>1741.41</ele>
        <time>2016-05-05T12:31:42Z</time>
      </trkpt>
      <trkpt lat="42.57578" lon="1.52972">
        <ele>1748.828</ele>
        <time>2016-05-05T12:32:02Z</time>
      </trkpt>
      <trkpt lat="42.57585" lon="1.52983">
        <ele>1751.629</ele>
        <time>2016-05-05T12:32:22Z</time>
      </trkpt>
      <trkpt lat="42.57598" lon="1.52986">
        <ele>1757.487</ele>
        <time>2016-05-05T12:32:42Z</time>
      </trkpt>
      <trkpt lat="42.57612" lon="1.52988">
        <ele>1764.175</ele>
        <time>2016-05-05T12:33:02Z</time>
      </trkpt>
      <trkpt lat="42.5762" lon="1.53013">
        <ele>1767.584</ele>
        <time>2016-05-05T12:33:22Z</time>
      </trkpt>
      <trkpt lat="42.57636" lon="1.53005">
        <ele>1777.107</ele>
        <time>2016-05-05T12:33:42Z</time>
      </trkpt>
      <trkpt lat="42.57646" lon="1.52989">
        <ele>1783.117</ele>
        <time>2016-05-05T12:34:02Z</time>
      </trkpt>
      <trkpt lat="42.57655" lon="1.52975">
        <ele>1788.308</ele>
        <time>2016-05-05T12:34:22Z</time>
      </trkpt>
      <trkpt lat="42.57662" lon="1.5296">
        <ele>1792.299</ele>
        <time>2016-05-05T12:34:42Z</time>
      </trkpt>
      <trkpt lat="42.57672" lon="1.52952">
        <ele>1797.941</ele>
        <time>2016-05-05T12:35:02Z</time>
      </trkpt>
      <trkpt lat="42.57685" lon="1.52948">
        <ele>1806.429</ele>
        <time>2016-05-05T12:35:22Z</time>
      </trkpt>
      <trkpt lat="42.57701" lon="1.52951">
        <ele>1816.997</ele>
        <time>2016-05-05T12:35:42Z</time>
      </trkpt>
      <trkpt lat="42.57714" lon="1.52968">
        <ele>1828.015</ele>
        <time>2016-05-05T12:36:02Z</time>
      </trkpt>
      <trkpt lat="42.57724" lon="1.53019">
        <ele>1839.096</ele>
        <time>2016-05-05T12:36:22Z</time>
      </trkpt>
      <trkpt lat="42.57732" lon="1.5301">
        <ele>1845.364</ele>
        <time>2016-05-05T12:36:42Z</time>
      </trkpt>
      <trkpt lat="42.57766" lon="1.52972">
        <ele>1867.852</ele>
        <time>2016-05-05T12:37:02Z</time>
      </trkpt>
      <trkpt lat="42.57779" lon="1.52974">
        <ele>1878.233</ele>
        <time>2016-05-05T12:37:22Z</time>
      </trkpt>
      <trkpt lat="42.57794" lon="1.52976">
        <ele>1887.723</ele>
        <time>2016-05-05T12:37:42Z</time>
      </trkpt>
      <trkpt lat="42.57805" lon="1.52983">
        <ele>1896.715</ele>
        <time>2016-05-05T12:38:02Z</time>
      </trkpt>
      <trkpt lat="42.57818" lon="1.52981">
        <ele>1900.908</ele>
        <time>2016-05-05T12:38:22Z</time>
      </trkpt>
      <trkpt lat="42.57831" lon="1.52983">
        <ele>1906.384</ele>
        <time>2016-05-05T12:38:42Z</time>
      </trkpt>
      <trkpt lat="42.57834" lon="1.53003">
        <ele>1913.676</ele>
        <time>2016-05-05T12:39:02Z</time>
      </trkpt>
      <trkpt lat="42.57839" lon="1.53031">
        <ele>1918.974</ele>
        <time>2016-05-05T12:39:22Z</time>
      </trkpt>
      <trkpt lat="42.57835" lon="1.53054">
        <ele>1923.872</ele>
        <time>2016-05-05T12:39:42Z</time>
      </trkpt>
      <trkpt lat="42.57834" lon="1.53068">
        <ele>1925.58</ele>
        <time>2016-05-05T12:40:02Z</time>
      </trkpt>
      <trkpt lat="42.57842" lon="1.53096">
        <ele>1931.061</ele>
        <time>2016-05-05T12:40:22Z</time>
      </trkpt>
      <trkpt lat="42.57846" lon="1.53125">
        <ele>1934.379</ele>
        <time>2016-05-05T12:40:42Z</time>
      </trkpt>
      <trkpt lat="42.57852" lon="1.53145">
        <ele>1937.497</ele>
        <time>2016-05-05T12:41:02Z</time>
      </trkpt>
      <trkpt lat="42.5786" lon="1.53163">
        <ele>1942.395</ele>
        <time>2016-05-05T12:41:22Z</time>
      </trkpt>
      <trkpt lat="42.57857" lon="1.53184">
        <ele>1941.649</ele>
        <time>2016-05-05T12:41:42Z</time>
      </trkpt>
      <trkpt lat="42.57856" lon="1.53206">
        <ele>1943.123</ele>
        <time>2016-05-05T12:42:02Z</time>
      </trkpt>
      <trkpt lat="42.57862" lon="1.53229">
        <ele>1948.108</ele>
        <time>2016-05-05T12:42:22Z</time>
      </trkpt>
      <trkpt lat="42.57868" lon="1.53243">
        <ele>1952.24</ele>
        <time>2016-05-05T12:42:42Z</time>
      </trkpt>
      <trkpt lat="42.57873" lon="1.53259">
        <ele>1956.262</ele>
        <time>2016-05-05T12:43:02Z</time>
      </trkpt>
      <trkpt lat="42.5789" lon="1.53257">
        <ele>1963.52</ele>
        <time>2016-05-05T12:43:22Z</time>
      </trkpt>
      <trkpt lat="42.57902" lon="1.5324">
        <ele>1965.578</ele>
        <time>2016-05-05T12:43:42Z</time>
      </trkpt>
      <trkpt lat="42.57913" lon="1.53219">
        <ele>1967.826</ele>
        <time>2016-05-05T12:44:02Z</time>
      </trkpt>
      <trkpt lat="42.57923" lon="1.53204">
        <ele>1970.147</ele>
        <time>2016-05-05T12:44:22Z</time>
      </trkpt>
      <trkpt lat="42.57945" lon="1.53188">
        <ele>1972.925</ele>
        <time>2016-05-05T12:44:42Z</time>
      </trkpt>
      <trkpt lat="42.57958" lon="1.53185">
        <ele>1970.473</ele>
        <time>2016-05-05T12:45:02Z</time>
      </trkpt>
      <trkpt lat="42.5797" lon="1.53179">
        <ele>1966.466</ele>
        <time>2016-05-05T12:45:22Z</time>
      </trkpt>
      <trkpt lat="42.57987" lon="1.53186">
        <ele>1964.429</ele>
        <time>2016-05-05T12:45:42Z</time>
      </trkpt>
      <trkpt lat="42.58003" lon="1.53197">
        <ele>1964.321</ele>
        <time>2016-05-05T12:46:02Z</time>
      </trkpt>
      <trkpt lat="42.5802" lon="1.53207">
        <ele>1962.508</ele>
        <time>2016-05-05T12:46:22Z</time>
      </trkpt>
      <trkpt lat="42.58038" lon="1.53211">
        <ele>1956.657</ele>
        <time>2016-05-05T12:46:42Z</time>
      </trkpt>
      <trkpt lat="42.58052" lon="1.53235">
        <ele>1954.859</ele>
        <time>2016-05-05T12:47:02Z</time>
      </trkpt>
      <trkpt lat="42.58071" lon="1.53264">
        <ele>1947.217</ele>
        <time>2016-05-05T12:47:22Z</time>
      </trkpt>
      <trkpt lat="42.58084" lon="1.53287">
        <ele>1940.225</ele>
        <time>2016-05-05T12:47:42Z</time>
      </trkpt>
      <trkpt lat="42.58088" lon="1.5332">
        <ele>1937.243</ele>
        <time>2016-05-05T12:48:02Z</time>
      </trkpt>
      <trkpt lat="42.58093" lon="1.53357">
        <ele>1934.164</ele>
        <time>2016-05-05T12:48:22Z</time>
      </trkpt>
      <trkpt lat="42.58099" lon="1.53398">
        <ele>1932.972</ele>
        <time>2016-05-05T12:48:42Z</time>
      </trkpt>
      <trkpt lat="42.58113" lon="1.53439">
        <ele>1926.74</ele>
        <time>2016-05-05T12:49:02Z</time>
      </trkpt>
      <trkpt lat="42.58129" lon="1.5348">
        <ele>1918.418</ele>
        <time>2016-05-05T12:49:22Z</time>
      </trkpt>
      <trkpt lat="42.58141" lon="1.53512">
        <ele>1914.598</ele>
        <time>2016-05-05T12:49:42Z</time>
      </trkpt>
      <trkpt lat="42.5816" lon="1.53546">
        <ele>1906.617</ele>
        <time>2016-05-05T12:50:02Z</time>
      </trkpt>
      <trkpt lat="42.58184" lon="1.53591">
        <ele>1902.708</ele>
        <time>2016-05-05T12:50:22Z</time>
      </trkpt>
      <trkpt lat="42.58231" lon="1.53643">
        <ele>1887.322</ele>
        <time>2016-05-05T12:50:42Z</time>
      </trkpt>
      <trkpt lat="42.58248" lon="1.53672">
        <ele>1885.984</ele>
        <time>2016-05-05T12:51:02Z</time>
      </trkpt>
      <trkpt lat="42.58267" lon="1.53702">
        <ele>1886.842</ele>
        <time>2016-05-05T12:51:22Z</time>
      </trkpt>
      <trkpt lat="42.58284" lon="1.53732">
        <ele>1887.47</ele>
        <time>2016-05-05T12:51:42Z</time>
      </trkpt>
      <trkpt lat="42.58317" lon="1.53764">
        <ele>1880.698</ele>
        <time>2016-05-05T12:52:02Z</time>
      </trkpt>
      <trkpt lat="42.58343" lon="1.53785">
        <ele>1876.919</ele>
        <time>2016-05-05T12:52:22Z</time>
      </trkpt>
      <trkpt lat="42.58364" lon="1.53783">
        <ele>1872.647</ele>
        <time>2016-05-05T12:52:42Z</time>
      </trkpt>
      <trkpt lat="42.58393" lon="1.5376">
        <ele>1867.875</ele>
        <time>2016-05-05T12:53:02Z</time>
      </trkpt>
      <trkpt lat="42.58411" lon="1.53753">
        <ele>1868.999</ele>
        <time>2016-05-05T12:53:22Z</time>
      </trkpt>
      <trkpt lat="42.58432" lon="1.53753">
        <ele>1871.607</ele>
        <time>2016-05-05T12:53:42Z</time>
      </trkpt>
      <trkpt lat="42.5845" lon="1.53748">
        <ele>1873.327</ele>
        <time>2016-05-05T12:54:02Z</time>
      </trkpt>
      <trkpt lat="42.58465" lon="1.5374">
        <ele>1876.008</ele>
        <time>2016-05-05T12:54:22Z</time>
      </trkpt>
      <trkpt lat="42.58483" lon="1.53725">
        <ele>1878.47</ele>
        <time>2016-05-05T12:54:42Z</time>
      </trkpt>
      <trkpt lat="42.58507" lon="1.53707">
        <ele>1879.082</ele>
        <time>2016-05-05T12:55:02Z</time>
      </trkpt>
      <trkpt lat="42.5854" lon="1.53724">
        <ele>1882.96</ele>
        <time>2016-05-05T12:55:22Z</time>
      </trkpt>
      <trkpt lat="42.58558" lon="1.53736">
        <ele>1884.098</ele>
        <time>2016-05-05T12:55:42Z</time>
      </trkpt>
      <trkpt lat="42.58575" lon="1.53734">
        <ele>1878.396</ele>
        <time>2016-05-05T12:56:02Z</time>
      </trkpt>
      <trkpt lat="42.58595" lon="1.53744">
        <ele>1880.047</ele>
        <time>2016-05-05T12:56:22Z</time>
      </trkpt>
      <trkpt lat="42.58614" lon="1.53757">
        <ele>1883.285</ele>
        <time>2016-05-05T12:56:42Z</time>
      </trkpt>
      <trkpt lat="42.58635" lon="1.53754">
        <ele>1885.263</ele>
        <time>2016-05-05T12:57:02Z</time>
      </trkpt>
      <trkpt lat="42.58655" lon="1.53753">
        <ele>1887.677</ele>
        <time>2016-05-05T12:57:22Z</time>
      </trkpt>
      <trkpt lat="42.58679" lon="1.53761">
        <ele>1891.861</ele>
        <time>2016-05-05T12:57:42Z</time>
      </trkpt>
      <trkpt lat="42.58701" lon="1.53769">
        <ele>1890.827</ele>
        <time>2016-05-05T12:58:02Z</time>
      </trkpt>
      <trkpt lat="42.58721" lon="1.53815">
        <ele>1890.308</ele>
        <time>2016-05-05T12:58:22Z</time>
      </trkpt>
      <trkpt lat="42.5873" lon="1.53853">
        <ele>1890.878</ele>
        <time>2016-05-05T12:58:42Z</time>
      </trkpt>
      <trkpt lat="42.58735" lon="1.5389">
        <ele>1893.06</ele>
        <time>2016-05-05T12:59:02Z</time>
      </trkpt>
      <trkpt lat="42.58738" lon="1.53914">
        <ele>1894.828</ele>
        <time>2016-05-05T12:59:22Z</time>
      </trkpt>
      <trkpt lat="42.58746" lon="1.53942">
        <ele>1895.146</ele>
        <time>2016-05-05T12:59:42Z</time>
      </trkpt>
      <trkpt lat="42.58757" lon="1.53965">
        <ele>1893.524</ele>
        <time>2016-05-05T13:00:02Z</time>
      </trkpt>
      <trkpt lat="42.58771" lon="1.53996">
        <ele>1892.475</ele>
        <time>2016-05-05T13:00:22Z</time>
      </trkpt>
      <trkpt lat="42.58783" lon="1.54035">
        <ele>1893.683</ele>
        <time>2016-05-05T13:00:42Z</time>
      </trkpt>
      <trkpt lat="42.588" lon="1.54079">
        <ele>1893.571</ele>
        <time>2016-05-05T13:01:02Z</time>
      </trkpt>
      <trkpt lat="42.58807" lon="1.54123">
        <ele>1894.515</ele>
        <time>2016-05-05T13:01:22Z</time>
      </trkpt>
      <trkpt lat="42.5882" lon="1.54151">
        <ele>1891.165</ele>
        <time>2016-05-05T13:01:42Z</time>
      </trkpt>
      <trkpt lat="42.58831" lon="1.54185">
        <ele>1887.111</ele>
        <time>2016-05-05T13:02:02Z</time>
      </trkpt>
      <trkpt lat="42.58837" lon="1.54219">
        <ele>1883.408</ele>
        <time>2016-05-05T13:02:22Z</time>
      </trkpt>
      <trkpt lat="42.58836" lon="1.54255">
        <ele>1886.422</ele>
        <time>2016-05-05T13:02:42Z</time>
      </trkpt>
      <trkpt lat="42.58846" lon="1.54275">
        <ele>1881.314</ele>
        <time>2016-05-05T13:03:02Z</time>
      </trkpt>
      <trkpt lat="42.58847" lon="1.54307">
        <ele>1883.792</ele>
        <time>2016-05-05T13:03:22Z</time>
      </trkpt>
      <trkpt lat="42.5885" lon="1.54328">
        <ele>1882.97</ele>
        <time>2016-05-05T13:03:42Z</time>
      </trkpt>
      <trkpt lat="42.58861" lon="1.54351">
        <ele>1877.498</ele>
        <time>2016-05-05T13:04:02Z</time>
      </trkpt>
      <trkpt lat="42.58862" lon="1.54378">
        <ele>1882.489</ele>
        <time>2016-05-05T13:04:22Z</time>
      </trkpt>
      <trkpt lat="42.58868" lon="1.54394">
        <ele>1883.057</ele>
        <time>2016-05-05T13:04:42Z</time>
      </trkpt>
      <trkpt lat="42.5887" lon="1.54429">
        <ele>1889.345</ele>
        <time>2016-05-05T13:05:02Z</time>
      </trkpt>
      <trkpt lat="42.58874" lon="1.54463">
        <ele>1892.137</ele>
        <time>2016-05-05T13:05:22Z</time>
      </trkpt>
      <trkpt lat="42.58888" lon="1.54497">
        <ele>1894.649</ele>
        <time>2016-05-05T13:05:42Z</time>
      </trkpt>
      <trkpt lat="42.58896" lon="1.54521">
        <ele>1895.313</ele>
        <time>2016-05-05T13:06:02Z</time>
      </trkpt>
      <trkpt lat="42.589" lon="1.54538">
        <ele>1896.508</ele>
        <time>2016-05-05T13:06:22Z</time>
      </trkpt>
      <trkpt lat="42.58898" lon="1.54557">
        <ele>1899.174</ele>
        <time>2016-05-05T13:06:42Z</time>
      </trkpt>
      <trkpt lat="42.58895" lon="1.54582">
        <ele>1903.116</ele>
        <time>2016-05-05T13:07:02Z</time>
      </trkpt>
      <trkpt lat="42.58899" lon="1.54604">
        <ele>1905.244</ele>
        <time>2016-05-05T13:07:22Z</time>
      </trkpt>
      <trkpt lat="42.589" lon="1.54634">
        <ele>1908.632</ele>
        <time>2016-05-05T13:07:42Z</time>
      </trkpt>
      <trkpt lat="42.58896" lon="1.54656">
        <ele>1915.13</ele>
        <time>2016-05-05T13:08:02Z</time>
      </trkpt>
      <trkpt lat="42.58911" lon="1.54689">
        <ele>1919.091</ele>
        <time>2016-05-05T13:08:22Z</time>
      </trkpt>
      <trkpt lat="42.58923" lon="1.54714">
        <ele>1920.869</ele>
        <time>2016-05-05T13:08:42Z</time>
      </trkpt>
      <trkpt lat="42.58933" lon="1.54733">
        <ele>1923.077</ele>
        <time>2016-05-05T13:09:02Z</time>
      </trkpt>
      <trkpt lat="42.58937" lon="1.54761">
        <ele>1928.838</ele>
        <time>2016-05-05T13:09:22Z</time>
      </trkpt>
      <trkpt lat="42.58939" lon="1.54787">
        <ele>1934.47</ele>
        <time>2016-05-05T13:09:42Z</time>
      </trkpt>
      <trkpt lat="42.58936" lon="1.54831">
        <ele>1945.217</ele>
        <time>2016-05-05T13:10:02Z</time>
      </trkpt>
      <trkpt lat="42.58929" lon="1.54837">
        <ele>1948.708</ele>
        <time>2016-05-05T13:10:22Z</time>
      </trkpt>
      <trkpt lat="42.5892" lon="1.54832">
        <ele>1950.564</ele>
        <time>2016-05-05T13:10:42Z</time>
      </trkpt>
      <trkpt lat="42.58916" lon="1.54837">
        <ele>1953.226</ele>
        <time>2016-05-05T13:11:02Z</time>
      </trkpt>
      <trkpt lat="42.58913" lon="1.54847">
        <ele>1956.624</ele>
        <time>2016-05-05T13:11:22Z</time>
      </trkpt>
      <trkpt lat="42.589" lon="1.54842">
        <ele>1961.392</ele>
        <time>2016-05-05T13:11:42Z</time>
      </trkpt>
      <trkpt lat="42.58894" lon="1.54837">
        <ele>1962.63</ele>
        <time>2016-05-05T13:12:02Z</time>
      </trkpt>
      <trkpt lat="42.58887" lon="1.54826">
        <ele>1962.961</ele>
        <time>2016-05-05T13:12:22Z</time>
      </trkpt>
      <trkpt lat="42.58883" lon="1.54825">
        <ele>1964.499</ele>
        <time>2016-05-05T13:12:42Z</time>
      </trkpt>
      <trkpt lat="42.58879" lon="1.54829">
        <ele>1967.987</ele>
        <time>2016-05-05T13:13:02Z</time>
      </trkpt>
      <trkpt lat="42.58878" lon="1.54841">
        <ele>1971.722</ele>
        <time>2016-05-05T13:13:22Z</time>
      </trkpt>
      <trkpt lat="42.58879" lon="1.54855">
        <ele>1974.862</ele>
        <time>2016-05-05T13:13:42Z</time>
      </trkpt>
      <trkpt lat="42.5888" lon="1.54864">
        <ele>1976.208</ele>
        <time>2016-05-05T13:14:02Z</time>
      </trkpt>
      <trkpt lat="42.58885" lon="1.54877">
        <ele>1978.108</ele>
        <time>2016-05-05T13:14:22Z</time>
      </trkpt>
      <trkpt lat="42.58886" lon="1.54888">
        <ele>1981.213</ele>
        <time>2016-05-05T13:14:42Z</time>
      </trkpt>
      <trkpt lat="42.58889" lon="1.54909">
        <ele>1987.635</ele>
        <time>2016-05-05T13:15:02Z</time>
      </trkpt>
      <trkpt lat="42.58889" lon="1.54921">
        <ele>1992.783</ele>
        <time>2016-05-05T13:15:22Z</time>
      </trkpt>
      <trkpt lat="42.58891" lon="1.54939">
        <ele>1997.781</ele>
        <time>2016-05-05T13:15:42Z</time>
      </trkpt>
      <trkpt lat="42.58892" lon="1.54954">
        <ele>2001.519</ele>
        <time>2016-05-05T13:16:02Z</time>
      </trkpt>
      <trkpt lat="42.58889" lon="1.54959">
        <ele>2004.83</ele>
        <time>2016-05-05T13:16:22Z</time>
      </trkpt>
      <trkpt lat="42.58882" lon="1.54964">
        <ele>2008.038</ele>
        <time>2016-05-05T13:16:42Z</time>
      </trkpt>
      <trkpt lat="42.58881" lon="1.54971">
        <ele>2010.426</ele>
        <time>2016-05-05T13:17:02Z</time>
      </trkpt>
      <trkpt lat="42.5888" lon="1.54978">
        <ele>2012.664</ele>
        <time>2016-05-05T13:17:22Z</time>
      </trkpt>
      <trkpt lat="42.58879" lon="1.54993">
        <ele>2017.306</ele>
        <time>2016-05-05T13:17:42Z</time>
      </trkpt>
      <trkpt lat="42.58878" lon="1.55012">
        <ele>2023.916</ele>
        <time>2016-05-05T13:18:02Z</time>
      </trkpt>
      <trkpt lat="42.58878" lon="1.55025">
        <ele>2029.108</ele>
        <time>2016-05-05T13:18:22Z</time>
      </trkpt>
      <trkpt lat="42.58877" lon="1.55038">
        <ele>2033.027</ele>
        <time>2016-05-05T13:18:42Z</time>
      </trkpt>
      <trkpt lat="42.58882" lon="1.55051">
        <ele>2035.969</ele>
        <time>2016-05-05T13:19:02Z</time>
      </trkpt>
      <trkpt lat="42.58883" lon="1.55057">
        <ele>2037.257</ele>
        <time>2016-05-05T13:19:22Z</time>
      </trkpt>
      <trkpt lat="42.58875" lon="1.55067">
        <ele>2040.225</ele>
        <time>2016-05-05T13:19:42Z</time>
      </trkpt>
      <trkpt lat="42.58874" lon="1.55078">
        <ele>2042.583</ele>
        <time>2016-05-05T13:20:02Z</time>
      </trkpt>
      <trkpt lat="42.5888" lon="1.55092">
        <ele>2044.384</ele>
        <time>2016-05-05T13:20:22Z</time>
      </trkpt>
      <trkpt lat="42.58884" lon="1.55099">
        <ele>2045.052</ele>
        <time>2016-05-05T13:20:42Z</time>
      </trkpt>
      <trkpt lat="42.5889" lon="1.55106">
        <ele>2045.02</ele>
        <time>2016-05-05T13:21:02Z</time>
      </trkpt>
      <trkpt lat="42.58889" lon="1.55122">
        <ele>2047.275</ele>
        <time>2016-05-05T13:21:22Z</time>
      </trkpt>
      <trkpt lat="42.58888" lon="1.55135">
        <ele>2048.728</ele>
        <time>2016-05-05T13:21:42Z</time>
      </trkpt>
      <trkpt lat="42.58888" lon="1.55149">
        <ele>2050.22</ele>
        <time>2016-05-05T13:22:02Z</time>
      </trkpt>
      <trkpt lat="42.58888" lon="1.55166">
        <ele>2052.008</ele>
        <time>2016-05-05T13:22:22Z</time>
      </trkpt>
      <trkpt lat="42.58891" lon="1.55181">
        <ele>2053.188</ele>
        <time>2016-05-05T13:22:42Z</time>
      </trkpt>
      <trkpt lat="42.58892" lon="1.55206">
        <ele>2055.69</ele>
        <time>2016-05-05T13:23:02Z</time>
      </trkpt>
      <trkpt lat="42.5889" lon="1.55207">
        <ele>2056.158</ele>
        <time>2016-05-05T13:23:22Z</time>
      </trkpt>
      <trkpt lat="42.58888" lon="1.55208">
        <ele>2056.646</ele>
        <time>2016-05-05T13:23:42Z</time>
      </trkpt>
      <trkpt lat="42.58889" lon="1.55213">
        <ele>2057.144</ele>
        <time>2016-05-05T13:24:02Z</time>
      </trkpt>
      <trkpt lat="42.58887" lon="1.55226">
        <ele>2058.965</ele>
        <time>2016-05-05T13:24:22Z</time>
      </trkpt>
      <trkpt lat="42.58883" lon="1.5525">
        <ele>2064.343</ele>
        <time>2016-05-05T13:24:42Z</time>
      </trkpt>
      <trkpt lat="42.58882" lon="1.55272">
        <ele>2070.921</ele>
        <time>2016-05-05T13:25:02Z</time>
      </trkpt>
      <trkpt lat="42.5888" lon="1.55294">
        <ele>2077.187</ele>
        <time>2016-05-05T13:25:22Z</time>
      </trkpt>
      <trkpt lat="42.58878" lon="1.55319">
        <ele>2082.842</ele>
        <time>2016-05-05T13:25:42Z</time>
      </trkpt>
      <trkpt lat="42.58883" lon="1.55337">
        <ele>2085.426</ele>
        <time>2016-05-05T13:26:02Z</time>
      </trkpt>
      <trkpt lat="42.58884" lon="1.5536">
        <ele>2090.208</ele>
        <time>2016-05-05T13:26:22Z</time>
      </trkpt>
      <trkpt lat="42.58894" lon="1.55395">
        <ele>2092.829</ele>
        <time>2016-05-05T13:26:42Z</time>
      </trkpt>
      <trkpt lat="42.58906" lon="1.55444">
        <ele>2097.061</ele>
        <time>2016-05-05T13:27:02Z</time>
      </trkpt>
      <trkpt lat="42.58922" lon="1.5547">
        <ele>2097.789</ele>
        <time>2016-05-05T13:27:22Z</time>
      </trkpt>
      <trkpt lat="42.58929" lon="1.55481">
        <ele>2098.967</ele>
        <time>2016-05-05T13:27:42Z</time>
      </trkpt>
      <trkpt lat="42.58937" lon="1.55494">
        <ele>2100.715</ele>
        <time>2016-05-05T13:28:02Z</time>
      </trkpt>
      <trkpt lat="42.58945" lon="1.55504">
        <ele>2101.826</ele>
        <time>2016-05-05T13:28:22Z</time>
      </trkpt>
      <trkpt lat="42.58958" lon="1.55516">
        <ele>2103.674</ele>
        <time>2016-05-05T13:28:42Z</time>
      </trkpt>
      <trkpt lat="42.58966" lon="1.55531">
        <ele>2106.532</ele>
        <time>2016-05-05T13:29:02Z</time>
      </trkpt>
      <trkpt lat="42.58974" lon="1.5554">
        <ele>2108.122</ele>
        <time>2016-05-05T13:29:22Z</time>
      </trkpt>
      <trkpt lat="42.58984" lon="1.55556">
        <ele>2111.362</ele>
        <time>2016-05-05T13:29:42Z</time>
      </trkpt>
      <trkpt lat="42.58999" lon="1.55576">
        <ele>2113.108</ele>
        <time>2016-05-05T13:30:02Z</time>
      </trkpt>
      <trkpt lat="42.59015" lon="1.55593">
        <ele>2114.008</ele>
        <time>2016-05-05T13:30:22Z</time>
      </trkpt>
      <trkpt lat="42.59025" lon="1.55617">
        <ele>2118.713</ele>
        <time>2016-05-05T13:30:42Z</time>
      </trkpt>
      <trkpt lat="42.59039" lon="1.5563">
        <ele>2122.765</ele>
        <time>2016-05-05T13:31:02Z</time>
      </trkpt>
      <trkpt lat="42.59046" lon="1.55651">
        <ele>2128.013</ele>
        <time>2016-05-05T13:31:22Z</time>
      </trkpt>
      <trkpt lat="42.59049" lon="1.55694">
        <ele>2135.431</ele>
        <time>2016-05-05T13:31:42Z</time>
      </trkpt>
      <trkpt lat="42.5905" lon="1.5574">
        <ele>2141.849</ele>
        <time>2016-05-05T13:32:02Z</time>
      </trkpt>
      <trkpt lat="42.59051" lon="1.55762">
        <ele>2145.11</ele>
        <time>2016-05-05T13:32:22Z</time>
      </trkpt>
      <trkpt lat="42.59049" lon="1.55791">
        <ele>2149.498</ele>
        <time>2016-05-05T13:32:42Z</time>
      </trkpt>
      <trkpt lat="42.59048" lon="1.55815">
        <ele>2153.566</ele>
        <time>2016-05-05T13:33:02Z</time>
      </trkpt>
      <trkpt lat="42.59048" lon="1.55842">
        <ele>2157.873</ele>
        <time>2016-05-05T13:33:22Z</time>
      </trkpt>
      <trkpt lat="42.5905" lon="1.55868">
        <ele>2161.785</ele>
        <time>2016-05-05T13:33:42Z</time>
      </trkpt>
      <trkpt lat="42.59052" lon="1.55901">
        <ele>2168.813</ele>
        <time>2016-05-05T13:34:02Z</time>
      </trkpt>
      <trkpt lat="42.59056" lon="1.55929">
        <ele>2176.808</ele>
        <time>2016-05-05T13:34:22Z</time>
      </trkpt>
      <trkpt lat="42.59059" lon="1.55957">
        <ele>2185.018</ele>
        <time>2016-05-05T13:34:42Z</time>
      </trkpt>
      <trkpt lat="42.59062" lon="1.55982">
        <ele>2192.06</ele>
        <time>2016-05-05T13:35:02Z</time>
      </trkpt>
      <trkpt lat="42.59066" lon="1.56018">
        <ele>2202.228</ele>
        <time>2016-05-05T13:35:22Z</time>
      </trkpt>
      <trkpt lat="42.59072" lon="1.56049">
        <ele>2212.116</ele>
        <time>2016-05-05T13:35:42Z</time>
      </trkpt>
      <trkpt lat="42.59078" lon="1.56078">
        <ele>2221.674</ele>
        <time>2016-05-05T13:36:02Z</time>
      </trkpt>
      <trkpt lat="42.59082" lon="1.56103">
        <ele>2228.115</ele>
        <time>2016-05-05T13:36:22Z</time>
      </trkpt>
      <trkpt lat="42.59088" lon="1.56122">
        <ele>2233.933</ele>
        <time>2016-05-05T13:36:42Z</time>
      </trkpt>
      <trkpt lat="42.5909" lon="1.56139">
        <ele>2238.951</ele>
        <time>2016-05-05T13:37:02Z</time>
      </trkpt>
      <trkpt lat="42.59096" lon="1.5616">
        <ele>2246.696</ele>
        <time>2016-05-05T13:37:22Z</time>
      </trkpt>
      <trkpt lat="42.59097" lon="1.56174">
        <ele>2251.031</ele>
        <time>2016-05-05T13:37:42Z</time>
      </trkpt>
      <trkpt lat="42.59096" lon="1.56194">
        <ele>2256.224</ele>
        <time>2016-05-05T13:38:02Z</time>
      </trkpt>
      <trkpt lat="42.59093" lon="1.56216">
        <ele>2261.508</ele>
        <time>2016-05-05T13:38:22Z</time>
      </trkpt>
      <trkpt lat="42.591" lon="1.56238">
        <ele>2268.28</ele>
        <time>2016-05-05T13:38:42Z</time>
      </trkpt>
      <trkpt lat="42.59107" lon="1.56252">
        <ele>2272.612</ele>
        <time>2016-05-05T13:39:02Z</time>
      </trkpt>
      <trkpt lat="42.59124" lon="1.56268">
        <ele>2273.22</ele>
        <time>2016-05-05T13:39:22Z</time>
      </trkpt>
      <trkpt lat="42.5913" lon="1.56287">
        <ele>2273.738</ele>
        <time>2016-05-05T13:39:42Z</time>
      </trkpt>
      <trkpt lat="42.59131" lon="1.56315">
        <ele>2275.936</ele>
        <time>2016-05-05T13:40:02Z</time>
      </trkpt>
      <trkpt lat="42.59136" lon="1.56333">
        <ele>2276.347</ele>
        <time>2016-05-05T13:40:22Z</time>
      </trkpt>
      <trkpt lat="42.59146" lon="1.56362">
        <ele>2279.225</ele>
        <time>2016-05-05T13:40:42Z</time>
      </trkpt>
      <trkpt lat="42.59156" lon="1.56383">
        <ele>2284.343</ele>
        <time>2016-05-05T13:41:02Z</time>
      </trkpt>
      <trkpt lat="42.5916" lon="1.56399">
        <ele>2286.989</ele>
        <time>2016-05-05T13:41:22Z</time>
      </trkpt>
      <trkpt lat="42.59169" lon="1.56415">
        <ele>2288.206</ele>
        <time>2016-05-05T13:41:42Z</time>
      </trkpt>
      <trkpt lat="42.59176" lon="1.56436">
        <ele>2291.926</ele>
        <time>2016-05-05T13:42:02Z</time>
      </trkpt>
      <trkpt lat="42.5918" lon="1.56459">
        <ele>2295.908</ele>
        <time>2016-05-05T13:42:22Z</time>
      </trkpt>
      <trkpt lat="42.59196" lon="1.56476">
        <ele>2299.399</ele>
        <time>2016-05-05T13:42:42Z</time>
      </trkpt>
      <trkpt lat="42.59194" lon="1.56498">
        <ele>2301.891</ele>
        <time>2016-05-05T13:43:02Z</time>
      </trkpt>
      <trkpt lat="42.5919" lon="1.56519">
        <ele>2305.249</ele>
        <time>2016-05-05T13:43:22Z</time>
      </trkpt>
      <trkpt lat="42.59199" lon="1.56558">
        <ele>2308.687</ele>
        <time>2016-05-05T13:43:42Z</time>
      </trkpt>
      <trkpt lat="42.59204" lon="1.56582">
        <ele>2309.095</ele>
        <time>2016-05-05T13:44:02Z</time>
      </trkpt>
      <trkpt lat="42.59211" lon="1.56605">
        <ele>2309.836</ele>
        <time>2016-05-05T13:44:22Z</time>
      </trkpt>
      <trkpt lat="42.59213" lon="1.5663">
        <ele>2309.724</ele>
        <time>2016-05-05T13:44:42Z</time>
      </trkpt>
      <trkpt lat="42.59222" lon="1.5665">
        <ele>2307.292</ele>
        <time>2016-05-05T13:45:02Z</time>
      </trkpt>
      <trkpt lat="42.59237" lon="1.56682">
        <ele>2305.528</ele>
        <time>2016-05-05T13:45:22Z</time>
      </trkpt>
      <trkpt lat="42.5925" lon="1.56698">
        <ele>2306.889</ele>
        <time>2016-05-05T13:45:42Z</time>
      </trkpt>
      <trkpt lat="42.59263" lon="1.56727">
        <ele>2314.717</ele>
        <time>2016-05-05T13:46:02Z</time>
      </trkpt>
      <trkpt lat="42.59288" lon="1.56747">
        <ele>2320.808</ele>
        <time>2016-05-05T13:46:22Z</time>
      </trkpt>
      <trkpt lat="42.59304" lon="1.56767">
        <ele>2325.053</ele>
        <time>2016-05-05T13:46:42Z</time>
      </trkpt>
      <trkpt lat="42.59315" lon="1.56781">
        <ele>2328.345</ele>
        <time>2016-05-05T13:47:02Z</time>
      </trkpt>
      <trkpt lat="42.59324" lon="1.56788">
        <ele>2330.253</ele>
        <time>2016-05-05T13:47:22Z</time>
      </trkpt>
      <trkpt lat="42.59334" lon="1.56799">
        <ele>2332.881</ele>
        <time>2016-05-05T13:47:42Z</time>
      </trkpt>
      <trkpt lat="42.59342" lon="1.56808">
        <ele>2336.389</ele>
        <time>2016-05-05T13:48:02Z</time>
      </trkpt>
      <trkpt lat="42.59348" lon="1.56819">
        <ele>2341.01</ele>
        <time>2016-05-05T13:48:22Z</time>
      </trkpt>
      <trkpt lat="42.59358" lon="1.56832">
        <ele>2347.948</ele>
        <time>2016-05-05T13:48:42Z</time>
      </trkpt>
      <trkpt lat="42.59366" lon="1.56843">
        <ele>2352.326</ele>
        <time>2016-05-05T13:49:02Z</time>
      </trkpt>
      <trkpt lat="42.59374" lon="1.56854">
        <ele>2355.723</ele>
        <time>2016-05-05T13:49:22Z</time>
      </trkpt>
      <trkpt lat="42.59386" lon="1.56872">
        <ele>2360.483</ele>
        <time>2016-05-05T13:49:42Z</time>
      </trkpt>
      <trkpt lat="42.59395" lon="1.56887">
        <ele>2363.911</ele>
        <time>2016-05-05T13:50:02Z</time>
      </trkpt>
      <trkpt lat="42.59405" lon="1.56912">
        <ele>2368.108</ele>
        <time>2016-05-05T13:50:22Z</time>
      </trkpt>
      <trkpt lat="42.59407" lon="1.56941">
        <ele>2374.113</ele>
        <time>2016-05-05T13:50:42Z</time>
      </trkpt>
      <trkpt lat="42.59422" lon="1.56959">
        <ele>2382.135</ele>
        <time>2016-05-05T13:51:02Z</time>
      </trkpt>
      <trkpt lat="42.59436" lon="1.56973">
        <ele>2391.433</ele>
        <time>2016-05-05T13:51:22Z</time>
      </trkpt>
      <trkpt lat="42.59446" lon="1.56982">
        <ele>2397.841</ele>
        <time>2016-05-05T13:51:42Z</time>
      </trkpt>
      <trkpt lat="42.59463" lon="1.56978">
        <ele>2404.629</ele>
        <time>2016-05-05T13:52:02Z</time>
      </trkpt>
      <trkpt lat="42.59478" lon="1.56985">
        <ele>2410.85</ele>
        <time>2016-05-05T13:52:22Z</time>
      </trkpt>
      <trkpt lat="42.59483" lon="1.57002">
        <ele>2414.388</ele>
        <time>2016-05-05T13:52:42Z</time>
      </trkpt>
      <trkpt lat="42.59483" lon="1.57018">
        <ele>2418.696</ele>
        <time>2016-05-05T13:53:02Z</time>
      </trkpt>
      <trkpt lat="42.59483" lon="1.57036">
        <ele>2423.052</ele>
        <time>2016-05-05T13:53:22Z</time>
      </trkpt>
      <trkpt lat="42.59482" lon="1.57057">
        <ele>2428.353</ele>
        <time>2016-05-05T13:53:42Z</time>
      </trkpt>
      <trkpt lat="42.59481" lon="1.57083">
        <ele>2433.808</ele>
        <time>2016-05-05T13:54:02Z</time>
      </trkpt>
      <trkpt lat="42.5948" lon="1.57101">
        <ele>2435.608</ele>
        <time>2016-05-05T13:54:22Z</time>
      </trkpt>
      <trkpt lat="42.59483" lon="1.57128">
        <ele>2437.726</ele>
        <time>2016-05-05T13:54:42Z</time>
      </trkpt>
      <trkpt lat="42.59489" lon="1.57155">
        <ele>2439.368</ele>
        <time>2016-05-05T13:55:02Z</time>
      </trkpt>
      <trkpt lat="42.59491" lon="1.57175">
        <ele>2442.646</ele>
        <time>2016-05-05T13:55:22Z</time>
      </trkpt>
      <trkpt lat="42.59495" lon="1.57202">
        <ele>2450.074</ele>
        <time>2016-05-05T13:55:42Z</time>
      </trkpt>
      <trkpt lat="42.59492" lon="1.57227">
        <ele>2459.682</ele>
        <time>2016-05-05T13:56:02Z</time>
      </trkpt>
      <trkpt lat="42.59486" lon="1.57249">
        <ele>2468.123</ele>
        <time>2016-05-05T13:56:22Z</time>
      </trkpt>
      <trkpt lat="42.59486" lon="1.57273">
        <ele>2474.891</ele>
        <time>2016-05-05T13:56:42Z</time>
      </trkpt>
      <trkpt lat="42.59486" lon="1.57293">
        <ele>2479.719</ele>
        <time>2016-05-05T13:57:02Z</time>
      </trkpt>
      <trkpt lat="42.59483" lon="1.57318">
        <ele>2486.195</ele>
        <time>2016-05-05T13:57:22Z</time>
      </trkpt>
      <trkpt lat="42.59476" lon="1.5734">
        <ele>2492.249</ele>
        <time>2016-05-05T13:57:42Z</time>
      </trkpt>
      <trkpt lat="42.59471" lon="1.57363">
        <ele>2498.923</ele>
        <time>2016-05-05T13:58:02Z</time>
      </trkpt>
      <trkpt lat="42.59471" lon="1.57388">
        <ele>2505.808</ele>
        <time>2016-05-05T13:58:22Z</time>
      </trkpt>
      <trkpt lat="42.59471" lon="1.57411">
        <ele>2511.72</ele>
        <time>2016-05-05T13:58:42Z</time>
      </trkpt>
      <trkpt lat="42.59475" lon="1.57433">
        <ele>2518.242</ele>
        <time>2016-05-05T13:59:02Z</time>
      </trkpt>
      <trkpt lat="42.59483" lon="1.57457">
        <ele>2525.06</ele>
        <time>2016-05-05T13:59:22Z</time>
      </trkpt>
      <trkpt lat="42.59495" lon="1.57484">
        <ele>2531.978</ele>
        <time>2016-05-05T13:59:42Z</time>
      </trkpt>
      <trkpt lat="42.5951" lon="1.57498">
        <ele>2536.936</ele>
        <time>2016-05-05T14:00:02Z</time>
      </trkpt>
      <trkpt lat="42.59538" lon="1.57512">
        <ele>2542.927</ele>
        <time>2016-05-05T14:00:22Z</time>
      </trkpt>
      <trkpt lat="42.59553" lon="1.57526">
        <ele>2546.455</ele>
        <time>2016-05-05T14:00:42Z</time>
      </trkpt>
      <trkpt lat="42.59574" lon="1.57533">
        <ele>2550.053</ele>
        <time>2016-05-05T14:01:02Z</time>
      </trkpt>
      <trkpt lat="42.59595" lon="1.5754">
        <ele>2554.412</ele>
        <time>2016-05-05T14:01:22Z</time>
      </trkpt>
      <trkpt lat="42.59624" lon="1.57533">
        <ele>2563.432</ele>
        <time>2016-05-05T14:01:42Z</time>
      </trkpt>
      <trkpt lat="42.59648" lon="1.57526">
        <ele>2570.705</ele>
        <time>2016-05-05T14:02:02Z</time>
      </trkpt>
      <trkpt lat="42.59676" lon="1.57522">
        <ele>2579.408</ele>
        <time>2016-05-05T14:02:22Z</time>
      </trkpt>
      <trkpt lat="42.59731" lon="1.575">
        <ele>2598.362</ele>
        <time>2016-05-05T14:02:42Z</time>
      </trkpt>
      <trkpt lat="42.59778" lon="1.57472">
        <ele>2615.664</ele>
        <time>2016-05-05T14:03:02Z</time>
      </trkpt>
      <trkpt lat="42.59832" lon="1.5743">
        <ele>2627.142</ele>
        <time>2016-05-05T14:03:22Z</time>
      </trkpt>
      <trkpt lat="42.59872" lon="1.57397">
        <ele>2634.58</ele>
        <time>2016-05-05T14:03:42Z</time>
      </trkpt>
      <trkpt lat="42.59898" lon="1.57386">
        <ele>2636.658</ele>
        <time>2016-05-05T14:04:02Z</time>
      </trkpt>
      <trkpt lat="42.59922" lon="1.57375">
        <ele>2637.049</ele>
        <time>2016-05-05T14:04:22Z</time>
      </trkpt>
      <trkpt lat="42.6001" lon="1.5733">
        <ele>2631.457</ele>
        <time>2016-05-05T14:04:42Z</time>
      </trkpt>
      <trkpt lat="42.60076" lon="1.57293">
        <ele>2614.665</ele>
        <time>2016-05-05T14:05:02Z</time>
      </trkpt>
      <trkpt lat="42.60129" lon="1.57259">
        <ele>2598.914</ele>
        <time>2016-05-05T14:05:22Z</time>
      </trkpt>
      <trkpt lat="42.60161" lon="1.57233">
        <ele>2590.754</ele>
        <time>2016-05-05T14:05:42Z</time>
      </trkpt>
      <trkpt lat="42.60204" lon="1.57198">
        <ele>2586.309</ele>
        <time>2016-05-05T14:06:02Z</time>
      </trkpt>
      <trkpt lat="42.60237" lon="1.57173">
        <ele>2585.608</ele>
        <time>2016-05-05T14:06:22Z</time>
      </trkpt>
      <trkpt lat="42.60254" lon="1.57137">
        <ele>2577.492</ele>
        <time>2016-05-05T14:06:42Z</time>
      </trkpt>
      <trkpt lat="42.60275" lon="1.57098">
        <ele>2569.794</ele>
        <time>2016-05-05T14:07:02Z</time>
      </trkpt>
      <trkpt lat="42.60299" lon="1.57063">
        <ele>2572.462</ele>
        <time>2016-05-05T14:07:22Z</time>
      </trkpt>
      <trkpt lat="42.60313" lon="1.57032">
        <ele>2572.69</ele>
        <time>2016-05-05T14:07:42Z</time>
      </trkpt>
      <trkpt lat="42.60333" lon="1.56993">
        <ele>2575.358</ele>
        <time>2016-05-05T14:08:02Z</time>
      </trkpt>
      <trkpt lat="42.60339" lon="1.56957">
        <ele>2571.919</ele>
        <time>2016-05-05T14:08:22Z</time>
      </trkpt>
      <trkpt lat="42.60339" lon="1.56923">
        <ele>2564.857</ele>
        <time>2016-05-05T14:08:42Z</time>
      </trkpt>
      <trkpt lat="42.60342" lon="1.56877">
        <ele>2557.955</ele>
        <time>2016-05-05T14:09:02Z</time>
      </trkpt>
      <trkpt lat="42.60338" lon="1.56823">
        <ele>2540.695</ele>
        <time>2016-05-05T14:09:22Z</time>
      </trkpt>
      <trkpt lat="42.60346" lon="1.56774">
        <ele>2528.449</ele>
        <time>2016-05-05T14:09:42Z</time>
      </trkpt>
      <trkpt lat="42.60383" lon="1.56785">
        <ele>2522.423</ele>
        <time>2016-05-05T14:10:02Z</time>
      </trkpt>
      <trkpt lat="42.60404" lon="1.56803">
        <ele>2519.808</ele>
        <time>2016-05-05T14:10:22Z</time>
      </trkpt>
      <trkpt lat="42.6043" lon="1.56829">
        <ele>2519.64</ele>
        <time>2016-05-05T14:10:42Z</time>
      </trkpt>
      <trkpt lat="42.60447" lon="1.56846">
        <ele>2520.182</ele>
        <time>2016-05-05T14:11:02Z</time>
      </trkpt>
      <trkpt lat="42.60465" lon="1.56866">
        <ele>2525.88</ele>
        <time>2016-05-05T14:11:22Z</time>
      </trkpt>
      <trkpt lat="42.60493" lon="1.56869">
        <ele>2525.718</ele>
        <time>2016-05-05T14:11:42Z</time>
      </trkpt>
      <trkpt lat="42.60527" lon="1.56874">
        <ele>2526.276</ele>
        <time>2016-05-05T14:12:02Z</time>
      </trkpt>
      <trkpt lat="42.60546" lon="1.56891">
        <ele>2525.647</ele>
        <time>2016-05-05T14:12:22Z</time>
      </trkpt>
      <trkpt lat="42.60566" lon="1.56907">
        <ele>2528.765</ele>
        <time>2016-05-05T14:12:42Z</time>
      </trkpt>
      <trkpt lat="42.60591" lon="1.56922">
        <ele>2535.363</ele>
        <time>2016-05-05T14:13:02Z</time>
      </trkpt>
      <trkpt lat="42.60592" lon="1.56926">
        <ele>2536.952</ele>
        <time>2016-05-05T14:13:22Z</time>
      </trkpt>
      <trkpt lat="42.60608" lon="1.56928">
        <ele>2537.753</ele>
        <time>2016-05-05T14:13:42Z</time>
      </trkpt>
      <trkpt lat="42.60622" lon="1.56925">
        <ele>2536.508</ele>
        <time>2016-05-05T14:14:02Z</time>
      </trkpt>
      <trkpt lat="42.60632" lon="1.5691">
        <ele>2533.908</ele>
        <time>2016-05-05T14:14:22Z</time>
      </trkpt>
      <trkpt lat="42.60644" lon="1.56905">
        <ele>2533.386</ele>
        <time>2016-05-05T14:14:42Z</time>
      </trkpt>
      <trkpt lat="42.6067" lon="1.56915">
        <ele>2526.558</ele>
        <time>2016-05-05T14:15:02Z</time>
      </trkpt>
      <trkpt lat="42.60676" lon="1.56947">
        <ele>2518.386</ele>
        <time>2016-05-05T14:15:22Z</time>
      </trkpt>
      <trkpt lat="42.60677" lon="1.5699">
        <ele>2509.594</ele>
        <time>2016-05-05T14:15:42Z</time>
      </trkpt>
      <trkpt lat="42.60687" lon="1.5704">
        <ele>2500.152</ele>
        <time>2016-05-05T14:16:02Z</time>
      </trkpt>
      <trkpt lat="42.60678" lon="1.57059">
        <ele>2503.163</ele>
        <time>2016-05-05T14:16:22Z</time>
      </trkpt>
      <trkpt lat="42.60676" lon="1.57076">
        <ele>2502.721</ele>
        <time>2016-05-05T14:16:42Z</time>
      </trkpt>
      <trkpt lat="42.60671" lon="1.57097">
        <ele>2500.269</ele>
        <time>2016-05-05T14:17:02Z</time>
      </trkpt>
      <trkpt lat="42.60662" lon="1.57106">
        <ele>2500.316</ele>
        <time>2016-05-05T14:17:22Z</time>
      </trkpt>
      <trkpt lat="42.60654" lon="1.57128">
        <ele>2498.376</ele>
        <time>2016-05-05T14:17:42Z</time>
      </trkpt>
      <trkpt lat="42.60653" lon="1.57148">
        <ele>2495.513</ele>
        <time>2016-05-05T14:18:02Z</time>
      </trkpt>
      <trkpt lat="42.60652" lon="1.57161">
        <ele>2494.308</ele>
        <time>2016-05-05T14:18:22Z</time>
      </trkpt>
      <trkpt lat="42.60649" lon="1.57173">
        <ele>2492.182</ele>
        <time>2016-05-05T14:18:42Z</time>
      </trkpt>
      <trkpt lat="42.60648" lon="1.57182">
        <ele>2489.324</ele>
        <time>2016-05-05T14:19:02Z</time>
      </trkpt>
      <trkpt lat="42.60642" lon="1.57202">
        <ele>2484.622</ele>
        <time>2016-05-05T14:19:22Z</time>
      </trkpt>
      <trkpt lat="42.60641" lon="1.5721">
        <ele>2482.64</ele>
        <time>2016-05-05T14:19:42Z</time>
      </trkpt>
      <trkpt lat="42.60643" lon="1.57219">
        <ele>2477.538</ele>
        <time>2016-05-05T14:20:02Z</time>
      </trkpt>
      <trkpt lat="42.60648" lon="1.57229">
        <ele>2472.199</ele>
        <time>2016-05-05T14:20:22Z</time>
      </trkpt>
      <trkpt lat="42.60661" lon="1.57228">
        <ele>2464.267</ele>
        <time>2016-05-05T14:20:42Z</time>
      </trkpt>
      <trkpt lat="42.60664" lon="1.57236">
        <ele>2460.955</ele>
        <time>2016-05-05T14:21:02Z</time>
      </trkpt>
      <trkpt lat="42.60665" lon="1.57242">
        <ele>2458.754</ele>
        <time>2016-05-05T14:21:22Z</time>
      </trkpt>
      <trkpt lat="42.60667" lon="1.5725">
        <ele>2455.956</ele>
        <time>2016-05-05T14:21:42Z</time>
      </trkpt>
      <trkpt lat="42.60668" lon="1.57257">
        <ele>2453.211</ele>
        <time>2016-05-05T14:22:02Z</time>
      </trkpt>
      <trkpt lat="42.60663" lon="1.57266">
        <ele>2454.308</ele>
        <time>2016-05-05T14:22:22Z</time>
      </trkpt>
      <trkpt lat="42.6066" lon="1.57272">
        <ele>2454.676</ele>
        <time>2016-05-05T14:22:42Z</time>
      </trkpt>
      <trkpt lat="42.60662" lon="1.57278">
        <ele>2452.198</ele>
        <time>2016-05-05T14:23:02Z</time>
      </trkpt>
      <trkpt lat="42.60667" lon="1.57281">
        <ele>2448.166</ele>
        <time>2016-05-05T14:23:22Z</time>
      </trkpt>
      <trkpt lat="42.6067" lon="1.57286">
        <ele>2444.784</ele>
        <time>2016-05-05T14:23:42Z</time>
      </trkpt>
      <trkpt lat="42.60671" lon="1.57296">
        <ele>2441.862</ele>
        <time>2016-05-05T14:24:02Z</time>
      </trkpt>
      <trkpt lat="42.6067" lon="1.57301">
        <ele>2440.943</ele>
        <time>2016-05-05T14:24:22Z</time>
      </trkpt>
      <trkpt lat="42.60676" lon="1.57307">
        <ele>2435.121</ele>
        <time>2016-05-05T14:24:42Z</time>
      </trkpt>
      <trkpt lat="42.60674" lon="1.57314">
        <ele>2434.869</ele>
        <time>2016-05-05T14:25:02Z</time>
      </trkpt>
      <trkpt lat="42.60672" lon="1.57322">
        <ele>2434.297</ele>
        <time>2016-05-05T14:25:22Z</time>
      </trkpt>
      <trkpt lat="42.6067" lon="1.5733">
        <ele>2433.123</ele>
        <time>2016-05-05T14:25:42Z</time>
      </trkpt>
      <trkpt lat="42.60669" lon="1.57337">
        <ele>2431.325</ele>
        <time>2016-05-05T14:26:02Z</time>
      </trkpt>
      <trkpt lat="42.6067" lon="1.57345">
        <ele>2428.108</ele>
        <time>2016-05-05T14:26:22Z</time>
      </trkpt>
      <trkpt lat="42.60672" lon="1.57352">
        <ele>2424.97</ele>
        <time>2016-05-05T14:26:42Z</time>
      </trkpt>
      <trkpt lat="42.60671" lon="1.57361">
        <ele>2422.912</ele>
        <time>2016-05-05T14:27:02Z</time>
      </trkpt>
      <trkpt lat="42.60673" lon="1.57372">
        <ele>2419.64</ele>
        <time>2016-05-05T14:27:22Z</time>
      </trkpt>
      <trkpt lat="42.60675" lon="1.57384">
        <ele>2415.328</ele>
        <time>2016-05-05T14:27:42Z</time>
      </trkpt>
      <trkpt lat="42.60679" lon="1.57394">
        <ele>2411.556</ele>
        <time>2016-05-05T14:28:02Z</time>
      </trkpt>
      <trkpt lat="42.60684" lon="1.57405">
        <ele>2408.537</ele>
        <time>2016-05-05T14:28:22Z</time>
      </trkpt>
      <trkpt lat="42.60686" lon="1.57415">
        <ele>2406.525</ele>
        <time>2016-05-05T14:28:42Z</time>
      </trkpt>
      <trkpt lat="42.60682" lon="1.57434">
        <ele>2406.543</ele>
        <time>2016-05-05T14:29:02Z</time>
      </trkpt>
      <trkpt lat="42.6068" lon="1.57446">
        <ele>2405.458</ele>
        <time>2016-05-05T14:29:22Z</time>
      </trkpt>
      <trkpt lat="42.60679" lon="1.5746">
        <ele>2404.152</ele>
        <time>2016-05-05T14:29:42Z</time>
      </trkpt>
      <trkpt lat="42.60676" lon="1.57471">
        <ele>2404.417</ele>
        <time>2016-05-05T14:30:02Z</time>
      </trkpt>
      <trkpt lat="42.60677" lon="1.57477">
        <ele>2403.408</ele>
        <time>2016-05-05T14:30:22Z</time>
      </trkpt>
      <trkpt lat="42.60675" lon="1.57479">
        <ele>2404.036</ele>
        <time>2018-06-26T14:50:38Z</time>
      </trkpt>
      <trkpt lat="42.60674" lon="1.57499">
        <ele>2403.128</ele>
        <time>2018-06-26T14:50:58Z</time>
      </trkpt>
      <trkpt lat="42.60667" lon="1.57539">
        <ele>2409.696</ele>
        <time>2018-06-26T14:51:18Z</time>
      </trkpt>
      <trkpt lat="42.60671" lon="1.57564">
        <ele>2411.694</ele>
        <time>2018-06-26T14:51:38Z</time>
      </trkpt>
      <trkpt lat="42.60669" lon="1.57583">
        <ele>2414.612</ele>
        <time>2018-06-26T14:51:58Z</time>
      </trkpt>
      <trkpt lat="42.60669" lon="1.57601">
        <ele>2414.793</ele>
        <time>2018-06-26T14:52:18Z</time>
      </trkpt>
      <trkpt lat="42.60672" lon="1.57617">
        <ele>2414.211</ele>
        <time>2018-06-26T14:52:38Z</time>
      </trkpt>
      <trkpt lat="42.60675" lon="1.57629">
        <ele>2413.399</ele>
        <time>2018-06-26T14:52:58Z</time>
      </trkpt>
      <trkpt lat="42.6068" lon="1.57639">
        <ele>2412.924</ele>
        <time>2018-06-26T14:53:18Z</time>
      </trkpt>
      <trkpt lat="42.6068" lon="1.57655">
        <ele>2412.104</ele>
        <time>2018-06-26T14:53:38Z</time>
      </trkpt>
      <trkpt lat="42.60684" lon="1.57667">
        <ele>2411.814</ele>
        <time>2018-06-26T14:53:58Z</time>
      </trkpt>
      <trkpt lat="42.60685" lon="1.57682">
        <ele>2411.808</ele>
        <time>2018-06-26T14:54:18Z</time>
      </trkpt>
      <trkpt lat="42.60687" lon="1.577">
        <ele>2411.783</ele>
        <time>2018-06-26T14:54:38Z</time>
      </trkpt>
      <trkpt lat="42.60689" lon="1.57712">
        <ele>2411.615</ele>
        <time>2018-06-26T14:54:58Z</time>
      </trkpt>
      <trkpt lat="42.60691" lon="1.57724">
        <ele>2411.473</ele>
        <time>2018-06-26T14:55:18Z</time>
      </trkpt>
      <trkpt lat="42.60693" lon="1.57736">
        <ele>2410.971</ele>
        <time>2018-06-26T14:55:38Z</time>
      </trkpt>
      <trkpt lat="42.60694" lon="1.57747">
        <ele>2410.239</ele>
        <time>2018-06-26T14:55:58Z</time>
      </trkpt>
      <trkpt lat="42.60696" lon="1.5776">
        <ele>2409.12</ele>
        <time>2018-06-26T14:56:18Z</time>
      </trkpt>
      <trkpt lat="42.60699" lon="1.5777">
        <ele>2408.438</ele>
        <time>2018-06-26T14:56:38Z</time>
      </trkpt>
      <trkpt lat="42.607" lon="1.57781">
        <ele>2407.146</ele>
        <time>2018-06-26T14:56:58Z</time>
      </trkpt>
      <trkpt lat="42.60702" lon="1.5779">
        <ele>2405.765</ele>
        <time>2018-06-26T14:57:18Z</time>
      </trkpt>
      <trkpt lat="42.60703" lon="1.57798">
        <ele>2404.268</ele>
        <time>2018-06-26T14:57:38Z</time>
      </trkpt>
      <trkpt lat="42.60705" lon="1.57814">
        <ele>2400.714</ele>
        <time>2018-06-26T14:57:58Z</time>
      </trkpt>
      <trkpt lat="42.60709" lon="1.57822">
        <ele>2398.508</ele>
        <time>2018-06-26T14:58:18Z</time>
      </trkpt>
      <trkpt lat="42.60709" lon="1.57831">
        <ele>2396.137</ele>
        <time>2018-06-26T14:58:38Z</time>
      </trkpt>
      <trkpt lat="42.60712" lon="1.57841">
        <ele>2394.129</ele>
        <time>2018-06-26T14:58:58Z</time>
      </trkpt>
      <trkpt lat="42.60715" lon="1.57851">
        <ele>2392.777</ele>
        <time>2018-06-26T14:59:18Z</time>
      </trkpt>
      <trkpt lat="42.60717" lon="1.5786">
        <ele>2391.355</ele>
        <time>2018-06-26T14:59:38Z</time>
      </trkpt>
      <trkpt lat="42.60724" lon="1.57858">
        <ele>2390.313</ele>
        <time>2018-06-26T14:59:58Z</time>
      </trkpt>
      <trkpt lat="42.60732" lon="1.57855">
        <ele>2390.384</ele>
        <time>2018-06-26T15:00:18Z</time>
      </trkpt>
      <trkpt lat="42.60747" lon="1.57839">
        <ele>2388.872</ele>
        <time>2018-06-26T15:00:38Z</time>
      </trkpt>
      <trkpt lat="42.60765" lon="1.57839">
        <ele>2386.31</ele>
        <time>2018-06-26T15:00:58Z</time>
      </trkpt>
      <trkpt lat="42.60775" lon="1.57835">
        <ele>2384.611</ele>
        <time>2018-06-26T15:01:18Z</time>
      </trkpt>
      <trkpt lat="42.60785" lon="1.57828">
        <ele>2382.121</ele>
        <time>2018-06-26T15:01:38Z</time>
      </trkpt>
      <trkpt lat="42.60792" lon="1.5782">
        <ele>2379.803</ele>
        <time>2018-06-26T15:01:58Z</time>
      </trkpt>
      <trkpt lat="42.608" lon="1.57809">
        <ele>2377.408</ele>
        <time>2018-06-26T15:02:18Z</time>
      </trkpt>
      <trkpt lat="42.60813" lon="1.57803">
        <ele>2374.072</ele>
        <time>2018-06-26T15:02:38Z</time>
      </trkpt>
      <trkpt lat="42.60836" lon="1.57804">
        <ele>2368.624</ele>
        <time>2018-06-26T15:02:58Z</time>
      </trkpt>
      <trkpt lat="42.60865" lon="1.5781">
        <ele>2364.122</ele>
        <time>2018-06-26T15:03:18Z</time>
      </trkpt>
      <trkpt lat="42.60888" lon="1.57811">
        <ele>2360.73</ele>
        <time>2018-06-26T15:03:38Z</time>
      </trkpt>
      <trkpt lat="42.60914" lon="1.57812">
        <ele>2355.188</ele>
        <time>2018-06-26T15:03:58Z</time>
      </trkpt>
      <trkpt lat="42.60934" lon="1.57811">
        <ele>2350.159</ele>
        <time>2018-06-26T15:04:18Z</time>
      </trkpt>
      <trkpt lat="42.60957" lon="1.57809">
        <ele>2344.757</ele>
        <time>2018-06-26T15:04:38Z</time>
      </trkpt>
      <trkpt lat="42.60975" lon="1.57808">
        <ele>2341.365</ele>
        <time>2018-06-26T15:04:58Z</time>
      </trkpt>
      <trkpt lat="42.61002" lon="1.57807">
        <ele>2337.212</ele>
        <time>2018-06-26T15:05:18Z</time>
      </trkpt>
      <trkpt lat="42.61018" lon="1.57778">
        <ele>2337.332</ele>
        <time>2018-06-26T15:05:38Z</time>
      </trkpt>
      <trkpt lat="42.61022" lon="1.57747">
        <ele>2332.705</ele>
        <time>2018-06-26T15:05:58Z</time>
      </trkpt>
      <trkpt lat="42.61039" lon="1.5773">
        <ele>2326.908</ele>
        <time>2018-06-26T15:06:18Z</time>
      </trkpt>
      <trkpt lat="42.61048" lon="1.57705">
        <ele>2319.942</ele>
        <time>2018-06-26T15:06:38Z</time>
      </trkpt>
      <trkpt lat="42.61061" lon="1.57691">
        <ele>2314.944</ele>
        <time>2018-06-26T15:06:58Z</time>
      </trkpt>
      <trkpt lat="42.61075" lon="1.57677">
        <ele>2310.812</ele>
        <time>2018-06-26T15:07:18Z</time>
      </trkpt>
      <trkpt lat="42.61089" lon="1.57661">
        <ele>2307.59</ele>
        <time>2018-06-26T15:07:38Z</time>
      </trkpt>
      <trkpt lat="42.61113" lon="1.57649">
        <ele>2307.458</ele>
        <time>2018-06-26T15:07:58Z</time>
      </trkpt>
      <trkpt lat="42.61112" lon="1.57625">
        <ele>2303.029</ele>
        <time>2018-06-26T15:08:18Z</time>
      </trkpt>
      <trkpt lat="42.61101" lon="1.57587">
        <ele>2295.237</ele>
        <time>2018-06-26T15:08:38Z</time>
      </trkpt>
      <trkpt lat="42.61086" lon="1.5754">
        <ele>2285.685</ele>
        <time>2018-06-26T15:08:58Z</time>
      </trkpt>
      <trkpt lat="42.61093" lon="1.5751">
        <ele>2283.342</ele>
        <time>2018-06-26T15:09:18Z</time>
      </trkpt>
      <trkpt lat="42.61098" lon="1.57482">
        <ele>2279.922</ele>
        <time>2018-06-26T15:09:38Z</time>
      </trkpt>
      <trkpt lat="42.61112" lon="1.57464">
        <ele>2276.214</ele>
        <time>2018-06-26T15:09:58Z</time>
      </trkpt>
      <trkpt lat="42.61127" lon="1.57449">
        <ele>2272.708</ele>
        <time>2018-06-26T15:10:18Z</time>
      </trkpt>
      <trkpt lat="42.61136" lon="1.57436">
        <ele>2269.335</ele>
        <time>2018-06-26T15:10:38Z</time>
      </trkpt>
      <trkpt lat="42.61151" lon="1.57433">
        <ele>2267.327</ele>
        <time>2018-06-26T15:10:58Z</time>
      </trkpt>
      <trkpt lat="42.6116" lon="1.57427">
        <ele>2264.665</ele>
        <time>2018-06-26T15:11:18Z</time>
      </trkpt>
      <trkpt lat="42.61174" lon="1.57415">
        <ele>2259.593</ele>
        <time>2018-06-26T15:11:38Z</time>
      </trkpt>
      <trkpt lat="42.61183" lon="1.57401">
        <ele>2256.641</ele>
        <time>2018-06-26T15:11:58Z</time>
      </trkpt>
      <trkpt lat="42.61212" lon="1.57392">
        <ele>2251.332</ele>
        <time>2018-06-26T15:12:18Z</time>
      </trkpt>
      <trkpt lat="42.61212" lon="1.57392">
        <ele>2251.36</ele>
        <time>2016-05-05T14:38:02Z</time>
      </trkpt>
      <trkpt lat="42.61228" lon="1.57375">
        <ele>2249.718</ele>
        <time>2016-05-05T14:38:22Z</time>
      </trkpt>
      <trkpt lat="42.61241" lon="1.57362">
        <ele>2248.744</ele>
        <time>2016-05-05T14:38:42Z</time>
      </trkpt>
      <trkpt lat="42.61261" lon="1.57339">
        <ele>2247.705</ele>
        <time>2016-05-05T14:39:02Z</time>
      </trkpt>
      <trkpt lat="42.61279" lon="1.57306">
        <ele>2245.915</ele>
        <time>2016-05-05T14:39:22Z</time>
      </trkpt>
      <trkpt lat="42.61294" lon="1.5728">
        <ele>2244.808</ele>
        <time>2016-05-05T14:39:42Z</time>
      </trkpt>
      <trkpt lat="42.61307" lon="1.57257">
        <ele>2244.655</ele>
        <time>2016-05-05T14:40:02Z</time>
      </trkpt>
      <trkpt lat="42.61308" lon="1.57226">
        <ele>2244.457</ele>
        <time>2016-05-05T14:40:22Z</time>
      </trkpt>
      <trkpt lat="42.61323" lon="1.57211">
        <ele>2241.155</ele>
        <time>2016-05-05T14:40:42Z</time>
      </trkpt>
      <trkpt lat="42.61347" lon="1.57203">
        <ele>2232.943</ele>
        <time>2016-05-05T14:41:02Z</time>
      </trkpt>
      <trkpt lat="42.61369" lon="1.57176">
        <ele>2224.561</ele>
        <time>2016-05-05T14:41:22Z</time>
      </trkpt>
      <trkpt lat="42.61378" lon="1.57138">
        <ele>2218.612</ele>
        <time>2016-05-05T14:41:42Z</time>
      </trkpt>
      <trkpt lat="42.61372" lon="1.57111">
        <ele>2215.55</ele>
        <time>2016-05-05T14:42:02Z</time>
      </trkpt>
      <trkpt lat="42.61355" lon="1.57064">
        <ele>2208.098</ele>
        <time>2016-05-05T14:42:22Z</time>
      </trkpt>
      <trkpt lat="42.61366" lon="1.57054">
        <ele>2202.887</ele>
        <time>2016-05-05T14:42:42Z</time>
      </trkpt>
      <trkpt lat="42.61367" lon="1.57019">
        <ele>2196.542</ele>
        <time>2016-05-05T14:43:02Z</time>
      </trkpt>
      <trkpt lat="42.61376" lon="1.56988">
        <ele>2191.926</ele>
        <time>2016-05-05T14:43:22Z</time>
      </trkpt>
      <trkpt lat="42.61389" lon="1.56949">
        <ele>2189.208</ele>
        <time>2016-05-05T14:43:42Z</time>
      </trkpt>
      <trkpt lat="42.61411" lon="1.56934">
        <ele>2185.479</ele>
        <time>2016-05-05T14:44:02Z</time>
      </trkpt>
      <trkpt lat="42.61435" lon="1.56911">
        <ele>2182.451</ele>
        <time>2016-05-05T14:44:22Z</time>
      </trkpt>
      <trkpt lat="42.61461" lon="1.56891">
        <ele>2177.949</ele>
        <time>2016-05-05T14:44:42Z</time>
      </trkpt>
      <trkpt lat="42.61491" lon="1.56864">
        <ele>2171.077</ele>
        <time>2016-05-05T14:45:02Z</time>
      </trkpt>
      <trkpt lat="42.61512" lon="1.56842">
        <ele>2164.735</ele>
        <time>2016-05-05T14:45:22Z</time>
      </trkpt>
      <trkpt lat="42.61528" lon="1.56822">
        <ele>2159.816</ele>
        <time>2016-05-05T14:45:42Z</time>
      </trkpt>
      <trkpt lat="42.61557" lon="1.568">
        <ele>2153.254</ele>
        <time>2016-05-05T14:46:02Z</time>
      </trkpt>
      <trkpt lat="42.61583" lon="1.56784">
        <ele>2147.322</ele>
        <time>2016-05-05T14:46:22Z</time>
      </trkpt>
      <trkpt lat="42.61612" lon="1.56756">
        <ele>2141.356</ele>
        <time>2016-05-05T14:46:42Z</time>
      </trkpt>
      <trkpt lat="42.61632" lon="1.5674">
        <ele>2136.759</ele>
        <time>2016-05-05T14:47:02Z</time>
      </trkpt>
      <trkpt lat="42.61654" lon="1.56734">
        <ele>2132.214</ele>
        <time>2016-05-05T14:47:22Z</time>
      </trkpt>
      <trkpt lat="42.61684" lon="1.56737">
        <ele>2125.108</ele>
        <time>2016-05-05T14:47:42Z</time>
      </trkpt>
      <trkpt lat="42.61708" lon="1.56745">
        <ele>2118.576</ele>
        <time>2016-05-05T14:48:02Z</time>
      </trkpt>
      <trkpt lat="42.61731" lon="1.5674">
        <ele>2110.878</ele>
        <time>2016-05-05T14:48:22Z</time>
      </trkpt>
      <trkpt lat="42.61751" lon="1.56729">
        <ele>2104.176</ele>
        <time>2016-05-05T14:48:42Z</time>
      </trkpt>
      <trkpt lat="42.61773" lon="1.5671">
        <ele>2095.024</ele>
        <time>2016-05-05T14:49:02Z</time>
      </trkpt>
      <trkpt lat="42.61788" lon="1.56725">
        <ele>2089.912</ele>
        <time>2016-05-05T14:49:22Z</time>
      </trkpt>
      <trkpt lat="42.618" lon="1.5673">
        <ele>2085.533</ele>
        <time>2016-05-05T14:49:42Z</time>
      </trkpt>
      <trkpt lat="42.61823" lon="1.56742">
        <ele>2075.561</ele>
        <time>2016-05-05T14:50:02Z</time>
      </trkpt>
      <trkpt lat="42.61844" lon="1.56753">
        <ele>2065.999</ele>
        <time>2016-05-05T14:50:22Z</time>
      </trkpt>
      <trkpt lat="42.61862" lon="1.56761">
        <ele>2056.857</ele>
        <time>2016-05-05T14:50:42Z</time>
      </trkpt>
      <trkpt lat="42.61882" lon="1.56736">
        <ele>2046.9</ele>
        <time>2016-05-05T14:51:02Z</time>
      </trkpt>
      <trkpt lat="42.61894" lon="1.56711">
        <ele>2040.92</ele>
        <time>2016-05-05T14:51:22Z</time>
      </trkpt>
      <trkpt lat="42.61901" lon="1.56686">
        <ele>2035.808</ele>
        <time>2016-05-05T14:51:42Z</time>
      </trkpt>
      <trkpt lat="42.61906" lon="1.56653">
        <ele>2028.456</ele>
        <time>2016-05-05T14:52:02Z</time>
      </trkpt>
      <trkpt lat="42.6192" lon="1.56625">
        <ele>2018.328</ele>
        <time>2016-05-05T14:52:22Z</time>
      </trkpt>
      <trkpt lat="42.6194" lon="1.56604">
        <ele>2007.366</ele>
        <time>2016-05-05T14:52:42Z</time>
      </trkpt>
      <trkpt lat="42.61953" lon="1.56615">
        <ele>2002.154</ele>
        <time>2016-05-05T14:53:02Z</time>
      </trkpt>
      <trkpt lat="42.61977" lon="1.56637">
        <ele>1992.222</ele>
        <time>2016-05-05T14:53:22Z</time>
      </trkpt>
      <trkpt lat="42.61989" lon="1.56643">
        <ele>1987.813</ele>
        <time>2016-05-05T14:53:42Z</time>
      </trkpt>
      <trkpt lat="42.62017" lon="1.56601">
        <ele>1974.051</ele>
        <time>2016-05-05T14:54:02Z</time>
      </trkpt>
      <trkpt lat="42.6205" lon="1.56607">
        <ele>1962.899</ele>
        <time>2016-05-05T14:54:22Z</time>
      </trkpt>
      <trkpt lat="42.6206" lon="1.56606">
        <ele>1959.732</ele>
        <time>2016-05-05T14:54:42Z</time>
      </trkpt>
      <trkpt lat="42.62074" lon="1.56586">
        <ele>1954.392</ele>
        <time>2016-05-05T14:55:02Z</time>
      </trkpt>
      <trkpt lat="42.62086" lon="1.56561">
        <ele>1949.111</ele>
        <time>2016-05-05T14:55:22Z</time>
      </trkpt>
      <trkpt lat="42.62094" lon="1.56515">
        <ele>1942.508</ele>
        <time>2016-05-05T14:55:42Z</time>
      </trkpt>
      <trkpt lat="42.62116" lon="1.56492">
        <ele>1938.014</ele>
        <time>2016-05-05T14:56:02Z</time>
      </trkpt>
      <trkpt lat="42.62141" lon="1.56484">
        <ele>1940.136</ele>
        <time>2016-05-05T14:56:22Z</time>
      </trkpt>
      <trkpt lat="42.62149" lon="1.56475">
        <ele>1940.344</ele>
        <time>2016-05-05T14:56:42Z</time>
      </trkpt>
      <trkpt lat="42.6216" lon="1.56473">
        <ele>1941.472</ele>
        <time>2016-05-05T14:57:02Z</time>
      </trkpt>
      <trkpt lat="42.62178" lon="1.56468">
        <ele>1945.31</ele>
        <time>2016-05-05T14:57:22Z</time>
      </trkpt>
      <trkpt lat="42.62196" lon="1.56465">
        <ele>1950.991</ele>
        <time>2016-05-05T14:57:42Z</time>
      </trkpt>
      <trkpt lat="42.62211" lon="1.56457">
        <ele>1955.389</ele>
        <time>2016-05-05T14:58:02Z</time>
      </trkpt>
      <trkpt lat="42.62229" lon="1.5644">
        <ele>1959.977</ele>
        <time>2016-05-05T14:58:22Z</time>
      </trkpt>
      <trkpt lat="42.62249" lon="1.56433">
        <ele>1966.218</ele>
        <time>2016-05-05T14:58:42Z</time>
      </trkpt>
      <trkpt lat="42.62256" lon="1.56403">
        <ele>1966.398</ele>
        <time>2016-05-05T14:59:02Z</time>
      </trkpt>
      <trkpt lat="42.62264" lon="1.56397">
        <ele>1968.017</ele>
        <time>2016-05-05T14:59:22Z</time>
      </trkpt>
      <trkpt lat="42.62269" lon="1.56392">
        <ele>1969.508</ele>
        <time>2016-05-05T14:59:42Z</time>
      </trkpt>
      <trkpt lat="42.62277" lon="1.56389">
        <ele>1971.712</ele>
        <time>2016-05-05T15:00:02Z</time>
      </trkpt>
      <trkpt lat="42.62304" lon="1.56352">
        <ele>1981.894</ele>
        <time>2016-05-05T15:00:22Z</time>
      </trkpt>
      <trkpt lat="42.62315" lon="1.56332">
        <ele>1988.282</ele>
        <time>2016-05-05T15:00:42Z</time>
      </trkpt>
      <trkpt lat="42.62326" lon="1.56305">
        <ele>1995.55</ele>
        <time>2016-05-05T15:01:02Z</time>
      </trkpt>
      <trkpt lat="42.62332" lon="1.56284">
        <ele>1998.928</ele>
        <time>2016-05-05T15:01:22Z</time>
      </trkpt>
      <trkpt lat="42.62341" lon="1.56242">
        <ele>2005.519</ele>
        <time>2016-05-05T15:01:42Z</time>
      </trkpt>
      <trkpt lat="42.62345" lon="1.5622">
        <ele>2008.727</ele>
        <time>2016-05-05T15:02:02Z</time>
      </trkpt>
      <trkpt lat="42.6235" lon="1.56199">
        <ele>2011.515</ele>
        <time>2016-05-05T15:02:22Z</time>
      </trkpt>
      <trkpt lat="42.62351" lon="1.56179">
        <ele>2012.698</ele>
        <time>2016-05-05T15:02:42Z</time>
      </trkpt>
      <trkpt lat="42.62357" lon="1.56157">
        <ele>2016.415</ele>
        <time>2016-05-05T15:03:02Z</time>
      </trkpt>
      <trkpt lat="42.6236" lon="1.56133">
        <ele>2018.926</ele>
        <time>2016-05-05T15:03:22Z</time>
      </trkpt>
      <trkpt lat="42.62367" lon="1.5611">
        <ele>2022.708</ele>
        <time>2016-05-05T15:03:42Z</time>
      </trkpt>
      <trkpt lat="42.6237" lon="1.56087">
        <ele>2025.72</ele>
        <time>2016-05-05T15:04:02Z</time>
      </trkpt>
      <trkpt lat="42.62372" lon="1.56063">
        <ele>2027.062</ele>
        <time>2016-05-05T15:04:22Z</time>
      </trkpt>
      <trkpt lat="42.62373" lon="1.5604">
        <ele>2027.57</ele>
        <time>2016-05-05T15:04:42Z</time>
      </trkpt>
      <trkpt lat="42.62375" lon="1.56029">
        <ele>2028.258</ele>
        <time>2016-05-05T15:05:02Z</time>
      </trkpt>
      <trkpt lat="42.62375" lon="1.56006">
        <ele>2028.456</ele>
        <time>2016-05-05T15:05:22Z</time>
      </trkpt>
      <trkpt lat="42.62377" lon="1.55988">
        <ele>2029.687</ele>
        <time>2016-05-05T15:05:42Z</time>
      </trkpt>
      <trkpt lat="42.62379" lon="1.55976">
        <ele>2030.935</ele>
        <time>2016-05-05T15:06:02Z</time>
      </trkpt>
      <trkpt lat="42.62379" lon="1.55963">
        <ele>2031.243</ele>
        <time>2016-05-05T15:06:22Z</time>
      </trkpt>
      <trkpt lat="42.62385" lon="1.55951">
        <ele>2033.754</ele>
        <time>2016-05-05T15:06:42Z</time>
      </trkpt>
      <trkpt lat="42.62389" lon="1.55933">
        <ele>2034.156</ele>
        <time>2016-05-05T15:07:02Z</time>
      </trkpt>
      <trkpt lat="42.62394" lon="1.55913">
        <ele>2034.211</ele>
        <time>2016-05-05T15:07:22Z</time>
      </trkpt>
      <trkpt lat="42.62408" lon="1.55904">
        <ele>2037.808</ele>
        <time>2016-05-05T15:07:42Z</time>
      </trkpt>
      <trkpt lat="42.62417" lon="1.55894">
        <ele>2039.576</ele>
        <time>2016-05-05T15:08:02Z</time>
      </trkpt>
      <trkpt lat="42.62426" lon="1.5588">
        <ele>2041.418</ele>
        <time>2016-05-05T15:08:22Z</time>
      </trkpt>
      <trkpt lat="42.62433" lon="1.55862">
        <ele>2042.896</ele>
        <time>2016-05-05T15:08:42Z</time>
      </trkpt>
      <trkpt lat="42.62441" lon="1.55844">
        <ele>2046.184</ele>
        <time>2016-05-05T15:09:02Z</time>
      </trkpt>
      <trkpt lat="42.62449" lon="1.5583">
        <ele>2049.342</ele>
        <time>2016-05-05T15:09:22Z</time>
      </trkpt>
      <trkpt lat="42.62463" lon="1.55815">
        <ele>2052.883</ele>
        <time>2016-05-05T15:09:42Z</time>
      </trkpt>
      <trkpt lat="42.62484" lon="1.55813">
        <ele>2053.931</ele>
        <time>2016-05-05T15:10:02Z</time>
      </trkpt>
      <trkpt lat="42.62494" lon="1.558">
        <ele>2053.039</ele>
        <time>2016-05-05T15:10:22Z</time>
      </trkpt>
      <trkpt lat="42.62507" lon="1.55792">
        <ele>2050.082</ele>
        <time>2016-05-05T15:10:42Z</time>
      </trkpt>
      <trkpt lat="42.62518" lon="1.55777">
        <ele>2045.143</ele>
        <time>2016-05-05T15:11:02Z</time>
      </trkpt>
      <trkpt lat="42.62529" lon="1.55769">
        <ele>2041.317</ele>
        <time>2016-05-05T15:11:22Z</time>
      </trkpt>
      <trkpt lat="42.62539" lon="1.55752">
        <ele>2035.808</ele>
        <time>2016-05-05T15:11:42Z</time>
      </trkpt>
      <trkpt lat="42.62548" lon="1.5573">
        <ele>2032.449</ele>
        <time>2016-05-05T15:12:02Z</time>
      </trkpt>
      <trkpt lat="42.62559" lon="1.55737">
        <ele>2026.621</ele>
        <time>2016-05-05T15:12:22Z</time>
      </trkpt>
      <trkpt lat="42.62567" lon="1.55747">
        <ele>2021.489</ele>
        <time>2016-05-05T15:12:42Z</time>
      </trkpt>
      <trkpt lat="42.6257" lon="1.5576">
        <ele>2018.747</ele>
        <time>2016-05-05T15:13:02Z</time>
      </trkpt>
      <trkpt lat="42.62583" lon="1.55773">
        <ele>2009.125</ele>
        <time>2016-05-05T15:13:22Z</time>
      </trkpt>
      <trkpt lat="42.62606" lon="1.55792">
        <ele>1992.666</ele>
        <time>2016-05-05T15:13:42Z</time>
      </trkpt>
      <trkpt lat="42.62627" lon="1.55819">
        <ele>1979.314</ele>
        <time>2016-05-05T15:14:02Z</time>
      </trkpt>
      <trkpt lat="42.62644" lon="1.55858">
        <ele>1974.692</ele>
        <time>2016-05-05T15:14:22Z</time>
      </trkpt>
      <trkpt lat="42.62656" lon="1.55885">
        <ele>1972.965</ele>
        <time>2016-05-05T15:14:42Z</time>
      </trkpt>
      <trkpt lat="42.62667" lon="1.55888">
        <ele>1966.568</ele>
        <time>2016-05-05T15:15:02Z</time>
      </trkpt>
      <trkpt lat="42.62683" lon="1.55892">
        <ele>1959.014</ele>
        <time>2016-05-05T15:15:22Z</time>
      </trkpt>
      <trkpt lat="42.62694" lon="1.55901">
        <ele>1955.708</ele>
        <time>2016-05-05T15:15:42Z</time>
      </trkpt>
      <trkpt lat="42.62704" lon="1.55875">
        <ele>1942.237</ele>
        <time>2016-05-05T15:16:02Z</time>
      </trkpt>
      <trkpt lat="42.62722" lon="1.55869">
        <ele>1930.119</ele>
        <time>2016-05-05T15:16:22Z</time>
      </trkpt>
      <trkpt lat="42.62735" lon="1.55845">
        <ele>1917.187</ele>
        <time>2016-05-05T15:16:42Z</time>
      </trkpt>
      <trkpt lat="42.62753" lon="1.55824">
        <ele>1903.855</ele>
        <time>2016-05-05T15:17:02Z</time>
      </trkpt>
      <trkpt lat="42.62776" lon="1.5582">
        <ele>1894.613</ele>
        <time>2016-05-05T15:17:22Z</time>
      </trkpt>
      <trkpt lat="42.62806" lon="1.55827">
        <ele>1885.524</ele>
        <time>2016-05-05T15:17:42Z</time>
      </trkpt>
      <trkpt lat="42.62809" lon="1.5578">
        <ele>1874.042</ele>
        <time>2016-05-05T15:18:02Z</time>
      </trkpt>
      <trkpt lat="42.62837" lon="1.55776">
        <ele>1861.55</ele>
        <time>2016-05-05T15:18:22Z</time>
      </trkpt>
      <trkpt lat="42.62865" lon="1.55794">
        <ele>1855.919</ele>
        <time>2016-05-05T15:18:42Z</time>
      </trkpt>
      <trkpt lat="42.62884" lon="1.55801">
        <ele>1855.009</ele>
        <time>2016-05-05T15:19:02Z</time>
      </trkpt>
      <trkpt lat="42.62922" lon="1.55817">
        <ele>1857.819</ele>
        <time>2016-05-05T15:19:22Z</time>
      </trkpt>
      <trkpt lat="42.62939" lon="1.55824">
        <ele>1858.308</ele>
        <time>2016-05-05T15:19:42Z</time>
      </trkpt>
      <trkpt lat="42.6296" lon="1.55827">
        <ele>1859.142</ele>
        <time>2016-05-05T15:20:02Z</time>
      </trkpt>
      <trkpt lat="42.62982" lon="1.55839">
        <ele>1860.854</ele>
        <time>2016-05-05T15:20:22Z</time>
      </trkpt>
      <trkpt lat="42.62999" lon="1.55849">
        <ele>1862.772</ele>
        <time>2016-05-05T15:20:42Z</time>
      </trkpt>
      <trkpt lat="42.63013" lon="1.55861">
        <ele>1864.46</ele>
        <time>2016-05-05T15:21:02Z</time>
      </trkpt>
      <trkpt lat="42.63021" lon="1.55861">
        <ele>1864.748</ele>
        <time>2016-05-05T15:21:22Z</time>
      </trkpt>
      <trkpt lat="42.63033" lon="1.55872">
        <ele>1866.959</ele>
        <time>2016-05-05T15:21:42Z</time>
      </trkpt>
      <trkpt lat="42.63042" lon="1.55876">
        <ele>1867.397</ele>
        <time>2016-05-05T15:22:02Z</time>
      </trkpt>
      <trkpt lat="42.6305" lon="1.5588">
        <ele>1867.555</ele>
        <time>2016-05-05T15:22:22Z</time>
      </trkpt>
      <trkpt lat="42.63054" lon="1.55885">
        <ele>1867.811</ele>
        <time>2016-05-05T15:22:42Z</time>
      </trkpt>
      <trkpt lat="42.63057" lon="1.55886">
        <ele>1867.921</ele>
        <time>2016-05-05T15:23:02Z</time>
      </trkpt>
      <trkpt lat="42.63062" lon="1.55888">
        <ele>1868.203</ele>
        <time>2016-05-05T15:23:22Z</time>
      </trkpt>
      <trkpt lat="42.63066" lon="1.55892">
        <ele>1868.908</ele>
        <time>2016-05-05T15:23:42Z</time>
      </trkpt>
      <trkpt lat="42.63073" lon="1.55903">
        <ele>1870.682</ele>
        <time>2016-05-05T15:24:02Z</time>
      </trkpt>
      <trkpt lat="42.63083" lon="1.5591">
        <ele>1870.624</ele>
        <time>2016-05-05T15:24:22Z</time>
      </trkpt>
      <trkpt lat="42.63093" lon="1.55919">
        <ele>1871.832</ele>
        <time>2016-05-05T15:24:42Z</time>
      </trkpt>
      <trkpt lat="42.631" lon="1.55914">
        <ele>1871.43</ele>
        <time>2016-05-05T15:25:02Z</time>
      </trkpt>
      <trkpt lat="42.63107" lon="1.55911">
        <ele>1871.498</ele>
        <time>2016-05-05T15:25:22Z</time>
      </trkpt>
      <trkpt lat="42.63118" lon="1.55908">
        <ele>1871.669</ele>
        <time>2016-05-05T15:25:42Z</time>
      </trkpt>
      <trkpt lat="42.63133" lon="1.55911">
        <ele>1872.447</ele>
        <time>2016-05-05T15:26:02Z</time>
      </trkpt>
      <trkpt lat="42.63138" lon="1.5591">
        <ele>1872.585</ele>
        <time>2016-05-05T15:26:22Z</time>
      </trkpt>
      <trkpt lat="42.63147" lon="1.55909">
        <ele>1873.141</ele>
        <time>2016-05-05T15:26:42Z</time>
      </trkpt>
      <trkpt lat="42.63155" lon="1.5591">
        <ele>1873.781</ele>
        <time>2016-05-05T15:27:02Z</time>
      </trkpt>
      <trkpt lat="42.63167" lon="1.55914">
        <ele>1874.809</ele>
        <time>2016-05-05T15:27:22Z</time>
      </trkpt>
      <trkpt lat="42.63176" lon="1.55916">
        <ele>1875.308</ele>
        <time>2016-05-05T15:27:42Z</time>
      </trkpt>
      <trkpt lat="42.63182" lon="1.55917">
        <ele>1875.655</ele>
        <time>2016-05-05T15:28:02Z</time>
      </trkpt>
      <trkpt lat="42.63186" lon="1.55915">
        <ele>1875.687</ele>
        <time>2016-05-05T15:28:22Z</time>
      </trkpt>
      <trkpt lat="42.63189" lon="1.55916">
        <ele>1875.885</ele>
        <time>2016-05-05T15:28:42Z</time>
      </trkpt>
      <trkpt lat="42.63194" lon="1.55916">
        <ele>1876.033</ele>
        <time>2016-05-05T15:29:02Z</time>
      </trkpt>
      <trkpt lat="42.63197" lon="1.55916">
        <ele>1876.231</ele>
        <time>2016-05-05T15:29:22Z</time>
      </trkpt>
      <trkpt lat="42.63203" lon="1.55916">
        <ele>1876.682</ele>
        <time>2016-05-05T15:29:42Z</time>
      </trkpt>
      <trkpt lat="42.63207" lon="1.55919">
        <ele>1877.04</ele>
        <time>2016-05-05T15:30:02Z</time>
      </trkpt>
      <trkpt lat="42.63211" lon="1.55923">
        <ele>1877.668</ele>
        <time>2016-05-05T15:30:22Z</time>
      </trkpt>
      <trkpt lat="42.63217" lon="1.55927">
        <ele>1878.387</ele>
        <time>2016-05-05T15:30:42Z</time>
      </trkpt>
      <trkpt lat="42.6322" lon="1.55929">
        <ele>1878.842</ele>
        <time>2016-05-05T15:31:02Z</time>
      </trkpt>
      <trkpt lat="42.63225" lon="1.55935">
        <ele>1879.426</ele>
        <time>2016-05-05T15:31:22Z</time>
      </trkpt>
      <trkpt lat="42.6323" lon="1.55939">
        <ele>1879.908</ele>
        <time>2016-05-05T15:31:42Z</time>
      </trkpt>
      <trkpt lat="42.63234" lon="1.55942">
        <ele>1880.349</ele>
        <time>2016-05-05T15:32:02Z</time>
      </trkpt>
      <trkpt lat="42.63238" lon="1.55945">
        <ele>1880.611</ele>
        <time>2016-05-05T15:32:22Z</time>
      </trkpt>
      <trkpt lat="42.63243" lon="1.55947">
        <ele>1881.059</ele>
        <time>2016-05-05T15:32:42Z</time>
      </trkpt>
      <trkpt lat="42.63249" lon="1.55949">
        <ele>1881.467</ele>
        <time>2016-05-05T15:33:02Z</time>
      </trkpt>
      <trkpt lat="42.63254" lon="1.55953">
        <ele>1882.215</ele>
        <time>2016-05-05T15:33:22Z</time>
      </trkpt>
      <trkpt lat="42.63259" lon="1.55956">
        <ele>1883.076</ele>
        <time>2016-05-05T15:33:42Z</time>
      </trkpt>
      <trkpt lat="42.63263" lon="1.55959">
        <ele>1883.864</ele>
        <time>2016-05-05T15:34:02Z</time>
      </trkpt>
      <trkpt lat="42.63268" lon="1.55964">
        <ele>1884.952</ele>
        <time>2016-05-05T15:34:22Z</time>
      </trkpt>
      <trkpt lat="42.63274" lon="1.55965">
        <ele>1885.528</ele>
        <time>2016-05-05T15:34:42Z</time>
      </trkpt>
      <trkpt lat="42.63281" lon="1.55965">
        <ele>1886.389</ele>
        <time>2016-05-05T15:35:02Z</time>
      </trkpt>
      <trkpt lat="42.63285" lon="1.55965">
        <ele>1886.817</ele>
        <time>2016-05-05T15:35:22Z</time>
      </trkpt>
      <trkpt lat="42.63289" lon="1.55966">
        <ele>1887.408</ele>
        <time>2016-05-05T15:35:42Z</time>
      </trkpt>
      <trkpt lat="42.63298" lon="1.55968">
        <ele>1888.613</ele>
        <time>2016-05-05T15:36:02Z</time>
      </trkpt>
      <trkpt lat="42.63302" lon="1.5597">
        <ele>1889.345</ele>
        <time>2016-05-05T15:36:22Z</time>
      </trkpt>
      <trkpt lat="42.63308" lon="1.55973">
        <ele>1890.513</ele>
        <time>2016-05-05T15:36:42Z</time>
      </trkpt>
      <trkpt lat="42.63315" lon="1.55976">
        <ele>1891.931</ele>
        <time>2016-05-05T15:37:02Z</time>
      </trkpt>
      <trkpt lat="42.63322" lon="1.55978">
        <ele>1893.189</ele>
        <time>2016-05-05T15:37:22Z</time>
      </trkpt>
      <trkpt lat="42.63327" lon="1.55981">
        <ele>1894.41</ele>
        <time>2016-05-05T15:37:42Z</time>
      </trkpt>
      <trkpt lat="42.63332" lon="1.55984">
        <ele>1895.678</ele>
        <time>2016-05-05T15:38:02Z</time>
      </trkpt>
      <trkpt lat="42.63339" lon="1.55985">
        <ele>1896.516</ele>
        <time>2016-05-05T15:38:22Z</time>
      </trkpt>
      <trkpt lat="42.63343" lon="1.55989">
        <ele>1897.727</ele>
        <time>2016-05-05T15:38:42Z</time>
      </trkpt>
      <trkpt lat="42.63348" lon="1.55991">
        <ele>1898.568</ele>
        <time>2016-05-05T15:39:02Z</time>
      </trkpt>
      <trkpt lat="42.63354" lon="1.5599">
        <ele>1898.614</ele>
        <time>2016-05-05T15:39:22Z</time>
      </trkpt>
      <trkpt lat="42.6336" lon="1.55991">
        <ele>1899.108</ele>
        <time>2016-05-05T15:39:42Z</time>
      </trkpt>
      <trkpt lat="42.63364" lon="1.55993">
        <ele>1899.953</ele>
        <time>2016-05-05T15:40:02Z</time>
      </trkpt>
      <trkpt lat="42.63369" lon="1.55999">
        <ele>1901.815</ele>
        <time>2016-05-05T15:40:22Z</time>
      </trkpt>
      <trkpt lat="42.63375" lon="1.56001">
        <ele>1902.873</ele>
        <time>2016-05-05T15:40:42Z</time>
      </trkpt>
      <trkpt lat="42.63381" lon="1.56007">
        <ele>1905.051</ele>
        <time>2016-05-05T15:41:02Z</time>
      </trkpt>
      <trkpt lat="42.63387" lon="1.56009">
        <ele>1905.819</ele>
        <time>2016-05-05T15:41:22Z</time>
      </trkpt>
      <trkpt lat="42.63393" lon="1.56013">
        <ele>1907.46</ele>
        <time>2016-05-05T15:41:42Z</time>
      </trkpt>
      <trkpt lat="42.634" lon="1.56017">
        <ele>1909.098</ele>
        <time>2016-05-05T15:42:02Z</time>
      </trkpt>
      <trkpt lat="42.63404" lon="1.5602">
        <ele>1910.346</ele>
        <time>2016-05-05T15:42:22Z</time>
      </trkpt>
      <trkpt lat="42.6341" lon="1.56023">
        <ele>1912.382</ele>
        <time>2016-05-05T15:42:42Z</time>
      </trkpt>
      <trkpt lat="42.63418" lon="1.56023">
        <ele>1912.543</ele>
        <time>2016-05-05T15:43:02Z</time>
      </trkpt>
      <trkpt lat="42.63423" lon="1.56026">
        <ele>1913.217</ele>
        <time>2016-05-05T15:43:22Z</time>
      </trkpt>
      <trkpt lat="42.63429" lon="1.56031">
        <ele>1914.908</ele>
        <time>2016-05-05T15:43:42Z</time>
      </trkpt>
      <trkpt lat="42.63435" lon="1.56037">
        <ele>1917.459</ele>
        <time>2016-05-05T15:44:02Z</time>
      </trkpt>
      <trkpt lat="42.63443" lon="1.56042">
        <ele>1920.011</ele>
        <time>2016-05-05T15:44:22Z</time>
      </trkpt>
      <trkpt lat="42.63451" lon="1.56046">
        <ele>1922.569</ele>
        <time>2016-05-05T15:44:42Z</time>
      </trkpt>
      <trkpt lat="42.63459" lon="1.56049">
        <ele>1925.037</ele>
        <time>2016-05-05T15:45:02Z</time>
      </trkpt>
      <trkpt lat="42.63465" lon="1.56051">
        <ele>1926.695</ele>
        <time>2016-05-05T15:45:22Z</time>
      </trkpt>
      <trkpt lat="42.63471" lon="1.56053">
        <ele>1928.156</ele>
        <time>2016-05-05T15:45:42Z</time>
      </trkpt>
      <trkpt lat="42.63478" lon="1.56054">
        <ele>1928.584</ele>
        <time>2016-05-05T15:46:02Z</time>
      </trkpt>
      <trkpt lat="42.63483" lon="1.56056">
        <ele>1929.742</ele>
        <time>2016-05-05T15:46:22Z</time>
      </trkpt>
      <trkpt lat="42.63493" lon="1.56057">
        <ele>1929.843</ele>
        <time>2016-05-05T15:46:42Z</time>
      </trkpt>
      <trkpt lat="42.63501" lon="1.56056">
        <ele>1929.264</ele>
        <time>2016-05-05T15:47:02Z</time>
      </trkpt>
      <trkpt lat="42.63506" lon="1.5606">
        <ele>1930.61</ele>
        <time>2016-05-05T15:47:22Z</time>
      </trkpt>
      <trkpt lat="42.63515" lon="1.56064">
        <ele>1931.908</ele>
        <time>2016-05-05T15:47:42Z</time>
      </trkpt>
      <trkpt lat="42.63523" lon="1.56064">
        <ele>1931.845</ele>
        <time>2016-05-05T15:48:02Z</time>
      </trkpt>
      <trkpt lat="42.63535" lon="1.56064">
        <ele>1932.557</ele>
        <time>2016-05-05T15:48:22Z</time>
      </trkpt>
      <trkpt lat="42.63545" lon="1.56063">
        <ele>1933.145</ele>
        <time>2016-05-05T15:48:42Z</time>
      </trkpt>
      <trkpt lat="42.6355" lon="1.56061">
        <ele>1933.413</ele>
        <time>2016-05-05T15:49:02Z</time>
      </trkpt>
      <trkpt lat="42.63561" lon="1.56058">
        <ele>1933.731</ele>
        <time>2016-05-05T15:49:22Z</time>
      </trkpt>
      <trkpt lat="42.63567" lon="1.56057">
        <ele>1934.272</ele>
        <time>2016-05-05T15:49:42Z</time>
      </trkpt>
      <trkpt lat="42.63572" lon="1.56058">
        <ele>1935.18</ele>
        <time>2016-05-05T15:50:02Z</time>
      </trkpt>
      <trkpt lat="42.63577" lon="1.56058">
        <ele>1935.988</ele>
        <time>2016-05-05T15:50:22Z</time>
      </trkpt>
      <trkpt lat="42.63583" lon="1.56054">
        <ele>1935.275</ele>
        <time>2016-05-05T15:50:42Z</time>
      </trkpt>
      <trkpt lat="42.63588" lon="1.5605">
        <ele>1934.828</ele>
        <time>2016-05-05T15:51:02Z</time>
      </trkpt>
      <trkpt lat="42.63593" lon="1.56048">
        <ele>1935.12</ele>
        <time>2016-05-05T15:51:22Z</time>
      </trkpt>
      <trkpt lat="42.636" lon="1.56047">
        <ele>1936.608</ele>
        <time>2016-05-05T15:51:42Z</time>
      </trkpt>
      <trkpt lat="42.63608" lon="1.56046">
        <ele>1937.928</ele>
        <time>2016-05-05T15:52:02Z</time>
      </trkpt>
      <trkpt lat="42.63617" lon="1.56044">
        <ele>1939.21</ele>
        <time>2016-05-05T15:52:22Z</time>
      </trkpt>
      <trkpt lat="42.63623" lon="1.56041">
        <ele>1939.338</ele>
        <time>2016-05-05T15:52:42Z</time>
      </trkpt>
      <trkpt lat="42.63629" lon="1.5604">
        <ele>1940.416</ele>
        <time>2016-05-05T15:53:02Z</time>
      </trkpt>
      <trkpt lat="42.63634" lon="1.56038">
        <ele>1940.974</ele>
        <time>2016-05-05T15:53:22Z</time>
      </trkpt>
      <trkpt lat="42.63644" lon="1.56035">
        <ele>1941.815</ele>
        <time>2016-05-05T15:53:42Z</time>
      </trkpt>
      <trkpt lat="42.63647" lon="1.56029">
        <ele>1939.513</ele>
        <time>2016-05-05T15:54:02Z</time>
      </trkpt>
      <trkpt lat="42.63651" lon="1.56027">
        <ele>1939.661</ele>
        <time>2016-05-05T15:54:22Z</time>
      </trkpt>
      <trkpt lat="42.63657" lon="1.56028">
        <ele>1940.953</ele>
        <time>2016-05-05T15:54:42Z</time>
      </trkpt>
      <trkpt lat="42.63666" lon="1.56027">
        <ele>1942.704</ele>
        <time>2016-05-05T15:55:02Z</time>
      </trkpt>
      <trkpt lat="42.63671" lon="1.56026">
        <ele>1943.514</ele>
        <time>2016-05-05T15:55:22Z</time>
      </trkpt>
      <trkpt lat="42.63677" lon="1.56025">
        <ele>1944.208</ele>
        <time>2016-05-05T15:55:42Z</time>
      </trkpt>
      <trkpt lat="42.63685" lon="1.56023">
        <ele>1945.126</ele>
        <time>2016-05-05T15:56:02Z</time>
      </trkpt>
      <trkpt lat="42.63692" lon="1.5602">
        <ele>1945.618</ele>
        <time>2016-05-05T15:56:22Z</time>
      </trkpt>
      <trkpt lat="42.63697" lon="1.56018">
        <ele>1946.016</ele>
        <time>2016-05-05T15:56:42Z</time>
      </trkpt>
      <trkpt lat="42.63704" lon="1.56017">
        <ele>1946.814</ele>
        <time>2016-05-05T15:57:02Z</time>
      </trkpt>
      <trkpt lat="42.63711" lon="1.56016">
        <ele>1947.942</ele>
        <time>2016-05-05T15:57:22Z</time>
      </trkpt>
      <trkpt lat="42.63721" lon="1.56013">
        <ele>1948.523</ele>
        <time>2016-05-05T15:57:42Z</time>
      </trkpt>
      <trkpt lat="42.63726" lon="1.56013">
        <ele>1949.771</ele>
        <time>2016-05-05T15:58:02Z</time>
      </trkpt>
      <trkpt lat="42.63733" lon="1.56014">
        <ele>1951.969</ele>
        <time>2016-05-05T15:58:22Z</time>
      </trkpt>
      <trkpt lat="42.63738" lon="1.56012">
        <ele>1952.498</ele>
        <time>2016-05-05T15:58:42Z</time>
      </trkpt>
      <trkpt lat="42.63745" lon="1.5601">
        <ele>1953.515</ele>
        <time>2016-05-05T15:59:02Z</time>
      </trkpt>
      <trkpt lat="42.63748" lon="1.56002">
        <ele>1951.326</ele>
        <time>2016-05-05T15:59:22Z</time>
      </trkpt>
      <trkpt lat="42.6375" lon="1.55997">
        <ele>1951.608</ele>
        <time>2016-05-05T15:59:42Z</time>
      </trkpt>
      <trkpt lat="42.63756" lon="1.55995">
        <ele>1953.34</ele>
        <time>2016-05-05T16:00:02Z</time>
      </trkpt>
      <trkpt lat="42.63763" lon="1.55992">
        <ele>1954.962</ele>
        <time>2016-05-05T16:00:22Z</time>
      </trkpt>
      <trkpt lat="42.6377" lon="1.5599">
        <ele>1956.66</ele>
        <time>2016-05-05T16:00:42Z</time>
      </trkpt>
      <trkpt lat="42.63774" lon="1.55988">
        <ele>1957.318</ele>
        <time>2016-05-05T16:01:02Z</time>
      </trkpt>
      <trkpt lat="42.6378" lon="1.55988">
        <ele>1958.166</ele>
        <time>2016-05-05T16:01:22Z</time>
      </trkpt>
      <trkpt lat="42.63786" lon="1.55992">
        <ele>1958.167</ele>
        <time>2016-05-05T16:01:42Z</time>
      </trkpt>
      <trkpt lat="42.63792" lon="1.55994">
        <ele>1957.915</ele>
        <time>2016-05-05T16:02:02Z</time>
      </trkpt>
      <trkpt lat="42.63795" lon="1.55998">
        <ele>1957.663</ele>
        <time>2016-05-05T16:02:22Z</time>
      </trkpt>
      <trkpt lat="42.638" lon="1.56004">
        <ele>1958.766</ele>
        <time>2016-05-05T16:02:42Z</time>
      </trkpt>
      <trkpt lat="42.63806" lon="1.56002">
        <ele>1957.829</ele>
        <time>2016-05-05T16:03:02Z</time>
      </trkpt>
      <trkpt lat="42.63811" lon="1.56003">
        <ele>1958.721</ele>
        <time>2016-05-05T16:03:22Z</time>
      </trkpt>
      <trkpt lat="42.63816" lon="1.56008">
        <ele>1960.208</ele>
        <time>2016-05-05T16:03:42Z</time>
      </trkpt>
      <trkpt lat="42.63822" lon="1.56013">
        <ele>1961.337</ele>
        <time>2016-05-05T16:04:02Z</time>
      </trkpt>
      <trkpt lat="42.63828" lon="1.56019">
        <ele>1961.539</ele>
        <time>2016-05-05T16:04:22Z</time>
      </trkpt>
      <trkpt lat="42.63833" lon="1.56024">
        <ele>1961.077</ele>
        <time>2016-05-05T16:04:42Z</time>
      </trkpt>
      <trkpt lat="42.63837" lon="1.56029">
        <ele>1961.355</ele>
        <time>2016-05-05T16:05:02Z</time>
      </trkpt>
      <trkpt lat="42.63842" lon="1.56037">
        <ele>1962.863</ele>
        <time>2016-05-05T16:05:22Z</time>
      </trkpt>
      <trkpt lat="42.63845" lon="1.56042">
        <ele>1963.374</ele>
        <time>2016-05-05T16:05:42Z</time>
      </trkpt>
      <trkpt lat="42.6385" lon="1.56046">
        <ele>1963.292</ele>
        <time>2016-05-05T16:06:02Z</time>
      </trkpt>
      <trkpt lat="42.63856" lon="1.56047">
        <ele>1962.48</ele>
        <time>2016-05-05T16:06:22Z</time>
      </trkpt>
      <trkpt lat="42.6386" lon="1.56046">
        <ele>1961.833</ele>
        <time>2016-05-05T16:06:42Z</time>
      </trkpt>
      <trkpt lat="42.63863" lon="1.56046">
        <ele>1961.923</ele>
        <time>2016-05-05T16:07:02Z</time>
      </trkpt>
      <trkpt lat="42.63867" lon="1.56049">
        <ele>1962.415</ele>
        <time>2016-05-05T16:07:22Z</time>
      </trkpt>
      <trkpt lat="42.63873" lon="1.56051">
        <ele>1963.108</ele>
        <time>2016-05-05T16:07:42Z</time>
      </trkpt>
      <trkpt lat="42.63878" lon="1.56053">
        <ele>1963.724</ele>
        <time>2016-05-05T16:08:02Z</time>
      </trkpt>
      <trkpt lat="42.63882" lon="1.56053">
        <ele>1964.296</ele>
        <time>2016-05-05T16:08:22Z</time>
      </trkpt>
      <trkpt lat="42.63888" lon="1.56054">
        <ele>1964.814</ele>
        <time>2016-05-05T16:08:42Z</time>
      </trkpt>
      <trkpt lat="42.63892" lon="1.56053">
        <ele>1964.982</ele>
        <time>2016-05-05T16:09:02Z</time>
      </trkpt>
      <trkpt lat="42.63901" lon="1.56052">
        <ele>1964.96</ele>
        <time>2016-05-05T16:09:22Z</time>
      </trkpt>
      <trkpt lat="42.63906" lon="1.56051">
        <ele>1964.961</ele>
        <time>2016-05-05T16:09:42Z</time>
      </trkpt>
      <trkpt lat="42.63912" lon="1.5605">
        <ele>1965.079</ele>
        <time>2016-05-05T16:10:02Z</time>
      </trkpt>
      <trkpt lat="42.63917" lon="1.56048">
        <ele>1965.067</ele>
        <time>2016-05-05T16:10:22Z</time>
      </trkpt>
      <trkpt lat="42.63924" lon="1.56036">
        <ele>1965.389</ele>
        <time>2016-05-05T16:10:42Z</time>
      </trkpt>
      <trkpt lat="42.63932" lon="1.56036">
        <ele>1965.806</ele>
        <time>2016-05-05T16:11:02Z</time>
      </trkpt>
      <trkpt lat="42.63939" lon="1.56035">
        <ele>1966.226</ele>
        <time>2016-05-05T16:11:22Z</time>
      </trkpt>
      <trkpt lat="42.63945" lon="1.56033">
        <ele>1966.708</ele>
        <time>2016-05-05T16:11:42Z</time>
      </trkpt>
      <trkpt lat="42.63956" lon="1.56031">
        <ele>1967.689</ele>
        <time>2016-05-05T16:12:02Z</time>
      </trkpt>
      <trkpt lat="42.63964" lon="1.56028">
        <ele>1968.411</ele>
        <time>2016-05-05T16:12:22Z</time>
      </trkpt>
      <trkpt lat="42.63972" lon="1.56025">
        <ele>1969.629</ele>
        <time>2016-05-05T16:12:42Z</time>
      </trkpt>
      <trkpt lat="42.63984" lon="1.5602">
        <ele>1971.267</ele>
        <time>2016-05-05T16:13:02Z</time>
      </trkpt>
      <trkpt lat="42.6399" lon="1.56018">
        <ele>1972.035</ele>
        <time>2016-05-05T16:13:22Z</time>
      </trkpt>
      <trkpt lat="42.64001" lon="1.56017">
        <ele>1972.836</ele>
        <time>2016-05-05T16:13:42Z</time>
      </trkpt>
      <trkpt lat="42.64012" lon="1.56019">
        <ele>1973.854</ele>
        <time>2016-05-05T16:14:02Z</time>
      </trkpt>
      <trkpt lat="42.64023" lon="1.56024">
        <ele>1973.632</ele>
        <time>2016-05-05T16:14:22Z</time>
      </trkpt>
      <trkpt lat="42.64033" lon="1.56024">
        <ele>1975.395</ele>
        <time>2016-05-05T16:14:42Z</time>
      </trkpt>
      <trkpt lat="42.64043" lon="1.56024">
        <ele>1978.149</ele>
        <time>2016-05-05T16:15:02Z</time>
      </trkpt>
      <trkpt lat="42.64049" lon="1.56025">
        <ele>1979.323</ele>
        <time>2016-05-05T16:15:22Z</time>
      </trkpt>
      <trkpt lat="42.64058" lon="1.56029">
        <ele>1980.508</ele>
        <time>2016-05-05T16:15:42Z</time>
      </trkpt>
      <trkpt lat="42.64064" lon="1.56033">
        <ele>1981.66</ele>
        <time>2016-05-05T16:16:02Z</time>
      </trkpt>
      <trkpt lat="42.64071" lon="1.56039">
        <ele>1982.352</ele>
        <time>2016-05-05T16:16:22Z</time>
      </trkpt>
      <trkpt lat="42.64078" lon="1.56042">
        <ele>1983.43</ele>
        <time>2016-05-05T16:16:42Z</time>
      </trkpt>
      <trkpt lat="42.64087" lon="1.56044">
        <ele>1984.798</ele>
        <time>2016-05-05T16:17:02Z</time>
      </trkpt>
      <trkpt lat="42.64096" lon="1.56048">
        <ele>1985.286</ele>
        <time>2016-05-05T16:17:22Z</time>
      </trkpt>
      <trkpt lat="42.64106" lon="1.56047">
        <ele>1986.867</ele>
        <time>2016-05-05T16:17:42Z</time>
      </trkpt>
      <trkpt lat="42.64113" lon="1.56044">
        <ele>1988.655</ele>
        <time>2016-05-05T16:18:02Z</time>
      </trkpt>
      <trkpt lat="42.64125" lon="1.56042">
        <ele>1990.143</ele>
        <time>2016-05-05T16:18:22Z</time>
      </trkpt>
      <trkpt lat="42.64129" lon="1.56045">
        <ele>1989.642</ele>
        <time>2016-05-05T16:18:42Z</time>
      </trkpt>
      <trkpt lat="42.64137" lon="1.56047">
        <ele>1989.622</ele>
        <time>2016-05-05T16:19:02Z</time>
      </trkpt>
      <trkpt lat="42.64145" lon="1.56047">
        <ele>1990.314</ele>
        <time>2016-05-05T16:19:22Z</time>
      </trkpt>
      <trkpt lat="42.64152" lon="1.56046">
        <ele>1991.508</ele>
        <time>2016-05-05T16:19:42Z</time>
      </trkpt>
      <trkpt lat="42.64157" lon="1.56042">
        <ele>1993.035</ele>
        <time>2016-05-05T16:20:02Z</time>
      </trkpt>
      <trkpt lat="42.64165" lon="1.56043">
        <ele>1993.627</ele>
        <time>2016-05-05T16:20:22Z</time>
      </trkpt>
      <trkpt lat="42.64173" lon="1.56042">
        <ele>1994.785</ele>
        <time>2016-05-05T16:20:42Z</time>
      </trkpt>
      <trkpt lat="42.64177" lon="1.56037">
        <ele>1996.243</ele>
        <time>2016-05-05T16:21:02Z</time>
      </trkpt>
      <trkpt lat="42.64184" lon="1.56035">
        <ele>1997.211</ele>
        <time>2016-05-05T16:21:22Z</time>
      </trkpt>
      <trkpt lat="42.6419" lon="1.56034">
        <ele>1997.992</ele>
        <time>2016-05-05T16:21:42Z</time>
      </trkpt>
      <trkpt lat="42.64197" lon="1.56037">
        <ele>1998.81</ele>
        <time>2016-05-05T16:22:02Z</time>
      </trkpt>
      <trkpt lat="42.64202" lon="1.5604">
        <ele>1999.338</ele>
        <time>2016-05-05T16:22:22Z</time>
      </trkpt>
      <trkpt lat="42.6421" lon="1.56041">
        <ele>2001.138</ele>
        <time>2016-05-05T16:22:42Z</time>
      </trkpt>
      <trkpt lat="42.64215" lon="1.5604">
        <ele>2002.37</ele>
        <time>2016-05-05T16:23:02Z</time>
      </trkpt>
      <trkpt lat="42.6422" lon="1.56042">
        <ele>2002.817</ele>
        <time>2016-05-05T16:23:22Z</time>
      </trkpt>
      <trkpt lat="42.64226" lon="1.56044">
        <ele>2003.108</ele>
        <time>2016-05-05T16:23:42Z</time>
      </trkpt>
      <trkpt lat="42.64232" lon="1.56045">
        <ele>2003.884</ele>
        <time>2016-05-05T16:24:02Z</time>
      </trkpt>
      <trkpt lat="42.64238" lon="1.56045">
        <ele>2004.526</ele>
        <time>2016-05-05T16:24:22Z</time>
      </trkpt>
      <trkpt lat="42.64241" lon="1.56044">
        <ele>2005.144</ele>
        <time>2016-05-05T16:24:42Z</time>
      </trkpt>
      <trkpt lat="42.64245" lon="1.56043">
        <ele>2006.242</ele>
        <time>2016-05-05T16:25:02Z</time>
      </trkpt>
      <trkpt lat="42.64252" lon="1.56039">
        <ele>2007.97</ele>
        <time>2016-05-05T16:25:22Z</time>
      </trkpt>
      <trkpt lat="42.64256" lon="1.56035">
        <ele>2009.321</ele>
        <time>2016-05-05T16:25:42Z</time>
      </trkpt>
      <trkpt lat="42.64262" lon="1.56035">
        <ele>2010.189</ele>
        <time>2016-05-05T16:26:02Z</time>
      </trkpt>
      <trkpt lat="42.64266" lon="1.56036">
        <ele>2010.327</ele>
        <time>2016-05-05T16:26:22Z</time>
      </trkpt>
      <trkpt lat="42.64271" lon="1.56034">
        <ele>2011.048</ele>
        <time>2016-05-05T16:26:42Z</time>
      </trkpt>
      <trkpt lat="42.64275" lon="1.56033">
        <ele>2011.461</ele>
        <time>2016-05-05T16:27:02Z</time>
      </trkpt>
      <trkpt lat="42.64279" lon="1.56031">
        <ele>2012.017</ele>
        <time>2016-05-05T16:27:22Z</time>
      </trkpt>
      <trkpt lat="42.64283" lon="1.56026">
        <ele>2013.008</ele>
        <time>2016-05-05T16:27:42Z</time>
      </trkpt>
      <trkpt lat="42.64286" lon="1.56021">
        <ele>2015.095</ele>
        <time>2016-05-05T16:28:02Z</time>
      </trkpt>
      <trkpt lat="42.6429" lon="1.56017">
        <ele>2016.437</ele>
        <time>2016-05-05T16:28:22Z</time>
      </trkpt>
      <trkpt lat="42.64294" lon="1.56014">
        <ele>2016.975</ele>
        <time>2016-05-05T16:28:42Z</time>
      </trkpt>
      <trkpt lat="42.64299" lon="1.56013">
        <ele>2016.973</ele>
        <time>2016-05-05T16:29:02Z</time>
      </trkpt>
      <trkpt lat="42.64305" lon="1.56011">
        <ele>2016.841</ele>
        <time>2016-05-05T16:29:22Z</time>
      </trkpt>
      <trkpt lat="42.64309" lon="1.5601">
        <ele>2017.132</ele>
        <time>2016-05-05T16:29:42Z</time>
      </trkpt>
      <trkpt lat="42.64313" lon="1.56004">
        <ele>2017.41</ele>
        <time>2016-05-05T16:30:02Z</time>
      </trkpt>
      <trkpt lat="42.64316" lon="1.55999">
        <ele>2017.678</ele>
        <time>2016-05-05T16:30:22Z</time>
      </trkpt>
      <trkpt lat="42.64322" lon="1.55995">
        <ele>2018.329</ele>
        <time>2016-05-05T16:30:42Z</time>
      </trkpt>
      <trkpt lat="42.64328" lon="1.55993">
        <ele>2018.5</ele>
        <time>2016-05-05T16:31:02Z</time>
      </trkpt>
      <trkpt lat="42.64336" lon="1.55989">
        <ele>2018.82</ele>
        <time>2016-05-05T16:31:22Z</time>
      </trkpt>
      <trkpt lat="42.64346" lon="1.55988">
        <ele>2019.308</ele>
        <time>2016-05-05T16:31:42Z</time>
      </trkpt>
      <trkpt lat="42.64356" lon="1.55985">
        <ele>2019.683</ele>
        <time>2016-05-05T16:32:02Z</time>
      </trkpt>
      <trkpt lat="42.64362" lon="1.55976">
        <ele>2019.965</ele>
        <time>2016-05-05T16:32:22Z</time>
      </trkpt>
      <trkpt lat="42.64369" lon="1.55957">
        <ele>2023.333</ele>
        <time>2016-05-05T16:32:42Z</time>
      </trkpt>
      <trkpt lat="42.64374" lon="1.55945">
        <ele>2024.931</ele>
        <time>2016-05-05T16:33:02Z</time>
      </trkpt>
      <trkpt lat="42.6438" lon="1.55933">
        <ele>2026.669</ele>
        <time>2016-05-05T16:33:22Z</time>
      </trkpt>
      <trkpt lat="42.64388" lon="1.55921">
        <ele>2026.92</ele>
        <time>2016-05-05T16:33:42Z</time>
      </trkpt>
      <trkpt lat="42.64396" lon="1.55915">
        <ele>2027.878</ele>
        <time>2016-05-05T16:34:02Z</time>
      </trkpt>
      <trkpt lat="42.64402" lon="1.55905">
        <ele>2030.496</ele>
        <time>2016-05-05T16:34:22Z</time>
      </trkpt>
      <trkpt lat="42.64408" lon="1.559">
        <ele>2031.073</ele>
        <time>2016-05-05T16:34:42Z</time>
      </trkpt>
      <trkpt lat="42.64411" lon="1.55893">
        <ele>2031.585</ele>
        <time>2016-05-05T16:35:02Z</time>
      </trkpt>
      <trkpt lat="42.64414" lon="1.5588">
        <ele>2033.013</ele>
        <time>2016-05-05T16:35:22Z</time>
      </trkpt>
      <trkpt lat="42.64414" lon="1.55862">
        <ele>2035.908</ele>
        <time>2016-05-05T16:35:42Z</time>
      </trkpt>
      <trkpt lat="42.64418" lon="1.55852">
        <ele>2036.928</ele>
        <time>2016-05-05T16:36:02Z</time>
      </trkpt>
      <trkpt lat="42.64422" lon="1.55845">
        <ele>2037.94</ele>
        <time>2016-05-05T16:36:22Z</time>
      </trkpt>
      <trkpt lat="42.64425" lon="1.5584">
        <ele>2038.528</ele>
        <time>2016-05-05T16:36:42Z</time>
      </trkpt>
      <trkpt lat="42.64429" lon="1.55835">
        <ele>2038.786</ele>
        <time>2016-05-05T16:37:02Z</time>
      </trkpt>
      <trkpt lat="42.64434" lon="1.55831">
        <ele>2038.574</ele>
        <time>2016-05-05T16:37:22Z</time>
      </trkpt>
      <trkpt lat="42.64437" lon="1.55828">
        <ele>2038.835</ele>
        <time>2016-05-05T16:37:42Z</time>
      </trkpt>
      <trkpt lat="42.6444" lon="1.55825">
        <ele>2038.783</ele>
        <time>2016-05-05T16:38:02Z</time>
      </trkpt>
      <trkpt lat="42.64443" lon="1.55819">
        <ele>2039.311</ele>
        <time>2016-05-05T16:38:22Z</time>
      </trkpt>
      <trkpt lat="42.64446" lon="1.55812">
        <ele>2041.035</ele>
        <time>2016-05-05T16:38:42Z</time>
      </trkpt>
      <trkpt lat="42.64449" lon="1.55807">
        <ele>2042.486</ele>
        <time>2016-05-05T16:39:02Z</time>
      </trkpt>
      <trkpt lat="42.64453" lon="1.55798">
        <ele>2044.914</ele>
        <time>2016-05-05T16:39:22Z</time>
      </trkpt>
      <trkpt lat="42.64457" lon="1.55792">
        <ele>2046.408</ele>
        <time>2016-05-05T16:39:42Z</time>
      </trkpt>
      <trkpt lat="42.64456" lon="1.55777">
        <ele>2048.894</ele>
        <time>2016-05-05T16:40:02Z</time>
      </trkpt>
      <trkpt lat="42.6446" lon="1.55764">
        <ele>2049.686</ele>
        <time>2016-05-05T16:40:22Z</time>
      </trkpt>
      <trkpt lat="42.64463" lon="1.55752">
        <ele>2049.844</ele>
        <time>2016-05-05T16:40:42Z</time>
      </trkpt>
      <trkpt lat="42.6447" lon="1.55741">
        <ele>2049.432</ele>
        <time>2016-05-05T16:41:02Z</time>
      </trkpt>
      <trkpt lat="42.64475" lon="1.55727">
        <ele>2052.29</ele>
        <time>2016-05-05T16:41:22Z</time>
      </trkpt>
      <trkpt lat="42.64474" lon="1.5571">
        <ele>2054.091</ele>
        <time>2016-05-05T16:41:42Z</time>
      </trkpt>
      <trkpt lat="42.64475" lon="1.55685">
        <ele>2056.449</ele>
        <time>2016-05-05T16:42:02Z</time>
      </trkpt>
      <trkpt lat="42.64471" lon="1.55661">
        <ele>2058.547</ele>
        <time>2016-05-05T16:42:22Z</time>
      </trkpt>
      <trkpt lat="42.64476" lon="1.5564">
        <ele>2061.127</ele>
        <time>2016-05-05T16:42:42Z</time>
      </trkpt>
      <trkpt lat="42.64481" lon="1.55626">
        <ele>2063.068</ele>
        <time>2016-05-05T16:43:02Z</time>
      </trkpt>
      <trkpt lat="42.6449" lon="1.55609">
        <ele>2063.214</ele>
        <time>2016-05-05T16:43:22Z</time>
      </trkpt>
      <trkpt lat="42.64501" lon="1.55599">
        <ele>2063.208</ele>
        <time>2016-05-05T16:43:42Z</time>
      </trkpt>
      <trkpt lat="42.64512" lon="1.55578">
        <ele>2066.363</ele>
        <time>2016-05-05T16:44:02Z</time>
      </trkpt>
      <trkpt lat="42.64527" lon="1.55551">
        <ele>2067.655</ele>
        <time>2016-05-05T16:44:22Z</time>
      </trkpt>
      <trkpt lat="42.64536" lon="1.55539">
        <ele>2068.573</ele>
        <time>2016-05-05T16:44:42Z</time>
      </trkpt>
      <trkpt lat="42.64549" lon="1.5552">
        <ele>2069.171</ele>
        <time>2016-05-05T16:45:02Z</time>
      </trkpt>
      <trkpt lat="42.64558" lon="1.55506">
        <ele>2069.669</ele>
        <time>2016-05-05T16:45:22Z</time>
      </trkpt>
      <trkpt lat="42.6457" lon="1.55485">
        <ele>2070.51</ele>
        <time>2016-05-05T16:45:42Z</time>
      </trkpt>
      <trkpt lat="42.64619" lon="1.55338">
        <ele>2078.228</ele>
        <time>2016-05-05T16:46:02Z</time>
      </trkpt>
      <trkpt lat="42.64619" lon="1.55306">
        <ele>2082.446</ele>
        <time>2016-05-05T16:46:22Z</time>
      </trkpt>
      <trkpt lat="42.64636" lon="1.55269">
        <ele>2087.714</ele>
        <time>2016-05-05T16:46:42Z</time>
      </trkpt>
      <trkpt lat="42.6464" lon="1.55226">
        <ele>2094.454</ele>
        <time>2016-05-05T16:47:02Z</time>
      </trkpt>
      <trkpt lat="42.64652" lon="1.55185">
        <ele>2097.709</ele>
        <time>2016-05-05T16:47:22Z</time>
      </trkpt>
      <trkpt lat="42.64648" lon="1.55129">
        <ele>2102.108</ele>
        <time>2016-05-05T16:47:42Z</time>
      </trkpt>
      <trkpt lat="42.64641" lon="1.55101">
        <ele>2104.682</ele>
        <time>2016-05-05T16:48:02Z</time>
      </trkpt>
      <trkpt lat="42.64628" lon="1.55075">
        <ele>2108.124</ele>
        <time>2016-05-05T16:48:22Z</time>
      </trkpt>
      <trkpt lat="42.64621" lon="1.5506">
        <ele>2110.542</ele>
        <time>2016-05-05T16:48:42Z</time>
      </trkpt>
      <trkpt lat="42.64611" lon="1.5504">
        <ele>2113.74</ele>
        <time>2016-05-05T16:49:02Z</time>
      </trkpt>
      <trkpt lat="42.64609" lon="1.55024">
        <ele>2115.818</ele>
        <time>2016-05-05T16:49:22Z</time>
      </trkpt>
      <trkpt lat="42.64599" lon="1.54988">
        <ele>2121.339</ele>
        <time>2016-05-05T16:49:42Z</time>
      </trkpt>
      <trkpt lat="42.64591" lon="1.54952">
        <ele>2127.157</ele>
        <time>2016-05-05T16:50:02Z</time>
      </trkpt>
      <trkpt lat="42.64566" lon="1.5489">
        <ele>2139.795</ele>
        <time>2016-05-05T16:50:22Z</time>
      </trkpt>
      <trkpt lat="42.64557" lon="1.54821">
        <ele>2151.255</ele>
        <time>2016-05-05T16:50:42Z</time>
      </trkpt>
      <trkpt lat="42.64559" lon="1.54784">
        <ele>2157.207</ele>
        <time>2016-05-05T16:51:02Z</time>
      </trkpt>
      <trkpt lat="42.64568" lon="1.5474">
        <ele>2165.817</ele>
        <time>2016-05-05T16:51:22Z</time>
      </trkpt>
      <trkpt lat="42.64566" lon="1.54689">
        <ele>2172.708</ele>
        <time>2016-05-05T16:51:42Z</time>
      </trkpt>
      <trkpt lat="42.64561" lon="1.54652">
        <ele>2177.446</ele>
        <time>2016-05-05T16:52:02Z</time>
      </trkpt>
      <trkpt lat="42.64549" lon="1.54635">
        <ele>2181.548</ele>
        <time>2016-05-05T16:52:22Z</time>
      </trkpt>
      <trkpt lat="42.64535" lon="1.54629">
        <ele>2186.386</ele>
        <time>2016-05-05T16:52:42Z</time>
      </trkpt>
      <trkpt lat="42.64521" lon="1.54624">
        <ele>2191.764</ele>
        <time>2016-05-05T16:53:02Z</time>
      </trkpt>
      <trkpt lat="42.64508" lon="1.54615">
        <ele>2198.412</ele>
        <time>2016-05-05T16:53:22Z</time>
      </trkpt>
      <trkpt lat="42.64499" lon="1.54597">
        <ele>2205.083</ele>
        <time>2016-05-05T16:53:42Z</time>
      </trkpt>
      <trkpt lat="42.64486" lon="1.54581">
        <ele>2211.831</ele>
        <time>2016-05-05T16:54:02Z</time>
      </trkpt>
      <trkpt lat="42.64477" lon="1.54567">
        <ele>2216.589</ele>
        <time>2016-05-05T16:54:22Z</time>
      </trkpt>
      <trkpt lat="42.64466" lon="1.54554">
        <ele>2221.756</ele>
        <time>2016-05-05T16:54:42Z</time>
      </trkpt>
      <trkpt lat="42.64455" lon="1.54541">
        <ele>2228.759</ele>
        <time>2016-05-05T16:55:02Z</time>
      </trkpt>
      <trkpt lat="42.64446" lon="1.54528">
        <ele>2234.514</ele>
        <time>2016-05-05T16:55:22Z</time>
      </trkpt>
      <trkpt lat="42.64435" lon="1.54512">
        <ele>2243.608</ele>
        <time>2016-05-05T16:55:42Z</time>
      </trkpt>
      <trkpt lat="42.64426" lon="1.54505">
        <ele>2249.226</ele>
        <time>2016-05-05T16:56:02Z</time>
      </trkpt>
      <trkpt lat="42.64411" lon="1.545">
        <ele>2256.368</ele>
        <time>2016-05-05T16:56:22Z</time>
      </trkpt>
      <trkpt lat="42.64404" lon="1.54491">
        <ele>2261.196</ele>
        <time>2016-05-05T16:56:42Z</time>
      </trkpt>
      <trkpt lat="42.64396" lon="1.54475">
        <ele>2267.184</ele>
        <time>2016-05-05T16:57:02Z</time>
      </trkpt>
      <trkpt lat="42.64393" lon="1.54458">
        <ele>2273.342</ele>
        <time>2016-05-05T16:57:22Z</time>
      </trkpt>
      <trkpt lat="42.64392" lon="1.54444">
        <ele>2279.033</ele>
        <time>2016-05-05T16:57:42Z</time>
      </trkpt>
      <trkpt lat="42.64394" lon="1.54421">
        <ele>2286.531</ele>
        <time>2016-05-05T16:58:02Z</time>
      </trkpt>
      <trkpt lat="42.64395" lon="1.54402">
        <ele>2289.979</ele>
        <time>2016-05-05T16:58:22Z</time>
      </trkpt>
      <trkpt lat="42.64397" lon="1.54382">
        <ele>2292.257</ele>
        <time>2016-05-05T16:58:42Z</time>
      </trkpt>
      <trkpt lat="42.64398" lon="1.54365">
        <ele>2293.6</ele>
        <time>2016-05-05T16:59:02Z</time>
      </trkpt>
      <trkpt lat="42.64396" lon="1.54347">
        <ele>2294.52</ele>
        <time>2016-05-05T16:59:22Z</time>
      </trkpt>
      <trkpt lat="42.64387" lon="1.54325">
        <ele>2295.908</ele>
        <time>2016-05-05T16:59:42Z</time>
      </trkpt>
      <trkpt lat="42.64377" lon="1.54314">
        <ele>2299.886</ele>
        <time>2016-05-05T17:00:02Z</time>
      </trkpt>
      <trkpt lat="42.64361" lon="1.54297">
        <ele>2305.128</ele>
        <time>2016-05-05T17:00:22Z</time>
      </trkpt>
      <trkpt lat="42.64353" lon="1.54287">
        <ele>2308.516</ele>
        <time>2016-05-05T17:00:42Z</time>
      </trkpt>
      <trkpt lat="42.64283" lon="1.54218">
        <ele>2336.054</ele>
        <time>2016-05-05T17:01:02Z</time>
      </trkpt>
      <trkpt lat="42.64228" lon="1.54178">
        <ele>2353.212</ele>
        <time>2016-05-05T17:01:22Z</time>
      </trkpt>
      <trkpt lat="42.64188" lon="1.54135">
        <ele>2365.383</ele>
        <time>2016-05-05T17:01:42Z</time>
      </trkpt>
      <trkpt lat="42.64162" lon="1.54091">
        <ele>2373.191</ele>
        <time>2016-05-05T17:02:02Z</time>
      </trkpt>
      <trkpt lat="42.64145" lon="1.54043">
        <ele>2382.989</ele>
        <time>2016-05-05T17:02:22Z</time>
      </trkpt>
      <trkpt lat="42.64126" lon="1.53988">
        <ele>2392.571</ele>
        <time>2016-05-05T17:02:42Z</time>
      </trkpt>
      <trkpt lat="42.64099" lon="1.53919">
        <ele>2418.841</ele>
        <time>2016-05-05T17:03:02Z</time>
      </trkpt>
      <trkpt lat="42.641" lon="1.53853">
        <ele>2441.815</ele>
        <time>2016-05-05T17:03:22Z</time>
      </trkpt>
      <trkpt lat="42.64085" lon="1.53791">
        <ele>2461.008</ele>
        <time>2016-05-05T17:03:42Z</time>
      </trkpt>
      <trkpt lat="42.64071" lon="1.5373">
        <ele>2477.988</ele>
        <time>2016-05-05T17:04:02Z</time>
      </trkpt>
      <trkpt lat="42.64055" lon="1.53683">
        <ele>2489.74</ele>
        <time>2016-05-05T17:04:22Z</time>
      </trkpt>
      <trkpt lat="42.64033" lon="1.53632">
        <ele>2507.248</ele>
        <time>2016-05-05T17:04:42Z</time>
      </trkpt>
      <trkpt lat="42.64022" lon="1.53601">
        <ele>2505.156</ele>
        <time>2016-05-05T17:05:02Z</time>
      </trkpt>
      <trkpt lat="42.64001" lon="1.53554">
        <ele>2488.264</ele>
        <time>2016-05-05T17:05:22Z</time>
      </trkpt>
      <trkpt lat="42.6399" lon="1.53528">
        <ele>2477.065</ele>
        <time>2016-05-05T17:05:42Z</time>
      </trkpt>
      <trkpt lat="42.63976" lon="1.53497">
        <ele>2464.973</ele>
        <time>2016-05-05T17:06:02Z</time>
      </trkpt>
      <trkpt lat="42.63969" lon="1.53475">
        <ele>2457.061</ele>
        <time>2016-05-05T17:06:22Z</time>
      </trkpt>
      <trkpt lat="42.63953" lon="1.53434">
        <ele>2446.811</ele>
        <time>2016-05-05T17:06:42Z</time>
      </trkpt>
      <trkpt lat="42.63942" lon="1.53415">
        <ele>2443.121</ele>
        <time>2016-05-05T17:07:02Z</time>
      </trkpt>
      <trkpt lat="42.6393" lon="1.53394">
        <ele>2439.503</ele>
        <time>2016-05-05T17:07:22Z</time>
      </trkpt>
      <trkpt lat="42.63919" lon="1.53372">
        <ele>2433.708</ele>
        <time>2016-05-05T17:07:42Z</time>
      </trkpt>
      <trkpt lat="42.63906" lon="1.53366">
        <ele>2434.212</ele>
        <time>2016-05-05T17:08:02Z</time>
      </trkpt>
      <trkpt lat="42.639" lon="1.53352">
        <ele>2429.044</ele>
        <time>2016-05-05T17:08:22Z</time>
      </trkpt>
      <trkpt lat="42.63883" lon="1.53325">
        <ele>2422.232</ele>
        <time>2016-05-05T17:08:42Z</time>
      </trkpt>
      <trkpt lat="42.63866" lon="1.533">
        <ele>2415.95</ele>
        <time>2016-05-05T17:09:02Z</time>
      </trkpt>
      <trkpt lat="42.63846" lon="1.53271">
        <ele>2408.578</ele>
        <time>2016-05-05T17:09:22Z</time>
      </trkpt>
      <trkpt lat="42.63832" lon="1.53246">
        <ele>2403.919</ele>
        <time>2016-05-05T17:09:42Z</time>
      </trkpt>
      <trkpt lat="42.6383" lon="1.53226">
        <ele>2399.487</ele>
        <time>2016-05-05T17:10:02Z</time>
      </trkpt>
      <trkpt lat="42.63832" lon="1.53201">
        <ele>2394.955</ele>
        <time>2016-05-05T17:10:22Z</time>
      </trkpt>
      <trkpt lat="42.63827" lon="1.53173">
        <ele>2388.759</ele>
        <time>2016-05-05T17:10:42Z</time>
      </trkpt>
      <trkpt lat="42.63826" lon="1.53152">
        <ele>2383.803</ele>
        <time>2016-05-05T17:11:02Z</time>
      </trkpt>
      <trkpt lat="42.63826" lon="1.53121">
        <ele>2375.623</ele>
        <time>2016-05-05T17:11:22Z</time>
      </trkpt>
      <trkpt lat="42.63821" lon="1.53096">
        <ele>2369.408</ele>
        <time>2016-05-05T17:11:42Z</time>
      </trkpt>
      <trkpt lat="42.63818" lon="1.53079">
        <ele>2365.676</ele>
        <time>2016-05-05T17:12:02Z</time>
      </trkpt>
      <trkpt lat="42.63818" lon="1.53062">
        <ele>2362.328</ele>
        <time>2016-05-05T17:12:22Z</time>
      </trkpt>
      <trkpt lat="42.63814" lon="1.53051">
        <ele>2359.966</ele>
        <time>2016-05-05T17:12:42Z</time>
      </trkpt>
      <trkpt lat="42.63808" lon="1.53044">
        <ele>2358.664</ele>
        <time>2016-05-05T17:13:02Z</time>
      </trkpt>
      <trkpt lat="42.63799" lon="1.53028">
        <ele>2354.652</ele>
        <time>2016-05-05T17:13:22Z</time>
      </trkpt>
      <trkpt lat="42.63788" lon="1.53009">
        <ele>2346.853</ele>
        <time>2016-05-05T17:13:42Z</time>
      </trkpt>
      <trkpt lat="42.63784" lon="1.52985">
        <ele>2339.491</ele>
        <time>2016-05-05T17:14:02Z</time>
      </trkpt>
      <trkpt lat="42.63795" lon="1.52948">
        <ele>2330.299</ele>
        <time>2016-05-05T17:14:22Z</time>
      </trkpt>
      <trkpt lat="42.63785" lon="1.52918">
        <ele>2325.376</ele>
        <time>2016-05-05T17:14:42Z</time>
      </trkpt>
      <trkpt lat="42.6378" lon="1.52891">
        <ele>2319.39</ele>
        <time>2016-05-05T17:15:02Z</time>
      </trkpt>
      <trkpt lat="42.63756" lon="1.52856">
        <ele>2311.119</ele>
        <time>2016-05-05T17:15:22Z</time>
      </trkpt>
      <trkpt lat="42.63738" lon="1.52804">
        <ele>2295.108</ele>
        <time>2016-05-05T17:15:42Z</time>
      </trkpt>
      <trkpt lat="42.63731" lon="1.5278">
        <ele>2288.058</ele>
        <time>2016-05-05T17:16:02Z</time>
      </trkpt>
      <trkpt lat="42.63729" lon="1.52763">
        <ele>2283.99</ele>
        <time>2016-05-05T17:16:22Z</time>
      </trkpt>
      <trkpt lat="42.63726" lon="1.52747">
        <ele>2280.998</ele>
        <time>2016-05-05T17:16:42Z</time>
      </trkpt>
      <trkpt lat="42.63724" lon="1.52727">
        <ele>2276.836</ele>
        <time>2016-05-05T17:17:02Z</time>
      </trkpt>
      <trkpt lat="42.63723" lon="1.52714">
        <ele>2273.994</ele>
        <time>2016-05-05T17:17:22Z</time>
      </trkpt>
      <trkpt lat="42.63722" lon="1.52702">
        <ele>2270.965</ele>
        <time>2016-05-05T17:17:42Z</time>
      </trkpt>
      <trkpt lat="42.6372" lon="1.52686">
        <ele>2266.083</ele>
        <time>2016-05-05T17:18:02Z</time>
      </trkpt>
      <trkpt lat="42.63717" lon="1.52659">
        <ele>2256.171</ele>
        <time>2016-05-05T17:18:22Z</time>
      </trkpt>
      <trkpt lat="42.63714" lon="1.52637">
        <ele>2246.751</ele>
        <time>2016-05-05T17:18:42Z</time>
      </trkpt>
      <trkpt lat="42.63709" lon="1.52621">
        <ele>2237.501</ele>
        <time>2016-05-05T17:19:02Z</time>
      </trkpt>
      <trkpt lat="42.636" lon="1.52583">
        <ele>2206.211</ele>
        <time>2016-05-05T17:19:22Z</time>
      </trkpt>
      <trkpt lat="42.63561" lon="1.52536">
        <ele>2199.208</ele>
        <time>2016-05-05T17:19:42Z</time>
      </trkpt>
      <trkpt lat="42.63538" lon="1.52475">
        <ele>2190.126</ele>
        <time>2016-05-05T17:20:02Z</time>
      </trkpt>
      <trkpt lat="42.6351" lon="1.5243">
        <ele>2184.358</ele>
        <time>2016-05-05T17:20:22Z</time>
      </trkpt>
      <trkpt lat="42.63482" lon="1.52379">
        <ele>2177.056</ele>
        <time>2016-05-05T17:20:42Z</time>
      </trkpt>
      <trkpt lat="42.6344" lon="1.52347">
        <ele>2183.254</ele>
        <time>2016-05-05T17:21:02Z</time>
      </trkpt>
      <trkpt lat="42.63412" lon="1.52305">
        <ele>2179.712</ele>
        <time>2016-05-05T17:21:22Z</time>
      </trkpt>
      <trkpt lat="42.63387" lon="1.52264">
        <ele>2169.843</ele>
        <time>2016-05-05T17:21:42Z</time>
      </trkpt>
      <trkpt lat="42.63378" lon="1.52253">
        <ele>2162.371</ele>
        <time>2016-05-05T17:22:02Z</time>
      </trkpt>
      <trkpt lat="42.63382" lon="1.52245">
        <ele>2161.869</ele>
        <time>2016-05-05T17:22:22Z</time>
      </trkpt>
      <trkpt lat="42.63386" lon="1.52236">
        <ele>2161.082</ele>
        <time>2016-05-05T17:22:42Z</time>
      </trkpt>
      <trkpt lat="42.63391" lon="1.52227">
        <ele>2159.143</ele>
        <time>2016-05-05T17:23:02Z</time>
      </trkpt>
      <trkpt lat="42.63393" lon="1.5222">
        <ele>2156.717</ele>
        <time>2016-05-05T17:23:22Z</time>
      </trkpt>
      <trkpt lat="42.63395" lon="1.52216">
        <ele>2155.008</ele>
        <time>2016-05-05T17:23:42Z</time>
      </trkpt>
      <trkpt lat="42.63393" lon="1.52208">
        <ele>2152.739</ele>
        <time>2016-05-05T17:24:02Z</time>
      </trkpt>
      <trkpt lat="42.63394" lon="1.52198">
        <ele>2149.471</ele>
        <time>2016-05-05T17:24:22Z</time>
      </trkpt>
      <trkpt lat="42.634" lon="1.52191">
        <ele>2146.599</ele>
        <time>2016-05-05T17:24:42Z</time>
      </trkpt>
      <trkpt lat="42.63404" lon="1.52186">
        <ele>2144.717</ele>
        <time>2016-05-05T17:25:02Z</time>
      </trkpt>
      <trkpt lat="42.63406" lon="1.52175">
        <ele>2141.765</ele>
        <time>2016-05-05T17:25:22Z</time>
      </trkpt>
      <trkpt lat="42.63408" lon="1.52167">
        <ele>2139.446</ele>
        <time>2016-05-05T17:25:42Z</time>
      </trkpt>
      <trkpt lat="42.6341" lon="1.52161">
        <ele>2137.734</ele>
        <time>2016-05-05T17:26:02Z</time>
      </trkpt>
      <trkpt lat="42.63425" lon="1.52165">
        <ele>2135.392</ele>
        <time>2016-05-05T17:26:22Z</time>
      </trkpt>
      <trkpt lat="42.63426" lon="1.52156">
        <ele>2133.172</ele>
        <time>2016-05-05T17:26:42Z</time>
      </trkpt>
      <trkpt lat="42.63424" lon="1.52146">
        <ele>2131.613</ele>
        <time>2016-05-05T17:27:02Z</time>
      </trkpt>
      <trkpt lat="42.63421" lon="1.52137">
        <ele>2130.314</ele>
        <time>2016-05-05T17:27:22Z</time>
      </trkpt>
      <trkpt lat="42.63417" lon="1.52125">
        <ele>2127.908</ele>
        <time>2016-05-05T17:27:42Z</time>
      </trkpt>
      <trkpt lat="42.63414" lon="1.52118">
        <ele>2126.148</ele>
        <time>2016-05-05T17:28:02Z</time>
      </trkpt>
      <trkpt lat="42.63412" lon="1.52112">
        <ele>2124.41</ele>
        <time>2016-05-05T17:28:22Z</time>
      </trkpt>
      <trkpt lat="42.63412" lon="1.52103">
        <ele>2121.868</ele>
        <time>2016-05-05T17:28:42Z</time>
      </trkpt>
      <trkpt lat="42.63412" lon="1.52091">
        <ele>2118.486</ele>
        <time>2016-05-05T17:29:02Z</time>
      </trkpt>
      <trkpt lat="42.63414" lon="1.52083">
        <ele>2116.094</ele>
        <time>2016-05-05T17:29:22Z</time>
      </trkpt>
      <trkpt lat="42.63416" lon="1.52074">
        <ele>2114.065</ele>
        <time>2016-05-05T17:29:42Z</time>
      </trkpt>
      <trkpt lat="42.63418" lon="1.52069">
        <ele>2112.673</ele>
        <time>2016-05-05T17:30:02Z</time>
      </trkpt>
      <trkpt lat="42.6342" lon="1.52063">
        <ele>2110.771</ele>
        <time>2016-05-05T17:30:22Z</time>
      </trkpt>
      <trkpt lat="42.63419" lon="1.52054">
        <ele>2109.256</ele>
        <time>2016-05-05T17:30:42Z</time>
      </trkpt>
      <trkpt lat="42.63416" lon="1.52047">
        <ele>2108.159</ele>
        <time>2016-05-05T17:31:02Z</time>
      </trkpt>
      <trkpt lat="42.63416" lon="1.52039">
        <ele>2106.514</ele>
        <time>2016-05-05T17:31:22Z</time>
      </trkpt>
      <trkpt lat="42.63414" lon="1.52033">
        <ele>2105.108</ele>
        <time>2016-05-05T17:31:42Z</time>
      </trkpt>
      <trkpt lat="42.63413" lon="1.52024">
        <ele>2103.466</ele>
        <time>2016-05-05T17:32:02Z</time>
      </trkpt>
      <trkpt lat="42.63425" lon="1.52011">
        <ele>2098.538</ele>
        <time>2016-05-05T17:32:22Z</time>
      </trkpt>
      <trkpt lat="42.63434" lon="1.52009">
        <ele>2095.596</ele>
        <time>2016-05-05T17:32:42Z</time>
      </trkpt>
      <trkpt lat="42.63443" lon="1.52014">
        <ele>2094.054</ele>
        <time>2016-05-05T17:33:02Z</time>
      </trkpt>
      <trkpt lat="42.63452" lon="1.52022">
        <ele>2091.852</ele>
        <time>2016-05-05T17:33:22Z</time>
      </trkpt>
      <trkpt lat="42.63462" lon="1.52032">
        <ele>2089.233</ele>
        <time>2016-05-05T17:33:42Z</time>
      </trkpt>
      <trkpt lat="42.63467" lon="1.52043">
        <ele>2089.031</ele>
        <time>2016-05-05T17:34:02Z</time>
      </trkpt>
      <trkpt lat="42.63474" lon="1.52051">
        <ele>2087.689</ele>
        <time>2016-05-05T17:34:22Z</time>
      </trkpt>
      <trkpt lat="42.63486" lon="1.52064">
        <ele>2086.126</ele>
        <time>2016-05-05T17:34:42Z</time>
      </trkpt>
      <trkpt lat="42.63495" lon="1.52074">
        <ele>2084.947</ele>
        <time>2016-05-05T17:35:02Z</time>
      </trkpt>
      <trkpt lat="42.63507" lon="1.52088">
        <ele>2084.911</ele>
        <time>2016-05-05T17:35:22Z</time>
      </trkpt>
      <trkpt lat="42.63522" lon="1.52104">
        <ele>2085.008</ele>
        <time>2016-05-05T17:35:42Z</time>
      </trkpt>
      <trkpt lat="42.63536" lon="1.52118">
        <ele>2085.663</ele>
        <time>2016-05-05T17:36:02Z</time>
      </trkpt>
      <trkpt lat="42.63543" lon="1.52126">
        <ele>2086.085</ele>
        <time>2016-05-05T17:36:22Z</time>
      </trkpt>
      <trkpt lat="42.63557" lon="1.52138">
        <ele>2084.523</ele>
        <time>2016-05-05T17:36:42Z</time>
      </trkpt>
      <trkpt lat="42.63571" lon="1.52143">
        <ele>2083.721</ele>
        <time>2016-05-05T17:37:02Z</time>
      </trkpt>
      <trkpt lat="42.63576" lon="1.52142">
        <ele>2082.639</ele>
        <time>2016-05-05T17:37:22Z</time>
      </trkpt>
      <trkpt lat="42.63579" lon="1.52131">
        <ele>2080.28</ele>
        <time>2016-05-05T17:37:42Z</time>
      </trkpt>
      <trkpt lat="42.63582" lon="1.5212">
        <ele>2077.718</ele>
        <time>2016-05-05T17:38:02Z</time>
      </trkpt>
      <trkpt lat="42.63586" lon="1.52105">
        <ele>2076.686</ele>
        <time>2016-05-05T17:38:22Z</time>
      </trkpt>
      <trkpt lat="42.63595" lon="1.52114">
        <ele>2078.758</ele>
        <time>2016-05-05T17:38:42Z</time>
      </trkpt>
      <trkpt lat="42.63602" lon="1.52122">
        <ele>2080.252</ele>
        <time>2016-05-05T17:39:02Z</time>
      </trkpt>
      <trkpt lat="42.63608" lon="1.52118">
        <ele>2081.117</ele>
        <time>2016-05-05T17:39:22Z</time>
      </trkpt>
      <trkpt lat="42.63606" lon="1.52103">
        <ele>2081.408</ele>
        <time>2016-05-05T17:39:42Z</time>
      </trkpt>
      <trkpt lat="42.63602" lon="1.5209">
        <ele>2081.176</ele>
        <time>2016-05-05T17:40:02Z</time>
      </trkpt>
      <trkpt lat="42.63598" lon="1.52075">
        <ele>2080.258</ele>
        <time>2016-05-05T17:40:22Z</time>
      </trkpt>
      <trkpt lat="42.63595" lon="1.52066">
        <ele>2079.966</ele>
        <time>2016-05-05T17:40:42Z</time>
      </trkpt>
      <trkpt lat="42.63596" lon="1.52058">
        <ele>2080.364</ele>
        <time>2016-05-05T17:41:02Z</time>
      </trkpt>
      <trkpt lat="42.63589" lon="1.52047">
        <ele>2078.752</ele>
        <time>2016-05-05T17:41:22Z</time>
      </trkpt>
      <trkpt lat="42.63583" lon="1.52039">
        <ele>2077.593</ele>
        <time>2016-05-05T17:41:42Z</time>
      </trkpt>
      <trkpt lat="42.6359" lon="1.5203">
        <ele>2077.011</ele>
        <time>2016-05-05T17:42:02Z</time>
      </trkpt>
      <trkpt lat="42.63598" lon="1.52026">
        <ele>2075.999</ele>
        <time>2016-05-05T17:42:22Z</time>
      </trkpt>
      <trkpt lat="42.63609" lon="1.52023">
        <ele>2074.672</ele>
        <time>2016-05-05T17:42:42Z</time>
      </trkpt>
      <trkpt lat="42.63617" lon="1.52019">
        <ele>2072.613</ele>
        <time>2016-05-05T17:43:02Z</time>
      </trkpt>
      <trkpt lat="42.63625" lon="1.52014">
        <ele>2070.314</ele>
        <time>2016-05-05T17:43:22Z</time>
      </trkpt>
      <trkpt lat="42.63634" lon="1.52015">
        <ele>2069.408</ele>
        <time>2016-05-05T17:43:42Z</time>
      </trkpt>
      <trkpt lat="42.63642" lon="1.52015">
        <ele>2068.558</ele>
        <time>2016-05-05T17:44:02Z</time>
      </trkpt>
      <trkpt lat="42.63647" lon="1.52014">
        <ele>2067.73</ele>
        <time>2016-05-05T17:44:22Z</time>
      </trkpt>
      <trkpt lat="42.63663" lon="1.52007">
        <ele>2064.668</ele>
        <time>2016-05-05T17:44:42Z</time>
      </trkpt>
      <trkpt lat="42.63659" lon="1.51988">
        <ele>2061.976</ele>
        <time>2016-05-05T17:45:02Z</time>
      </trkpt>
      <trkpt lat="42.63655" lon="1.51966">
        <ele>2058.694</ele>
        <time>2016-05-05T17:45:22Z</time>
      </trkpt>
      <trkpt lat="42.63653" lon="1.51948">
        <ele>2056.085</ele>
        <time>2016-05-05T17:45:42Z</time>
      </trkpt>
      <trkpt lat="42.63647" lon="1.51922">
        <ele>2052.843</ele>
        <time>2016-05-05T17:46:02Z</time>
      </trkpt>
      <trkpt lat="42.63645" lon="1.5191">
        <ele>2051.441</ele>
        <time>2016-05-05T17:46:22Z</time>
      </trkpt>
      <trkpt lat="42.63642" lon="1.51895">
        <ele>2049.249</ele>
        <time>2016-05-05T17:46:42Z</time>
      </trkpt>
      <trkpt lat="42.63634" lon="1.51883">
        <ele>2047.302</ele>
        <time>2016-05-05T17:47:02Z</time>
      </trkpt>
      <trkpt lat="42.6363" lon="1.51871">
        <ele>2046.022</ele>
        <time>2016-05-05T17:47:22Z</time>
      </trkpt>
      <trkpt lat="42.6363" lon="1.51861">
        <ele>2045.008</ele>
        <time>2016-05-05T17:47:42Z</time>
      </trkpt>
      <trkpt lat="42.63627" lon="1.51848">
        <ele>2042.545</ele>
        <time>2016-05-05T17:48:02Z</time>
      </trkpt>
      <trkpt lat="42.63619" lon="1.51835">
        <ele>2039.987</ele>
        <time>2016-05-05T17:48:22Z</time>
      </trkpt>
      <trkpt lat="42.63621" lon="1.51819">
        <ele>2037.955</ele>
        <time>2016-05-05T17:48:42Z</time>
      </trkpt>
      <trkpt lat="42.63625" lon="1.51809">
        <ele>2036.953</ele>
        <time>2016-05-05T17:49:02Z</time>
      </trkpt>
      <trkpt lat="42.63622" lon="1.51792">
        <ele>2035.011</ele>
        <time>2016-05-05T17:49:22Z</time>
      </trkpt>
      <trkpt lat="42.63617" lon="1.51784">
        <ele>2033.792</ele>
        <time>2016-05-05T17:49:42Z</time>
      </trkpt>
      <trkpt lat="42.63615" lon="1.51774">
        <ele>2032.52</ele>
        <time>2016-05-05T17:50:02Z</time>
      </trkpt>
      <trkpt lat="42.63612" lon="1.51766">
        <ele>2031.818</ele>
        <time>2016-05-05T17:50:22Z</time>
      </trkpt>
      <trkpt lat="42.63611" lon="1.51754">
        <ele>2031.277</ele>
        <time>2016-05-05T17:50:42Z</time>
      </trkpt>
      <trkpt lat="42.63632" lon="1.51767">
        <ele>2035.461</ele>
        <time>2016-05-05T17:51:02Z</time>
      </trkpt>
      <trkpt lat="42.63644" lon="1.51779">
        <ele>2038.227</ele>
        <time>2016-05-05T17:51:22Z</time>
      </trkpt>
      <trkpt lat="42.63662" lon="1.51787">
        <ele>2042.208</ele>
        <time>2016-05-05T17:51:42Z</time>
      </trkpt>
      <trkpt lat="42.63672" lon="1.51792">
        <ele>2045.058</ele>
        <time>2016-05-05T17:52:02Z</time>
      </trkpt>
      <trkpt lat="42.63685" lon="1.51804">
        <ele>2049.23</ele>
        <time>2016-05-05T17:52:22Z</time>
      </trkpt>
      <trkpt lat="42.637" lon="1.51807">
        <ele>2053.918</ele>
        <time>2016-05-05T17:52:42Z</time>
      </trkpt>
      <trkpt lat="42.63718" lon="1.51809">
        <ele>2060.096</ele>
        <time>2016-05-05T17:53:02Z</time>
      </trkpt>
      <trkpt lat="42.63734" lon="1.51817">
        <ele>2066.564</ele>
        <time>2016-05-05T17:53:22Z</time>
      </trkpt>
      <trkpt lat="42.6375" lon="1.51811">
        <ele>2071.595</ele>
        <time>2016-05-05T17:53:42Z</time>
      </trkpt>
      <trkpt lat="42.63765" lon="1.51818">
        <ele>2078.023</ele>
        <time>2016-05-05T17:54:02Z</time>
      </trkpt>
      <trkpt lat="42.63767" lon="1.51798">
        <ele>2078.751</ele>
        <time>2016-05-05T17:54:22Z</time>
      </trkpt>
      <trkpt lat="42.6376" lon="1.51773">
        <ele>2078.278</ele>
        <time>2016-05-05T17:54:42Z</time>
      </trkpt>
      <trkpt lat="42.63751" lon="1.51756">
        <ele>2076.733</ele>
        <time>2016-05-05T17:55:02Z</time>
      </trkpt>
      <trkpt lat="42.63748" lon="1.51745">
        <ele>2077.626</ele>
        <time>2016-05-05T17:55:22Z</time>
      </trkpt>
      <trkpt lat="42.63741" lon="1.5173">
        <ele>2078.308</ele>
        <time>2016-05-05T17:55:42Z</time>
      </trkpt>
      <trkpt lat="42.63732" lon="1.51702">
        <ele>2080.898</ele>
        <time>2016-05-05T17:56:02Z</time>
      </trkpt>
      <trkpt lat="42.63725" lon="1.51667">
        <ele>2084.06</ele>
        <time>2016-05-05T17:56:22Z</time>
      </trkpt>
      <trkpt lat="42.63715" lon="1.51651">
        <ele>2084.748</ele>
        <time>2016-05-05T17:56:42Z</time>
      </trkpt>
      <trkpt lat="42.63709" lon="1.51643">
        <ele>2084.866</ele>
        <time>2016-05-05T17:57:02Z</time>
      </trkpt>
      <trkpt lat="42.63702" lon="1.51621">
        <ele>2089.574</ele>
        <time>2016-05-05T17:57:22Z</time>
      </trkpt>
      <trkpt lat="42.63696" lon="1.51588">
        <ele>2096.815</ele>
        <time>2016-05-05T17:57:42Z</time>
      </trkpt>
      <trkpt lat="42.63693" lon="1.51562">
        <ele>2100.563</ele>
        <time>2016-05-05T17:58:02Z</time>
      </trkpt>
      <trkpt lat="42.63685" lon="1.51532">
        <ele>2103.191</ele>
        <time>2016-05-05T17:58:22Z</time>
      </trkpt>
      <trkpt lat="42.63681" lon="1.5151">
        <ele>2105.529</ele>
        <time>2016-05-05T17:58:42Z</time>
      </trkpt>
      <trkpt lat="42.63676" lon="1.51486">
        <ele>2106.9</ele>
        <time>2016-05-05T17:59:02Z</time>
      </trkpt>
      <trkpt lat="42.63678" lon="1.51464">
        <ele>2113.52</ele>
        <time>2016-05-05T17:59:22Z</time>
      </trkpt>
      <trkpt lat="42.63674" lon="1.51431">
        <ele>2118.308</ele>
        <time>2016-05-05T17:59:42Z</time>
      </trkpt>
      <trkpt lat="42.63669" lon="1.51407">
        <ele>2119.383</ele>
        <time>2016-05-05T18:00:02Z</time>
      </trkpt>
      <trkpt lat="42.63671" lon="1.51388">
        <ele>2124.555</ele>
        <time>2016-05-05T18:00:22Z</time>
      </trkpt>
      <trkpt lat="42.63667" lon="1.5136">
        <ele>2125.563</ele>
        <time>2016-05-05T18:00:42Z</time>
      </trkpt>
      <trkpt lat="42.6367" lon="1.51346">
        <ele>2129.621</ele>
        <time>2016-05-05T18:01:02Z</time>
      </trkpt>
      <trkpt lat="42.63672" lon="1.51332">
        <ele>2133.619</ele>
        <time>2016-05-05T18:01:22Z</time>
      </trkpt>
      <trkpt lat="42.63675" lon="1.51318">
        <ele>2138.51</ele>
        <time>2016-05-05T18:01:42Z</time>
      </trkpt>
      <trkpt lat="42.63677" lon="1.51303">
        <ele>2141.488</ele>
        <time>2016-05-05T18:02:02Z</time>
      </trkpt>
      <trkpt lat="42.63678" lon="1.51288">
        <ele>2144.496</ele>
        <time>2016-05-05T18:02:22Z</time>
      </trkpt>
      <trkpt lat="42.63678" lon="1.51264">
        <ele>2147.889</ele>
        <time>2016-05-05T18:02:42Z</time>
      </trkpt>
      <trkpt lat="42.63694" lon="1.51274">
        <ele>2157.206</ele>
        <time>2016-05-05T18:03:02Z</time>
      </trkpt>
      <trkpt lat="42.63707" lon="1.5127">
        <ele>2167.226</ele>
        <time>2016-05-05T18:03:22Z</time>
      </trkpt>
      <trkpt lat="42.63719" lon="1.51243">
        <ele>2174.508</ele>
        <time>2016-05-05T18:03:42Z</time>
      </trkpt>
      <trkpt lat="42.63731" lon="1.51225">
        <ele>2181.049</ele>
        <time>2016-05-05T18:04:02Z</time>
      </trkpt>
      <trkpt lat="42.6374" lon="1.51213">
        <ele>2184.831</ele>
        <time>2016-05-05T18:04:22Z</time>
      </trkpt>
      <trkpt lat="42.63753" lon="1.51208">
        <ele>2192.819</ele>
        <time>2016-05-05T18:04:42Z</time>
      </trkpt>
      <trkpt lat="42.63757" lon="1.51212">
        <ele>2196.687</ele>
        <time>2016-05-05T18:05:02Z</time>
      </trkpt>
      <trkpt lat="42.63757" lon="1.51233">
        <ele>2200.325</ele>
        <time>2016-05-05T18:05:22Z</time>
      </trkpt>
      <trkpt lat="42.63761" lon="1.51262">
        <ele>2209.596</ele>
        <time>2016-05-05T18:05:42Z</time>
      </trkpt>
      <trkpt lat="42.6376" lon="1.51289">
        <ele>2214.894</ele>
        <time>2016-05-05T18:06:02Z</time>
      </trkpt>
      <trkpt lat="42.63762" lon="1.5132">
        <ele>2221.832</ele>
        <time>2016-05-05T18:06:22Z</time>
      </trkpt>
      <trkpt lat="42.63767" lon="1.51342">
        <ele>2226.152</ele>
        <time>2016-05-05T18:06:42Z</time>
      </trkpt>
      <trkpt lat="42.63774" lon="1.5135">
        <ele>2229.753</ele>
        <time>2016-05-05T18:07:02Z</time>
      </trkpt>
      <trkpt lat="42.63789" lon="1.5136">
        <ele>2235.508</ele>
        <time>2016-05-05T18:07:22Z</time>
      </trkpt>
      <trkpt lat="42.63817" lon="1.51334">
        <ele>2249.508</ele>
        <time>2016-05-05T18:07:42Z</time>
      </trkpt>
      <trkpt lat="42.6384" lon="1.5131">
        <ele>2260.626</ele>
        <time>2016-05-05T18:08:02Z</time>
      </trkpt>
      <trkpt lat="42.63853" lon="1.51298">
        <ele>2264.858</ele>
        <time>2016-05-05T18:08:22Z</time>
      </trkpt>
      <trkpt lat="42.63875" lon="1.51272">
        <ele>2273.126</ele>
        <time>2016-05-05T18:08:42Z</time>
      </trkpt>
      <trkpt lat="42.63887" lon="1.51271">
        <ele>2279.034</ele>
        <time>2016-05-05T18:09:02Z</time>
      </trkpt>
      <trkpt lat="42.63906" lon="1.51272">
        <ele>2287.822</ele>
        <time>2016-05-05T18:09:22Z</time>
      </trkpt>
      <trkpt lat="42.63917" lon="1.51273">
        <ele>2292.783</ele>
        <time>2016-05-05T18:09:42Z</time>
      </trkpt>
      <trkpt lat="42.63927" lon="1.51273">
        <ele>2293.361</ele>
        <time>2016-05-05T18:10:02Z</time>
      </trkpt>
      <trkpt lat="42.63937" lon="1.5127">
        <ele>2294.889</ele>
        <time>2016-05-05T18:10:22Z</time>
      </trkpt>
      <trkpt lat="42.63942" lon="1.51231">
        <ele>2303.846</ele>
        <time>2016-05-05T18:10:42Z</time>
      </trkpt>
      <trkpt lat="42.63945" lon="1.51189">
        <ele>2312.088</ele>
        <time>2016-05-05T18:11:02Z</time>
      </trkpt>
      <trkpt lat="42.63942" lon="1.51163">
        <ele>2315.216</ele>
        <time>2016-05-05T18:11:22Z</time>
      </trkpt>
      <trkpt lat="42.63935" lon="1.51126">
        <ele>2314.608</ele>
        <time>2016-05-05T18:11:42Z</time>
      </trkpt>
      <trkpt lat="42.63932" lon="1.5108">
        <ele>2311.975</ele>
        <time>2016-05-05T18:12:02Z</time>
      </trkpt>
      <trkpt lat="42.63941" lon="1.51049">
        <ele>2314.957</ele>
        <time>2016-05-05T18:12:22Z</time>
      </trkpt>
      <trkpt lat="42.63944" lon="1.51021">
        <ele>2316.335</ele>
        <time>2016-05-05T18:12:42Z</time>
      </trkpt>
      <trkpt lat="42.63939" lon="1.50994">
        <ele>2316.923</ele>
        <time>2016-05-05T18:13:02Z</time>
      </trkpt>
      <trkpt lat="42.63938" lon="1.50959">
        <ele>2317.571</ele>
        <time>2016-05-05T18:13:22Z</time>
      </trkpt>
      <trkpt lat="42.63948" lon="1.50927">
        <ele>2318.392</ele>
        <time>2016-05-05T18:13:42Z</time>
      </trkpt>
      <trkpt lat="42.63957" lon="1.50899">
        <ele>2314.11</ele>
        <time>2016-05-05T18:14:02Z</time>
      </trkpt>
      <trkpt lat="42.63962" lon="1.50863">
        <ele>2302.368</ele>
        <time>2016-05-05T18:14:22Z</time>
      </trkpt>
      <trkpt lat="42.6395" lon="1.50813">
        <ele>2288.379</ele>
        <time>2016-05-05T18:14:42Z</time>
      </trkpt>
      <trkpt lat="42.63941" lon="1.50799">
        <ele>2286.505</ele>
        <time>2016-05-05T18:15:02Z</time>
      </trkpt>
      <trkpt lat="42.63934" lon="1.50765">
        <ele>2283.325</ele>
        <time>2016-05-05T18:15:22Z</time>
      </trkpt>
      <trkpt lat="42.63923" lon="1.50709">
        <ele>2285.308</ele>
        <time>2016-05-05T18:15:42Z</time>
      </trkpt>
      <trkpt lat="42.63906" lon="1.50639">
        <ele>2286.918</ele>
        <time>2016-05-05T18:16:02Z</time>
      </trkpt>
      <trkpt lat="42.63895" lon="1.50594">
        <ele>2283.85</ele>
        <time>2016-05-05T18:16:22Z</time>
      </trkpt>
      <trkpt lat="42.63884" lon="1.50558">
        <ele>2281.738</ele>
        <time>2016-05-05T18:16:42Z</time>
      </trkpt>
      <trkpt lat="42.63878" lon="1.5051">
        <ele>2280.466</ele>
        <time>2016-05-05T18:17:02Z</time>
      </trkpt>
      <trkpt lat="42.63867" lon="1.50471">
        <ele>2269.914</ele>
        <time>2016-05-05T18:17:22Z</time>
      </trkpt>
      <trkpt lat="42.63846" lon="1.50443">
        <ele>2252.755</ele>
        <time>2016-05-05T18:17:42Z</time>
      </trkpt>
      <trkpt lat="42.6384" lon="1.50402">
        <ele>2241.843</ele>
        <time>2016-05-05T18:18:02Z</time>
      </trkpt>
      <trkpt lat="42.63837" lon="1.50371">
        <ele>2236.371</ele>
        <time>2016-05-05T18:18:22Z</time>
      </trkpt>
      <trkpt lat="42.63832" lon="1.50345">
        <ele>2233.389</ele>
        <time>2016-05-05T18:18:42Z</time>
      </trkpt>
      <trkpt lat="42.63814" lon="1.50296">
        <ele>2228.106</ele>
        <time>2016-05-05T18:19:02Z</time>
      </trkpt>
      <trkpt lat="42.63808" lon="1.5026">
        <ele>2224.826</ele>
        <time>2016-05-05T18:19:22Z</time>
      </trkpt>
      <trkpt lat="42.63817" lon="1.50216">
        <ele>2224.408</ele>
        <time>2016-05-05T18:19:42Z</time>
      </trkpt>
      <trkpt lat="42.63806" lon="1.50161">
        <ele>2218.869</ele>
        <time>2016-05-05T18:20:02Z</time>
      </trkpt>
      <trkpt lat="42.6379" lon="1.50115">
        <ele>2217.341</ele>
        <time>2016-05-05T18:20:22Z</time>
      </trkpt>
      <trkpt lat="42.63779" lon="1.50071">
        <ele>2210.229</ele>
        <time>2016-05-05T18:20:42Z</time>
      </trkpt>
      <trkpt lat="42.63769" lon="1.5004">
        <ele>2209.077</ele>
        <time>2016-05-05T18:21:02Z</time>
      </trkpt>
      <trkpt lat="42.63757" lon="1.50007">
        <ele>2207.045</ele>
        <time>2016-05-05T18:21:22Z</time>
      </trkpt>
      <trkpt lat="42.63746" lon="1.49975">
        <ele>2205.836</ele>
        <time>2016-05-05T18:21:42Z</time>
      </trkpt>
      <trkpt lat="42.63727" lon="1.49943">
        <ele>2203.034</ele>
        <time>2016-05-05T18:22:02Z</time>
      </trkpt>
      <trkpt lat="42.63714" lon="1.49892">
        <ele>2197.352</ele>
        <time>2016-05-05T18:22:22Z</time>
      </trkpt>
      <trkpt lat="42.63674" lon="1.49845">
        <ele>2188.192</ele>
        <time>2016-05-05T18:22:42Z</time>
      </trkpt>
      <trkpt lat="42.63658" lon="1.49815">
        <ele>2179.873</ele>
        <time>2016-05-05T18:23:02Z</time>
      </trkpt>
      <trkpt lat="42.63624" lon="1.49707">
        <ele>2138.32</ele>
        <time>2016-05-05T18:23:22Z</time>
      </trkpt>
      <trkpt lat="42.63584" lon="1.49588">
        <ele>2108.208</ele>
        <time>2016-05-05T18:23:42Z</time>
      </trkpt>
      <trkpt lat="42.63493" lon="1.49463">
        <ele>2096.21</ele>
        <time>2016-05-05T18:24:02Z</time>
      </trkpt>
      <trkpt lat="42.63491" lon="1.49375">
        <ele>2114.342</ele>
        <time>2016-05-05T18:24:22Z</time>
      </trkpt>
      <trkpt lat="42.6349" lon="1.49307">
        <ele>2132.53</ele>
        <time>2016-05-05T18:24:42Z</time>
      </trkpt>
      <trkpt lat="42.63462" lon="1.49221">
        <ele>2156.438</ele>
        <time>2016-05-05T18:25:02Z</time>
      </trkpt>
      <trkpt lat="42.63445" lon="1.49125">
        <ele>2172.276</ele>
        <time>2016-05-05T18:25:22Z</time>
      </trkpt>
      <trkpt lat="42.63394" lon="1.49023">
        <ele>2184.717</ele>
        <time>2016-05-05T18:25:42Z</time>
      </trkpt>
      <trkpt lat="42.6338" lon="1.48961">
        <ele>2185.435</ele>
        <time>2016-05-05T18:26:02Z</time>
      </trkpt>
      <trkpt lat="42.6338" lon="1.48926">
        <ele>2185.023</ele>
        <time>2016-05-05T18:26:22Z</time>
      </trkpt>
      <trkpt lat="42.63378" lon="1.48889">
        <ele>2185.094</ele>
        <time>2016-05-05T18:26:42Z</time>
      </trkpt>
      <trkpt lat="42.63373" lon="1.48853">
        <ele>2186.357</ele>
        <time>2016-05-05T18:27:02Z</time>
      </trkpt>
      <trkpt lat="42.63345" lon="1.48768">
        <ele>2189.022</ele>
        <time>2016-05-05T18:27:22Z</time>
      </trkpt>
      <trkpt lat="42.63337" lon="1.48667">
        <ele>2190.508</ele>
        <time>2016-05-05T18:27:42Z</time>
      </trkpt>
      <trkpt lat="42.63343" lon="1.48626">
        <ele>2191.37</ele>
        <time>2016-05-05T18:28:02Z</time>
      </trkpt>
      <trkpt lat="42.6336" lon="1.48529">
        <ele>2191.962</ele>
        <time>2016-05-05T18:28:22Z</time>
      </trkpt>
      <trkpt lat="42.63339" lon="1.48457">
        <ele>2195.68</ele>
        <time>2016-05-05T18:28:42Z</time>
      </trkpt>
      <trkpt lat="42.63293" lon="1.48409">
        <ele>2195.638</ele>
        <time>2016-05-05T18:29:02Z</time>
      </trkpt>
      <trkpt lat="42.63257" lon="1.48367">
        <ele>2200.296</ele>
        <time>2016-05-05T18:29:22Z</time>
      </trkpt>
      <trkpt lat="42.6324" lon="1.48325">
        <ele>2206.757</ele>
        <time>2016-05-05T18:29:42Z</time>
      </trkpt>
      <trkpt lat="42.6323" lon="1.48287">
        <ele>2213.065</ele>
        <time>2016-05-05T18:30:02Z</time>
      </trkpt>
      <trkpt lat="42.63217" lon="1.48263">
        <ele>2217.623</ele>
        <time>2016-05-05T18:30:22Z</time>
      </trkpt>
      <trkpt lat="42.63208" lon="1.4824">
        <ele>2222.566</ele>
        <time>2016-05-05T18:30:42Z</time>
      </trkpt>
      <trkpt lat="42.63202" lon="1.48227">
        <ele>2225.329</ele>
        <time>2016-05-05T18:31:02Z</time>
      </trkpt>
      <trkpt lat="42.63197" lon="1.48219">
        <ele>2226.921</ele>
        <time>2016-05-05T18:31:22Z</time>
      </trkpt>
      <trkpt lat="42.6319" lon="1.48219">
        <ele>2227.408</ele>
        <time>2016-05-05T18:31:42Z</time>
      </trkpt>
      <trkpt lat="42.63184" lon="1.48214">
        <ele>2227.947</ele>
        <time>2016-05-05T18:32:02Z</time>
      </trkpt>
      <trkpt lat="42.63173" lon="1.48201">
        <ele>2228.729</ele>
        <time>2016-05-05T18:32:22Z</time>
      </trkpt>
      <trkpt lat="42.63167" lon="1.48193">
        <ele>2229.167</ele>
        <time>2016-05-05T18:32:42Z</time>
      </trkpt>
      <trkpt lat="42.63142" lon="1.48177">
        <ele>2233.295</ele>
        <time>2016-05-05T18:33:02Z</time>
      </trkpt>
      <trkpt lat="42.63129" lon="1.48173">
        <ele>2235.963</ele>
        <time>2016-05-05T18:33:22Z</time>
      </trkpt>
      <trkpt lat="42.6311" lon="1.48165">
        <ele>2240.034</ele>
        <time>2016-05-05T18:33:42Z</time>
      </trkpt>
      <trkpt lat="42.63097" lon="1.48155">
        <ele>2241.582</ele>
        <time>2016-05-05T18:34:02Z</time>
      </trkpt>
      <trkpt lat="42.63084" lon="1.48143">
        <ele>2243.93</ele>
        <time>2016-05-05T18:34:22Z</time>
      </trkpt>
      <trkpt lat="42.63067" lon="1.48129">
        <ele>2246.485</ele>
        <time>2016-05-05T18:34:42Z</time>
      </trkpt>
      <trkpt lat="42.63051" lon="1.48108">
        <ele>2249.489</ele>
        <time>2016-05-05T18:35:02Z</time>
      </trkpt>
      <trkpt lat="42.63033" lon="1.48092">
        <ele>2251.917</ele>
        <time>2016-05-05T18:35:22Z</time>
      </trkpt>
      <trkpt lat="42.63014" lon="1.48072">
        <ele>2254.708</ele>
        <time>2016-05-05T18:35:42Z</time>
      </trkpt>
      <trkpt lat="42.62992" lon="1.48055">
        <ele>2258.949</ele>
        <time>2016-05-05T18:36:02Z</time>
      </trkpt>
      <trkpt lat="42.62968" lon="1.48034">
        <ele>2263.021</ele>
        <time>2016-05-05T18:36:22Z</time>
      </trkpt>
      <trkpt lat="42.62924" lon="1.47991">
        <ele>2272.039</ele>
        <time>2016-05-05T18:36:42Z</time>
      </trkpt>
      <trkpt lat="42.62908" lon="1.47969">
        <ele>2275.077</ele>
        <time>2016-05-05T18:37:02Z</time>
      </trkpt>
      <trkpt lat="42.6289" lon="1.47943">
        <ele>2279.045</ele>
        <time>2016-05-05T18:37:22Z</time>
      </trkpt>
      <trkpt lat="42.62869" lon="1.47927">
        <ele>2282.476</ele>
        <time>2016-05-05T18:37:42Z</time>
      </trkpt>
      <trkpt lat="42.62853" lon="1.4791">
        <ele>2285.654</ele>
        <time>2016-05-05T18:38:02Z</time>
      </trkpt>
      <trkpt lat="42.62832" lon="1.47899">
        <ele>2289.122</ele>
        <time>2016-05-05T18:38:22Z</time>
      </trkpt>
      <trkpt lat="42.62813" lon="1.47884">
        <ele>2291.829</ele>
        <time>2016-05-05T18:38:42Z</time>
      </trkpt>
      <trkpt lat="42.62792" lon="1.47866">
        <ele>2295.1</ele>
        <time>2016-05-05T18:39:02Z</time>
      </trkpt>
      <trkpt lat="42.6277" lon="1.47853">
        <ele>2298.92</ele>
        <time>2016-05-05T18:39:22Z</time>
      </trkpt>
      <trkpt lat="42.62754" lon="1.47848">
        <ele>2302.208</ele>
        <time>2016-05-05T18:39:42Z</time>
      </trkpt>
      <trkpt lat="42.62733" lon="1.47844">
        <ele>2309.023</ele>
        <time>2016-05-05T18:40:02Z</time>
      </trkpt>
      <trkpt lat="42.62712" lon="1.47836">
        <ele>2316.235</ele>
        <time>2016-05-05T18:40:22Z</time>
      </trkpt>
      <trkpt lat="42.62694" lon="1.47832">
        <ele>2321.113</ele>
        <time>2016-05-05T18:40:42Z</time>
      </trkpt>
      <trkpt lat="42.62665" lon="1.47827">
        <ele>2327.031</ele>
        <time>2016-05-05T18:41:02Z</time>
      </trkpt>
      <trkpt lat="42.6262" lon="1.47851">
        <ele>2333.979</ele>
        <time>2016-05-05T18:41:22Z</time>
      </trkpt>
      <trkpt lat="42.6259" lon="1.47869">
        <ele>2339.29</ele>
        <time>2016-05-05T18:41:42Z</time>
      </trkpt>
      <trkpt lat="42.62556" lon="1.47887">
        <ele>2346.678</ele>
        <time>2016-05-05T18:42:02Z</time>
      </trkpt>
      <trkpt lat="42.62522" lon="1.47901">
        <ele>2349.586</ele>
        <time>2016-05-05T18:42:22Z</time>
      </trkpt>
      <trkpt lat="42.6249" lon="1.47905">
        <ele>2351.697</ele>
        <time>2016-05-05T18:42:42Z</time>
      </trkpt>
      <trkpt lat="42.624" lon="1.4791">
        <ele>2359.023</ele>
        <time>2016-05-05T18:43:02Z</time>
      </trkpt>
      <trkpt lat="42.62339" lon="1.47909">
        <ele>2360.925</ele>
        <time>2016-05-05T18:43:22Z</time>
      </trkpt>
      <trkpt lat="42.62284" lon="1.47896">
        <ele>2362.208</ele>
        <time>2016-05-05T18:43:42Z</time>
      </trkpt>
      <trkpt lat="42.62243" lon="1.4788">
        <ele>2361.97</ele>
        <time>2016-05-05T18:44:02Z</time>
      </trkpt>
      <trkpt lat="42.62196" lon="1.47862">
        <ele>2361.152</ele>
        <time>2016-05-05T18:44:22Z</time>
      </trkpt>
      <trkpt lat="42.62157" lon="1.4786">
        <ele>2365.83</ele>
        <time>2016-05-05T18:44:42Z</time>
      </trkpt>
      <trkpt lat="42.62127" lon="1.47853">
        <ele>2372.228</ele>
        <time>2016-05-05T18:45:02Z</time>
      </trkpt>
      <trkpt lat="42.62096" lon="1.47847">
        <ele>2382.066</ele>
        <time>2016-05-05T18:45:22Z</time>
      </trkpt>
      <trkpt lat="42.62071" lon="1.47839">
        <ele>2389.837</ele>
        <time>2016-05-05T18:45:42Z</time>
      </trkpt>
      <trkpt lat="42.62057" lon="1.47848">
        <ele>2393.195</ele>
        <time>2016-05-05T18:46:02Z</time>
      </trkpt>
      <trkpt lat="42.6205" lon="1.47869">
        <ele>2398.493</ele>
        <time>2016-05-05T18:46:22Z</time>
      </trkpt>
      <trkpt lat="42.62043" lon="1.4789">
        <ele>2403.082</ele>
        <time>2016-05-05T18:46:42Z</time>
      </trkpt>
      <trkpt lat="42.62039" lon="1.47909">
        <ele>2404.443</ele>
        <time>2016-05-05T18:47:02Z</time>
      </trkpt>
      <trkpt lat="42.62025" lon="1.47928">
        <ele>2407.217</ele>
        <time>2016-05-05T18:47:22Z</time>
      </trkpt>
      <trkpt lat="42.62017" lon="1.47956">
        <ele>2411.008</ele>
        <time>2016-05-05T18:47:42Z</time>
      </trkpt>
      <trkpt lat="42.61999" lon="1.47984">
        <ele>2414.589</ele>
        <time>2016-05-05T18:48:02Z</time>
      </trkpt>
      <trkpt lat="42.61984" lon="1.48003">
        <ele>2417.141</ele>
        <time>2016-05-05T18:48:22Z</time>
      </trkpt>
      <trkpt lat="42.61966" lon="1.48025">
        <ele>2421.739</ele>
        <time>2016-05-05T18:48:42Z</time>
      </trkpt>
      <trkpt lat="42.61951" lon="1.48049">
        <ele>2428.287</ele>
        <time>2016-05-05T18:49:02Z</time>
      </trkpt>
      <trkpt lat="42.6194" lon="1.48077">
        <ele>2436.165</ele>
        <time>2016-05-05T18:49:22Z</time>
      </trkpt>
      <trkpt lat="42.61927" lon="1.48104">
        <ele>2441.286</ele>
        <time>2016-05-05T18:49:42Z</time>
      </trkpt>
      <trkpt lat="42.61919" lon="1.48139">
        <ele>2445.734</ele>
        <time>2016-05-05T18:50:02Z</time>
      </trkpt>
      <trkpt lat="42.61909" lon="1.48162">
        <ele>2450.812</ele>
        <time>2016-05-05T18:50:22Z</time>
      </trkpt>
      <trkpt lat="42.61895" lon="1.48186">
        <ele>2457.938</ele>
        <time>2016-05-05T18:50:42Z</time>
      </trkpt>
      <trkpt lat="42.61876" lon="1.4821">
        <ele>2468.27</ele>
        <time>2016-05-05T18:51:02Z</time>
      </trkpt>
      <trkpt lat="42.61851" lon="1.48232">
        <ele>2475.817</ele>
        <time>2016-05-05T18:51:22Z</time>
      </trkpt>
      <trkpt lat="42.61825" lon="1.48216">
        <ele>2484.008</ele>
        <time>2016-05-05T18:51:42Z</time>
      </trkpt>
      <trkpt lat="42.61803" lon="1.48198">
        <ele>2491.464</ele>
        <time>2016-05-05T18:52:02Z</time>
      </trkpt>
      <trkpt lat="42.61765" lon="1.48221">
        <ele>2502.426</ele>
        <time>2016-05-05T18:52:22Z</time>
      </trkpt>
      <trkpt lat="42.61755" lon="1.48232">
        <ele>2506.584</ele>
        <time>2016-05-05T18:52:42Z</time>
      </trkpt>
      <trkpt lat="42.61737" lon="1.4825">
        <ele>2511.342</ele>
        <time>2016-05-05T18:53:02Z</time>
      </trkpt>
      <trkpt lat="42.61722" lon="1.48256">
        <ele>2515.79</ele>
        <time>2016-05-05T18:53:22Z</time>
      </trkpt>
      <trkpt lat="42.61702" lon="1.48254">
        <ele>2518.161</ele>
        <time>2016-05-05T18:53:42Z</time>
      </trkpt>
      <trkpt lat="42.6168" lon="1.48255">
        <ele>2522.239</ele>
        <time>2016-05-05T18:54:02Z</time>
      </trkpt>
      <trkpt lat="42.61656" lon="1.48245">
        <ele>2529.457</ele>
        <time>2016-05-05T18:54:22Z</time>
      </trkpt>
      <trkpt lat="42.61644" lon="1.48233">
        <ele>2534.782</ele>
        <time>2016-05-05T18:54:42Z</time>
      </trkpt>
      <trkpt lat="42.61631" lon="1.48213">
        <ele>2540.543</ele>
        <time>2016-05-05T18:55:02Z</time>
      </trkpt>
      <trkpt lat="42.61617" lon="1.48201">
        <ele>2546.517</ele>
        <time>2016-05-05T18:55:22Z</time>
      </trkpt>
      <trkpt lat="42.616" lon="1.482">
        <ele>2555.008</ele>
        <time>2016-05-05T18:55:42Z</time>
      </trkpt>
      <trkpt lat="42.61584" lon="1.48203">
        <ele>2563.999</ele>
        <time>2016-05-05T18:56:02Z</time>
      </trkpt>
      <trkpt lat="42.61567" lon="1.48198">
        <ele>2575.121</ele>
        <time>2016-05-05T18:56:22Z</time>
      </trkpt>
      <trkpt lat="42.61557" lon="1.4819">
        <ele>2581.889</ele>
        <time>2016-05-05T18:56:42Z</time>
      </trkpt>
      <trkpt lat="42.61528" lon="1.48171">
        <ele>2599.357</ele>
        <time>2016-05-05T18:57:02Z</time>
      </trkpt>
      <trkpt lat="42.61512" lon="1.48176">
        <ele>2610.675</ele>
        <time>2016-05-05T18:57:22Z</time>
      </trkpt>
      <trkpt lat="42.61502" lon="1.4818">
        <ele>2618.246</ele>
        <time>2016-05-05T18:57:42Z</time>
      </trkpt>
      <trkpt lat="42.61486" lon="1.48186">
        <ele>2628.844</ele>
        <time>2016-05-05T18:58:02Z</time>
      </trkpt>
      <trkpt lat="42.61467" lon="1.48184">
        <ele>2640.522</ele>
        <time>2016-05-05T18:58:22Z</time>
      </trkpt>
      <trkpt lat="42.61459" lon="1.48195">
        <ele>2647.458</ele>
        <time>2016-05-05T18:58:42Z</time>
      </trkpt>
      <trkpt lat="42.61452" lon="1.48212">
        <ele>2655.852</ele>
        <time>2016-05-05T18:59:02Z</time>
      </trkpt>
      <trkpt lat="42.61446" lon="1.48228">
        <ele>2663.217</ele>
        <time>2016-05-05T18:59:22Z</time>
      </trkpt>
      <trkpt lat="42.61443" lon="1.48242">
        <ele>2668.108</ele>
        <time>2016-05-05T18:59:42Z</time>
      </trkpt>
      <trkpt lat="42.61432" lon="1.48262">
        <ele>2678.446</ele>
        <time>2016-05-05T19:00:02Z</time>
      </trkpt>
      <trkpt lat="42.61418" lon="1.48253">
        <ele>2685.128</ele>
        <time>2016-05-05T19:00:22Z</time>
      </trkpt>
      <trkpt lat="42.61396" lon="1.48245">
        <ele>2694.776</ele>
        <time>2016-05-05T19:00:42Z</time>
      </trkpt>
      <trkpt lat="42.61383" lon="1.48231">
        <ele>2701.494</ele>
        <time>2016-05-05T19:01:02Z</time>
      </trkpt>
      <trkpt lat="42.61373" lon="1.4821">
        <ele>2706.922</ele>
        <time>2016-05-05T19:01:22Z</time>
      </trkpt>
      <trkpt lat="42.61363" lon="1.48184">
        <ele>2714.443</ele>
        <time>2016-05-05T19:01:42Z</time>
      </trkpt>
      <trkpt lat="42.61357" lon="1.4816">
        <ele>2715.451</ele>
        <time>2016-05-05T19:02:02Z</time>
      </trkpt>
      <trkpt lat="42.61355" lon="1.48141">
        <ele>2714.799</ele>
        <time>2016-05-05T19:02:22Z</time>
      </trkpt>
      <trkpt lat="42.61344" lon="1.4812">
        <ele>2710.395</ele>
        <time>2016-05-05T19:02:42Z</time>
      </trkpt>
      <trkpt lat="42.61328" lon="1.48119">
        <ele>2705.349</ele>
        <time>2016-05-05T19:03:02Z</time>
      </trkpt>
      <trkpt lat="42.6131" lon="1.48124">
        <ele>2697.323</ele>
        <time>2016-05-05T19:03:22Z</time>
      </trkpt>
      <trkpt lat="42.61293" lon="1.48095">
        <ele>2680.408</ele>
        <time>2016-05-05T19:03:42Z</time>
      </trkpt>
      <trkpt lat="42.61277" lon="1.48085">
        <ele>2669.18</ele>
        <time>2016-05-05T19:04:02Z</time>
      </trkpt>
      <trkpt lat="42.61256" lon="1.48072">
        <ele>2654.722</ele>
        <time>2016-05-05T19:04:22Z</time>
      </trkpt>
      <trkpt lat="42.61233" lon="1.48069">
        <ele>2640.69</ele>
        <time>2016-05-05T19:04:42Z</time>
      </trkpt>
      <trkpt lat="42.61226" lon="1.48051">
        <ele>2633.258</ele>
        <time>2016-05-05T19:05:02Z</time>
      </trkpt>
      <trkpt lat="42.61216" lon="1.48028">
        <ele>2623.476</ele>
        <time>2016-05-05T19:05:22Z</time>
      </trkpt>
      <trkpt lat="42.61193" lon="1.48003">
        <ele>2607.587</ele>
        <time>2016-05-05T19:05:42Z</time>
      </trkpt>
      <trkpt lat="42.6116" lon="1.47995">
        <ele>2586.635</ele>
        <time>2016-05-05T19:06:02Z</time>
      </trkpt>
      <trkpt lat="42.61141" lon="1.48002">
        <ele>2577.143</ele>
        <time>2016-05-05T19:06:22Z</time>
      </trkpt>
      <trkpt lat="42.61129" lon="1.48024">
        <ele>2564.162</ele>
        <time>2016-05-05T19:06:42Z</time>
      </trkpt>
      <trkpt lat="42.61122" lon="1.48057">
        <ele>2557.583</ele>
        <time>2016-05-05T19:07:02Z</time>
      </trkpt>
      <trkpt lat="42.61089" lon="1.48093">
        <ele>2534.011</ele>
        <time>2016-05-05T19:07:22Z</time>
      </trkpt>
      <trkpt lat="42.61075" lon="1.48126">
        <ele>2526.908</ele>
        <time>2016-05-05T19:07:42Z</time>
      </trkpt>
      <trkpt lat="42.61068" lon="1.48152">
        <ele>2525.857</ele>
        <time>2016-05-05T19:08:02Z</time>
      </trkpt>
      <trkpt lat="42.61057" lon="1.48176">
        <ele>2520.359</ele>
        <time>2016-05-05T19:08:22Z</time>
      </trkpt>
      <trkpt lat="42.61046" lon="1.48198">
        <ele>2515.697</ele>
        <time>2016-05-05T19:08:42Z</time>
      </trkpt>
      <trkpt lat="42.61035" lon="1.48216">
        <ele>2508.135</ele>
        <time>2016-05-05T19:09:02Z</time>
      </trkpt>
      <trkpt lat="42.61019" lon="1.48201">
        <ele>2497.013</ele>
        <time>2016-05-05T19:09:22Z</time>
      </trkpt>
      <trkpt lat="42.61005" lon="1.4822">
        <ele>2488.834</ele>
        <time>2016-05-05T19:09:42Z</time>
      </trkpt>
      <trkpt lat="42.60989" lon="1.48222">
        <ele>2481.192</ele>
        <time>2016-05-05T19:10:02Z</time>
      </trkpt>
      <trkpt lat="42.60979" lon="1.48194">
        <ele>2473.63</ele>
        <time>2016-05-05T19:10:22Z</time>
      </trkpt>
      <trkpt lat="42.60967" lon="1.48158">
        <ele>2461.925</ele>
        <time>2016-05-05T19:10:42Z</time>
      </trkpt>
      <trkpt lat="42.60957" lon="1.48133">
        <ele>2454.426</ele>
        <time>2016-05-05T19:11:02Z</time>
      </trkpt>
      <trkpt lat="42.6094" lon="1.48141">
        <ele>2448.208</ele>
        <time>2016-05-05T19:11:22Z</time>
      </trkpt>
      <trkpt lat="42.60924" lon="1.48163">
        <ele>2443.708</ele>
        <time>2016-05-05T19:11:42Z</time>
      </trkpt>
      <trkpt lat="42.60903" lon="1.48173">
        <ele>2438.963</ele>
        <time>2016-05-05T19:12:02Z</time>
      </trkpt>
      <trkpt lat="42.60896" lon="1.48187">
        <ele>2438.165</ele>
        <time>2016-05-05T19:12:22Z</time>
      </trkpt>
      <trkpt lat="42.60902" lon="1.48204">
        <ele>2439.573</ele>
        <time>2016-05-05T19:12:42Z</time>
      </trkpt>
      <trkpt lat="42.60888" lon="1.482">
        <ele>2435.791</ele>
        <time>2016-05-05T19:13:02Z</time>
      </trkpt>
      <trkpt lat="42.60878" lon="1.4823">
        <ele>2434.929</ele>
        <time>2016-05-05T19:13:22Z</time>
      </trkpt>
      <trkpt lat="42.60891" lon="1.48237">
        <ele>2430.28</ele>
        <time>2016-05-05T19:13:42Z</time>
      </trkpt>
      <trkpt lat="42.60898" lon="1.48247">
        <ele>2431.248</ele>
        <time>2016-05-05T19:14:02Z</time>
      </trkpt>
      <trkpt lat="42.60899" lon="1.48269">
        <ele>2421.596</ele>
        <time>2016-05-05T19:14:22Z</time>
      </trkpt>
      <trkpt lat="42.60904" lon="1.48281">
        <ele>2416.117</ele>
        <time>2016-05-05T19:14:42Z</time>
      </trkpt>
      <trkpt lat="42.60909" lon="1.48298">
        <ele>2407.887</ele>
        <time>2016-05-05T19:15:02Z</time>
      </trkpt>
      <trkpt lat="42.60897" lon="1.48321">
        <ele>2397.615</ele>
        <time>2016-05-05T19:15:22Z</time>
      </trkpt>
      <trkpt lat="42.60895" lon="1.48347">
        <ele>2389.108</ele>
        <time>2016-05-05T19:15:42Z</time>
      </trkpt>
      <trkpt lat="42.60895" lon="1.48372">
        <ele>2383.712</ele>
        <time>2016-05-05T19:16:02Z</time>
      </trkpt>
      <trkpt lat="42.60892" lon="1.48392">
        <ele>2379.374</ele>
        <time>2016-05-05T19:16:22Z</time>
      </trkpt>
      <trkpt lat="42.60895" lon="1.48412">
        <ele>2375.632</ele>
        <time>2016-05-05T19:16:42Z</time>
      </trkpt>
      <trkpt lat="42.6089" lon="1.4845">
        <ele>2367.03</ele>
        <time>2016-05-05T19:17:02Z</time>
      </trkpt>
      <trkpt lat="42.60878" lon="1.48471">
        <ele>2362.398</ele>
        <time>2016-05-05T19:17:22Z</time>
      </trkpt>
      <trkpt lat="42.60866" lon="1.48482">
        <ele>2358.689</ele>
        <time>2016-05-05T19:17:42Z</time>
      </trkpt>
      <trkpt lat="42.60856" lon="1.48493">
        <ele>2355.657</ele>
        <time>2016-05-05T19:18:02Z</time>
      </trkpt>
      <trkpt lat="42.60851" lon="1.48517">
        <ele>2353.665</ele>
        <time>2016-05-05T19:18:22Z</time>
      </trkpt>
      <trkpt lat="42.60844" lon="1.48537">
        <ele>2352.348</ele>
        <time>2016-05-05T19:18:42Z</time>
      </trkpt>
      <trkpt lat="42.60833" lon="1.48564">
        <ele>2351.661</ele>
        <time>2016-05-05T19:19:02Z</time>
      </trkpt>
      <trkpt lat="42.60825" lon="1.48583">
        <ele>2352.117</ele>
        <time>2016-05-05T19:19:22Z</time>
      </trkpt>
      <trkpt lat="42.6082" lon="1.48603">
        <ele>2352.608</ele>
        <time>2016-05-05T19:19:42Z</time>
      </trkpt>
      <trkpt lat="42.60811" lon="1.48618">
        <ele>2352.055</ele>
        <time>2016-05-05T19:20:02Z</time>
      </trkpt>
      <trkpt lat="42.60805" lon="1.48637">
        <ele>2351.847</ele>
        <time>2016-05-05T19:20:22Z</time>
      </trkpt>
      <trkpt lat="42.60798" lon="1.48663">
        <ele>2352.155</ele>
        <time>2016-05-05T19:20:42Z</time>
      </trkpt>
      <trkpt lat="42.60786" lon="1.48683">
        <ele>2351.253</ele>
        <time>2016-05-05T19:21:02Z</time>
      </trkpt>
      <trkpt lat="42.60782" lon="1.48697">
        <ele>2350.871</ele>
        <time>2016-05-05T19:21:22Z</time>
      </trkpt>
      <trkpt lat="42.60753" lon="1.48709">
        <ele>2350.552</ele>
        <time>2016-05-05T19:21:42Z</time>
      </trkpt>
      <trkpt lat="42.60737" lon="1.48712">
        <ele>2350.33</ele>
        <time>2016-05-05T19:22:02Z</time>
      </trkpt>
      <trkpt lat="42.60723" lon="1.4872">
        <ele>2350.088</ele>
        <time>2016-05-05T19:22:22Z</time>
      </trkpt>
      <trkpt lat="42.60705" lon="1.48717">
        <ele>2350.036</ele>
        <time>2016-05-05T19:22:42Z</time>
      </trkpt>
      <trkpt lat="42.6068" lon="1.48729">
        <ele>2348.517</ele>
        <time>2016-05-05T19:23:02Z</time>
      </trkpt>
      <trkpt lat="42.60674" lon="1.48767">
        <ele>2347.918</ele>
        <time>2016-05-05T19:23:22Z</time>
      </trkpt>
      <trkpt lat="42.60668" lon="1.48783">
        <ele>2346.408</ele>
        <time>2016-05-05T19:23:42Z</time>
      </trkpt>
      <trkpt lat="42.60662" lon="1.48799">
        <ele>2341.774</ele>
        <time>2016-05-05T19:24:02Z</time>
      </trkpt>
      <trkpt lat="42.60661" lon="1.4882">
        <ele>2338.216</ele>
        <time>2016-05-05T19:24:22Z</time>
      </trkpt>
      <trkpt lat="42.60655" lon="1.48845">
        <ele>2333.014</ele>
        <time>2016-05-05T19:24:42Z</time>
      </trkpt>
      <trkpt lat="42.60648" lon="1.48866">
        <ele>2328.782</ele>
        <time>2016-05-05T19:25:02Z</time>
      </trkpt>
      <trkpt lat="42.60646" lon="1.48884">
        <ele>2326.13</ele>
        <time>2016-05-05T19:25:22Z</time>
      </trkpt>
      <trkpt lat="42.60642" lon="1.48904">
        <ele>2321.621</ele>
        <time>2016-05-05T19:25:42Z</time>
      </trkpt>
      <trkpt lat="42.60642" lon="1.48923">
        <ele>2317.429</ele>
        <time>2016-05-05T19:26:02Z</time>
      </trkpt>
      <trkpt lat="42.60635" lon="1.48939">
        <ele>2312.247</ele>
        <time>2016-05-05T19:26:22Z</time>
      </trkpt>
      <trkpt lat="42.60628" lon="1.48946">
        <ele>2308.963</ele>
        <time>2016-05-05T19:26:42Z</time>
      </trkpt>
      <trkpt lat="42.60625" lon="1.48967">
        <ele>2304.444</ele>
        <time>2016-05-05T19:27:02Z</time>
      </trkpt>
      <trkpt lat="42.60624" lon="1.48984">
        <ele>2301.818</ele>
        <time>2016-05-05T19:27:22Z</time>
      </trkpt>
      <trkpt lat="42.60622" lon="1.48998">
        <ele>2299.508</ele>
        <time>2016-05-05T19:27:42Z</time>
      </trkpt>
      <trkpt lat="42.60612" lon="1.49007">
        <ele>2297.597</ele>
        <time>2016-05-05T19:28:02Z</time>
      </trkpt>
      <trkpt lat="42.60605" lon="1.49025">
        <ele>2296.879</ele>
        <time>2016-05-05T19:28:22Z</time>
      </trkpt>
      <trkpt lat="42.60598" lon="1.49038">
        <ele>2297.647</ele>
        <time>2016-05-05T19:28:42Z</time>
      </trkpt>
      <trkpt lat="42.60592" lon="1.49049">
        <ele>2298.625</ele>
        <time>2016-05-05T19:29:02Z</time>
      </trkpt>
      <trkpt lat="42.60585" lon="1.49058">
        <ele>2300.243</ele>
        <time>2016-05-05T19:29:22Z</time>
      </trkpt>
      <trkpt lat="42.60575" lon="1.49068">
        <ele>2301.824</ele>
        <time>2016-05-05T19:29:42Z</time>
      </trkpt>
      <trkpt lat="42.6057" lon="1.49083">
        <ele>2303.982</ele>
        <time>2016-05-05T19:30:02Z</time>
      </trkpt>
      <trkpt lat="42.60569" lon="1.49102">
        <ele>2305.35</ele>
        <time>2016-05-05T19:30:22Z</time>
      </trkpt>
      <trkpt lat="42.60567" lon="1.49118">
        <ele>2306.235</ele>
        <time>2016-05-05T19:30:42Z</time>
      </trkpt>
      <trkpt lat="42.60568" lon="1.4913">
        <ele>2306.786</ele>
        <time>2016-05-05T19:31:02Z</time>
      </trkpt>
      <trkpt lat="42.60568" lon="1.49133">
        <ele>2306.814</ele>
        <time>2016-05-05T19:31:22Z</time>
      </trkpt>
      <trkpt lat="42.6057" lon="1.49138">
        <ele>2307.008</ele>
        <time>2016-05-05T19:31:42Z</time>
      </trkpt>
      <trkpt lat="42.60568" lon="1.49141">
        <ele>2307.114</ele>
        <time>2016-05-05T19:32:02Z</time>
      </trkpt>
      <trkpt lat="42.60564" lon="1.49144">
        <ele>2307.326</ele>
        <time>2016-05-05T19:32:22Z</time>
      </trkpt>
      <trkpt lat="42.6056" lon="1.49145">
        <ele>2307.464</ele>
        <time>2016-05-05T19:32:42Z</time>
      </trkpt>
      <trkpt lat="42.60555" lon="1.49148">
        <ele>2307.762</ele>
        <time>2016-05-05T19:33:02Z</time>
      </trkpt>
      <trkpt lat="42.60551" lon="1.4915">
        <ele>2308.62</ele>
        <time>2016-05-05T19:33:22Z</time>
      </trkpt>
      <trkpt lat="42.60548" lon="1.49152">
        <ele>2309.321</ele>
        <time>2016-05-05T19:33:42Z</time>
      </trkpt>
      <trkpt lat="42.60544" lon="1.49155">
        <ele>2310.479</ele>
        <time>2016-05-05T19:34:02Z</time>
      </trkpt>
      <trkpt lat="42.60541" lon="1.49156">
        <ele>2310.997</ele>
        <time>2016-05-05T19:34:22Z</time>
      </trkpt>
      <trkpt lat="42.60538" lon="1.49157">
        <ele>2311.643</ele>
        <time>2016-05-05T19:34:42Z</time>
      </trkpt>
      <trkpt lat="42.60537" lon="1.4916">
        <ele>2312.264</ele>
        <time>2016-05-05T19:35:02Z</time>
      </trkpt>
      <trkpt lat="42.60535" lon="1.49163">
        <ele>2313.11</ele>
        <time>2016-05-05T19:35:22Z</time>
      </trkpt>
      <trkpt lat="42.60532" lon="1.49159">
        <ele>2313.108</ele>
        <time>2016-05-05T19:35:42Z</time>
      </trkpt>
      <trkpt lat="42.60529" lon="1.49156">
        <ele>2313.255</ele>
        <time>2016-05-05T19:36:02Z</time>
      </trkpt>
      <trkpt lat="42.60528" lon="1.49153">
        <ele>2313.167</ele>
        <time>2016-05-05T19:36:22Z</time>
      </trkpt>
      <trkpt lat="42.60524" lon="1.4915">
        <ele>2314.055</ele>
        <time>2016-05-05T19:36:42Z</time>
      </trkpt>
      <trkpt lat="42.60522" lon="1.49148">
        <ele>2314.853</ele>
        <time>2016-05-05T19:37:02Z</time>
      </trkpt>
      <trkpt lat="42.60517" lon="1.49148">
        <ele>2316.621</ele>
        <time>2016-05-05T19:37:22Z</time>
      </trkpt>
      <trkpt lat="42.60514" lon="1.49148">
        <ele>2317.712</ele>
        <time>2016-05-05T19:37:42Z</time>
      </trkpt>
      <trkpt lat="42.60511" lon="1.49145">
        <ele>2318.56</ele>
        <time>2016-05-05T19:38:02Z</time>
      </trkpt>
      <trkpt lat="42.60509" lon="1.49142">
        <ele>2319.018</ele>
        <time>2016-05-05T19:38:22Z</time>
      </trkpt>
      <trkpt lat="42.60508" lon="1.4914">
        <ele>2319.172</ele>
        <time>2016-05-05T19:38:42Z</time>
      </trkpt>
      <trkpt lat="42.60505" lon="1.49138">
        <ele>2319.613</ele>
        <time>2016-05-05T19:39:02Z</time>
      </trkpt>
      <trkpt lat="42.60502" lon="1.49136">
        <ele>2320.514</ele>
        <time>2016-05-05T19:39:22Z</time>
      </trkpt>
      <trkpt lat="42.60499" lon="1.49136">
        <ele>2321.908</ele>
        <time>2016-05-05T19:39:42Z</time>
      </trkpt>
      <trkpt lat="42.60494" lon="1.49134">
        <ele>2323.968</ele>
        <time>2016-05-05T19:40:02Z</time>
      </trkpt>
      <trkpt lat="42.60491" lon="1.49134">
        <ele>2325.71</ele>
        <time>2016-05-05T19:40:22Z</time>
      </trkpt>
      <trkpt lat="42.60488" lon="1.49134">
        <ele>2327.018</ele>
        <time>2016-05-05T19:40:42Z</time>
      </trkpt>
      <trkpt lat="42.60485" lon="1.49137">
        <ele>2329.286</ele>
        <time>2016-05-05T19:41:02Z</time>
      </trkpt>
      <trkpt lat="42.60482" lon="1.49141">
        <ele>2331.384</ele>
        <time>2016-05-05T19:41:22Z</time>
      </trkpt>
      <trkpt lat="42.6048" lon="1.49145">
        <ele>2333.535</ele>
        <time>2016-05-05T19:41:42Z</time>
      </trkpt>
      <trkpt lat="42.60478" lon="1.49148">
        <ele>2335.493</ele>
        <time>2016-05-05T19:42:02Z</time>
      </trkpt>
      <trkpt lat="42.60474" lon="1.49149">
        <ele>2337.831</ele>
        <time>2016-05-05T19:42:22Z</time>
      </trkpt>
      <trkpt lat="42.60469" lon="1.49148">
        <ele>2340.284</ele>
        <time>2016-05-05T19:42:42Z</time>
      </trkpt>
      <trkpt lat="42.60466" lon="1.49148">
        <ele>2341.307</ele>
        <time>2016-05-05T19:43:02Z</time>
      </trkpt>
      <trkpt lat="42.60462" lon="1.49146">
        <ele>2342.817</ele>
        <time>2016-05-05T19:43:22Z</time>
      </trkpt>
      <trkpt lat="42.60459" lon="1.49144">
        <ele>2343.708</ele>
        <time>2016-05-05T19:43:42Z</time>
      </trkpt>
      <trkpt lat="42.60455" lon="1.49142">
        <ele>2345.099</ele>
        <time>2016-05-05T19:44:02Z</time>
      </trkpt>
      <trkpt lat="42.60452" lon="1.49142">
        <ele>2346.521</ele>
        <time>2016-05-05T19:44:22Z</time>
      </trkpt>
      <trkpt lat="42.60448" lon="1.49142">
        <ele>2348.049</ele>
        <time>2016-05-05T19:44:42Z</time>
      </trkpt>
      <trkpt lat="42.60445" lon="1.49141">
        <ele>2349.567</ele>
        <time>2016-05-05T19:45:02Z</time>
      </trkpt>
      <trkpt lat="42.60442" lon="1.4914">
        <ele>2350.535</ele>
        <time>2016-05-05T19:45:22Z</time>
      </trkpt>
      <trkpt lat="42.6044" lon="1.49138">
        <ele>2351.046</ele>
        <time>2016-05-05T19:45:42Z</time>
      </trkpt>
      <trkpt lat="42.60437" lon="1.49137">
        <ele>2352.044</ele>
        <time>2016-05-05T19:46:02Z</time>
      </trkpt>
      <trkpt lat="42.60434" lon="1.49135">
        <ele>2353.112</ele>
        <time>2016-05-05T19:46:22Z</time>
      </trkpt>
      <trkpt lat="42.60432" lon="1.49133">
        <ele>2353.845</ele>
        <time>2016-05-05T19:46:42Z</time>
      </trkpt>
      <trkpt lat="42.60432" lon="1.49131">
        <ele>2354.047</ele>
        <time>2016-05-05T19:47:02Z</time>
      </trkpt>
      <trkpt lat="42.6043" lon="1.49129">
        <ele>2354.611</ele>
        <time>2016-05-05T19:47:22Z</time>
      </trkpt>
      <trkpt lat="42.60429" lon="1.49128">
        <ele>2355.008</ele>
        <time>2016-05-05T19:47:42Z</time>
      </trkpt>
      <trkpt lat="42.60429" lon="1.49125">
        <ele>2354.975</ele>
        <time>2016-05-05T19:48:02Z</time>
      </trkpt>
      <trkpt lat="42.60428" lon="1.49122">
        <ele>2354.947</ele>
        <time>2016-05-05T19:48:22Z</time>
      </trkpt>
      <trkpt lat="42.60428" lon="1.49118">
        <ele>2354.755</ele>
        <time>2016-05-05T19:48:42Z</time>
      </trkpt>
      <trkpt lat="42.60426" lon="1.49112">
        <ele>2355.483</ele>
        <time>2016-05-05T19:49:02Z</time>
      </trkpt>
      <trkpt lat="42.60424" lon="1.4911">
        <ele>2356.131</ele>
        <time>2016-05-05T19:49:22Z</time>
      </trkpt>
      <trkpt lat="42.60423" lon="1.49106">
        <ele>2356.762</ele>
        <time>2016-05-05T19:49:42Z</time>
      </trkpt>
      <trkpt lat="42.60421" lon="1.49104">
        <ele>2357.58</ele>
        <time>2016-05-05T19:50:02Z</time>
      </trkpt>
      <trkpt lat="42.60419" lon="1.49102">
        <ele>2358.558</ele>
        <time>2016-05-05T19:50:22Z</time>
      </trkpt>
      <trkpt lat="42.60417" lon="1.49099">
        <ele>2359.511</ele>
        <time>2016-05-05T19:50:42Z</time>
      </trkpt>
      <trkpt lat="42.60415" lon="1.49097">
        <ele>2360.521</ele>
        <time>2016-05-05T19:51:02Z</time>
      </trkpt>
      <trkpt lat="42.60413" lon="1.49094">
        <ele>2361.303</ele>
        <time>2016-05-05T19:51:22Z</time>
      </trkpt>
      <trkpt lat="42.60411" lon="1.49092">
        <ele>2362.308</ele>
        <time>2016-05-05T19:51:42Z</time>
      </trkpt>
      <trkpt lat="42.60408" lon="1.49088">
        <ele>2363.342</ele>
        <time>2016-05-05T19:52:02Z</time>
      </trkpt>
      <trkpt lat="42.60406" lon="1.49087">
        <ele>2364.394</ele>
        <time>2016-05-05T19:52:22Z</time>
      </trkpt>
      <trkpt lat="42.60403" lon="1.49083">
        <ele>2365.442</ele>
        <time>2016-05-05T19:52:42Z</time>
      </trkpt>
      <trkpt lat="42.60402" lon="1.49082">
        <ele>2365.63</ele>
        <time>2016-05-05T19:53:02Z</time>
      </trkpt>
      <trkpt lat="42.604" lon="1.49078">
        <ele>2366.198</ele>
        <time>2016-05-05T19:53:22Z</time>
      </trkpt>
      <trkpt lat="42.60398" lon="1.49076">
        <ele>2366.569</ele>
        <time>2016-05-05T19:53:42Z</time>
      </trkpt>
      <trkpt lat="42.60396" lon="1.49073">
        <ele>2366.847</ele>
        <time>2016-05-05T19:54:02Z</time>
      </trkpt>
      <trkpt lat="42.60394" lon="1.4907">
        <ele>2366.955</ele>
        <time>2016-05-05T19:54:22Z</time>
      </trkpt>
      <trkpt lat="42.60392" lon="1.49067">
        <ele>2367.127</ele>
        <time>2016-05-05T19:54:42Z</time>
      </trkpt>
      <trkpt lat="42.60391" lon="1.49064">
        <ele>2367.368</ele>
        <time>2016-05-05T19:55:02Z</time>
      </trkpt>
      <trkpt lat="42.60388" lon="1.49061">
        <ele>2367.414</ele>
        <time>2016-05-05T19:55:22Z</time>
      </trkpt>
      <trkpt lat="42.60386" lon="1.4906">
        <ele>2367.908</ele>
        <time>2016-05-05T19:55:42Z</time>
      </trkpt>
      <trkpt lat="42.60384" lon="1.49058">
        <ele>2368.643</ele>
        <time>2016-05-05T19:56:02Z</time>
      </trkpt>
      <trkpt lat="42.60381" lon="1.49056">
        <ele>2369.395</ele>
        <time>2016-05-05T19:56:22Z</time>
      </trkpt>
      <trkpt lat="42.60379" lon="1.49055">
        <ele>2369.913</ele>
        <time>2016-05-05T19:56:42Z</time>
      </trkpt>
      <trkpt lat="42.60376" lon="1.49054">
        <ele>2370.891</ele>
        <time>2016-05-05T19:57:02Z</time>
      </trkpt>
      <trkpt lat="42.60374" lon="1.49053">
        <ele>2371.659</ele>
        <time>2016-05-05T19:57:22Z</time>
      </trkpt>
      <trkpt lat="42.60372" lon="1.49052">
        <ele>2372.06</ele>
        <time>2016-05-05T19:57:42Z</time>
      </trkpt>
      <trkpt lat="42.60369" lon="1.4905">
        <ele>2372.858</ele>
        <time>2016-05-05T19:58:02Z</time>
      </trkpt>
      <trkpt lat="42.60367" lon="1.49048">
        <ele>2373.696</ele>
        <time>2016-05-05T19:58:22Z</time>
      </trkpt>
      <trkpt lat="42.60364" lon="1.49047">
        <ele>2374.487</ele>
        <time>2016-05-05T19:58:42Z</time>
      </trkpt>
      <trkpt lat="42.60361" lon="1.49045">
        <ele>2375.342</ele>
        <time>2016-05-05T19:59:02Z</time>
      </trkpt>
      <trkpt lat="42.60357" lon="1.49043">
        <ele>2376.126</ele>
        <time>2016-05-05T19:59:22Z</time>
      </trkpt>
      <trkpt lat="42.60354" lon="1.49042">
        <ele>2376.808</ele>
        <time>2016-05-05T19:59:42Z</time>
      </trkpt>
      <trkpt lat="42.60351" lon="1.4904">
        <ele>2377.299</ele>
        <time>2016-05-05T20:00:02Z</time>
      </trkpt>
      <trkpt lat="42.60349" lon="1.49038">
        <ele>2377.711</ele>
        <time>2016-05-05T20:00:22Z</time>
      </trkpt>
      <trkpt lat="42.60346" lon="1.49036">
        <ele>2378.549</ele>
        <time>2016-05-05T20:00:42Z</time>
      </trkpt>
      <trkpt lat="42.60342" lon="1.49034">
        <ele>2379.537</ele>
        <time>2016-05-05T20:01:02Z</time>
      </trkpt>
      <trkpt lat="42.60339" lon="1.49032">
        <ele>2380.385</ele>
        <time>2016-05-05T20:01:22Z</time>
      </trkpt>
      <trkpt lat="42.60336" lon="1.49029">
        <ele>2381.026</ele>
        <time>2016-05-05T20:01:42Z</time>
      </trkpt>
      <trkpt lat="42.60334" lon="1.49025">
        <ele>2381.694</ele>
        <time>2016-05-05T20:02:02Z</time>
      </trkpt>
      <trkpt lat="42.60331" lon="1.49019">
        <ele>2381.722</ele>
        <time>2016-05-05T20:02:22Z</time>
      </trkpt>
      <trkpt lat="42.60329" lon="1.49015">
        <ele>2381.823</ele>
        <time>2016-05-05T20:02:42Z</time>
      </trkpt>
      <trkpt lat="42.60327" lon="1.49007">
        <ele>2381.883</ele>
        <time>2016-05-05T20:03:02Z</time>
      </trkpt>
      <trkpt lat="42.60325" lon="1.49001">
        <ele>2381.811</ele>
        <time>2016-05-05T20:03:22Z</time>
      </trkpt>
      <trkpt lat="42.60323" lon="1.48996">
        <ele>2382.608</ele>
        <time>2016-05-05T20:03:42Z</time>
      </trkpt>
      <trkpt lat="42.6032" lon="1.48994">
        <ele>2383.313</ele>
        <time>2016-05-05T20:04:02Z</time>
      </trkpt>
      <trkpt lat="42.60316" lon="1.48995">
        <ele>2384.175</ele>
        <time>2016-05-05T20:04:22Z</time>
      </trkpt>
      <trkpt lat="42.60313" lon="1.48995">
        <ele>2385.033</ele>
        <time>2016-05-05T20:04:42Z</time>
      </trkpt>
      <trkpt lat="42.60309" lon="1.48996">
        <ele>2385.711</ele>
        <time>2016-05-05T20:05:02Z</time>
      </trkpt>
      <trkpt lat="42.60305" lon="1.48996">
        <ele>2386.559</ele>
        <time>2016-05-05T20:05:22Z</time>
      </trkpt>
      <trkpt lat="42.60301" lon="1.48997">
        <ele>2387.44</ele>
        <time>2016-05-05T20:05:42Z</time>
      </trkpt>
      <trkpt lat="42.60297" lon="1.48999">
        <ele>2387.918</ele>
        <time>2016-05-05T20:06:02Z</time>
      </trkpt>
      <trkpt lat="42.60293" lon="1.49003">
        <ele>2388.696</ele>
        <time>2016-05-05T20:06:22Z</time>
      </trkpt>
      <trkpt lat="42.60291" lon="1.49003">
        <ele>2389.097</ele>
        <time>2016-05-05T20:06:42Z</time>
      </trkpt>
      <trkpt lat="42.60288" lon="1.49005">
        <ele>2389.423</ele>
        <time>2016-05-05T20:07:02Z</time>
      </trkpt>
      <trkpt lat="42.60286" lon="1.49006">
        <ele>2389.925</ele>
        <time>2016-05-05T20:07:22Z</time>
      </trkpt>
      <trkpt lat="42.60281" lon="1.49007">
        <ele>2390.808</ele>
        <time>2016-05-05T20:07:42Z</time>
      </trkpt>
      <trkpt lat="42.60279" lon="1.49009">
        <ele>2391.26</ele>
        <time>2016-05-05T20:08:02Z</time>
      </trkpt>
      <trkpt lat="42.60275" lon="1.4901">
        <ele>2391.792</ele>
        <time>2016-05-05T20:08:22Z</time>
      </trkpt>
      <trkpt lat="42.60272" lon="1.49012">
        <ele>2392.14</ele>
        <time>2016-05-05T20:08:42Z</time>
      </trkpt>
      <trkpt lat="42.60269" lon="1.49012">
        <ele>2392.658</ele>
        <time>2016-05-05T20:09:02Z</time>
      </trkpt>
      <trkpt lat="42.60264" lon="1.49011">
        <ele>2393.356</ele>
        <time>2016-05-05T20:09:22Z</time>
      </trkpt>
      <trkpt lat="42.6026" lon="1.49012">
        <ele>2394.057</ele>
        <time>2016-05-05T20:09:42Z</time>
      </trkpt>
      <trkpt lat="42.60257" lon="1.49014">
        <ele>2394.475</ele>
        <time>2016-05-05T20:10:02Z</time>
      </trkpt>
      <trkpt lat="42.60253" lon="1.49015">
        <ele>2394.953</ele>
        <time>2016-05-05T20:10:22Z</time>
      </trkpt>
      <trkpt lat="42.60251" lon="1.49017">
        <ele>2395.368</ele>
        <time>2016-05-05T20:10:42Z</time>
      </trkpt>
      <trkpt lat="42.60249" lon="1.49022">
        <ele>2395.442</ele>
        <time>2016-05-05T20:11:02Z</time>
      </trkpt>
      <trkpt lat="42.60248" lon="1.49026">
        <ele>2395.426</ele>
        <time>2016-05-05T20:11:22Z</time>
      </trkpt>
      <trkpt lat="42.60245" lon="1.49029">
        <ele>2395.708</ele>
        <time>2016-05-05T20:11:42Z</time>
      </trkpt>
      <trkpt lat="42.60242" lon="1.49032">
        <ele>2396.167</ele>
        <time>2016-05-05T20:12:02Z</time>
      </trkpt>
      <trkpt lat="42.6024" lon="1.49034">
        <ele>2396.399</ele>
        <time>2016-05-05T20:12:22Z</time>
      </trkpt>
      <trkpt lat="42.60237" lon="1.49037">
        <ele>2396.677</ele>
        <time>2016-05-05T20:12:42Z</time>
      </trkpt>
      <trkpt lat="42.60232" lon="1.49038">
        <ele>2397.125</ele>
        <time>2016-05-05T20:13:02Z</time>
      </trkpt>
      <trkpt lat="42.60228" lon="1.4904">
        <ele>2397.563</ele>
        <time>2016-05-05T20:13:22Z</time>
      </trkpt>
      <trkpt lat="42.60222" lon="1.49043">
        <ele>2397.954</ele>
        <time>2016-05-05T20:13:42Z</time>
      </trkpt>
      <trkpt lat="42.60218" lon="1.49045">
        <ele>2398.712</ele>
        <time>2016-05-05T20:14:02Z</time>
      </trkpt>
      <trkpt lat="42.60215" lon="1.49047">
        <ele>2399.17</ele>
        <time>2016-05-05T20:14:22Z</time>
      </trkpt>
      <trkpt lat="42.60211" lon="1.4905">
        <ele>2399.471</ele>
        <time>2016-05-05T20:14:42Z</time>
      </trkpt>
      <trkpt lat="42.60209" lon="1.49053">
        <ele>2399.641</ele>
        <time>2016-05-05T20:15:02Z</time>
      </trkpt>
      <trkpt lat="42.60206" lon="1.49056">
        <ele>2400.015</ele>
        <time>2016-05-05T20:15:22Z</time>
      </trkpt>
      <trkpt lat="42.60201" lon="1.49059">
        <ele>2401.008</ele>
        <time>2016-05-05T20:15:42Z</time>
      </trkpt>
      <trkpt lat="42.60197" lon="1.49061">
        <ele>2401.828</ele>
        <time>2016-05-05T20:16:02Z</time>
      </trkpt>
      <trkpt lat="42.60194" lon="1.49063">
        <ele>2402.47</ele>
        <time>2016-05-05T20:16:22Z</time>
      </trkpt>
      <trkpt lat="42.6019" lon="1.49065">
        <ele>2403.168</ele>
        <time>2016-05-05T20:16:42Z</time>
      </trkpt>
      <trkpt lat="42.60186" lon="1.49068">
        <ele>2403.926</ele>
        <time>2016-05-05T20:17:02Z</time>
      </trkpt>
      <trkpt lat="42.60181" lon="1.4907">
        <ele>2404.744</ele>
        <time>2016-05-05T20:17:22Z</time>
      </trkpt>
      <trkpt lat="42.60176" lon="1.49073">
        <ele>2405.545</ele>
        <time>2016-05-05T20:17:42Z</time>
      </trkpt>
      <trkpt lat="42.60171" lon="1.49075">
        <ele>2406.393</ele>
        <time>2016-05-05T20:18:02Z</time>
      </trkpt>
      <trkpt lat="42.60166" lon="1.49074">
        <ele>2407.281</ele>
        <time>2016-05-05T20:18:22Z</time>
      </trkpt>
      <trkpt lat="42.60162" lon="1.49074">
        <ele>2408.383</ele>
        <time>2016-05-05T20:18:42Z</time>
      </trkpt>
      <trkpt lat="42.60159" lon="1.49075">
        <ele>2409.225</ele>
        <time>2016-05-05T20:19:02Z</time>
      </trkpt>
      <trkpt lat="42.60154" lon="1.49074">
        <ele>2410.317</ele>
        <time>2016-05-05T20:19:22Z</time>
      </trkpt>
      <trkpt lat="42.60148" lon="1.49074">
        <ele>2412.008</ele>
        <time>2016-05-05T20:19:42Z</time>
      </trkpt>
      <trkpt lat="42.60144" lon="1.49074">
        <ele>2413.099</ele>
        <time>2016-05-05T20:20:02Z</time>
      </trkpt>
      <trkpt lat="42.60139" lon="1.49075">
        <ele>2414.431</ele>
        <time>2016-05-05T20:20:22Z</time>
      </trkpt>
      <trkpt lat="42.60134" lon="1.49076">
        <ele>2416.019</ele>
        <time>2016-05-05T20:20:42Z</time>
      </trkpt>
      <trkpt lat="42.60129" lon="1.49076">
        <ele>2417.517</ele>
        <time>2016-05-05T20:21:02Z</time>
      </trkpt>
      <trkpt lat="42.60125" lon="1.49077">
        <ele>2418.715</ele>
        <time>2016-05-05T20:21:22Z</time>
      </trkpt>
      <trkpt lat="42.60121" lon="1.49077">
        <ele>2419.916</ele>
        <time>2016-05-05T20:21:42Z</time>
      </trkpt>
      <trkpt lat="42.60118" lon="1.49078">
        <ele>2421.174</ele>
        <time>2016-05-05T20:22:02Z</time>
      </trkpt>
      <trkpt lat="42.60112" lon="1.49074">
        <ele>2423.082</ele>
        <time>2016-05-05T20:22:22Z</time>
      </trkpt>
      <trkpt lat="42.60109" lon="1.49074">
        <ele>2424.277</ele>
        <time>2016-05-05T20:22:42Z</time>
      </trkpt>
      <trkpt lat="42.60105" lon="1.49074">
        <ele>2426.361</ele>
        <time>2016-05-05T20:23:02Z</time>
      </trkpt>
      <trkpt lat="42.60101" lon="1.49072">
        <ele>2428.227</ele>
        <time>2016-05-05T20:23:22Z</time>
      </trkpt>
      <trkpt lat="42.60098" lon="1.49069">
        <ele>2429.908</ele>
        <time>2016-05-05T20:23:42Z</time>
      </trkpt>
      <trkpt lat="42.60093" lon="1.49065">
        <ele>2432.838</ele>
        <time>2016-05-05T20:24:02Z</time>
      </trkpt>
      <trkpt lat="42.60089" lon="1.49065">
        <ele>2434.82</ele>
        <time>2016-05-05T20:24:22Z</time>
      </trkpt>
      <trkpt lat="42.60084" lon="1.49065">
        <ele>2437.078</ele>
        <time>2016-05-05T20:24:42Z</time>
      </trkpt>
      <trkpt lat="42.60081" lon="1.49066">
        <ele>2438.556</ele>
        <time>2016-05-05T20:25:02Z</time>
      </trkpt>
      <trkpt lat="42.60077" lon="1.49067">
        <ele>2440.274</ele>
        <time>2016-05-05T20:25:22Z</time>
      </trkpt>
      <trkpt lat="42.60072" lon="1.49069">
        <ele>2442.735</ele>
        <time>2016-05-05T20:25:42Z</time>
      </trkpt>
      <trkpt lat="42.60068" lon="1.49069">
        <ele>2444.463</ele>
        <time>2016-05-05T20:26:02Z</time>
      </trkpt>
      <trkpt lat="42.60063" lon="1.49068">
        <ele>2446.781</ele>
        <time>2016-05-05T20:26:22Z</time>
      </trkpt>
      <trkpt lat="42.60059" lon="1.49066">
        <ele>2448.749</ele>
        <time>2016-05-05T20:26:42Z</time>
      </trkpt>
      <trkpt lat="42.60054" lon="1.49065">
        <ele>2451.102</ele>
        <time>2016-05-05T20:27:02Z</time>
      </trkpt>
      <trkpt lat="42.60049" lon="1.49065">
        <ele>2453.122</ele>
        <time>2016-05-05T20:27:22Z</time>
      </trkpt>
      <trkpt lat="42.60046" lon="1.49064">
        <ele>2454.508</ele>
        <time>2016-05-05T20:27:42Z</time>
      </trkpt>
      <trkpt lat="42.60043" lon="1.49067">
        <ele>2455.915</ele>
        <time>2016-05-05T20:28:02Z</time>
      </trkpt>
      <trkpt lat="42.60041" lon="1.49072">
        <ele>2456.647</ele>
        <time>2016-05-05T20:28:22Z</time>
      </trkpt>
      <trkpt lat="42.60037" lon="1.49073">
        <ele>2458.245</ele>
        <time>2016-05-05T20:28:42Z</time>
      </trkpt>
      <trkpt lat="42.60033" lon="1.49073">
        <ele>2460.123</ele>
        <time>2016-05-05T20:29:02Z</time>
      </trkpt>
      <trkpt lat="42.60029" lon="1.49074">
        <ele>2461.691</ele>
        <time>2016-05-05T20:29:22Z</time>
      </trkpt>
      <trkpt lat="42.60025" lon="1.49076">
        <ele>2463.022</ele>
        <time>2016-05-05T20:29:42Z</time>
      </trkpt>
      <trkpt lat="42.60022" lon="1.49077">
        <ele>2464.02</ele>
        <time>2016-05-05T20:30:02Z</time>
      </trkpt>
      <trkpt lat="42.6002" lon="1.49079">
        <ele>2464.738</ele>
        <time>2016-05-05T20:30:22Z</time>
      </trkpt>
      <trkpt lat="42.60017" lon="1.49076">
        <ele>2466.438</ele>
        <time>2016-05-05T20:30:42Z</time>
      </trkpt>
      <trkpt lat="42.60013" lon="1.49074">
        <ele>2468.27</ele>
        <time>2016-05-05T20:31:02Z</time>
      </trkpt>
      <trkpt lat="42.6001" lon="1.49072">
        <ele>2470.017</ele>
        <time>2016-05-05T20:31:22Z</time>
      </trkpt>
      <trkpt lat="42.60003" lon="1.49071">
        <ele>2473.308</ele>
        <time>2016-05-05T20:31:42Z</time>
      </trkpt>
      <trkpt lat="42.59999" lon="1.49069">
        <ele>2475.574</ele>
        <time>2016-05-05T20:32:02Z</time>
      </trkpt>
      <trkpt lat="42.59996" lon="1.49067">
        <ele>2477.556</ele>
        <time>2016-05-05T20:32:22Z</time>
      </trkpt>
      <trkpt lat="42.59993" lon="1.49062">
        <ele>2480.664</ele>
        <time>2016-05-05T20:32:42Z</time>
      </trkpt>
      <trkpt lat="42.59993" lon="1.49055">
        <ele>2482.412</ele>
        <time>2016-05-05T20:33:02Z</time>
      </trkpt>
      <trkpt lat="42.59994" lon="1.49052">
        <ele>2483.55</ele>
        <time>2016-05-05T20:33:22Z</time>
      </trkpt>
      <trkpt lat="42.59993" lon="1.49046">
        <ele>2485.651</ele>
        <time>2016-05-05T20:33:42Z</time>
      </trkpt>
      <trkpt lat="42.59991" lon="1.49045">
        <ele>2486.699</ele>
        <time>2016-05-05T20:34:02Z</time>
      </trkpt>
      <trkpt lat="42.59989" lon="1.49051">
        <ele>2486.067</ele>
        <time>2016-05-05T20:34:22Z</time>
      </trkpt>
      <trkpt lat="42.59988" lon="1.49053">
        <ele>2485.936</ele>
        <time>2016-05-05T20:34:42Z</time>
      </trkpt>
      <trkpt lat="42.59984" lon="1.49047">
        <ele>2489.817</ele>
        <time>2016-05-05T20:35:02Z</time>
      </trkpt>
      <trkpt lat="42.59983" lon="1.49043">
        <ele>2492.118</ele>
        <time>2016-05-05T20:35:22Z</time>
      </trkpt>
      <trkpt lat="42.5998" lon="1.49039">
        <ele>2494.808</ele>
        <time>2016-05-05T20:35:42Z</time>
      </trkpt>
      <trkpt lat="42.59976" lon="1.49036">
        <ele>2497.964</ele>
        <time>2016-05-05T20:36:02Z</time>
      </trkpt>
      <trkpt lat="42.59973" lon="1.49035">
        <ele>2500.086</ele>
        <time>2016-05-05T20:36:22Z</time>
      </trkpt>
      <trkpt lat="42.59968" lon="1.49033">
        <ele>2502.444</ele>
        <time>2016-05-05T20:36:42Z</time>
      </trkpt>
      <trkpt lat="42.59966" lon="1.4903">
        <ele>2504.062</ele>
        <time>2016-05-05T20:37:02Z</time>
      </trkpt>
      <trkpt lat="42.59964" lon="1.49029">
        <ele>2505.51</ele>
        <time>2016-05-05T20:37:22Z</time>
      </trkpt>
      <trkpt lat="42.59963" lon="1.49023">
        <ele>2507.241</ele>
        <time>2016-05-05T20:37:42Z</time>
      </trkpt>
      <trkpt lat="42.59961" lon="1.49018">
        <ele>2509.139</ele>
        <time>2016-05-05T20:38:02Z</time>
      </trkpt>
      <trkpt lat="42.59959" lon="1.49013">
        <ele>2510.837</ele>
        <time>2016-05-05T20:38:22Z</time>
      </trkpt>
      <trkpt lat="42.59957" lon="1.4901">
        <ele>2512.028</ele>
        <time>2016-05-05T20:38:42Z</time>
      </trkpt>
      <trkpt lat="42.59955" lon="1.49007">
        <ele>2512.989</ele>
        <time>2016-05-05T20:39:02Z</time>
      </trkpt>
      <trkpt lat="42.5995" lon="1.49001">
        <ele>2515.017</ele>
        <time>2016-05-05T20:39:22Z</time>
      </trkpt>
      <trkpt lat="42.59948" lon="1.49">
        <ele>2515.508</ele>
        <time>2016-05-05T20:39:42Z</time>
      </trkpt>
      <trkpt lat="42.59945" lon="1.48999">
        <ele>2516.193</ele>
        <time>2016-05-05T20:40:02Z</time>
      </trkpt>
      <trkpt lat="42.59943" lon="1.48998">
        <ele>2516.735</ele>
        <time>2016-05-05T20:40:22Z</time>
      </trkpt>
      <trkpt lat="42.5994" lon="1.48997">
        <ele>2517.433</ele>
        <time>2016-05-05T20:40:42Z</time>
      </trkpt>
      <trkpt lat="42.59938" lon="1.48997">
        <ele>2517.731</ele>
        <time>2016-05-05T20:41:02Z</time>
      </trkpt>
      <trkpt lat="42.59935" lon="1.48997">
        <ele>2518.119</ele>
        <time>2016-05-05T20:41:22Z</time>
      </trkpt>
      <trkpt lat="42.59932" lon="1.48999">
        <ele>2518.42</ele>
        <time>2016-05-05T20:41:42Z</time>
      </trkpt>
      <trkpt lat="42.5993" lon="1.49">
        <ele>2518.718</ele>
        <time>2016-05-05T20:42:02Z</time>
      </trkpt>
      <trkpt lat="42.59926" lon="1.49001">
        <ele>2519.176</ele>
        <time>2016-05-05T20:42:22Z</time>
      </trkpt>
      <trkpt lat="42.59923" lon="1.49003">
        <ele>2519.629</ele>
        <time>2016-05-05T20:42:42Z</time>
      </trkpt>
      <trkpt lat="42.59919" lon="1.49004">
        <ele>2520.2</ele>
        <time>2016-05-05T20:43:02Z</time>
      </trkpt>
      <trkpt lat="42.59917" lon="1.49006">
        <ele>2520.22</ele>
        <time>2016-05-05T20:43:22Z</time>
      </trkpt>
      <trkpt lat="42.59914" lon="1.49008">
        <ele>2520.308</ele>
        <time>2016-05-05T20:43:42Z</time>
      </trkpt>
      <trkpt lat="42.59911" lon="1.49008">
        <ele>2520.423</ele>
        <time>2016-05-05T20:44:02Z</time>
      </trkpt>
      <trkpt lat="42.59908" lon="1.49011">
        <ele>2520.345</ele>
        <time>2016-05-05T20:44:22Z</time>
      </trkpt>
      <trkpt lat="42.59904" lon="1.49012">
        <ele>2520.423</ele>
        <time>2016-05-05T20:44:42Z</time>
      </trkpt>
      <trkpt lat="42.599" lon="1.49012">
        <ele>2520.541</ele>
        <time>2016-05-05T20:45:02Z</time>
      </trkpt>
      <trkpt lat="42.59897" lon="1.49014">
        <ele>2520.679</ele>
        <time>2016-05-05T20:45:22Z</time>
      </trkpt>
      <trkpt lat="42.59895" lon="1.49016">
        <ele>2520.56</ele>
        <time>2016-05-05T20:45:42Z</time>
      </trkpt>
      <trkpt lat="42.59892" lon="1.4902">
        <ele>2520.448</ele>
        <time>2016-05-05T20:46:02Z</time>
      </trkpt>
      <trkpt lat="42.59888" lon="1.49022">
        <ele>2520.576</ele>
        <time>2016-05-05T20:46:22Z</time>
      </trkpt>
      <trkpt lat="42.59883" lon="1.49023">
        <ele>2521.023</ele>
        <time>2016-05-05T20:46:42Z</time>
      </trkpt>
      <trkpt lat="42.59878" lon="1.49022">
        <ele>2521.583</ele>
        <time>2016-05-05T20:47:02Z</time>
      </trkpt>
      <trkpt lat="42.59876" lon="1.49022">
        <ele>2521.711</ele>
        <time>2016-05-05T20:47:22Z</time>
      </trkpt>
      <trkpt lat="42.59872" lon="1.49024">
        <ele>2521.908</ele>
        <time>2016-05-05T20:47:42Z</time>
      </trkpt>
      <trkpt lat="42.59868" lon="1.49024">
        <ele>2522.263</ele>
        <time>2016-05-05T20:48:02Z</time>
      </trkpt>
      <trkpt lat="42.59865" lon="1.49026">
        <ele>2522.115</ele>
        <time>2016-05-05T20:48:22Z</time>
      </trkpt>
      <trkpt lat="42.59862" lon="1.49029">
        <ele>2521.833</ele>
        <time>2016-05-05T20:48:42Z</time>
      </trkpt>
      <trkpt lat="42.59859" lon="1.49032">
        <ele>2521.711</ele>
        <time>2016-05-05T20:49:02Z</time>
      </trkpt>
      <trkpt lat="42.59856" lon="1.49035">
        <ele>2521.899</ele>
        <time>2016-05-05T20:49:22Z</time>
      </trkpt>
      <trkpt lat="42.59853" lon="1.4904">
        <ele>2521.79</ele>
        <time>2016-05-05T20:49:42Z</time>
      </trkpt>
      <trkpt lat="42.59848" lon="1.49042">
        <ele>2523.068</ele>
        <time>2016-05-05T20:50:02Z</time>
      </trkpt>
      <trkpt lat="42.59844" lon="1.49039">
        <ele>2524.616</ele>
        <time>2016-05-05T20:50:22Z</time>
      </trkpt>
      <trkpt lat="42.59842" lon="1.49037">
        <ele>2525.359</ele>
        <time>2016-05-05T20:50:42Z</time>
      </trkpt>
      <trkpt lat="42.59838" lon="1.49036">
        <ele>2526.503</ele>
        <time>2016-05-05T20:51:02Z</time>
      </trkpt>
      <trkpt lat="42.59835" lon="1.49033">
        <ele>2527.423</ele>
        <time>2016-05-05T20:51:22Z</time>
      </trkpt>
      <trkpt lat="42.59833" lon="1.49032">
        <ele>2528.008</ele>
        <time>2016-05-05T20:51:42Z</time>
      </trkpt>
      <trkpt lat="42.59831" lon="1.4903">
        <ele>2529.126</ele>
        <time>2016-05-05T20:52:02Z</time>
      </trkpt>
      <trkpt lat="42.59829" lon="1.49027">
        <ele>2530.368</ele>
        <time>2016-05-05T20:52:22Z</time>
      </trkpt>
      <trkpt lat="42.59827" lon="1.49025">
        <ele>2531.586</ele>
        <time>2016-05-05T20:52:42Z</time>
      </trkpt>
      <trkpt lat="42.59825" lon="1.49023">
        <ele>2533.194</ele>
        <time>2016-05-05T20:53:02Z</time>
      </trkpt>
      <trkpt lat="42.59823" lon="1.49023">
        <ele>2533.972</ele>
        <time>2016-05-05T20:53:22Z</time>
      </trkpt>
      <trkpt lat="42.59822" lon="1.49025">
        <ele>2534.083</ele>
        <time>2016-05-05T20:53:42Z</time>
      </trkpt>
      <trkpt lat="42.59821" lon="1.49027">
        <ele>2534.511</ele>
        <time>2016-05-05T20:54:02Z</time>
      </trkpt>
      <trkpt lat="42.59819" lon="1.49027">
        <ele>2535.659</ele>
        <time>2016-05-05T20:54:22Z</time>
      </trkpt>
      <trkpt lat="42.59816" lon="1.49025">
        <ele>2537.231</ele>
        <time>2016-05-05T20:54:42Z</time>
      </trkpt>
      <trkpt lat="42.59813" lon="1.49023">
        <ele>2538.561</ele>
        <time>2016-05-05T20:55:02Z</time>
      </trkpt>
      <trkpt lat="42.59811" lon="1.49022">
        <ele>2539.707</ele>
        <time>2016-05-05T20:55:22Z</time>
      </trkpt>
      <trkpt lat="42.59809" lon="1.49021">
        <ele>2540.708</ele>
        <time>2016-05-05T20:55:42Z</time>
      </trkpt>
      <trkpt lat="42.59807" lon="1.49021">
        <ele>2541.674</ele>
        <time>2016-05-05T20:56:02Z</time>
      </trkpt>
      <trkpt lat="42.59806" lon="1.49023">
        <ele>2542.126</ele>
        <time>2016-05-05T20:56:22Z</time>
      </trkpt>
      <trkpt lat="42.59805" lon="1.49025">
        <ele>2542.874</ele>
        <time>2016-05-05T20:56:42Z</time>
      </trkpt>
      <trkpt lat="42.59804" lon="1.49027">
        <ele>2543.422</ele>
        <time>2016-05-05T20:57:02Z</time>
      </trkpt>
      <trkpt lat="42.59803" lon="1.49029">
        <ele>2544.48</ele>
        <time>2016-05-05T20:57:22Z</time>
      </trkpt>
      <trkpt lat="42.59801" lon="1.49027">
        <ele>2545.411</ele>
        <time>2016-05-05T20:57:42Z</time>
      </trkpt>
      <trkpt lat="42.598" lon="1.49024">
        <ele>2546.819</ele>
        <time>2016-05-05T20:58:02Z</time>
      </trkpt>
      <trkpt lat="42.59798" lon="1.49022">
        <ele>2548.177</ele>
        <time>2016-05-05T20:58:22Z</time>
      </trkpt>
      <trkpt lat="42.59796" lon="1.4902">
        <ele>2549.688</ele>
        <time>2016-05-05T20:58:42Z</time>
      </trkpt>
      <trkpt lat="42.59795" lon="1.4902">
        <ele>2550.924</ele>
        <time>2016-05-05T20:59:02Z</time>
      </trkpt>
      <trkpt lat="42.59793" lon="1.4902">
        <ele>2552.026</ele>
        <time>2016-05-05T20:59:22Z</time>
      </trkpt>
      <trkpt lat="42.59792" lon="1.49018">
        <ele>2553.008</ele>
        <time>2016-05-05T20:59:42Z</time>
      </trkpt>
      <trkpt lat="42.5979" lon="1.49016">
        <ele>2554.569</ele>
        <time>2016-05-05T21:00:02Z</time>
      </trkpt>
      <trkpt lat="42.59788" lon="1.49015">
        <ele>2556.421</ele>
        <time>2016-05-05T21:00:22Z</time>
      </trkpt>
      <trkpt lat="42.59786" lon="1.49013">
        <ele>2558.179</ele>
        <time>2016-05-05T21:00:42Z</time>
      </trkpt>
      <trkpt lat="42.59784" lon="1.49014">
        <ele>2559.087</ele>
        <time>2016-05-05T21:01:02Z</time>
      </trkpt>
      <trkpt lat="42.59784" lon="1.49017">
        <ele>2559.625</ele>
        <time>2016-05-05T21:01:22Z</time>
      </trkpt>
      <trkpt lat="42.59782" lon="1.49021">
        <ele>2561.086</ele>
        <time>2016-05-05T21:01:42Z</time>
      </trkpt>
      <trkpt lat="42.5978" lon="1.49024">
        <ele>2562.554</ele>
        <time>2016-05-05T21:02:02Z</time>
      </trkpt>
      <trkpt lat="42.59779" lon="1.49027">
        <ele>2563.452</ele>
        <time>2016-05-05T21:02:22Z</time>
      </trkpt>
      <trkpt lat="42.59776" lon="1.49026">
        <ele>2565.382</ele>
        <time>2016-05-05T21:02:42Z</time>
      </trkpt>
      <trkpt lat="42.59773" lon="1.49025">
        <ele>2567.243</ele>
        <time>2016-05-05T21:03:02Z</time>
      </trkpt>
      <trkpt lat="42.5977" lon="1.49024">
        <ele>2568.917</ele>
        <time>2016-05-05T21:03:22Z</time>
      </trkpt>
      <trkpt lat="42.59768" lon="1.49024">
        <ele>2570.308</ele>
        <time>2016-05-05T21:03:42Z</time>
      </trkpt>
      <trkpt lat="42.59766" lon="1.49025">
        <ele>2571.769</ele>
        <time>2016-05-05T21:04:02Z</time>
      </trkpt>
      <trkpt lat="42.59763" lon="1.49026">
        <ele>2573.341</ele>
        <time>2016-05-05T21:04:22Z</time>
      </trkpt>
      <trkpt lat="42.59761" lon="1.49027">
        <ele>2575.029</ele>
        <time>2016-05-05T21:04:42Z</time>
      </trkpt>
      <trkpt lat="42.59759" lon="1.49028">
        <ele>2576.237</ele>
        <time>2016-05-05T21:05:02Z</time>
      </trkpt>
      <trkpt lat="42.59739" lon="1.49031">
        <ele>2581.285</ele>
        <time>2016-05-05T21:05:22Z</time>
      </trkpt>
      <trkpt lat="42.59736" lon="1.49032">
        <ele>2580.916</ele>
        <time>2016-05-05T21:05:42Z</time>
      </trkpt>
      <trkpt lat="42.59735" lon="1.49034">
        <ele>2580.674</ele>
        <time>2016-05-05T21:06:02Z</time>
      </trkpt>
      <trkpt lat="42.59735" lon="1.49036">
        <ele>2580.542</ele>
        <time>2016-05-05T21:06:22Z</time>
      </trkpt>
      <trkpt lat="42.59736" lon="1.4904">
        <ele>2580.561</ele>
        <time>2016-05-05T21:06:42Z</time>
      </trkpt>
      <trkpt lat="42.59737" lon="1.49044">
        <ele>2580.621</ele>
        <time>2016-05-05T21:07:02Z</time>
      </trkpt>
      <trkpt lat="42.59739" lon="1.49048">
        <ele>2581.013</ele>
        <time>2016-05-05T21:07:22Z</time>
      </trkpt>
      <trkpt lat="42.59742" lon="1.49054">
        <ele>2581.508</ele>
        <time>2016-05-05T21:07:42Z</time>
      </trkpt>
      <trkpt lat="42.59744" lon="1.49058">
        <ele>2582.097</ele>
        <time>2016-05-05T21:08:02Z</time>
      </trkpt>
      <trkpt lat="42.59745" lon="1.49065">
        <ele>2582.249</ele>
        <time>2016-05-05T21:08:22Z</time>
      </trkpt>
      <trkpt lat="42.59747" lon="1.49073">
        <ele>2582.827</ele>
        <time>2016-05-05T21:08:42Z</time>
      </trkpt>
      <trkpt lat="42.5975" lon="1.49082">
        <ele>2583.945</ele>
        <time>2016-05-05T21:09:02Z</time>
      </trkpt>
      <trkpt lat="42.59752" lon="1.49091">
        <ele>2582.823</ele>
        <time>2016-05-05T21:09:22Z</time>
      </trkpt>
      <trkpt lat="42.59754" lon="1.49097">
        <ele>2582.184</ele>
        <time>2016-05-05T21:09:42Z</time>
      </trkpt>
      <trkpt lat="42.59755" lon="1.49101">
        <ele>2581.792</ele>
        <time>2016-05-05T21:10:02Z</time>
      </trkpt>
      <trkpt lat="42.59757" lon="1.49107">
        <ele>2581.39</ele>
        <time>2016-05-05T21:10:22Z</time>
      </trkpt>
      <trkpt lat="42.59756" lon="1.49111">
        <ele>2581.398</ele>
        <time>2016-05-05T21:10:42Z</time>
      </trkpt>
      <trkpt lat="42.59755" lon="1.49116">
        <ele>2581.215</ele>
        <time>2016-05-05T21:11:02Z</time>
      </trkpt>
      <trkpt lat="42.59755" lon="1.49121">
        <ele>2580.926</ele>
        <time>2016-05-05T21:11:22Z</time>
      </trkpt>
      <trkpt lat="42.5976" lon="1.4913">
        <ele>2580.808</ele>
        <time>2016-05-05T21:11:42Z</time>
      </trkpt>
      <trkpt lat="42.59763" lon="1.49138">
        <ele>2581.32</ele>
        <time>2016-05-05T21:12:02Z</time>
      </trkpt>
      <trkpt lat="42.59765" lon="1.49144">
        <ele>2581.622</ele>
        <time>2016-05-05T21:12:22Z</time>
      </trkpt>
      <trkpt lat="42.59768" lon="1.49152">
        <ele>2582.36</ele>
        <time>2016-05-05T21:12:42Z</time>
      </trkpt>
      <trkpt lat="42.5977" lon="1.49157">
        <ele>2583.398</ele>
        <time>2016-05-05T21:13:02Z</time>
      </trkpt>
      <trkpt lat="42.59774" lon="1.49163">
        <ele>2585.486</ele>
        <time>2016-05-05T21:13:22Z</time>
      </trkpt>
      <trkpt lat="42.59776" lon="1.49167">
        <ele>2587.177</ele>
        <time>2016-05-05T21:13:42Z</time>
      </trkpt>
      <trkpt lat="42.5978" lon="1.49175">
        <ele>2587.915</ele>
        <time>2016-05-05T21:14:02Z</time>
      </trkpt>
      <trkpt lat="42.59783" lon="1.49179">
        <ele>2587.143</ele>
        <time>2016-05-05T21:14:22Z</time>
      </trkpt>
      <trkpt lat="42.59785" lon="1.49189">
        <ele>2587.715</ele>
        <time>2016-05-05T21:14:42Z</time>
      </trkpt>
      <trkpt lat="42.59787" lon="1.49201">
        <ele>2588.965</ele>
        <time>2016-05-05T21:15:02Z</time>
      </trkpt>
      <trkpt lat="42.59789" lon="1.4921">
        <ele>2589.911</ele>
        <time>2016-05-05T21:15:22Z</time>
      </trkpt>
      <trkpt lat="42.59787" lon="1.49213">
        <ele>2590.508</ele>
        <time>2016-05-05T21:15:42Z</time>
      </trkpt>
      <trkpt lat="42.59784" lon="1.49218">
        <ele>2591.392</ele>
        <time>2016-05-05T21:16:02Z</time>
      </trkpt>
      <trkpt lat="42.59782" lon="1.49225">
        <ele>2592.064</ele>
        <time>2016-05-05T21:16:22Z</time>
      </trkpt>
      <trkpt lat="42.5978" lon="1.49233">
        <ele>2592.762</ele>
        <time>2016-05-05T21:16:42Z</time>
      </trkpt>
      <trkpt lat="42.59779" lon="1.49241">
        <ele>2593.34</ele>
        <time>2016-05-05T21:17:02Z</time>
      </trkpt>
      <trkpt lat="42.59778" lon="1.49247">
        <ele>2593.738</ele>
        <time>2016-05-05T21:17:22Z</time>
      </trkpt>
      <trkpt lat="42.59779" lon="1.49254">
        <ele>2593.849</ele>
        <time>2016-05-05T21:17:42Z</time>
      </trkpt>
      <trkpt lat="42.59779" lon="1.4926">
        <ele>2593.687</ele>
        <time>2016-05-05T21:18:02Z</time>
      </trkpt>
      <trkpt lat="42.5978" lon="1.49264">
        <ele>2593.535</ele>
        <time>2016-05-05T21:18:22Z</time>
      </trkpt>
      <trkpt lat="42.59785" lon="1.49269">
        <ele>2593.279</ele>
        <time>2016-05-05T21:18:42Z</time>
      </trkpt>
      <trkpt lat="42.59789" lon="1.49275">
        <ele>2593.105</ele>
        <time>2016-05-05T21:19:02Z</time>
      </trkpt>
      <trkpt lat="42.59789" lon="1.49281">
        <ele>2593.325</ele>
        <time>2016-05-05T21:19:22Z</time>
      </trkpt>
      <trkpt lat="42.59788" lon="1.49288">
        <ele>2594.108</ele>
        <time>2016-05-05T21:19:42Z</time>
      </trkpt>
      <trkpt lat="42.59788" lon="1.49297">
        <ele>2595.048</ele>
        <time>2016-05-05T21:20:02Z</time>
      </trkpt>
      <trkpt lat="42.59789" lon="1.49305">
        <ele>2596.01</ele>
        <time>2016-05-05T21:20:22Z</time>
      </trkpt>
      <trkpt lat="42.59784" lon="1.49312">
        <ele>2596.078</ele>
        <time>2016-05-05T21:20:42Z</time>
      </trkpt>
      <trkpt lat="42.59779" lon="1.49318">
        <ele>2595.616</ele>
        <time>2016-05-05T21:21:02Z</time>
      </trkpt>
      <trkpt lat="42.59774" lon="1.49327">
        <ele>2593.774</ele>
        <time>2016-05-05T21:21:22Z</time>
      </trkpt>
      <trkpt lat="42.59768" lon="1.49331">
        <ele>2591.775</ele>
        <time>2016-05-05T21:21:42Z</time>
      </trkpt>
      <trkpt lat="42.59763" lon="1.49338">
        <ele>2589.753</ele>
        <time>2016-05-05T21:22:02Z</time>
      </trkpt>
      <trkpt lat="42.59756" lon="1.49342">
        <ele>2587.151</ele>
        <time>2016-05-05T21:22:22Z</time>
      </trkpt>
      <trkpt lat="42.59749" lon="1.49342">
        <ele>2584.878</ele>
        <time>2016-05-05T21:22:42Z</time>
      </trkpt>
      <trkpt lat="42.59741" lon="1.49344">
        <ele>2582.133</ele>
        <time>2016-05-05T21:23:02Z</time>
      </trkpt>
      <trkpt lat="42.59734" lon="1.49345">
        <ele>2579.726</ele>
        <time>2016-05-05T21:23:22Z</time>
      </trkpt>
      <trkpt lat="42.59729" lon="1.49347">
        <ele>2578.508</ele>
        <time>2016-05-05T21:23:42Z</time>
      </trkpt>
      <trkpt lat="42.59725" lon="1.49349">
        <ele>2577.668</ele>
        <time>2016-05-05T21:24:02Z</time>
      </trkpt>
      <trkpt lat="42.5972" lon="1.49354">
        <ele>2576.43</ele>
        <time>2016-05-05T21:24:22Z</time>
      </trkpt>
      <trkpt lat="42.59717" lon="1.49358">
        <ele>2575.458</ele>
        <time>2016-05-05T21:24:42Z</time>
      </trkpt>
      <trkpt lat="42.59714" lon="1.4936">
        <ele>2574.916</ele>
        <time>2016-05-05T21:25:02Z</time>
      </trkpt>
      <trkpt lat="42.5971" lon="1.49364">
        <ele>2573.454</ele>
        <time>2016-05-05T21:25:22Z</time>
      </trkpt>
      <trkpt lat="42.59705" lon="1.49368">
        <ele>2571.765</ele>
        <time>2016-05-05T21:25:42Z</time>
      </trkpt>
      <trkpt lat="42.597" lon="1.49372">
        <ele>2570.273</ele>
        <time>2016-05-05T21:26:02Z</time>
      </trkpt>
      <trkpt lat="42.59696" lon="1.49375">
        <ele>2569.311</ele>
        <time>2016-05-05T21:26:22Z</time>
      </trkpt>
      <trkpt lat="42.5969" lon="1.49379">
        <ele>2568.089</ele>
        <time>2016-05-05T21:26:42Z</time>
      </trkpt>
      <trkpt lat="42.59685" lon="1.49383">
        <ele>2567.106</ele>
        <time>2016-05-05T21:27:02Z</time>
      </trkpt>
      <trkpt lat="42.59678" lon="1.49385">
        <ele>2565.626</ele>
        <time>2016-05-05T21:27:22Z</time>
      </trkpt>
      <trkpt lat="42.59672" lon="1.49388">
        <ele>2565.008</ele>
        <time>2016-05-05T21:27:42Z</time>
      </trkpt>
      <trkpt lat="42.59668" lon="1.49391">
        <ele>2564.259</ele>
        <time>2016-05-05T21:28:02Z</time>
      </trkpt>
      <trkpt lat="42.59664" lon="1.49393">
        <ele>2563.451</ele>
        <time>2016-05-05T21:28:22Z</time>
      </trkpt>
      <trkpt lat="42.59658" lon="1.49395">
        <ele>2562.849</ele>
        <time>2016-05-05T21:28:42Z</time>
      </trkpt>
      <trkpt lat="42.59652" lon="1.49396">
        <ele>2562.177</ele>
        <time>2016-05-05T21:29:02Z</time>
      </trkpt>
      <trkpt lat="42.59647" lon="1.49398">
        <ele>2561.575</ele>
        <time>2016-05-05T21:29:22Z</time>
      </trkpt>
      <trkpt lat="42.59642" lon="1.49399">
        <ele>2560.996</ele>
        <time>2016-05-05T21:29:42Z</time>
      </trkpt>
      <trkpt lat="42.59637" lon="1.494">
        <ele>2560.214</ele>
        <time>2016-05-05T21:30:02Z</time>
      </trkpt>
      <trkpt lat="42.59629" lon="1.49403">
        <ele>2558.782</ele>
        <time>2016-05-05T21:30:22Z</time>
      </trkpt>
      <trkpt lat="42.59623" lon="1.49406">
        <ele>2558.181</ele>
        <time>2016-05-05T21:30:42Z</time>
      </trkpt>
      <trkpt lat="42.59618" lon="1.4941">
        <ele>2558.061</ele>
        <time>2016-05-05T21:31:02Z</time>
      </trkpt>
      <trkpt lat="42.59608" lon="1.49414">
        <ele>2558.017</ele>
        <time>2016-05-05T21:31:22Z</time>
      </trkpt>
      <trkpt lat="42.59602" lon="1.49417">
        <ele>2558.708</ele>
        <time>2016-05-05T21:31:42Z</time>
      </trkpt>
      <trkpt lat="42.596" lon="1.4942">
        <ele>2558.799</ele>
        <time>2016-05-05T21:32:02Z</time>
      </trkpt>
      <trkpt lat="42.59596" lon="1.49423">
        <ele>2558.951</ele>
        <time>2016-05-05T21:32:22Z</time>
      </trkpt>
      <trkpt lat="42.5959" lon="1.49425">
        <ele>2559.239</ele>
        <time>2016-05-05T21:32:42Z</time>
      </trkpt>
      <trkpt lat="42.59583" lon="1.49428">
        <ele>2559.917</ele>
        <time>2016-05-05T21:33:02Z</time>
      </trkpt>
      <trkpt lat="42.59575" lon="1.49429">
        <ele>2559.245</ele>
        <time>2016-05-05T21:33:22Z</time>
      </trkpt>
      <trkpt lat="42.59571" lon="1.49432">
        <ele>2559.686</ele>
        <time>2016-05-05T21:33:42Z</time>
      </trkpt>
      <trkpt lat="42.59568" lon="1.49438">
        <ele>2561.044</ele>
        <time>2016-05-05T21:34:02Z</time>
      </trkpt>
      <trkpt lat="42.59561" lon="1.49443">
        <ele>2562.432</ele>
        <time>2016-05-05T21:34:22Z</time>
      </trkpt>
      <trkpt lat="42.59557" lon="1.49448">
        <ele>2563.633</ele>
        <time>2016-05-05T21:34:42Z</time>
      </trkpt>
      <trkpt lat="42.59552" lon="1.49452">
        <ele>2563.823</ele>
        <time>2016-05-05T21:35:02Z</time>
      </trkpt>
      <trkpt lat="42.59548" lon="1.49457">
        <ele>2564.615</ele>
        <time>2016-05-05T21:35:22Z</time>
      </trkpt>
      <trkpt lat="42.59545" lon="1.49461">
        <ele>2565.608</ele>
        <time>2016-05-05T21:35:42Z</time>
      </trkpt>
      <trkpt lat="42.59541" lon="1.49465">
        <ele>2566.984</ele>
        <time>2016-05-05T21:36:02Z</time>
      </trkpt>
      <trkpt lat="42.59536" lon="1.49468">
        <ele>2568.236</ele>
        <time>2016-05-05T21:36:22Z</time>
      </trkpt>
      <trkpt lat="42.59534" lon="1.49473">
        <ele>2570.474</ele>
        <time>2016-05-05T21:36:42Z</time>
      </trkpt>
      <trkpt lat="42.59528" lon="1.4948">
        <ele>2571.892</ele>
        <time>2016-05-05T21:37:02Z</time>
      </trkpt>
      <trkpt lat="42.59523" lon="1.49484">
        <ele>2570.42</ele>
        <time>2016-05-05T21:37:22Z</time>
      </trkpt>
      <trkpt lat="42.5952" lon="1.49488">
        <ele>2570.361</ele>
        <time>2016-05-05T21:37:42Z</time>
      </trkpt>
      <trkpt lat="42.59518" lon="1.49493">
        <ele>2571.069</ele>
        <time>2016-05-05T21:38:02Z</time>
      </trkpt>
      <trkpt lat="42.59514" lon="1.49501">
        <ele>2572.157</ele>
        <time>2016-05-05T21:38:22Z</time>
      </trkpt>
      <trkpt lat="42.59509" lon="1.49507">
        <ele>2572.449</ele>
        <time>2016-05-05T21:38:42Z</time>
      </trkpt>
      <trkpt lat="42.59507" lon="1.49515">
        <ele>2573.802</ele>
        <time>2016-05-05T21:39:02Z</time>
      </trkpt>
      <trkpt lat="42.59506" lon="1.49521">
        <ele>2575.222</ele>
        <time>2016-05-05T21:39:22Z</time>
      </trkpt>
      <trkpt lat="42.59501" lon="1.49525">
        <ele>2577.008</ele>
        <time>2016-05-05T21:39:42Z</time>
      </trkpt>
      <trkpt lat="42.59498" lon="1.49529">
        <ele>2577.245</ele>
        <time>2016-05-05T21:40:02Z</time>
      </trkpt>
      <trkpt lat="42.59494" lon="1.49534">
        <ele>2576.527</ele>
        <time>2016-05-05T21:40:22Z</time>
      </trkpt>
      <trkpt lat="42.59489" lon="1.49538">
        <ele>2575.985</ele>
        <time>2016-05-05T21:40:42Z</time>
      </trkpt>
      <trkpt lat="42.59484" lon="1.4954">
        <ele>2575.523</ele>
        <time>2016-05-05T21:41:02Z</time>
      </trkpt>
      <trkpt lat="42.59478" lon="1.49544">
        <ele>2575.531</ele>
        <time>2016-05-05T21:41:22Z</time>
      </trkpt>
      <trkpt lat="42.59475" lon="1.49549">
        <ele>2576.912</ele>
        <time>2016-05-05T21:41:42Z</time>
      </trkpt>
      <trkpt lat="42.59473" lon="1.49555">
        <ele>2578.93</ele>
        <time>2016-05-05T21:42:02Z</time>
      </trkpt>
      <trkpt lat="42.5947" lon="1.4956">
        <ele>2578.288</ele>
        <time>2016-05-05T21:42:22Z</time>
      </trkpt>
      <trkpt lat="42.59472" lon="1.49565">
        <ele>2578.639</ele>
        <time>2016-05-05T21:42:42Z</time>
      </trkpt>
      <trkpt lat="42.59464" lon="1.49569">
        <ele>2576.601</ele>
        <time>2016-05-05T21:43:02Z</time>
      </trkpt>
      <trkpt lat="42.59455" lon="1.49574">
        <ele>2575.521</ele>
        <time>2016-05-05T21:43:22Z</time>
      </trkpt>
      <trkpt lat="42.59449" lon="1.4958">
        <ele>2576.008</ele>
        <time>2016-05-05T21:43:42Z</time>
      </trkpt>
      <trkpt lat="42.59443" lon="1.49586">
        <ele>2576.674</ele>
        <time>2016-05-05T21:44:02Z</time>
      </trkpt>
      <trkpt lat="42.59437" lon="1.49593">
        <ele>2575.656</ele>
        <time>2016-05-05T21:44:22Z</time>
      </trkpt>
      <trkpt lat="42.59429" lon="1.49597">
        <ele>2575.254</ele>
        <time>2016-05-05T21:44:42Z</time>
      </trkpt>
      <trkpt lat="42.59423" lon="1.49602">
        <ele>2575.572</ele>
        <time>2016-05-05T21:45:02Z</time>
      </trkpt>
      <trkpt lat="42.5942" lon="1.49609">
        <ele>2577.25</ele>
        <time>2016-05-05T21:45:22Z</time>
      </trkpt>
      <trkpt lat="42.59414" lon="1.49615">
        <ele>2576.321</ele>
        <time>2016-05-05T21:45:42Z</time>
      </trkpt>
      <trkpt lat="42.59402" lon="1.49623">
        <ele>2571.869</ele>
        <time>2016-05-05T21:46:02Z</time>
      </trkpt>
      <trkpt lat="42.59394" lon="1.49625">
        <ele>2569.387</ele>
        <time>2016-05-05T21:46:22Z</time>
      </trkpt>
      <trkpt lat="42.59388" lon="1.49628">
        <ele>2568.125</ele>
        <time>2016-05-05T21:46:42Z</time>
      </trkpt>
      <trkpt lat="42.59383" lon="1.4963">
        <ele>2566.526</ele>
        <time>2016-05-05T21:47:02Z</time>
      </trkpt>
      <trkpt lat="42.59378" lon="1.49633">
        <ele>2565.008</ele>
        <time>2016-05-05T21:47:22Z</time>
      </trkpt>
      <trkpt lat="42.59371" lon="1.49635">
        <ele>2562.508</ele>
        <time>2016-05-05T21:47:42Z</time>
      </trkpt>
      <trkpt lat="42.59352" lon="1.49627">
        <ele>2553.923</ele>
        <time>2016-05-05T21:48:02Z</time>
      </trkpt>
      <trkpt lat="42.59331" lon="1.4962">
        <ele>2544.515</ele>
        <time>2016-05-05T21:48:22Z</time>
      </trkpt>
      <trkpt lat="42.59327" lon="1.49622">
        <ele>2542.713</ele>
        <time>2016-05-05T21:48:42Z</time>
      </trkpt>
      <trkpt lat="42.59326" lon="1.49627">
        <ele>2543.311</ele>
        <time>2016-05-05T21:49:02Z</time>
      </trkpt>
      <trkpt lat="42.59318" lon="1.49628">
        <ele>2539.349</ele>
        <time>2016-05-05T21:49:22Z</time>
      </trkpt>
      <trkpt lat="42.59308" lon="1.49627">
        <ele>2534.59</ele>
        <time>2016-05-05T21:49:42Z</time>
      </trkpt>
      <trkpt lat="42.59298" lon="1.49627">
        <ele>2529.488</ele>
        <time>2016-05-05T21:50:02Z</time>
      </trkpt>
      <trkpt lat="42.59288" lon="1.49625">
        <ele>2524.476</ele>
        <time>2016-05-05T21:50:22Z</time>
      </trkpt>
      <trkpt lat="42.59279" lon="1.49627">
        <ele>2520.534</ele>
        <time>2016-05-05T21:50:42Z</time>
      </trkpt>
      <trkpt lat="42.59273" lon="1.4963">
        <ele>2518.255</ele>
        <time>2016-05-05T21:51:02Z</time>
      </trkpt>
      <trkpt lat="42.59266" lon="1.49633">
        <ele>2515.61</ele>
        <time>2016-05-05T21:51:22Z</time>
      </trkpt>
      <trkpt lat="42.5926" lon="1.49635">
        <ele>2513.708</ele>
        <time>2016-05-05T21:51:42Z</time>
      </trkpt>
      <trkpt lat="42.59252" lon="1.49635">
        <ele>2510.694</ele>
        <time>2016-05-05T21:52:02Z</time>
      </trkpt>
      <trkpt lat="42.59243" lon="1.49633">
        <ele>2507.786</ele>
        <time>2016-05-05T21:52:22Z</time>
      </trkpt>
      <trkpt lat="42.59233" lon="1.49631">
        <ele>2504.784</ele>
        <time>2016-05-05T21:52:42Z</time>
      </trkpt>
      <trkpt lat="42.59223" lon="1.4963">
        <ele>2501.872</ele>
        <time>2016-05-05T21:53:02Z</time>
      </trkpt>
      <trkpt lat="42.59213" lon="1.49627">
        <ele>2498.98</ele>
        <time>2016-05-05T21:53:22Z</time>
      </trkpt>
      <trkpt lat="42.59205" lon="1.49624">
        <ele>2496.521</ele>
        <time>2016-05-05T21:53:42Z</time>
      </trkpt>
      <trkpt lat="42.59198" lon="1.49623">
        <ele>2494.689</ele>
        <time>2016-05-05T21:54:02Z</time>
      </trkpt>
      <trkpt lat="42.59188" lon="1.49622">
        <ele>2491.937</ele>
        <time>2016-05-05T21:54:22Z</time>
      </trkpt>
      <trkpt lat="42.59179" lon="1.49618">
        <ele>2489.417</ele>
        <time>2016-05-05T21:54:42Z</time>
      </trkpt>
      <trkpt lat="42.59172" lon="1.49617">
        <ele>2487.487</ele>
        <time>2016-05-05T21:55:02Z</time>
      </trkpt>
      <trkpt lat="42.59164" lon="1.49616">
        <ele>2485.115</ele>
        <time>2016-05-05T21:55:22Z</time>
      </trkpt>
      <trkpt lat="42.59155" lon="1.49614">
        <ele>2482.508</ele>
        <time>2016-05-05T21:55:42Z</time>
      </trkpt>
      <trkpt lat="42.59149" lon="1.49615">
        <ele>2480.862</ele>
        <time>2016-05-05T21:56:02Z</time>
      </trkpt>
      <trkpt lat="42.59139" lon="1.49616">
        <ele>2478.064</ele>
        <time>2016-05-05T21:56:22Z</time>
      </trkpt>
      <trkpt lat="42.5913" lon="1.49615">
        <ele>2476.472</ele>
        <time>2016-05-05T21:56:42Z</time>
      </trkpt>
      <trkpt lat="42.59124" lon="1.49616">
        <ele>2475.31</ele>
        <time>2016-05-05T21:57:02Z</time>
      </trkpt>
      <trkpt lat="42.59114" lon="1.49612">
        <ele>2473.538</ele>
        <time>2016-05-05T21:57:22Z</time>
      </trkpt>
      <trkpt lat="42.59108" lon="1.49606">
        <ele>2471.899</ele>
        <time>2016-05-05T21:57:42Z</time>
      </trkpt>
      <trkpt lat="42.59106" lon="1.49598">
        <ele>2469.997</ele>
        <time>2016-05-05T21:58:02Z</time>
      </trkpt>
      <trkpt lat="42.59107" lon="1.4959">
        <ele>2467.855</ele>
        <time>2016-05-05T21:58:22Z</time>
      </trkpt>
      <trkpt lat="42.5911" lon="1.49583">
        <ele>2466.076</ele>
        <time>2016-05-05T21:58:42Z</time>
      </trkpt>
      <trkpt lat="42.59111" lon="1.49573">
        <ele>2461.89</ele>
        <time>2016-05-05T21:59:02Z</time>
      </trkpt>
      <trkpt lat="42.59115" lon="1.49562">
        <ele>2457.819</ele>
        <time>2016-05-05T21:59:22Z</time>
      </trkpt>
      <trkpt lat="42.5912" lon="1.49554">
        <ele>2455.708</ele>
        <time>2016-05-05T21:59:42Z</time>
      </trkpt>
      <trkpt lat="42.59126" lon="1.49542">
        <ele>2451.838</ele>
        <time>2016-05-05T22:00:02Z</time>
      </trkpt>
      <trkpt lat="42.5913" lon="1.49532">
        <ele>2448.34</ele>
        <time>2016-05-05T22:00:22Z</time>
      </trkpt>
      <trkpt lat="42.59137" lon="1.49522">
        <ele>2446.488</ele>
        <time>2016-05-05T22:00:42Z</time>
      </trkpt>
      <trkpt lat="42.59143" lon="1.49514">
        <ele>2442.866</ele>
        <time>2016-05-05T22:01:02Z</time>
      </trkpt>
      <trkpt lat="42.5915" lon="1.49503">
        <ele>2437.594</ele>
        <time>2016-05-05T22:01:22Z</time>
      </trkpt>
      <trkpt lat="42.59158" lon="1.49497">
        <ele>2434.245</ele>
        <time>2016-05-05T22:01:42Z</time>
      </trkpt>
      <trkpt lat="42.59168" lon="1.49491">
        <ele>2431.163</ele>
        <time>2016-05-05T22:02:02Z</time>
      </trkpt>
      <trkpt lat="42.5918" lon="1.49488">
        <ele>2430.221</ele>
        <time>2016-05-05T22:02:22Z</time>
      </trkpt>
      <trkpt lat="42.59191" lon="1.49484">
        <ele>2428.267</ele>
        <time>2016-05-05T22:02:42Z</time>
      </trkpt>
      <trkpt lat="42.59199" lon="1.49476">
        <ele>2424.281</ele>
        <time>2016-05-05T22:03:02Z</time>
      </trkpt>
      <trkpt lat="42.59208" lon="1.49465">
        <ele>2419.019</ele>
        <time>2016-05-05T22:03:22Z</time>
      </trkpt>
      <trkpt lat="42.59218" lon="1.49457">
        <ele>2415.908</ele>
        <time>2016-05-05T22:03:42Z</time>
      </trkpt>
      <trkpt lat="42.5923" lon="1.49446">
        <ele>2411.317</ele>
        <time>2016-05-05T22:04:02Z</time>
      </trkpt>
      <trkpt lat="42.59237" lon="1.49435">
        <ele>2407.119</ele>
        <time>2016-05-05T22:04:22Z</time>
      </trkpt>
      <trkpt lat="42.59248" lon="1.49421">
        <ele>2401.637</ele>
        <time>2016-05-05T22:04:42Z</time>
      </trkpt>
      <trkpt lat="42.59258" lon="1.49402">
        <ele>2396.235</ele>
        <time>2016-05-05T22:05:02Z</time>
      </trkpt>
      <trkpt lat="42.59263" lon="1.49387">
        <ele>2390.033</ele>
        <time>2016-05-05T22:05:22Z</time>
      </trkpt>
      <trkpt lat="42.59271" lon="1.49379">
        <ele>2388.794</ele>
        <time>2016-05-05T22:05:42Z</time>
      </trkpt>
      <trkpt lat="42.59276" lon="1.49376">
        <ele>2388.952</ele>
        <time>2016-05-05T22:06:02Z</time>
      </trkpt>
      <trkpt lat="42.59279" lon="1.49366">
        <ele>2386.06</ele>
        <time>2016-05-05T22:06:22Z</time>
      </trkpt>
      <trkpt lat="42.59283" lon="1.49355">
        <ele>2383.976</ele>
        <time>2016-05-05T22:06:42Z</time>
      </trkpt>
      <trkpt lat="42.59286" lon="1.49345">
        <ele>2382.69</ele>
        <time>2016-05-05T22:07:02Z</time>
      </trkpt>
      <trkpt lat="42.59288" lon="1.49338">
        <ele>2381.419</ele>
        <time>2016-05-05T22:07:22Z</time>
      </trkpt>
      <trkpt lat="42.59289" lon="1.4933">
        <ele>2379.908</ele>
        <time>2016-05-05T22:07:42Z</time>
      </trkpt>
      <trkpt lat="42.59291" lon="1.4932">
        <ele>2378.828</ele>
        <time>2016-05-05T22:08:02Z</time>
      </trkpt>
      <trkpt lat="42.59293" lon="1.49312">
        <ele>2378.16</ele>
        <time>2016-05-05T22:08:22Z</time>
      </trkpt>
      <trkpt lat="42.59295" lon="1.49304">
        <ele>2377.358</ele>
        <time>2016-05-05T22:08:42Z</time>
      </trkpt>
      <trkpt lat="42.59298" lon="1.49296">
        <ele>2376.996</ele>
        <time>2016-05-05T22:09:02Z</time>
      </trkpt>
      <trkpt lat="42.59299" lon="1.49287">
        <ele>2375.544</ele>
        <time>2016-05-05T22:09:22Z</time>
      </trkpt>
      <trkpt lat="42.59297" lon="1.49279">
        <ele>2372.985</ele>
        <time>2016-05-05T22:09:42Z</time>
      </trkpt>
      <trkpt lat="42.59296" lon="1.49271">
        <ele>2372.043</ele>
        <time>2016-05-05T22:10:02Z</time>
      </trkpt>
      <trkpt lat="42.59297" lon="1.49265">
        <ele>2371.961</ele>
        <time>2016-05-05T22:10:22Z</time>
      </trkpt>
      <trkpt lat="42.59296" lon="1.49255">
        <ele>2370.731</ele>
        <time>2016-05-05T22:10:42Z</time>
      </trkpt>
      <trkpt lat="42.59296" lon="1.49245">
        <ele>2369.961</ele>
        <time>2016-05-05T22:11:02Z</time>
      </trkpt>
      <trkpt lat="42.59296" lon="1.49234">
        <ele>2369.007</ele>
        <time>2016-05-05T22:11:22Z</time>
      </trkpt>
      <trkpt lat="42.59294" lon="1.49226">
        <ele>2367.908</ele>
        <time>2016-05-05T22:11:42Z</time>
      </trkpt>
      <trkpt lat="42.59291" lon="1.49219">
        <ele>2365.844</ele>
        <time>2016-05-05T22:12:02Z</time>
      </trkpt>
      <trkpt lat="42.59287" lon="1.49211">
        <ele>2363.326</ele>
        <time>2016-05-05T22:12:22Z</time>
      </trkpt>
      <trkpt lat="42.59284" lon="1.49204">
        <ele>2361.014</ele>
        <time>2016-05-05T22:12:42Z</time>
      </trkpt>
      <trkpt lat="42.59283" lon="1.49194">
        <ele>2359.522</ele>
        <time>2016-05-05T22:13:02Z</time>
      </trkpt>
      <trkpt lat="42.59284" lon="1.49186">
        <ele>2358.38</ele>
        <time>2016-05-05T22:13:22Z</time>
      </trkpt>
      <trkpt lat="42.59285" lon="1.49178">
        <ele>2356.831</ele>
        <time>2016-05-05T22:13:42Z</time>
      </trkpt>
      <trkpt lat="42.59281" lon="1.49172">
        <ele>2354.289</ele>
        <time>2016-05-05T22:14:02Z</time>
      </trkpt>
      <trkpt lat="42.59275" lon="1.49169">
        <ele>2351.977</ele>
        <time>2016-05-05T22:14:22Z</time>
      </trkpt>
      <trkpt lat="42.59273" lon="1.4917">
        <ele>2351.463</ele>
        <time>2016-05-05T22:14:42Z</time>
      </trkpt>
      <trkpt lat="42.59269" lon="1.49168">
        <ele>2349.944</ele>
        <time>2016-05-05T22:15:02Z</time>
      </trkpt>
      <trkpt lat="42.5926" lon="1.49165">
        <ele>2347.618</ele>
        <time>2016-05-05T22:15:22Z</time>
      </trkpt>
      <trkpt lat="42.59252" lon="1.4916">
        <ele>2346.408</ele>
        <time>2016-05-05T22:15:42Z</time>
      </trkpt>
      <trkpt lat="42.59247" lon="1.49152">
        <ele>2345.397</ele>
        <time>2016-05-05T22:16:02Z</time>
      </trkpt>
      <trkpt lat="42.5924" lon="1.49155">
        <ele>2341.569</ele>
        <time>2016-05-05T22:16:22Z</time>
      </trkpt>
      <trkpt lat="42.59235" lon="1.49149">
        <ele>2339.887</ele>
        <time>2016-05-05T22:16:42Z</time>
      </trkpt>
      <trkpt lat="42.5923" lon="1.49139">
        <ele>2338.725</ele>
        <time>2016-05-05T22:17:02Z</time>
      </trkpt>
      <trkpt lat="42.59227" lon="1.4914">
        <ele>2337.213</ele>
        <time>2016-05-05T22:17:22Z</time>
      </trkpt>
      <trkpt lat="42.59229" lon="1.49149">
        <ele>2337.034</ele>
        <time>2016-05-05T22:17:42Z</time>
      </trkpt>
      <trkpt lat="42.59229" lon="1.49157">
        <ele>2335.642</ele>
        <time>2016-05-05T22:18:02Z</time>
      </trkpt>
      <trkpt lat="42.59227" lon="1.49166">
        <ele>2333.63</ele>
        <time>2016-05-05T22:18:22Z</time>
      </trkpt>
      <trkpt lat="42.59224" lon="1.49174">
        <ele>2331.732</ele>
        <time>2016-05-05T22:18:42Z</time>
      </trkpt>
      <trkpt lat="42.5922" lon="1.4918">
        <ele>2329.492</ele>
        <time>2016-05-05T22:19:02Z</time>
      </trkpt>
      <trkpt lat="42.59217" lon="1.49188">
        <ele>2327.411</ele>
        <time>2016-05-05T22:19:22Z</time>
      </trkpt>
      <trkpt lat="42.59215" lon="1.49197">
        <ele>2326.308</ele>
        <time>2016-05-05T22:19:42Z</time>
      </trkpt>
      <trkpt lat="42.59211" lon="1.49201">
        <ele>2324.954</ele>
        <time>2016-05-05T22:20:02Z</time>
      </trkpt>
      <trkpt lat="42.59204" lon="1.492">
        <ele>2321.416</ele>
        <time>2016-05-05T22:20:22Z</time>
      </trkpt>
      <trkpt lat="42.59197" lon="1.49201">
        <ele>2317.914</ele>
        <time>2016-05-05T22:20:42Z</time>
      </trkpt>
      <trkpt lat="42.59192" lon="1.49207">
        <ele>2316.542</ele>
        <time>2016-05-05T22:21:02Z</time>
      </trkpt>
      <trkpt lat="42.59188" lon="1.49208">
        <ele>2315.53</ele>
        <time>2016-05-05T22:21:22Z</time>
      </trkpt>
      <trkpt lat="42.59179" lon="1.49207">
        <ele>2312.771</ele>
        <time>2016-05-05T22:21:42Z</time>
      </trkpt>
      <trkpt lat="42.59176" lon="1.49199">
        <ele>2310.819</ele>
        <time>2016-05-05T22:22:02Z</time>
      </trkpt>
      <trkpt lat="42.59174" lon="1.49193">
        <ele>2309.397</ele>
        <time>2016-05-05T22:22:22Z</time>
      </trkpt>
      <trkpt lat="42.5917" lon="1.49187">
        <ele>2307.276</ele>
        <time>2016-05-05T22:22:42Z</time>
      </trkpt>
      <trkpt lat="42.59166" lon="1.49177">
        <ele>2304.39</ele>
        <time>2016-05-05T22:23:02Z</time>
      </trkpt>
      <trkpt lat="42.59159" lon="1.4917">
        <ele>2302.319</ele>
        <time>2016-05-05T22:23:22Z</time>
      </trkpt>
      <trkpt lat="42.59152" lon="1.49165">
        <ele>2301.108</ele>
        <time>2016-05-05T22:23:42Z</time>
      </trkpt>
      <trkpt lat="42.59145" lon="1.49158">
        <ele>2300.138</ele>
        <time>2016-05-05T22:24:02Z</time>
      </trkpt>
      <trkpt lat="42.59138" lon="1.49152">
        <ele>2298.95</ele>
        <time>2016-05-05T22:24:22Z</time>
      </trkpt>
      <trkpt lat="42.5913" lon="1.49142">
        <ele>2296.328</ele>
        <time>2016-05-05T22:24:42Z</time>
      </trkpt>
      <trkpt lat="42.5912" lon="1.49135">
        <ele>2292.886</ele>
        <time>2016-05-05T22:25:02Z</time>
      </trkpt>
      <trkpt lat="42.59115" lon="1.49129">
        <ele>2290.854</ele>
        <time>2016-05-05T22:25:22Z</time>
      </trkpt>
      <trkpt lat="42.59106" lon="1.49121">
        <ele>2287.015</ele>
        <time>2016-05-05T22:25:42Z</time>
      </trkpt>
      <trkpt lat="42.59097" lon="1.49118">
        <ele>2283.713</ele>
        <time>2016-05-05T22:26:02Z</time>
      </trkpt>
      <trkpt lat="42.59088" lon="1.49115">
        <ele>2280.041</ele>
        <time>2016-05-05T22:26:22Z</time>
      </trkpt>
      <trkpt lat="42.59077" lon="1.49107">
        <ele>2276.533</ele>
        <time>2016-05-05T22:26:42Z</time>
      </trkpt>
      <trkpt lat="42.5907" lon="1.49108">
        <ele>2274.723</ele>
        <time>2016-05-05T22:27:02Z</time>
      </trkpt>
      <trkpt lat="42.59061" lon="1.49107">
        <ele>2272.615</ele>
        <time>2016-05-05T22:27:22Z</time>
      </trkpt>
      <trkpt lat="42.59054" lon="1.49094">
        <ele>2271.208</ele>
        <time>2016-05-05T22:27:42Z</time>
      </trkpt>
      <trkpt lat="42.59048" lon="1.4909">
        <ele>2269.184</ele>
        <time>2016-05-05T22:28:02Z</time>
      </trkpt>
      <trkpt lat="42.59041" lon="1.49088">
        <ele>2267.036</ele>
        <time>2016-05-05T22:28:22Z</time>
      </trkpt>
      <trkpt lat="42.59034" lon="1.49085">
        <ele>2264.814</ele>
        <time>2016-05-05T22:28:42Z</time>
      </trkpt>
      <trkpt lat="42.59028" lon="1.4908">
        <ele>2262.512</ele>
        <time>2016-05-05T22:29:02Z</time>
      </trkpt>
      <trkpt lat="42.59023" lon="1.49078">
        <ele>2261.08</ele>
        <time>2016-05-05T22:29:22Z</time>
      </trkpt>
      <trkpt lat="42.59021" lon="1.49069">
        <ele>2258.971</ele>
        <time>2016-05-05T22:29:42Z</time>
      </trkpt>
      <trkpt lat="42.5902" lon="1.49058">
        <ele>2256.859</ele>
        <time>2016-05-05T22:30:02Z</time>
      </trkpt>
      <trkpt lat="42.59021" lon="1.49045">
        <ele>2253.217</ele>
        <time>2016-05-05T22:30:22Z</time>
      </trkpt>
      <trkpt lat="42.59021" lon="1.49035">
        <ele>2249.982</ele>
        <time>2016-05-05T22:30:42Z</time>
      </trkpt>
      <trkpt lat="42.59021" lon="1.49021">
        <ele>2246.843</ele>
        <time>2016-05-05T22:31:02Z</time>
      </trkpt>
      <trkpt lat="42.59017" lon="1.49013">
        <ele>2244.517</ele>
        <time>2016-05-05T22:31:22Z</time>
      </trkpt>
      <trkpt lat="42.59013" lon="1.49006">
        <ele>2241.908</ele>
        <time>2016-05-05T22:31:42Z</time>
      </trkpt>
      <trkpt lat="42.5901" lon="1.49">
        <ele>2239.659</ele>
        <time>2016-05-05T22:32:02Z</time>
      </trkpt>
      <trkpt lat="42.59005" lon="1.48992">
        <ele>2238.371</ele>
        <time>2016-05-05T22:32:22Z</time>
      </trkpt>
      <trkpt lat="42.58996" lon="1.48988">
        <ele>2235.089</ele>
        <time>2016-05-05T22:32:42Z</time>
      </trkpt>
      <trkpt lat="42.58988" lon="1.48984">
        <ele>2232.057</ele>
        <time>2016-05-05T22:33:02Z</time>
      </trkpt>
      <trkpt lat="42.5898" lon="1.48983">
        <ele>2229.235</ele>
        <time>2016-05-05T22:33:22Z</time>
      </trkpt>
      <trkpt lat="42.58971" lon="1.48982">
        <ele>2226.066</ele>
        <time>2016-05-05T22:33:42Z</time>
      </trkpt>
      <trkpt lat="42.58966" lon="1.4898">
        <ele>2224.164</ele>
        <time>2016-05-05T22:34:02Z</time>
      </trkpt>
      <trkpt lat="42.58956" lon="1.48978">
        <ele>2220.932</ele>
        <time>2016-05-05T22:34:22Z</time>
      </trkpt>
      <trkpt lat="42.58951" lon="1.48978">
        <ele>2219.144</ele>
        <time>2016-05-05T22:34:42Z</time>
      </trkpt>
      <trkpt lat="42.58945" lon="1.4897">
        <ele>2217.305</ele>
        <time>2016-05-05T22:35:02Z</time>
      </trkpt>
      <trkpt lat="42.58941" lon="1.48961">
        <ele>2216.315</ele>
        <time>2016-05-05T22:35:22Z</time>
      </trkpt>
      <trkpt lat="42.58937" lon="1.4895">
        <ele>2215.108</ele>
        <time>2016-05-05T22:35:42Z</time>
      </trkpt>
      <trkpt lat="42.58933" lon="1.48937">
        <ele>2213.455</ele>
        <time>2016-05-05T22:36:02Z</time>
      </trkpt>
      <trkpt lat="42.58927" lon="1.48928">
        <ele>2211.537</ele>
        <time>2016-05-05T22:36:22Z</time>
      </trkpt>
      <trkpt lat="42.58916" lon="1.48912">
        <ele>2207.595</ele>
        <time>2016-05-05T22:36:42Z</time>
      </trkpt>
      <trkpt lat="42.58911" lon="1.48898">
        <ele>2205.753</ele>
        <time>2016-05-05T22:37:02Z</time>
      </trkpt>
      <trkpt lat="42.58902" lon="1.48884">
        <ele>2202.841</ele>
        <time>2016-05-05T22:37:22Z</time>
      </trkpt>
      <trkpt lat="42.58898" lon="1.4887">
        <ele>2200.652</ele>
        <time>2016-05-05T22:37:42Z</time>
      </trkpt>
      <trkpt lat="42.5889" lon="1.48854">
        <ele>2197.22</ele>
        <time>2016-05-05T22:38:02Z</time>
      </trkpt>
      <trkpt lat="42.58879" lon="1.4885">
        <ele>2194.688</ele>
        <time>2016-05-05T22:38:22Z</time>
      </trkpt>
      <trkpt lat="42.58869" lon="1.48846">
        <ele>2192.394</ele>
        <time>2016-05-05T22:38:42Z</time>
      </trkpt>
      <trkpt lat="42.58863" lon="1.48835">
        <ele>2190.457</ele>
        <time>2016-05-05T22:39:02Z</time>
      </trkpt>
      <trkpt lat="42.5886" lon="1.48825">
        <ele>2188.722</ele>
        <time>2016-05-05T22:39:22Z</time>
      </trkpt>
      <trkpt lat="42.58864" lon="1.48807">
        <ele>2186.408</ele>
        <time>2016-05-05T22:39:42Z</time>
      </trkpt>
      <trkpt lat="42.58866" lon="1.48794">
        <ele>2184.15</ele>
        <time>2016-05-05T22:40:02Z</time>
      </trkpt>
      <trkpt lat="42.58867" lon="1.48786">
        <ele>2182.682</ele>
        <time>2016-05-05T22:40:22Z</time>
      </trkpt>
      <trkpt lat="42.58867" lon="1.48774">
        <ele>2180.98</ele>
        <time>2016-05-05T22:40:42Z</time>
      </trkpt>
      <trkpt lat="42.58862" lon="1.48762">
        <ele>2178.448</ele>
        <time>2016-05-05T22:41:02Z</time>
      </trkpt>
      <trkpt lat="42.58854" lon="1.48753">
        <ele>2175.876</ele>
        <time>2016-05-05T22:41:22Z</time>
      </trkpt>
      <trkpt lat="42.5885" lon="1.48746">
        <ele>2174.417</ele>
        <time>2016-05-05T22:41:42Z</time>
      </trkpt>
      <trkpt lat="42.5884" lon="1.48738">
        <ele>2171.565</ele>
        <time>2016-05-05T22:42:02Z</time>
      </trkpt>
      <trkpt lat="42.58832" lon="1.48732">
        <ele>2168.373</ele>
        <time>2016-05-05T22:42:22Z</time>
      </trkpt>
      <trkpt lat="42.58823" lon="1.48722">
        <ele>2163.329</ele>
        <time>2016-05-05T22:42:42Z</time>
      </trkpt>
      <trkpt lat="42.58809" lon="1.48715">
        <ele>2157.6</ele>
        <time>2016-05-05T22:43:02Z</time>
      </trkpt>
      <trkpt lat="42.58803" lon="1.48708">
        <ele>2155.32</ele>
        <time>2016-05-05T22:43:22Z</time>
      </trkpt>
      <trkpt lat="42.58791" lon="1.48701">
        <ele>2151.508</ele>
        <time>2016-05-05T22:43:42Z</time>
      </trkpt>
      <trkpt lat="42.58783" lon="1.48695">
        <ele>2148.613</ele>
        <time>2016-05-05T22:44:02Z</time>
      </trkpt>
      <trkpt lat="42.58771" lon="1.48685">
        <ele>2143.535</ele>
        <time>2016-05-05T22:44:22Z</time>
      </trkpt>
      <trkpt lat="42.5876" lon="1.48684">
        <ele>2141.493</ele>
        <time>2016-05-05T22:44:42Z</time>
      </trkpt>
      <trkpt lat="42.58743" lon="1.48682">
        <ele>2137.621</ele>
        <time>2016-05-05T22:45:02Z</time>
      </trkpt>
      <trkpt lat="42.58729" lon="1.48684">
        <ele>2134.599</ele>
        <time>2016-05-05T22:45:22Z</time>
      </trkpt>
      <trkpt lat="42.5872" lon="1.48687">
        <ele>2132.51</ele>
        <time>2016-05-05T22:45:42Z</time>
      </trkpt>
      <trkpt lat="42.58707" lon="1.48691">
        <ele>2129.628</ele>
        <time>2016-05-05T22:46:02Z</time>
      </trkpt>
      <trkpt lat="42.58698" lon="1.48696">
        <ele>2128.176</ele>
        <time>2016-05-05T22:46:22Z</time>
      </trkpt>
      <trkpt lat="42.58694" lon="1.48702">
        <ele>2127.465</ele>
        <time>2016-05-05T22:46:42Z</time>
      </trkpt>
      <trkpt lat="42.58686" lon="1.4869">
        <ele>2122.268</ele>
        <time>2016-05-05T22:47:02Z</time>
      </trkpt>
      <trkpt lat="42.58685" lon="1.48681">
        <ele>2119.014</ele>
        <time>2016-05-05T22:47:22Z</time>
      </trkpt>
      <trkpt lat="42.58676" lon="1.48676">
        <ele>2113.908</ele>
        <time>2016-05-05T22:47:42Z</time>
      </trkpt>
      <trkpt lat="42.58666" lon="1.48675">
        <ele>2109.977</ele>
        <time>2016-05-05T22:48:02Z</time>
      </trkpt>
      <trkpt lat="42.58652" lon="1.48678">
        <ele>2102.729</ele>
        <time>2016-05-05T22:48:22Z</time>
      </trkpt>
      <trkpt lat="42.58644" lon="1.48666">
        <ele>2096.587</ele>
        <time>2016-05-05T22:48:42Z</time>
      </trkpt>
      <trkpt lat="42.58638" lon="1.48657">
        <ele>2091.145</ele>
        <time>2016-05-05T22:49:02Z</time>
      </trkpt>
      <trkpt lat="42.58633" lon="1.4865">
        <ele>2087.373</ele>
        <time>2016-05-05T22:49:22Z</time>
      </trkpt>
      <trkpt lat="42.5862" lon="1.48653">
        <ele>2081.274</ele>
        <time>2016-05-05T22:49:42Z</time>
      </trkpt>
      <trkpt lat="42.58608" lon="1.4866">
        <ele>2076.362</ele>
        <time>2016-05-05T22:50:02Z</time>
      </trkpt>
      <trkpt lat="42.58592" lon="1.48661">
        <ele>2071.01</ele>
        <time>2016-05-05T22:50:22Z</time>
      </trkpt>
      <trkpt lat="42.58584" lon="1.48651">
        <ele>2066.944</ele>
        <time>2016-05-05T22:50:42Z</time>
      </trkpt>
      <trkpt lat="42.58574" lon="1.48638">
        <ele>2062.105</ele>
        <time>2016-05-05T22:51:02Z</time>
      </trkpt>
      <trkpt lat="42.5856" lon="1.4864">
        <ele>2058.515</ele>
        <time>2016-05-05T22:51:22Z</time>
      </trkpt>
      <trkpt lat="42.58553" lon="1.48647">
        <ele>2056.608</ele>
        <time>2016-05-05T22:51:42Z</time>
      </trkpt>
      <trkpt lat="42.5854" lon="1.48655">
        <ele>2051.165</ele>
        <time>2016-05-05T22:52:02Z</time>
      </trkpt>
      <trkpt lat="42.58528" lon="1.48664">
        <ele>2045.157</ele>
        <time>2016-05-05T22:52:22Z</time>
      </trkpt>
      <trkpt lat="42.58526" lon="1.48654">
        <ele>2043.775</ele>
        <time>2016-05-05T22:52:42Z</time>
      </trkpt>
      <trkpt lat="42.58523" lon="1.48648">
        <ele>2041.933</ele>
        <time>2016-05-05T22:53:02Z</time>
      </trkpt>
      <trkpt lat="42.58519" lon="1.48652">
        <ele>2039.821</ele>
        <time>2016-05-05T22:53:22Z</time>
      </trkpt>
      <trkpt lat="42.58514" lon="1.48655">
        <ele>2036.942</ele>
        <time>2016-05-05T22:53:42Z</time>
      </trkpt>
      <trkpt lat="42.5851" lon="1.48662">
        <ele>2034.76</ele>
        <time>2016-05-05T22:54:02Z</time>
      </trkpt>
      <trkpt lat="42.58505" lon="1.48659">
        <ele>2031.958</ele>
        <time>2016-05-05T22:54:22Z</time>
      </trkpt>
      <trkpt lat="42.585" lon="1.48653">
        <ele>2028.696</ele>
        <time>2016-05-05T22:54:42Z</time>
      </trkpt>
      <trkpt lat="42.58493" lon="1.48649">
        <ele>2025.231</ele>
        <time>2016-05-05T22:55:02Z</time>
      </trkpt>
      <trkpt lat="42.58487" lon="1.48645">
        <ele>2022.224</ele>
        <time>2016-05-05T22:55:22Z</time>
      </trkpt>
      <trkpt lat="42.58481" lon="1.48643">
        <ele>2019.408</ele>
        <time>2016-05-05T22:55:42Z</time>
      </trkpt>
      <trkpt lat="42.58476" lon="1.4864">
        <ele>2016.71</ele>
        <time>2016-05-05T22:56:02Z</time>
      </trkpt>
      <trkpt lat="42.58471" lon="1.48639">
        <ele>2014.422</ele>
        <time>2016-05-05T22:56:22Z</time>
      </trkpt>
      <trkpt lat="42.5846" lon="1.48638">
        <ele>2009.62</ele>
        <time>2016-05-05T22:56:42Z</time>
      </trkpt>
      <trkpt lat="42.58455" lon="1.48634">
        <ele>2007.478</ele>
        <time>2016-05-05T22:57:02Z</time>
      </trkpt>
      <trkpt lat="42.58457" lon="1.48628">
        <ele>2007.946</ele>
        <time>2016-05-05T22:57:22Z</time>
      </trkpt>
      <trkpt lat="42.58459" lon="1.48621">
        <ele>2008.247</ele>
        <time>2016-05-05T22:57:42Z</time>
      </trkpt>
      <trkpt lat="42.58463" lon="1.48614">
        <ele>2009.525</ele>
        <time>2016-05-05T22:58:02Z</time>
      </trkpt>
      <trkpt lat="42.58467" lon="1.48608">
        <ele>2010.363</ele>
        <time>2016-05-05T22:58:22Z</time>
      </trkpt>
      <trkpt lat="42.58471" lon="1.48603">
        <ele>2010.695</ele>
        <time>2016-05-05T22:58:42Z</time>
      </trkpt>
      <trkpt lat="42.58475" lon="1.48597">
        <ele>2011.049</ele>
        <time>2016-05-05T22:59:02Z</time>
      </trkpt>
      <trkpt lat="42.58479" lon="1.48592">
        <ele>2011.823</ele>
        <time>2016-05-05T22:59:22Z</time>
      </trkpt>
      <trkpt lat="42.58483" lon="1.48587">
        <ele>2012.908</ele>
        <time>2016-05-05T22:59:42Z</time>
      </trkpt>
      <trkpt lat="42.58487" lon="1.48582">
        <ele>2013.98</ele>
        <time>2016-05-05T23:00:02Z</time>
      </trkpt>
      <trkpt lat="42.58489" lon="1.48577">
        <ele>2013.682</ele>
        <time>2016-05-05T23:00:22Z</time>
      </trkpt>
      <trkpt lat="42.58492" lon="1.48571">
        <ele>2014.59</ele>
        <time>2016-05-05T23:00:42Z</time>
      </trkpt>
      <trkpt lat="42.58496" lon="1.48565">
        <ele>2015.318</ele>
        <time>2016-05-05T23:01:02Z</time>
      </trkpt>
      <trkpt lat="42.58497" lon="1.48558">
        <ele>2014.716</ele>
        <time>2016-05-05T23:01:22Z</time>
      </trkpt>
      <trkpt lat="42.58501" lon="1.48551">
        <ele>2015.777</ele>
        <time>2016-05-05T23:01:42Z</time>
      </trkpt>
      <trkpt lat="42.58504" lon="1.48545">
        <ele>2016.085</ele>
        <time>2016-05-05T23:02:02Z</time>
      </trkpt>
      <trkpt lat="42.58506" lon="1.48538">
        <ele>2015.583</ele>
        <time>2016-05-05T23:02:22Z</time>
      </trkpt>
      <trkpt lat="42.58509" lon="1.48532">
        <ele>2015.498</ele>
        <time>2016-05-05T23:02:42Z</time>
      </trkpt>
      <trkpt lat="42.58514" lon="1.48528">
        <ele>2015.915</ele>
        <time>2016-05-05T23:03:02Z</time>
      </trkpt>
      <trkpt lat="42.58516" lon="1.48526">
        <ele>2016.326</ele>
        <time>2016-05-05T23:03:22Z</time>
      </trkpt>
      <trkpt lat="42.58518" lon="1.48525">
        <ele>2016.408</ele>
        <time>2016-05-05T23:03:42Z</time>
      </trkpt>
      <trkpt lat="42.58519" lon="1.48523">
        <ele>2016.53</ele>
        <time>2016-05-05T23:04:02Z</time>
      </trkpt>
      <trkpt lat="42.58521" lon="1.48522">
        <ele>2016.842</ele>
        <time>2016-05-05T23:04:22Z</time>
      </trkpt>
      <trkpt lat="42.58522" lon="1.4852">
        <ele>2016.92</ele>
        <time>2016-05-05T23:04:42Z</time>
      </trkpt>
      <trkpt lat="42.58524" lon="1.48518">
        <ele>2016.848</ele>
        <time>2016-05-05T23:05:02Z</time>
      </trkpt>
      <trkpt lat="42.58525" lon="1.48517">
        <ele>2017.156</ele>
        <time>2016-05-05T23:05:22Z</time>
      </trkpt>
      <trkpt lat="42.58527" lon="1.48516">
        <ele>2017.457</ele>
        <time>2016-05-05T23:05:42Z</time>
      </trkpt>
      <trkpt lat="42.5853" lon="1.48515">
        <ele>2017.645</ele>
        <time>2016-05-05T23:06:02Z</time>
      </trkpt>
      <trkpt lat="42.58531" lon="1.48513">
        <ele>2017.633</ele>
        <time>2016-05-05T23:06:22Z</time>
      </trkpt>
      <trkpt lat="42.58533" lon="1.48512">
        <ele>2017.892</ele>
        <time>2016-05-05T23:06:42Z</time>
      </trkpt>
      <trkpt lat="42.58534" lon="1.48511">
        <ele>2017.873</ele>
        <time>2016-05-05T23:07:02Z</time>
      </trkpt>
      <trkpt lat="42.58536" lon="1.4851">
        <ele>2018.02</ele>
        <time>2016-05-05T23:07:22Z</time>
      </trkpt>
      <trkpt lat="42.58537" lon="1.48508">
        <ele>2017.908</ele>
        <time>2016-05-05T23:07:42Z</time>
      </trkpt>
      <trkpt lat="42.5854" lon="1.48507">
        <ele>2018.27</ele>
        <time>2016-05-05T23:08:02Z</time>
      </trkpt>
      <trkpt lat="42.58542" lon="1.48506">
        <ele>2018.312</ele>
        <time>2016-05-05T23:08:22Z</time>
      </trkpt>
      <trkpt lat="42.58543" lon="1.48505">
        <ele>2018.48</ele>
        <time>2016-05-05T23:08:42Z</time>
      </trkpt>
      <trkpt lat="42.58545" lon="1.48503">
        <ele>2018.528</ele>
        <time>2016-05-05T23:09:02Z</time>
      </trkpt>
      <trkpt lat="42.58548" lon="1.48502">
        <ele>2018.776</ele>
        <time>2016-05-05T23:09:22Z</time>
      </trkpt>
      <trkpt lat="42.5855" lon="1.485">
        <ele>2018.897</ele>
        <time>2016-05-05T23:09:42Z</time>
      </trkpt>
      <trkpt lat="42.58551" lon="1.48499">
        <ele>2018.885</ele>
        <time>2016-05-05T23:10:02Z</time>
      </trkpt>
      <trkpt lat="42.58554" lon="1.48497">
        <ele>2019.113</ele>
        <time>2016-05-05T23:10:22Z</time>
      </trkpt>
      <trkpt lat="42.58556" lon="1.48496">
        <ele>2019.184</ele>
        <time>2016-05-05T23:10:42Z</time>
      </trkpt>
      <trkpt lat="42.58559" lon="1.48494">
        <ele>2019.007</ele>
        <time>2016-05-05T23:11:02Z</time>
      </trkpt>
      <trkpt lat="42.58561" lon="1.48493">
        <ele>2019.017</ele>
        <time>2016-05-05T23:11:22Z</time>
      </trkpt>
      <trkpt lat="42.58564" lon="1.48491">
        <ele>2018.908</ele>
        <time>2016-05-05T23:11:42Z</time>
      </trkpt>
      <trkpt lat="42.58566" lon="1.48491">
        <ele>2019.129</ele>
        <time>2016-05-05T23:12:02Z</time>
      </trkpt>
      <trkpt lat="42.58568" lon="1.48492">
        <ele>2019.441</ele>
        <time>2016-05-05T23:12:22Z</time>
      </trkpt>
      <trkpt lat="42.58571" lon="1.48492">
        <ele>2019.829</ele>
        <time>2016-05-05T23:12:42Z</time>
      </trkpt>
      <trkpt lat="42.58573" lon="1.48494">
        <ele>2020.247</ele>
        <time>2016-05-05T23:13:02Z</time>
      </trkpt>
      <trkpt lat="42.58575" lon="1.48494">
        <ele>2020.445</ele>
        <time>2016-05-05T23:13:22Z</time>
      </trkpt>
      <trkpt lat="42.58578" lon="1.48494">
        <ele>2020.726</ele>
        <time>2016-05-05T23:13:42Z</time>
      </trkpt>
      <trkpt lat="42.5858" lon="1.48494">
        <ele>2020.954</ele>
        <time>2016-05-05T23:14:02Z</time>
      </trkpt>
      <trkpt lat="42.58583" lon="1.48495">
        <ele>2021.252</ele>
        <time>2016-05-05T23:14:22Z</time>
      </trkpt>
      <trkpt lat="42.58586" lon="1.48496">
        <ele>2021.863</ele>
        <time>2016-05-05T23:14:42Z</time>
      </trkpt>
      <trkpt lat="42.58588" lon="1.48496">
        <ele>2022.244</ele>
        <time>2016-05-05T23:15:02Z</time>
      </trkpt>
      <trkpt lat="42.58591" lon="1.48497">
        <ele>2022.618</ele>
        <time>2016-05-05T23:15:22Z</time>
      </trkpt>
      <trkpt lat="42.58593" lon="1.48495">
        <ele>2022.808</ele>
        <time>2016-05-05T23:15:42Z</time>
      </trkpt>
      <trkpt lat="42.58595" lon="1.48493">
        <ele>2022.887</ele>
        <time>2016-05-05T23:16:02Z</time>
      </trkpt>
      <trkpt lat="42.58598" lon="1.4849">
        <ele>2023.079</ele>
        <time>2016-05-05T23:16:22Z</time>
      </trkpt>
      <trkpt lat="42.586" lon="1.48487">
        <ele>2023.157</ele>
        <time>2016-05-05T23:16:42Z</time>
      </trkpt>
      <trkpt lat="42.58603" lon="1.48484">
        <ele>2023.335</ele>
        <time>2016-05-05T23:17:02Z</time>
      </trkpt>
      <trkpt lat="42.58606" lon="1.48482">
        <ele>2023.723</ele>
        <time>2016-05-05T23:17:22Z</time>
      </trkpt>
      <trkpt lat="42.58609" lon="1.4848">
        <ele>2024.064</ele>
        <time>2016-05-05T23:17:42Z</time>
      </trkpt>
      <trkpt lat="42.58611" lon="1.48477">
        <ele>2024.482</ele>
        <time>2016-05-05T23:18:02Z</time>
      </trkpt>
      <trkpt lat="42.58614" lon="1.48474">
        <ele>2024.66</ele>
        <time>2016-05-05T23:18:22Z</time>
      </trkpt>
      <trkpt lat="42.58616" lon="1.48472">
        <ele>2024.985</ele>
        <time>2016-05-05T23:18:42Z</time>
      </trkpt>
      <trkpt lat="42.5862" lon="1.4847">
        <ele>2025.489</ele>
        <time>2016-05-05T23:19:02Z</time>
      </trkpt>
      <trkpt lat="42.58623" lon="1.48468">
        <ele>2025.717</ele>
        <time>2016-05-05T23:19:22Z</time>
      </trkpt>
      <trkpt lat="42.58625" lon="1.48466">
        <ele>2026.008</ele>
        <time>2016-05-05T23:19:42Z</time>
      </trkpt>
      <trkpt lat="42.58629" lon="1.48465">
        <ele>2026.479</ele>
        <time>2016-05-05T23:20:02Z</time>
      </trkpt>
      <trkpt lat="42.58633" lon="1.48464">
        <ele>2026.931</ele>
        <time>2016-05-05T23:20:22Z</time>
      </trkpt>
      <trkpt lat="42.58636" lon="1.48463">
        <ele>2027.339</ele>
        <time>2016-05-05T23:20:42Z</time>
      </trkpt>
      <trkpt lat="42.58641" lon="1.48461">
        <ele>2027.467</ele>
        <time>2016-05-05T23:21:02Z</time>
      </trkpt>
      <trkpt lat="42.58644" lon="1.48458">
        <ele>2027.335</ele>
        <time>2016-05-05T23:21:22Z</time>
      </trkpt>
      <trkpt lat="42.58648" lon="1.48458">
        <ele>2027.496</ele>
        <time>2016-05-05T23:21:42Z</time>
      </trkpt>
      <trkpt lat="42.58651" lon="1.48456">
        <ele>2027.314</ele>
        <time>2016-05-05T23:22:02Z</time>
      </trkpt>
      <trkpt lat="42.58655" lon="1.48454">
        <ele>2027.442</ele>
        <time>2016-05-05T23:22:22Z</time>
      </trkpt>
      <trkpt lat="42.58659" lon="1.48453">
        <ele>2027.555</ele>
        <time>2016-05-05T23:22:42Z</time>
      </trkpt>
      <trkpt lat="42.58663" lon="1.48452">
        <ele>2027.507</ele>
        <time>2016-05-05T23:23:02Z</time>
      </trkpt>
      <trkpt lat="42.58668" lon="1.48451">
        <ele>2027.817</ele>
        <time>2016-05-05T23:23:22Z</time>
      </trkpt>
      <trkpt lat="42.5867" lon="1.4845">
        <ele>2027.908</ele>
        <time>2016-05-05T23:23:42Z</time>
      </trkpt>
      <trkpt lat="42.58672" lon="1.48449">
        <ele>2028.086</ele>
        <time>2016-05-05T23:24:02Z</time>
      </trkpt>
      <trkpt lat="42.58675" lon="1.48448">
        <ele>2028.198</ele>
        <time>2016-05-05T23:24:22Z</time>
      </trkpt>
      <trkpt lat="42.58676" lon="1.48447">
        <ele>2028.026</ele>
        <time>2016-05-05T23:24:42Z</time>
      </trkpt>
      <trkpt lat="42.58679" lon="1.48445">
        <ele>2028.084</ele>
        <time>2016-05-05T23:25:02Z</time>
      </trkpt>
      <trkpt lat="42.58681" lon="1.48444">
        <ele>2028.012</ele>
        <time>2016-05-05T23:25:22Z</time>
      </trkpt>
      <trkpt lat="42.58683" lon="1.48445">
        <ele>2028.393</ele>
        <time>2016-05-05T23:25:42Z</time>
      </trkpt>
      <trkpt lat="42.58686" lon="1.48446">
        <ele>2028.651</ele>
        <time>2016-05-05T23:26:02Z</time>
      </trkpt>
      <trkpt lat="42.58689" lon="1.48447">
        <ele>2029.049</ele>
        <time>2016-05-05T23:26:22Z</time>
      </trkpt>
      <trkpt lat="42.58693" lon="1.48446">
        <ele>2029.383</ele>
        <time>2016-05-05T23:26:42Z</time>
      </trkpt>
      <trkpt lat="42.58695" lon="1.48447">
        <ele>2029.625</ele>
        <time>2016-05-05T23:27:02Z</time>
      </trkpt>
      <trkpt lat="42.58699" lon="1.48448">
        <ele>2030.117</ele>
        <time>2016-05-05T23:27:22Z</time>
      </trkpt>
      <trkpt lat="42.58702" lon="1.48448">
        <ele>2030.508</ele>
        <time>2016-05-05T23:27:42Z</time>
      </trkpt>
      <trkpt lat="42.58704" lon="1.48447">
        <ele>2030.559</ele>
        <time>2016-05-05T23:28:02Z</time>
      </trkpt>
      <trkpt lat="42.58707" lon="1.48448">
        <ele>2030.981</ele>
        <time>2016-05-05T23:28:22Z</time>
      </trkpt>
      <trkpt lat="42.5871" lon="1.48447">
        <ele>2031.099</ele>
        <time>2016-05-05T23:28:42Z</time>
      </trkpt>
      <trkpt lat="42.58713" lon="1.48447">
        <ele>2031.147</ele>
        <time>2016-05-05T23:29:02Z</time>
      </trkpt>
      <trkpt lat="42.58716" lon="1.48447">
        <ele>2031.395</ele>
        <time>2016-05-05T23:29:22Z</time>
      </trkpt>
      <trkpt lat="42.58719" lon="1.48446">
        <ele>2031.396</ele>
        <time>2016-05-05T23:29:42Z</time>
      </trkpt>
      <trkpt lat="42.58721" lon="1.48446">
        <ele>2031.544</ele>
        <time>2016-05-05T23:30:02Z</time>
      </trkpt>
      <trkpt lat="42.58723" lon="1.48447">
        <ele>2032.062</ele>
        <time>2016-05-05T23:30:22Z</time>
      </trkpt>
      <trkpt lat="42.58725" lon="1.48448">
        <ele>2032.975</ele>
        <time>2016-05-05T23:30:42Z</time>
      </trkpt>
      <trkpt lat="42.58728" lon="1.48447">
        <ele>2033.028</ele>
        <time>2016-05-05T23:31:02Z</time>
      </trkpt>
      <trkpt lat="42.5873" lon="1.48444">
        <ele>2032.22</ele>
        <time>2016-05-05T23:31:22Z</time>
      </trkpt>
      <trkpt lat="42.58732" lon="1.48442">
        <ele>2031.608</ele>
        <time>2016-05-05T23:31:42Z</time>
      </trkpt>
      <trkpt lat="42.58734" lon="1.4844">
        <ele>2031.118</ele>
        <time>2016-05-05T23:32:02Z</time>
      </trkpt>
      <trkpt lat="42.58736" lon="1.4844">
        <ele>2031.45</ele>
        <time>2016-05-05T23:32:22Z</time>
      </trkpt>
      <trkpt lat="42.58738" lon="1.4844">
        <ele>2032.228</ele>
        <time>2016-05-05T23:32:42Z</time>
      </trkpt>
      <trkpt lat="42.58741" lon="1.48441">
        <ele>2033.266</ele>
        <time>2016-05-05T23:33:02Z</time>
      </trkpt>
      <trkpt lat="42.58745" lon="1.48443">
        <ele>2034.474</ele>
        <time>2016-05-05T23:33:22Z</time>
      </trkpt>
      <trkpt lat="42.58747" lon="1.48439">
        <ele>2033.065</ele>
        <time>2016-05-05T23:33:42Z</time>
      </trkpt>
      <trkpt lat="42.58749" lon="1.48436">
        <ele>2032.483</ele>
        <time>2016-05-05T23:34:02Z</time>
      </trkpt>
      <trkpt lat="42.58752" lon="1.48434">
        <ele>2032.481</ele>
        <time>2016-05-05T23:34:22Z</time>
      </trkpt>
      <trkpt lat="42.58754" lon="1.48433">
        <ele>2032.659</ele>
        <time>2016-05-05T23:34:42Z</time>
      </trkpt>
      <trkpt lat="42.58756" lon="1.48431">
        <ele>2032.803</ele>
        <time>2016-05-05T23:35:02Z</time>
      </trkpt>
      <trkpt lat="42.58759" lon="1.48429">
        <ele>2032.923</ele>
        <time>2016-05-05T23:35:22Z</time>
      </trkpt>
      <trkpt lat="42.58762" lon="1.48428">
        <ele>2033.608</ele>
        <time>2016-05-05T23:35:42Z</time>
      </trkpt>
      <trkpt lat="42.58766" lon="1.48427">
        <ele>2034.586</ele>
        <time>2016-05-05T23:36:02Z</time>
      </trkpt>
      <trkpt lat="42.58768" lon="1.48426">
        <ele>2034.988</ele>
        <time>2016-05-05T23:36:22Z</time>
      </trkpt>
      <trkpt lat="42.58771" lon="1.48424">
        <ele>2035.356</ele>
        <time>2016-05-05T23:36:42Z</time>
      </trkpt>
      <trkpt lat="42.58773" lon="1.4842">
        <ele>2034.584</ele>
        <time>2016-05-05T23:37:02Z</time>
      </trkpt>
      <trkpt lat="42.58775" lon="1.48416">
        <ele>2033.732</ele>
        <time>2016-05-05T23:37:22Z</time>
      </trkpt>
      <trkpt lat="42.58778" lon="1.48412">
        <ele>2033.223</ele>
        <time>2016-05-05T23:37:42Z</time>
      </trkpt>
      <trkpt lat="42.58781" lon="1.48406">
        <ele>2032.271</ele>
        <time>2016-05-05T23:38:02Z</time>
      </trkpt>
      <trkpt lat="42.58782" lon="1.48405">
        <ele>2032.219</ele>
        <time>2016-05-05T23:38:22Z</time>
      </trkpt>
      <trkpt lat="42.58784" lon="1.48402">
        <ele>2031.878</ele>
        <time>2016-05-05T23:38:42Z</time>
      </trkpt>
      <trkpt lat="42.58787" lon="1.48398">
        <ele>2031.233</ele>
        <time>2016-05-05T23:39:02Z</time>
      </trkpt>
      <trkpt lat="42.58788" lon="1.48394">
        <ele>2030.026</ele>
        <time>2016-05-05T23:39:22Z</time>
      </trkpt>
      <trkpt lat="42.5879" lon="1.48391">
        <ele>2029.608</ele>
        <time>2016-05-05T23:39:42Z</time>
      </trkpt>
      <trkpt lat="42.58793" lon="1.48389">
        <ele>2029.728</ele>
        <time>2016-05-05T23:40:02Z</time>
      </trkpt>
      <trkpt lat="42.58795" lon="1.48387">
        <ele>2030.27</ele>
        <time>2016-05-05T23:40:22Z</time>
      </trkpt>
      <trkpt lat="42.58797" lon="1.48385">
        <ele>2030.788</ele>
        <time>2016-05-05T23:40:42Z</time>
      </trkpt>
      <trkpt lat="42.58801" lon="1.48385">
        <ele>2031.616</ele>
        <time>2016-05-05T23:41:02Z</time>
      </trkpt>
      <trkpt lat="42.58803" lon="1.48383">
        <ele>2032.034</ele>
        <time>2016-05-05T23:41:22Z</time>
      </trkpt>
      <trkpt lat="42.58805" lon="1.48382">
        <ele>2032.615</ele>
        <time>2016-05-05T23:41:42Z</time>
      </trkpt>
      <trkpt lat="42.58808" lon="1.48381">
        <ele>2033.363</ele>
        <time>2016-05-05T23:42:02Z</time>
      </trkpt>
      <trkpt lat="42.5881" lon="1.4838">
        <ele>2033.831</ele>
        <time>2016-05-05T23:42:22Z</time>
      </trkpt>
      <trkpt lat="42.58811" lon="1.48379">
        <ele>2034.187</ele>
        <time>2016-05-05T23:42:42Z</time>
      </trkpt>
      <trkpt lat="42.58814" lon="1.48377">
        <ele>2034.642</ele>
        <time>2016-05-05T23:43:02Z</time>
      </trkpt>
      <trkpt lat="42.58815" lon="1.48374">
        <ele>2034.726</ele>
        <time>2016-05-05T23:43:22Z</time>
      </trkpt>
      <trkpt lat="42.58817" lon="1.4837">
        <ele>2034.808</ele>
        <time>2016-05-05T23:43:42Z</time>
      </trkpt>
      <trkpt lat="42.5882" lon="1.48366">
        <ele>2035.029</ele>
        <time>2016-05-05T23:44:02Z</time>
      </trkpt>
      <trkpt lat="42.58821" lon="1.48363">
        <ele>2035.021</ele>
        <time>2016-05-05T23:44:22Z</time>
      </trkpt>
      <trkpt lat="42.58823" lon="1.4836">
        <ele>2035.489</ele>
        <time>2016-05-05T23:44:42Z</time>
      </trkpt>
      <trkpt lat="42.58825" lon="1.48356">
        <ele>2036.327</ele>
        <time>2016-05-05T23:45:02Z</time>
      </trkpt>
      <trkpt lat="42.58825" lon="1.48351">
        <ele>2037.045</ele>
        <time>2016-05-05T23:45:22Z</time>
      </trkpt>
      <trkpt lat="42.58826" lon="1.48346">
        <ele>2037.886</ele>
        <time>2016-05-05T23:45:42Z</time>
      </trkpt>
      <trkpt lat="42.58826" lon="1.48342">
        <ele>2038.214</ele>
        <time>2016-05-05T23:46:02Z</time>
      </trkpt>
      <trkpt lat="42.58827" lon="1.48338">
        <ele>2038.812</ele>
        <time>2016-05-05T23:46:22Z</time>
      </trkpt>
      <trkpt lat="42.58827" lon="1.48334">
        <ele>2039.389</ele>
        <time>2016-05-05T23:46:42Z</time>
      </trkpt>
      <trkpt lat="42.58827" lon="1.4833">
        <ele>2039.606</ele>
        <time>2016-05-05T23:47:02Z</time>
      </trkpt>
      <trkpt lat="42.58826" lon="1.48328">
        <ele>2039.826</ele>
        <time>2016-05-05T23:47:22Z</time>
      </trkpt>
      <trkpt lat="42.58825" lon="1.48323">
        <ele>2040.208</ele>
        <time>2016-05-05T23:47:42Z</time>
      </trkpt>
      <trkpt lat="42.58824" lon="1.4832">
        <ele>2040.269</ele>
        <time>2016-05-05T23:48:02Z</time>
      </trkpt>
      <trkpt lat="42.58823" lon="1.48317">
        <ele>2040.561</ele>
        <time>2016-05-05T23:48:22Z</time>
      </trkpt>
      <trkpt lat="42.58822" lon="1.48312">
        <ele>2040.939</ele>
        <time>2016-05-05T23:48:42Z</time>
      </trkpt>
      <trkpt lat="42.58821" lon="1.48309">
        <ele>2040.917</ele>
        <time>2016-05-05T23:49:02Z</time>
      </trkpt>
      <trkpt lat="42.5882" lon="1.48305">
        <ele>2041.225</ele>
        <time>2016-05-05T23:49:22Z</time>
      </trkpt>
      <trkpt lat="42.58819" lon="1.48301">
        <ele>2042.226</ele>
        <time>2016-05-05T23:49:42Z</time>
      </trkpt>
      <trkpt lat="42.58818" lon="1.48296">
        <ele>2043.124</ele>
        <time>2016-05-05T23:50:02Z</time>
      </trkpt>
      <trkpt lat="42.58817" lon="1.48292">
        <ele>2044.142</ele>
        <time>2016-05-05T23:50:22Z</time>
      </trkpt>
      <trkpt lat="42.58815" lon="1.48287">
        <ele>2044.896</ele>
        <time>2016-05-05T23:50:42Z</time>
      </trkpt>
      <trkpt lat="42.58814" lon="1.48282">
        <ele>2045.731</ele>
        <time>2016-05-05T23:51:02Z</time>
      </trkpt>
      <trkpt lat="42.58812" lon="1.48278">
        <ele>2046.024</ele>
        <time>2016-05-05T23:51:22Z</time>
      </trkpt>
      <trkpt lat="42.5881" lon="1.48274">
        <ele>2046.708</ele>
        <time>2016-05-05T23:51:42Z</time>
      </trkpt>
      <trkpt lat="42.58808" lon="1.4827">
        <ele>2047.26</ele>
        <time>2016-05-05T23:52:02Z</time>
      </trkpt>
      <trkpt lat="42.58806" lon="1.48267">
        <ele>2047.472</ele>
        <time>2016-05-05T23:52:22Z</time>
      </trkpt>
      <trkpt lat="42.58805" lon="1.48263">
        <ele>2048.24</ele>
        <time>2016-05-05T23:52:42Z</time>
      </trkpt>
      <trkpt lat="42.58804" lon="1.4826">
        <ele>2048.718</ele>
        <time>2016-05-05T23:53:02Z</time>
      </trkpt>
      <trkpt lat="42.58802" lon="1.48256">
        <ele>2049.466</ele>
        <time>2016-05-05T23:53:22Z</time>
      </trkpt>
      <trkpt lat="42.58801" lon="1.48253">
        <ele>2050.487</ele>
        <time>2016-05-05T23:53:42Z</time>
      </trkpt>
      <trkpt lat="42.588" lon="1.48249">
        <ele>2051.455</ele>
        <time>2016-05-05T23:54:02Z</time>
      </trkpt>
      <trkpt lat="42.588" lon="1.48244">
        <ele>2052.543</ele>
        <time>2016-05-05T23:54:22Z</time>
      </trkpt>
      <trkpt lat="42.588" lon="1.48242">
        <ele>2053.616</ele>
        <time>2016-05-05T23:54:42Z</time>
      </trkpt>
      <trkpt lat="42.58802" lon="1.4824">
        <ele>2054.876</ele>
        <time>2016-05-05T23:55:02Z</time>
      </trkpt>
      <trkpt lat="42.58801" lon="1.48235">
        <ele>2056.113</ele>
        <time>2016-05-05T23:55:22Z</time>
      </trkpt>
      <trkpt lat="42.588" lon="1.4823">
        <ele>2056.908</ele>
        <time>2016-05-05T23:55:42Z</time>
      </trkpt>
      <trkpt lat="42.58798" lon="1.48227">
        <ele>2057.432</ele>
        <time>2016-05-05T23:56:02Z</time>
      </trkpt>
      <trkpt lat="42.58797" lon="1.48223">
        <ele>2058.134</ele>
        <time>2016-05-05T23:56:22Z</time>
      </trkpt>
      <trkpt lat="42.58796" lon="1.48219">
        <ele>2058.942</ele>
        <time>2016-05-05T23:56:42Z</time>
      </trkpt>
      <trkpt lat="42.58794" lon="1.48217">
        <ele>2058.97</ele>
        <time>2016-05-05T23:57:02Z</time>
      </trkpt>
      <trkpt lat="42.58792" lon="1.48214">
        <ele>2059.398</ele>
        <time>2016-05-05T23:57:22Z</time>
      </trkpt>
      <trkpt lat="42.58791" lon="1.48211">
        <ele>2059.499</ele>
        <time>2016-05-05T23:57:42Z</time>
      </trkpt>
      <trkpt lat="42.5879" lon="1.48209">
        <ele>2059.867</ele>
        <time>2016-05-05T23:58:02Z</time>
      </trkpt>
      <trkpt lat="42.58789" lon="1.48206">
        <ele>2060.455</ele>
        <time>2016-05-05T23:58:22Z</time>
      </trkpt>
      <trkpt lat="42.58787" lon="1.48202">
        <ele>2060.937</ele>
        <time>2016-05-05T23:58:42Z</time>
      </trkpt>
      <trkpt lat="42.58785" lon="1.48199">
        <ele>2061.449</ele>
        <time>2016-05-05T23:59:02Z</time>
      </trkpt>
      <trkpt lat="42.58783" lon="1.48194">
        <ele>2062.113</ele>
        <time>2016-05-05T23:59:22Z</time>
      </trkpt>
      <trkpt lat="42.5878" lon="1.48191">
        <ele>2062.508</ele>
        <time>2016-05-05T23:59:42Z</time>
      </trkpt>
      <trkpt lat="42.58778" lon="1.48188">
        <ele>2062.664</ele>
        <time>2016-05-06T00:00:02Z</time>
      </trkpt>
      <trkpt lat="42.58776" lon="1.48185">
        <ele>2063.246</ele>
        <time>2016-05-06T00:00:22Z</time>
      </trkpt>
      <trkpt lat="42.58772" lon="1.48179">
        <ele>2064.114</ele>
        <time>2016-05-06T00:00:42Z</time>
      </trkpt>
      <trkpt lat="42.5877" lon="1.48176">
        <ele>2064.632</ele>
        <time>2016-05-06T00:01:02Z</time>
      </trkpt>
      <trkpt lat="42.58766" lon="1.4817">
        <ele>2066.09</ele>
        <time>2016-05-06T00:01:22Z</time>
      </trkpt>
      <trkpt lat="42.58762" lon="1.48163">
        <ele>2066.811</ele>
        <time>2016-05-06T00:01:42Z</time>
      </trkpt>
      <trkpt lat="42.58755" lon="1.48153">
        <ele>2067.869</ele>
        <time>2016-05-06T00:02:02Z</time>
      </trkpt>
      <trkpt lat="42.58751" lon="1.48146">
        <ele>2069.027</ele>
        <time>2016-05-06T00:02:22Z</time>
      </trkpt>
      <trkpt lat="42.5875" lon="1.48138">
        <ele>2071.332</ele>
        <time>2016-05-06T00:02:42Z</time>
      </trkpt>
      <trkpt lat="42.5875" lon="1.48131">
        <ele>2072.892</ele>
        <time>2016-05-06T00:03:02Z</time>
      </trkpt>
      <trkpt lat="42.58751" lon="1.48124">
        <ele>2074.611</ele>
        <time>2016-05-06T00:03:22Z</time>
      </trkpt>
      <trkpt lat="42.58748" lon="1.48114">
        <ele>2075.508</ele>
        <time>2016-05-06T00:03:42Z</time>
      </trkpt>
      <trkpt lat="42.58743" lon="1.48102">
        <ele>2075.644</ele>
        <time>2016-05-06T00:04:02Z</time>
      </trkpt>
      <trkpt lat="42.58738" lon="1.48088">
        <ele>2075.846</ele>
        <time>2016-05-06T00:04:22Z</time>
      </trkpt>
      <trkpt lat="42.58734" lon="1.48077">
        <ele>2076.224</ele>
        <time>2016-05-06T00:04:42Z</time>
      </trkpt>
      <trkpt lat="42.5873" lon="1.48065">
        <ele>2076.832</ele>
        <time>2016-05-06T00:05:02Z</time>
      </trkpt>
      <trkpt lat="42.58724" lon="1.48055">
        <ele>2076.82</ele>
        <time>2016-05-06T00:05:22Z</time>
      </trkpt>
      <trkpt lat="42.58719" lon="1.48045">
        <ele>2076.971</ele>
        <time>2016-05-06T00:05:42Z</time>
      </trkpt>
      <trkpt lat="42.58714" lon="1.48036">
        <ele>2076.859</ele>
        <time>2016-05-06T00:06:02Z</time>
      </trkpt>
      <trkpt lat="42.58703" lon="1.48021">
        <ele>2075.767</ele>
        <time>2016-05-06T00:06:22Z</time>
      </trkpt>
      <trkpt lat="42.58697" lon="1.48014">
        <ele>2075.298</ele>
        <time>2016-05-06T00:06:42Z</time>
      </trkpt>
      <trkpt lat="42.5869" lon="1.48004">
        <ele>2075.215</ele>
        <time>2016-05-06T00:07:02Z</time>
      </trkpt>
      <trkpt lat="42.58689" lon="1.47997">
        <ele>2076.426</ele>
        <time>2016-05-06T00:07:22Z</time>
      </trkpt>
      <trkpt lat="42.58688" lon="1.47989">
        <ele>2077.608</ele>
        <time>2016-05-06T00:07:42Z</time>
      </trkpt>
      <trkpt lat="42.58686" lon="1.47981">
        <ele>2078.28</ele>
        <time>2016-05-06T00:08:02Z</time>
      </trkpt>
      <trkpt lat="42.58683" lon="1.47971">
        <ele>2078.342</ele>
        <time>2016-05-06T00:08:22Z</time>
      </trkpt>
      <trkpt lat="42.58679" lon="1.47961">
        <ele>2078.05</ele>
        <time>2016-05-06T00:08:42Z</time>
      </trkpt>
      <trkpt lat="42.58675" lon="1.4795">
        <ele>2077.888</ele>
        <time>2016-05-06T00:09:02Z</time>
      </trkpt>
      <trkpt lat="42.58672" lon="1.47942">
        <ele>2077.766</ele>
        <time>2016-05-06T00:09:22Z</time>
      </trkpt>
      <trkpt lat="42.58667" lon="1.47934">
        <ele>2076.617</ele>
        <time>2016-05-06T00:09:42Z</time>
      </trkpt>
      <trkpt lat="42.58658" lon="1.47926">
        <ele>2072.875</ele>
        <time>2016-05-06T00:10:02Z</time>
      </trkpt>
      <trkpt lat="42.58647" lon="1.47912">
        <ele>2068.943</ele>
        <time>2016-05-06T00:10:22Z</time>
      </trkpt>
      <trkpt lat="42.58639" lon="1.47901">
        <ele>2066.877</ele>
        <time>2016-05-06T00:10:42Z</time>
      </trkpt>
      <trkpt lat="42.5863" lon="1.47888">
        <ele>2066.261</ele>
        <time>2016-05-06T00:11:02Z</time>
      </trkpt>
      <trkpt lat="42.58623" lon="1.47877">
        <ele>2065.827</ele>
        <time>2016-05-06T00:11:22Z</time>
      </trkpt>
      <trkpt lat="42.58612" lon="1.47866">
        <ele>2063.408</ele>
        <time>2016-05-06T00:11:42Z</time>
      </trkpt>
      <trkpt lat="42.58605" lon="1.47854">
        <ele>2063.088</ele>
        <time>2016-05-06T00:12:02Z</time>
      </trkpt>
      <trkpt lat="42.58601" lon="1.47841">
        <ele>2063.26</ele>
        <time>2016-05-06T00:12:22Z</time>
      </trkpt>
      <trkpt lat="42.58594" lon="1.47825">
        <ele>2060.948</ele>
        <time>2016-05-06T00:12:42Z</time>
      </trkpt>
      <trkpt lat="42.58596" lon="1.47804">
        <ele>2061.386</ele>
        <time>2016-05-06T00:13:02Z</time>
      </trkpt>
      <trkpt lat="42.58598" lon="1.47789">
        <ele>2060.794</ele>
        <time>2016-05-06T00:13:22Z</time>
      </trkpt>
      <trkpt lat="42.58597" lon="1.47769">
        <ele>2057.715</ele>
        <time>2016-05-06T00:13:42Z</time>
      </trkpt>
      <trkpt lat="42.58598" lon="1.47745">
        <ele>2054.873</ele>
        <time>2016-05-06T00:14:02Z</time>
      </trkpt>
      <trkpt lat="42.58602" lon="1.47725">
        <ele>2052.631</ele>
        <time>2016-05-06T00:14:22Z</time>
      </trkpt>
      <trkpt lat="42.58602" lon="1.47701">
        <ele>2048.556</ele>
        <time>2016-05-06T00:14:42Z</time>
      </trkpt>
      <trkpt lat="42.58608" lon="1.47679">
        <ele>2048.159</ele>
        <time>2016-05-06T00:15:02Z</time>
      </trkpt>
      <trkpt lat="42.58613" lon="1.47664">
        <ele>2048.514</ele>
        <time>2016-05-06T00:15:22Z</time>
      </trkpt>
      <trkpt lat="42.58621" lon="1.4765">
        <ele>2050.408</ele>
        <time>2016-05-06T00:15:42Z</time>
      </trkpt>
      <trkpt lat="42.58627" lon="1.47641">
        <ele>2052.686</ele>
        <time>2016-05-06T00:16:02Z</time>
      </trkpt>
      <trkpt lat="42.5863" lon="1.47627">
        <ele>2052.588</ele>
        <time>2016-05-06T00:16:22Z</time>
      </trkpt>
      <trkpt lat="42.58635" lon="1.47611">
        <ele>2052.856</ele>
        <time>2016-05-06T00:16:42Z</time>
      </trkpt>
      <trkpt lat="42.58636" lon="1.47593">
        <ele>2052.324</ele>
        <time>2016-05-06T00:17:02Z</time>
      </trkpt>
      <trkpt lat="42.58635" lon="1.47581">
        <ele>2050.622</ele>
        <time>2016-05-06T00:17:22Z</time>
      </trkpt>
      <trkpt lat="42.58632" lon="1.47563">
        <ele>2047.773</ele>
        <time>2016-05-06T00:17:42Z</time>
      </trkpt>
      <trkpt lat="42.58634" lon="1.47551">
        <ele>2048.941</ele>
        <time>2016-05-06T00:18:02Z</time>
      </trkpt>
      <trkpt lat="42.58638" lon="1.47535">
        <ele>2051.469</ele>
        <time>2016-05-06T00:18:22Z</time>
      </trkpt>
      <trkpt lat="42.58645" lon="1.4752">
        <ele>2056.911</ele>
        <time>2016-05-06T00:18:42Z</time>
      </trkpt>
      <trkpt lat="42.5865" lon="1.47505">
        <ele>2060.421</ele>
        <time>2016-05-06T00:19:02Z</time>
      </trkpt>
      <trkpt lat="42.58657" lon="1.47494">
        <ele>2066.503</ele>
        <time>2016-05-06T00:19:22Z</time>
      </trkpt>
      <trkpt lat="42.58659" lon="1.47481">
        <ele>2067.308</ele>
        <time>2016-05-06T00:19:42Z</time>
      </trkpt>
      <trkpt lat="42.58665" lon="1.47461">
        <ele>2070.022</ele>
        <time>2016-05-06T00:20:02Z</time>
      </trkpt>
      <trkpt lat="42.58664" lon="1.47447">
        <ele>2065.964</ele>
        <time>2016-05-06T00:20:22Z</time>
      </trkpt>
      <trkpt lat="42.58671" lon="1.47431">
        <ele>2065.032</ele>
        <time>2016-05-06T00:20:42Z</time>
      </trkpt>
      <trkpt lat="42.5868" lon="1.47419">
        <ele>2064.91</ele>
        <time>2016-05-06T00:21:02Z</time>
      </trkpt>
      <trkpt lat="42.5869" lon="1.47411">
        <ele>2066.148</ele>
        <time>2016-05-06T00:21:22Z</time>
      </trkpt>
      <trkpt lat="42.58702" lon="1.47406">
        <ele>2067.339</ele>
        <time>2016-05-06T00:21:42Z</time>
      </trkpt>
      <trkpt lat="42.58712" lon="1.47394">
        <ele>2063.187</ele>
        <time>2016-05-06T00:22:02Z</time>
      </trkpt>
      <trkpt lat="42.58722" lon="1.47387">
        <ele>2062.115</ele>
        <time>2016-05-06T00:22:22Z</time>
      </trkpt>
      <trkpt lat="42.58731" lon="1.47382">
        <ele>2062.982</ele>
        <time>2016-05-06T00:22:42Z</time>
      </trkpt>
      <trkpt lat="42.5874" lon="1.47376">
        <ele>2065.043</ele>
        <time>2016-05-06T00:23:02Z</time>
      </trkpt>
      <trkpt lat="42.58749" lon="1.47371">
        <ele>2067.717</ele>
        <time>2016-05-06T00:23:22Z</time>
      </trkpt>
      <trkpt lat="42.58757" lon="1.47352">
        <ele>2068.408</ele>
        <time>2016-05-06T00:23:42Z</time>
      </trkpt>
      <trkpt lat="42.58763" lon="1.47335">
        <ele>2071.019</ele>
        <time>2016-05-06T00:24:02Z</time>
      </trkpt>
      <trkpt lat="42.58769" lon="1.47318">
        <ele>2073.681</ele>
        <time>2016-05-06T00:24:22Z</time>
      </trkpt>
      <trkpt lat="42.58773" lon="1.47302">
        <ele>2075.189</ele>
        <time>2016-05-06T00:24:42Z</time>
      </trkpt>
      <trkpt lat="42.5878" lon="1.47284">
        <ele>2078.377</ele>
        <time>2016-05-06T00:25:02Z</time>
      </trkpt>
      <trkpt lat="42.58788" lon="1.47265">
        <ele>2079.965</ele>
        <time>2016-05-06T00:25:22Z</time>
      </trkpt>
      <trkpt lat="42.58794" lon="1.47247">
        <ele>2080.556</ele>
        <time>2016-05-06T00:25:42Z</time>
      </trkpt>
      <trkpt lat="42.58798" lon="1.47233">
        <ele>2080.944</ele>
        <time>2016-05-06T00:26:02Z</time>
      </trkpt>
      <trkpt lat="42.58805" lon="1.47219">
        <ele>2083.152</ele>
        <time>2016-05-06T00:26:22Z</time>
      </trkpt>
      <trkpt lat="42.58812" lon="1.47187">
        <ele>2083.955</ele>
        <time>2016-05-06T00:26:42Z</time>
      </trkpt>
      <trkpt lat="42.5882" lon="1.47163">
        <ele>2085.107</ele>
        <time>2016-05-06T00:27:02Z</time>
      </trkpt>
      <trkpt lat="42.58826" lon="1.47144">
        <ele>2085.717</ele>
        <time>2016-05-06T00:27:22Z</time>
      </trkpt>
      <trkpt lat="42.58831" lon="1.47129">
        <ele>2086.608</ele>
        <time>2016-05-06T00:27:42Z</time>
      </trkpt>
      <trkpt lat="42.58836" lon="1.47111">
        <ele>2087.736</ele>
        <time>2016-05-06T00:28:02Z</time>
      </trkpt>
      <trkpt lat="42.5884" lon="1.47098">
        <ele>2090.978</ele>
        <time>2016-05-06T00:28:22Z</time>
      </trkpt>
      <trkpt lat="42.58841" lon="1.4708">
        <ele>2092.426</ele>
        <time>2016-05-06T00:28:42Z</time>
      </trkpt>
      <trkpt lat="42.58846" lon="1.47068">
        <ele>2093.334</ele>
        <time>2016-05-06T00:29:02Z</time>
      </trkpt>
      <trkpt lat="42.58852" lon="1.47059">
        <ele>2095.772</ele>
        <time>2016-05-06T00:29:22Z</time>
      </trkpt>
      <trkpt lat="42.58858" lon="1.47047">
        <ele>2097.483</ele>
        <time>2016-05-06T00:29:42Z</time>
      </trkpt>
      <trkpt lat="42.58864" lon="1.47031">
        <ele>2096.781</ele>
        <time>2016-05-06T00:30:02Z</time>
      </trkpt>
      <trkpt lat="42.58868" lon="1.47021">
        <ele>2094.919</ele>
        <time>2016-05-06T00:30:22Z</time>
      </trkpt>
      <trkpt lat="42.58875" lon="1.47016">
        <ele>2096.987</ele>
        <time>2016-05-06T00:30:42Z</time>
      </trkpt>
      <trkpt lat="42.58884" lon="1.4701">
        <ele>2099.642</ele>
        <time>2016-05-06T00:31:02Z</time>
      </trkpt>
      <trkpt lat="42.58892" lon="1.47005">
        <ele>2102.126</ele>
        <time>2016-05-06T00:31:22Z</time>
      </trkpt>
      <trkpt lat="42.58898" lon="1.47001">
        <ele>2102.908</ele>
        <time>2016-05-06T00:31:42Z</time>
      </trkpt>
      <trkpt lat="42.58907" lon="1.46988">
        <ele>2099.739</ele>
        <time>2016-05-06T00:32:02Z</time>
      </trkpt>
      <trkpt lat="42.58914" lon="1.46976">
        <ele>2095.991</ele>
        <time>2016-05-06T00:32:22Z</time>
      </trkpt>
      <trkpt lat="42.5892" lon="1.46963">
        <ele>2092.199</ele>
        <time>2016-05-06T00:32:42Z</time>
      </trkpt>
      <trkpt lat="42.58928" lon="1.46948">
        <ele>2087.797</ele>
        <time>2016-05-06T00:33:02Z</time>
      </trkpt>
      <trkpt lat="42.58935" lon="1.4693">
        <ele>2080.155</ele>
        <time>2016-05-06T00:33:22Z</time>
      </trkpt>
      <trkpt lat="42.58943" lon="1.46913">
        <ele>2075.596</ele>
        <time>2016-05-06T00:33:42Z</time>
      </trkpt>
      <trkpt lat="42.58953" lon="1.46893">
        <ele>2070.524</ele>
        <time>2016-05-06T00:34:02Z</time>
      </trkpt>
      <trkpt lat="42.58962" lon="1.46876">
        <ele>2069.342</ele>
        <time>2016-05-06T00:34:22Z</time>
      </trkpt>
      <trkpt lat="42.58972" lon="1.46863">
        <ele>2068.264</ele>
        <time>2016-05-06T00:34:42Z</time>
      </trkpt>
      <trkpt lat="42.58978" lon="1.46848">
        <ele>2068.006</ele>
        <time>2016-05-06T00:35:02Z</time>
      </trkpt>
      <trkpt lat="42.58983" lon="1.46828">
        <ele>2066.016</ele>
        <time>2016-05-06T00:35:22Z</time>
      </trkpt>
      <trkpt lat="42.5899" lon="1.46804">
        <ele>2063.508</ele>
        <time>2016-05-06T00:35:42Z</time>
      </trkpt>
      <trkpt lat="42.59002" lon="1.46769">
        <ele>2062.687</ele>
        <time>2016-05-06T00:36:02Z</time>
      </trkpt>
      <trkpt lat="42.5901" lon="1.46746">
        <ele>2062.059</ele>
        <time>2016-05-06T00:36:22Z</time>
      </trkpt>
      <trkpt lat="42.59017" lon="1.4672">
        <ele>2060.527</ele>
        <time>2016-05-06T00:36:42Z</time>
      </trkpt>
      <trkpt lat="42.59028" lon="1.4669">
        <ele>2060.025</ele>
        <time>2016-05-06T00:37:02Z</time>
      </trkpt>
      <trkpt lat="42.59034" lon="1.4667">
        <ele>2060.283</ele>
        <time>2016-05-06T00:37:22Z</time>
      </trkpt>
      <trkpt lat="42.59039" lon="1.46652">
        <ele>2061.114</ele>
        <time>2016-05-06T00:37:42Z</time>
      </trkpt>
      <trkpt lat="42.59046" lon="1.46628">
        <ele>2062.522</ele>
        <time>2016-05-06T00:38:02Z</time>
      </trkpt>
      <trkpt lat="42.59048" lon="1.46608">
        <ele>2062.38</ele>
        <time>2016-05-06T00:38:22Z</time>
      </trkpt>
      <trkpt lat="42.59051" lon="1.46584">
        <ele>2063.218</ele>
        <time>2016-05-06T00:38:42Z</time>
      </trkpt>
      <trkpt lat="42.59052" lon="1.46565">
        <ele>2062.398</ele>
        <time>2016-05-06T00:39:02Z</time>
      </trkpt>
      <trkpt lat="42.59049" lon="1.46542">
        <ele>2059.217</ele>
        <time>2016-05-06T00:39:22Z</time>
      </trkpt>
      <trkpt lat="42.5905" lon="1.46522">
        <ele>2057.408</ele>
        <time>2016-05-06T00:39:42Z</time>
      </trkpt>
      <trkpt lat="42.59052" lon="1.46506">
        <ele>2056.022</ele>
        <time>2016-05-06T00:40:02Z</time>
      </trkpt>
      <trkpt lat="42.59059" lon="1.46489">
        <ele>2055.434</ele>
        <time>2016-05-06T00:40:22Z</time>
      </trkpt>
      <trkpt lat="42.59066" lon="1.46477">
        <ele>2054.382</ele>
        <time>2016-05-06T00:40:42Z</time>
      </trkpt>
      <trkpt lat="42.59073" lon="1.46468">
        <ele>2052.92</ele>
        <time>2016-05-06T00:41:02Z</time>
      </trkpt>
      <trkpt lat="42.59081" lon="1.46462">
        <ele>2051.818</ele>
        <time>2016-05-06T00:41:22Z</time>
      </trkpt>
      <trkpt lat="42.59083" lon="1.46449">
        <ele>2049.639</ele>
        <time>2016-05-06T00:41:42Z</time>
      </trkpt>
      <trkpt lat="42.59083" lon="1.46433">
        <ele>2048.237</ele>
        <time>2016-05-06T00:42:02Z</time>
      </trkpt>
      <trkpt lat="42.59082" lon="1.4642">
        <ele>2047.555</ele>
        <time>2016-05-06T00:42:22Z</time>
      </trkpt>
      <trkpt lat="42.59087" lon="1.46403">
        <ele>2045.918</ele>
        <time>2016-05-06T00:42:42Z</time>
      </trkpt>
      <trkpt lat="42.59092" lon="1.46392">
        <ele>2045.098</ele>
        <time>2016-05-06T00:43:02Z</time>
      </trkpt>
      <trkpt lat="42.59095" lon="1.46381">
        <ele>2043.317</ele>
        <time>2016-05-06T00:43:22Z</time>
      </trkpt>
      <trkpt lat="42.59096" lon="1.46359">
        <ele>2039.008</ele>
        <time>2016-05-06T00:43:42Z</time>
      </trkpt>
      <trkpt lat="42.59097" lon="1.46343">
        <ele>2034.592</ele>
        <time>2016-05-06T00:44:02Z</time>
      </trkpt>
      <trkpt lat="42.59102" lon="1.46328">
        <ele>2031.474</ele>
        <time>2016-05-06T00:44:22Z</time>
      </trkpt>
      <trkpt lat="42.5911" lon="1.46314">
        <ele>2028.852</ele>
        <time>2016-05-06T00:44:42Z</time>
      </trkpt>
      <trkpt lat="42.59114" lon="1.46302">
        <ele>2026.64</ele>
        <time>2016-05-06T00:45:02Z</time>
      </trkpt>
      <trkpt lat="42.5912" lon="1.46287">
        <ele>2023.978</ele>
        <time>2016-05-06T00:45:22Z</time>
      </trkpt>
      <trkpt lat="42.59125" lon="1.46273">
        <ele>2021.869</ele>
        <time>2016-05-06T00:45:42Z</time>
      </trkpt>
      <trkpt lat="42.5913" lon="1.46261">
        <ele>2021.387</ele>
        <time>2016-05-06T00:46:02Z</time>
      </trkpt>
      <trkpt lat="42.59135" lon="1.46246">
        <ele>2021.145</ele>
        <time>2016-05-06T00:46:22Z</time>
      </trkpt>
      <trkpt lat="42.59139" lon="1.46235">
        <ele>2021.428</ele>
        <time>2016-05-06T00:46:42Z</time>
      </trkpt>
      <trkpt lat="42.59142" lon="1.46224">
        <ele>2022.089</ele>
        <time>2016-05-06T00:47:02Z</time>
      </trkpt>
      <trkpt lat="42.59145" lon="1.46209">
        <ele>2023.217</ele>
        <time>2016-05-06T00:47:22Z</time>
      </trkpt>
      <trkpt lat="42.59144" lon="1.46197">
        <ele>2023.708</ele>
        <time>2016-05-06T00:47:42Z</time>
      </trkpt>
      <trkpt lat="42.59145" lon="1.46184">
        <ele>2024.073</ele>
        <time>2016-05-06T00:48:02Z</time>
      </trkpt>
      <trkpt lat="42.59146" lon="1.46177">
        <ele>2024.245</ele>
        <time>2016-05-06T00:48:22Z</time>
      </trkpt>
      <trkpt lat="42.59152" lon="1.46169">
        <ele>2024.583</ele>
        <time>2016-05-06T00:48:42Z</time>
      </trkpt>
      <trkpt lat="42.59158" lon="1.46166">
        <ele>2024.711</ele>
        <time>2016-05-06T00:49:02Z</time>
      </trkpt>
      <trkpt lat="42.59163" lon="1.46165">
        <ele>2024.999</ele>
        <time>2016-05-06T00:49:22Z</time>
      </trkpt>
      <trkpt lat="42.59169" lon="1.46162">
        <ele>2025.08</ele>
        <time>2016-05-06T00:49:42Z</time>
      </trkpt>
      <trkpt lat="42.59177" lon="1.46161">
        <ele>2025.028</ele>
        <time>2016-05-06T00:50:02Z</time>
      </trkpt>
      <trkpt lat="42.59182" lon="1.46162">
        <ele>2025.096</ele>
        <time>2016-05-06T00:50:22Z</time>
      </trkpt>
      <trkpt lat="42.59188" lon="1.46164">
        <ele>2025.042</ele>
        <time>2016-05-06T00:50:42Z</time>
      </trkpt>
      <trkpt lat="42.59196" lon="1.46166">
        <ele>2025.122</ele>
        <time>2016-05-06T00:51:02Z</time>
      </trkpt>
      <trkpt lat="42.59203" lon="1.46167">
        <ele>2025.314</ele>
        <time>2016-05-06T00:51:22Z</time>
      </trkpt>
      <trkpt lat="42.5921" lon="1.46169">
        <ele>2025.508</ele>
        <time>2016-05-06T00:51:42Z</time>
      </trkpt>
      <trkpt lat="42.59217" lon="1.4617">
        <ele>2025.715</ele>
        <time>2016-05-06T00:52:02Z</time>
      </trkpt>
      <trkpt lat="42.59223" lon="1.46171">
        <ele>2025.947</ele>
        <time>2016-05-06T00:52:22Z</time>
      </trkpt>
      <trkpt lat="42.5923" lon="1.46172">
        <ele>2026.415</ele>
        <time>2016-05-06T00:52:42Z</time>
      </trkpt>
      <trkpt lat="42.59238" lon="1.46167">
        <ele>2027.133</ele>
        <time>2016-05-06T00:53:02Z</time>
      </trkpt>
      <trkpt lat="42.59244" lon="1.46159">
        <ele>2027.531</ele>
        <time>2016-05-06T00:53:22Z</time>
      </trkpt>
      <trkpt lat="42.59251" lon="1.46153">
        <ele>2028.032</ele>
        <time>2016-05-06T00:53:42Z</time>
      </trkpt>
      <trkpt lat="42.59256" lon="1.46147">
        <ele>2028.21</ele>
        <time>2016-05-06T00:54:02Z</time>
      </trkpt>
      <trkpt lat="42.59261" lon="1.46144">
        <ele>2028.468</ele>
        <time>2016-05-06T00:54:22Z</time>
      </trkpt>
      <trkpt lat="42.59267" lon="1.46137">
        <ele>2028.675</ele>
        <time>2016-05-06T00:54:42Z</time>
      </trkpt>
      <trkpt lat="42.59272" lon="1.46135">
        <ele>2028.928</ele>
        <time>2016-05-06T00:55:02Z</time>
      </trkpt>
      <trkpt lat="42.59277" lon="1.46129">
        <ele>2029.32</ele>
        <time>2016-05-06T00:55:22Z</time>
      </trkpt>
      <trkpt lat="42.59284" lon="1.46121">
        <ele>2030.208</ele>
        <time>2016-05-06T00:55:42Z</time>
      </trkpt>
      <trkpt lat="42.5929" lon="1.46121">
        <ele>2030.928</ele>
        <time>2016-05-06T00:56:02Z</time>
      </trkpt>
      <trkpt lat="42.59298" lon="1.46116">
        <ele>2031.86</ele>
        <time>2016-05-06T00:56:22Z</time>
      </trkpt>
      <trkpt lat="42.59303" lon="1.46112">
        <ele>2032.618</ele>
        <time>2016-05-06T00:56:42Z</time>
      </trkpt>
      <trkpt lat="42.59307" lon="1.46109">
        <ele>2033.376</ele>
        <time>2016-05-06T00:57:02Z</time>
      </trkpt>
      <trkpt lat="42.59314" lon="1.46104">
        <ele>2034.184</ele>
        <time>2016-05-06T00:57:22Z</time>
      </trkpt>
      <trkpt lat="42.5932" lon="1.461">
        <ele>2034.815</ele>
        <time>2016-05-06T00:57:42Z</time>
      </trkpt>
      <trkpt lat="42.59326" lon="1.46095">
        <ele>2035.643</ele>
        <time>2016-05-06T00:58:02Z</time>
      </trkpt>
      <trkpt lat="42.59333" lon="1.46091">
        <ele>2036.451</ele>
        <time>2016-05-06T00:58:22Z</time>
      </trkpt>
      <trkpt lat="42.5934" lon="1.46087">
        <ele>2037.657</ele>
        <time>2016-05-06T00:58:42Z</time>
      </trkpt>
      <trkpt lat="42.59345" lon="1.46083">
        <ele>2038.7</ele>
        <time>2016-05-06T00:59:02Z</time>
      </trkpt>
      <trkpt lat="42.59351" lon="1.46077">
        <ele>2040.52</ele>
        <time>2016-05-06T00:59:22Z</time>
      </trkpt>
      <trkpt lat="42.59358" lon="1.46072">
        <ele>2041.908</ele>
        <time>2016-05-06T00:59:42Z</time>
      </trkpt>
      <trkpt lat="42.59364" lon="1.46069">
        <ele>2043.026</ele>
        <time>2016-05-06T01:00:02Z</time>
      </trkpt>
      <trkpt lat="42.5937" lon="1.4607">
        <ele>2044.038</ele>
        <time>2016-05-06T01:00:22Z</time>
      </trkpt>
      <trkpt lat="42.59375" lon="1.46069">
        <ele>2045.036</ele>
        <time>2016-05-06T01:00:42Z</time>
      </trkpt>
      <trkpt lat="42.59379" lon="1.46062">
        <ele>2046.284</ele>
        <time>2016-05-06T01:01:02Z</time>
      </trkpt>
      <trkpt lat="42.59383" lon="1.46059">
        <ele>2047.052</ele>
        <time>2016-05-06T01:01:22Z</time>
      </trkpt>
      <trkpt lat="42.59387" lon="1.46057">
        <ele>2047.793</ele>
        <time>2016-05-06T01:01:42Z</time>
      </trkpt>
      <trkpt lat="42.59392" lon="1.46053">
        <ele>2049.271</ele>
        <time>2016-05-06T01:02:02Z</time>
      </trkpt>
      <trkpt lat="42.59397" lon="1.46055">
        <ele>2050.119</ele>
        <time>2016-05-06T01:02:22Z</time>
      </trkpt>
      <trkpt lat="42.59399" lon="1.46063">
        <ele>2050.599</ele>
        <time>2016-05-06T01:02:42Z</time>
      </trkpt>
      <trkpt lat="42.59399" lon="1.46063">
        <ele>2050.507</ele>
        <time>2016-05-06T01:03:02Z</time>
      </trkpt>
      <trkpt lat="42.5942" lon="1.46088">
        <ele>2057.427</ele>
        <time>2016-05-06T01:03:22Z</time>
      </trkpt>
      <trkpt lat="42.5946" lon="1.46099">
        <ele>2072.908</ele>
        <time>2016-05-06T01:03:42Z</time>
      </trkpt>
      <trkpt lat="42.59471" lon="1.46104">
        <ele>2077.25</ele>
        <time>2016-05-06T01:04:02Z</time>
      </trkpt>
      <trkpt lat="42.59483" lon="1.46103">
        <ele>2080.132</ele>
        <time>2016-05-06T01:04:22Z</time>
      </trkpt>
      <trkpt lat="42.59498" lon="1.46099">
        <ele>2084.17</ele>
        <time>2016-05-06T01:04:42Z</time>
      </trkpt>
      <trkpt lat="42.5952" lon="1.46096">
        <ele>2088.378</ele>
        <time>2016-05-06T01:05:02Z</time>
      </trkpt>
      <trkpt lat="42.5954" lon="1.46083">
        <ele>2093.396</ele>
        <time>2016-05-06T01:05:22Z</time>
      </trkpt>
      <trkpt lat="42.59551" lon="1.46074">
        <ele>2096.847</ele>
        <time>2016-05-06T01:05:42Z</time>
      </trkpt>
      <trkpt lat="42.59568" lon="1.46072">
        <ele>2100.725</ele>
        <time>2016-05-06T01:06:02Z</time>
      </trkpt>
      <trkpt lat="42.59586" lon="1.46065">
        <ele>2106.493</ele>
        <time>2016-05-06T01:06:22Z</time>
      </trkpt>
      <trkpt lat="42.59603" lon="1.46053">
        <ele>2114.319</ele>
        <time>2016-05-06T01:06:42Z</time>
      </trkpt>
      <trkpt lat="42.59617" lon="1.46038">
        <ele>2124.909</ele>
        <time>2016-05-06T01:07:02Z</time>
      </trkpt>
      <trkpt lat="42.59616" lon="1.46021">
        <ele>2130.819</ele>
        <time>2016-05-06T01:07:22Z</time>
      </trkpt>
      <trkpt lat="42.59615" lon="1.46008">
        <ele>2136.008</ele>
        <time>2016-05-06T01:07:42Z</time>
      </trkpt>
      <trkpt lat="42.59613" lon="1.45991">
        <ele>2141.722</ele>
        <time>2016-05-06T01:08:02Z</time>
      </trkpt>
      <trkpt lat="42.59613" lon="1.45991">
        <ele>2141.564</ele>
        <time>2016-05-06T01:08:22Z</time>
      </trkpt>
      <trkpt lat="42.59612" lon="1.45981">
        <ele>2145.182</ele>
        <time>2016-05-06T01:08:42Z</time>
      </trkpt>
      <trkpt lat="42.59609" lon="1.45965">
        <ele>2149.77</ele>
        <time>2016-05-06T01:09:02Z</time>
      </trkpt>
      <trkpt lat="42.59612" lon="1.45919">
        <ele>2163.448</ele>
        <time>2016-05-06T01:09:22Z</time>
      </trkpt>
      <trkpt lat="42.59611" lon="1.45912">
        <ele>2165.149</ele>
        <time>2016-05-06T01:09:42Z</time>
      </trkpt>
      <trkpt lat="42.5961" lon="1.45903">
        <ele>2167.177</ele>
        <time>2016-05-06T01:10:02Z</time>
      </trkpt>
      <trkpt lat="42.59609" lon="1.45897">
        <ele>2169.265</ele>
        <time>2016-05-06T01:10:22Z</time>
      </trkpt>
      <trkpt lat="42.59607" lon="1.4589">
        <ele>2171.284</ele>
        <time>2016-05-06T01:10:42Z</time>
      </trkpt>
      <trkpt lat="42.59605" lon="1.45883">
        <ele>2173.207</ele>
        <time>2016-05-06T01:11:02Z</time>
      </trkpt>
      <trkpt lat="42.59603" lon="1.45876">
        <ele>2174.817</ele>
        <time>2016-05-06T01:11:22Z</time>
      </trkpt>
      <trkpt lat="42.59602" lon="1.4587">
        <ele>2176.208</ele>
        <time>2016-05-06T01:11:42Z</time>
      </trkpt>
      <trkpt lat="42.59599" lon="1.45864">
        <ele>2177.849</ele>
        <time>2016-05-06T01:12:02Z</time>
      </trkpt>
      <trkpt lat="42.59597" lon="1.45856">
        <ele>2179.641</ele>
        <time>2016-05-06T01:12:22Z</time>
      </trkpt>
      <trkpt lat="42.59595" lon="1.45851">
        <ele>2181.089</ele>
        <time>2016-05-06T01:12:42Z</time>
      </trkpt>
      <trkpt lat="42.59593" lon="1.45843">
        <ele>2182.867</ele>
        <time>2016-05-06T01:13:02Z</time>
      </trkpt>
      <trkpt lat="42.59592" lon="1.45836">
        <ele>2184.245</ele>
        <time>2016-05-06T01:13:22Z</time>
      </trkpt>
      <trkpt lat="42.59591" lon="1.45829">
        <ele>2186.046</ele>
        <time>2016-05-06T01:13:42Z</time>
      </trkpt>
      <trkpt lat="42.59588" lon="1.45823">
        <ele>2187.934</ele>
        <time>2016-05-06T01:14:02Z</time>
      </trkpt>
      <trkpt lat="42.59584" lon="1.45818">
        <ele>2189.432</ele>
        <time>2016-05-06T01:14:22Z</time>
      </trkpt>
      <trkpt lat="42.59579" lon="1.45811">
        <ele>2191.493</ele>
        <time>2016-05-06T01:14:42Z</time>
      </trkpt>
      <trkpt lat="42.59574" lon="1.45804">
        <ele>2193.665</ele>
        <time>2016-05-06T01:15:02Z</time>
      </trkpt>
      <trkpt lat="42.59571" lon="1.45799">
        <ele>2195.321</ele>
        <time>2016-05-06T01:15:22Z</time>
      </trkpt>
      <trkpt lat="42.59566" lon="1.45794">
        <ele>2197.208</ele>
        <time>2016-05-06T01:15:42Z</time>
      </trkpt>
      <trkpt lat="42.59561" lon="1.45788">
        <ele>2199.04</ele>
        <time>2016-05-06T01:16:02Z</time>
      </trkpt>
      <trkpt lat="42.59556" lon="1.45785">
        <ele>2200.312</ele>
        <time>2016-05-06T01:16:22Z</time>
      </trkpt>
      <trkpt lat="42.59549" lon="1.4578">
        <ele>2202.77</ele>
        <time>2016-05-06T01:16:42Z</time>
      </trkpt>
      <trkpt lat="42.59543" lon="1.45777">
        <ele>2204.818</ele>
        <time>2016-05-06T01:17:02Z</time>
      </trkpt>
      <trkpt lat="42.59541" lon="1.45773">
        <ele>2207.496</ele>
        <time>2016-05-06T01:17:22Z</time>
      </trkpt>
      <trkpt lat="42.59534" lon="1.45768">
        <ele>2211.217</ele>
        <time>2016-05-06T01:17:42Z</time>
      </trkpt>
      <trkpt lat="42.59528" lon="1.45762">
        <ele>2214.365</ele>
        <time>2016-05-06T01:18:02Z</time>
      </trkpt>
      <trkpt lat="42.59524" lon="1.45759">
        <ele>2216.213</ele>
        <time>2016-05-06T01:18:22Z</time>
      </trkpt>
      <trkpt lat="42.59516" lon="1.45753">
        <ele>2219.562</ele>
        <time>2016-05-06T01:18:42Z</time>
      </trkpt>
      <trkpt lat="42.59495" lon="1.45736">
        <ele>2226.183</ele>
        <time>2016-05-06T01:19:02Z</time>
      </trkpt>
      <trkpt lat="42.59469" lon="1.45716">
        <ele>2235.411</ele>
        <time>2016-05-06T01:19:22Z</time>
      </trkpt>
      <trkpt lat="42.59442" lon="1.45693">
        <ele>2251.708</ele>
        <time>2016-05-06T01:19:42Z</time>
      </trkpt>
      <trkpt lat="42.59422" lon="1.45664">
        <ele>2263.567</ele>
        <time>2016-05-06T01:20:02Z</time>
      </trkpt>
      <trkpt lat="42.59403" lon="1.45642">
        <ele>2271.859</ele>
        <time>2016-05-06T01:20:22Z</time>
      </trkpt>
      <trkpt lat="42.59395" lon="1.45628">
        <ele>2276.027</ele>
        <time>2016-05-06T01:20:42Z</time>
      </trkpt>
      <trkpt lat="42.59382" lon="1.45603">
        <ele>2281.375</ele>
        <time>2016-05-06T01:21:02Z</time>
      </trkpt>
      <trkpt lat="42.59373" lon="1.45589">
        <ele>2284.413</ele>
        <time>2016-05-06T01:21:22Z</time>
      </trkpt>
      <trkpt lat="42.59365" lon="1.45576">
        <ele>2289.394</ele>
        <time>2016-05-06T01:21:42Z</time>
      </trkpt>
      <trkpt lat="42.59357" lon="1.45557">
        <ele>2298.482</ele>
        <time>2016-05-06T01:22:02Z</time>
      </trkpt>
      <trkpt lat="42.59346" lon="1.45542">
        <ele>2305.23</ele>
        <time>2016-05-06T01:22:22Z</time>
      </trkpt>
      <trkpt lat="42.5933" lon="1.45523">
        <ele>2316.585</ele>
        <time>2016-05-06T01:22:42Z</time>
      </trkpt>
      <trkpt lat="42.5932" lon="1.45505">
        <ele>2323.289</ele>
        <time>2016-05-06T01:23:02Z</time>
      </trkpt>
      <trkpt lat="42.59316" lon="1.45491">
        <ele>2327.517</ele>
        <time>2016-05-06T01:23:22Z</time>
      </trkpt>
      <trkpt lat="42.5931" lon="1.45479">
        <ele>2330.708</ele>
        <time>2016-05-06T01:23:42Z</time>
      </trkpt>
      <trkpt lat="42.59311" lon="1.45462">
        <ele>2333.839</ele>
        <time>2016-05-06T01:24:02Z</time>
      </trkpt>
      <trkpt lat="42.59313" lon="1.45446">
        <ele>2336.611</ele>
        <time>2016-05-06T01:24:22Z</time>
      </trkpt>
      <trkpt lat="42.59313" lon="1.45431">
        <ele>2340.459</ele>
        <time>2016-05-06T01:24:42Z</time>
      </trkpt>
      <trkpt lat="42.59315" lon="1.45417">
        <ele>2343.917</ele>
        <time>2016-05-06T01:25:02Z</time>
      </trkpt>
      <trkpt lat="42.59314" lon="1.45403">
        <ele>2348.355</ele>
        <time>2016-05-06T01:25:22Z</time>
      </trkpt>
      <trkpt lat="42.59319" lon="1.45391">
        <ele>2351.556</ele>
        <time>2016-05-06T01:25:42Z</time>
      </trkpt>
      <trkpt lat="42.5932" lon="1.45375">
        <ele>2357.084</ele>
        <time>2016-05-06T01:26:02Z</time>
      </trkpt>
      <trkpt lat="42.5932" lon="1.45358">
        <ele>2363.232</ele>
        <time>2016-05-06T01:26:22Z</time>
      </trkpt>
      <trkpt lat="42.59321" lon="1.45345">
        <ele>2368.881</ele>
        <time>2016-05-06T01:26:42Z</time>
      </trkpt>
      <trkpt lat="42.59321" lon="1.45332">
        <ele>2374.361</ele>
        <time>2016-05-06T01:27:02Z</time>
      </trkpt>
      <trkpt lat="42.59324" lon="1.45316">
        <ele>2380.917</ele>
        <time>2016-05-06T01:27:22Z</time>
      </trkpt>
      <trkpt lat="42.59326" lon="1.45305">
        <ele>2385.308</ele>
        <time>2016-05-06T01:27:42Z</time>
      </trkpt>
      <trkpt lat="42.59332" lon="1.45288">
        <ele>2390.739</ele>
        <time>2016-05-06T01:28:02Z</time>
      </trkpt>
      <trkpt lat="42.59343" lon="1.45272">
        <ele>2396.841</ele>
        <time>2016-05-06T01:28:22Z</time>
      </trkpt>
      <trkpt lat="42.59349" lon="1.45264">
        <ele>2400.289</ele>
        <time>2016-05-06T01:28:42Z</time>
      </trkpt>
      <trkpt lat="42.59353" lon="1.45254">
        <ele>2404.627</ele>
        <time>2016-05-06T01:29:02Z</time>
      </trkpt>
      <trkpt lat="42.59355" lon="1.45247">
        <ele>2407.915</ele>
        <time>2016-05-06T01:29:22Z</time>
      </trkpt>
      <trkpt lat="42.59359" lon="1.45239">
        <ele>2411.476</ele>
        <time>2016-05-06T01:29:42Z</time>
      </trkpt>
      <trkpt lat="42.5936" lon="1.45232">
        <ele>2414.754</ele>
        <time>2016-05-06T01:30:02Z</time>
      </trkpt>
      <trkpt lat="42.59364" lon="1.45223">
        <ele>2418.422</ele>
        <time>2016-05-06T01:30:22Z</time>
      </trkpt>
      <trkpt lat="42.59364" lon="1.4521">
        <ele>2422.881</ele>
        <time>2016-05-06T01:30:42Z</time>
      </trkpt>
      <trkpt lat="42.59364" lon="1.45198">
        <ele>2427.161</ele>
        <time>2016-05-06T01:31:02Z</time>
      </trkpt>
      <trkpt lat="42.59364" lon="1.45183">
        <ele>2432.517</ele>
        <time>2016-05-06T01:31:22Z</time>
      </trkpt>
      <trkpt lat="42.59365" lon="1.45169">
        <ele>2437.708</ele>
        <time>2016-05-06T01:31:42Z</time>
      </trkpt>
      <trkpt lat="42.59364" lon="1.45155">
        <ele>2442.999</ele>
        <time>2016-05-06T01:32:02Z</time>
      </trkpt>
      <trkpt lat="42.59363" lon="1.45143">
        <ele>2448.181</ele>
        <time>2016-05-06T01:32:22Z</time>
      </trkpt>
      <trkpt lat="42.59365" lon="1.4513">
        <ele>2452.829</ele>
        <time>2016-05-06T01:32:42Z</time>
      </trkpt>
      <trkpt lat="42.59365" lon="1.45112">
        <ele>2459.367</ele>
        <time>2016-05-06T01:33:02Z</time>
      </trkpt>
      <trkpt lat="42.59367" lon="1.45101">
        <ele>2464.365</ele>
        <time>2016-05-06T01:33:22Z</time>
      </trkpt>
      <trkpt lat="42.59368" lon="1.45086">
        <ele>2471.186</ele>
        <time>2016-05-06T01:33:42Z</time>
      </trkpt>
      <trkpt lat="42.59373" lon="1.45071">
        <ele>2477.774</ele>
        <time>2016-05-06T01:34:02Z</time>
      </trkpt>
      <trkpt lat="42.59372" lon="1.45061">
        <ele>2482.932</ele>
        <time>2016-05-06T01:34:22Z</time>
      </trkpt>
      <trkpt lat="42.59377" lon="1.45048">
        <ele>2489.943</ele>
        <time>2016-05-06T01:34:42Z</time>
      </trkpt>
      <trkpt lat="42.59379" lon="1.45036">
        <ele>2496.364</ele>
        <time>2016-05-06T01:35:02Z</time>
      </trkpt>
      <trkpt lat="42.59385" lon="1.45026">
        <ele>2502.21</ele>
        <time>2016-05-06T01:35:22Z</time>
      </trkpt>
      <trkpt lat="42.59392" lon="1.45019">
        <ele>2506.108</ele>
        <time>2016-05-06T01:35:42Z</time>
      </trkpt>
      <trkpt lat="42.59397" lon="1.45009">
        <ele>2511.325</ele>
        <time>2016-05-06T01:36:02Z</time>
      </trkpt>
      <trkpt lat="42.59405" lon="1.45">
        <ele>2517.397</ele>
        <time>2016-05-06T01:36:22Z</time>
      </trkpt>
      <trkpt lat="42.59413" lon="1.4499">
        <ele>2522.065</ele>
        <time>2016-05-06T01:36:42Z</time>
      </trkpt>
      <trkpt lat="42.59422" lon="1.44977">
        <ele>2528.543</ele>
        <time>2016-05-06T01:37:02Z</time>
      </trkpt>
      <trkpt lat="42.59433" lon="1.44963">
        <ele>2534.471</ele>
        <time>2016-05-06T01:37:22Z</time>
      </trkpt>
      <trkpt lat="42.59431" lon="1.44946">
        <ele>2541.342</ele>
        <time>2016-05-06T01:37:42Z</time>
      </trkpt>
      <trkpt lat="42.59428" lon="1.44933">
        <ele>2546.79</ele>
        <time>2016-05-06T01:38:02Z</time>
      </trkpt>
      <trkpt lat="42.59428" lon="1.44919">
        <ele>2551.438</ele>
        <time>2016-05-06T01:38:22Z</time>
      </trkpt>
      <trkpt lat="42.59424" lon="1.44902">
        <ele>2558.221</ele>
        <time>2016-05-06T01:38:42Z</time>
      </trkpt>
      <trkpt lat="42.5942" lon="1.44885">
        <ele>2564.741</ele>
        <time>2016-05-06T01:39:02Z</time>
      </trkpt>
      <trkpt lat="42.59429" lon="1.44866">
        <ele>2570.805</ele>
        <time>2016-05-06T01:39:22Z</time>
      </trkpt>
      <trkpt lat="42.5943" lon="1.44848">
        <ele>2578.108</ele>
        <time>2016-05-06T01:39:42Z</time>
      </trkpt>
      <trkpt lat="42.59438" lon="1.44834">
        <ele>2582.943</ele>
        <time>2016-05-06T01:40:02Z</time>
      </trkpt>
      <trkpt lat="42.59445" lon="1.44819">
        <ele>2587.035</ele>
        <time>2016-05-06T01:40:22Z</time>
      </trkpt>
      <trkpt lat="42.59452" lon="1.44805">
        <ele>2590.923</ele>
        <time>2016-05-06T01:40:42Z</time>
      </trkpt>
      <trkpt lat="42.59465" lon="1.44786">
        <ele>2594.541</ele>
        <time>2016-05-06T01:41:02Z</time>
      </trkpt>
      <trkpt lat="42.59477" lon="1.44765">
        <ele>2598.919</ele>
        <time>2016-05-06T01:41:22Z</time>
      </trkpt>
      <trkpt lat="42.59485" lon="1.44749">
        <ele>2604.61</ele>
        <time>2016-05-06T01:41:42Z</time>
      </trkpt>
      <trkpt lat="42.5949" lon="1.44728">
        <ele>2610.798</ele>
        <time>2016-05-06T01:42:02Z</time>
      </trkpt>
      <trkpt lat="42.5949" lon="1.44724">
        <ele>2611.736</ele>
        <time>2016-05-06T01:42:22Z</time>
      </trkpt>
      <trkpt lat="42.59489" lon="1.4472">
        <ele>2612.657</ele>
        <time>2016-05-06T01:42:42Z</time>
      </trkpt>
      <trkpt lat="42.59489" lon="1.44715">
        <ele>2613.5</ele>
        <time>2016-05-06T01:43:02Z</time>
      </trkpt>
      <trkpt lat="42.59488" lon="1.44711">
        <ele>2614.12</ele>
        <time>2016-05-06T01:43:22Z</time>
      </trkpt>
      <trkpt lat="42.59486" lon="1.44707">
        <ele>2614.408</ele>
        <time>2016-05-06T01:43:42Z</time>
      </trkpt>
      <trkpt lat="42.59484" lon="1.44703">
        <ele>2615.076</ele>
        <time>2016-05-06T01:44:02Z</time>
      </trkpt>
      <trkpt lat="42.59484" lon="1.44699">
        <ele>2615.928</ele>
        <time>2016-05-06T01:44:22Z</time>
      </trkpt>
      <trkpt lat="42.59486" lon="1.44695">
        <ele>2616.846</ele>
        <time>2016-05-06T01:44:42Z</time>
      </trkpt>
      <trkpt lat="42.59486" lon="1.44691">
        <ele>2617.874</ele>
        <time>2016-05-06T01:45:02Z</time>
      </trkpt>
      <trkpt lat="42.59487" lon="1.44687">
        <ele>2618.812</ele>
        <time>2016-05-06T01:45:22Z</time>
      </trkpt>
      <trkpt lat="42.59488" lon="1.44685">
        <ele>2619.313</ele>
        <time>2016-05-06T01:45:42Z</time>
      </trkpt>
      <trkpt lat="42.59491" lon="1.44678">
        <ele>2621.141</ele>
        <time>2016-05-06T01:46:02Z</time>
      </trkpt>
      <trkpt lat="42.59493" lon="1.44673">
        <ele>2622.379</ele>
        <time>2016-05-06T01:46:22Z</time>
      </trkpt>
      <trkpt lat="42.59495" lon="1.4467">
        <ele>2623.018</ele>
        <time>2016-05-06T01:46:42Z</time>
      </trkpt>
      <trkpt lat="42.59497" lon="1.44667">
        <ele>2623.798</ele>
        <time>2016-05-06T01:47:02Z</time>
      </trkpt>
      <trkpt lat="42.595" lon="1.44661">
        <ele>2625.017</ele>
        <time>2016-05-06T01:47:22Z</time>
      </trkpt>
      <trkpt lat="42.59503" lon="1.44657">
        <ele>2627.208</ele>
        <time>2016-05-06T01:47:42Z</time>
      </trkpt>
      <trkpt lat="42.59504" lon="1.44652">
        <ele>2628.432</ele>
        <time>2016-05-06T01:48:02Z</time>
      </trkpt>
      <trkpt lat="42.59505" lon="1.44648">
        <ele>2630.184</ele>
        <time>2016-05-06T01:48:22Z</time>
      </trkpt>
      <trkpt lat="42.59508" lon="1.44643">
        <ele>2632.722</ele>
        <time>2016-05-06T01:48:42Z</time>
      </trkpt>
      <trkpt lat="42.59508" lon="1.44639">
        <ele>2633.42</ele>
        <time>2016-05-06T01:49:02Z</time>
      </trkpt>
      <trkpt lat="42.5951" lon="1.44633">
        <ele>2635.738</ele>
        <time>2016-05-06T01:49:22Z</time>
      </trkpt>
      <trkpt lat="42.59513" lon="1.44625">
        <ele>2638.299</ele>
        <time>2016-05-06T01:49:42Z</time>
      </trkpt>
      <trkpt lat="42.59513" lon="1.44621">
        <ele>2638.927</ele>
        <time>2016-05-06T01:50:02Z</time>
      </trkpt>
      <trkpt lat="42.59513" lon="1.44616">
        <ele>2639.755</ele>
        <time>2016-05-06T01:50:22Z</time>
      </trkpt>
      <trkpt lat="42.59512" lon="1.44612">
        <ele>2640.447</ele>
        <time>2016-05-06T01:50:42Z</time>
      </trkpt>
      <trkpt lat="42.59512" lon="1.44607">
        <ele>2641.429</ele>
        <time>2016-05-06T01:51:02Z</time>
      </trkpt>
      <trkpt lat="42.59512" lon="1.44604">
        <ele>2641.721</ele>
        <time>2016-05-06T01:51:22Z</time>
      </trkpt>
      <trkpt lat="42.5951" lon="1.44599">
        <ele>2641.408</ele>
        <time>2016-05-06T01:51:42Z</time>
      </trkpt>
      <trkpt lat="42.59508" lon="1.44596">
        <ele>2640.945</ele>
        <time>2016-05-06T01:52:02Z</time>
      </trkpt>
      <trkpt lat="42.59508" lon="1.44593">
        <ele>2641.997</ele>
        <time>2016-05-06T01:52:22Z</time>
      </trkpt>
      <trkpt lat="42.59506" lon="1.44585">
        <ele>2642.265</ele>
        <time>2016-05-06T01:52:42Z</time>
      </trkpt>
      <trkpt lat="42.59505" lon="1.44581">
        <ele>2642.463</ele>
        <time>2016-05-06T01:53:02Z</time>
      </trkpt>
      <trkpt lat="42.59505" lon="1.44577">
        <ele>2644.011</ele>
        <time>2016-05-06T01:53:22Z</time>
      </trkpt>
      <trkpt lat="42.59507" lon="1.44572">
        <ele>2646.592</ele>
        <time>2016-05-06T01:53:42Z</time>
      </trkpt>
      <trkpt lat="42.59509" lon="1.44567">
        <ele>2648.76</ele>
        <time>2016-05-06T01:54:02Z</time>
      </trkpt>
      <trkpt lat="42.59508" lon="1.44562">
        <ele>2649.758</ele>
        <time>2016-05-06T01:54:22Z</time>
      </trkpt>
      <trkpt lat="42.59505" lon="1.44559">
        <ele>2649.078</ele>
        <time>2016-05-06T01:54:42Z</time>
      </trkpt>
      <trkpt lat="42.59503" lon="1.44557">
        <ele>2648.033</ele>
        <time>2016-05-06T01:55:02Z</time>
      </trkpt>
      <trkpt lat="42.59501" lon="1.44552">
        <ele>2648.526</ele>
        <time>2016-05-06T01:55:22Z</time>
      </trkpt>
      <trkpt lat="42.59501" lon="1.44547">
        <ele>2649.908</ele>
        <time>2016-05-06T01:55:42Z</time>
      </trkpt>
      <trkpt lat="42.59502" lon="1.44543">
        <ele>2651.228</ele>
        <time>2016-05-06T01:56:02Z</time>
      </trkpt>
      <trkpt lat="42.59503" lon="1.44539">
        <ele>2652.67</ele>
        <time>2016-05-06T01:56:22Z</time>
      </trkpt>
      <trkpt lat="42.59504" lon="1.44532">
        <ele>2655.588</ele>
        <time>2016-05-06T01:56:42Z</time>
      </trkpt>
      <trkpt lat="42.59505" lon="1.44528">
        <ele>2656.736</ele>
        <time>2016-05-06T01:57:02Z</time>
      </trkpt>
      <trkpt lat="42.59506" lon="1.44523">
        <ele>2659.514</ele>
        <time>2016-05-06T01:57:22Z</time>
      </trkpt>
      <trkpt lat="42.59507" lon="1.44518">
        <ele>2662.165</ele>
        <time>2016-05-06T01:57:42Z</time>
      </trkpt>
      <trkpt lat="42.59509" lon="1.44513">
        <ele>2664.753</ele>
        <time>2016-05-06T01:58:02Z</time>
      </trkpt>
      <trkpt lat="42.5951" lon="1.4451">
        <ele>2666.631</ele>
        <time>2016-05-06T01:58:22Z</time>
      </trkpt>
      <trkpt lat="42.59513" lon="1.44506">
        <ele>2669.584</ele>
        <time>2016-05-06T01:58:42Z</time>
      </trkpt>
      <trkpt lat="42.59515" lon="1.44501">
        <ele>2672.107</ele>
        <time>2016-05-06T01:59:02Z</time>
      </trkpt>
      <trkpt lat="42.59515" lon="1.44497">
        <ele>2673.517</ele>
        <time>2016-05-06T01:59:22Z</time>
      </trkpt>
      <trkpt lat="42.59516" lon="1.44492">
        <ele>2674.808</ele>
        <time>2016-05-06T01:59:42Z</time>
      </trkpt>
      <trkpt lat="42.59516" lon="1.44488">
        <ele>2675.629</ele>
        <time>2016-05-06T02:00:02Z</time>
      </trkpt>
      <trkpt lat="42.59516" lon="1.44483">
        <ele>2676.971</ele>
        <time>2016-05-06T02:00:22Z</time>
      </trkpt>
      <trkpt lat="42.59515" lon="1.44479">
        <ele>2677.739</ele>
        <time>2016-05-06T02:00:42Z</time>
      </trkpt>
      <trkpt lat="42.59512" lon="1.44477">
        <ele>2677.477</ele>
        <time>2016-05-06T02:01:02Z</time>
      </trkpt>
      <trkpt lat="42.59509" lon="1.44476">
        <ele>2676.615</ele>
        <time>2016-05-06T02:01:22Z</time>
      </trkpt>
      <trkpt lat="42.59506" lon="1.44476">
        <ele>2675.576</ele>
        <time>2016-05-06T02:01:42Z</time>
      </trkpt>
      <trkpt lat="42.59503" lon="1.44474">
        <ele>2675.334</ele>
        <time>2016-05-06T02:02:02Z</time>
      </trkpt>
      <trkpt lat="42.59502" lon="1.44469">
        <ele>2676.332</ele>
        <time>2016-05-06T02:02:22Z</time>
      </trkpt>
      <trkpt lat="42.59502" lon="1.44464">
        <ele>2677.451</ele>
        <time>2016-05-06T02:02:42Z</time>
      </trkpt>
      <trkpt lat="42.59502" lon="1.4446">
        <ele>2678.501</ele>
        <time>2016-05-06T02:03:02Z</time>
      </trkpt>
      <trkpt lat="42.59503" lon="1.44456">
        <ele>2679.611</ele>
        <time>2016-05-06T02:03:22Z</time>
      </trkpt>
      <trkpt lat="42.59503" lon="1.44452">
        <ele>2680.508</ele>
        <time>2016-05-06T02:03:42Z</time>
      </trkpt>
      <trkpt lat="42.59503" lon="1.44448">
        <ele>2681.646</ele>
        <time>2016-05-06T02:04:02Z</time>
      </trkpt>
      <trkpt lat="42.59505" lon="1.44445">
        <ele>2682.578</ele>
        <time>2016-05-06T02:04:22Z</time>
      </trkpt>
      <trkpt lat="42.59508" lon="1.44442">
        <ele>2683.296</ele>
        <time>2016-05-06T02:04:42Z</time>
      </trkpt>
      <trkpt lat="42.5951" lon="1.44439">
        <ele>2684.114</ele>
        <time>2016-05-06T02:05:02Z</time>
      </trkpt>
      <trkpt lat="42.59513" lon="1.44438">
        <ele>2684.442</ele>
        <time>2016-05-06T02:05:22Z</time>
      </trkpt>
      <trkpt lat="42.59515" lon="1.44434">
        <ele>2685.313</ele>
        <time>2016-05-06T02:05:42Z</time>
      </trkpt>
      <trkpt lat="42.59512" lon="1.44427">
        <ele>2686.291</ele>
        <time>2016-05-06T02:06:02Z</time>
      </trkpt>
      <trkpt lat="42.59511" lon="1.44415">
        <ele>2688.079</ele>
        <time>2016-05-06T02:06:22Z</time>
      </trkpt>
      <trkpt lat="42.59506" lon="1.44403">
        <ele>2689.546</ele>
        <time>2016-05-06T02:06:42Z</time>
      </trkpt>
      <trkpt lat="42.59501" lon="1.44394">
        <ele>2691.188</ele>
        <time>2016-05-06T02:07:02Z</time>
      </trkpt>
      <trkpt lat="42.59495" lon="1.44383">
        <ele>2694.616</ele>
        <time>2016-05-06T02:07:22Z</time>
      </trkpt>
      <trkpt lat="42.59492" lon="1.44372">
        <ele>2698.108</ele>
        <time>2016-05-06T02:07:42Z</time>
      </trkpt>
      <trkpt lat="42.59489" lon="1.44362">
        <ele>2701.195</ele>
        <time>2016-05-06T02:08:02Z</time>
      </trkpt>
      <trkpt lat="42.59483" lon="1.4435">
        <ele>2704.267</ele>
        <time>2016-05-06T02:08:22Z</time>
      </trkpt>
      <trkpt lat="42.59479" lon="1.44337">
        <ele>2707.365</ele>
        <time>2016-05-06T02:08:42Z</time>
      </trkpt>
      <trkpt lat="42.59474" lon="1.44328">
        <ele>2709.673</ele>
        <time>2016-05-06T02:09:02Z</time>
      </trkpt>
      <trkpt lat="42.5947" lon="1.44317">
        <ele>2713.131</ele>
        <time>2016-05-06T02:09:22Z</time>
      </trkpt>
      <trkpt lat="42.59464" lon="1.44306">
        <ele>2718.652</ele>
        <time>2016-05-06T02:09:42Z</time>
      </trkpt>
      <trkpt lat="42.59456" lon="1.44293">
        <ele>2723.76</ele>
        <time>2016-05-06T02:10:02Z</time>
      </trkpt>
      <trkpt lat="42.5945" lon="1.4428">
        <ele>2727.878</ele>
        <time>2016-05-06T02:10:22Z</time>
      </trkpt>
      <trkpt lat="42.59442" lon="1.44265">
        <ele>2734.091</ele>
        <time>2016-05-06T02:10:42Z</time>
      </trkpt>
      <trkpt lat="42.59437" lon="1.44252">
        <ele>2738.581</ele>
        <time>2016-05-06T02:11:02Z</time>
      </trkpt>
      <trkpt lat="42.59434" lon="1.44241">
        <ele>2742.619</ele>
        <time>2016-05-06T02:11:22Z</time>
      </trkpt>
      <trkpt lat="42.59429" lon="1.44233">
        <ele>2747.108</ele>
        <time>2016-05-06T02:11:42Z</time>
      </trkpt>
      <trkpt lat="42.59426" lon="1.44216">
        <ele>2751.27</ele>
        <time>2016-05-06T02:12:02Z</time>
      </trkpt>
      <trkpt lat="42.59421" lon="1.44204">
        <ele>2757.032</ele>
        <time>2016-05-06T02:12:22Z</time>
      </trkpt>
      <trkpt lat="42.59419" lon="1.44195">
        <ele>2760.34</ele>
        <time>2016-05-06T02:12:42Z</time>
      </trkpt>
      <trkpt lat="42.59416" lon="1.44177">
        <ele>2769.288</ele>
        <time>2016-05-06T02:13:02Z</time>
      </trkpt>
      <trkpt lat="42.5941" lon="1.44162">
        <ele>2781.066</ele>
        <time>2016-05-06T02:13:22Z</time>
      </trkpt>
      <trkpt lat="42.59404" lon="1.4416">
        <ele>2786.767</ele>
        <time>2016-05-06T02:13:42Z</time>
      </trkpt>
      <trkpt lat="42.59403" lon="1.4416">
        <ele>2787.215</ele>
        <time>2016-05-06T02:14:02Z</time>
      </trkpt>
      <trkpt lat="42.59398" lon="1.44157">
        <ele>2792.063</ele>
        <time>2016-05-06T02:14:22Z</time>
      </trkpt>
      <trkpt lat="42.59394" lon="1.44157">
        <ele>2793.969</ele>
        <time>2016-05-06T02:14:42Z</time>
      </trkpt>
      <trkpt lat="42.59392" lon="1.44156">
        <ele>2795.804</ele>
        <time>2016-05-06T02:15:02Z</time>
      </trkpt>
      <trkpt lat="42.5939" lon="1.44155">
        <ele>2797.124</ele>
        <time>2016-05-06T02:15:22Z</time>
      </trkpt>
      <trkpt lat="42.59387" lon="1.44154">
        <ele>2799.808</ele>
        <time>2016-05-06T02:15:42Z</time>
      </trkpt>
      <trkpt lat="42.59385" lon="1.44154">
        <ele>2801.387</ele>
        <time>2016-05-06T02:16:02Z</time>
      </trkpt>
      <trkpt lat="42.59383" lon="1.44153">
        <ele>2803.079</ele>
        <time>2016-05-06T02:16:22Z</time>
      </trkpt>
      <trkpt lat="42.5938" lon="1.44153">
        <ele>2805.577</ele>
        <time>2016-05-06T02:16:42Z</time>
      </trkpt>
      <trkpt lat="42.59378" lon="1.44152">
        <ele>2807.265</ele>
        <time>2016-05-06T02:17:02Z</time>
      </trkpt>
      <trkpt lat="42.59376" lon="1.44151">
        <ele>2809.543</ele>
        <time>2016-05-06T02:17:22Z</time>
      </trkpt>
      <trkpt lat="42.59372" lon="1.4415">
        <ele>2812.354</ele>
        <time>2016-05-06T02:17:42Z</time>
      </trkpt>
      <trkpt lat="42.5937" lon="1.44151">
        <ele>2813.432</ele>
        <time>2016-05-06T02:18:02Z</time>
      </trkpt>
      <trkpt lat="42.59367" lon="1.4415">
        <ele>2815.42</ele>
        <time>2016-05-06T02:18:22Z</time>
      </trkpt>
      <trkpt lat="42.59365" lon="1.44151">
        <ele>2817.214</ele>
        <time>2016-05-06T02:18:42Z</time>
      </trkpt>
      <trkpt lat="42.59363" lon="1.44151">
        <ele>2818.754</ele>
        <time>2016-05-06T02:19:02Z</time>
      </trkpt>
      <trkpt lat="42.59362" lon="1.44151">
        <ele>2819.509</ele>
        <time>2016-05-06T02:19:22Z</time>
      </trkpt>
      <trkpt lat="42.59359" lon="1.44151">
        <ele>2820.608</ele>
        <time>2016-05-06T02:19:42Z</time>
      </trkpt>
      <trkpt lat="42.59357" lon="1.44153">
        <ele>2821.362</ele>
        <time>2016-05-06T02:20:02Z</time>
      </trkpt>
      <trkpt lat="42.59355" lon="1.44154">
        <ele>2822.094</ele>
        <time>2016-05-06T02:20:22Z</time>
      </trkpt>
      <trkpt lat="42.59355" lon="1.44157">
        <ele>2821.972</ele>
        <time>2016-05-06T02:20:42Z</time>
      </trkpt>
      <trkpt lat="42.59353" lon="1.44159">
        <ele>2823.31</ele>
        <time>2016-05-06T02:21:02Z</time>
      </trkpt>
      <trkpt lat="42.59351" lon="1.44161">
        <ele>2824.318</ele>
        <time>2016-05-06T02:21:22Z</time>
      </trkpt>
      <trkpt lat="42.5935" lon="1.44164">
        <ele>2825.289</ele>
        <time>2016-05-06T02:21:42Z</time>
      </trkpt>
      <trkpt lat="42.59349" lon="1.44166">
        <ele>2825.877</ele>
        <time>2016-05-06T02:22:02Z</time>
      </trkpt>
      <trkpt lat="42.59348" lon="1.44169">
        <ele>2827.795</ele>
        <time>2016-05-06T02:22:22Z</time>
      </trkpt>
      <trkpt lat="42.59346" lon="1.4417">
        <ele>2829.546</ele>
        <time>2016-05-06T02:22:42Z</time>
      </trkpt>
      <trkpt lat="42.59344" lon="1.44172">
        <ele>2831.388</ele>
        <time>2016-05-06T02:23:02Z</time>
      </trkpt>
      <trkpt lat="42.59344" lon="1.44173">
        <ele>2832.416</ele>
        <time>2016-05-06T02:23:22Z</time>
      </trkpt>
      <trkpt lat="42.59342" lon="1.44176">
        <ele>2834.308</ele>
        <time>2016-05-06T02:23:42Z</time>
      </trkpt>
      <trkpt lat="42.5934" lon="1.44178">
        <ele>2837.255</ele>
        <time>2016-05-06T02:24:02Z</time>
      </trkpt>
      <trkpt lat="42.59339" lon="1.4418">
        <ele>2838.337</ele>
        <time>2016-05-06T02:24:22Z</time>
      </trkpt>
      <trkpt lat="42.59338" lon="1.44182">
        <ele>2840.085</ele>
        <time>2016-05-06T02:24:42Z</time>
      </trkpt>
      <trkpt lat="42.59337" lon="1.44184">
        <ele>2842.143</ele>
        <time>2016-05-06T02:25:02Z</time>
      </trkpt>
      <trkpt lat="42.59335" lon="1.44185">
        <ele>2844.381</ele>
        <time>2016-05-06T02:25:22Z</time>
      </trkpt>
      <trkpt lat="42.59334" lon="1.44186">
        <ele>2845.882</ele>
        <time>2016-05-06T02:25:42Z</time>
      </trkpt>
      <trkpt lat="42.59333" lon="1.44189">
        <ele>2847.82</ele>
        <time>2016-05-06T02:26:02Z</time>
      </trkpt>
      <trkpt lat="42.59331" lon="1.44191">
        <ele>2849.048</ele>
        <time>2016-05-06T02:26:22Z</time>
      </trkpt>
      <trkpt lat="42.5933" lon="1.44193">
        <ele>2850.163</ele>
        <time>2016-05-06T02:26:42Z</time>
      </trkpt>
      <trkpt lat="42.59329" lon="1.44194">
        <ele>2851.044</ele>
        <time>2016-05-06T02:27:02Z</time>
      </trkpt>
      <trkpt lat="42.59326" lon="1.44195">
        <ele>2851.918</ele>
        <time>2016-05-06T02:27:22Z</time>
      </trkpt>
      <trkpt lat="42.59325" lon="1.44195">
        <ele>2852.508</ele>
        <time>2016-05-06T02:27:42Z</time>
      </trkpt>
      <trkpt lat="42.59323" lon="1.44195">
        <ele>2853.417</ele>
        <time>2016-05-06T02:28:02Z</time>
      </trkpt>
      <trkpt lat="42.59322" lon="1.44196">
        <ele>2854.079</ele>
        <time>2016-05-06T02:28:22Z</time>
      </trkpt>
      <trkpt lat="42.59321" lon="1.44196">
        <ele>2854.427</ele>
        <time>2016-05-06T02:28:42Z</time>
      </trkpt>
      <trkpt lat="42.59319" lon="1.44197">
        <ele>2855.255</ele>
        <time>2016-05-06T02:29:02Z</time>
      </trkpt>
      <trkpt lat="42.59318" lon="1.44198">
        <ele>2855.643</ele>
        <time>2016-05-06T02:29:22Z</time>
      </trkpt>
      <trkpt lat="42.59316" lon="1.442">
        <ele>2856.374</ele>
        <time>2016-05-06T02:29:42Z</time>
      </trkpt>
      <trkpt lat="42.59315" lon="1.44201">
        <ele>2856.862</ele>
        <time>2016-05-06T02:30:02Z</time>
      </trkpt>
      <trkpt lat="42.59314" lon="1.44203">
        <ele>2857.53</ele>
        <time>2016-05-06T02:30:22Z</time>
      </trkpt>
      <trkpt lat="42.59313" lon="1.44204">
        <ele>2858.576</ele>
        <time>2016-05-06T02:30:42Z</time>
      </trkpt>
      <trkpt lat="42.59311" lon="1.44205">
        <ele>2859.59</ele>
        <time>2016-05-06T02:31:02Z</time>
      </trkpt>
      <trkpt lat="42.5931" lon="1.44206">
        <ele>2860.119</ele>
        <time>2016-05-06T02:31:22Z</time>
      </trkpt>
      <trkpt lat="42.59308" lon="1.44209">
        <ele>2861.808</ele>
        <time>2016-05-06T02:31:42Z</time>
      </trkpt>
      <trkpt lat="42.59298" lon="1.44219">
        <ele>2868.068</ele>
        <time>2016-05-06T02:32:02Z</time>
      </trkpt>
      <trkpt lat="42.59293" lon="1.44223">
        <ele>2870.39</ele>
        <time>2016-05-06T02:32:22Z</time>
      </trkpt>
      <trkpt lat="42.59287" lon="1.44226">
        <ele>2873.088</ele>
        <time>2016-05-06T02:32:42Z</time>
      </trkpt>
      <trkpt lat="42.59282" lon="1.44233">
        <ele>2875.956</ele>
        <time>2016-05-06T02:33:02Z</time>
      </trkpt>
      <trkpt lat="42.59277" lon="1.44238">
        <ele>2879.764</ele>
        <time>2016-05-06T02:33:22Z</time>
      </trkpt>
      <trkpt lat="42.59271" lon="1.44241">
        <ele>2882.895</ele>
        <time>2016-05-06T02:33:42Z</time>
      </trkpt>
      <trkpt lat="42.59263" lon="1.44245">
        <ele>2887.463</ele>
        <time>2016-05-06T02:34:02Z</time>
      </trkpt>
      <trkpt lat="42.59259" lon="1.44242">
        <ele>2887.881</ele>
        <time>2016-05-06T02:34:22Z</time>
      </trkpt>
      <trkpt lat="42.59257" lon="1.44237">
        <ele>2886.272</ele>
        <time>2016-05-06T02:34:42Z</time>
      </trkpt>
      <trkpt lat="42.59253" lon="1.44237">
        <ele>2887.513</ele>
        <time>2016-05-06T02:35:02Z</time>
      </trkpt>
      <trkpt lat="42.5925" lon="1.44239">
        <ele>2889.414</ele>
        <time>2016-05-06T02:35:22Z</time>
      </trkpt>
      <trkpt lat="42.59247" lon="1.44242">
        <ele>2890.708</ele>
        <time>2016-05-06T02:35:42Z</time>
      </trkpt>
      <trkpt lat="42.59244" lon="1.44243">
        <ele>2891.028</ele>
        <time>2016-05-06T02:36:02Z</time>
      </trkpt>
      <trkpt lat="42.5924" lon="1.44246">
        <ele>2892.23</ele>
        <time>2016-05-06T02:36:22Z</time>
      </trkpt>
      <trkpt lat="42.59238" lon="1.44248">
        <ele>2893.338</ele>
        <time>2016-05-06T02:36:42Z</time>
      </trkpt>
      <trkpt lat="42.59234" lon="1.44254">
        <ele>2895.266</ele>
        <time>2016-05-06T02:37:02Z</time>
      </trkpt>
      <trkpt lat="42.59232" lon="1.44257">
        <ele>2896.524</ele>
        <time>2016-05-06T02:37:22Z</time>
      </trkpt>
      <trkpt lat="42.5923" lon="1.44261">
        <ele>2898.575</ele>
        <time>2016-05-06T02:37:42Z</time>
      </trkpt>
      <trkpt lat="42.59228" lon="1.44263">
        <ele>2899.853</ele>
        <time>2016-05-06T02:38:02Z</time>
      </trkpt>
      <trkpt lat="42.59224" lon="1.44266">
        <ele>2901.841</ele>
        <time>2016-05-06T02:38:22Z</time>
      </trkpt>
      <trkpt lat="42.59223" lon="1.44269">
        <ele>2903.736</ele>
        <time>2016-05-06T02:38:42Z</time>
      </trkpt>
      <trkpt lat="42.59221" lon="1.44273">
        <ele>2905.517</ele>
        <time>2016-05-06T02:39:02Z</time>
      </trkpt>
      <trkpt lat="42.59218" lon="1.44276">
        <ele>2906.518</ele>
        <time>2016-05-06T02:39:22Z</time>
      </trkpt>
      <trkpt lat="42.59216" lon="1.44277">
        <ele>2906.908</ele>
        <time>2016-05-06T02:39:42Z</time>
      </trkpt>
      <trkpt lat="42.59214" lon="1.44279">
        <ele>2907.374</ele>
        <time>2016-05-06T02:40:02Z</time>
      </trkpt>
      <trkpt lat="42.59212" lon="1.44281">
        <ele>2907.546</ele>
        <time>2016-05-06T02:40:22Z</time>
      </trkpt>
      <trkpt lat="42.59207" lon="1.44284">
        <ele>2907.844</ele>
        <time>2016-05-06T02:40:42Z</time>
      </trkpt>
      <trkpt lat="42.59207" lon="1.44286">
        <ele>2908.752</ele>
        <time>2016-05-06T02:41:02Z</time>
      </trkpt>
      <trkpt lat="42.59206" lon="1.4429">
        <ele>2910.56</ele>
        <time>2016-05-06T02:41:22Z</time>
      </trkpt>
      <trkpt lat="42.59205" lon="1.44293">
        <ele>2911.931</ele>
        <time>2016-05-06T02:41:42Z</time>
      </trkpt>
      <trkpt lat="42.59203" lon="1.44295">
        <ele>2912.569</ele>
        <time>2016-05-06T02:42:02Z</time>
      </trkpt>
      <trkpt lat="42.592" lon="1.44298">
        <ele>2913.467</ele>
        <time>2016-05-06T02:42:22Z</time>
      </trkpt>
      <trkpt lat="42.59197" lon="1.44301">
        <ele>2914.819</ele>
        <time>2016-05-06T02:42:42Z</time>
      </trkpt>
      <trkpt lat="42.59197" lon="1.44303">
        <ele>2915.809</ele>
        <time>2016-05-06T02:43:02Z</time>
      </trkpt>
      <trkpt lat="42.59195" lon="1.44306">
        <ele>2917.219</ele>
        <time>2016-05-06T02:43:22Z</time>
      </trkpt>
      <trkpt lat="42.59194" lon="1.44308">
        <ele>2918.108</ele>
        <time>2016-05-06T02:43:42Z</time>
      </trkpt>
      <trkpt lat="42.59193" lon="1.44311">
        <ele>2918.962</ele>
        <time>2016-05-06T02:44:02Z</time>
      </trkpt>
      <trkpt lat="42.59192" lon="1.44313">
        <ele>2919.784</ele>
        <time>2016-05-06T02:44:22Z</time>
      </trkpt>
      <trkpt lat="42.59191" lon="1.44316">
        <ele>2920.652</ele>
        <time>2016-05-06T02:44:42Z</time>
      </trkpt>
      <trkpt lat="42.5919" lon="1.44317">
        <ele>2921.07</ele>
        <time>2016-05-06T02:45:02Z</time>
      </trkpt>
      <trkpt lat="42.59188" lon="1.44319">
        <ele>2921.398</ele>
        <time>2016-05-06T02:45:22Z</time>
      </trkpt>
      <trkpt lat="42.59186" lon="1.44322">
        <ele>2922.279</ele>
        <time>2016-05-06T02:45:42Z</time>
      </trkpt>
      <trkpt lat="42.59186" lon="1.44324">
        <ele>2923.217</ele>
        <time>2016-05-06T02:46:02Z</time>
      </trkpt>
      <trkpt lat="42.59186" lon="1.44326">
        <ele>2923.975</ele>
        <time>2016-05-06T02:46:22Z</time>
      </trkpt>
      <trkpt lat="42.59184" lon="1.44327">
        <ele>2924.533</ele>
        <time>2016-05-06T02:46:42Z</time>
      </trkpt>
      <trkpt lat="42.59181" lon="1.44326">
        <ele>2923.223</ele>
        <time>2016-05-06T02:47:02Z</time>
      </trkpt>
      <trkpt lat="42.59181" lon="1.44329">
        <ele>2924.215</ele>
        <time>2016-05-06T02:47:22Z</time>
      </trkpt>
      <trkpt lat="42.59182" lon="1.4433">
        <ele>2925.108</ele>
        <time>2016-05-06T02:47:42Z</time>
      </trkpt>
      <trkpt lat="42.59179" lon="1.44332">
        <ele>2925.714</ele>
        <time>2016-05-06T02:48:02Z</time>
      </trkpt>
      <trkpt lat="42.59177" lon="1.44332">
        <ele>2925.056</ele>
        <time>2016-05-06T02:48:22Z</time>
      </trkpt>
      <trkpt lat="42.59175" lon="1.44333">
        <ele>2925.134</ele>
        <time>2016-05-06T02:48:42Z</time>
      </trkpt>
      <trkpt lat="42.59175" lon="1.44335">
        <ele>2925.682</ele>
        <time>2016-05-06T02:49:02Z</time>
      </trkpt>
      <trkpt lat="42.59174" lon="1.44337">
        <ele>2926.02</ele>
        <time>2016-05-06T02:49:22Z</time>
      </trkpt>
      <trkpt lat="42.59173" lon="1.44338">
        <ele>2926.191</ele>
        <time>2016-05-06T02:49:42Z</time>
      </trkpt>
      <trkpt lat="42.59171" lon="1.44338">
        <ele>2925.759</ele>
        <time>2016-05-06T02:50:02Z</time>
      </trkpt>
      <trkpt lat="42.59169" lon="1.44339">
        <ele>2925.567</ele>
        <time>2016-05-06T02:50:22Z</time>
      </trkpt>
      <trkpt lat="42.59168" lon="1.4435">
        <ele>2929.172</ele>
        <time>2016-05-06T02:50:42Z</time>
      </trkpt>
      <trkpt lat="42.59172" lon="1.44364">
        <ele>2932.413</ele>
        <time>2016-05-06T02:51:02Z</time>
      </trkpt>
      <trkpt lat="42.59167" lon="1.44359">
        <ele>2932.114</ele>
        <time>2016-05-06T02:51:22Z</time>
      </trkpt>
      <trkpt lat="42.59166" lon="1.44347">
        <ele>2927.508</ele>
        <time>2016-05-06T02:51:42Z</time>
      </trkpt>
      <trkpt lat="42.59167" lon="1.44341">
        <ele>2925.798</ele>
        <time>2016-05-06T02:52:02Z</time>
      </trkpt>
      <trkpt lat="42.59172" lon="1.44335">
        <ele>2924.74</ele>
        <time>2016-05-06T02:52:22Z</time>
      </trkpt>
      <trkpt lat="42.59173" lon="1.44331">
        <ele>2923.148</ele>
        <time>2016-05-06T02:52:42Z</time>
      </trkpt>
      <trkpt lat="42.59173" lon="1.4433">
        <ele>2922.626</ele>
        <time>2016-05-06T02:53:02Z</time>
      </trkpt>
      <trkpt lat="42.59174" lon="1.44328">
        <ele>2922.144</ele>
        <time>2016-05-06T02:53:22Z</time>
      </trkpt>
      <trkpt lat="42.59175" lon="1.44326">
        <ele>2921.475</ele>
        <time>2016-05-06T02:53:42Z</time>
      </trkpt>
      <trkpt lat="42.59176" lon="1.44326">
        <ele>2921.623</ele>
        <time>2016-05-06T02:54:02Z</time>
      </trkpt>
      <trkpt lat="42.59177" lon="1.44326">
        <ele>2921.751</ele>
        <time>2016-05-06T02:54:22Z</time>
      </trkpt>
      <trkpt lat="42.59179" lon="1.44325">
        <ele>2921.633</ele>
        <time>2016-05-06T02:54:42Z</time>
      </trkpt>
      <trkpt lat="42.59179" lon="1.44323">
        <ele>2921.123</ele>
        <time>2016-05-06T02:55:02Z</time>
      </trkpt>
      <trkpt lat="42.5918" lon="1.44322">
        <ele>2920.815</ele>
        <time>2016-05-06T02:55:22Z</time>
      </trkpt>
      <trkpt lat="42.59181" lon="1.44322">
        <ele>2920.508</ele>
        <time>2016-05-06T02:55:42Z</time>
      </trkpt>
      <trkpt lat="42.59182" lon="1.4432">
        <ele>2920.294</ele>
        <time>2016-05-06T02:56:02Z</time>
      </trkpt>
      <trkpt lat="42.59183" lon="1.44317">
        <ele>2919.286</ele>
        <time>2016-05-06T02:56:22Z</time>
      </trkpt>
      <trkpt lat="42.59184" lon="1.44315">
        <ele>2918.174</ele>
        <time>2016-05-06T02:56:42Z</time>
      </trkpt>
      <trkpt lat="42.59184" lon="1.44313">
        <ele>2917.392</ele>
        <time>2016-05-06T02:57:02Z</time>
      </trkpt>
      <trkpt lat="42.59185" lon="1.44312">
        <ele>2917.17</ele>
        <time>2016-05-06T02:57:22Z</time>
      </trkpt>
      <trkpt lat="42.59189" lon="1.44307">
        <ele>2915.811</ele>
        <time>2016-05-06T02:57:42Z</time>
      </trkpt>
      <trkpt lat="42.59192" lon="1.44302">
        <ele>2913.989</ele>
        <time>2016-05-06T02:58:02Z</time>
      </trkpt>
      <trkpt lat="42.59194" lon="1.44298">
        <ele>2912.527</ele>
        <time>2016-05-06T02:58:22Z</time>
      </trkpt>
      <trkpt lat="42.59195" lon="1.44296">
        <ele>2911.557</ele>
        <time>2016-05-06T02:58:42Z</time>
      </trkpt>
      <trkpt lat="42.59197" lon="1.44293">
        <ele>2910.5</ele>
        <time>2016-05-06T02:59:02Z</time>
      </trkpt>
      <trkpt lat="42.59197" lon="1.44292">
        <ele>2909.52</ele>
        <time>2016-05-06T02:59:22Z</time>
      </trkpt>
      <trkpt lat="42.59198" lon="1.4429">
        <ele>2908.708</ele>
        <time>2016-05-06T02:59:42Z</time>
      </trkpt>
      <trkpt lat="42.59198" lon="1.44288">
        <ele>2907.986</ele>
        <time>2016-05-06T03:00:02Z</time>
      </trkpt>
      <trkpt lat="42.59199" lon="1.44287">
        <ele>2907.128</ele>
        <time>2016-05-06T03:00:22Z</time>
      </trkpt>
      <trkpt lat="42.59199" lon="1.44285">
        <ele>2906.036</ele>
        <time>2016-05-06T03:00:42Z</time>
      </trkpt>
      <trkpt lat="42.59199" lon="1.44283">
        <ele>2905.324</ele>
        <time>2016-05-06T03:01:02Z</time>
      </trkpt>
      <trkpt lat="42.592" lon="1.44281">
        <ele>2904.272</ele>
        <time>2016-05-06T03:01:22Z</time>
      </trkpt>
      <trkpt lat="42.59201" lon="1.44279">
        <ele>2903.443</ele>
        <time>2016-05-06T03:01:42Z</time>
      </trkpt>
      <trkpt lat="42.59202" lon="1.44277">
        <ele>2902.831</ele>
        <time>2016-05-06T03:02:02Z</time>
      </trkpt>
      <trkpt lat="42.59203" lon="1.44275">
        <ele>2901.959</ele>
        <time>2016-05-06T03:02:22Z</time>
      </trkpt>
      <trkpt lat="42.59204" lon="1.44273">
        <ele>2901.032</ele>
        <time>2016-05-06T03:02:42Z</time>
      </trkpt>
      <trkpt lat="42.59205" lon="1.44271">
        <ele>2900.192</ele>
        <time>2016-05-06T03:03:02Z</time>
      </trkpt>
      <trkpt lat="42.59206" lon="1.44269">
        <ele>2899.311</ele>
        <time>2016-05-06T03:03:22Z</time>
      </trkpt>
      <trkpt lat="42.59206" lon="1.44265">
        <ele>2896.308</ele>
        <time>2016-05-06T03:03:42Z</time>
      </trkpt>
      <trkpt lat="42.59207" lon="1.44261">
        <ele>2894.414</ele>
        <time>2016-05-06T03:04:02Z</time>
      </trkpt>
      <trkpt lat="42.59207" lon="1.44257">
        <ele>2892.176</ele>
        <time>2016-05-06T03:04:22Z</time>
      </trkpt>
      <trkpt lat="42.59208" lon="1.44253">
        <ele>2890.094</ele>
        <time>2016-05-06T03:04:42Z</time>
      </trkpt>
      <trkpt lat="42.59208" lon="1.44248">
        <ele>2886.672</ele>
        <time>2016-05-06T03:05:02Z</time>
      </trkpt>
      <trkpt lat="42.59209" lon="1.44242">
        <ele>2883.31</ele>
        <time>2016-05-06T03:05:22Z</time>
      </trkpt>
      <trkpt lat="42.5921" lon="1.44237">
        <ele>2880.441</ele>
        <time>2016-05-06T03:05:42Z</time>
      </trkpt>
      <trkpt lat="42.5921" lon="1.44232">
        <ele>2877.489</ele>
        <time>2016-05-06T03:06:02Z</time>
      </trkpt>
      <trkpt lat="42.59211" lon="1.44227">
        <ele>2874.427</ele>
        <time>2016-05-06T03:06:22Z</time>
      </trkpt>
      <trkpt lat="42.59212" lon="1.44222">
        <ele>2871.761</ele>
        <time>2016-05-06T03:06:42Z</time>
      </trkpt>
      <trkpt lat="42.59212" lon="1.44217">
        <ele>2868.421</ele>
        <time>2016-05-06T03:07:02Z</time>
      </trkpt>
      <trkpt lat="42.59213" lon="1.44212">
        <ele>2865.713</ele>
        <time>2016-05-06T03:07:22Z</time>
      </trkpt>
      <trkpt lat="42.59215" lon="1.44207">
        <ele>2862.408</ele>
        <time>2016-05-06T03:07:42Z</time>
      </trkpt>
      <trkpt lat="42.59218" lon="1.442">
        <ele>2858.927</ele>
        <time>2016-05-06T03:08:02Z</time>
      </trkpt>
      <trkpt lat="42.5922" lon="1.44196">
        <ele>2856.779</ele>
        <time>2016-05-06T03:08:22Z</time>
      </trkpt>
      <trkpt lat="42.59222" lon="1.4419">
        <ele>2853.257</ele>
        <time>2016-05-06T03:08:42Z</time>
      </trkpt>
      <trkpt lat="42.59225" lon="1.44186">
        <ele>2851.055</ele>
        <time>2016-05-06T03:09:02Z</time>
      </trkpt>
      <trkpt lat="42.59227" lon="1.44181">
        <ele>2847.533</ele>
        <time>2016-05-06T03:09:22Z</time>
      </trkpt>
      <trkpt lat="42.59229" lon="1.44173">
        <ele>2842.894</ele>
        <time>2016-05-06T03:09:42Z</time>
      </trkpt>
      <trkpt lat="42.59232" lon="1.44166">
        <ele>2838.332</ele>
        <time>2016-05-06T03:10:02Z</time>
      </trkpt>
      <trkpt lat="42.59234" lon="1.44159">
        <ele>2833.97</ele>
        <time>2016-05-06T03:10:22Z</time>
      </trkpt>
      <trkpt lat="42.59237" lon="1.44153">
        <ele>2830.895</ele>
        <time>2016-05-06T03:10:42Z</time>
      </trkpt>
      <trkpt lat="42.59239" lon="1.44146">
        <ele>2826.749</ele>
        <time>2016-05-06T03:11:02Z</time>
      </trkpt>
      <trkpt lat="42.59241" lon="1.44139">
        <ele>2822.523</ele>
        <time>2016-05-06T03:11:22Z</time>
      </trkpt>
      <trkpt lat="42.59242" lon="1.44132">
        <ele>2818.208</ele>
        <time>2016-05-06T03:11:42Z</time>
      </trkpt>
      <trkpt lat="42.59244" lon="1.44125">
        <ele>2814.02</ele>
        <time>2016-05-06T03:12:02Z</time>
      </trkpt>
      <trkpt lat="42.59246" lon="1.44117">
        <ele>2809.452</ele>
        <time>2016-05-06T03:12:22Z</time>
      </trkpt>
      <trkpt lat="42.59249" lon="1.44111">
        <ele>2805.75</ele>
        <time>2016-05-06T03:12:42Z</time>
      </trkpt>
      <trkpt lat="42.59252" lon="1.44102">
        <ele>2801.458</ele>
        <time>2016-05-06T03:13:02Z</time>
      </trkpt>
      <trkpt lat="42.59254" lon="1.44097">
        <ele>2798.616</ele>
        <time>2016-05-06T03:13:22Z</time>
      </trkpt>
      <trkpt lat="42.59255" lon="1.44088">
        <ele>2794.287</ele>
        <time>2016-05-06T03:13:42Z</time>
      </trkpt>
      <trkpt lat="42.59258" lon="1.4408">
        <ele>2790.225</ele>
        <time>2016-05-06T03:14:02Z</time>
      </trkpt>
      <trkpt lat="42.59261" lon="1.44074">
        <ele>2788.013</ele>
        <time>2016-05-06T03:14:22Z</time>
      </trkpt>
      <trkpt lat="42.59262" lon="1.44064">
        <ele>2784.086</ele>
        <time>2016-05-06T03:14:42Z</time>
      </trkpt>
      <trkpt lat="42.59259" lon="1.44059">
        <ele>2781.46</ele>
        <time>2016-05-06T03:15:02Z</time>
      </trkpt>
      <trkpt lat="42.59258" lon="1.44055">
        <ele>2779.326</ele>
        <time>2016-05-06T03:15:22Z</time>
      </trkpt>
      <trkpt lat="42.59257" lon="1.44048">
        <ele>2777.608</ele>
        <time>2016-05-06T03:15:42Z</time>
      </trkpt>
      <trkpt lat="42.59257" lon="1.44037">
        <ele>2775.129</ele>
        <time>2016-05-06T03:16:02Z</time>
      </trkpt>
      <trkpt lat="42.59252" lon="1.44027">
        <ele>2772.281</ele>
        <time>2016-05-06T03:16:22Z</time>
      </trkpt>
      <trkpt lat="42.59249" lon="1.44019">
        <ele>2770.629</ele>
        <time>2016-05-06T03:16:42Z</time>
      </trkpt>
      <trkpt lat="42.59246" lon="1.44008">
        <ele>2768.717</ele>
        <time>2016-05-06T03:17:02Z</time>
      </trkpt>
      <trkpt lat="42.59242" lon="1.44001">
        <ele>2766.475</ele>
        <time>2016-05-06T03:17:22Z</time>
      </trkpt>
      <trkpt lat="42.59239" lon="1.43993">
        <ele>2765.586</ele>
        <time>2016-05-06T03:17:42Z</time>
      </trkpt>
      <trkpt lat="42.59235" lon="1.43982">
        <ele>2764.024</ele>
        <time>2016-05-06T03:18:02Z</time>
      </trkpt>
      <trkpt lat="42.5923" lon="1.43976">
        <ele>2762.442</ele>
        <time>2016-05-06T03:18:22Z</time>
      </trkpt>
      <trkpt lat="42.59225" lon="1.43968">
        <ele>2760.942</ele>
        <time>2016-05-06T03:18:42Z</time>
      </trkpt>
      <trkpt lat="42.59218" lon="1.43961">
        <ele>2757.822</ele>
        <time>2016-05-06T03:19:02Z</time>
      </trkpt>
      <trkpt lat="42.59211" lon="1.43954">
        <ele>2754.914</ele>
        <time>2016-05-06T03:19:22Z</time>
      </trkpt>
      <trkpt lat="42.59204" lon="1.43948">
        <ele>2752.408</ele>
        <time>2016-05-06T03:19:42Z</time>
      </trkpt>
      <trkpt lat="42.59197" lon="1.43943">
        <ele>2750.095</ele>
        <time>2016-05-06T03:20:02Z</time>
      </trkpt>
      <trkpt lat="42.5919" lon="1.43939">
        <ele>2747.377</ele>
        <time>2016-05-06T03:20:22Z</time>
      </trkpt>
      <trkpt lat="42.59181" lon="1.43936">
        <ele>2743.485</ele>
        <time>2016-05-06T03:20:42Z</time>
      </trkpt>
      <trkpt lat="42.59173" lon="1.43933">
        <ele>2739.813</ele>
        <time>2016-05-06T03:21:02Z</time>
      </trkpt>
      <trkpt lat="42.59167" lon="1.43929">
        <ele>2736.561</ele>
        <time>2016-05-06T03:21:22Z</time>
      </trkpt>
      <trkpt lat="42.5916" lon="1.43926">
        <ele>2733.562</ele>
        <time>2016-05-06T03:21:42Z</time>
      </trkpt>
      <trkpt lat="42.59154" lon="1.43922">
        <ele>2730.49</ele>
        <time>2016-05-06T03:22:02Z</time>
      </trkpt>
      <trkpt lat="42.59146" lon="1.43915">
        <ele>2726.248</ele>
        <time>2016-05-06T03:22:22Z</time>
      </trkpt>
      <trkpt lat="42.5914" lon="1.43911">
        <ele>2722.764</ele>
        <time>2016-05-06T03:22:42Z</time>
      </trkpt>
      <trkpt lat="42.59134" lon="1.43906">
        <ele>2720.906</ele>
        <time>2016-05-06T03:23:02Z</time>
      </trkpt>
      <trkpt lat="42.59127" lon="1.43902">
        <ele>2719.016</ele>
        <time>2016-05-06T03:23:22Z</time>
      </trkpt>
      <trkpt lat="42.59121" lon="1.43897">
        <ele>2717.208</ele>
        <time>2016-05-06T03:23:42Z</time>
      </trkpt>
      <trkpt lat="42.59114" lon="1.43892">
        <ele>2715.097</ele>
        <time>2016-05-06T03:24:02Z</time>
      </trkpt>
      <trkpt lat="42.59109" lon="1.4389">
        <ele>2713.429</ele>
        <time>2016-05-06T03:24:22Z</time>
      </trkpt>
      <trkpt lat="42.59102" lon="1.43884">
        <ele>2710.757</ele>
        <time>2016-05-06T03:24:42Z</time>
      </trkpt>
      <trkpt lat="42.59057" lon="1.43844">
        <ele>2690.855</ele>
        <time>2016-05-06T03:25:02Z</time>
      </trkpt>
      <trkpt lat="42.59037" lon="1.43821">
        <ele>2680.293</ele>
        <time>2016-05-06T03:25:22Z</time>
      </trkpt>
      <trkpt lat="42.59004" lon="1.4381">
        <ele>2669.074</ele>
        <time>2016-05-06T03:25:42Z</time>
      </trkpt>
      <trkpt lat="42.58971" lon="1.43794">
        <ele>2658.672</ele>
        <time>2016-05-06T03:26:02Z</time>
      </trkpt>
      <trkpt lat="42.58943" lon="1.43783">
        <ele>2651.15</ele>
        <time>2016-05-06T03:26:22Z</time>
      </trkpt>
      <trkpt lat="42.58919" lon="1.4377">
        <ele>2645.155</ele>
        <time>2016-05-06T03:26:42Z</time>
      </trkpt>
      <trkpt lat="42.58901" lon="1.43757">
        <ele>2640.007</ele>
        <time>2016-05-06T03:27:02Z</time>
      </trkpt>
      <trkpt lat="42.58882" lon="1.43751">
        <ele>2636.317</ele>
        <time>2016-05-06T03:27:22Z</time>
      </trkpt>
      <trkpt lat="42.5886" lon="1.43745">
        <ele>2633.608</ele>
        <time>2016-05-06T03:27:42Z</time>
      </trkpt>
      <trkpt lat="42.58843" lon="1.43757">
        <ele>2634.486</ele>
        <time>2016-05-06T03:28:02Z</time>
      </trkpt>
      <trkpt lat="42.58832" lon="1.43767">
        <ele>2635.388</ele>
        <time>2016-05-06T03:28:22Z</time>
      </trkpt>
      <trkpt lat="42.58817" lon="1.4377">
        <ele>2633.126</ele>
        <time>2016-05-06T03:28:42Z</time>
      </trkpt>
      <trkpt lat="42.58802" lon="1.43778">
        <ele>2630.924</ele>
        <time>2016-05-06T03:29:02Z</time>
      </trkpt>
      <trkpt lat="42.58797" lon="1.43789">
        <ele>2632.122</ele>
        <time>2016-05-06T03:29:22Z</time>
      </trkpt>
      <trkpt lat="42.58794" lon="1.4381">
        <ele>2634.983</ele>
        <time>2016-05-06T03:29:42Z</time>
      </trkpt>
      <trkpt lat="42.58783" lon="1.43818">
        <ele>2636.281</ele>
        <time>2016-05-06T03:30:02Z</time>
      </trkpt>
      <trkpt lat="42.58763" lon="1.43796">
        <ele>2636.439</ele>
        <time>2016-05-06T03:30:22Z</time>
      </trkpt>
      <trkpt lat="42.58745" lon="1.43754">
        <ele>2634.666</ele>
        <time>2016-05-06T03:30:42Z</time>
      </trkpt>
      <trkpt lat="42.58723" lon="1.4372">
        <ele>2634.329</ele>
        <time>2016-05-06T03:31:02Z</time>
      </trkpt>
      <trkpt lat="42.58704" lon="1.43696">
        <ele>2633.621</ele>
        <time>2016-05-06T03:31:22Z</time>
      </trkpt>
      <trkpt lat="42.58688" lon="1.43671">
        <ele>2633.208</ele>
        <time>2016-05-06T03:31:42Z</time>
      </trkpt>
      <trkpt lat="42.58667" lon="1.43671">
        <ele>2635.397</ele>
        <time>2016-05-06T03:32:02Z</time>
      </trkpt>
      <trkpt lat="42.58653" lon="1.43663">
        <ele>2633.599</ele>
        <time>2016-05-06T03:32:22Z</time>
      </trkpt>
      <trkpt lat="42.58625" lon="1.4367">
        <ele>2633.717</ele>
        <time>2016-05-06T03:32:42Z</time>
      </trkpt>
      <trkpt lat="42.58607" lon="1.43664">
        <ele>2631.375</ele>
        <time>2016-05-06T03:33:02Z</time>
      </trkpt>
      <trkpt lat="42.58596" lon="1.43656">
        <ele>2628.213</ele>
        <time>2016-05-06T03:33:22Z</time>
      </trkpt>
      <trkpt lat="42.58582" lon="1.4365">
        <ele>2624.634</ele>
        <time>2016-05-06T03:33:42Z</time>
      </trkpt>
      <trkpt lat="42.58573" lon="1.43644">
        <ele>2621.182</ele>
        <time>2016-05-06T03:34:02Z</time>
      </trkpt>
      <trkpt lat="42.5857" lon="1.43635">
        <ele>2617.97</ele>
        <time>2016-05-06T03:34:22Z</time>
      </trkpt>
      <trkpt lat="42.58554" lon="1.43633">
        <ele>2614.244</ele>
        <time>2016-05-06T03:34:42Z</time>
      </trkpt>
      <trkpt lat="42.5853" lon="1.4363">
        <ele>2607.405</ele>
        <time>2016-05-06T03:35:02Z</time>
      </trkpt>
      <trkpt lat="42.58515" lon="1.43613">
        <ele>2598.015</ele>
        <time>2016-05-06T03:35:22Z</time>
      </trkpt>
      <trkpt lat="42.58484" lon="1.43602">
        <ele>2594.008</ele>
        <time>2016-05-06T03:35:42Z</time>
      </trkpt>
      <trkpt lat="42.58467" lon="1.43583">
        <ele>2593.495</ele>
        <time>2016-05-06T03:36:02Z</time>
      </trkpt>
      <trkpt lat="42.58463" lon="1.43569">
        <ele>2593.847</ele>
        <time>2016-05-06T03:36:22Z</time>
      </trkpt>
      <trkpt lat="42.58454" lon="1.43562">
        <ele>2593.375</ele>
        <time>2016-05-06T03:36:42Z</time>
      </trkpt>
      <trkpt lat="42.5846" lon="1.43543">
        <ele>2592.463</ele>
        <time>2016-05-06T03:37:02Z</time>
      </trkpt>
      <trkpt lat="42.58463" lon="1.43529">
        <ele>2591.591</ele>
        <time>2016-05-06T03:37:22Z</time>
      </trkpt>
      <trkpt lat="42.58462" lon="1.43522">
        <ele>2592.512</ele>
        <time>2016-05-06T03:37:42Z</time>
      </trkpt>
      <trkpt lat="42.58453" lon="1.43527">
        <ele>2589.61</ele>
        <time>2016-05-06T03:38:02Z</time>
      </trkpt>
      <trkpt lat="42.58437" lon="1.4353">
        <ele>2585.238</ele>
        <time>2016-05-06T03:38:22Z</time>
      </trkpt>
      <trkpt lat="42.58426" lon="1.43536">
        <ele>2581.668</ele>
        <time>2016-05-06T03:38:42Z</time>
      </trkpt>
      <trkpt lat="42.58423" lon="1.43537">
        <ele>2580.442</ele>
        <time>2016-05-06T03:39:02Z</time>
      </trkpt>
      <trkpt lat="42.58428" lon="1.43518">
        <ele>2582.526</ele>
        <time>2016-05-06T03:39:22Z</time>
      </trkpt>
      <trkpt lat="42.58444" lon="1.43505">
        <ele>2589.308</ele>
        <time>2016-05-06T03:39:42Z</time>
      </trkpt>
      <trkpt lat="42.58438" lon="1.43493">
        <ele>2591.177</ele>
        <time>2016-05-06T03:40:02Z</time>
      </trkpt>
      <trkpt lat="42.5841" lon="1.43493">
        <ele>2579.899</ele>
        <time>2016-05-06T03:40:22Z</time>
      </trkpt>
      <trkpt lat="42.58392" lon="1.43482">
        <ele>2575.187</ele>
        <time>2016-05-06T03:40:42Z</time>
      </trkpt>
      <trkpt lat="42.58379" lon="1.43473">
        <ele>2572.185</ele>
        <time>2016-05-06T03:41:02Z</time>
      </trkpt>
      <trkpt lat="42.58338" lon="1.43447">
        <ele>2561.983</ele>
        <time>2016-05-06T03:41:22Z</time>
      </trkpt>
      <trkpt lat="42.58312" lon="1.43411">
        <ele>2551.794</ele>
        <time>2016-05-06T03:41:42Z</time>
      </trkpt>
      <trkpt lat="42.58299" lon="1.43406">
        <ele>2544.642</ele>
        <time>2016-05-06T03:42:02Z</time>
      </trkpt>
      <trkpt lat="42.58285" lon="1.43413">
        <ele>2538.13</ele>
        <time>2016-05-06T03:42:22Z</time>
      </trkpt>
      <trkpt lat="42.58278" lon="1.43386">
        <ele>2532.373</ele>
        <time>2016-05-06T03:42:42Z</time>
      </trkpt>
      <trkpt lat="42.58251" lon="1.43384">
        <ele>2522.985</ele>
        <time>2016-05-06T03:43:02Z</time>
      </trkpt>
      <trkpt lat="42.58247" lon="1.43348">
        <ele>2518.913</ele>
        <time>2016-05-06T03:43:22Z</time>
      </trkpt>
      <trkpt lat="42.5824" lon="1.43354">
        <ele>2515.108</ele>
        <time>2016-05-06T03:43:42Z</time>
      </trkpt>
      <trkpt lat="42.58225" lon="1.4334">
        <ele>2506.858</ele>
        <time>2016-05-06T03:44:02Z</time>
      </trkpt>
      <trkpt lat="42.58202" lon="1.43251">
        <ele>2487.79</ele>
        <time>2016-05-06T03:44:22Z</time>
      </trkpt>
      <trkpt lat="42.5817" lon="1.43292">
        <ele>2465.258</ele>
        <time>2016-05-06T03:44:42Z</time>
      </trkpt>
      <trkpt lat="42.58149" lon="1.43327">
        <ele>2454.566</ele>
        <time>2016-05-06T03:45:02Z</time>
      </trkpt>
      <trkpt lat="42.58126" lon="1.43395">
        <ele>2438.094</ele>
        <time>2016-05-06T03:45:22Z</time>
      </trkpt>
      <trkpt lat="42.58102" lon="1.43392">
        <ele>2430.075</ele>
        <time>2016-05-06T03:45:42Z</time>
      </trkpt>
      <trkpt lat="42.58078" lon="1.43434">
        <ele>2419.423</ele>
        <time>2016-05-06T03:46:02Z</time>
      </trkpt>
      <trkpt lat="42.5808" lon="1.43473">
        <ele>2407.941</ele>
        <time>2016-05-06T03:46:22Z</time>
      </trkpt>
      <trkpt lat="42.58057" lon="1.43664">
        <ele>2363.132</ele>
        <time>2016-05-06T03:46:42Z</time>
      </trkpt>
      <trkpt lat="42.58015" lon="1.43741">
        <ele>2331.792</ele>
        <time>2016-05-06T03:47:02Z</time>
      </trkpt>
      <trkpt lat="42.58015" lon="1.43757">
        <ele>2326.611</ele>
        <time>2016-05-06T03:47:22Z</time>
      </trkpt>
      <trkpt lat="42.57994" lon="1.43801">
        <ele>2312.308</ele>
        <time>2016-05-06T03:47:42Z</time>
      </trkpt>
      <trkpt lat="42.5799" lon="1.4398">
        <ele>2273.024</ele>
        <time>2016-05-06T03:48:02Z</time>
      </trkpt>
      <trkpt lat="42.58015" lon="1.44073">
        <ele>2263.976</ele>
        <time>2016-05-06T03:48:22Z</time>
      </trkpt>
      <trkpt lat="42.58008" lon="1.44145">
        <ele>2257.734</ele>
        <time>2016-05-06T03:48:42Z</time>
      </trkpt>
      <trkpt lat="42.58005" lon="1.44169">
        <ele>2256.392</ele>
        <time>2016-05-06T03:49:02Z</time>
      </trkpt>
      <trkpt lat="42.57999" lon="1.44179">
        <ele>2256.53</ele>
        <time>2016-05-06T03:49:22Z</time>
      </trkpt>
      <trkpt lat="42.58001" lon="1.44195">
        <ele>2254.941</ele>
        <time>2016-05-06T03:49:42Z</time>
      </trkpt>
      <trkpt lat="42.57996" lon="1.44217">
        <ele>2255.459</ele>
        <time>2016-05-06T03:50:02Z</time>
      </trkpt>
      <trkpt lat="42.57987" lon="1.44245">
        <ele>2256.347</ele>
        <time>2016-05-06T03:50:22Z</time>
      </trkpt>
      <trkpt lat="42.57971" lon="1.44255">
        <ele>2260.059</ele>
        <time>2016-05-06T03:50:42Z</time>
      </trkpt>
      <trkpt lat="42.57966" lon="1.44269">
        <ele>2260.303</ele>
        <time>2016-05-06T03:51:02Z</time>
      </trkpt>
      <trkpt lat="42.57951" lon="1.44278">
        <ele>2263.923</ele>
        <time>2016-05-06T03:51:22Z</time>
      </trkpt>
      <trkpt lat="42.57939" lon="1.44329">
        <ele>2264.708</ele>
        <time>2016-05-06T03:51:42Z</time>
      </trkpt>
      <trkpt lat="42.57949" lon="1.44374">
        <ele>2265.656</ele>
        <time>2016-05-06T03:52:02Z</time>
      </trkpt>
      <trkpt lat="42.57948" lon="1.44408">
        <ele>2270.828</ele>
        <time>2016-05-06T03:52:22Z</time>
      </trkpt>
      <trkpt lat="42.57953" lon="1.4443">
        <ele>2269.086</ele>
        <time>2016-05-06T03:52:42Z</time>
      </trkpt>
      <trkpt lat="42.57949" lon="1.44449">
        <ele>2268.874</ele>
        <time>2016-05-06T03:53:02Z</time>
      </trkpt>
      <trkpt lat="42.57937" lon="1.44482">
        <ele>2269.692</ele>
        <time>2016-05-06T03:53:22Z</time>
      </trkpt>
      <trkpt lat="42.57938" lon="1.44505">
        <ele>2267.333</ele>
        <time>2016-05-06T03:53:42Z</time>
      </trkpt>
      <trkpt lat="42.57933" lon="1.4455">
        <ele>2265.091</ele>
        <time>2016-05-06T03:54:02Z</time>
      </trkpt>
      <trkpt lat="42.57921" lon="1.44609">
        <ele>2257.739</ele>
        <time>2016-05-06T03:54:22Z</time>
      </trkpt>
      <trkpt lat="42.57912" lon="1.44623">
        <ele>2258.142</ele>
        <time>2016-05-06T03:54:42Z</time>
      </trkpt>
      <trkpt lat="42.57913" lon="1.44633">
        <ele>2256.922</ele>
        <time>2016-05-06T03:55:02Z</time>
      </trkpt>
      <trkpt lat="42.57907" lon="1.44643">
        <ele>2258.314</ele>
        <time>2016-05-06T03:55:22Z</time>
      </trkpt>
      <trkpt lat="42.57899" lon="1.44713">
        <ele>2262.908</ele>
        <time>2016-05-06T03:55:42Z</time>
      </trkpt>
      <trkpt lat="42.57891" lon="1.44895">
        <ele>2266.295</ele>
        <time>2016-05-06T03:56:02Z</time>
      </trkpt>
      <trkpt lat="42.57905" lon="1.44929">
        <ele>2264.067</ele>
        <time>2016-05-06T03:56:22Z</time>
      </trkpt>
      <trkpt lat="42.57895" lon="1.44934">
        <ele>2265.045</ele>
        <time>2016-05-06T03:56:42Z</time>
      </trkpt>
      <trkpt lat="42.57886" lon="1.4493">
        <ele>2265.663</ele>
        <time>2016-05-06T03:57:02Z</time>
      </trkpt>
      <trkpt lat="42.57861" lon="1.44882">
        <ele>2273.271</ele>
        <time>2016-05-06T03:57:22Z</time>
      </trkpt>
      <trkpt lat="42.57842" lon="1.44811">
        <ele>2277.712</ele>
        <time>2016-05-06T03:57:42Z</time>
      </trkpt>
      <trkpt lat="42.57816" lon="1.44705">
        <ele>2289.29</ele>
        <time>2016-05-06T03:58:02Z</time>
      </trkpt>
      <trkpt lat="42.57766" lon="1.44641">
        <ele>2297.248</ele>
        <time>2016-05-06T03:58:22Z</time>
      </trkpt>
      <trkpt lat="42.57741" lon="1.44595">
        <ele>2301.996</ele>
        <time>2016-05-06T03:58:42Z</time>
      </trkpt>
      <trkpt lat="42.57723" lon="1.44565">
        <ele>2308.131</ele>
        <time>2016-05-06T03:59:02Z</time>
      </trkpt>
      <trkpt lat="42.57716" lon="1.44542">
        <ele>2313.124</ele>
        <time>2016-05-06T03:59:22Z</time>
      </trkpt>
      <trkpt lat="42.57695" lon="1.44514">
        <ele>2321.408</ele>
        <time>2016-05-06T03:59:42Z</time>
      </trkpt>
      <trkpt lat="42.5769" lon="1.4445">
        <ele>2337.78</ele>
        <time>2016-05-06T04:00:02Z</time>
      </trkpt>
      <trkpt lat="42.5768" lon="1.44408">
        <ele>2345.122</ele>
        <time>2016-05-06T04:00:22Z</time>
      </trkpt>
      <trkpt lat="42.57686" lon="1.44362">
        <ele>2350.56</ele>
        <time>2016-05-06T04:00:42Z</time>
      </trkpt>
      <trkpt lat="42.57673" lon="1.44316">
        <ele>2354.828</ele>
        <time>2016-05-06T04:01:02Z</time>
      </trkpt>
      <trkpt lat="42.57659" lon="1.44266">
        <ele>2357.716</ele>
        <time>2016-05-06T04:01:22Z</time>
      </trkpt>
      <trkpt lat="42.57645" lon="1.44198">
        <ele>2365.037</ele>
        <time>2016-05-06T04:01:42Z</time>
      </trkpt>
      <trkpt lat="42.57653" lon="1.44058">
        <ele>2375.275</ele>
        <time>2016-05-06T04:02:02Z</time>
      </trkpt>
      <trkpt lat="42.57665" lon="1.44016">
        <ele>2376.913</ele>
        <time>2016-05-06T04:02:22Z</time>
      </trkpt>
      <trkpt lat="42.57663" lon="1.43935">
        <ele>2383.744</ele>
        <time>2016-05-06T04:02:42Z</time>
      </trkpt>
      <trkpt lat="42.57652" lon="1.43856">
        <ele>2391.405</ele>
        <time>2016-05-06T04:03:02Z</time>
      </trkpt>
      <trkpt lat="42.57638" lon="1.43808">
        <ele>2399.515</ele>
        <time>2016-05-06T04:03:22Z</time>
      </trkpt>
      <trkpt lat="42.57631" lon="1.43782">
        <ele>2403.208</ele>
        <time>2016-05-06T04:03:42Z</time>
      </trkpt>
      <trkpt lat="42.57611" lon="1.43753">
        <ele>2412.385</ele>
        <time>2016-05-06T04:04:02Z</time>
      </trkpt>
      <trkpt lat="42.57606" lon="1.43724">
        <ele>2417.517</ele>
        <time>2016-05-06T04:04:22Z</time>
      </trkpt>
      <trkpt lat="42.57601" lon="1.43683">
        <ele>2424.435</ele>
        <time>2016-05-06T04:04:42Z</time>
      </trkpt>
      <trkpt lat="42.576" lon="1.43654">
        <ele>2431.813</ele>
        <time>2016-05-06T04:05:02Z</time>
      </trkpt>
      <trkpt lat="42.57608" lon="1.43637">
        <ele>2438.491</ele>
        <time>2016-05-06T04:05:22Z</time>
      </trkpt>
      <trkpt lat="42.57597" lon="1.43623">
        <ele>2446.062</ele>
        <time>2016-05-06T04:05:42Z</time>
      </trkpt>
      <trkpt lat="42.57597" lon="1.4361">
        <ele>2452.88</ele>
        <time>2016-05-06T04:06:02Z</time>
      </trkpt>
      <trkpt lat="42.57604" lon="1.43603">
        <ele>2455.888</ele>
        <time>2016-05-06T04:06:22Z</time>
      </trkpt>
      <trkpt lat="42.576" lon="1.43594">
        <ele>2459.579</ele>
        <time>2016-05-06T04:06:42Z</time>
      </trkpt>
      <trkpt lat="42.57594" lon="1.43576">
        <ele>2466.205</ele>
        <time>2016-05-06T04:07:02Z</time>
      </trkpt>
      <trkpt lat="42.57575" lon="1.43576">
        <ele>2471.125</ele>
        <time>2016-05-06T04:07:22Z</time>
      </trkpt>
      <trkpt lat="42.57568" lon="1.4357">
        <ele>2476.208</ele>
        <time>2016-05-06T04:07:42Z</time>
      </trkpt>
      <trkpt lat="42.57553" lon="1.43573">
        <ele>2481.688</ele>
        <time>2016-05-06T04:08:02Z</time>
      </trkpt>
      <trkpt lat="42.57536" lon="1.43576">
        <ele>2486.16</ele>
        <time>2016-05-06T04:08:22Z</time>
      </trkpt>
      <trkpt lat="42.57533" lon="1.4356">
        <ele>2492.688</ele>
        <time>2016-05-06T04:08:42Z</time>
      </trkpt>
      <trkpt lat="42.57526" lon="1.43544">
        <ele>2499.066</ele>
        <time>2016-05-06T04:09:02Z</time>
      </trkpt>
      <trkpt lat="42.57479" lon="1.43551">
        <ele>2523.894</ele>
        <time>2016-05-06T04:09:22Z</time>
      </trkpt>
      <trkpt lat="42.57468" lon="1.43571">
        <ele>2528.335</ele>
        <time>2016-05-06T04:09:42Z</time>
      </trkpt>
      <trkpt lat="42.5747" lon="1.43581">
        <ele>2524.963</ele>
        <time>2016-05-06T04:10:02Z</time>
      </trkpt>
      <trkpt lat="42.57461" lon="1.43596">
        <ele>2529.491</ele>
        <time>2016-05-06T04:10:22Z</time>
      </trkpt>
      <trkpt lat="42.5745" lon="1.43592">
        <ele>2537.768</ele>
        <time>2016-05-06T04:10:42Z</time>
      </trkpt>
      <trkpt lat="42.57452" lon="1.4358">
        <ele>2539.042</ele>
        <time>2016-05-06T04:11:02Z</time>
      </trkpt>
      <trkpt lat="42.57408" lon="1.43603">
        <ele>2556.926</ele>
        <time>2016-05-06T04:11:22Z</time>
      </trkpt>
      <trkpt lat="42.57378" lon="1.43638">
        <ele>2563.008</ele>
        <time>2016-05-06T04:11:42Z</time>
      </trkpt>
      <trkpt lat="42.57371" lon="1.43657">
        <ele>2563.477</ele>
        <time>2016-05-06T04:12:02Z</time>
      </trkpt>
      <trkpt lat="42.57353" lon="1.43673">
        <ele>2569.779</ele>
        <time>2016-05-06T04:12:22Z</time>
      </trkpt>
      <trkpt lat="42.57316" lon="1.43742">
        <ele>2577.837</ele>
        <time>2016-05-06T04:12:42Z</time>
      </trkpt>
      <trkpt lat="42.57296" lon="1.43802">
        <ele>2582.925</ele>
        <time>2016-05-06T04:13:02Z</time>
      </trkpt>
      <trkpt lat="42.57286" lon="1.43831">
        <ele>2584.493</ele>
        <time>2016-05-06T04:13:22Z</time>
      </trkpt>
      <trkpt lat="42.57221" lon="1.43961">
        <ele>2564.024</ele>
        <time>2016-05-06T04:13:42Z</time>
      </trkpt>
      <trkpt lat="42.57148" lon="1.44087">
        <ele>2553.042</ele>
        <time>2016-05-06T04:14:02Z</time>
      </trkpt>
      <trkpt lat="42.57069" lon="1.44195">
        <ele>2531.85</ele>
        <time>2016-05-06T04:14:22Z</time>
      </trkpt>
      <trkpt lat="42.57003" lon="1.44238">
        <ele>2504.273</ele>
        <time>2016-05-06T04:14:42Z</time>
      </trkpt>
      <trkpt lat="42.56953" lon="1.44273">
        <ele>2486.685</ele>
        <time>2016-05-06T04:15:02Z</time>
      </trkpt>
      <trkpt lat="42.56939" lon="1.44281">
        <ele>2483.013</ele>
        <time>2016-05-06T04:15:22Z</time>
      </trkpt>
      <trkpt lat="42.56891" lon="1.44279">
        <ele>2469.908</ele>
        <time>2016-05-06T04:15:42Z</time>
      </trkpt>
      <trkpt lat="42.56875" lon="1.4427">
        <ele>2467.198</ele>
        <time>2016-05-06T04:16:02Z</time>
      </trkpt>
      <trkpt lat="42.56848" lon="1.44252">
        <ele>2463.71</ele>
        <time>2016-05-06T04:16:22Z</time>
      </trkpt>
      <trkpt lat="42.56797" lon="1.44184">
        <ele>2449.788</ele>
        <time>2016-05-06T04:16:42Z</time>
      </trkpt>
      <trkpt lat="42.56714" lon="1.44182">
        <ele>2459.036</ele>
        <time>2016-05-06T04:17:02Z</time>
      </trkpt>
      <trkpt lat="42.56645" lon="1.44199">
        <ele>2455.284</ele>
        <time>2016-05-06T04:17:22Z</time>
      </trkpt>
      <trkpt lat="42.56598" lon="1.44222">
        <ele>2450.165</ele>
        <time>2016-05-06T04:17:42Z</time>
      </trkpt>
      <trkpt lat="42.56569" lon="1.44222">
        <ele>2442.453</ele>
        <time>2016-05-06T04:18:02Z</time>
      </trkpt>
      <trkpt lat="42.56516" lon="1.44199">
        <ele>2432.491</ele>
        <time>2016-05-06T04:18:22Z</time>
      </trkpt>
      <trkpt lat="42.56477" lon="1.44201">
        <ele>2431.999</ele>
        <time>2016-05-06T04:18:42Z</time>
      </trkpt>
      <trkpt lat="42.56457" lon="1.4417">
        <ele>2436.307</ele>
        <time>2016-05-06T04:19:02Z</time>
      </trkpt>
      <trkpt lat="42.56435" lon="1.44114">
        <ele>2443.927</ele>
        <time>2016-05-06T04:19:22Z</time>
      </trkpt>
      <trkpt lat="42.56418" lon="1.44046">
        <ele>2453.608</ele>
        <time>2016-05-06T04:19:42Z</time>
      </trkpt>
      <trkpt lat="42.56393" lon="1.43978">
        <ele>2470.84</ele>
        <time>2016-05-06T04:20:02Z</time>
      </trkpt>
      <trkpt lat="42.56372" lon="1.43901">
        <ele>2482.582</ele>
        <time>2016-05-06T04:20:22Z</time>
      </trkpt>
      <trkpt lat="42.56357" lon="1.43849">
        <ele>2491.11</ele>
        <time>2016-05-06T04:20:42Z</time>
      </trkpt>
      <trkpt lat="42.56337" lon="1.43781">
        <ele>2501.558</ele>
        <time>2016-05-06T04:21:02Z</time>
      </trkpt>
      <trkpt lat="42.56318" lon="1.43726">
        <ele>2505.016</ele>
        <time>2016-05-06T04:21:22Z</time>
      </trkpt>
      <trkpt lat="42.563" lon="1.43682">
        <ele>2506.437</ele>
        <time>2016-05-06T04:21:42Z</time>
      </trkpt>
      <trkpt lat="42.56279" lon="1.43625">
        <ele>2505.745</ele>
        <time>2016-05-06T04:22:02Z</time>
      </trkpt>
      <trkpt lat="42.56256" lon="1.43564">
        <ele>2500.793</ele>
        <time>2016-05-06T04:22:22Z</time>
      </trkpt>
      <trkpt lat="42.56239" lon="1.43524">
        <ele>2495.415</ele>
        <time>2016-05-06T04:22:42Z</time>
      </trkpt>
      <trkpt lat="42.56212" lon="1.43471">
        <ele>2491.265</ele>
        <time>2016-05-06T04:23:02Z</time>
      </trkpt>
      <trkpt lat="42.56188" lon="1.43414">
        <ele>2489.311</ele>
        <time>2016-05-06T04:23:22Z</time>
      </trkpt>
      <trkpt lat="42.5617" lon="1.43365">
        <ele>2490.808</ele>
        <time>2016-05-06T04:23:42Z</time>
      </trkpt>
      <trkpt lat="42.56149" lon="1.43333">
        <ele>2488.682</ele>
        <time>2016-05-06T04:24:02Z</time>
      </trkpt>
      <trkpt lat="42.56118" lon="1.43275">
        <ele>2491.074</ele>
        <time>2016-05-06T04:24:22Z</time>
      </trkpt>
      <trkpt lat="42.56092" lon="1.4323">
        <ele>2488.922</ele>
        <time>2016-05-06T04:24:42Z</time>
      </trkpt>
      <trkpt lat="42.56073" lon="1.43169">
        <ele>2491.09</ele>
        <time>2016-05-06T04:25:02Z</time>
      </trkpt>
      <trkpt lat="42.56065" lon="1.43087">
        <ele>2486.168</ele>
        <time>2016-05-06T04:25:22Z</time>
      </trkpt>
      <trkpt lat="42.56043" lon="1.43005">
        <ele>2492.939</ele>
        <time>2016-05-06T04:25:42Z</time>
      </trkpt>
      <trkpt lat="42.56012" lon="1.42948">
        <ele>2502.997</ele>
        <time>2016-05-06T04:26:02Z</time>
      </trkpt>
      <trkpt lat="42.55978" lon="1.42895">
        <ele>2509.495</ele>
        <time>2016-05-06T04:26:22Z</time>
      </trkpt>
      <trkpt lat="42.55941" lon="1.42855">
        <ele>2519.414</ele>
        <time>2016-05-06T04:26:42Z</time>
      </trkpt>
      <trkpt lat="42.55907" lon="1.42795">
        <ele>2533.854</ele>
        <time>2016-05-06T04:27:02Z</time>
      </trkpt>
      <trkpt lat="42.55898" lon="1.42727">
        <ele>2530.009</ele>
        <time>2016-05-06T04:27:22Z</time>
      </trkpt>
      <trkpt lat="42.55869" lon="1.42645">
        <ele>2533.108</ele>
        <time>2016-05-06T04:27:42Z</time>
      </trkpt>
      <trkpt lat="42.55851" lon="1.4258">
        <ele>2530.762</ele>
        <time>2016-05-06T04:28:02Z</time>
      </trkpt>
      <trkpt lat="42.55827" lon="1.42547">
        <ele>2524.884</ele>
        <time>2016-05-06T04:28:22Z</time>
      </trkpt>
      <trkpt lat="42.5579" lon="1.42528">
        <ele>2509.222</ele>
        <time>2016-05-06T04:28:42Z</time>
      </trkpt>
      <trkpt lat="42.55763" lon="1.42498">
        <ele>2496.33</ele>
        <time>2016-05-06T04:29:02Z</time>
      </trkpt>
      <trkpt lat="42.55736" lon="1.42451">
        <ele>2483.378</ele>
        <time>2016-05-06T04:29:22Z</time>
      </trkpt>
      <trkpt lat="42.55697" lon="1.42427">
        <ele>2462.219</ele>
        <time>2016-05-06T04:29:42Z</time>
      </trkpt>
      <trkpt lat="42.557" lon="1.42346">
        <ele>2433.137</ele>
        <time>2016-05-06T04:30:02Z</time>
      </trkpt>
      <trkpt lat="42.55645" lon="1.42361">
        <ele>2420.645</ele>
        <time>2016-05-06T04:30:22Z</time>
      </trkpt>
      <trkpt lat="42.55611" lon="1.42345">
        <ele>2404.845</ele>
        <time>2016-05-06T04:30:42Z</time>
      </trkpt>
      <trkpt lat="42.5558" lon="1.42304">
        <ele>2390.947</ele>
        <time>2016-05-06T04:31:02Z</time>
      </trkpt>
      <trkpt lat="42.55542" lon="1.42302">
        <ele>2380.411</ele>
        <time>2016-05-06T04:31:22Z</time>
      </trkpt>
      <trkpt lat="42.55504" lon="1.42298">
        <ele>2366.008</ele>
        <time>2016-05-06T04:31:42Z</time>
      </trkpt>
      <trkpt lat="42.55469" lon="1.42279">
        <ele>2356.475</ele>
        <time>2016-05-06T04:32:02Z</time>
      </trkpt>
      <trkpt lat="42.55428" lon="1.42277">
        <ele>2347.797</ele>
        <time>2016-05-06T04:32:22Z</time>
      </trkpt>
      <trkpt lat="42.55392" lon="1.42289">
        <ele>2338.215</ele>
        <time>2016-05-06T04:32:42Z</time>
      </trkpt>
      <trkpt lat="42.55351" lon="1.42289">
        <ele>2335.323</ele>
        <time>2016-05-06T04:33:02Z</time>
      </trkpt>
      <trkpt lat="42.55307" lon="1.42284">
        <ele>2337.811</ele>
        <time>2016-05-06T04:33:22Z</time>
      </trkpt>
      <trkpt lat="42.55266" lon="1.42288">
        <ele>2337.572</ele>
        <time>2016-05-06T04:33:42Z</time>
      </trkpt>
      <trkpt lat="42.55206" lon="1.42289">
        <ele>2338.41</ele>
        <time>2016-05-06T04:34:02Z</time>
      </trkpt>
      <trkpt lat="42.55168" lon="1.42292">
        <ele>2336.878</ele>
        <time>2016-05-06T04:34:22Z</time>
      </trkpt>
      <trkpt lat="42.55123" lon="1.423">
        <ele>2334.434</ele>
        <time>2016-05-06T04:34:42Z</time>
      </trkpt>
      <trkpt lat="42.55085" lon="1.42308">
        <ele>2330.955</ele>
        <time>2016-05-06T04:35:02Z</time>
      </trkpt>
      <trkpt lat="42.55047" lon="1.42308">
        <ele>2329.31</ele>
        <time>2016-05-06T04:35:22Z</time>
      </trkpt>
      <trkpt lat="42.55009" lon="1.42295">
        <ele>2330.608</ele>
        <time>2016-05-06T04:35:42Z</time>
      </trkpt>
      <trkpt lat="42.54984" lon="1.42278">
        <ele>2331.134</ele>
        <time>2016-05-06T04:36:02Z</time>
      </trkpt>
      <trkpt lat="42.54955" lon="1.42252">
        <ele>2328.516</ele>
        <time>2016-05-06T04:36:22Z</time>
      </trkpt>
      <trkpt lat="42.54928" lon="1.42229">
        <ele>2323.854</ele>
        <time>2016-05-06T04:36:42Z</time>
      </trkpt>
      <trkpt lat="42.54906" lon="1.42187">
        <ele>2325.312</ele>
        <time>2016-05-06T04:37:02Z</time>
      </trkpt>
      <trkpt lat="42.54874" lon="1.42143">
        <ele>2322.62</ele>
        <time>2016-05-06T04:37:22Z</time>
      </trkpt>
      <trkpt lat="42.54851" lon="1.42117">
        <ele>2319.261</ele>
        <time>2016-05-06T04:37:42Z</time>
      </trkpt>
      <trkpt lat="42.54829" lon="1.42082">
        <ele>2320.489</ele>
        <time>2016-05-06T04:38:02Z</time>
      </trkpt>
      <trkpt lat="42.54797" lon="1.42064">
        <ele>2318.867</ele>
        <time>2016-05-06T04:38:22Z</time>
      </trkpt>
      <trkpt lat="42.54765" lon="1.42034">
        <ele>2320.491</ele>
        <time>2016-05-06T04:38:42Z</time>
      </trkpt>
      <trkpt lat="42.5473" lon="1.42004">
        <ele>2318.181</ele>
        <time>2016-05-06T04:39:02Z</time>
      </trkpt>
      <trkpt lat="42.54702" lon="1.4199">
        <ele>2313.219</ele>
        <time>2016-05-06T04:39:22Z</time>
      </trkpt>
      <trkpt lat="42.54665" lon="1.41971">
        <ele>2307.708</ele>
        <time>2016-05-06T04:39:42Z</time>
      </trkpt>
      <trkpt lat="42.54646" lon="1.41961">
        <ele>2304.44</ele>
        <time>2016-05-06T04:40:02Z</time>
      </trkpt>
      <trkpt lat="42.5462" lon="1.4201">
        <ele>2294.172</ele>
        <time>2016-05-06T04:40:22Z</time>
      </trkpt>
      <trkpt lat="42.54616" lon="1.42048">
        <ele>2276.15</ele>
        <time>2016-05-06T04:40:42Z</time>
      </trkpt>
      <trkpt lat="42.54588" lon="1.42067">
        <ele>2265.528</ele>
        <time>2016-05-06T04:41:02Z</time>
      </trkpt>
      <trkpt lat="42.54574" lon="1.42116">
        <ele>2249.076</ele>
        <time>2016-05-06T04:41:22Z</time>
      </trkpt>
      <trkpt lat="42.5457" lon="1.42182">
        <ele>2231.327</ele>
        <time>2016-05-06T04:41:42Z</time>
      </trkpt>
      <trkpt lat="42.54562" lon="1.42236">
        <ele>2218.625</ele>
        <time>2016-05-06T04:42:02Z</time>
      </trkpt>
      <trkpt lat="42.54561" lon="1.42308">
        <ele>2200.753</ele>
        <time>2016-05-06T04:42:22Z</time>
      </trkpt>
      <trkpt lat="42.54539" lon="1.42361">
        <ele>2195.598</ele>
        <time>2016-05-06T04:42:42Z</time>
      </trkpt>
      <trkpt lat="42.54533" lon="1.42422">
        <ele>2186.715</ele>
        <time>2016-05-06T04:43:02Z</time>
      </trkpt>
      <trkpt lat="42.54528" lon="1.42465">
        <ele>2179.526</ele>
        <time>2016-05-06T04:43:22Z</time>
      </trkpt>
      <trkpt lat="42.54516" lon="1.42526">
        <ele>2167.308</ele>
        <time>2016-05-06T04:43:42Z</time>
      </trkpt>
      <trkpt lat="42.54514" lon="1.42583">
        <ele>2153.97</ele>
        <time>2016-05-06T04:44:02Z</time>
      </trkpt>
      <trkpt lat="42.54523" lon="1.42649">
        <ele>2137.792</ele>
        <time>2016-05-06T04:44:22Z</time>
      </trkpt>
      <trkpt lat="42.54532" lon="1.42739">
        <ele>2117.13</ele>
        <time>2016-05-06T04:44:42Z</time>
      </trkpt>
      <trkpt lat="42.54548" lon="1.42829">
        <ele>2098.568</ele>
        <time>2016-05-06T04:45:02Z</time>
      </trkpt>
      <trkpt lat="42.54573" lon="1.42907">
        <ele>2082.626</ele>
        <time>2016-05-06T04:45:22Z</time>
      </trkpt>
      <trkpt lat="42.54585" lon="1.42966">
        <ele>2070.427</ele>
        <time>2016-05-06T04:45:42Z</time>
      </trkpt>
      <trkpt lat="42.54597" lon="1.43045">
        <ele>2054.225</ele>
        <time>2016-05-06T04:46:02Z</time>
      </trkpt>
      <trkpt lat="42.54599" lon="1.43115">
        <ele>2041.023</ele>
        <time>2016-05-06T04:46:22Z</time>
      </trkpt>
      <trkpt lat="42.54606" lon="1.4314">
        <ele>2035.994</ele>
        <time>2016-05-06T04:46:42Z</time>
      </trkpt>
      <trkpt lat="42.54606" lon="1.43159">
        <ele>2031.557</ele>
        <time>2016-05-06T04:47:02Z</time>
      </trkpt>
      <trkpt lat="42.54604" lon="1.43174">
        <ele>2028.522</ele>
        <time>2016-05-06T04:47:22Z</time>
      </trkpt>
      <trkpt lat="42.54596" lon="1.43188">
        <ele>2025.908</ele>
        <time>2016-05-06T04:47:42Z</time>
      </trkpt>
      <trkpt lat="42.54594" lon="1.43214">
        <ele>2022.84</ele>
        <time>2016-05-06T04:48:02Z</time>
      </trkpt>
      <trkpt lat="42.54594" lon="1.43235">
        <ele>2021.422</ele>
        <time>2016-05-06T04:48:22Z</time>
      </trkpt>
      <trkpt lat="42.54598" lon="1.43256">
        <ele>2020.77</ele>
        <time>2016-05-06T04:48:42Z</time>
      </trkpt>
      <trkpt lat="42.54602" lon="1.43273">
        <ele>2020.068</ele>
        <time>2016-05-06T04:49:02Z</time>
      </trkpt>
      <trkpt lat="42.54609" lon="1.43299">
        <ele>2018.466</ele>
        <time>2016-05-06T04:49:22Z</time>
      </trkpt>
      <trkpt lat="42.54614" lon="1.43324">
        <ele>2015.967</ele>
        <time>2016-05-06T04:49:42Z</time>
      </trkpt>
      <trkpt lat="42.54613" lon="1.43345">
        <ele>2013.635</ele>
        <time>2016-05-06T04:50:02Z</time>
      </trkpt>
      <trkpt lat="42.5461" lon="1.43367">
        <ele>2011.293</ele>
        <time>2016-05-06T04:50:22Z</time>
      </trkpt>
      <trkpt lat="42.54609" lon="1.43383">
        <ele>2009.335</ele>
        <time>2016-05-06T04:50:42Z</time>
      </trkpt>
      <trkpt lat="42.54614" lon="1.43411">
        <ele>2005.686</ele>
        <time>2016-05-06T04:51:02Z</time>
      </trkpt>
      <trkpt lat="42.54632" lon="1.4344">
        <ele>1999.414</ele>
        <time>2016-05-06T04:51:22Z</time>
      </trkpt>
      <trkpt lat="42.54642" lon="1.43448">
        <ele>1996.808</ele>
        <time>2016-05-06T04:51:42Z</time>
      </trkpt>
      <trkpt lat="42.54653" lon="1.43453">
        <ele>1993.424</ele>
        <time>2016-05-06T04:52:02Z</time>
      </trkpt>
      <trkpt lat="42.54656" lon="1.43468">
        <ele>1990.056</ele>
        <time>2016-05-06T04:52:22Z</time>
      </trkpt>
      <trkpt lat="42.5465" lon="1.43485">
        <ele>1988.084</ele>
        <time>2016-05-06T04:52:42Z</time>
      </trkpt>
      <trkpt lat="42.54649" lon="1.43499">
        <ele>1985.282</ele>
        <time>2016-05-06T04:53:02Z</time>
      </trkpt>
      <trkpt lat="42.54648" lon="1.43513">
        <ele>1982.95</ele>
        <time>2016-05-06T04:53:22Z</time>
      </trkpt>
      <trkpt lat="42.54662" lon="1.43521">
        <ele>1978.521</ele>
        <time>2016-05-06T04:53:42Z</time>
      </trkpt>
      <trkpt lat="42.54675" lon="1.43529">
        <ele>1973.789</ele>
        <time>2016-05-06T04:54:02Z</time>
      </trkpt>
      <trkpt lat="42.54689" lon="1.43527">
        <ele>1970.457</ele>
        <time>2016-05-06T04:54:22Z</time>
      </trkpt>
      <trkpt lat="42.54689" lon="1.4354">
        <ele>1967.922</ele>
        <time>2016-05-06T04:54:42Z</time>
      </trkpt>
      <trkpt lat="42.54687" lon="1.43554">
        <ele>1965.362</ele>
        <time>2016-05-06T04:55:02Z</time>
      </trkpt>
      <trkpt lat="42.54685" lon="1.43568">
        <ele>1963.108</ele>
        <time>2016-05-06T04:55:22Z</time>
      </trkpt>
      <trkpt lat="42.54681" lon="1.43581">
        <ele>1961.408</ele>
        <time>2016-05-06T04:55:42Z</time>
      </trkpt>
      <trkpt lat="42.54676" lon="1.43593">
        <ele>1960.643</ele>
        <time>2016-05-06T04:56:02Z</time>
      </trkpt>
      <trkpt lat="42.5467" lon="1.4361">
        <ele>1959.335</ele>
        <time>2016-05-06T04:56:22Z</time>
      </trkpt>
      <trkpt lat="42.54666" lon="1.43624">
        <ele>1956.833</ele>
        <time>2016-05-06T04:56:42Z</time>
      </trkpt>
      <trkpt lat="42.54654" lon="1.43643">
        <ele>1953.141</ele>
        <time>2016-05-06T04:57:02Z</time>
      </trkpt>
      <trkpt lat="42.54657" lon="1.43654">
        <ele>1948.969</ele>
        <time>2016-05-06T04:57:22Z</time>
      </trkpt>
      <trkpt lat="42.54655" lon="1.43669">
        <ele>1943.23</ele>
        <time>2016-05-06T04:57:42Z</time>
      </trkpt>
      <trkpt lat="42.54656" lon="1.43681">
        <ele>1937.378</ele>
        <time>2016-05-06T04:58:02Z</time>
      </trkpt>
      <trkpt lat="42.54653" lon="1.43697">
        <ele>1930.246</ele>
        <time>2016-05-06T04:58:22Z</time>
      </trkpt>
      <trkpt lat="42.54649" lon="1.43703">
        <ele>1928.855</ele>
        <time>2016-05-06T04:58:42Z</time>
      </trkpt>
      <trkpt lat="42.54644" lon="1.43716">
        <ele>1925.207</ele>
        <time>2016-05-06T04:59:02Z</time>
      </trkpt>
      <trkpt lat="42.5463" lon="1.43739">
        <ele>1917.917</ele>
        <time>2016-05-06T04:59:22Z</time>
      </trkpt>
      <trkpt lat="42.54619" lon="1.43729">
        <ele>1920.408</ele>
        <time>2016-05-06T04:59:42Z</time>
      </trkpt>
      <trkpt lat="42.54609" lon="1.43725">
        <ele>1921.266</ele>
        <time>2016-05-06T05:00:02Z</time>
      </trkpt>
      <trkpt lat="42.54599" lon="1.43719">
        <ele>1920.918</ele>
        <time>2016-05-06T05:00:22Z</time>
      </trkpt>
      <trkpt lat="42.54594" lon="1.43715">
        <ele>1921.456</ele>
        <time>2016-05-06T05:00:42Z</time>
      </trkpt>
      <trkpt lat="42.54581" lon="1.43706">
        <ele>1922.464</ele>
        <time>2016-05-06T05:01:02Z</time>
      </trkpt>
      <trkpt lat="42.54568" lon="1.43715">
        <ele>1921.552</ele>
        <time>2016-05-06T05:01:22Z</time>
      </trkpt>
      <trkpt lat="42.54571" lon="1.43739">
        <ele>1917.243</ele>
        <time>2016-05-06T05:01:42Z</time>
      </trkpt>
      <trkpt lat="42.54575" lon="1.43762">
        <ele>1912.121</ele>
        <time>2016-05-06T05:02:02Z</time>
      </trkpt>
      <trkpt lat="42.54574" lon="1.43782">
        <ele>1908.859</ele>
        <time>2016-05-06T05:02:22Z</time>
      </trkpt>
      <trkpt lat="42.54569" lon="1.43791">
        <ele>1910.172</ele>
        <time>2016-05-06T05:02:42Z</time>
      </trkpt>
      <trkpt lat="42.54564" lon="1.43807">
        <ele>1909.213</ele>
        <time>2016-05-06T05:03:02Z</time>
      </trkpt>
      <trkpt lat="42.54565" lon="1.43819">
        <ele>1906.214</ele>
        <time>2016-05-06T05:03:22Z</time>
      </trkpt>
      <trkpt lat="42.54564" lon="1.43837">
        <ele>1904.008</ele>
        <time>2016-05-06T05:03:42Z</time>
      </trkpt>
      <trkpt lat="42.5456" lon="1.43853">
        <ele>1903.488</ele>
        <time>2016-05-06T05:04:02Z</time>
      </trkpt>
      <trkpt lat="42.54558" lon="1.43863">
        <ele>1902.37</ele>
        <time>2016-05-06T05:04:22Z</time>
      </trkpt>
      <trkpt lat="42.5455" lon="1.43881">
        <ele>1900.388</ele>
        <time>2016-05-06T05:04:42Z</time>
      </trkpt>
      <trkpt lat="42.54544" lon="1.43897">
        <ele>1897.796</ele>
        <time>2016-05-06T05:05:02Z</time>
      </trkpt>
      <trkpt lat="42.54541" lon="1.43906">
        <ele>1896.564</ele>
        <time>2016-05-06T05:05:22Z</time>
      </trkpt>
      <trkpt lat="42.54539" lon="1.43918">
        <ele>1894.165</ele>
        <time>2016-05-06T05:05:42Z</time>
      </trkpt>
      <trkpt lat="42.54552" lon="1.43908">
        <ele>1894.143</ele>
        <time>2016-05-06T05:06:02Z</time>
      </trkpt>
      <trkpt lat="42.5456" lon="1.43898">
        <ele>1893.261</ele>
        <time>2016-05-06T05:06:22Z</time>
      </trkpt>
      <trkpt lat="42.5457" lon="1.43879">
        <ele>1891.371</ele>
        <time>2016-05-06T05:06:42Z</time>
      </trkpt>
      <trkpt lat="42.54576" lon="1.43864">
        <ele>1891.541</ele>
        <time>2016-05-06T05:07:02Z</time>
      </trkpt>
      <trkpt lat="42.54579" lon="1.43854">
        <ele>1891.515</ele>
        <time>2016-05-06T05:07:22Z</time>
      </trkpt>
      <trkpt lat="42.54591" lon="1.43841">
        <ele>1892.208</ele>
        <time>2016-05-06T05:07:42Z</time>
      </trkpt>
      <trkpt lat="42.54595" lon="1.43852">
        <ele>1891.438</ele>
        <time>2016-05-06T05:08:02Z</time>
      </trkpt>
      <trkpt lat="42.54595" lon="1.43872">
        <ele>1888.89</ele>
        <time>2016-05-06T05:08:22Z</time>
      </trkpt>
      <trkpt lat="42.54591" lon="1.43886">
        <ele>1885.158</ele>
        <time>2016-05-06T05:08:42Z</time>
      </trkpt>
      <trkpt lat="42.54589" lon="1.43896">
        <ele>1882.946</ele>
        <time>2016-05-06T05:09:02Z</time>
      </trkpt>
      <trkpt lat="42.5459" lon="1.43912">
        <ele>1880.894</ele>
        <time>2016-05-06T05:09:22Z</time>
      </trkpt>
      <trkpt lat="42.54585" lon="1.43924">
        <ele>1876.855</ele>
        <time>2016-05-06T05:09:42Z</time>
      </trkpt>
      <trkpt lat="42.54584" lon="1.43936">
        <ele>1874.543</ele>
        <time>2016-05-06T05:10:02Z</time>
      </trkpt>
      <trkpt lat="42.54581" lon="1.43952">
        <ele>1872.981</ele>
        <time>2016-05-06T05:10:22Z</time>
      </trkpt>
      <trkpt lat="42.54579" lon="1.43965">
        <ele>1871.264</ele>
        <time>2016-05-06T05:10:42Z</time>
      </trkpt>
      <trkpt lat="42.54575" lon="1.43978">
        <ele>1870.706</ele>
        <time>2016-05-06T05:11:02Z</time>
      </trkpt>
      <trkpt lat="42.54573" lon="1.43987">
        <ele>1869.416</ele>
        <time>2016-05-06T05:11:22Z</time>
      </trkpt>
      <trkpt lat="42.54571" lon="1.44001">
        <ele>1867.208</ele>
        <time>2016-05-06T05:11:42Z</time>
      </trkpt>
      <trkpt lat="42.54569" lon="1.44011">
        <ele>1865.427</ele>
        <time>2016-05-06T05:12:02Z</time>
      </trkpt>
      <trkpt lat="42.54567" lon="1.44024">
        <ele>1862.969</ele>
        <time>2016-05-06T05:12:22Z</time>
      </trkpt>
      <trkpt lat="42.54567" lon="1.4403">
        <ele>1861.697</ele>
        <time>2016-05-06T05:12:42Z</time>
      </trkpt>
      <trkpt lat="42.54575" lon="1.44036">
        <ele>1860.785</ele>
        <time>2016-05-06T05:13:02Z</time>
      </trkpt>
      <trkpt lat="42.5459" lon="1.44041">
        <ele>1861.283</ele>
        <time>2016-05-06T05:13:22Z</time>
      </trkpt>
      <trkpt lat="42.54604" lon="1.44047">
        <ele>1862.244</ele>
        <time>2016-05-06T05:13:42Z</time>
      </trkpt>
      <trkpt lat="42.54615" lon="1.44054">
        <ele>1861.482</ele>
        <time>2016-05-06T05:14:02Z</time>
      </trkpt>
      <trkpt lat="42.54617" lon="1.44069">
        <ele>1860.59</ele>
        <time>2016-05-06T05:14:22Z</time>
      </trkpt>
      <trkpt lat="42.5462" lon="1.44083">
        <ele>1860.023</ele>
        <time>2016-05-06T05:14:42Z</time>
      </trkpt>
      <trkpt lat="42.54613" lon="1.44087">
        <ele>1860.783</ele>
        <time>2016-05-06T05:15:02Z</time>
      </trkpt>
      <trkpt lat="42.54609" lon="1.44097">
        <ele>1862.311</ele>
        <time>2016-05-06T05:15:22Z</time>
      </trkpt>
      <trkpt lat="42.54603" lon="1.44106">
        <ele>1863.608</ele>
        <time>2016-05-06T05:15:42Z</time>
      </trkpt>
      <trkpt lat="42.54598" lon="1.44115">
        <ele>1866.013</ele>
        <time>2016-05-06T05:16:02Z</time>
      </trkpt>
      <trkpt lat="42.5459" lon="1.44115">
        <ele>1865.635</ele>
        <time>2016-05-06T05:16:22Z</time>
      </trkpt>
      <trkpt lat="42.54585" lon="1.44126">
        <ele>1869.253</ele>
        <time>2016-05-06T05:16:42Z</time>
      </trkpt>
      <trkpt lat="42.54579" lon="1.44132">
        <ele>1871.241</ele>
        <time>2016-05-06T05:17:02Z</time>
      </trkpt>
      <trkpt lat="42.54573" lon="1.44139">
        <ele>1873.659</ele>
        <time>2016-05-06T05:17:22Z</time>
      </trkpt>
      <trkpt lat="42.54564" lon="1.44145">
        <ele>1874.79</ele>
        <time>2016-05-06T05:17:42Z</time>
      </trkpt>
      <trkpt lat="42.54559" lon="1.4415">
        <ele>1875.938</ele>
        <time>2016-05-06T05:18:02Z</time>
      </trkpt>
      <trkpt lat="42.54554" lon="1.44156">
        <ele>1877.376</ele>
        <time>2016-05-06T05:18:22Z</time>
      </trkpt>
      <trkpt lat="42.54542" lon="1.44167">
        <ele>1879.588</ele>
        <time>2016-05-06T05:18:42Z</time>
      </trkpt>
      <trkpt lat="42.54532" lon="1.44178">
        <ele>1881.624</ele>
        <time>2016-05-06T05:19:02Z</time>
      </trkpt>
      <trkpt lat="42.54522" lon="1.44188">
        <ele>1883.226</ele>
        <time>2016-05-06T05:19:22Z</time>
      </trkpt>
      <trkpt lat="42.54513" lon="1.44195">
        <ele>1884.108</ele>
        <time>2016-05-06T05:19:42Z</time>
      </trkpt>
      <trkpt lat="42.54503" lon="1.44204">
        <ele>1885.239</ele>
        <time>2016-05-06T05:20:02Z</time>
      </trkpt>
      <trkpt lat="42.54493" lon="1.44206">
        <ele>1886.011</ele>
        <time>2016-05-06T05:20:22Z</time>
      </trkpt>
      <trkpt lat="42.54486" lon="1.44218">
        <ele>1888.219</ele>
        <time>2016-05-06T05:20:42Z</time>
      </trkpt>
      <trkpt lat="42.54474" lon="1.44232">
        <ele>1889.437</ele>
        <time>2016-05-06T05:21:02Z</time>
      </trkpt>
      <trkpt lat="42.54468" lon="1.44244">
        <ele>1889.175</ele>
        <time>2016-05-06T05:21:22Z</time>
      </trkpt>
      <trkpt lat="42.54471" lon="1.44262">
        <ele>1888.476</ele>
        <time>2016-05-06T05:21:42Z</time>
      </trkpt>
      <trkpt lat="42.54479" lon="1.44275">
        <ele>1888.974</ele>
        <time>2016-05-06T05:22:02Z</time>
      </trkpt>
      <trkpt lat="42.54487" lon="1.44291">
        <ele>1888.672</ele>
        <time>2016-05-06T05:22:22Z</time>
      </trkpt>
      <trkpt lat="42.54494" lon="1.44306">
        <ele>1888.983</ele>
        <time>2016-05-06T05:22:42Z</time>
      </trkpt>
      <trkpt lat="42.54501" lon="1.4432">
        <ele>1888.925</ele>
        <time>2016-05-06T05:23:02Z</time>
      </trkpt>
      <trkpt lat="42.5451" lon="1.44335">
        <ele>1888.617</ele>
        <time>2016-05-06T05:23:22Z</time>
      </trkpt>
      <trkpt lat="42.54514" lon="1.44347">
        <ele>1887.208</ele>
        <time>2016-05-06T05:23:42Z</time>
      </trkpt>
      <trkpt lat="42.5452" lon="1.44365">
        <ele>1885.769</ele>
        <time>2016-05-06T05:24:02Z</time>
      </trkpt>
      <trkpt lat="42.54526" lon="1.44375">
        <ele>1885.661</ele>
        <time>2016-05-06T05:24:22Z</time>
      </trkpt>
      <trkpt lat="42.54531" lon="1.44385">
        <ele>1885.139</ele>
        <time>2016-05-06T05:24:42Z</time>
      </trkpt>
      <trkpt lat="42.54538" lon="1.44397">
        <ele>1885.537</ele>
        <time>2016-05-06T05:25:02Z</time>
      </trkpt>
      <trkpt lat="42.54545" lon="1.4441">
        <ele>1884.985</ele>
        <time>2016-05-06T05:25:22Z</time>
      </trkpt>
      <trkpt lat="42.54548" lon="1.44422">
        <ele>1883.756</ele>
        <time>2016-05-06T05:25:42Z</time>
      </trkpt>
      <trkpt lat="42.54544" lon="1.44431">
        <ele>1882.434</ele>
        <time>2016-05-06T05:26:02Z</time>
      </trkpt>
      <trkpt lat="42.54541" lon="1.44444">
        <ele>1881.512</ele>
        <time>2016-05-06T05:26:22Z</time>
      </trkpt>
      <trkpt lat="42.54541" lon="1.44465">
        <ele>1884.555</ele>
        <time>2016-05-06T05:26:42Z</time>
      </trkpt>
      <trkpt lat="42.54545" lon="1.44479">
        <ele>1886.407</ele>
        <time>2016-05-06T05:27:02Z</time>
      </trkpt>
      <trkpt lat="42.5455" lon="1.44496">
        <ele>1889.217</ele>
        <time>2016-05-06T05:27:22Z</time>
      </trkpt>
      <trkpt lat="42.54554" lon="1.44509">
        <ele>1891.508</ele>
        <time>2016-05-06T05:27:42Z</time>
      </trkpt>
      <trkpt lat="42.54561" lon="1.44522">
        <ele>1894.236</ele>
        <time>2016-05-06T05:28:02Z</time>
      </trkpt>
      <trkpt lat="42.54563" lon="1.44531">
        <ele>1896.198</ele>
        <time>2016-05-06T05:28:22Z</time>
      </trkpt>
      <trkpt lat="42.54561" lon="1.44543">
        <ele>1898.766</ele>
        <time>2016-05-06T05:28:42Z</time>
      </trkpt>
      <trkpt lat="42.54558" lon="1.44554">
        <ele>1901.444</ele>
        <time>2016-05-06T05:29:02Z</time>
      </trkpt>
      <trkpt lat="42.54555" lon="1.44566">
        <ele>1903.372</ele>
        <time>2016-05-06T05:29:22Z</time>
      </trkpt>
      <trkpt lat="42.5455" lon="1.44582">
        <ele>1905.833</ele>
        <time>2016-05-06T05:29:42Z</time>
      </trkpt>
      <trkpt lat="42.54545" lon="1.44596">
        <ele>1908.441</ele>
        <time>2016-05-06T05:30:02Z</time>
      </trkpt>
      <trkpt lat="42.54536" lon="1.44619">
        <ele>1912.639</ele>
        <time>2016-05-06T05:30:22Z</time>
      </trkpt>
      <trkpt lat="42.54529" lon="1.44628">
        <ele>1915.189</ele>
        <time>2016-05-06T05:30:42Z</time>
      </trkpt>
      <trkpt lat="42.54522" lon="1.44642">
        <ele>1919.106</ele>
        <time>2016-05-06T05:31:02Z</time>
      </trkpt>
      <trkpt lat="42.54516" lon="1.4465">
        <ele>1921.726</ele>
        <time>2016-05-06T05:31:22Z</time>
      </trkpt>
      <trkpt lat="42.54506" lon="1.44667">
        <ele>1926.208</ele>
        <time>2016-05-06T05:31:42Z</time>
      </trkpt>
      <trkpt lat="42.545" lon="1.44678">
        <ele>1929.129</ele>
        <time>2016-05-06T05:32:02Z</time>
      </trkpt>
      <trkpt lat="42.54493" lon="1.44689">
        <ele>1932.951</ele>
        <time>2016-05-06T05:32:22Z</time>
      </trkpt>
      <trkpt lat="42.54485" lon="1.44699">
        <ele>1937.149</ele>
        <time>2016-05-06T05:32:42Z</time>
      </trkpt>
      <trkpt lat="42.54478" lon="1.44708">
        <ele>1940.597</ele>
        <time>2016-05-06T05:33:02Z</time>
      </trkpt>
      <trkpt lat="42.54469" lon="1.4472">
        <ele>1945.285</ele>
        <time>2016-05-06T05:33:22Z</time>
      </trkpt>
      <trkpt lat="42.54463" lon="1.44729">
        <ele>1948.736</ele>
        <time>2016-05-06T05:33:42Z</time>
      </trkpt>
      <trkpt lat="42.54456" lon="1.44739">
        <ele>1952.644</ele>
        <time>2016-05-06T05:34:02Z</time>
      </trkpt>
      <trkpt lat="42.54449" lon="1.44746">
        <ele>1956.822</ele>
        <time>2016-05-06T05:34:22Z</time>
      </trkpt>
      <trkpt lat="42.54444" lon="1.44757">
        <ele>1960.119</ele>
        <time>2016-05-06T05:34:42Z</time>
      </trkpt>
      <trkpt lat="42.54437" lon="1.44773">
        <ele>1964.809</ele>
        <time>2016-05-06T05:35:02Z</time>
      </trkpt>
      <trkpt lat="42.54428" lon="1.44789">
        <ele>1970.019</ele>
        <time>2016-05-06T05:35:22Z</time>
      </trkpt>
      <trkpt lat="42.54423" lon="1.44805">
        <ele>1973.208</ele>
        <time>2016-05-06T05:35:42Z</time>
      </trkpt>
      <trkpt lat="42.54418" lon="1.44822">
        <ele>1977.442</ele>
        <time>2016-05-06T05:36:02Z</time>
      </trkpt>
      <trkpt lat="42.54408" lon="1.44843">
        <ele>1983.334</ele>
        <time>2016-05-06T05:36:22Z</time>
      </trkpt>
      <trkpt lat="42.54402" lon="1.44858">
        <ele>1986.652</ele>
        <time>2016-05-06T05:36:42Z</time>
      </trkpt>
      <trkpt lat="42.54399" lon="1.44873">
        <ele>1989.61</ele>
        <time>2016-05-06T05:37:02Z</time>
      </trkpt>
      <trkpt lat="42.54394" lon="1.44888">
        <ele>1992.998</ele>
        <time>2016-05-06T05:37:22Z</time>
      </trkpt>
      <trkpt lat="42.54389" lon="1.44913">
        <ele>1998.679</ele>
        <time>2016-05-06T05:37:42Z</time>
      </trkpt>
      <trkpt lat="42.54387" lon="1.44926">
        <ele>2001.297</ele>
        <time>2016-05-06T05:38:02Z</time>
      </trkpt>
      <trkpt lat="42.54385" lon="1.44938">
        <ele>2004.065</ele>
        <time>2016-05-06T05:38:22Z</time>
      </trkpt>
      <trkpt lat="42.54383" lon="1.44956">
        <ele>2007.343</ele>
        <time>2016-05-06T05:38:42Z</time>
      </trkpt>
      <trkpt lat="42.54381" lon="1.44974">
        <ele>2010.764</ele>
        <time>2016-05-06T05:39:02Z</time>
      </trkpt>
      <trkpt lat="42.5438" lon="1.44995">
        <ele>2015.61</ele>
        <time>2016-05-06T05:39:22Z</time>
      </trkpt>
      <trkpt lat="42.54376" lon="1.45014">
        <ele>2020.908</ele>
        <time>2016-05-06T05:39:42Z</time>
      </trkpt>
      <trkpt lat="42.54375" lon="1.45026">
        <ele>2024.075</ele>
        <time>2016-05-06T05:40:02Z</time>
      </trkpt>
      <trkpt lat="42.54378" lon="1.4504">
        <ele>2026.767</ele>
        <time>2016-05-06T05:40:22Z</time>
      </trkpt>
      <trkpt lat="42.54381" lon="1.45055">
        <ele>2029.495</ele>
        <time>2016-05-06T05:40:42Z</time>
      </trkpt>
      <trkpt lat="42.54384" lon="1.45071">
        <ele>2032.743</ele>
        <time>2016-05-06T05:41:02Z</time>
      </trkpt>
      <trkpt lat="42.54388" lon="1.45091">
        <ele>2037.161</ele>
        <time>2016-05-06T05:41:22Z</time>
      </trkpt>
      <trkpt lat="42.54393" lon="1.45104">
        <ele>2039.042</ele>
        <time>2016-05-06T05:41:42Z</time>
      </trkpt>
      <trkpt lat="42.54398" lon="1.45117">
        <ele>2040.65</ele>
        <time>2016-05-06T05:42:02Z</time>
      </trkpt>
      <trkpt lat="42.54407" lon="1.45136">
        <ele>2043.528</ele>
        <time>2016-05-06T05:42:22Z</time>
      </trkpt>
      <trkpt lat="42.54413" lon="1.45149">
        <ele>2045.944</ele>
        <time>2016-05-06T05:42:42Z</time>
      </trkpt>
      <trkpt lat="42.54421" lon="1.45156">
        <ele>2046.105</ele>
        <time>2016-05-06T05:43:02Z</time>
      </trkpt>
      <trkpt lat="42.54431" lon="1.45164">
        <ele>2047.115</ele>
        <time>2016-05-06T05:43:22Z</time>
      </trkpt>
      <trkpt lat="42.54441" lon="1.45178">
        <ele>2050.408</ele>
        <time>2016-05-06T05:43:42Z</time>
      </trkpt>
      <trkpt lat="42.54454" lon="1.4519">
        <ele>2053.495</ele>
        <time>2016-05-06T05:44:02Z</time>
      </trkpt>
      <trkpt lat="42.54486" lon="1.45225">
        <ele>2061.327</ele>
        <time>2016-05-06T05:44:22Z</time>
      </trkpt>
      <trkpt lat="42.54483" lon="1.45229">
        <ele>2061.745</ele>
        <time>2016-05-06T05:44:42Z</time>
      </trkpt>
      <trkpt lat="42.5448" lon="1.45231">
        <ele>2061.893</ele>
        <time>2016-05-06T05:45:02Z</time>
      </trkpt>
      <trkpt lat="42.54478" lon="1.45233">
        <ele>2061.931</ele>
        <time>2016-05-06T05:45:22Z</time>
      </trkpt>
      <trkpt lat="42.54476" lon="1.45236">
        <ele>2062.152</ele>
        <time>2016-05-06T05:45:42Z</time>
      </trkpt>
      <trkpt lat="42.54475" lon="1.45239">
        <ele>2062.42</ele>
        <time>2016-05-06T05:46:02Z</time>
      </trkpt>
      <trkpt lat="42.54473" lon="1.45241">
        <ele>2062.438</ele>
        <time>2016-05-06T05:46:22Z</time>
      </trkpt>
      <trkpt lat="42.54471" lon="1.45244">
        <ele>2062.626</ele>
        <time>2016-05-06T05:46:42Z</time>
      </trkpt>
      <trkpt lat="42.54469" lon="1.45248">
        <ele>2062.947</ele>
        <time>2016-05-06T05:47:02Z</time>
      </trkpt>
      <trkpt lat="42.54469" lon="1.45251">
        <ele>2063.111</ele>
        <time>2016-05-06T05:47:22Z</time>
      </trkpt>
      <trkpt lat="42.54468" lon="1.45255">
        <ele>2063.508</ele>
        <time>2016-05-06T05:47:42Z</time>
      </trkpt>
      <trkpt lat="42.54466" lon="1.45258">
        <ele>2063.893</ele>
        <time>2016-05-06T05:48:02Z</time>
      </trkpt>
      <trkpt lat="42.54464" lon="1.45262">
        <ele>2064.145</ele>
        <time>2016-05-06T05:48:22Z</time>
      </trkpt>
      <trkpt lat="42.54462" lon="1.45264">
        <ele>2064.313</ele>
        <time>2016-05-06T05:48:42Z</time>
      </trkpt>
      <trkpt lat="42.54461" lon="1.45265">
        <ele>2064.461</ele>
        <time>2016-05-06T05:49:02Z</time>
      </trkpt>
      <trkpt lat="42.54459" lon="1.45271">
        <ele>2064.969</ele>
        <time>2016-05-06T05:49:22Z</time>
      </trkpt>
      <trkpt lat="42.54458" lon="1.45277">
        <ele>2065.44</ele>
        <time>2016-05-06T05:49:42Z</time>
      </trkpt>
      <trkpt lat="42.54457" lon="1.45281">
        <ele>2065.868</ele>
        <time>2016-05-06T05:50:02Z</time>
      </trkpt>
      <trkpt lat="42.54457" lon="1.45285">
        <ele>2066.246</ele>
        <time>2016-05-06T05:50:22Z</time>
      </trkpt>
      <trkpt lat="42.54456" lon="1.45288">
        <ele>2066.528</ele>
        <time>2016-05-06T05:50:42Z</time>
      </trkpt>
      <trkpt lat="42.54456" lon="1.45291">
        <ele>2066.889</ele>
        <time>2016-05-06T05:51:02Z</time>
      </trkpt>
      <trkpt lat="42.54456" lon="1.45295">
        <ele>2067.217</ele>
        <time>2016-05-06T05:51:22Z</time>
      </trkpt>
      <trkpt lat="42.54457" lon="1.45298">
        <ele>2067.708</ele>
        <time>2016-05-06T05:51:42Z</time>
      </trkpt>
      <trkpt lat="42.54456" lon="1.45302">
        <ele>2068.013</ele>
        <time>2016-05-06T05:52:02Z</time>
      </trkpt>
      <trkpt lat="42.54456" lon="1.45305">
        <ele>2068.395</ele>
        <time>2016-05-06T05:52:22Z</time>
      </trkpt>
      <trkpt lat="42.54455" lon="1.45312">
        <ele>2068.353</ele>
        <time>2016-05-06T05:52:42Z</time>
      </trkpt>
      <trkpt lat="42.54456" lon="1.45315">
        <ele>2068.331</ele>
        <time>2016-05-06T05:53:02Z</time>
      </trkpt>
      <trkpt lat="42.54457" lon="1.4532">
        <ele>2068.319</ele>
        <time>2016-05-06T05:53:22Z</time>
      </trkpt>
      <trkpt lat="42.54457" lon="1.4532">
        <ele>2068.32</ele>
        <time>2016-05-06T05:53:42Z</time>
      </trkpt>
      <trkpt lat="42.54432" lon="1.45368">
        <ele>2072.498</ele>
        <time>2016-05-06T05:54:02Z</time>
      </trkpt>
      <trkpt lat="42.54396" lon="1.45375">
        <ele>2081.736</ele>
        <time>2016-05-06T05:54:22Z</time>
      </trkpt>
      <trkpt lat="42.54377" lon="1.45395">
        <ele>2087.553</ele>
        <time>2016-05-06T05:54:42Z</time>
      </trkpt>
      <trkpt lat="42.54362" lon="1.45431">
        <ele>2089.604</ele>
        <time>2016-05-06T05:55:02Z</time>
      </trkpt>
      <trkpt lat="42.54331" lon="1.45474">
        <ele>2090.614</ele>
        <time>2016-05-06T05:55:22Z</time>
      </trkpt>
      <trkpt lat="42.5431" lon="1.45479">
        <ele>2092.708</ele>
        <time>2016-05-06T05:55:42Z</time>
      </trkpt>
      <trkpt lat="42.543" lon="1.45479">
        <ele>2094.516</ele>
        <time>2016-05-06T05:56:02Z</time>
      </trkpt>
      <trkpt lat="42.54288" lon="1.45486">
        <ele>2094.338</ele>
        <time>2016-05-06T05:56:22Z</time>
      </trkpt>
      <trkpt lat="42.54275" lon="1.45494">
        <ele>2094.446</ele>
        <time>2016-05-06T05:56:42Z</time>
      </trkpt>
      <trkpt lat="42.54261" lon="1.45501">
        <ele>2095.754</ele>
        <time>2016-05-06T05:57:02Z</time>
      </trkpt>
      <trkpt lat="42.542" lon="1.45525">
        <ele>2094.852</ele>
        <time>2016-05-06T05:57:22Z</time>
      </trkpt>
      <trkpt lat="42.54182" lon="1.45524">
        <ele>2096.683</ele>
        <time>2016-05-06T05:57:42Z</time>
      </trkpt>
      <trkpt lat="42.54159" lon="1.45531">
        <ele>2097.751</ele>
        <time>2016-05-06T05:58:02Z</time>
      </trkpt>
      <trkpt lat="42.54149" lon="1.45541">
        <ele>2096.279</ele>
        <time>2016-05-06T05:58:22Z</time>
      </trkpt>
      <trkpt lat="42.54143" lon="1.45544">
        <ele>2096.296</ele>
        <time>2016-05-06T05:58:42Z</time>
      </trkpt>
      <trkpt lat="42.5413" lon="1.45549">
        <ele>2096.731</ele>
        <time>2016-05-06T05:59:02Z</time>
      </trkpt>
      <trkpt lat="42.54115" lon="1.45554">
        <ele>2097.224</ele>
        <time>2016-05-06T05:59:22Z</time>
      </trkpt>
      <trkpt lat="42.54101" lon="1.45558">
        <ele>2098.608</ele>
        <time>2016-05-06T05:59:42Z</time>
      </trkpt>
      <trkpt lat="42.54087" lon="1.45563">
        <ele>2101.25</ele>
        <time>2016-05-06T06:00:02Z</time>
      </trkpt>
      <trkpt lat="42.54076" lon="1.45577">
        <ele>2098.762</ele>
        <time>2016-05-06T06:00:22Z</time>
      </trkpt>
      <trkpt lat="42.54063" lon="1.45581">
        <ele>2101.09</ele>
        <time>2016-05-06T06:00:42Z</time>
      </trkpt>
      <trkpt lat="42.54029" lon="1.45635">
        <ele>2089.428</ele>
        <time>2016-05-06T06:01:02Z</time>
      </trkpt>
      <trkpt lat="42.54013" lon="1.45638">
        <ele>2086.936</ele>
        <time>2016-05-06T06:01:22Z</time>
      </trkpt>
      <trkpt lat="42.53996" lon="1.45638">
        <ele>2084.567</ele>
        <time>2016-05-06T06:01:42Z</time>
      </trkpt>
      <trkpt lat="42.53967" lon="1.45623">
        <ele>2086.785</ele>
        <time>2016-05-06T06:02:02Z</time>
      </trkpt>
      <trkpt lat="42.53936" lon="1.45604">
        <ele>2093.883</ele>
        <time>2016-05-06T06:02:22Z</time>
      </trkpt>
      <trkpt lat="42.53898" lon="1.45592">
        <ele>2097.168</ele>
        <time>2016-05-06T06:02:42Z</time>
      </trkpt>
      <trkpt lat="42.53875" lon="1.45595">
        <ele>2095.242</ele>
        <time>2016-05-06T06:03:02Z</time>
      </trkpt>
      <trkpt lat="42.53834" lon="1.45604">
        <ele>2093.726</ele>
        <time>2016-05-06T06:03:22Z</time>
      </trkpt>
      <trkpt lat="42.53814" lon="1.45612">
        <ele>2091.208</ele>
        <time>2016-05-06T06:03:42Z</time>
      </trkpt>
      <trkpt lat="42.53798" lon="1.45608">
        <ele>2094.497</ele>
        <time>2016-05-06T06:04:02Z</time>
      </trkpt>
      <trkpt lat="42.53775" lon="1.45622">
        <ele>2092.969</ele>
        <time>2016-05-06T06:04:22Z</time>
      </trkpt>
      <trkpt lat="42.53752" lon="1.45649">
        <ele>2090.397</ele>
        <time>2016-05-06T06:04:42Z</time>
      </trkpt>
      <trkpt lat="42.53724" lon="1.4567">
        <ele>2091.355</ele>
        <time>2016-05-06T06:05:02Z</time>
      </trkpt>
      <trkpt lat="42.53699" lon="1.45678">
        <ele>2094.753</ele>
        <time>2016-05-06T06:05:22Z</time>
      </trkpt>
      <trkpt lat="42.53682" lon="1.45692">
        <ele>2088.454</ele>
        <time>2016-05-06T06:05:42Z</time>
      </trkpt>
      <trkpt lat="42.53659" lon="1.4568">
        <ele>2095.332</ele>
        <time>2016-05-06T06:06:02Z</time>
      </trkpt>
      <trkpt lat="42.53626" lon="1.45691">
        <ele>2100.02</ele>
        <time>2016-05-06T06:06:22Z</time>
      </trkpt>
      <trkpt lat="42.53607" lon="1.45705">
        <ele>2102.883</ele>
        <time>2016-05-06T06:06:42Z</time>
      </trkpt>
      <trkpt lat="42.53585" lon="1.45726">
        <ele>2103.025</ele>
        <time>2016-05-06T06:07:02Z</time>
      </trkpt>
      <trkpt lat="42.53566" lon="1.45721">
        <ele>2103.717</ele>
        <time>2016-05-06T06:07:22Z</time>
      </trkpt>
      <trkpt lat="42.53552" lon="1.45722">
        <ele>2100.808</ele>
        <time>2016-05-06T06:07:42Z</time>
      </trkpt>
      <trkpt lat="42.53538" lon="1.45714">
        <ele>2102.639</ele>
        <time>2016-05-06T06:08:02Z</time>
      </trkpt>
      <trkpt lat="42.53521" lon="1.45708">
        <ele>2103.381</ele>
        <time>2016-05-06T06:08:22Z</time>
      </trkpt>
      <trkpt lat="42.53506" lon="1.45691">
        <ele>2108.069</ele>
        <time>2016-05-06T06:08:42Z</time>
      </trkpt>
      <trkpt lat="42.5349" lon="1.45684">
        <ele>2111.387</ele>
        <time>2016-05-06T06:09:02Z</time>
      </trkpt>
      <trkpt lat="42.5347" lon="1.45689">
        <ele>2112.175</ele>
        <time>2016-05-06T06:09:22Z</time>
      </trkpt>
      <trkpt lat="42.53455" lon="1.45695">
        <ele>2111.876</ele>
        <time>2016-05-06T06:09:42Z</time>
      </trkpt>
      <trkpt lat="42.53432" lon="1.45707">
        <ele>2115.944</ele>
        <time>2016-05-06T06:10:02Z</time>
      </trkpt>
      <trkpt lat="42.53422" lon="1.45731">
        <ele>2120.552</ele>
        <time>2016-05-06T06:10:22Z</time>
      </trkpt>
      <trkpt lat="42.53425" lon="1.45756">
        <ele>2121.477</ele>
        <time>2016-05-06T06:10:42Z</time>
      </trkpt>
      <trkpt lat="42.53424" lon="1.45795">
        <ele>2126.861</ele>
        <time>2016-05-06T06:11:02Z</time>
      </trkpt>
      <trkpt lat="42.53424" lon="1.45817">
        <ele>2127.827</ele>
        <time>2016-05-06T06:11:22Z</time>
      </trkpt>
      <trkpt lat="42.53416" lon="1.45856">
        <ele>2129.308</ele>
        <time>2016-05-06T06:11:42Z</time>
      </trkpt>
      <trkpt lat="42.53409" lon="1.45869">
        <ele>2129.498</ele>
        <time>2016-05-06T06:12:02Z</time>
      </trkpt>
      <trkpt lat="42.53398" lon="1.45893">
        <ele>2126.31</ele>
        <time>2016-05-06T06:12:22Z</time>
      </trkpt>
      <trkpt lat="42.53382" lon="1.4591">
        <ele>2125.298</ele>
        <time>2016-05-06T06:12:42Z</time>
      </trkpt>
      <trkpt lat="42.53363" lon="1.45924">
        <ele>2123.936</ele>
        <time>2016-05-06T06:13:02Z</time>
      </trkpt>
      <trkpt lat="42.53324" lon="1.45943">
        <ele>2124.054</ele>
        <time>2016-05-06T06:13:22Z</time>
      </trkpt>
      <trkpt lat="42.53306" lon="1.45956">
        <ele>2124.115</ele>
        <time>2016-05-06T06:13:42Z</time>
      </trkpt>
      <trkpt lat="42.53291" lon="1.45967">
        <ele>2124.073</ele>
        <time>2016-05-06T06:14:02Z</time>
      </trkpt>
      <trkpt lat="42.53277" lon="1.45984">
        <ele>2123.121</ele>
        <time>2016-05-06T06:14:22Z</time>
      </trkpt>
      <trkpt lat="42.53267" lon="1.46001">
        <ele>2122.798</ele>
        <time>2016-05-06T06:14:42Z</time>
      </trkpt>
      <trkpt lat="42.53257" lon="1.46011">
        <ele>2123.215</ele>
        <time>2016-05-06T06:15:02Z</time>
      </trkpt>
      <trkpt lat="42.53246" lon="1.4603">
        <ele>2122.926</ele>
        <time>2016-05-06T06:15:22Z</time>
      </trkpt>
      <trkpt lat="42.53234" lon="1.46044">
        <ele>2123.508</ele>
        <time>2016-05-06T06:15:42Z</time>
      </trkpt>
      <trkpt lat="42.53227" lon="1.46056">
        <ele>2123.38</ele>
        <time>2016-05-06T06:16:02Z</time>
      </trkpt>
      <trkpt lat="42.53219" lon="1.46069">
        <ele>2123.722</ele>
        <time>2016-05-06T06:16:22Z</time>
      </trkpt>
      <trkpt lat="42.53212" lon="1.46082">
        <ele>2123.69</ele>
        <time>2016-05-06T06:16:42Z</time>
      </trkpt>
      <trkpt lat="42.53204" lon="1.46089">
        <ele>2124.148</ele>
        <time>2016-05-06T06:17:02Z</time>
      </trkpt>
      <trkpt lat="42.53194" lon="1.46099">
        <ele>2123.426</ele>
        <time>2016-05-06T06:17:22Z</time>
      </trkpt>
      <trkpt lat="42.53185" lon="1.46105">
        <ele>2122.967</ele>
        <time>2016-05-06T06:17:42Z</time>
      </trkpt>
      <trkpt lat="42.53155" lon="1.46112">
        <ele>2123.855</ele>
        <time>2016-05-06T06:18:02Z</time>
      </trkpt>
      <trkpt lat="42.5314" lon="1.46118">
        <ele>2122.513</ele>
        <time>2016-05-06T06:18:22Z</time>
      </trkpt>
      <trkpt lat="42.5313" lon="1.46129">
        <ele>2119.767</ele>
        <time>2016-05-06T06:18:42Z</time>
      </trkpt>
      <trkpt lat="42.53107" lon="1.46141">
        <ele>2119.581</ele>
        <time>2016-05-06T06:19:02Z</time>
      </trkpt>
      <trkpt lat="42.53091" lon="1.46149">
        <ele>2119.919</ele>
        <time>2016-05-06T06:19:22Z</time>
      </trkpt>
      <trkpt lat="42.53076" lon="1.46161">
        <ele>2119.308</ele>
        <time>2016-05-06T06:19:42Z</time>
      </trkpt>
      <trkpt lat="42.53059" lon="1.46178">
        <ele>2118.337</ele>
        <time>2016-05-06T06:20:02Z</time>
      </trkpt>
      <trkpt lat="42.53047" lon="1.46191">
        <ele>2117.229</ele>
        <time>2016-05-06T06:20:22Z</time>
      </trkpt>
      <trkpt lat="42.53038" lon="1.462">
        <ele>2117.197</ele>
        <time>2016-05-06T06:20:42Z</time>
      </trkpt>
      <trkpt lat="42.5303" lon="1.46214">
        <ele>2115.655</ele>
        <time>2016-05-06T06:21:02Z</time>
      </trkpt>
      <trkpt lat="42.5302" lon="1.46234">
        <ele>2115.423</ele>
        <time>2016-05-06T06:21:22Z</time>
      </trkpt>
      <trkpt lat="42.5301" lon="1.46249">
        <ele>2116.474</ele>
        <time>2016-05-06T06:21:42Z</time>
      </trkpt>
      <trkpt lat="42.52999" lon="1.46268">
        <ele>2116.342</ele>
        <time>2016-05-06T06:22:02Z</time>
      </trkpt>
      <trkpt lat="42.52988" lon="1.46294">
        <ele>2114.22</ele>
        <time>2016-05-06T06:22:22Z</time>
      </trkpt>
      <trkpt lat="42.52978" lon="1.46312">
        <ele>2113.433</ele>
        <time>2016-05-06T06:22:42Z</time>
      </trkpt>
      <trkpt lat="42.52972" lon="1.46319">
        <ele>2114.523</ele>
        <time>2016-05-06T06:23:02Z</time>
      </trkpt>
      <trkpt lat="42.52961" lon="1.46335">
        <ele>2115.115</ele>
        <time>2016-05-06T06:23:22Z</time>
      </trkpt>
      <trkpt lat="42.5295" lon="1.46349">
        <ele>2116.708</ele>
        <time>2016-05-06T06:23:42Z</time>
      </trkpt>
      <trkpt lat="42.5294" lon="1.46366">
        <ele>2117.524</ele>
        <time>2016-05-06T06:24:02Z</time>
      </trkpt>
      <trkpt lat="42.5293" lon="1.46383">
        <ele>2117.466</ele>
        <time>2016-05-06T06:24:22Z</time>
      </trkpt>
      <trkpt lat="42.52921" lon="1.46395">
        <ele>2119.244</ele>
        <time>2016-05-06T06:24:42Z</time>
      </trkpt>
      <trkpt lat="42.52913" lon="1.4642">
        <ele>2119.062</ele>
        <time>2016-05-06T06:25:02Z</time>
      </trkpt>
      <trkpt lat="42.5291" lon="1.46439">
        <ele>2117.84</ele>
        <time>2016-05-06T06:25:22Z</time>
      </trkpt>
      <trkpt lat="42.52904" lon="1.4646">
        <ele>2117.391</ele>
        <time>2016-05-06T06:25:42Z</time>
      </trkpt>
      <trkpt lat="42.52895" lon="1.46481">
        <ele>2117.479</ele>
        <time>2016-05-06T06:26:02Z</time>
      </trkpt>
      <trkpt lat="42.52886" lon="1.46503">
        <ele>2117.127</ele>
        <time>2016-05-06T06:26:22Z</time>
      </trkpt>
      <trkpt lat="42.52876" lon="1.46532">
        <ele>2115.549</ele>
        <time>2016-05-06T06:26:42Z</time>
      </trkpt>
      <trkpt lat="42.5287" lon="1.46559">
        <ele>2114.902</ele>
        <time>2016-05-06T06:27:02Z</time>
      </trkpt>
      <trkpt lat="42.52868" lon="1.46578">
        <ele>2113.422</ele>
        <time>2016-05-06T06:27:22Z</time>
      </trkpt>
      <trkpt lat="42.52863" lon="1.46607">
        <ele>2112.008</ele>
        <time>2016-05-06T06:27:42Z</time>
      </trkpt>
      <trkpt lat="42.52855" lon="1.46627">
        <ele>2110.955</ele>
        <time>2016-05-06T06:28:02Z</time>
      </trkpt>
      <trkpt lat="42.52846" lon="1.46644">
        <ele>2110.147</ele>
        <time>2016-05-06T06:28:22Z</time>
      </trkpt>
      <trkpt lat="42.52836" lon="1.46659">
        <ele>2109.785</ele>
        <time>2016-05-06T06:28:42Z</time>
      </trkpt>
      <trkpt lat="42.52828" lon="1.46675">
        <ele>2109.773</ele>
        <time>2016-05-06T06:29:02Z</time>
      </trkpt>
      <trkpt lat="42.52821" lon="1.46697">
        <ele>2110.021</ele>
        <time>2016-05-06T06:29:22Z</time>
      </trkpt>
      <trkpt lat="42.52817" lon="1.46713">
        <ele>2110.262</ele>
        <time>2016-05-06T06:29:42Z</time>
      </trkpt>
      <trkpt lat="42.52813" lon="1.46729">
        <ele>2110.45</ele>
        <time>2016-05-06T06:30:02Z</time>
      </trkpt>
      <trkpt lat="42.5281" lon="1.46739">
        <ele>2110.588</ele>
        <time>2016-05-06T06:30:22Z</time>
      </trkpt>
      <trkpt lat="42.52807" lon="1.46747">
        <ele>2110.938</ele>
        <time>2016-05-06T06:30:42Z</time>
      </trkpt>
      <trkpt lat="42.52801" lon="1.46759">
        <ele>2112.67</ele>
        <time>2016-05-06T06:31:02Z</time>
      </trkpt>
      <trkpt lat="42.52795" lon="1.46774">
        <ele>2114.617</ele>
        <time>2016-05-06T06:31:22Z</time>
      </trkpt>
      <trkpt lat="42.52787" lon="1.46784">
        <ele>2116.908</ele>
        <time>2016-05-06T06:31:42Z</time>
      </trkpt>
      <trkpt lat="42.52778" lon="1.4679">
        <ele>2119.424</ele>
        <time>2016-05-06T06:32:02Z</time>
      </trkpt>
      <trkpt lat="42.5277" lon="1.46798">
        <ele>2117.226</ele>
        <time>2016-05-06T06:32:22Z</time>
      </trkpt>
      <trkpt lat="42.5276" lon="1.46804">
        <ele>2114.184</ele>
        <time>2016-05-06T06:32:42Z</time>
      </trkpt>
      <trkpt lat="42.52754" lon="1.46797">
        <ele>2113.052</ele>
        <time>2016-05-06T06:33:02Z</time>
      </trkpt>
      <trkpt lat="42.52752" lon="1.46788">
        <ele>2113.49</ele>
        <time>2016-05-06T06:33:22Z</time>
      </trkpt>
      <trkpt lat="42.52747" lon="1.46774">
        <ele>2112.831</ele>
        <time>2016-05-06T06:33:42Z</time>
      </trkpt>
      <trkpt lat="42.52741" lon="1.4676">
        <ele>2111.239</ele>
        <time>2016-05-06T06:34:02Z</time>
      </trkpt>
      <trkpt lat="42.52737" lon="1.46745">
        <ele>2111.177</ele>
        <time>2016-05-06T06:34:22Z</time>
      </trkpt>
      <trkpt lat="42.52731" lon="1.46734">
        <ele>2108.912</ele>
        <time>2016-05-06T06:34:42Z</time>
      </trkpt>
      <trkpt lat="42.52726" lon="1.46719">
        <ele>2107.932</ele>
        <time>2016-05-06T06:35:02Z</time>
      </trkpt>
      <trkpt lat="42.52726" lon="1.4671">
        <ele>2109.205</ele>
        <time>2016-05-06T06:35:22Z</time>
      </trkpt>
      <trkpt lat="42.52718" lon="1.46697">
        <ele>2105.708</ele>
        <time>2016-05-06T06:35:42Z</time>
      </trkpt>
      <trkpt lat="42.52717" lon="1.46684">
        <ele>2107.052</ele>
        <time>2016-05-06T06:36:02Z</time>
      </trkpt>
      <trkpt lat="42.52713" lon="1.46675">
        <ele>2105.164</ele>
        <time>2016-05-06T06:36:22Z</time>
      </trkpt>
      <trkpt lat="42.52709" lon="1.46665">
        <ele>2104.282</ele>
        <time>2016-05-06T06:36:42Z</time>
      </trkpt>
      <trkpt lat="42.52704" lon="1.46655">
        <ele>2102.59</ele>
        <time>2016-05-06T06:37:02Z</time>
      </trkpt>
      <trkpt lat="42.52701" lon="1.46646">
        <ele>2101.998</ele>
        <time>2016-05-06T06:37:22Z</time>
      </trkpt>
      <trkpt lat="42.52698" lon="1.46632">
        <ele>2102.739</ele>
        <time>2016-05-06T06:37:42Z</time>
      </trkpt>
      <trkpt lat="42.52697" lon="1.46621">
        <ele>2104.147</ele>
        <time>2016-05-06T06:38:02Z</time>
      </trkpt>
      <trkpt lat="42.52695" lon="1.46608">
        <ele>2106.135</ele>
        <time>2016-05-06T06:38:22Z</time>
      </trkpt>
      <trkpt lat="42.52694" lon="1.46598">
        <ele>2107.617</ele>
        <time>2016-05-06T06:38:42Z</time>
      </trkpt>
      <trkpt lat="42.52691" lon="1.46586">
        <ele>2108.687</ele>
        <time>2016-05-06T06:39:02Z</time>
      </trkpt>
      <trkpt lat="42.52686" lon="1.46567">
        <ele>2110.415</ele>
        <time>2016-05-06T06:39:22Z</time>
      </trkpt>
      <trkpt lat="42.52679" lon="1.46548">
        <ele>2111.208</ele>
        <time>2016-05-06T06:39:42Z</time>
      </trkpt>
      <trkpt lat="42.52667" lon="1.46528">
        <ele>2110.352</ele>
        <time>2016-05-06T06:40:02Z</time>
      </trkpt>
      <trkpt lat="42.52659" lon="1.46509">
        <ele>2111.174</ele>
        <time>2016-05-06T06:40:22Z</time>
      </trkpt>
      <trkpt lat="42.52646" lon="1.46485">
        <ele>2111.242</ele>
        <time>2016-05-06T06:40:42Z</time>
      </trkpt>
      <trkpt lat="42.52636" lon="1.46461">
        <ele>2113.43</ele>
        <time>2016-05-06T06:41:02Z</time>
      </trkpt>
      <trkpt lat="42.52628" lon="1.46442">
        <ele>2114.888</ele>
        <time>2016-05-06T06:41:22Z</time>
      </trkpt>
      <trkpt lat="42.52618" lon="1.46424">
        <ele>2113.039</ele>
        <time>2016-05-06T06:41:42Z</time>
      </trkpt>
      <trkpt lat="42.52613" lon="1.46397">
        <ele>2116.567</ele>
        <time>2016-05-06T06:42:02Z</time>
      </trkpt>
      <trkpt lat="42.52607" lon="1.46371">
        <ele>2119.985</ele>
        <time>2016-05-06T06:42:22Z</time>
      </trkpt>
      <trkpt lat="42.52602" lon="1.46348">
        <ele>2122.791</ele>
        <time>2016-05-06T06:42:42Z</time>
      </trkpt>
      <trkpt lat="42.52599" lon="1.46335">
        <ele>2123.681</ele>
        <time>2016-05-06T06:43:02Z</time>
      </trkpt>
      <trkpt lat="42.52592" lon="1.46325">
        <ele>2121.919</ele>
        <time>2016-05-06T06:43:22Z</time>
      </trkpt>
      <trkpt lat="42.52585" lon="1.46315">
        <ele>2120.108</ele>
        <time>2016-05-06T06:43:42Z</time>
      </trkpt>
      <trkpt lat="42.52583" lon="1.46304">
        <ele>2121.04</ele>
        <time>2016-05-06T06:44:02Z</time>
      </trkpt>
      <trkpt lat="42.52577" lon="1.46293">
        <ele>2121.142</ele>
        <time>2016-05-06T06:44:22Z</time>
      </trkpt>
      <trkpt lat="42.52574" lon="1.46278">
        <ele>2122.82</ele>
        <time>2016-05-06T06:44:42Z</time>
      </trkpt>
      <trkpt lat="42.52567" lon="1.46268">
        <ele>2122.528</ele>
        <time>2016-05-06T06:45:02Z</time>
      </trkpt>
      <trkpt lat="42.52562" lon="1.46258">
        <ele>2123.186</ele>
        <time>2016-05-06T06:45:22Z</time>
      </trkpt>
      <trkpt lat="42.52552" lon="1.46249">
        <ele>2122.977</ele>
        <time>2016-05-06T06:45:42Z</time>
      </trkpt>
      <trkpt lat="42.52544" lon="1.46242">
        <ele>2123.855</ele>
        <time>2016-05-06T06:46:02Z</time>
      </trkpt>
      <trkpt lat="42.52534" lon="1.46233">
        <ele>2125.523</ele>
        <time>2016-05-06T06:46:22Z</time>
      </trkpt>
      <trkpt lat="42.52521" lon="1.46225">
        <ele>2127.131</ele>
        <time>2016-05-06T06:46:42Z</time>
      </trkpt>
      <trkpt lat="42.52513" lon="1.46219">
        <ele>2128.961</ele>
        <time>2016-05-06T06:47:02Z</time>
      </trkpt>
      <trkpt lat="42.52505" lon="1.46216">
        <ele>2130.207</ele>
        <time>2016-05-06T06:47:22Z</time>
      </trkpt>
      <trkpt lat="42.52484" lon="1.46217">
        <ele>2132.808</ele>
        <time>2016-05-06T06:47:42Z</time>
      </trkpt>
      <trkpt lat="42.5247" lon="1.46223">
        <ele>2133.334</ele>
        <time>2016-05-06T06:48:02Z</time>
      </trkpt>
      <trkpt lat="42.52453" lon="1.46233">
        <ele>2133.786</ele>
        <time>2016-05-06T06:48:22Z</time>
      </trkpt>
      <trkpt lat="42.52442" lon="1.46241">
        <ele>2133.114</ele>
        <time>2016-05-06T06:48:42Z</time>
      </trkpt>
      <trkpt lat="42.52427" lon="1.46245">
        <ele>2134.492</ele>
        <time>2016-05-06T06:49:02Z</time>
      </trkpt>
      <trkpt lat="42.52414" lon="1.46253">
        <ele>2133.62</ele>
        <time>2016-05-06T06:49:22Z</time>
      </trkpt>
      <trkpt lat="42.524" lon="1.46262">
        <ele>2133.641</ele>
        <time>2016-05-06T06:49:42Z</time>
      </trkpt>
      <trkpt lat="42.52388" lon="1.4627">
        <ele>2132.749</ele>
        <time>2016-05-06T06:50:02Z</time>
      </trkpt>
      <trkpt lat="42.52371" lon="1.46277">
        <ele>2132.737</ele>
        <time>2016-05-06T06:50:22Z</time>
      </trkpt>
      <trkpt lat="42.52347" lon="1.46282">
        <ele>2133.521</ele>
        <time>2016-05-06T06:50:42Z</time>
      </trkpt>
      <trkpt lat="42.52317" lon="1.46288">
        <ele>2134.841</ele>
        <time>2016-05-06T06:51:02Z</time>
      </trkpt>
      <trkpt lat="42.52307" lon="1.46294">
        <ele>2133.305</ele>
        <time>2016-05-06T06:51:22Z</time>
      </trkpt>
      <trkpt lat="42.52291" lon="1.46293">
        <ele>2134.808</ele>
        <time>2016-05-06T06:51:42Z</time>
      </trkpt>
      <trkpt lat="42.52274" lon="1.46297">
        <ele>2133.973</ele>
        <time>2016-05-06T06:52:02Z</time>
      </trkpt>
      <trkpt lat="42.52247" lon="1.46301">
        <ele>2131.985</ele>
        <time>2016-05-06T06:52:22Z</time>
      </trkpt>
      <trkpt lat="42.52235" lon="1.46293">
        <ele>2134.373</ele>
        <time>2016-05-06T06:52:42Z</time>
      </trkpt>
      <trkpt lat="42.5222" lon="1.46291">
        <ele>2134.281</ele>
        <time>2016-05-06T06:53:02Z</time>
      </trkpt>
      <trkpt lat="42.52202" lon="1.46287">
        <ele>2135.389</ele>
        <time>2016-05-06T06:53:22Z</time>
      </trkpt>
      <trkpt lat="42.52177" lon="1.46285">
        <ele>2135.38</ele>
        <time>2016-05-06T06:53:42Z</time>
      </trkpt>
      <trkpt lat="42.52154" lon="1.46285">
        <ele>2134.578</ele>
        <time>2016-05-06T06:54:02Z</time>
      </trkpt>
      <trkpt lat="42.52114" lon="1.46287">
        <ele>2132.726</ele>
        <time>2016-05-06T06:54:22Z</time>
      </trkpt>
      <trkpt lat="42.52103" lon="1.46285">
        <ele>2133.496</ele>
        <time>2016-05-06T06:54:42Z</time>
      </trkpt>
      <trkpt lat="42.52069" lon="1.46297">
        <ele>2130.431</ele>
        <time>2016-05-06T06:55:02Z</time>
      </trkpt>
      <trkpt lat="42.5204" lon="1.46301">
        <ele>2130.624</ele>
        <time>2016-05-06T06:55:22Z</time>
      </trkpt>
      <trkpt lat="42.52029" lon="1.46313">
        <ele>2128.408</ele>
        <time>2016-05-06T06:55:42Z</time>
      </trkpt>
      <trkpt lat="42.52017" lon="1.46324">
        <ele>2127.11</ele>
        <time>2016-05-06T06:56:02Z</time>
      </trkpt>
      <trkpt lat="42.52005" lon="1.4633">
        <ele>2126.442</ele>
        <time>2016-05-06T06:56:22Z</time>
      </trkpt>
      <trkpt lat="42.51987" lon="1.46335">
        <ele>2127.31</ele>
        <time>2016-05-06T06:56:42Z</time>
      </trkpt>
      <trkpt lat="42.51973" lon="1.46342">
        <ele>2127.558</ele>
        <time>2016-05-06T06:57:02Z</time>
      </trkpt>
      <trkpt lat="42.5196" lon="1.4635">
        <ele>2127.256</ele>
        <time>2016-05-06T06:57:22Z</time>
      </trkpt>
      <trkpt lat="42.51946" lon="1.46359">
        <ele>2128.137</ele>
        <time>2016-05-06T06:57:42Z</time>
      </trkpt>
      <trkpt lat="42.51931" lon="1.46365">
        <ele>2128.435</ele>
        <time>2016-05-06T06:58:02Z</time>
      </trkpt>
      <trkpt lat="42.51916" lon="1.46374">
        <ele>2128.253</ele>
        <time>2016-05-06T06:58:22Z</time>
      </trkpt>
      <trkpt lat="42.51905" lon="1.4638">
        <ele>2126.926</ele>
        <time>2016-05-06T06:58:42Z</time>
      </trkpt>
      <trkpt lat="42.51893" lon="1.46379">
        <ele>2127.247</ele>
        <time>2016-05-06T06:59:02Z</time>
      </trkpt>
      <trkpt lat="42.51882" lon="1.46382">
        <ele>2126.511</ele>
        <time>2016-05-06T06:59:22Z</time>
      </trkpt>
      <trkpt lat="42.5187" lon="1.46386">
        <ele>2125.608</ele>
        <time>2016-05-06T06:59:42Z</time>
      </trkpt>
      <trkpt lat="42.51856" lon="1.46396">
        <ele>2122.263</ele>
        <time>2016-05-06T07:00:02Z</time>
      </trkpt>
      <trkpt lat="42.51845" lon="1.46402">
        <ele>2120.275</ele>
        <time>2016-05-06T07:00:22Z</time>
      </trkpt>
      <trkpt lat="42.51837" lon="1.46408">
        <ele>2118.283</ele>
        <time>2016-05-06T07:00:42Z</time>
      </trkpt>
      <trkpt lat="42.51827" lon="1.46415">
        <ele>2114.721</ele>
        <time>2016-05-06T07:01:02Z</time>
      </trkpt>
      <trkpt lat="42.51817" lon="1.46421">
        <ele>2110.689</ele>
        <time>2016-05-06T07:01:22Z</time>
      </trkpt>
      <trkpt lat="42.51806" lon="1.46422">
        <ele>2108.32</ele>
        <time>2016-05-06T07:01:42Z</time>
      </trkpt>
      <trkpt lat="42.51798" lon="1.46416">
        <ele>2108.368</ele>
        <time>2016-05-06T07:02:02Z</time>
      </trkpt>
      <trkpt lat="42.51788" lon="1.46412">
        <ele>2105.316</ele>
        <time>2016-05-06T07:02:22Z</time>
      </trkpt>
      <trkpt lat="42.5178" lon="1.46413">
        <ele>2102.355</ele>
        <time>2016-05-06T07:02:42Z</time>
      </trkpt>
      <trkpt lat="42.51774" lon="1.46412">
        <ele>2100.507</ele>
        <time>2016-05-06T07:03:02Z</time>
      </trkpt>
      <trkpt lat="42.51763" lon="1.4641">
        <ele>2098.017</ele>
        <time>2016-05-06T07:03:22Z</time>
      </trkpt>
      <trkpt lat="42.51752" lon="1.46406">
        <ele>2095.208</ele>
        <time>2016-05-06T07:03:42Z</time>
      </trkpt>
      <trkpt lat="42.51738" lon="1.46408">
        <ele>2092.876</ele>
        <time>2016-05-06T07:04:02Z</time>
      </trkpt>
      <trkpt lat="42.51728" lon="1.46407">
        <ele>2091.228</ele>
        <time>2016-05-06T07:04:22Z</time>
      </trkpt>
      <trkpt lat="42.51713" lon="1.46409">
        <ele>2089.056</ele>
        <time>2016-05-06T07:04:42Z</time>
      </trkpt>
      <trkpt lat="42.51705" lon="1.46409">
        <ele>2088.044</ele>
        <time>2016-05-06T07:05:02Z</time>
      </trkpt>
      <trkpt lat="42.51692" lon="1.46415">
        <ele>2086.682</ele>
        <time>2016-05-06T07:05:22Z</time>
      </trkpt>
      <trkpt lat="42.51686" lon="1.46418">
        <ele>2085.623</ele>
        <time>2016-05-06T07:05:42Z</time>
      </trkpt>
      <trkpt lat="42.51674" lon="1.4642">
        <ele>2083.691</ele>
        <time>2016-05-06T07:06:02Z</time>
      </trkpt>
      <trkpt lat="42.5158" lon="1.46484">
        <ele>2085.919</ele>
        <time>2016-05-06T07:06:22Z</time>
      </trkpt>
      <trkpt lat="42.51506" lon="1.46491">
        <ele>2109.159</ele>
        <time>2016-05-06T07:06:42Z</time>
      </trkpt>
      <trkpt lat="42.51432" lon="1.46506">
        <ele>2135.203</ele>
        <time>2016-05-06T07:07:02Z</time>
      </trkpt>
      <trkpt lat="42.51392" lon="1.46519">
        <ele>2149.523</ele>
        <time>2016-05-06T07:07:22Z</time>
      </trkpt>
      <trkpt lat="42.51382" lon="1.46538">
        <ele>2155.408</ele>
        <time>2016-05-06T07:07:42Z</time>
      </trkpt>
      <trkpt lat="42.51352" lon="1.46528">
        <ele>2164.766</ele>
        <time>2016-05-06T07:08:02Z</time>
      </trkpt>
      <trkpt lat="42.51335" lon="1.46523">
        <ele>2167.178</ele>
        <time>2016-05-06T07:08:22Z</time>
      </trkpt>
      <trkpt lat="42.51297" lon="1.4653">
        <ele>2180.886</ele>
        <time>2016-05-06T07:08:42Z</time>
      </trkpt>
      <trkpt lat="42.5128" lon="1.46541">
        <ele>2187.074</ele>
        <time>2016-05-06T07:09:02Z</time>
      </trkpt>
      <trkpt lat="42.51271" lon="1.46554">
        <ele>2192.422</ele>
        <time>2016-05-06T07:09:22Z</time>
      </trkpt>
      <trkpt lat="42.51269" lon="1.46633">
        <ele>2212.553</ele>
        <time>2016-05-06T07:09:42Z</time>
      </trkpt>
      <trkpt lat="42.51249" lon="1.46677">
        <ele>2227.551</ele>
        <time>2016-05-06T07:10:02Z</time>
      </trkpt>
      <trkpt lat="42.51239" lon="1.46721">
        <ele>2238.669</ele>
        <time>2016-05-06T07:10:22Z</time>
      </trkpt>
      <trkpt lat="42.51214" lon="1.46788">
        <ele>2256.688</ele>
        <time>2016-05-06T07:10:42Z</time>
      </trkpt>
      <trkpt lat="42.51195" lon="1.46842">
        <ele>2268.024</ele>
        <time>2016-05-06T07:11:02Z</time>
      </trkpt>
      <trkpt lat="42.51184" lon="1.46898">
        <ele>2276.326</ele>
        <time>2016-05-06T07:11:22Z</time>
      </trkpt>
      <trkpt lat="42.51165" lon="1.46953">
        <ele>2288.308</ele>
        <time>2016-05-06T07:11:42Z</time>
      </trkpt>
      <trkpt lat="42.51147" lon="1.47001">
        <ele>2298.789</ele>
        <time>2016-05-06T07:12:02Z</time>
      </trkpt>
      <trkpt lat="42.51131" lon="1.47031">
        <ele>2307.671</ele>
        <time>2016-05-06T07:12:22Z</time>
      </trkpt>
      <trkpt lat="42.51121" lon="1.47064">
        <ele>2312.919</ele>
        <time>2016-05-06T07:12:42Z</time>
      </trkpt>
      <trkpt lat="42.51111" lon="1.47103">
        <ele>2319.437</ele>
        <time>2016-05-06T07:13:02Z</time>
      </trkpt>
      <trkpt lat="42.51111" lon="1.47161">
        <ele>2322.045</ele>
        <time>2016-05-06T07:13:22Z</time>
      </trkpt>
      <trkpt lat="42.51103" lon="1.4716">
        <ele>2322.016</ele>
        <time>2016-05-06T07:13:42Z</time>
      </trkpt>
      <trkpt lat="42.51088" lon="1.47124">
        <ele>2330.544</ele>
        <time>2016-05-06T07:14:02Z</time>
      </trkpt>
      <trkpt lat="42.51073" lon="1.471">
        <ele>2327.742</ele>
        <time>2016-05-06T07:14:22Z</time>
      </trkpt>
      <trkpt lat="42.51061" lon="1.4707">
        <ele>2332.742</ele>
        <time>2016-05-06T07:14:42Z</time>
      </trkpt>
      <trkpt lat="42.51056" lon="1.4705">
        <ele>2340.122</ele>
        <time>2016-05-06T07:15:02Z</time>
      </trkpt>
      <trkpt lat="42.51051" lon="1.47026">
        <ele>2343.114</ele>
        <time>2016-05-06T07:15:22Z</time>
      </trkpt>
      <trkpt lat="42.51048" lon="1.47009">
        <ele>2344.808</ele>
        <time>2016-05-06T07:15:42Z</time>
      </trkpt>
      <trkpt lat="42.51047" lon="1.46994">
        <ele>2347.075</ele>
        <time>2016-05-06T07:16:02Z</time>
      </trkpt>
      <trkpt lat="42.51047" lon="1.46977">
        <ele>2348.947</ele>
        <time>2016-05-06T07:16:22Z</time>
      </trkpt>
      <trkpt lat="42.5105" lon="1.46962">
        <ele>2351.155</ele>
        <time>2016-05-06T07:16:42Z</time>
      </trkpt>
      <trkpt lat="42.51052" lon="1.46952">
        <ele>2352.453</ele>
        <time>2016-05-06T07:17:02Z</time>
      </trkpt>
      <trkpt lat="42.51053" lon="1.46941">
        <ele>2353.611</ele>
        <time>2016-05-06T07:17:22Z</time>
      </trkpt>
      <trkpt lat="42.51048" lon="1.46926">
        <ele>2355.932</ele>
        <time>2016-05-06T07:17:42Z</time>
      </trkpt>
      <trkpt lat="42.51045" lon="1.46912">
        <ele>2358.33</ele>
        <time>2016-05-06T07:18:02Z</time>
      </trkpt>
      <trkpt lat="42.51038" lon="1.46902">
        <ele>2361.758</ele>
        <time>2016-05-06T07:18:22Z</time>
      </trkpt>
      <trkpt lat="42.51031" lon="1.46886">
        <ele>2366.253</ele>
        <time>2016-05-06T07:18:42Z</time>
      </trkpt>
      <trkpt lat="42.51023" lon="1.46867">
        <ele>2367.204</ele>
        <time>2016-05-06T07:19:02Z</time>
      </trkpt>
      <trkpt lat="42.51014" lon="1.46846">
        <ele>2369.314</ele>
        <time>2016-05-06T07:19:22Z</time>
      </trkpt>
      <trkpt lat="42.51008" lon="1.46828">
        <ele>2372.408</ele>
        <time>2016-05-06T07:19:42Z</time>
      </trkpt>
      <trkpt lat="42.51008" lon="1.4681">
        <ele>2371.346</ele>
        <time>2016-05-06T07:20:02Z</time>
      </trkpt>
      <trkpt lat="42.50996" lon="1.46793">
        <ele>2371.728</ele>
        <time>2016-05-06T07:20:22Z</time>
      </trkpt>
      <trkpt lat="42.50974" lon="1.4674">
        <ele>2366.346</ele>
        <time>2016-05-06T07:20:42Z</time>
      </trkpt>
      <trkpt lat="42.50937" lon="1.46697">
        <ele>2354.484</ele>
        <time>2016-05-06T07:21:02Z</time>
      </trkpt>
      <trkpt lat="42.50904" lon="1.46644">
        <ele>2341.662</ele>
        <time>2016-05-06T07:21:22Z</time>
      </trkpt>
      <trkpt lat="42.50865" lon="1.46577">
        <ele>2342.653</ele>
        <time>2016-05-06T07:21:42Z</time>
      </trkpt>
      <trkpt lat="42.50835" lon="1.46551">
        <ele>2346.671</ele>
        <time>2016-05-06T07:22:02Z</time>
      </trkpt>
      <trkpt lat="42.50824" lon="1.46528">
        <ele>2341.769</ele>
        <time>2016-05-06T07:22:22Z</time>
      </trkpt>
      <trkpt lat="42.50819" lon="1.46514">
        <ele>2342.841</ele>
        <time>2016-05-06T07:22:42Z</time>
      </trkpt>
      <trkpt lat="42.50785" lon="1.46478">
        <ele>2353.281</ele>
        <time>2016-05-06T07:23:02Z</time>
      </trkpt>
      <trkpt lat="42.50772" lon="1.46455">
        <ele>2353.709</ele>
        <time>2016-05-06T07:23:22Z</time>
      </trkpt>
      <trkpt lat="42.50756" lon="1.46425">
        <ele>2356.008</ele>
        <time>2016-05-06T07:23:42Z</time>
      </trkpt>
      <trkpt lat="42.50718" lon="1.46348">
        <ele>2355.575</ele>
        <time>2016-05-06T07:24:02Z</time>
      </trkpt>
      <trkpt lat="42.50701" lon="1.46327">
        <ele>2356.347</ele>
        <time>2016-05-06T07:24:22Z</time>
      </trkpt>
      <trkpt lat="42.5068" lon="1.46288">
        <ele>2365.695</ele>
        <time>2016-05-06T07:24:42Z</time>
      </trkpt>
      <trkpt lat="42.50658" lon="1.46261">
        <ele>2370.533</ele>
        <time>2016-05-06T07:25:02Z</time>
      </trkpt>
      <trkpt lat="42.50644" lon="1.46244">
        <ele>2373.731</ele>
        <time>2016-05-06T07:25:22Z</time>
      </trkpt>
      <trkpt lat="42.50627" lon="1.46218">
        <ele>2370.472</ele>
        <time>2016-05-06T07:25:42Z</time>
      </trkpt>
      <trkpt lat="42.50584" lon="1.46138">
        <ele>2379.91</ele>
        <time>2016-05-06T07:26:02Z</time>
      </trkpt>
      <trkpt lat="42.50559" lon="1.4609">
        <ele>2388.398</ele>
        <time>2016-05-06T07:26:22Z</time>
      </trkpt>
      <trkpt lat="42.50551" lon="1.46081">
        <ele>2391.356</ele>
        <time>2016-05-06T07:26:42Z</time>
      </trkpt>
      <trkpt lat="42.50543" lon="1.46073">
        <ele>2390.859</ele>
        <time>2016-05-06T07:27:02Z</time>
      </trkpt>
      <trkpt lat="42.50515" lon="1.46051">
        <ele>2394.814</ele>
        <time>2016-05-06T07:27:22Z</time>
      </trkpt>
      <trkpt lat="42.50501" lon="1.46059">
        <ele>2395.208</ele>
        <time>2016-05-06T07:27:42Z</time>
      </trkpt>
      <trkpt lat="42.50483" lon="1.46038">
        <ele>2394.696</ele>
        <time>2016-05-06T07:28:02Z</time>
      </trkpt>
      <trkpt lat="42.5047" lon="1.46024">
        <ele>2396.138</ele>
        <time>2016-05-06T07:28:22Z</time>
      </trkpt>
      <trkpt lat="42.50463" lon="1.46012">
        <ele>2389.536</ele>
        <time>2016-05-06T07:28:42Z</time>
      </trkpt>
      <trkpt lat="42.50458" lon="1.45989">
        <ele>2375.254</ele>
        <time>2016-05-06T07:29:02Z</time>
      </trkpt>
      <trkpt lat="42.50458" lon="1.45973">
        <ele>2364.422</ele>
        <time>2016-05-06T07:29:22Z</time>
      </trkpt>
      <trkpt lat="42.50455" lon="1.45958">
        <ele>2361.483</ele>
        <time>2016-05-06T07:29:42Z</time>
      </trkpt>
      <trkpt lat="42.50453" lon="1.4594">
        <ele>2359.091</ele>
        <time>2016-05-06T07:30:02Z</time>
      </trkpt>
      <trkpt lat="42.50449" lon="1.45934">
        <ele>2359.049</ele>
        <time>2016-05-06T07:30:22Z</time>
      </trkpt>
      <trkpt lat="42.50441" lon="1.45942">
        <ele>2358.238</ele>
        <time>2016-05-06T07:30:42Z</time>
      </trkpt>
      <trkpt lat="42.50438" lon="1.45953">
        <ele>2355.87</ele>
        <time>2016-05-06T07:31:02Z</time>
      </trkpt>
      <trkpt lat="42.50434" lon="1.45958">
        <ele>2352.617</ele>
        <time>2016-05-06T07:31:22Z</time>
      </trkpt>
      <trkpt lat="42.50428" lon="1.45967">
        <ele>2346.608</ele>
        <time>2016-05-06T07:31:42Z</time>
      </trkpt>
      <trkpt lat="42.50423" lon="1.45977">
        <ele>2343.814</ele>
        <time>2016-05-06T07:32:02Z</time>
      </trkpt>
      <trkpt lat="42.50417" lon="1.45986">
        <ele>2343.956</ele>
        <time>2016-05-06T07:32:22Z</time>
      </trkpt>
      <trkpt lat="42.50412" lon="1.45994">
        <ele>2345.634</ele>
        <time>2016-05-06T07:32:42Z</time>
      </trkpt>
      <trkpt lat="42.50406" lon="1.45999">
        <ele>2344.342</ele>
        <time>2016-05-06T07:33:02Z</time>
      </trkpt>
      <trkpt lat="42.50402" lon="1.46012">
        <ele>2348.16</ele>
        <time>2016-05-06T07:33:22Z</time>
      </trkpt>
      <trkpt lat="42.50395" lon="1.46016">
        <ele>2344.751</ele>
        <time>2016-05-06T07:33:42Z</time>
      </trkpt>
      <trkpt lat="42.50389" lon="1.46019">
        <ele>2340.099</ele>
        <time>2016-05-06T07:34:02Z</time>
      </trkpt>
      <trkpt lat="42.50383" lon="1.46025">
        <ele>2339.487</ele>
        <time>2016-05-06T07:34:22Z</time>
      </trkpt>
      <trkpt lat="42.50378" lon="1.46031">
        <ele>2337.695</ele>
        <time>2016-05-06T07:34:42Z</time>
      </trkpt>
      <trkpt lat="42.50373" lon="1.4604">
        <ele>2336.849</ele>
        <time>2016-05-06T07:35:02Z</time>
      </trkpt>
      <trkpt lat="42.50367" lon="1.46048">
        <ele>2334.123</ele>
        <time>2016-05-06T07:35:22Z</time>
      </trkpt>
      <trkpt lat="42.50361" lon="1.46051">
        <ele>2330.208</ele>
        <time>2016-05-06T07:35:42Z</time>
      </trkpt>
      <trkpt lat="42.50361" lon="1.4606">
        <ele>2329.94</ele>
        <time>2016-05-06T07:36:02Z</time>
      </trkpt>
      <trkpt lat="42.50361" lon="1.46069">
        <ele>2328.742</ele>
        <time>2016-05-06T07:36:22Z</time>
      </trkpt>
      <trkpt lat="42.50355" lon="1.46071">
        <ele>2324.23</ele>
        <time>2016-05-06T07:36:42Z</time>
      </trkpt>
      <trkpt lat="42.50352" lon="1.46072">
        <ele>2321.698</ele>
        <time>2016-05-06T07:37:02Z</time>
      </trkpt>
      <trkpt lat="42.50352" lon="1.46083">
        <ele>2320.656</ele>
        <time>2016-05-06T07:37:22Z</time>
      </trkpt>
      <trkpt lat="42.50347" lon="1.46087">
        <ele>2316.637</ele>
        <time>2016-05-06T07:37:42Z</time>
      </trkpt>
      <trkpt lat="42.50345" lon="1.46093">
        <ele>2313.495</ele>
        <time>2016-05-06T07:38:02Z</time>
      </trkpt>
      <trkpt lat="42.50341" lon="1.46104">
        <ele>2309.143</ele>
        <time>2016-05-06T07:38:22Z</time>
      </trkpt>
      <trkpt lat="42.5034" lon="1.46121">
        <ele>2305.727</ele>
        <time>2016-05-06T07:38:42Z</time>
      </trkpt>
      <trkpt lat="42.50336" lon="1.46132">
        <ele>2301.068</ele>
        <time>2016-05-06T07:39:02Z</time>
      </trkpt>
      <trkpt lat="42.50336" lon="1.46139">
        <ele>2300.114</ele>
        <time>2016-05-06T07:39:22Z</time>
      </trkpt>
      <trkpt lat="42.50336" lon="1.46148">
        <ele>2299.608</ele>
        <time>2016-05-06T07:39:42Z</time>
      </trkpt>
      <trkpt lat="42.50336" lon="1.46152">
        <ele>2299.753</ele>
        <time>2016-05-06T07:40:02Z</time>
      </trkpt>
      <trkpt lat="42.50335" lon="1.46157">
        <ele>2298.275</ele>
        <time>2016-05-06T07:40:22Z</time>
      </trkpt>
      <trkpt lat="42.50333" lon="1.46162">
        <ele>2297.033</ele>
        <time>2016-05-06T07:40:42Z</time>
      </trkpt>
      <trkpt lat="42.50332" lon="1.46167">
        <ele>2296.291</ele>
        <time>2016-05-06T07:41:02Z</time>
      </trkpt>
      <trkpt lat="42.50332" lon="1.46172">
        <ele>2293.249</ele>
        <time>2016-05-06T07:41:22Z</time>
      </trkpt>
      <trkpt lat="42.50331" lon="1.46176">
        <ele>2291.28</ele>
        <time>2016-05-06T07:41:42Z</time>
      </trkpt>
      <trkpt lat="42.50331" lon="1.46183">
        <ele>2287.228</ele>
        <time>2016-05-06T07:42:02Z</time>
      </trkpt>
      <trkpt lat="42.5033" lon="1.46192">
        <ele>2282.576</ele>
        <time>2016-05-06T07:42:22Z</time>
      </trkpt>
      <trkpt lat="42.50332" lon="1.46205">
        <ele>2275.927</ele>
        <time>2016-05-06T07:42:42Z</time>
      </trkpt>
      <trkpt lat="42.50331" lon="1.46211">
        <ele>2272.868</ele>
        <time>2016-05-06T07:43:02Z</time>
      </trkpt>
      <trkpt lat="42.5033" lon="1.46216">
        <ele>2269.914</ele>
        <time>2016-05-06T07:43:22Z</time>
      </trkpt>
      <trkpt lat="42.5033" lon="1.46221">
        <ele>2267.708</ele>
        <time>2016-05-06T07:43:42Z</time>
      </trkpt>
      <trkpt lat="42.5033" lon="1.46227">
        <ele>2264.193</ele>
        <time>2016-05-06T07:44:02Z</time>
      </trkpt>
      <trkpt lat="42.50329" lon="1.46232">
        <ele>2261.215</ele>
        <time>2016-05-06T07:44:22Z</time>
      </trkpt>
      <trkpt lat="42.50329" lon="1.46236">
        <ele>2258.933</ele>
        <time>2016-05-06T07:44:42Z</time>
      </trkpt>
      <trkpt lat="42.50329" lon="1.46243">
        <ele>2254.931</ele>
        <time>2016-05-06T07:45:02Z</time>
      </trkpt>
      <trkpt lat="42.50329" lon="1.4625">
        <ele>2251.069</ele>
        <time>2016-05-06T07:45:22Z</time>
      </trkpt>
      <trkpt lat="42.5033" lon="1.46256">
        <ele>2246.25</ele>
        <time>2016-05-06T07:45:42Z</time>
      </trkpt>
      <trkpt lat="42.5033" lon="1.46262">
        <ele>2242.438</ele>
        <time>2016-05-06T07:46:02Z</time>
      </trkpt>
      <trkpt lat="42.50329" lon="1.4627">
        <ele>2237.036</ele>
        <time>2016-05-06T07:46:22Z</time>
      </trkpt>
      <trkpt lat="42.50327" lon="1.46276">
        <ele>2233.673</ele>
        <time>2016-05-06T07:46:42Z</time>
      </trkpt>
      <trkpt lat="42.5033" lon="1.463">
        <ele>2216.885</ele>
        <time>2016-05-06T07:47:02Z</time>
      </trkpt>
      <trkpt lat="42.50333" lon="1.46312">
        <ele>2208.113</ele>
        <time>2016-05-06T07:47:22Z</time>
      </trkpt>
      <trkpt lat="42.50338" lon="1.46331">
        <ele>2198.908</ele>
        <time>2016-05-06T07:47:42Z</time>
      </trkpt>
      <trkpt lat="42.50338" lon="1.46333">
        <ele>2197.378</ele>
        <time>2016-05-06T07:48:02Z</time>
      </trkpt>
      <trkpt lat="42.50336" lon="1.46337">
        <ele>2195.55</ele>
        <time>2016-05-06T07:48:22Z</time>
      </trkpt>
      <trkpt lat="42.50335" lon="1.46339">
        <ele>2194.468</ele>
        <time>2016-05-06T07:48:42Z</time>
      </trkpt>
      <trkpt lat="42.50334" lon="1.46344">
        <ele>2191.916</ele>
        <time>2016-05-06T07:49:02Z</time>
      </trkpt>
      <trkpt lat="42.50332" lon="1.4635">
        <ele>2190.114</ele>
        <time>2016-05-06T07:49:22Z</time>
      </trkpt>
      <trkpt lat="42.50329" lon="1.46354">
        <ele>2189.915</ele>
        <time>2016-05-06T07:49:42Z</time>
      </trkpt>
      <trkpt lat="42.50326" lon="1.46359">
        <ele>2189.013</ele>
        <time>2016-05-06T07:50:02Z</time>
      </trkpt>
      <trkpt lat="42.50319" lon="1.46361">
        <ele>2190.951</ele>
        <time>2016-05-06T07:50:22Z</time>
      </trkpt>
      <trkpt lat="42.50313" lon="1.46361">
        <ele>2193.411</ele>
        <time>2016-05-06T07:50:42Z</time>
      </trkpt>
      <trkpt lat="42.50308" lon="1.46362">
        <ele>2195.321</ele>
        <time>2016-05-06T07:51:02Z</time>
      </trkpt>
      <trkpt lat="42.50302" lon="1.4636">
        <ele>2199.403</ele>
        <time>2016-05-06T07:51:22Z</time>
      </trkpt>
      <trkpt lat="42.50296" lon="1.46359">
        <ele>2202.008</ele>
        <time>2016-05-06T07:51:42Z</time>
      </trkpt>
      <trkpt lat="42.50292" lon="1.46363">
        <ele>2200.462</ele>
        <time>2016-05-06T07:52:02Z</time>
      </trkpt>
      <trkpt lat="42.50285" lon="1.46362">
        <ele>2203.974</ele>
        <time>2016-05-06T07:52:22Z</time>
      </trkpt>
      <trkpt lat="42.50281" lon="1.46362">
        <ele>2205.512</ele>
        <time>2016-05-06T07:52:42Z</time>
      </trkpt>
      <trkpt lat="42.50277" lon="1.4636">
        <ele>2208.27</ele>
        <time>2016-05-06T07:53:02Z</time>
      </trkpt>
      <trkpt lat="42.5027" lon="1.4636">
        <ele>2211.418</ele>
        <time>2016-05-06T07:53:22Z</time>
      </trkpt>
      <trkpt lat="42.50266" lon="1.46361">
        <ele>2212.959</ele>
        <time>2016-05-06T07:53:42Z</time>
      </trkpt>
      <trkpt lat="42.50257" lon="1.46367">
        <ele>2214.687</ele>
        <time>2016-05-06T07:54:02Z</time>
      </trkpt>
      <trkpt lat="42.50255" lon="1.4637">
        <ele>2214.265</ele>
        <time>2016-05-06T07:54:22Z</time>
      </trkpt>
      <trkpt lat="42.50251" lon="1.46373">
        <ele>2214.833</ele>
        <time>2016-05-06T07:54:42Z</time>
      </trkpt>
      <trkpt lat="42.50247" lon="1.46376">
        <ele>2215.023</ele>
        <time>2016-05-06T07:55:02Z</time>
      </trkpt>
      <trkpt lat="42.50242" lon="1.46379">
        <ele>2215.115</ele>
        <time>2016-05-06T07:55:22Z</time>
      </trkpt>
      <trkpt lat="42.50238" lon="1.46382">
        <ele>2215.208</ele>
        <time>2016-05-06T07:55:42Z</time>
      </trkpt>
      <trkpt lat="42.50233" lon="1.46387">
        <ele>2214.714</ele>
        <time>2016-05-06T07:56:02Z</time>
      </trkpt>
      <trkpt lat="42.50229" lon="1.46391">
        <ele>2214.436</ele>
        <time>2016-05-06T07:56:22Z</time>
      </trkpt>
      <trkpt lat="42.50225" lon="1.46393">
        <ele>2214.494</ele>
        <time>2016-05-06T07:56:42Z</time>
      </trkpt>
      <trkpt lat="42.50221" lon="1.46399">
        <ele>2213.062</ele>
        <time>2016-05-06T07:57:02Z</time>
      </trkpt>
      <trkpt lat="42.50217" lon="1.46404">
        <ele>2211.83</ele>
        <time>2016-05-06T07:57:22Z</time>
      </trkpt>
      <trkpt lat="42.50212" lon="1.46403">
        <ele>2213.951</ele>
        <time>2016-05-06T07:57:42Z</time>
      </trkpt>
      <trkpt lat="42.50206" lon="1.46404">
        <ele>2214.999</ele>
        <time>2016-05-06T07:58:02Z</time>
      </trkpt>
      <trkpt lat="42.50203" lon="1.46407">
        <ele>2215.137</ele>
        <time>2016-05-06T07:58:22Z</time>
      </trkpt>
      <trkpt lat="42.50196" lon="1.46408">
        <ele>2217.229</ele>
        <time>2016-05-06T07:58:42Z</time>
      </trkpt>
      <trkpt lat="42.50188" lon="1.46408">
        <ele>2219.3</ele>
        <time>2016-05-06T07:59:02Z</time>
      </trkpt>
      <trkpt lat="42.50174" lon="1.46399">
        <ele>2222.82</ele>
        <time>2016-05-06T07:59:22Z</time>
      </trkpt>
      <trkpt lat="42.50167" lon="1.464">
        <ele>2223.508</ele>
        <time>2016-05-06T07:59:42Z</time>
      </trkpt>
      <trkpt lat="42.50156" lon="1.46398">
        <ele>2218.733</ele>
        <time>2016-05-06T08:00:02Z</time>
      </trkpt>
      <trkpt lat="42.50136" lon="1.464">
        <ele>2210.555</ele>
        <time>2016-05-06T08:00:22Z</time>
      </trkpt>
      <trkpt lat="42.50118" lon="1.46403">
        <ele>2203.743</ele>
        <time>2016-05-06T08:00:42Z</time>
      </trkpt>
      <trkpt lat="42.50096" lon="1.46411">
        <ele>2196.291</ele>
        <time>2016-05-06T08:01:02Z</time>
      </trkpt>
      <trkpt lat="42.50073" lon="1.46412">
        <ele>2186.059</ele>
        <time>2016-05-06T08:01:22Z</time>
      </trkpt>
      <trkpt lat="42.50056" lon="1.46428">
        <ele>2186.48</ele>
        <time>2016-05-06T08:01:42Z</time>
      </trkpt>
      <trkpt lat="42.50034" lon="1.46445">
        <ele>2188.358</ele>
        <time>2016-05-06T08:02:02Z</time>
      </trkpt>
      <trkpt lat="42.5001" lon="1.46459">
        <ele>2192.316</ele>
        <time>2016-05-06T08:02:22Z</time>
      </trkpt>
      <trkpt lat="42.49985" lon="1.46478">
        <ele>2201.623</ele>
        <time>2016-05-06T08:02:42Z</time>
      </trkpt>
      <trkpt lat="42.49971" lon="1.46498">
        <ele>2211.683</ele>
        <time>2016-05-06T08:03:02Z</time>
      </trkpt>
      <trkpt lat="42.49962" lon="1.46506">
        <ele>2212.311</ele>
        <time>2016-05-06T08:03:22Z</time>
      </trkpt>
      <trkpt lat="42.49956" lon="1.46513">
        <ele>2212.608</ele>
        <time>2016-05-06T08:03:42Z</time>
      </trkpt>
      <trkpt lat="42.49951" lon="1.46525">
        <ele>2213.583</ele>
        <time>2016-05-06T08:04:02Z</time>
      </trkpt>
      <trkpt lat="42.49945" lon="1.46535">
        <ele>2210.315</ele>
        <time>2016-05-06T08:04:22Z</time>
      </trkpt>
      <trkpt lat="42.49946" lon="1.46557">
        <ele>2210.093</ele>
        <time>2016-05-06T08:04:42Z</time>
      </trkpt>
      <trkpt lat="42.49934" lon="1.46565">
        <ele>2201.291</ele>
        <time>2016-05-06T08:05:02Z</time>
      </trkpt>
      <trkpt lat="42.49926" lon="1.46576">
        <ele>2195.179</ele>
        <time>2016-05-06T08:05:22Z</time>
      </trkpt>
      <trkpt lat="42.49921" lon="1.46592">
        <ele>2191.75</ele>
        <time>2016-05-06T08:05:42Z</time>
      </trkpt>
      <trkpt lat="42.49919" lon="1.46612">
        <ele>2191.748</ele>
        <time>2016-05-06T08:06:02Z</time>
      </trkpt>
      <trkpt lat="42.49912" lon="1.46633">
        <ele>2188.266</ele>
        <time>2016-05-06T08:06:22Z</time>
      </trkpt>
      <trkpt lat="42.4991" lon="1.46639">
        <ele>2187.598</ele>
        <time>2016-05-06T08:06:42Z</time>
      </trkpt>
      <trkpt lat="42.49914" lon="1.4665">
        <ele>2189.115</ele>
        <time>2016-05-06T08:07:02Z</time>
      </trkpt>
      <trkpt lat="42.49906" lon="1.46671">
        <ele>2184.126</ele>
        <time>2016-05-06T08:07:22Z</time>
      </trkpt>
      <trkpt lat="42.49903" lon="1.4669">
        <ele>2181.408</ele>
        <time>2016-05-06T08:07:42Z</time>
      </trkpt>
      <trkpt lat="42.49896" lon="1.467">
        <ele>2180.16</ele>
        <time>2016-05-06T08:08:02Z</time>
      </trkpt>
      <trkpt lat="42.49889" lon="1.46705">
        <ele>2180.692</ele>
        <time>2016-05-06T08:08:22Z</time>
      </trkpt>
      <trkpt lat="42.49884" lon="1.46711">
        <ele>2178.07</ele>
        <time>2016-05-06T08:08:42Z</time>
      </trkpt>
      <trkpt lat="42.49881" lon="1.46723">
        <ele>2177.158</ele>
        <time>2016-05-06T08:09:02Z</time>
      </trkpt>
      <trkpt lat="42.49877" lon="1.46734">
        <ele>2175.146</ele>
        <time>2016-05-06T08:09:22Z</time>
      </trkpt>
      <trkpt lat="42.4987" lon="1.46743">
        <ele>2174.367</ele>
        <time>2016-05-06T08:09:42Z</time>
      </trkpt>
      <trkpt lat="42.49863" lon="1.46746">
        <ele>2174.475</ele>
        <time>2016-05-06T08:10:02Z</time>
      </trkpt>
      <trkpt lat="42.49858" lon="1.46746">
        <ele>2172.133</ele>
        <time>2016-05-06T08:10:22Z</time>
      </trkpt>
      <trkpt lat="42.49854" lon="1.46744">
        <ele>2169.192</ele>
        <time>2016-05-06T08:10:42Z</time>
      </trkpt>
      <trkpt lat="42.49848" lon="1.46745">
        <ele>2165.573</ele>
        <time>2016-05-06T08:11:02Z</time>
      </trkpt>
      <trkpt lat="42.49824" lon="1.46759">
        <ele>2150.92</ele>
        <time>2016-05-06T08:11:22Z</time>
      </trkpt>
      <trkpt lat="42.49813" lon="1.4676">
        <ele>2143.208</ele>
        <time>2016-05-06T08:11:42Z</time>
      </trkpt>
      <trkpt lat="42.49801" lon="1.46764">
        <ele>2135.66</ele>
        <time>2016-05-06T08:12:02Z</time>
      </trkpt>
      <trkpt lat="42.49793" lon="1.46766">
        <ele>2130.322</ele>
        <time>2016-05-06T08:12:22Z</time>
      </trkpt>
      <trkpt lat="42.49781" lon="1.46777">
        <ele>2123.67</ele>
        <time>2016-05-06T08:12:42Z</time>
      </trkpt>
      <trkpt lat="42.49771" lon="1.46781">
        <ele>2116.118</ele>
        <time>2016-05-06T08:13:02Z</time>
      </trkpt>
      <trkpt lat="42.49768" lon="1.46813">
        <ele>2109.456</ele>
        <time>2016-05-06T08:13:22Z</time>
      </trkpt>
      <trkpt lat="42.49764" lon="1.46832">
        <ele>2103.827</ele>
        <time>2016-05-06T08:13:42Z</time>
      </trkpt>
      <trkpt lat="42.49766" lon="1.46873">
        <ele>2103.715</ele>
        <time>2016-05-06T08:14:02Z</time>
      </trkpt>
      <trkpt lat="42.4976" lon="1.46899">
        <ele>2099.643</ele>
        <time>2016-05-06T08:14:22Z</time>
      </trkpt>
      <trkpt lat="42.49757" lon="1.46919">
        <ele>2098.725</ele>
        <time>2016-05-06T08:14:42Z</time>
      </trkpt>
      <trkpt lat="42.4975" lon="1.4693">
        <ele>2097.826</ele>
        <time>2016-05-06T08:15:02Z</time>
      </trkpt>
      <trkpt lat="42.49736" lon="1.46928">
        <ele>2090.008</ele>
        <time>2016-05-06T08:15:22Z</time>
      </trkpt>
      <trkpt lat="42.49726" lon="1.46924">
        <ele>2083.508</ele>
        <time>2016-05-06T08:15:42Z</time>
      </trkpt>
      <trkpt lat="42.49708" lon="1.46924">
        <ele>2075.443</ele>
        <time>2016-05-06T08:16:02Z</time>
      </trkpt>
      <trkpt lat="42.49697" lon="1.46917">
        <ele>2067.085</ele>
        <time>2016-05-06T08:16:22Z</time>
      </trkpt>
      <trkpt lat="42.49684" lon="1.46913">
        <ele>2060.583</ele>
        <time>2016-05-06T08:16:42Z</time>
      </trkpt>
      <trkpt lat="42.49688" lon="1.46892">
        <ele>2052.721</ele>
        <time>2016-05-06T08:17:02Z</time>
      </trkpt>
      <trkpt lat="42.49677" lon="1.46882">
        <ele>2043.829</ele>
        <time>2016-05-06T08:17:22Z</time>
      </trkpt>
      <trkpt lat="42.49664" lon="1.46875">
        <ele>2034.37</ele>
        <time>2016-05-06T08:17:42Z</time>
      </trkpt>
      <trkpt lat="42.49662" lon="1.46857">
        <ele>2026.118</ele>
        <time>2016-05-06T08:18:02Z</time>
      </trkpt>
      <trkpt lat="42.49655" lon="1.46849">
        <ele>2018.926</ele>
        <time>2016-05-06T08:18:22Z</time>
      </trkpt>
      <trkpt lat="42.49656" lon="1.46832">
        <ele>2013.799</ele>
        <time>2016-05-06T08:18:42Z</time>
      </trkpt>
      <trkpt lat="42.49642" lon="1.46839">
        <ele>2005.407</ele>
        <time>2016-05-06T08:19:02Z</time>
      </trkpt>
      <trkpt lat="42.49635" lon="1.46833">
        <ele>1998.927</ele>
        <time>2016-05-06T08:19:22Z</time>
      </trkpt>
      <trkpt lat="42.49619" lon="1.46845">
        <ele>1996.308</ele>
        <time>2016-05-06T08:19:42Z</time>
      </trkpt>
      <trkpt lat="42.49607" lon="1.46837">
        <ele>1987.69</ele>
        <time>2016-05-06T08:20:02Z</time>
      </trkpt>
      <trkpt lat="42.4959" lon="1.46843">
        <ele>1982.192</ele>
        <time>2016-05-06T08:20:22Z</time>
      </trkpt>
      <trkpt lat="42.49579" lon="1.46843">
        <ele>1975.86</ele>
        <time>2016-05-06T08:20:42Z</time>
      </trkpt>
      <trkpt lat="42.49574" lon="1.46837">
        <ele>1970.178</ele>
        <time>2016-05-06T08:21:02Z</time>
      </trkpt>
      <trkpt lat="42.49569" lon="1.4683">
        <ele>1963.786</ele>
        <time>2016-05-06T08:21:22Z</time>
      </trkpt>
      <trkpt lat="42.4957" lon="1.4682">
        <ele>1960.257</ele>
        <time>2016-05-06T08:21:42Z</time>
      </trkpt>
      <trkpt lat="42.49566" lon="1.46801">
        <ele>1950.125</ele>
        <time>2016-05-06T08:22:02Z</time>
      </trkpt>
      <trkpt lat="42.4956" lon="1.46796">
        <ele>1944.553</ele>
        <time>2016-05-06T08:22:22Z</time>
      </trkpt>
      <trkpt lat="42.49556" lon="1.46786">
        <ele>1938.721</ele>
        <time>2016-05-06T08:22:42Z</time>
      </trkpt>
      <trkpt lat="42.49546" lon="1.46786">
        <ele>1932.741</ele>
        <time>2016-05-06T08:23:02Z</time>
      </trkpt>
      <trkpt lat="42.49534" lon="1.46796">
        <ele>1929.905</ele>
        <time>2016-05-06T08:23:22Z</time>
      </trkpt>
      <trkpt lat="42.49524" lon="1.468">
        <ele>1926.308</ele>
        <time>2016-05-06T08:23:42Z</time>
      </trkpt>
      <trkpt lat="42.49512" lon="1.46798">
        <ele>1920.973</ele>
        <time>2016-05-06T08:24:02Z</time>
      </trkpt>
      <trkpt lat="42.495" lon="1.46799">
        <ele>1916.565</ele>
        <time>2016-05-06T08:24:22Z</time>
      </trkpt>
      <trkpt lat="42.4949" lon="1.46792">
        <ele>1910.773</ele>
        <time>2016-05-06T08:24:42Z</time>
      </trkpt>
      <trkpt lat="42.49478" lon="1.46791">
        <ele>1908.221</ele>
        <time>2016-05-06T08:25:02Z</time>
      </trkpt>
      <trkpt lat="42.49466" lon="1.46795">
        <ele>1908.939</ele>
        <time>2016-05-06T08:25:22Z</time>
      </trkpt>
      <trkpt lat="42.49444" lon="1.46794">
        <ele>1906.23</ele>
        <time>2016-05-06T08:25:42Z</time>
      </trkpt>
      <trkpt lat="42.49426" lon="1.46793">
        <ele>1899.638</ele>
        <time>2016-05-06T08:26:02Z</time>
      </trkpt>
      <trkpt lat="42.49415" lon="1.468">
        <ele>1899.876</ele>
        <time>2016-05-06T08:26:22Z</time>
      </trkpt>
      <trkpt lat="42.49405" lon="1.4681">
        <ele>1900.495</ele>
        <time>2016-05-06T08:26:42Z</time>
      </trkpt>
      <trkpt lat="42.49389" lon="1.46815">
        <ele>1893.649</ele>
        <time>2016-05-06T08:27:02Z</time>
      </trkpt>
      <trkpt lat="42.49375" lon="1.46823">
        <ele>1888.723</ele>
        <time>2016-05-06T08:27:22Z</time>
      </trkpt>
      <trkpt lat="42.49362" lon="1.46823">
        <ele>1881.308</ele>
        <time>2016-05-06T08:27:42Z</time>
      </trkpt>
      <trkpt lat="42.49355" lon="1.46823">
        <ele>1876.54</ele>
        <time>2016-05-06T08:28:02Z</time>
      </trkpt>
      <trkpt lat="42.49342" lon="1.4684">
        <ele>1881.862</ele>
        <time>2016-05-06T08:28:22Z</time>
      </trkpt>
      <trkpt lat="42.4933" lon="1.46836">
        <ele>1873.79</ele>
        <time>2016-05-06T08:28:42Z</time>
      </trkpt>
      <trkpt lat="42.49315" lon="1.46839">
        <ele>1868.978</ele>
        <time>2016-05-06T08:29:02Z</time>
      </trkpt>
      <trkpt lat="42.49293" lon="1.46845">
        <ele>1865.726</ele>
        <time>2016-05-06T08:29:22Z</time>
      </trkpt>
      <trkpt lat="42.49277" lon="1.46851">
        <ele>1863.697</ele>
        <time>2016-05-06T08:29:42Z</time>
      </trkpt>
      <trkpt lat="42.49254" lon="1.46865">
        <ele>1856.525</ele>
        <time>2016-05-06T08:30:02Z</time>
      </trkpt>
      <trkpt lat="42.49249" lon="1.46881">
        <ele>1850.593</ele>
        <time>2016-05-06T08:30:22Z</time>
      </trkpt>
      <trkpt lat="42.49246" lon="1.46902">
        <ele>1845.856</ele>
        <time>2016-05-06T08:30:42Z</time>
      </trkpt>
      <trkpt lat="42.49242" lon="1.46908">
        <ele>1842.559</ele>
        <time>2016-05-06T08:31:02Z</time>
      </trkpt>
      <trkpt lat="42.49242" lon="1.46915">
        <ele>1841.214</ele>
        <time>2016-05-06T08:31:22Z</time>
      </trkpt>
      <trkpt lat="42.49238" lon="1.4691">
        <ele>1838.608</ele>
        <time>2016-05-06T08:31:42Z</time>
      </trkpt>
      <trkpt lat="42.49235" lon="1.46921">
        <ele>1835.586</ele>
        <time>2016-05-06T08:32:02Z</time>
      </trkpt>
      <trkpt lat="42.49231" lon="1.46922">
        <ele>1832.028</ele>
        <time>2016-05-06T08:32:22Z</time>
      </trkpt>
      <trkpt lat="42.49223" lon="1.46934">
        <ele>1826.036</ele>
        <time>2016-05-06T08:32:42Z</time>
      </trkpt>
      <trkpt lat="42.49216" lon="1.46962">
        <ele>1819.394</ele>
        <time>2016-05-06T08:33:02Z</time>
      </trkpt>
      <trkpt lat="42.49218" lon="1.46973">
        <ele>1820.022</ele>
        <time>2016-05-06T08:33:22Z</time>
      </trkpt>
      <trkpt lat="42.49213" lon="1.46998">
        <ele>1817.173</ele>
        <time>2016-05-06T08:33:42Z</time>
      </trkpt>
      <trkpt lat="42.49205" lon="1.47012">
        <ele>1812.861</ele>
        <time>2016-05-06T08:34:02Z</time>
      </trkpt>
      <trkpt lat="42.49192" lon="1.47027">
        <ele>1805.539</ele>
        <time>2016-05-06T08:34:22Z</time>
      </trkpt>
      <trkpt lat="42.49167" lon="1.47043">
        <ele>1793.722</ele>
        <time>2016-05-06T08:34:42Z</time>
      </trkpt>
      <trkpt lat="42.49152" lon="1.47045">
        <ele>1787.562</ele>
        <time>2016-05-06T08:35:02Z</time>
      </trkpt>
      <trkpt lat="42.49115" lon="1.47062">
        <ele>1774.108</ele>
        <time>2016-05-06T08:35:22Z</time>
      </trkpt>
      <trkpt lat="42.491" lon="1.47063">
        <ele>1766.708</ele>
        <time>2016-05-06T08:35:42Z</time>
      </trkpt>
      <trkpt lat="42.49092" lon="1.47073">
        <ele>1765.373</ele>
        <time>2016-05-06T08:36:02Z</time>
      </trkpt>
      <trkpt lat="42.49084" lon="1.47073">
        <ele>1761.915</ele>
        <time>2016-05-06T08:36:22Z</time>
      </trkpt>
      <trkpt lat="42.49077" lon="1.4708">
        <ele>1760.913</ele>
        <time>2016-05-06T08:36:42Z</time>
      </trkpt>
      <trkpt lat="42.49066" lon="1.47084">
        <ele>1757.861</ele>
        <time>2016-05-06T08:37:02Z</time>
      </trkpt>
      <trkpt lat="42.49054" lon="1.4709">
        <ele>1755.489</ele>
        <time>2016-05-06T08:37:22Z</time>
      </trkpt>
      <trkpt lat="42.49052" lon="1.47094">
        <ele>1756.05</ele>
        <time>2016-05-06T08:37:42Z</time>
      </trkpt>
      <trkpt lat="42.49029" lon="1.47103">
        <ele>1750.748</ele>
        <time>2016-05-06T08:38:02Z</time>
      </trkpt>
      <trkpt lat="42.49015" lon="1.47111">
        <ele>1745.036</ele>
        <time>2016-05-06T08:38:22Z</time>
      </trkpt>
      <trkpt lat="42.49003" lon="1.47136">
        <ele>1737.729</ele>
        <time>2016-05-06T08:38:42Z</time>
      </trkpt>
      <trkpt lat="42.49007" lon="1.47144">
        <ele>1739.1</ele>
        <time>2016-05-06T08:39:02Z</time>
      </trkpt>
      <trkpt lat="42.48999" lon="1.47145">
        <ele>1734.52</ele>
        <time>2016-05-06T08:39:22Z</time>
      </trkpt>
      <trkpt lat="42.48995" lon="1.47137">
        <ele>1732.208</ele>
        <time>2016-05-06T08:39:42Z</time>
      </trkpt>
      <trkpt lat="42.48982" lon="1.47132">
        <ele>1722.563</ele>
        <time>2016-05-06T08:40:02Z</time>
      </trkpt>
      <trkpt lat="42.48972" lon="1.47098">
        <ele>1714.265</ele>
        <time>2016-05-06T08:40:22Z</time>
      </trkpt>
      <trkpt lat="42.48967" lon="1.47085">
        <ele>1709.213</ele>
        <time>2016-05-06T08:40:42Z</time>
      </trkpt>
      <trkpt lat="42.48968" lon="1.47067">
        <ele>1703.571</ele>
        <time>2016-05-06T08:41:02Z</time>
      </trkpt>
      <trkpt lat="42.4899" lon="1.4701">
        <ele>1690.159</ele>
        <time>2016-05-06T08:41:22Z</time>
      </trkpt>
      <trkpt lat="42.48971" lon="1.4702">
        <ele>1684.84</ele>
        <time>2016-05-06T08:41:42Z</time>
      </trkpt>
      <trkpt lat="42.48966" lon="1.47012">
        <ele>1680.278</ele>
        <time>2016-05-06T08:42:02Z</time>
      </trkpt>
      <trkpt lat="42.48951" lon="1.4702">
        <ele>1677.226</ele>
        <time>2016-05-06T08:42:22Z</time>
      </trkpt>
      <trkpt lat="42.48941" lon="1.47013">
        <ele>1670.794</ele>
        <time>2016-05-06T08:42:42Z</time>
      </trkpt>
      <trkpt lat="42.48939" lon="1.47001">
        <ele>1665.357</ele>
        <time>2016-05-06T08:43:02Z</time>
      </trkpt>
      <trkpt lat="42.48929" lon="1.47">
        <ele>1660.322</ele>
        <time>2016-05-06T08:43:22Z</time>
      </trkpt>
      <trkpt lat="42.48926" lon="1.46983">
        <ele>1651.708</ele>
        <time>2016-05-06T08:43:42Z</time>
      </trkpt>
      <trkpt lat="42.48953" lon="1.46953">
        <ele>1645.26</ele>
        <time>2016-05-06T08:44:02Z</time>
      </trkpt>
      <trkpt lat="42.4895" lon="1.46944">
        <ele>1639.382</ele>
        <time>2016-05-06T08:44:22Z</time>
      </trkpt>
      <trkpt lat="42.48956" lon="1.46938">
        <ele>1640.58</ele>
        <time>2016-05-06T08:44:42Z</time>
      </trkpt>
      <trkpt lat="42.48947" lon="1.46902">
        <ele>1632.568</ele>
        <time>2016-05-06T08:45:02Z</time>
      </trkpt>
      <trkpt lat="42.48934" lon="1.46893">
        <ele>1627.026</ele>
        <time>2016-05-06T08:45:22Z</time>
      </trkpt>
      <trkpt lat="42.48915" lon="1.4686">
        <ele>1624.517</ele>
        <time>2016-05-06T08:45:42Z</time>
      </trkpt>
      <trkpt lat="42.4888" lon="1.46821">
        <ele>1609.295</ele>
        <time>2016-05-06T08:46:02Z</time>
      </trkpt>
      <trkpt lat="42.48854" lon="1.46789">
        <ele>1594.453</ele>
        <time>2016-05-06T08:46:22Z</time>
      </trkpt>
      <trkpt lat="42.48852" lon="1.46762">
        <ele>1592.568</ele>
        <time>2016-05-06T08:46:42Z</time>
      </trkpt>
      <trkpt lat="42.4883" lon="1.46747">
        <ele>1581.042</ele>
        <time>2016-05-06T08:47:02Z</time>
      </trkpt>
      <trkpt lat="42.48814" lon="1.46735">
        <ele>1571.026</ele>
        <time>2016-05-06T08:47:22Z</time>
      </trkpt>
      <trkpt lat="42.48805" lon="1.4672">
        <ele>1565.008</ele>
        <time>2016-05-06T08:47:42Z</time>
      </trkpt>
      <trkpt lat="42.48795" lon="1.46725">
        <ele>1559.977</ele>
        <time>2016-05-06T08:48:02Z</time>
      </trkpt>
      <trkpt lat="42.48792" lon="1.4672">
        <ele>1557.779</ele>
        <time>2016-05-06T08:48:22Z</time>
      </trkpt>
      <trkpt lat="42.48792" lon="1.46716">
        <ele>1556.577</ele>
        <time>2016-05-06T08:48:42Z</time>
      </trkpt>
      <trkpt lat="42.4879" lon="1.46714">
        <ele>1555.095</ele>
        <time>2016-05-06T08:49:02Z</time>
      </trkpt>
      <trkpt lat="42.48788" lon="1.46717">
        <ele>1554.633</ele>
        <time>2016-05-06T08:49:22Z</time>
      </trkpt>
      <trkpt lat="42.48786" lon="1.46711">
        <ele>1552.064</ele>
        <time>2016-05-06T08:49:42Z</time>
      </trkpt>
      <trkpt lat="42.48777" lon="1.46709">
        <ele>1546.732</ele>
        <time>2016-05-06T08:50:02Z</time>
      </trkpt>
      <trkpt lat="42.48781" lon="1.46686">
        <ele>1542.18</ele>
        <time>2016-05-06T08:50:22Z</time>
      </trkpt>
      <trkpt lat="42.4878" lon="1.46678">
        <ele>1538.017</ele>
        <time>2016-05-06T08:50:42Z</time>
      </trkpt>
      <trkpt lat="42.48774" lon="1.46676">
        <ele>1535.687</ele>
        <time>2016-05-06T08:51:02Z</time>
      </trkpt>
      <trkpt lat="42.4876" lon="1.46688">
        <ele>1534.615</ele>
        <time>2016-05-06T08:51:22Z</time>
      </trkpt>
      <trkpt lat="42.48749" lon="1.46695">
        <ele>1533.008</ele>
        <time>2016-05-06T08:51:42Z</time>
      </trkpt>
      <trkpt lat="42.48731" lon="1.46713">
        <ele>1532.942</ele>
        <time>2016-05-06T08:52:02Z</time>
      </trkpt>
      <trkpt lat="42.48701" lon="1.46716">
        <ele>1529.214</ele>
        <time>2016-05-06T08:52:22Z</time>
      </trkpt>
      <trkpt lat="42.48695" lon="1.46749">
        <ele>1530.042</ele>
        <time>2016-05-06T08:52:42Z</time>
      </trkpt>
      <trkpt lat="42.4868" lon="1.46761">
        <ele>1526.86</ele>
        <time>2016-05-06T08:53:02Z</time>
      </trkpt>
      <trkpt lat="42.48672" lon="1.46762">
        <ele>1525.648</ele>
        <time>2016-05-06T08:53:22Z</time>
      </trkpt>
      <trkpt lat="42.48673" lon="1.46771">
        <ele>1524.289</ele>
        <time>2016-05-06T08:53:42Z</time>
      </trkpt>
      <trkpt lat="42.48672" lon="1.46777">
        <ele>1523.097</ele>
        <time>2016-05-06T08:54:02Z</time>
      </trkpt>
      <trkpt lat="42.48671" lon="1.46784">
        <ele>1521.835</ele>
        <time>2016-05-06T08:54:22Z</time>
      </trkpt>
      <trkpt lat="42.4867" lon="1.46791">
        <ele>1520.725</ele>
        <time>2016-05-06T08:54:42Z</time>
      </trkpt>
      <trkpt lat="42.4867" lon="1.46799">
        <ele>1519.526</ele>
        <time>2016-05-06T08:55:02Z</time>
      </trkpt>
      <trkpt lat="42.48671" lon="1.46806">
        <ele>1518.608</ele>
        <time>2016-05-06T08:55:22Z</time>
      </trkpt>
      <trkpt lat="42.48673" lon="1.46814">
        <ele>1516.508</ele>
        <time>2016-05-06T08:55:42Z</time>
      </trkpt>
      <trkpt lat="42.48677" lon="1.46818">
        <ele>1515.993</ele>
        <time>2016-05-06T08:56:02Z</time>
      </trkpt>
      <trkpt lat="42.48681" lon="1.46821">
        <ele>1515.615</ele>
        <time>2016-05-06T08:56:22Z</time>
      </trkpt>
      <trkpt lat="42.48687" lon="1.46826">
        <ele>1515.073</ele>
        <time>2016-05-06T08:56:42Z</time>
      </trkpt>
      <trkpt lat="42.48692" lon="1.46832">
        <ele>1514.061</ele>
        <time>2016-05-06T08:57:02Z</time>
      </trkpt>
      <trkpt lat="42.48693" lon="1.46836">
        <ele>1513.789</ele>
        <time>2016-05-06T08:57:22Z</time>
      </trkpt>
      <trkpt lat="42.4869" lon="1.4684">
        <ele>1513.07</ele>
        <time>2016-05-06T08:57:42Z</time>
      </trkpt>
      <trkpt lat="42.48686" lon="1.46842">
        <ele>1512.188</ele>
        <time>2016-05-06T08:58:02Z</time>
      </trkpt>
      <trkpt lat="42.4868" lon="1.46846">
        <ele>1510.236</ele>
        <time>2016-05-06T08:58:22Z</time>
      </trkpt>
      <trkpt lat="42.48673" lon="1.46851">
        <ele>1507.732</ele>
        <time>2016-05-06T08:58:42Z</time>
      </trkpt>
      <trkpt lat="42.48666" lon="1.46854">
        <ele>1505.192</ele>
        <time>2016-05-06T08:59:02Z</time>
      </trkpt>
      <trkpt lat="42.48662" lon="1.4686">
        <ele>1502.611</ele>
        <time>2016-05-06T08:59:22Z</time>
      </trkpt>
      <trkpt lat="42.48657" lon="1.46866">
        <ele>1501.008</ele>
        <time>2016-05-06T08:59:42Z</time>
      </trkpt>
      <trkpt lat="42.48652" lon="1.46871">
        <ele>1499.634</ele>
        <time>2016-05-06T09:00:02Z</time>
      </trkpt>
      <trkpt lat="42.4865" lon="1.46879">
        <ele>1499.036</ele>
        <time>2016-05-06T09:00:22Z</time>
      </trkpt>
      <trkpt lat="42.48647" lon="1.46888">
        <ele>1497.714</ele>
        <time>2016-05-06T09:00:42Z</time>
      </trkpt>
      <trkpt lat="42.48644" lon="1.46898">
        <ele>1497.112</ele>
        <time>2016-05-06T09:01:02Z</time>
      </trkpt>
      <trkpt lat="42.48642" lon="1.46908">
        <ele>1496.45</ele>
        <time>2016-05-06T09:01:22Z</time>
      </trkpt>
      <trkpt lat="42.48641" lon="1.46916">
        <ele>1496.281</ele>
        <time>2016-05-06T09:01:42Z</time>
      </trkpt>
      <trkpt lat="42.4864" lon="1.46926">
        <ele>1496.819</ele>
        <time>2016-05-06T09:02:02Z</time>
      </trkpt>
      <trkpt lat="42.48637" lon="1.46933">
        <ele>1495.317</ele>
        <time>2016-05-06T09:02:22Z</time>
      </trkpt>
      <trkpt lat="42.48634" lon="1.46939">
        <ele>1494.069</ele>
        <time>2016-05-06T09:02:42Z</time>
      </trkpt>
      <trkpt lat="42.48632" lon="1.46948">
        <ele>1494.504</ele>
        <time>2016-05-06T09:03:02Z</time>
      </trkpt>
      <trkpt lat="42.48633" lon="1.46955">
        <ele>1496.124</ele>
        <time>2016-05-06T09:03:22Z</time>
      </trkpt>
      <trkpt lat="42.48633" lon="1.46964">
        <ele>1498.008</ele>
        <time>2016-05-06T09:03:42Z</time>
      </trkpt>
      <trkpt lat="42.48631" lon="1.46974">
        <ele>1498.617</ele>
        <time>2016-05-06T09:04:02Z</time>
      </trkpt>
      <trkpt lat="42.48626" lon="1.4698">
        <ele>1496.419</ele>
        <time>2016-05-06T09:04:22Z</time>
      </trkpt>
      <trkpt lat="42.48622" lon="1.4699">
        <ele>1495.197</ele>
        <time>2016-05-06T09:04:42Z</time>
      </trkpt>
      <trkpt lat="42.4862" lon="1.47">
        <ele>1495.645</ele>
        <time>2016-05-06T09:05:02Z</time>
      </trkpt>
      <trkpt lat="42.4862" lon="1.47013">
        <ele>1496.153</ele>
        <time>2016-05-06T09:05:22Z</time>
      </trkpt>
      <trkpt lat="42.48626" lon="1.47042">
        <ele>1498.644</ele>
        <time>2016-05-06T09:05:42Z</time>
      </trkpt>
      <trkpt lat="42.4863" lon="1.47065">
        <ele>1497.862</ele>
        <time>2016-05-06T09:06:02Z</time>
      </trkpt>
      <trkpt lat="42.48631" lon="1.47088">
        <ele>1494.59</ele>
        <time>2016-05-06T09:06:22Z</time>
      </trkpt>
      <trkpt lat="42.48641" lon="1.47097">
        <ele>1496.326</ele>
        <time>2016-05-06T09:06:42Z</time>
      </trkpt>
      <trkpt lat="42.48645" lon="1.47114">
        <ele>1493.547</ele>
        <time>2016-05-06T09:07:02Z</time>
      </trkpt>
      <trkpt lat="42.48641" lon="1.47136">
        <ele>1485.211</ele>
        <time>2016-05-06T09:07:22Z</time>
      </trkpt>
      <trkpt lat="42.48639" lon="1.4715">
        <ele>1482.908</ele>
        <time>2016-05-06T09:07:42Z</time>
      </trkpt>
      <trkpt lat="42.48634" lon="1.47171">
        <ele>1484.693</ele>
        <time>2016-05-06T09:08:02Z</time>
      </trkpt>
      <trkpt lat="42.48625" lon="1.47182">
        <ele>1489.355</ele>
        <time>2016-05-06T09:08:22Z</time>
      </trkpt>
      <trkpt lat="42.48614" lon="1.47186">
        <ele>1489.653</ele>
        <time>2016-05-06T09:08:42Z</time>
      </trkpt>
      <trkpt lat="42.48609" lon="1.47197">
        <ele>1493.151</ele>
        <time>2016-05-06T09:09:02Z</time>
      </trkpt>
      <trkpt lat="42.48607" lon="1.472">
        <ele>1494.239</ele>
        <time>2016-05-06T09:09:22Z</time>
      </trkpt>
      <trkpt lat="42.48606" lon="1.47204">
        <ele>1495.48</ele>
        <time>2016-05-06T09:09:42Z</time>
      </trkpt>
      <trkpt lat="42.48604" lon="1.47209">
        <ele>1496.768</ele>
        <time>2016-05-06T09:10:02Z</time>
      </trkpt>
      <trkpt lat="42.486" lon="1.47216">
        <ele>1498.476</ele>
        <time>2016-05-06T09:10:22Z</time>
      </trkpt>
      <trkpt lat="42.48597" lon="1.47225">
        <ele>1500.313</ele>
        <time>2016-05-06T09:10:42Z</time>
      </trkpt>
      <trkpt lat="42.48595" lon="1.4725">
        <ele>1505.243</ele>
        <time>2016-05-06T09:11:02Z</time>
      </trkpt>
      <trkpt lat="42.48592" lon="1.47271">
        <ele>1508.007</ele>
        <time>2016-05-06T09:11:22Z</time>
      </trkpt>
      <trkpt lat="42.48589" lon="1.47293">
        <ele>1509.908</ele>
        <time>2016-05-06T09:11:42Z</time>
      </trkpt>
      <trkpt lat="42.48588" lon="1.47305">
        <ele>1510.812</ele>
        <time>2016-05-06T09:12:02Z</time>
      </trkpt>
      <trkpt lat="42.48583" lon="1.47324">
        <ele>1511.394</ele>
        <time>2016-05-06T09:12:22Z</time>
      </trkpt>
      <trkpt lat="42.48582" lon="1.4734">
        <ele>1512.812</ele>
        <time>2016-05-06T09:12:42Z</time>
      </trkpt>
      <trkpt lat="42.48579" lon="1.47361">
        <ele>1513.66</ele>
        <time>2016-05-06T09:13:02Z</time>
      </trkpt>
      <trkpt lat="42.48577" lon="1.47388">
        <ele>1517.418</ele>
        <time>2016-05-06T09:13:22Z</time>
      </trkpt>
      <trkpt lat="42.48575" lon="1.47417">
        <ele>1524.249</ele>
        <time>2016-05-06T09:13:42Z</time>
      </trkpt>
      <trkpt lat="42.48564" lon="1.47458">
        <ele>1530.927</ele>
        <time>2016-05-06T09:14:02Z</time>
      </trkpt>
      <trkpt lat="42.48554" lon="1.47495">
        <ele>1537.885</ele>
        <time>2016-05-06T09:14:22Z</time>
      </trkpt>
      <trkpt lat="42.48549" lon="1.4752">
        <ele>1543.995</ele>
        <time>2016-05-06T09:14:42Z</time>
      </trkpt>
      <trkpt lat="42.48534" lon="1.47577">
        <ele>1556.949</ele>
        <time>2016-05-06T09:15:02Z</time>
      </trkpt>
      <trkpt lat="42.48531" lon="1.47614">
        <ele>1567.723</ele>
        <time>2016-05-06T09:15:22Z</time>
      </trkpt>
      <trkpt lat="42.48521" lon="1.47639">
        <ele>1571.708</ele>
        <time>2016-05-06T09:15:42Z</time>
      </trkpt>
      <trkpt lat="42.48501" lon="1.47647">
        <ele>1570.94</ele>
        <time>2016-05-06T09:16:02Z</time>
      </trkpt>
      <trkpt lat="42.48487" lon="1.47653">
        <ele>1571.132</ele>
        <time>2016-05-06T09:16:22Z</time>
      </trkpt>
      <trkpt lat="42.48466" lon="1.47657">
        <ele>1568.93</ele>
        <time>2016-05-06T09:16:42Z</time>
      </trkpt>
      <trkpt lat="42.48452" lon="1.47662">
        <ele>1568.358</ele>
        <time>2016-05-06T09:17:02Z</time>
      </trkpt>
      <trkpt lat="42.48446" lon="1.47664">
        <ele>1567.926</ele>
        <time>2016-05-06T09:17:22Z</time>
      </trkpt>
      <trkpt lat="42.48429" lon="1.47669">
        <ele>1566.677</ele>
        <time>2016-05-06T09:17:42Z</time>
      </trkpt>
      <trkpt lat="42.48406" lon="1.47681">
        <ele>1567.545</ele>
        <time>2016-05-06T09:18:02Z</time>
      </trkpt>
      <trkpt lat="42.48372" lon="1.47689">
        <ele>1561.873</ele>
        <time>2016-05-06T09:18:22Z</time>
      </trkpt>
      <trkpt lat="42.48378" lon="1.47753">
        <ele>1557.745</ele>
        <time>2016-05-06T09:18:42Z</time>
      </trkpt>
      <trkpt lat="42.48402" lon="1.4777">
        <ele>1556.347</ele>
        <time>2016-05-06T09:19:02Z</time>
      </trkpt>
      <trkpt lat="42.48417" lon="1.47804">
        <ele>1541.011</ele>
        <time>2016-05-06T09:19:22Z</time>
      </trkpt>
      <trkpt lat="42.48423" lon="1.47813">
        <ele>1539.008</ele>
        <time>2016-05-06T09:19:42Z</time>
      </trkpt>
      <trkpt lat="42.48433" lon="1.47842">
        <ele>1530.015</ele>
        <time>2016-05-06T09:20:02Z</time>
      </trkpt>
      <trkpt lat="42.48439" lon="1.47848">
        <ele>1530.797</ele>
        <time>2016-05-06T09:20:22Z</time>
      </trkpt>
      <trkpt lat="42.48448" lon="1.47868">
        <ele>1528.145</ele>
        <time>2016-05-06T09:20:42Z</time>
      </trkpt>
      <trkpt lat="42.48448" lon="1.47881">
        <ele>1524.183</ele>
        <time>2016-05-06T09:21:02Z</time>
      </trkpt>
      <trkpt lat="42.48446" lon="1.47892">
        <ele>1520.921</ele>
        <time>2016-05-06T09:21:22Z</time>
      </trkpt>
      <trkpt lat="42.4845" lon="1.47898">
        <ele>1518.582</ele>
        <time>2016-05-06T09:21:42Z</time>
      </trkpt>
      <trkpt lat="42.48449" lon="1.4791">
        <ele>1515.33</ele>
        <time>2016-05-06T09:22:02Z</time>
      </trkpt>
      <trkpt lat="42.48457" lon="1.4792">
        <ele>1510.748</ele>
        <time>2016-05-06T09:22:22Z</time>
      </trkpt>
      <trkpt lat="42.48466" lon="1.47936">
        <ele>1505.547</ele>
        <time>2016-05-06T09:22:42Z</time>
      </trkpt>
      <trkpt lat="42.48469" lon="1.47951">
        <ele>1502.529</ele>
        <time>2016-05-06T09:23:02Z</time>
      </trkpt>
      <trkpt lat="42.4848" lon="1.47961">
        <ele>1494.221</ele>
        <time>2016-05-06T09:23:22Z</time>
      </trkpt>
      <trkpt lat="42.48478" lon="1.47967">
        <ele>1494.508</ele>
        <time>2016-05-06T09:23:42Z</time>
      </trkpt>
      <trkpt lat="42.48479" lon="1.47975">
        <ele>1492.335</ele>
        <time>2016-05-06T09:24:02Z</time>
      </trkpt>
      <trkpt lat="42.48474" lon="1.4799">
        <ele>1492.017</ele>
        <time>2016-05-06T09:24:22Z</time>
      </trkpt>
      <trkpt lat="42.48471" lon="1.47995">
        <ele>1491.375</ele>
        <time>2016-05-06T09:24:42Z</time>
      </trkpt>
      <trkpt lat="42.48473" lon="1.48012">
        <ele>1486.083</ele>
        <time>2016-05-06T09:25:02Z</time>
      </trkpt>
      <trkpt lat="42.48476" lon="1.48017">
        <ele>1482.041</ele>
        <time>2016-05-06T09:25:22Z</time>
      </trkpt>
      <trkpt lat="42.48475" lon="1.48031">
        <ele>1478.312</ele>
        <time>2016-05-06T09:25:42Z</time>
      </trkpt>
      <trkpt lat="42.48477" lon="1.4804">
        <ele>1474.17</ele>
        <time>2016-05-06T09:26:02Z</time>
      </trkpt>
      <trkpt lat="42.48476" lon="1.48049">
        <ele>1471.918</ele>
        <time>2016-05-06T09:26:22Z</time>
      </trkpt>
      <trkpt lat="42.48479" lon="1.48061">
        <ele>1465.847</ele>
        <time>2016-05-06T09:26:42Z</time>
      </trkpt>
      <trkpt lat="42.48473" lon="1.4808">
        <ele>1462.029</ele>
        <time>2016-05-06T09:27:02Z</time>
      </trkpt>
      <trkpt lat="42.4848" lon="1.48113">
        <ele>1446.821</ele>
        <time>2016-05-06T09:27:22Z</time>
      </trkpt>
      <trkpt lat="42.48485" lon="1.4811">
        <ele>1445.608</ele>
        <time>2016-05-06T09:27:42Z</time>
      </trkpt>
      <trkpt lat="42.48485" lon="1.48099">
        <ele>1449.275</ele>
        <time>2016-05-06T09:28:02Z</time>
      </trkpt>
      <trkpt lat="42.48495" lon="1.48092">
        <ele>1446.897</ele>
        <time>2016-05-06T09:28:22Z</time>
      </trkpt>
      <trkpt lat="42.48497" lon="1.481">
        <ele>1443.325</ele>
        <time>2016-05-06T09:28:42Z</time>
      </trkpt>
      <trkpt lat="42.4849" lon="1.48133">
        <ele>1435.833</ele>
        <time>2016-05-06T09:29:02Z</time>
      </trkpt>
      <trkpt lat="42.48511" lon="1.48111">
        <ele>1429.781</ele>
        <time>2016-05-06T09:29:22Z</time>
      </trkpt>
      <trkpt lat="42.48506" lon="1.48121">
        <ele>1430.252</ele>
        <time>2016-05-06T09:29:42Z</time>
      </trkpt>
      <trkpt lat="42.48508" lon="1.48129">
        <ele>1426.93</ele>
        <time>2016-05-06T09:30:02Z</time>
      </trkpt>
      <trkpt lat="42.48507" lon="1.48139">
        <ele>1424.228</ele>
        <time>2016-05-06T09:30:22Z</time>
      </trkpt>
      <trkpt lat="42.48504" lon="1.4814">
        <ele>1425.795</ele>
        <time>2016-05-06T09:30:42Z</time>
      </trkpt>
      <trkpt lat="42.48504" lon="1.48147">
        <ele>1423.049</ele>
        <time>2016-05-06T09:31:02Z</time>
      </trkpt>
      <trkpt lat="42.48488" lon="1.48164">
        <ele>1422.923</ele>
        <time>2016-05-06T09:31:22Z</time>
      </trkpt>
      <trkpt lat="42.48492" lon="1.48169">
        <ele>1419.208</ele>
        <time>2016-05-06T09:31:42Z</time>
      </trkpt>
      <trkpt lat="42.48488" lon="1.48176">
        <ele>1417.31</ele>
        <time>2016-05-06T09:32:02Z</time>
      </trkpt>
      <trkpt lat="42.48484" lon="1.48192">
        <ele>1411.422</ele>
        <time>2016-05-06T09:32:22Z</time>
      </trkpt>
      <trkpt lat="42.48498" lon="1.48186">
        <ele>1409.34</ele>
        <time>2016-05-06T09:32:42Z</time>
      </trkpt>
      <trkpt lat="42.48502" lon="1.48184">
        <ele>1408.478</ele>
        <time>2016-05-06T09:33:02Z</time>
      </trkpt>
      <trkpt lat="42.48503" lon="1.48192">
        <ele>1403.996</ele>
        <time>2016-05-06T09:33:22Z</time>
      </trkpt>
      <trkpt lat="42.485" lon="1.48198">
        <ele>1403.357</ele>
        <time>2016-05-06T09:33:42Z</time>
      </trkpt>
      <trkpt lat="42.48493" lon="1.48207">
        <ele>1401.455</ele>
        <time>2016-05-06T09:34:02Z</time>
      </trkpt>
      <trkpt lat="42.4849" lon="1.48218">
        <ele>1396.843</ele>
        <time>2016-05-06T09:34:22Z</time>
      </trkpt>
      <trkpt lat="42.48492" lon="1.48219">
        <ele>1395.847</ele>
        <time>2016-05-06T09:34:42Z</time>
      </trkpt>
      <trkpt lat="42.48482" lon="1.48226">
        <ele>1394.529</ele>
        <time>2016-05-06T09:35:02Z</time>
      </trkpt>
      <trkpt lat="42.48476" lon="1.48242">
        <ele>1386.621</ele>
        <time>2016-05-06T09:35:22Z</time>
      </trkpt>
      <trkpt lat="42.48489" lon="1.48245">
        <ele>1382.608</ele>
        <time>2016-05-06T09:35:42Z</time>
      </trkpt>
      <trkpt lat="42.48492" lon="1.48242">
        <ele>1383.595</ele>
        <time>2016-05-06T09:36:02Z</time>
      </trkpt>
      <trkpt lat="42.48499" lon="1.48246">
        <ele>1380.187</ele>
        <time>2016-05-06T09:36:22Z</time>
      </trkpt>
      <trkpt lat="42.48509" lon="1.4825">
        <ele>1375.065</ele>
        <time>2016-05-06T09:36:42Z</time>
      </trkpt>
      <trkpt lat="42.48511" lon="1.48256">
        <ele>1372.353</ele>
        <time>2016-05-06T09:37:02Z</time>
      </trkpt>
      <trkpt lat="42.48507" lon="1.48259">
        <ele>1372.761</ele>
        <time>2016-05-06T09:37:22Z</time>
      </trkpt>
      <trkpt lat="42.48509" lon="1.48262">
        <ele>1370.852</ele>
        <time>2016-05-06T09:37:42Z</time>
      </trkpt>
      <trkpt lat="42.48505" lon="1.48271">
        <ele>1368.99</ele>
        <time>2016-05-06T09:38:02Z</time>
      </trkpt>
      <trkpt lat="42.48511" lon="1.48273">
        <ele>1366.288</ele>
        <time>2016-05-06T09:38:22Z</time>
      </trkpt>
      <trkpt lat="42.48516" lon="1.48273">
        <ele>1364.842</ele>
        <time>2016-05-06T09:38:42Z</time>
      </trkpt>
      <trkpt lat="42.48523" lon="1.48274">
        <ele>1362.722</ele>
        <time>2016-05-06T09:39:02Z</time>
      </trkpt>
      <trkpt lat="42.48521" lon="1.4829">
        <ele>1358.414</ele>
        <time>2016-05-06T09:39:22Z</time>
      </trkpt>
      <trkpt lat="42.48518" lon="1.48294">
        <ele>1358.108</ele>
        <time>2016-05-06T09:39:42Z</time>
      </trkpt>
      <trkpt lat="42.48519" lon="1.483">
        <ele>1356.225</ele>
        <time>2016-05-06T09:40:02Z</time>
      </trkpt>
      <trkpt lat="42.48512" lon="1.48313">
        <ele>1354.227</ele>
        <time>2016-05-06T09:40:22Z</time>
      </trkpt>
      <trkpt lat="42.48506" lon="1.4833">
        <ele>1350.735</ele>
        <time>2016-05-06T09:40:42Z</time>
      </trkpt>
      <trkpt lat="42.48512" lon="1.48337">
        <ele>1347.293</ele>
        <time>2016-05-06T09:41:02Z</time>
      </trkpt>
      <trkpt lat="42.48511" lon="1.48344">
        <ele>1345.581</ele>
        <time>2016-05-06T09:41:22Z</time>
      </trkpt>
      <trkpt lat="42.48504" lon="1.48346">
        <ele>1346.512</ele>
        <time>2016-05-06T09:41:42Z</time>
      </trkpt>
      <trkpt lat="42.48506" lon="1.48365">
        <ele>1340.63</ele>
        <time>2016-05-06T09:42:02Z</time>
      </trkpt>
      <trkpt lat="42.48512" lon="1.4837">
        <ele>1337.798</ele>
        <time>2016-05-06T09:42:22Z</time>
      </trkpt>
      <trkpt lat="42.48509" lon="1.48382">
        <ele>1334.475</ele>
        <time>2016-05-06T09:42:42Z</time>
      </trkpt>
      <trkpt lat="42.48502" lon="1.48385">
        <ele>1334.828</ele>
        <time>2016-05-06T09:43:02Z</time>
      </trkpt>
      <trkpt lat="42.48505" lon="1.48421">
        <ele>1324.92</ele>
        <time>2016-05-06T09:43:22Z</time>
      </trkpt>
      <trkpt lat="42.4851" lon="1.48437">
        <ele>1320.108</ele>
        <time>2016-05-06T09:43:42Z</time>
      </trkpt>
      <trkpt lat="42.48498" lon="1.48447">
        <ele>1321.418</ele>
        <time>2016-05-06T09:44:02Z</time>
      </trkpt>
      <trkpt lat="42.48483" lon="1.48483">
        <ele>1309.91</ele>
        <time>2016-05-06T09:44:22Z</time>
      </trkpt>
      <trkpt lat="42.48459" lon="1.48574">
        <ele>1301.448</ele>
        <time>2016-05-06T09:44:42Z</time>
      </trkpt>
      <trkpt lat="42.48478" lon="1.48582">
        <ele>1297.456</ele>
        <time>2016-05-06T09:45:02Z</time>
      </trkpt>
      <trkpt lat="42.48464" lon="1.48602">
        <ele>1290.754</ele>
        <time>2016-05-06T09:45:22Z</time>
      </trkpt>
      <trkpt lat="42.48454" lon="1.48623">
        <ele>1278.745</ele>
        <time>2016-05-06T09:45:42Z</time>
      </trkpt>
      <trkpt lat="42.48468" lon="1.4861">
        <ele>1288.193</ele>
        <time>2016-05-06T09:46:02Z</time>
      </trkpt>
      <trkpt lat="42.48484" lon="1.48614">
        <ele>1282.921</ele>
        <time>2016-05-06T09:46:22Z</time>
      </trkpt>
      <trkpt lat="42.48495" lon="1.48606">
        <ele>1281.759</ele>
        <time>2016-05-06T09:46:42Z</time>
      </trkpt>
      <trkpt lat="42.48491" lon="1.48629">
        <ele>1275.503</ele>
        <time>2016-05-06T09:47:02Z</time>
      </trkpt>
      <trkpt lat="42.48503" lon="1.48638">
        <ele>1267.823</ele>
        <time>2016-05-06T09:47:22Z</time>
      </trkpt>
      <trkpt lat="42.48512" lon="1.48638">
        <ele>1263.408</ele>
        <time>2016-05-06T09:47:42Z</time>
      </trkpt>
      <trkpt lat="42.48507" lon="1.48663">
        <ele>1254.596</ele>
        <time>2016-05-06T09:48:02Z</time>
      </trkpt>
      <trkpt lat="42.48522" lon="1.48643">
        <ele>1257.538</ele>
        <time>2016-05-06T09:48:22Z</time>
      </trkpt>
      <trkpt lat="42.48524" lon="1.48654">
        <ele>1253.596</ele>
        <time>2016-05-06T09:48:42Z</time>
      </trkpt>
      <trkpt lat="42.48534" lon="1.48652">
        <ele>1249.144</ele>
        <time>2016-05-06T09:49:02Z</time>
      </trkpt>
      <trkpt lat="42.48538" lon="1.4866">
        <ele>1245.472</ele>
        <time>2016-05-06T09:49:22Z</time>
      </trkpt>
      <trkpt lat="42.48541" lon="1.48657">
        <ele>1243.863</ele>
        <time>2016-05-06T09:49:42Z</time>
      </trkpt>
      <trkpt lat="42.48544" lon="1.48673">
        <ele>1235.721</ele>
        <time>2016-05-06T09:50:02Z</time>
      </trkpt>
      <trkpt lat="42.4855" lon="1.48667">
        <ele>1237.169</ele>
        <time>2016-05-06T09:50:22Z</time>
      </trkpt>
      <trkpt lat="42.48556" lon="1.48661">
        <ele>1234.883</ele>
        <time>2016-05-06T09:50:42Z</time>
      </trkpt>
      <trkpt lat="42.48558" lon="1.4867">
        <ele>1230.825</ele>
        <time>2016-05-06T09:51:02Z</time>
      </trkpt>
      <trkpt lat="42.48562" lon="1.48669">
        <ele>1228.217</ele>
        <time>2016-05-06T09:51:22Z</time>
      </trkpt>
      <trkpt lat="42.48561" lon="1.48656">
        <ele>1231.808</ele>
        <time>2016-05-06T09:51:42Z</time>
      </trkpt>
      <trkpt lat="42.4857" lon="1.48655">
        <ele>1225.229</ele>
        <time>2016-05-06T09:52:02Z</time>
      </trkpt>
      <trkpt lat="42.48579" lon="1.48612">
        <ele>1219.741</ele>
        <time>2016-05-06T09:52:22Z</time>
      </trkpt>
      <trkpt lat="42.4859" lon="1.48605">
        <ele>1210.429</ele>
        <time>2016-05-06T09:52:42Z</time>
      </trkpt>
      <trkpt lat="42.48595" lon="1.48585">
        <ele>1209.547</ele>
        <time>2016-05-06T09:53:02Z</time>
      </trkpt>
      <trkpt lat="42.48603" lon="1.48565">
        <ele>1207.485</ele>
        <time>2016-05-06T09:53:22Z</time>
      </trkpt>
      <trkpt lat="42.48606" lon="1.48578">
        <ele>1201.796</ele>
        <time>2016-05-06T09:53:42Z</time>
      </trkpt>
      <trkpt lat="42.48617" lon="1.48563">
        <ele>1196.564</ele>
        <time>2016-05-06T09:54:02Z</time>
      </trkpt>
      <trkpt lat="42.48625" lon="1.48578">
        <ele>1186.712</ele>
        <time>2016-05-06T09:54:22Z</time>
      </trkpt>
      <trkpt lat="42.48622" lon="1.48596">
        <ele>1184.018</ele>
        <time>2016-05-06T09:54:42Z</time>
      </trkpt>
      <trkpt lat="42.48639" lon="1.48568">
        <ele>1178.098</ele>
        <time>2016-05-06T09:55:02Z</time>
      </trkpt>
      <trkpt lat="42.4865" lon="1.48563">
        <ele>1171.017</ele>
        <time>2016-05-06T09:55:22Z</time>
      </trkpt>
      <trkpt lat="42.48657" lon="1.4855">
        <ele>1169.808</ele>
        <time>2016-05-06T09:55:42Z</time>
      </trkpt>
      <trkpt lat="42.4868" lon="1.48525">
        <ele>1160.812</ele>
        <time>2016-05-06T09:56:02Z</time>
      </trkpt>
      <trkpt lat="42.48674" lon="1.48547">
        <ele>1157.174</ele>
        <time>2016-05-06T09:56:22Z</time>
      </trkpt>
      <trkpt lat="42.4868" lon="1.48547">
        <ele>1153.052</ele>
        <time>2016-05-06T09:56:42Z</time>
      </trkpt>
      <trkpt lat="42.48671" lon="1.48563">
        <ele>1153.23</ele>
        <time>2016-05-06T09:57:02Z</time>
      </trkpt>
      <trkpt lat="42.48677" lon="1.4857">
        <ele>1146.648</ele>
        <time>2016-05-06T09:57:22Z</time>
      </trkpt>
      <trkpt lat="42.48673" lon="1.48584">
        <ele>1144.259</ele>
        <time>2016-05-06T09:57:42Z</time>
      </trkpt>
      <trkpt lat="42.48671" lon="1.48592">
        <ele>1143.767</ele>
        <time>2016-05-06T09:58:02Z</time>
      </trkpt>
      <trkpt lat="42.48668" lon="1.48597">
        <ele>1144.555</ele>
        <time>2016-05-06T09:58:22Z</time>
      </trkpt>
      <trkpt lat="42.48671" lon="1.48605">
        <ele>1139.957</ele>
        <time>2016-05-06T09:58:42Z</time>
      </trkpt>
      <trkpt lat="42.48674" lon="1.48614">
        <ele>1135</ele>
        <time>2016-05-06T09:59:02Z</time>
      </trkpt>
      <trkpt lat="42.48679" lon="1.4862">
        <ele>1130.02</ele>
        <time>2016-05-06T09:59:22Z</time>
      </trkpt>
      <trkpt lat="42.48679" lon="1.48624">
        <ele>1128.308</ele>
        <time>2016-05-06T09:59:42Z</time>
      </trkpt>
      <trkpt lat="42.48678" lon="1.48628">
        <ele>1127.986</ele>
        <time>2016-05-06T10:00:02Z</time>
      </trkpt>
      <trkpt lat="42.48677" lon="1.48632">
        <ele>1127.118</ele>
        <time>2016-05-06T10:00:22Z</time>
      </trkpt>
      <trkpt lat="42.48677" lon="1.48637">
        <ele>1125.716</ele>
        <time>2016-05-06T10:00:42Z</time>
      </trkpt>
      <trkpt lat="42.48677" lon="1.4864">
        <ele>1124.914</ele>
        <time>2016-05-06T10:01:02Z</time>
      </trkpt>
      <trkpt lat="42.48676" lon="1.48644">
        <ele>1124.592</ele>
        <time>2016-05-06T10:01:22Z</time>
      </trkpt>
      <trkpt lat="42.48675" lon="1.48647">
        <ele>1124.873</ele>
        <time>2016-05-06T10:01:42Z</time>
      </trkpt>
      <trkpt lat="42.48673" lon="1.48652">
        <ele>1124.521</ele>
        <time>2016-05-06T10:02:02Z</time>
      </trkpt>
      <trkpt lat="42.48674" lon="1.48655">
        <ele>1122.529</ele>
        <time>2016-05-06T10:02:22Z</time>
      </trkpt>
      <trkpt lat="42.48677" lon="1.48653">
        <ele>1121.633</ele>
        <time>2016-05-06T10:02:42Z</time>
      </trkpt>
      <trkpt lat="42.4868" lon="1.48652">
        <ele>1119.223</ele>
        <time>2016-05-06T10:03:02Z</time>
      </trkpt>
      <trkpt lat="42.48682" lon="1.48652">
        <ele>1118.015</ele>
        <time>2016-05-06T10:03:22Z</time>
      </trkpt>
      <trkpt lat="42.48685" lon="1.48654">
        <ele>1115.208</ele>
        <time>2016-05-06T10:03:42Z</time>
      </trkpt>
      <trkpt lat="42.48689" lon="1.48654">
        <ele>1112.984</ele>
        <time>2016-05-06T10:04:02Z</time>
      </trkpt>
      <trkpt lat="42.48692" lon="1.48652">
        <ele>1111.116</ele>
        <time>2016-05-06T10:04:22Z</time>
      </trkpt>
      <trkpt lat="42.48695" lon="1.48651">
        <ele>1109.884</ele>
        <time>2016-05-06T10:04:42Z</time>
      </trkpt>
      <trkpt lat="42.48698" lon="1.48649">
        <ele>1110.662</ele>
        <time>2016-05-06T10:05:02Z</time>
      </trkpt>
      <trkpt lat="42.48702" lon="1.48647">
        <ele>1111.32</ele>
        <time>2016-05-06T10:05:22Z</time>
      </trkpt>
      <trkpt lat="42.48703" lon="1.48653">
        <ele>1109.231</ele>
        <time>2016-05-06T10:05:42Z</time>
      </trkpt>
      <trkpt lat="42.48703" lon="1.48659">
        <ele>1107.029</ele>
        <time>2016-05-06T10:06:02Z</time>
      </trkpt>
      <trkpt lat="42.48702" lon="1.48664">
        <ele>1105.087</ele>
        <time>2016-05-06T10:06:22Z</time>
      </trkpt>
      <trkpt lat="42.48703" lon="1.48673">
        <ele>1101.045</ele>
        <time>2016-05-06T10:06:42Z</time>
      </trkpt>
      <trkpt lat="42.48702" lon="1.48678">
        <ele>1098.447</ele>
        <time>2016-05-06T10:07:02Z</time>
      </trkpt>
      <trkpt lat="42.487" lon="1.48684">
        <ele>1095.011</ele>
        <time>2016-05-06T10:07:22Z</time>
      </trkpt>
      <trkpt lat="42.48697" lon="1.48689">
        <ele>1092.108</ele>
        <time>2016-05-06T10:07:42Z</time>
      </trkpt>
      <trkpt lat="42.48694" lon="1.48696">
        <ele>1089.115</ele>
        <time>2016-05-06T10:08:02Z</time>
      </trkpt>
      <trkpt lat="42.48679" lon="1.48719">
        <ele>1088.957</ele>
        <time>2016-05-06T10:08:22Z</time>
      </trkpt>
      <trkpt lat="42.4867" lon="1.4873">
        <ele>1089.095</ele>
        <time>2016-05-06T10:08:42Z</time>
      </trkpt>
      <trkpt lat="42.48664" lon="1.48759">
        <ele>1079.093</ele>
        <time>2016-05-06T10:09:02Z</time>
      </trkpt>
      <trkpt lat="42.48666" lon="1.48768">
        <ele>1073.791</ele>
        <time>2016-05-06T10:09:22Z</time>
      </trkpt>
      <trkpt lat="42.4866" lon="1.48778">
        <ele>1070.932</ele>
        <time>2016-05-06T10:09:42Z</time>
      </trkpt>
      <trkpt lat="42.48663" lon="1.48781">
        <ele>1069.04</ele>
        <time>2016-05-06T10:10:02Z</time>
      </trkpt>
      <trkpt lat="42.48657" lon="1.4879">
        <ele>1067.318</ele>
        <time>2016-05-06T10:10:22Z</time>
      </trkpt>
      <trkpt lat="42.48657" lon="1.48805">
        <ele>1061.176</ele>
        <time>2016-05-06T10:10:42Z</time>
      </trkpt>
      <trkpt lat="42.48652" lon="1.48822">
        <ele>1055.49</ele>
        <time>2016-05-06T10:11:02Z</time>
      </trkpt>
      <trkpt lat="42.48643" lon="1.4883">
        <ele>1054.419</ele>
        <time>2016-05-06T10:11:22Z</time>
      </trkpt>
      <trkpt lat="42.48633" lon="1.48834">
        <ele>1054.508</ele>
        <time>2016-05-06T10:11:42Z</time>
      </trkpt>
      <trkpt lat="42.48648" lon="1.48838">
        <ele>1049.388</ele>
        <time>2016-05-06T10:12:02Z</time>
      </trkpt>
      <trkpt lat="42.48653" lon="1.48834">
        <ele>1049.58</ele>
        <time>2016-05-06T10:12:22Z</time>
      </trkpt>
      <trkpt lat="42.48669" lon="1.48837">
        <ele>1043.838</ele>
        <time>2016-05-06T10:12:42Z</time>
      </trkpt>
      <trkpt lat="42.4868" lon="1.48831">
        <ele>1043.086</ele>
        <time>2016-05-06T10:13:02Z</time>
      </trkpt>
      <trkpt lat="42.48682" lon="1.48834">
        <ele>1041.674</ele>
        <time>2016-05-06T10:13:22Z</time>
      </trkpt>
      <trkpt lat="42.48678" lon="1.4884">
        <ele>1040.185</ele>
        <time>2016-05-06T10:13:42Z</time>
      </trkpt>
      <trkpt lat="42.48676" lon="1.48846">
        <ele>1038.563</ele>
        <time>2016-05-06T10:14:02Z</time>
      </trkpt>
      <trkpt lat="42.48672" lon="1.48854">
        <ele>1035.771</ele>
        <time>2016-05-06T10:14:22Z</time>
      </trkpt>
      <trkpt lat="42.48667" lon="1.48866">
        <ele>1031.168</ele>
        <time>2016-05-06T10:14:42Z</time>
      </trkpt>
      <trkpt lat="42.48662" lon="1.48874">
        <ele>1029.342</ele>
        <time>2016-05-06T10:15:02Z</time>
      </trkpt>
      <trkpt lat="42.48657" lon="1.4888">
        <ele>1027.526</ele>
        <time>2016-05-06T10:15:22Z</time>
      </trkpt>
      <trkpt lat="42.48653" lon="1.48886">
        <ele>1025.208</ele>
        <time>2016-05-06T10:15:42Z</time>
      </trkpt>
      <trkpt lat="42.48645" lon="1.48896">
        <ele>1022.157</ele>
        <time>2016-05-06T10:16:02Z</time>
      </trkpt>
      <trkpt lat="42.48643" lon="1.48902">
        <ele>1020.229</ele>
        <time>2016-05-06T10:16:22Z</time>
      </trkpt>
      <trkpt lat="42.48637" lon="1.48906">
        <ele>1018.517</ele>
        <time>2016-05-06T10:16:42Z</time>
      </trkpt>
      <trkpt lat="42.48632" lon="1.48911">
        <ele>1016.575</ele>
        <time>2016-05-06T10:17:02Z</time>
      </trkpt>
      <trkpt lat="42.48624" lon="1.48918">
        <ele>1013.893</ele>
        <time>2016-05-06T10:17:22Z</time>
      </trkpt>
      <trkpt lat="42.48618" lon="1.48923">
        <ele>1012.664</ele>
        <time>2016-05-06T10:17:42Z</time>
      </trkpt>
      <trkpt lat="42.48612" lon="1.48931">
        <ele>1010.022</ele>
        <time>2016-05-06T10:18:02Z</time>
      </trkpt>
      <trkpt lat="42.48633" lon="1.48944">
        <ele>1011.44</ele>
        <time>2016-05-06T10:18:22Z</time>
      </trkpt>
      <trkpt lat="42.48659" lon="1.48971">
        <ele>1013.322</ele>
        <time>2016-05-06T10:18:42Z</time>
      </trkpt>
      <trkpt lat="42.48668" lon="1.48981">
        <ele>1012.962</ele>
        <time>2016-05-06T10:19:02Z</time>
      </trkpt>
      <trkpt lat="42.48695" lon="1.49008">
        <ele>1013.508</ele>
        <time>2016-05-06T10:19:22Z</time>
      </trkpt>
      <trkpt lat="42.4873" lon="1.49012">
        <ele>1015.908</ele>
        <time>2016-05-06T10:19:42Z</time>
      </trkpt>
      <trkpt lat="42.48745" lon="1.49012">
        <ele>1018.983</ele>
        <time>2016-05-06T10:20:02Z</time>
      </trkpt>
      <trkpt lat="42.48751" lon="1.49022">
        <ele>1017.755</ele>
        <time>2016-05-06T10:20:22Z</time>
      </trkpt>
      <trkpt lat="42.48754" lon="1.49025">
        <ele>1017.763</ele>
        <time>2016-05-06T10:20:42Z</time>
      </trkpt>
      <trkpt lat="42.4876" lon="1.49031">
        <ele>1017.891</ele>
        <time>2016-05-06T10:21:02Z</time>
      </trkpt>
      <trkpt lat="42.48765" lon="1.49036">
        <ele>1018.289</ele>
        <time>2016-05-06T10:21:22Z</time>
      </trkpt>
      <trkpt lat="42.48769" lon="1.49042">
        <ele>1018.71</ele>
        <time>2016-05-06T10:21:42Z</time>
      </trkpt>
      <trkpt lat="42.48774" lon="1.49046">
        <ele>1020.078</ele>
        <time>2016-05-06T10:22:02Z</time>
      </trkpt>
      <trkpt lat="42.48777" lon="1.49051">
        <ele>1021.266</ele>
        <time>2016-05-06T10:22:22Z</time>
      </trkpt>
      <trkpt lat="42.48783" lon="1.49057">
        <ele>1020.886</ele>
        <time>2016-05-06T10:22:42Z</time>
      </trkpt>
      <trkpt lat="42.48787" lon="1.49062">
        <ele>1019.16</ele>
        <time>2016-05-06T10:23:02Z</time>
      </trkpt>
      <trkpt lat="42.48791" lon="1.49063">
        <ele>1018.726</ele>
        <time>2016-05-06T10:23:22Z</time>
      </trkpt>
      <trkpt lat="42.48793" lon="1.4906">
        <ele>1019.908</ele>
        <time>2016-05-06T10:23:42Z</time>
      </trkpt>
      <trkpt lat="42.48796" lon="1.4906">
        <ele>1020.199</ele>
        <time>2016-05-06T10:24:02Z</time>
      </trkpt>
      <trkpt lat="42.48801" lon="1.49061">
        <ele>1019.941</ele>
        <time>2016-05-06T10:24:22Z</time>
      </trkpt>
      <trkpt lat="42.48805" lon="1.49063">
        <ele>1019.099</ele>
        <time>2016-05-06T10:24:42Z</time>
      </trkpt>
      <trkpt lat="42.4881" lon="1.49064">
        <ele>1018.827</ele>
        <time>2016-05-06T10:25:02Z</time>
      </trkpt>
      <trkpt lat="42.48813" lon="1.49066">
        <ele>1018.565</ele>
        <time>2016-05-06T10:25:22Z</time>
      </trkpt>
      <trkpt lat="42.48819" lon="1.49067">
        <ele>1018.616</ele>
        <time>2016-05-06T10:25:42Z</time>
      </trkpt>
      <trkpt lat="42.48823" lon="1.49067">
        <ele>1018.934</ele>
        <time>2016-05-06T10:26:02Z</time>
      </trkpt>
      <trkpt lat="42.48826" lon="1.49068">
        <ele>1018.982</ele>
        <time>2016-05-06T10:26:22Z</time>
      </trkpt>
      <trkpt lat="42.48827" lon="1.49075">
        <ele>1016.624</ele>
        <time>2016-05-06T10:26:42Z</time>
      </trkpt>
      <trkpt lat="42.48827" lon="1.4908">
        <ele>1015.104</ele>
        <time>2016-05-06T10:27:02Z</time>
      </trkpt>
      <trkpt lat="42.48821" lon="1.49082">
        <ele>1013.814</ele>
        <time>2016-05-06T10:27:22Z</time>
      </trkpt>
      <trkpt lat="42.48816" lon="1.49082">
        <ele>1012.908</ele>
        <time>2016-05-06T10:27:42Z</time>
      </trkpt>
      <trkpt lat="42.48813" lon="1.49082">
        <ele>1012.653</ele>
        <time>2016-05-06T10:28:02Z</time>
      </trkpt>
      <trkpt lat="42.4881" lon="1.49083">
        <ele>1011.985</ele>
        <time>2016-05-06T10:28:22Z</time>
      </trkpt>
      <trkpt lat="42.48806" lon="1.49083">
        <ele>1011.463</ele>
        <time>2016-05-06T10:28:42Z</time>
      </trkpt>
      <trkpt lat="42.48802" lon="1.49084">
        <ele>1010.871</ele>
        <time>2016-05-06T10:29:02Z</time>
      </trkpt>
      <trkpt lat="42.488" lon="1.49086">
        <ele>1009.819</ele>
        <time>2016-05-06T10:29:22Z</time>
      </trkpt>
      <trkpt lat="42.48796" lon="1.49087">
        <ele>1009.45</ele>
        <time>2016-05-06T10:29:42Z</time>
      </trkpt>
      <trkpt lat="42.48793" lon="1.49087">
        <ele>1009.648</ele>
        <time>2016-05-06T10:30:02Z</time>
      </trkpt>
      <trkpt lat="42.4879" lon="1.49088">
        <ele>1009.346</ele>
        <time>2016-05-06T10:30:22Z</time>
      </trkpt>
      <trkpt lat="42.48787" lon="1.49093">
        <ele>1007.174</ele>
        <time>2016-05-06T10:30:42Z</time>
      </trkpt>
      <trkpt lat="42.48785" lon="1.49097">
        <ele>1005.356</ele>
        <time>2016-05-06T10:31:02Z</time>
      </trkpt>
      <trkpt lat="42.48782" lon="1.49103">
        <ele>1003.121</ele>
        <time>2016-05-06T10:31:22Z</time>
      </trkpt>
      <trkpt lat="42.48783" lon="1.49106">
        <ele>1001.508</ele>
        <time>2016-05-06T10:31:42Z</time>
      </trkpt>
      <trkpt lat="42.48782" lon="1.4911">
        <ele>1000.168</ele>
        <time>2016-05-06T10:32:02Z</time>
      </trkpt>
      <trkpt lat="42.48779" lon="1.4911">
        <ele>1000.21</ele>
        <time>2016-05-06T10:32:22Z</time>
      </trkpt>
      <trkpt lat="42.48776" lon="1.49114">
        <ele>998.638</ele>
        <time>2016-05-06T10:32:42Z</time>
      </trkpt>
      <trkpt lat="42.48774" lon="1.49119">
        <ele>996.116</ele>
        <time>2016-05-06T10:33:02Z</time>
      </trkpt>
      <trkpt lat="42.48773" lon="1.49124">
        <ele>993.914</ele>
        <time>2016-05-06T10:33:22Z</time>
      </trkpt>
      <trkpt lat="42.48771" lon="1.49128">
        <ele>992.365</ele>
        <time>2016-05-06T10:33:42Z</time>
      </trkpt>
      <trkpt lat="42.48767" lon="1.4913">
        <ele>991.253</ele>
        <time>2016-05-06T10:34:02Z</time>
      </trkpt>
      <trkpt lat="42.48763" lon="1.49133">
        <ele>990.191</ele>
        <time>2016-05-06T10:34:22Z</time>
      </trkpt>
      <trkpt lat="42.48759" lon="1.49132">
        <ele>990.442</ele>
        <time>2016-05-06T10:34:42Z</time>
      </trkpt>
      <trkpt lat="42.48757" lon="1.49127">
        <ele>992.022</ele>
        <time>2016-05-06T10:35:02Z</time>
      </trkpt>
      <trkpt lat="42.48754" lon="1.49122">
        <ele>993.214</ele>
        <time>2016-05-06T10:35:22Z</time>
      </trkpt>
      <trkpt lat="42.4875" lon="1.49118">
        <ele>994.008</ele>
        <time>2016-05-06T10:35:42Z</time>
      </trkpt>
      <trkpt lat="42.48746" lon="1.49116">
        <ele>993.515</ele>
        <time>2016-05-06T10:36:02Z</time>
      </trkpt>
      <trkpt lat="42.48742" lon="1.49113">
        <ele>993.227</ele>
        <time>2016-05-06T10:36:22Z</time>
      </trkpt>
      <trkpt lat="42.48739" lon="1.49108">
        <ele>993.585</ele>
        <time>2016-05-06T10:36:42Z</time>
      </trkpt>
      <trkpt lat="42.48736" lon="1.49106">
        <ele>993.093</ele>
        <time>2016-05-06T10:37:02Z</time>
      </trkpt>
      <trkpt lat="42.48732" lon="1.49105">
        <ele>992.181</ele>
        <time>2016-05-06T10:37:22Z</time>
      </trkpt>
      <trkpt lat="42.48728" lon="1.49104">
        <ele>991.192</ele>
        <time>2016-05-06T10:37:42Z</time>
      </trkpt>
      <trkpt lat="42.48724" lon="1.49105">
        <ele>989.79</ele>
        <time>2016-05-06T10:38:02Z</time>
      </trkpt>
      <trkpt lat="42.4872" lon="1.49106">
        <ele>988.878</ele>
        <time>2016-05-06T10:38:22Z</time>
      </trkpt>
      <trkpt lat="42.48716" lon="1.49105">
        <ele>988.678</ele>
        <time>2016-05-06T10:38:42Z</time>
      </trkpt>
      <trkpt lat="42.48713" lon="1.49105">
        <ele>988.533</ele>
        <time>2016-05-06T10:39:02Z</time>
      </trkpt>
      <trkpt lat="42.48711" lon="1.49108">
        <ele>987.426</ele>
        <time>2016-05-06T10:39:22Z</time>
      </trkpt>
      <trkpt lat="42.48709" lon="1.49112">
        <ele>986.408</ele>
        <time>2016-05-06T10:39:42Z</time>
      </trkpt>
      <trkpt lat="42.48704" lon="1.49115">
        <ele>985.088</ele>
        <time>2016-05-06T10:40:02Z</time>
      </trkpt>
      <trkpt lat="42.48699" lon="1.49119">
        <ele>983.69</ele>
        <time>2016-05-06T10:40:22Z</time>
      </trkpt>
      <trkpt lat="42.48696" lon="1.49119">
        <ele>983.358</ele>
        <time>2016-05-06T10:40:42Z</time>
      </trkpt>
      <trkpt lat="42.48695" lon="1.4912">
        <ele>982.856</ele>
        <time>2016-05-06T10:41:02Z</time>
      </trkpt>
      <trkpt lat="42.48694" lon="1.49125">
        <ele>981.514</ele>
        <time>2016-05-06T10:41:22Z</time>
      </trkpt>
      <trkpt lat="42.48692" lon="1.49132">
        <ele>980.035</ele>
        <time>2016-05-06T10:41:42Z</time>
      </trkpt>
      <trkpt lat="42.48692" lon="1.49136">
        <ele>978.973</ele>
        <time>2016-05-06T10:42:02Z</time>
      </trkpt>
      <trkpt lat="42.48691" lon="1.4914">
        <ele>977.921</ele>
        <time>2016-05-06T10:42:22Z</time>
      </trkpt>
      <trkpt lat="42.48691" lon="1.49145">
        <ele>976.741</ele>
        <time>2016-05-06T10:42:42Z</time>
      </trkpt>
      <trkpt lat="42.48691" lon="1.49149">
        <ele>975.381</ele>
        <time>2016-05-06T10:43:02Z</time>
      </trkpt>
      <trkpt lat="42.4869" lon="1.49154">
        <ele>974.009</ele>
        <time>2016-05-06T10:43:22Z</time>
      </trkpt>
      <trkpt lat="42.48691" lon="1.49161">
        <ele>972.108</ele>
        <time>2016-05-06T10:43:42Z</time>
      </trkpt>
      <trkpt lat="42.4869" lon="1.49166">
        <ele>970.695</ele>
        <time>2016-05-06T10:44:02Z</time>
      </trkpt>
      <trkpt lat="42.4869" lon="1.49171">
        <ele>969.477</ele>
        <time>2016-05-06T10:44:22Z</time>
      </trkpt>
      <trkpt lat="42.48689" lon="1.49177">
        <ele>968.345</ele>
        <time>2016-05-06T10:44:42Z</time>
      </trkpt>
      <trkpt lat="42.48689" lon="1.49181">
        <ele>967.453</ele>
        <time>2016-05-06T10:45:02Z</time>
      </trkpt>
      <trkpt lat="42.48688" lon="1.49185">
        <ele>966.721</ele>
        <time>2016-05-06T10:45:22Z</time>
      </trkpt>
      <trkpt lat="42.48686" lon="1.49189">
        <ele>966.062</ele>
        <time>2016-05-06T10:45:42Z</time>
      </trkpt>
      <trkpt lat="42.48686" lon="1.49193">
        <ele>965.31</ele>
        <time>2016-05-06T10:46:02Z</time>
      </trkpt>
      <trkpt lat="42.48685" lon="1.49197">
        <ele>964.658</ele>
        <time>2016-05-06T10:46:22Z</time>
      </trkpt>
      <trkpt lat="42.48683" lon="1.49202">
        <ele>964.175</ele>
        <time>2016-05-06T10:46:42Z</time>
      </trkpt>
      <trkpt lat="42.48682" lon="1.49208">
        <ele>963.128</ele>
        <time>2016-05-06T10:47:02Z</time>
      </trkpt>
      <trkpt lat="42.4868" lon="1.49215">
        <ele>962.32</ele>
        <time>2016-05-06T10:47:22Z</time>
      </trkpt>
      <trkpt lat="42.4868" lon="1.49222">
        <ele>961.108</ele>
        <time>2016-05-06T10:47:42Z</time>
      </trkpt>
      <trkpt lat="42.48679" lon="1.49228">
        <ele>960.448</ele>
        <time>2016-05-06T10:48:02Z</time>
      </trkpt>
      <trkpt lat="42.48676" lon="1.49233">
        <ele>960.01</ele>
        <time>2016-05-06T10:48:22Z</time>
      </trkpt>
      <trkpt lat="42.48675" lon="1.49238">
        <ele>959.398</ele>
        <time>2016-05-06T10:48:42Z</time>
      </trkpt>
      <trkpt lat="42.48673" lon="1.49241">
        <ele>959.076</ele>
        <time>2016-05-06T10:49:02Z</time>
      </trkpt>
      <trkpt lat="42.48671" lon="1.49248">
        <ele>958.134</ele>
        <time>2016-05-06T10:49:22Z</time>
      </trkpt>
      <trkpt lat="42.48668" lon="1.49252">
        <ele>957.655</ele>
        <time>2016-05-06T10:49:42Z</time>
      </trkpt>
      <trkpt lat="42.48667" lon="1.4926">
        <ele>956.613</ele>
        <time>2016-05-06T10:50:02Z</time>
      </trkpt>
      <trkpt lat="42.48666" lon="1.49267">
        <ele>955.621</ele>
        <time>2016-05-06T10:50:22Z</time>
      </trkpt>
      <trkpt lat="42.48665" lon="1.49279">
        <ele>954.025</ele>
        <time>2016-05-06T10:50:42Z</time>
      </trkpt>
      <trkpt lat="42.48657" lon="1.49275">
        <ele>954.426</ele>
        <time>2016-05-06T10:51:02Z</time>
      </trkpt>
      <trkpt lat="42.48649" lon="1.49273">
        <ele>954.708</ele>
        <time>2016-05-06T10:51:22Z</time>
      </trkpt>
      <trkpt lat="42.48644" lon="1.49271">
        <ele>955.008</ele>
        <time>2016-05-06T10:51:42Z</time>
      </trkpt>
      <trkpt lat="42.48638" lon="1.49268">
        <ele>955.373</ele>
        <time>2016-05-06T10:52:02Z</time>
      </trkpt>
      <trkpt lat="42.48629" lon="1.49264">
        <ele>955.355</ele>
        <time>2016-05-06T10:52:22Z</time>
      </trkpt>
      <trkpt lat="42.48623" lon="1.49263">
        <ele>954.973</ele>
        <time>2016-05-06T10:52:42Z</time>
      </trkpt>
      <trkpt lat="42.48616" lon="1.49261">
        <ele>954.611</ele>
        <time>2016-05-06T10:53:02Z</time>
      </trkpt>
      <trkpt lat="42.4861" lon="1.49259">
        <ele>954.359</ele>
        <time>2016-05-06T10:53:22Z</time>
      </trkpt>
      <trkpt lat="42.48605" lon="1.49256">
        <ele>954.06</ele>
        <time>2016-05-06T10:53:42Z</time>
      </trkpt>
      <trkpt lat="42.486" lon="1.49254">
        <ele>953.868</ele>
        <time>2016-05-06T10:54:02Z</time>
      </trkpt>
      <trkpt lat="42.48594" lon="1.49252">
        <ele>953.656</ele>
        <time>2016-05-06T10:54:22Z</time>
      </trkpt>
      <trkpt lat="42.48588" lon="1.4925">
        <ele>953.497</ele>
        <time>2016-05-06T10:54:42Z</time>
      </trkpt>
      <trkpt lat="42.48581" lon="1.49247">
        <ele>953.423</ele>
        <time>2016-05-06T10:55:02Z</time>
      </trkpt>
      <trkpt lat="42.48574" lon="1.49244">
        <ele>953.225</ele>
        <time>2016-05-06T10:55:22Z</time>
      </trkpt>
      <trkpt lat="42.48567" lon="1.4924">
        <ele>953.008</ele>
        <time>2016-05-06T10:55:42Z</time>
      </trkpt>
      <trkpt lat="42.48561" lon="1.49238">
        <ele>952.57</ele>
        <time>2016-05-06T10:56:02Z</time>
      </trkpt>
      <trkpt lat="42.48548" lon="1.49232">
        <ele>951.952</ele>
        <time>2016-05-06T10:56:22Z</time>
      </trkpt>
      <trkpt lat="42.48541" lon="1.4923">
        <ele>951.67</ele>
        <time>2016-05-06T10:56:42Z</time>
      </trkpt>
      <trkpt lat="42.48537" lon="1.49227">
        <ele>951.468</ele>
        <time>2016-05-06T10:57:02Z</time>
      </trkpt>
      <trkpt lat="42.48532" lon="1.49224">
        <ele>951.296</ele>
        <time>2016-05-06T10:57:22Z</time>
      </trkpt>
      <trkpt lat="42.48523" lon="1.49217">
        <ele>950.897</ele>
        <time>2016-05-06T10:57:42Z</time>
      </trkpt>
      <trkpt lat="42.48518" lon="1.49214">
        <ele>950.535</ele>
        <time>2016-05-06T10:58:02Z</time>
      </trkpt>
      <trkpt lat="42.48512" lon="1.49208">
        <ele>950.323</ele>
        <time>2016-05-06T10:58:22Z</time>
      </trkpt>
      <trkpt lat="42.48507" lon="1.49204">
        <ele>950.171</ele>
        <time>2016-05-06T10:58:42Z</time>
      </trkpt>
      <trkpt lat="42.48503" lon="1.492">
        <ele>949.941</ele>
        <time>2016-05-06T10:59:02Z</time>
      </trkpt>
      <trkpt lat="42.48501" lon="1.49196">
        <ele>950.015</ele>
        <time>2016-05-06T10:59:22Z</time>
      </trkpt>
      <trkpt lat="42.48499" lon="1.49189">
        <ele>950.708</ele>
        <time>2016-05-06T10:59:42Z</time>
      </trkpt>
      <trkpt lat="42.48497" lon="1.49185">
        <ele>951.138</ele>
        <time>2016-05-06T11:00:02Z</time>
      </trkpt>
      <trkpt lat="42.48494" lon="1.49181">
        <ele>951.41</ele>
        <time>2016-05-06T11:00:22Z</time>
      </trkpt>
      <trkpt lat="42.48492" lon="1.49176">
        <ele>951.668</ele>
        <time>2016-05-06T11:00:42Z</time>
      </trkpt>
      <trkpt lat="42.48488" lon="1.49172">
        <ele>951.726</ele>
        <time>2016-05-06T11:01:02Z</time>
      </trkpt>
      <trkpt lat="42.48485" lon="1.49169">
        <ele>951.524</ele>
        <time>2016-05-06T11:01:22Z</time>
      </trkpt>
      <trkpt lat="42.48481" lon="1.49166">
        <ele>951.365</ele>
        <time>2016-05-06T11:01:42Z</time>
      </trkpt>
      <trkpt lat="42.48476" lon="1.49163">
        <ele>951.093</ele>
        <time>2016-05-06T11:02:02Z</time>
      </trkpt>
      <trkpt lat="42.48474" lon="1.49158">
        <ele>951.391</ele>
        <time>2016-05-06T11:02:22Z</time>
      </trkpt>
      <trkpt lat="42.4847" lon="1.49154">
        <ele>951.121</ele>
        <time>2016-05-06T11:02:42Z</time>
      </trkpt>
      <trkpt lat="42.48468" lon="1.4915">
        <ele>951.041</ele>
        <time>2016-05-06T11:03:02Z</time>
      </trkpt>
      <trkpt lat="42.48468" lon="1.49148">
        <ele>951.305</ele>
        <time>2016-05-06T11:03:22Z</time>
      </trkpt>
      <trkpt lat="42.48466" lon="1.49145">
        <ele>951.208</ele>
        <time>2016-05-06T11:03:42Z</time>
      </trkpt>
      <trkpt lat="42.48463" lon="1.49141">
        <ele>951.143</ele>
        <time>2016-05-06T11:04:02Z</time>
      </trkpt>
      <trkpt lat="42.4846" lon="1.49137">
        <ele>950.975</ele>
        <time>2016-05-06T11:04:22Z</time>
      </trkpt>
      <trkpt lat="42.48458" lon="1.49133">
        <ele>950.873</ele>
        <time>2016-05-06T11:04:42Z</time>
      </trkpt>
      <trkpt lat="42.48456" lon="1.49129">
        <ele>950.751</ele>
        <time>2016-05-06T11:05:02Z</time>
      </trkpt>
      <trkpt lat="42.48453" lon="1.49126">
        <ele>950.479</ele>
        <time>2016-05-06T11:05:22Z</time>
      </trkpt>
      <trkpt lat="42.48452" lon="1.49121">
        <ele>950.31</ele>
        <time>2016-05-06T11:05:42Z</time>
      </trkpt>
      <trkpt lat="42.4845" lon="1.49116">
        <ele>950.178</ele>
        <time>2016-05-06T11:06:02Z</time>
      </trkpt>
      <trkpt lat="42.48448" lon="1.49113">
        <ele>949.946</ele>
        <time>2016-05-06T11:06:22Z</time>
      </trkpt>
      <trkpt lat="42.48448" lon="1.4911">
        <ele>949.827</ele>
        <time>2016-05-06T11:06:42Z</time>
      </trkpt>
      <trkpt lat="42.48446" lon="1.49105">
        <ele>949.368</ele>
        <time>2016-05-06T11:07:02Z</time>
      </trkpt>
      <trkpt lat="42.48443" lon="1.49101">
        <ele>948.914</ele>
        <time>2016-05-06T11:07:22Z</time>
      </trkpt>
      <trkpt lat="42.4844" lon="1.49098">
        <ele>948.508</ele>
        <time>2016-05-06T11:07:42Z</time>
      </trkpt>
      <trkpt lat="42.48436" lon="1.49095">
        <ele>948.063</ele>
        <time>2016-05-06T11:08:02Z</time>
      </trkpt>
      <trkpt lat="42.48433" lon="1.49094">
        <ele>947.685</ele>
        <time>2016-05-06T11:08:22Z</time>
      </trkpt>
      <trkpt lat="42.48429" lon="1.49091">
        <ele>947.273</ele>
        <time>2016-05-06T11:08:42Z</time>
      </trkpt>
      <trkpt lat="42.48424" lon="1.49088">
        <ele>946.741</ele>
        <time>2016-05-06T11:09:02Z</time>
      </trkpt>
      <trkpt lat="42.48419" lon="1.49079">
        <ele>946.349</ele>
        <time>2016-05-06T11:09:22Z</time>
      </trkpt>
      <trkpt lat="42.48416" lon="1.49072">
        <ele>945.81</ele>
        <time>2016-05-06T11:09:42Z</time>
      </trkpt>
      <trkpt lat="42.48414" lon="1.49067">
        <ele>945.538</ele>
        <time>2016-05-06T11:10:02Z</time>
      </trkpt>
      <trkpt lat="42.48412" lon="1.49062">
        <ele>945.256</ele>
        <time>2016-05-06T11:10:22Z</time>
      </trkpt>
      <trkpt lat="42.4841" lon="1.49057">
        <ele>944.816</ele>
        <time>2016-05-06T11:10:42Z</time>
      </trkpt>
      <trkpt lat="42.48407" lon="1.4905">
        <ele>944.676</ele>
        <time>2016-05-06T11:11:02Z</time>
      </trkpt>
      <trkpt lat="42.48404" lon="1.49043">
        <ele>944.613</ele>
        <time>2016-05-06T11:11:22Z</time>
      </trkpt>
      <trkpt lat="42.48401" lon="1.49039">
        <ele>944.208</ele>
        <time>2016-05-06T11:11:42Z</time>
      </trkpt>
      <trkpt lat="42.48395" lon="1.49029">
        <ele>943.692</ele>
        <time>2016-05-06T11:12:02Z</time>
      </trkpt>
      <trkpt lat="42.48391" lon="1.49018">
        <ele>943.154</ele>
        <time>2016-05-06T11:12:22Z</time>
      </trkpt>
      <trkpt lat="42.48387" lon="1.49009">
        <ele>943.232</ele>
        <time>2016-05-06T11:12:42Z</time>
      </trkpt>
      <trkpt lat="42.48381" lon="1.48999">
        <ele>943.23</ele>
        <time>2016-05-06T11:13:02Z</time>
      </trkpt>
      <trkpt lat="42.48375" lon="1.48993">
        <ele>942.618</ele>
        <time>2016-05-06T11:13:22Z</time>
      </trkpt>
      <trkpt lat="42.4837" lon="1.48992">
        <ele>942.299</ele>
        <time>2016-05-06T11:13:42Z</time>
      </trkpt>
      <trkpt lat="42.48366" lon="1.48996">
        <ele>941.637</ele>
        <time>2016-05-06T11:14:02Z</time>
      </trkpt>
      <trkpt lat="42.48361" lon="1.48999">
        <ele>941.075</ele>
        <time>2016-05-06T11:14:22Z</time>
      </trkpt>
      <trkpt lat="42.48358" lon="1.49004">
        <ele>940.593</ele>
        <time>2016-05-06T11:14:42Z</time>
      </trkpt>
      <trkpt lat="42.48356" lon="1.49008">
        <ele>940.265</ele>
        <time>2016-05-06T11:15:02Z</time>
      </trkpt>
      <trkpt lat="42.48353" lon="1.49012">
        <ele>939.921</ele>
        <time>2016-05-06T11:15:22Z</time>
      </trkpt>
      <trkpt lat="42.48351" lon="1.49019">
        <ele>939.708</ele>
        <time>2016-05-06T11:15:42Z</time>
      </trkpt>
      <trkpt lat="42.48347" lon="1.49021">
        <ele>939.59</ele>
        <time>2016-05-06T11:16:02Z</time>
      </trkpt>
      <trkpt lat="42.48346" lon="1.49025">
        <ele>939.542</ele>
        <time>2016-05-06T11:16:22Z</time>
      </trkpt>
      <trkpt lat="42.48345" lon="1.49028">
        <ele>939.56</ele>
        <time>2016-05-06T11:16:42Z</time>
      </trkpt>
      <trkpt lat="42.48342" lon="1.49031">
        <ele>939.798</ele>
        <time>2016-05-06T11:17:02Z</time>
      </trkpt>
      <trkpt lat="42.48348" lon="1.49042">
        <ele>940.776</ele>
        <time>2016-05-06T11:17:22Z</time>
      </trkpt>
      <trkpt lat="42.48355" lon="1.49046">
        <ele>940.567</ele>
        <time>2016-05-06T11:17:42Z</time>
      </trkpt>
      <trkpt lat="42.48361" lon="1.49049">
        <ele>940.025</ele>
        <time>2016-05-06T11:18:02Z</time>
      </trkpt>
      <trkpt lat="42.48367" lon="1.49053">
        <ele>940.243</ele>
        <time>2016-05-06T11:18:22Z</time>
      </trkpt>
      <trkpt lat="42.48371" lon="1.49053">
        <ele>940.492</ele>
        <time>2016-05-06T11:18:42Z</time>
      </trkpt>
      <trkpt lat="42.48375" lon="1.49056">
        <ele>940.573</ele>
        <time>2016-05-06T11:19:02Z</time>
      </trkpt>
      <trkpt lat="42.4838" lon="1.4906">
        <ele>940.92</ele>
        <time>2016-05-06T11:19:22Z</time>
      </trkpt>
      <trkpt lat="42.48385" lon="1.49068">
        <ele>941.108</ele>
        <time>2016-05-06T11:19:42Z</time>
      </trkpt>
      <trkpt lat="42.48386" lon="1.49074">
        <ele>941.24</ele>
        <time>2016-05-06T11:20:02Z</time>
      </trkpt>
      <trkpt lat="42.48387" lon="1.49078">
        <ele>941.292</ele>
        <time>2016-05-06T11:20:22Z</time>
      </trkpt>
      <trkpt lat="42.48389" lon="1.49086">
        <ele>941.16</ele>
        <time>2016-05-06T11:20:42Z</time>
      </trkpt>
      <trkpt lat="42.48385" lon="1.49085">
        <ele>941.648</ele>
        <time>2016-05-06T11:21:02Z</time>
      </trkpt>
      <trkpt lat="42.48381" lon="1.49085">
        <ele>942.036</ele>
        <time>2016-05-06T11:21:22Z</time>
      </trkpt>
      <trkpt lat="42.48378" lon="1.49083">
        <ele>942.247</ele>
        <time>2016-05-06T11:21:42Z</time>
      </trkpt>
      <trkpt lat="42.48375" lon="1.49084">
        <ele>942.815</ele>
        <time>2016-05-06T11:22:02Z</time>
      </trkpt>
      <trkpt lat="42.48373" lon="1.49086">
        <ele>943.443</ele>
        <time>2016-05-06T11:22:22Z</time>
      </trkpt>
      <trkpt lat="42.48379" lon="1.49098">
        <ele>944.516</ele>
        <time>2016-05-06T11:22:42Z</time>
      </trkpt>
      <trkpt lat="42.48381" lon="1.49104">
        <ele>944.776</ele>
        <time>2016-05-06T11:23:02Z</time>
      </trkpt>
      <trkpt lat="42.48384" lon="1.49112">
        <ele>943.813</ele>
        <time>2016-05-06T11:23:22Z</time>
      </trkpt>
      <trkpt lat="42.48386" lon="1.49117">
        <ele>943.708</ele>
        <time>2016-05-06T11:23:42Z</time>
      </trkpt>
      <trkpt lat="42.48387" lon="1.49123">
        <ele>943.562</ele>
        <time>2016-05-06T11:24:02Z</time>
      </trkpt>
      <trkpt lat="42.48388" lon="1.49127">
        <ele>943.424</ele>
        <time>2016-05-06T11:24:22Z</time>
      </trkpt>
      <trkpt lat="42.48388" lon="1.49131">
        <ele>943.842</ele>
        <time>2016-05-06T11:24:42Z</time>
      </trkpt>
      <trkpt lat="42.48389" lon="1.49135">
        <ele>943.86</ele>
        <time>2016-05-06T11:25:02Z</time>
      </trkpt>
      <trkpt lat="42.48389" lon="1.49139">
        <ele>944.278</ele>
        <time>2016-05-06T11:25:22Z</time>
      </trkpt>
      <trkpt lat="42.48388" lon="1.49143">
        <ele>945.259</ele>
        <time>2016-05-06T11:25:42Z</time>
      </trkpt>
      <trkpt lat="42.48389" lon="1.49147">
        <ele>945.137</ele>
        <time>2016-05-06T11:26:02Z</time>
      </trkpt>
      <trkpt lat="42.4839" lon="1.4915">
        <ele>945.655</ele>
        <time>2016-05-06T11:26:22Z</time>
      </trkpt>
      <trkpt lat="42.4839" lon="1.49153">
        <ele>946.094</ele>
        <time>2016-05-06T11:26:42Z</time>
      </trkpt>
      <trkpt lat="42.48391" lon="1.49158">
        <ele>946.557</ele>
        <time>2016-05-06T11:27:02Z</time>
      </trkpt>
      <trkpt lat="42.48392" lon="1.49162">
        <ele>946.922</ele>
        <time>2016-05-06T11:27:22Z</time>
      </trkpt>
      <trkpt lat="42.48393" lon="1.49166">
        <ele>947.308</ele>
        <time>2016-05-06T11:27:42Z</time>
      </trkpt>
      <trkpt lat="42.48394" lon="1.4917">
        <ele>947.73</ele>
        <time>2016-05-06T11:28:02Z</time>
      </trkpt>
      <trkpt lat="42.48394" lon="1.49173">
        <ele>948.142</ele>
        <time>2016-05-06T11:28:22Z</time>
      </trkpt>
      <trkpt lat="42.48395" lon="1.49177">
        <ele>948.61</ele>
        <time>2016-05-06T11:28:42Z</time>
      </trkpt>
      <trkpt lat="42.48395" lon="1.4918">
        <ele>949.018</ele>
        <time>2016-05-06T11:29:02Z</time>
      </trkpt>
      <trkpt lat="42.48395" lon="1.49184">
        <ele>949.566</ele>
        <time>2016-05-06T11:29:22Z</time>
      </trkpt>
      <trkpt lat="42.48396" lon="1.49188">
        <ele>949.967</ele>
        <time>2016-05-06T11:29:42Z</time>
      </trkpt>
      <trkpt lat="42.48397" lon="1.49191">
        <ele>950.315</ele>
        <time>2016-05-06T11:30:02Z</time>
      </trkpt>
      <trkpt lat="42.48397" lon="1.49194">
        <ele>950.763</ele>
        <time>2016-05-06T11:30:22Z</time>
      </trkpt>
      <trkpt lat="42.48397" lon="1.49198">
        <ele>951.451</ele>
        <time>2016-05-06T11:30:42Z</time>
      </trkpt>
      <trkpt lat="42.48399" lon="1.49202">
        <ele>951.801</ele>
        <time>2016-05-06T11:31:02Z</time>
      </trkpt>
      <trkpt lat="42.48401" lon="1.49205">
        <ele>951.611</ele>
        <time>2016-05-06T11:31:22Z</time>
      </trkpt>
      <trkpt lat="42.48402" lon="1.49208">
        <ele>951.608</ele>
        <time>2016-05-06T11:31:42Z</time>
      </trkpt>
      <trkpt lat="42.48405" lon="1.49212">
        <ele>950.916</ele>
        <time>2016-05-06T11:32:02Z</time>
      </trkpt>
      <trkpt lat="42.48407" lon="1.49214">
        <ele>950.258</ele>
        <time>2016-05-06T11:32:22Z</time>
      </trkpt>
      <trkpt lat="42.48411" lon="1.49221">
        <ele>948.376</ele>
        <time>2016-05-06T11:32:42Z</time>
      </trkpt>
      <trkpt lat="42.48415" lon="1.49224">
        <ele>946.664</ele>
        <time>2016-05-06T11:33:02Z</time>
      </trkpt>
      <trkpt lat="42.48417" lon="1.4923">
        <ele>946.462</ele>
        <time>2016-05-06T11:33:22Z</time>
      </trkpt>
      <trkpt lat="42.48424" lon="1.49239">
        <ele>947.323</ele>
        <time>2016-05-06T11:33:42Z</time>
      </trkpt>
      <trkpt lat="42.48429" lon="1.49245">
        <ele>947.331</ele>
        <time>2016-05-06T11:34:02Z</time>
      </trkpt>
      <trkpt lat="42.48432" lon="1.4925">
        <ele>947.329</ele>
        <time>2016-05-06T11:34:22Z</time>
      </trkpt>
      <trkpt lat="42.48435" lon="1.49255">
        <ele>947.649</ele>
        <time>2016-05-06T11:34:42Z</time>
      </trkpt>
      <trkpt lat="42.48438" lon="1.49262">
        <ele>947.902</ele>
        <time>2016-05-06T11:35:02Z</time>
      </trkpt>
      <trkpt lat="42.48443" lon="1.49269">
        <ele>946.922</ele>
        <time>2016-05-06T11:35:22Z</time>
      </trkpt>
      <trkpt lat="42.48448" lon="1.49275">
        <ele>946.608</ele>
        <time>2016-05-06T11:35:42Z</time>
      </trkpt>
      <trkpt lat="42.48453" lon="1.49282">
        <ele>947.195</ele>
        <time>2016-05-06T11:36:02Z</time>
      </trkpt>
      <trkpt lat="42.48459" lon="1.49292">
        <ele>948.157</ele>
        <time>2016-05-06T11:36:22Z</time>
      </trkpt>
      <trkpt lat="42.48466" lon="1.49301">
        <ele>947.965</ele>
        <time>2016-05-06T11:36:42Z</time>
      </trkpt>
      <trkpt lat="42.48472" lon="1.49308">
        <ele>947.373</ele>
        <time>2016-05-06T11:37:02Z</time>
      </trkpt>
      <trkpt lat="42.48478" lon="1.49316">
        <ele>947.581</ele>
        <time>2016-05-06T11:37:22Z</time>
      </trkpt>
      <trkpt lat="42.48484" lon="1.49324">
        <ele>947.412</ele>
        <time>2016-05-06T11:37:42Z</time>
      </trkpt>
      <trkpt lat="42.48486" lon="1.4933">
        <ele>947.34</ele>
        <time>2016-05-06T11:38:02Z</time>
      </trkpt>
      <trkpt lat="42.48492" lon="1.49338">
        <ele>947.018</ele>
        <time>2016-05-06T11:38:22Z</time>
      </trkpt>
      <trkpt lat="42.48498" lon="1.49347">
        <ele>946.936</ele>
        <time>2016-05-06T11:38:42Z</time>
      </trkpt>
      <trkpt lat="42.48505" lon="1.49357">
        <ele>947.117</ele>
        <time>2016-05-06T11:39:02Z</time>
      </trkpt>
      <trkpt lat="42.48506" lon="1.49366">
        <ele>948.118</ele>
        <time>2016-05-06T11:39:22Z</time>
      </trkpt>
      <trkpt lat="42.48504" lon="1.49372">
        <ele>949.308</ele>
        <time>2016-05-06T11:39:42Z</time>
      </trkpt>
      <trkpt lat="42.48508" lon="1.49381">
        <ele>949.674</ele>
        <time>2016-05-06T11:40:02Z</time>
      </trkpt>
      <trkpt lat="42.48512" lon="1.49401">
        <ele>952.826</ele>
        <time>2016-05-06T11:40:22Z</time>
      </trkpt>
      <trkpt lat="42.48521" lon="1.49413">
        <ele>952.274</ele>
        <time>2016-05-06T11:40:42Z</time>
      </trkpt>
      <trkpt lat="42.48528" lon="1.49423">
        <ele>952.432</ele>
        <time>2016-05-06T11:41:02Z</time>
      </trkpt>
      <trkpt lat="42.48535" lon="1.4943">
        <ele>953.52</ele>
        <time>2016-05-06T11:41:22Z</time>
      </trkpt>
      <trkpt lat="42.48545" lon="1.49441">
        <ele>954.211</ele>
        <time>2016-05-06T11:41:42Z</time>
      </trkpt>
      <trkpt lat="42.4855" lon="1.49447">
        <ele>954.359</ele>
        <time>2016-05-06T11:42:02Z</time>
      </trkpt>
      <trkpt lat="42.48557" lon="1.49456">
        <ele>954.797</ele>
        <time>2016-05-06T11:42:22Z</time>
      </trkpt>
      <trkpt lat="42.48564" lon="1.49467">
        <ele>955.782</ele>
        <time>2016-05-06T11:42:42Z</time>
      </trkpt>
      <trkpt lat="42.48575" lon="1.49476">
        <ele>955.143</ele>
        <time>2016-05-06T11:43:02Z</time>
      </trkpt>
      <trkpt lat="42.48584" lon="1.49486">
        <ele>956.217</ele>
        <time>2016-05-06T11:43:22Z</time>
      </trkpt>
      <trkpt lat="42.48593" lon="1.49495">
        <ele>956.708</ele>
        <time>2016-05-06T11:43:42Z</time>
      </trkpt>
      <trkpt lat="42.4861" lon="1.49505">
        <ele>955.239</ele>
        <time>2016-05-06T11:44:02Z</time>
      </trkpt>
      <trkpt lat="42.48622" lon="1.49519">
        <ele>959.251</ele>
        <time>2016-05-06T11:44:22Z</time>
      </trkpt>
      <trkpt lat="42.48629" lon="1.49523">
        <ele>959.279</ele>
        <time>2016-05-06T11:44:42Z</time>
      </trkpt>
      <trkpt lat="42.48634" lon="1.49528">
        <ele>959.657</ele>
        <time>2016-05-06T11:45:02Z</time>
      </trkpt>
      <trkpt lat="42.48639" lon="1.49532">
        <ele>959.775</ele>
        <time>2016-05-06T11:45:22Z</time>
      </trkpt>
      <trkpt lat="42.48644" lon="1.49536">
        <ele>961.086</ele>
        <time>2016-05-06T11:45:42Z</time>
      </trkpt>
      <trkpt lat="42.48648" lon="1.49541">
        <ele>962.494</ele>
        <time>2016-05-06T11:46:02Z</time>
      </trkpt>
      <trkpt lat="42.48652" lon="1.49545">
        <ele>963.512</ele>
        <time>2016-05-06T11:46:22Z</time>
      </trkpt>
      <trkpt lat="42.48659" lon="1.49549">
        <ele>964.047</ele>
        <time>2016-05-06T11:46:42Z</time>
      </trkpt>
      <trkpt lat="42.48667" lon="1.49556">
        <ele>965.129</ele>
        <time>2016-05-06T11:47:02Z</time>
      </trkpt>
      <trkpt lat="42.48674" lon="1.49557">
        <ele>965.821</ele>
        <time>2016-05-06T11:47:22Z</time>
      </trkpt>
      <trkpt lat="42.48683" lon="1.49558">
        <ele>965.508</ele>
        <time>2016-05-06T11:47:42Z</time>
      </trkpt>
      <trkpt lat="42.48691" lon="1.49557">
        <ele>965.285</ele>
        <time>2016-05-06T11:48:02Z</time>
      </trkpt>
      <trkpt lat="42.48697" lon="1.49558">
        <ele>965.337</ele>
        <time>2016-05-06T11:48:22Z</time>
      </trkpt>
      <trkpt lat="42.48705" lon="1.49559">
        <ele>966.885</ele>
        <time>2016-05-06T11:48:42Z</time>
      </trkpt>
      <trkpt lat="42.48715" lon="1.49559">
        <ele>966.773</ele>
        <time>2016-05-06T11:49:02Z</time>
      </trkpt>
      <trkpt lat="42.48728" lon="1.49558">
        <ele>967.161</ele>
        <time>2016-05-06T11:49:22Z</time>
      </trkpt>
      <trkpt lat="42.48736" lon="1.49555">
        <ele>966.262</ele>
        <time>2016-05-06T11:49:42Z</time>
      </trkpt>
      <trkpt lat="42.48746" lon="1.49547">
        <ele>964.14</ele>
        <time>2016-05-06T11:50:02Z</time>
      </trkpt>
      <trkpt lat="42.48754" lon="1.49543">
        <ele>963.938</ele>
        <time>2016-05-06T11:50:22Z</time>
      </trkpt>
      <trkpt lat="42.48763" lon="1.49539">
        <ele>963.795</ele>
        <time>2016-05-06T11:50:42Z</time>
      </trkpt>
      <trkpt lat="42.48772" lon="1.49533">
        <ele>962.649</ele>
        <time>2016-05-06T11:51:02Z</time>
      </trkpt>
      <trkpt lat="42.4878" lon="1.49529">
        <ele>961.923</ele>
        <time>2016-05-06T11:51:22Z</time>
      </trkpt>
      <trkpt lat="42.48787" lon="1.49526">
        <ele>961.708</ele>
        <time>2016-05-06T11:51:42Z</time>
      </trkpt>
      <trkpt lat="42.48797" lon="1.49524">
        <ele>962.25</ele>
        <time>2016-05-06T11:52:02Z</time>
      </trkpt>
      <trkpt lat="42.48802" lon="1.49523">
        <ele>962.272</ele>
        <time>2016-05-06T11:52:22Z</time>
      </trkpt>
      <trkpt lat="42.48807" lon="1.49522">
        <ele>962.44</ele>
        <time>2016-05-06T11:52:42Z</time>
      </trkpt>
      <trkpt lat="42.48812" lon="1.49521">
        <ele>961.978</ele>
        <time>2016-05-06T11:53:02Z</time>
      </trkpt>
      <trkpt lat="42.48818" lon="1.49522">
        <ele>962.276</ele>
        <time>2016-05-06T11:53:22Z</time>
      </trkpt>
      <trkpt lat="42.48823" lon="1.49521">
        <ele>962.037</ele>
        <time>2016-05-06T11:53:42Z</time>
      </trkpt>
      <trkpt lat="42.48827" lon="1.49522">
        <ele>962.345</ele>
        <time>2016-05-06T11:54:02Z</time>
      </trkpt>
      <trkpt lat="42.48831" lon="1.49526">
        <ele>963.643</ele>
        <time>2016-05-06T11:54:22Z</time>
      </trkpt>
      <trkpt lat="42.48834" lon="1.49532">
        <ele>965.223</ele>
        <time>2016-05-06T11:54:42Z</time>
      </trkpt>
      <trkpt lat="42.48837" lon="1.49538">
        <ele>966.983</ele>
        <time>2016-05-06T11:55:02Z</time>
      </trkpt>
      <trkpt lat="42.48839" lon="1.49544">
        <ele>968.411</ele>
        <time>2016-05-06T11:55:22Z</time>
      </trkpt>
      <trkpt lat="42.48841" lon="1.49551">
        <ele>969.508</ele>
        <time>2016-05-06T11:55:42Z</time>
      </trkpt>
      <trkpt lat="42.48843" lon="1.49555">
        <ele>970.323</ele>
        <time>2016-05-06T11:56:02Z</time>
      </trkpt>
      <trkpt lat="42.48845" lon="1.49561">
        <ele>970.935</ele>
        <time>2016-05-06T11:56:22Z</time>
      </trkpt>
      <trkpt lat="42.48847" lon="1.49568">
        <ele>971.863</ele>
        <time>2016-05-06T11:56:42Z</time>
      </trkpt>
      <trkpt lat="42.48849" lon="1.49573">
        <ele>972.181</ele>
        <time>2016-05-06T11:57:02Z</time>
      </trkpt>
      <trkpt lat="42.48859" lon="1.4958">
        <ele>969.519</ele>
        <time>2016-05-06T11:57:22Z</time>
      </trkpt>
      <trkpt lat="42.48866" lon="1.49587">
        <ele>969.52</ele>
        <time>2016-05-06T11:57:42Z</time>
      </trkpt>
      <trkpt lat="42.48871" lon="1.49591">
        <ele>970.528</ele>
        <time>2016-05-06T11:58:02Z</time>
      </trkpt>
      <trkpt lat="42.48877" lon="1.49597">
        <ele>971.476</ele>
        <time>2016-05-06T11:58:22Z</time>
      </trkpt>
      <trkpt lat="42.48885" lon="1.49607">
        <ele>971.922</ele>
        <time>2016-05-06T11:58:42Z</time>
      </trkpt>
      <trkpt lat="42.48889" lon="1.49613">
        <ele>972.962</ele>
        <time>2016-05-06T11:59:02Z</time>
      </trkpt>
      <trkpt lat="42.48893" lon="1.49619">
        <ele>974.108</ele>
        <time>2016-05-06T11:59:22Z</time>
      </trkpt>
      <trkpt lat="42.48898" lon="1.49625">
        <ele>975.108</ele>
        <time>2016-05-06T11:59:42Z</time>
      </trkpt>
      <trkpt lat="42.48901" lon="1.49631">
        <ele>976.553</ele>
        <time>2016-05-06T12:00:02Z</time>
      </trkpt>
      <trkpt lat="42.48904" lon="1.49636">
        <ele>977.155</ele>
        <time>2016-05-06T12:00:22Z</time>
      </trkpt>
      <trkpt lat="42.4891" lon="1.49641">
        <ele>977.173</ele>
        <time>2016-05-06T12:00:42Z</time>
      </trkpt>
      <trkpt lat="42.4891" lon="1.49646">
        <ele>979.011</ele>
        <time>2016-05-06T12:01:02Z</time>
      </trkpt>
      <trkpt lat="42.48906" lon="1.49652">
        <ele>982.859</ele>
        <time>2016-05-06T12:01:22Z</time>
      </trkpt>
      <trkpt lat="42.48905" lon="1.49657">
        <ele>985.19</ele>
        <time>2016-05-06T12:01:42Z</time>
      </trkpt>
      <trkpt lat="42.48902" lon="1.49661">
        <ele>987.658</ele>
        <time>2016-05-06T12:02:02Z</time>
      </trkpt>
      <trkpt lat="42.48902" lon="1.49669">
        <ele>990.366</ele>
        <time>2016-05-06T12:02:22Z</time>
      </trkpt>
      <trkpt lat="42.48891" lon="1.49669">
        <ele>993.352</ele>
        <time>2016-05-06T12:02:42Z</time>
      </trkpt>
      <trkpt lat="42.48885" lon="1.49669">
        <ele>994.653</ele>
        <time>2016-05-06T12:03:02Z</time>
      </trkpt>
      <trkpt lat="42.48874" lon="1.49665">
        <ele>995.108</ele>
        <time>2016-05-06T12:03:22Z</time>
      </trkpt>
      <trkpt lat="42.48871" lon="1.49661">
        <ele>994.608</ele>
        <time>2016-05-06T12:03:42Z</time>
      </trkpt>
      <trkpt lat="42.48861" lon="1.49659">
        <ele>995.876</ele>
        <time>2016-05-06T12:04:02Z</time>
      </trkpt>
      <trkpt lat="42.4886" lon="1.49662">
        <ele>996.938</ele>
        <time>2016-05-06T12:04:22Z</time>
      </trkpt>
      <trkpt lat="42.48853" lon="1.49662">
        <ele>999.036</ele>
        <time>2016-05-06T12:04:42Z</time>
      </trkpt>
      <trkpt lat="42.48847" lon="1.4966">
        <ele>1000.524</ele>
        <time>2016-05-06T12:05:02Z</time>
      </trkpt>
      <trkpt lat="42.48844" lon="1.49661">
        <ele>1001.522</ele>
        <time>2016-05-06T12:05:22Z</time>
      </trkpt>
      <trkpt lat="42.48838" lon="1.49661">
        <ele>1003.323</ele>
        <time>2016-05-06T12:05:42Z</time>
      </trkpt>
      <trkpt lat="42.48833" lon="1.49659">
        <ele>1004.431</ele>
        <time>2016-05-06T12:06:02Z</time>
      </trkpt>
      <trkpt lat="42.48831" lon="1.49655">
        <ele>1004.969</ele>
        <time>2016-05-06T12:06:22Z</time>
      </trkpt>
      <trkpt lat="42.4883" lon="1.4965">
        <ele>1004.169</ele>
        <time>2016-05-06T12:06:42Z</time>
      </trkpt>
      <trkpt lat="42.48828" lon="1.49646">
        <ele>1004.604</ele>
        <time>2016-05-06T12:07:02Z</time>
      </trkpt>
      <trkpt lat="42.48827" lon="1.49643">
        <ele>1004.724</ele>
        <time>2016-05-06T12:07:22Z</time>
      </trkpt>
      <trkpt lat="42.48825" lon="1.49639">
        <ele>1004.708</ele>
        <time>2016-05-06T12:07:42Z</time>
      </trkpt>
      <trkpt lat="42.48821" lon="1.49636">
        <ele>1006.597</ele>
        <time>2016-05-06T12:08:02Z</time>
      </trkpt>
      <trkpt lat="42.4882" lon="1.49633">
        <ele>1006.769</ele>
        <time>2016-05-06T12:08:22Z</time>
      </trkpt>
      <trkpt lat="42.48816" lon="1.4963">
        <ele>1007.747</ele>
        <time>2016-05-06T12:08:42Z</time>
      </trkpt>
      <trkpt lat="42.48813" lon="1.49628">
        <ele>1009.325</ele>
        <time>2016-05-06T12:09:02Z</time>
      </trkpt>
      <trkpt lat="42.48809" lon="1.49626">
        <ele>1011.343</ele>
        <time>2016-05-06T12:09:22Z</time>
      </trkpt>
      <trkpt lat="42.48801" lon="1.49629">
        <ele>1014.744</ele>
        <time>2016-05-06T12:09:42Z</time>
      </trkpt>
      <trkpt lat="42.488" lon="1.49632">
        <ele>1015.912</ele>
        <time>2016-05-06T12:10:02Z</time>
      </trkpt>
      <trkpt lat="42.48799" lon="1.49634">
        <ele>1016.81</ele>
        <time>2016-05-06T12:10:22Z</time>
      </trkpt>
      <trkpt lat="42.48797" lon="1.49637">
        <ele>1018.026</ele>
        <time>2016-05-06T12:10:42Z</time>
      </trkpt>
      <trkpt lat="42.48795" lon="1.49639">
        <ele>1019.047</ele>
        <time>2016-05-06T12:11:02Z</time>
      </trkpt>
      <trkpt lat="42.48793" lon="1.4964">
        <ele>1019.811</ele>
        <time>2016-05-06T12:11:22Z</time>
      </trkpt>
      <trkpt lat="42.48788" lon="1.4964">
        <ele>1020.308</ele>
        <time>2016-05-06T12:11:42Z</time>
      </trkpt>
      <trkpt lat="42.48786" lon="1.49639">
        <ele>1020.283</ele>
        <time>2016-05-06T12:12:02Z</time>
      </trkpt>
      <trkpt lat="42.48781" lon="1.49638">
        <ele>1020.385</ele>
        <time>2016-05-06T12:12:22Z</time>
      </trkpt>
      <trkpt lat="42.48776" lon="1.49638">
        <ele>1019.853</ele>
        <time>2016-05-06T12:12:42Z</time>
      </trkpt>
      <trkpt lat="42.48773" lon="1.4964">
        <ele>1020.631</ele>
        <time>2016-05-06T12:13:02Z</time>
      </trkpt>
      <trkpt lat="42.4877" lon="1.49641">
        <ele>1020.629</ele>
        <time>2016-05-06T12:13:22Z</time>
      </trkpt>
      <trkpt lat="42.48768" lon="1.49642">
        <ele>1020.89</ele>
        <time>2016-05-06T12:13:42Z</time>
      </trkpt>
      <trkpt lat="42.48761" lon="1.49646">
        <ele>1021.818</ele>
        <time>2016-05-06T12:14:02Z</time>
      </trkpt>
      <trkpt lat="42.48754" lon="1.49649">
        <ele>1022.426</ele>
        <time>2016-05-06T12:14:22Z</time>
      </trkpt>
      <trkpt lat="42.4875" lon="1.49652">
        <ele>1023.618</ele>
        <time>2016-05-06T12:14:42Z</time>
      </trkpt>
      <trkpt lat="42.48742" lon="1.49658">
        <ele>1025.998</ele>
        <time>2016-05-06T12:15:02Z</time>
      </trkpt>
      <trkpt lat="42.48737" lon="1.4966">
        <ele>1026.017</ele>
        <time>2016-05-06T12:15:22Z</time>
      </trkpt>
      <trkpt lat="42.4873" lon="1.49665">
        <ele>1027.408</ele>
        <time>2016-05-06T12:15:42Z</time>
      </trkpt>
      <trkpt lat="42.48728" lon="1.49669">
        <ele>1029.542</ele>
        <time>2016-05-06T12:16:02Z</time>
      </trkpt>
      <trkpt lat="42.48724" lon="1.49673">
        <ele>1031.844</ele>
        <time>2016-05-06T12:16:22Z</time>
      </trkpt>
      <trkpt lat="42.48719" lon="1.49682">
        <ele>1036.892</ele>
        <time>2016-05-06T12:16:42Z</time>
      </trkpt>
      <trkpt lat="42.48716" lon="1.49687">
        <ele>1040.22</ele>
        <time>2016-05-06T12:17:02Z</time>
      </trkpt>
      <trkpt lat="42.48712" lon="1.49687">
        <ele>1039.378</ele>
        <time>2016-05-06T12:17:22Z</time>
      </trkpt>
      <trkpt lat="42.48707" lon="1.49688">
        <ele>1039.399</ele>
        <time>2016-05-06T12:17:42Z</time>
      </trkpt>
      <trkpt lat="42.48702" lon="1.49689">
        <ele>1038.927</ele>
        <time>2016-05-06T12:18:02Z</time>
      </trkpt>
      <trkpt lat="42.48695" lon="1.49691">
        <ele>1038.835</ele>
        <time>2016-05-06T12:18:22Z</time>
      </trkpt>
      <trkpt lat="42.48691" lon="1.49692">
        <ele>1039.095</ele>
        <time>2016-05-06T12:18:42Z</time>
      </trkpt>
      <trkpt lat="42.48683" lon="1.49693">
        <ele>1039.149</ele>
        <time>2016-05-06T12:19:02Z</time>
      </trkpt>
      <trkpt lat="42.48674" lon="1.49693">
        <ele>1038.623</ele>
        <time>2016-05-06T12:19:22Z</time>
      </trkpt>
      <trkpt lat="42.48667" lon="1.49698">
        <ele>1041.008</ele>
        <time>2016-05-06T12:19:42Z</time>
      </trkpt>
      <trkpt lat="42.4866" lon="1.49703">
        <ele>1042.88</ele>
        <time>2016-05-06T12:20:02Z</time>
      </trkpt>
      <trkpt lat="42.48655" lon="1.49705">
        <ele>1042.672</ele>
        <time>2016-05-06T12:20:22Z</time>
      </trkpt>
      <trkpt lat="42.4865" lon="1.49706">
        <ele>1042.03</ele>
        <time>2016-05-06T12:20:42Z</time>
      </trkpt>
      <trkpt lat="42.48646" lon="1.49707">
        <ele>1041.968</ele>
        <time>2016-05-06T12:21:02Z</time>
      </trkpt>
      <trkpt lat="42.4864" lon="1.49708">
        <ele>1041.156</ele>
        <time>2016-05-06T12:21:22Z</time>
      </trkpt>
      <trkpt lat="42.48636" lon="1.4971">
        <ele>1042.497</ele>
        <time>2016-05-06T12:21:42Z</time>
      </trkpt>
      <trkpt lat="42.48631" lon="1.49705">
        <ele>1041.335</ele>
        <time>2016-05-06T12:22:02Z</time>
      </trkpt>
      <trkpt lat="42.48626" lon="1.49702">
        <ele>1041.783</ele>
        <time>2016-05-06T12:22:22Z</time>
      </trkpt>
      <trkpt lat="42.48621" lon="1.49696">
        <ele>1041.097</ele>
        <time>2016-05-06T12:22:42Z</time>
      </trkpt>
      <trkpt lat="42.48617" lon="1.49694">
        <ele>1041.723</ele>
        <time>2016-05-06T12:23:02Z</time>
      </trkpt>
      <trkpt lat="42.48613" lon="1.49694">
        <ele>1043.125</ele>
        <time>2016-05-06T12:23:22Z</time>
      </trkpt>
      <trkpt lat="42.48608" lon="1.49693">
        <ele>1045.308</ele>
        <time>2016-05-06T12:23:42Z</time>
      </trkpt>
      <trkpt lat="42.48606" lon="1.49692">
        <ele>1046.36</ele>
        <time>2016-05-06T12:24:02Z</time>
      </trkpt>
      <trkpt lat="42.48601" lon="1.49692">
        <ele>1048.752</ele>
        <time>2016-05-06T12:24:22Z</time>
      </trkpt>
      <trkpt lat="42.48596" lon="1.4969">
        <ele>1051.09</ele>
        <time>2016-05-06T12:24:42Z</time>
      </trkpt>
      <trkpt lat="42.48588" lon="1.49686">
        <ele>1054.258</ele>
        <time>2016-05-06T12:25:02Z</time>
      </trkpt>
      <trkpt lat="42.48586" lon="1.4969">
        <ele>1056.496</ele>
        <time>2016-05-06T12:25:22Z</time>
      </trkpt>
      <trkpt lat="42.48585" lon="1.49695">
        <ele>1058.427</ele>
        <time>2016-05-06T12:25:42Z</time>
      </trkpt>
      <trkpt lat="42.48583" lon="1.49699">
        <ele>1060.955</ele>
        <time>2016-05-06T12:26:02Z</time>
      </trkpt>
      <trkpt lat="42.4858" lon="1.49705">
        <ele>1065.233</ele>
        <time>2016-05-06T12:26:22Z</time>
      </trkpt>
      <trkpt lat="42.48575" lon="1.49703">
        <ele>1067.086</ele>
        <time>2016-05-06T12:26:42Z</time>
      </trkpt>
      <trkpt lat="42.4857" lon="1.49702">
        <ele>1069.86</ele>
        <time>2016-05-06T12:27:02Z</time>
      </trkpt>
      <trkpt lat="42.48566" lon="1.49701">
        <ele>1071.026</ele>
        <time>2016-05-06T12:27:22Z</time>
      </trkpt>
      <trkpt lat="42.48561" lon="1.497">
        <ele>1073.508</ele>
        <time>2016-05-06T12:27:42Z</time>
      </trkpt>
      <trkpt lat="42.48559" lon="1.49698">
        <ele>1073.969</ele>
        <time>2016-05-06T12:28:02Z</time>
      </trkpt>
      <trkpt lat="42.48554" lon="1.49697">
        <ele>1075.561</ele>
        <time>2016-05-06T12:28:22Z</time>
      </trkpt>
      <trkpt lat="42.48548" lon="1.49697">
        <ele>1076.119</ele>
        <time>2016-05-06T12:28:42Z</time>
      </trkpt>
      <trkpt lat="42.48546" lon="1.49704">
        <ele>1080.027</ele>
        <time>2016-05-06T12:29:02Z</time>
      </trkpt>
      <trkpt lat="42.48544" lon="1.49708">
        <ele>1082.775</ele>
        <time>2016-05-06T12:29:22Z</time>
      </trkpt>
      <trkpt lat="42.48542" lon="1.49713">
        <ele>1085.476</ele>
        <time>2016-05-06T12:29:42Z</time>
      </trkpt>
      <trkpt lat="42.48541" lon="1.49718">
        <ele>1087.984</ele>
        <time>2016-05-06T12:30:02Z</time>
      </trkpt>
      <trkpt lat="42.4854" lon="1.49722">
        <ele>1090.022</ele>
        <time>2016-05-06T12:30:22Z</time>
      </trkpt>
      <trkpt lat="42.48539" lon="1.49724">
        <ele>1091.567</ele>
        <time>2016-05-06T12:30:42Z</time>
      </trkpt>
      <trkpt lat="42.48537" lon="1.49731">
        <ele>1095.981</ele>
        <time>2016-05-06T12:31:02Z</time>
      </trkpt>
      <trkpt lat="42.48534" lon="1.49737">
        <ele>1099.219</ele>
        <time>2016-05-06T12:31:22Z</time>
      </trkpt>
      <trkpt lat="42.48533" lon="1.4974">
        <ele>1101.608</ele>
        <time>2016-05-06T12:31:42Z</time>
      </trkpt>
      <trkpt lat="42.48532" lon="1.49746">
        <ele>1105.097</ele>
        <time>2016-05-06T12:32:02Z</time>
      </trkpt>
      <trkpt lat="42.48531" lon="1.4975">
        <ele>1107.319</ele>
        <time>2016-05-06T12:32:22Z</time>
      </trkpt>
      <trkpt lat="42.48532" lon="1.49756">
        <ele>1109.767</ele>
        <time>2016-05-06T12:32:42Z</time>
      </trkpt>
      <trkpt lat="42.48534" lon="1.4976">
        <ele>1111.595</ele>
        <time>2016-05-06T12:33:02Z</time>
      </trkpt>
      <trkpt lat="42.48535" lon="1.49764">
        <ele>1113.163</ele>
        <time>2016-05-06T12:33:22Z</time>
      </trkpt>
      <trkpt lat="42.48528" lon="1.49766">
        <ele>1116.134</ele>
        <time>2016-05-06T12:33:42Z</time>
      </trkpt>
      <trkpt lat="42.48524" lon="1.49769">
        <ele>1117.672</ele>
        <time>2016-05-06T12:34:02Z</time>
      </trkpt>
      <trkpt lat="42.48519" lon="1.49769">
        <ele>1117.31</ele>
        <time>2016-05-06T12:34:22Z</time>
      </trkpt>
      <trkpt lat="42.48516" lon="1.49776">
        <ele>1120.926</ele>
        <time>2016-05-06T12:34:42Z</time>
      </trkpt>
      <trkpt lat="42.48518" lon="1.4978">
        <ele>1123.147</ele>
        <time>2016-05-06T12:35:02Z</time>
      </trkpt>
      <trkpt lat="42.4852" lon="1.49783">
        <ele>1124.711</ele>
        <time>2016-05-06T12:35:22Z</time>
      </trkpt>
      <trkpt lat="42.48521" lon="1.49788">
        <ele>1127.408</ele>
        <time>2016-05-06T12:35:42Z</time>
      </trkpt>
      <trkpt lat="42.48524" lon="1.4979">
        <ele>1128.663</ele>
        <time>2016-05-06T12:36:02Z</time>
      </trkpt>
      <trkpt lat="42.48526" lon="1.49796">
        <ele>1131.455</ele>
        <time>2016-05-06T12:36:22Z</time>
      </trkpt>
      <trkpt lat="42.48529" lon="1.49799">
        <ele>1132.083</ele>
        <time>2016-05-06T12:36:42Z</time>
      </trkpt>
      <trkpt lat="42.48524" lon="1.49803">
        <ele>1135.021</ele>
        <time>2016-05-06T12:37:02Z</time>
      </trkpt>
      <trkpt lat="42.48523" lon="1.49804">
        <ele>1135.789</ele>
        <time>2016-05-06T12:37:22Z</time>
      </trkpt>
      <trkpt lat="42.48516" lon="1.49809">
        <ele>1139.73</ele>
        <time>2016-05-06T12:37:42Z</time>
      </trkpt>
      <trkpt lat="42.48513" lon="1.49811">
        <ele>1141.448</ele>
        <time>2016-05-06T12:38:02Z</time>
      </trkpt>
      <trkpt lat="42.4851" lon="1.49814">
        <ele>1143.496</ele>
        <time>2016-05-06T12:38:22Z</time>
      </trkpt>
      <trkpt lat="42.48506" lon="1.49818">
        <ele>1146.468</ele>
        <time>2016-05-06T12:38:42Z</time>
      </trkpt>
      <trkpt lat="42.48501" lon="1.49824">
        <ele>1151.142</ele>
        <time>2016-05-06T12:39:02Z</time>
      </trkpt>
      <trkpt lat="42.48498" lon="1.49827">
        <ele>1152.626</ele>
        <time>2016-05-06T12:39:22Z</time>
      </trkpt>
      <trkpt lat="42.48495" lon="1.49829">
        <ele>1152.908</ele>
        <time>2016-05-06T12:39:42Z</time>
      </trkpt>
      <trkpt lat="42.48493" lon="1.49833">
        <ele>1154.727</ele>
        <time>2016-05-06T12:40:02Z</time>
      </trkpt>
      <trkpt lat="42.4849" lon="1.49842">
        <ele>1157.829</ele>
        <time>2016-05-06T12:40:22Z</time>
      </trkpt>
      <trkpt lat="42.48486" lon="1.49852">
        <ele>1162.117</ele>
        <time>2016-05-06T12:40:42Z</time>
      </trkpt>
      <trkpt lat="42.48482" lon="1.49857">
        <ele>1163.815</ele>
        <time>2016-05-06T12:41:02Z</time>
      </trkpt>
      <trkpt lat="42.4848" lon="1.49864">
        <ele>1167.073</ele>
        <time>2016-05-06T12:41:22Z</time>
      </trkpt>
      <trkpt lat="42.48474" lon="1.49872">
        <ele>1169.434</ele>
        <time>2016-05-06T12:41:42Z</time>
      </trkpt>
      <trkpt lat="42.48472" lon="1.49879">
        <ele>1172.422</ele>
        <time>2016-05-06T12:42:02Z</time>
      </trkpt>
      <trkpt lat="42.4847" lon="1.49887">
        <ele>1175.15</ele>
        <time>2016-05-06T12:42:22Z</time>
      </trkpt>
      <trkpt lat="42.48467" lon="1.4989">
        <ele>1175.228</ele>
        <time>2016-05-06T12:42:42Z</time>
      </trkpt>
      <trkpt lat="42.48466" lon="1.49894">
        <ele>1175.989</ele>
        <time>2016-05-06T12:43:02Z</time>
      </trkpt>
      <trkpt lat="42.48466" lon="1.49902">
        <ele>1178.117</ele>
        <time>2016-05-06T12:43:22Z</time>
      </trkpt>
      <trkpt lat="42.48464" lon="1.49911">
        <ele>1178.808</ele>
        <time>2016-05-06T12:43:42Z</time>
      </trkpt>
      <trkpt lat="42.48465" lon="1.4992">
        <ele>1181.223</ele>
        <time>2016-05-06T12:44:02Z</time>
      </trkpt>
      <trkpt lat="42.48471" lon="1.49915">
        <ele>1184.665</ele>
        <time>2016-05-06T12:44:22Z</time>
      </trkpt>
      <trkpt lat="42.48478" lon="1.49912">
        <ele>1186.213</ele>
        <time>2016-05-06T12:44:42Z</time>
      </trkpt>
      <trkpt lat="42.48484" lon="1.49913">
        <ele>1188.221</ele>
        <time>2016-05-06T12:45:02Z</time>
      </trkpt>
      <trkpt lat="42.48488" lon="1.49914">
        <ele>1189.629</ele>
        <time>2016-05-06T12:45:22Z</time>
      </trkpt>
      <trkpt lat="42.48492" lon="1.49915">
        <ele>1190.86</ele>
        <time>2016-05-06T12:45:42Z</time>
      </trkpt>
      <trkpt lat="42.48496" lon="1.49915">
        <ele>1192.358</ele>
        <time>2016-05-06T12:46:02Z</time>
      </trkpt>
      <trkpt lat="42.485" lon="1.49921">
        <ele>1195.366</ele>
        <time>2016-05-06T12:46:22Z</time>
      </trkpt>
      <trkpt lat="42.48501" lon="1.49927">
        <ele>1197.283</ele>
        <time>2016-05-06T12:46:42Z</time>
      </trkpt>
      <trkpt lat="42.48501" lon="1.49935">
        <ele>1200.125</ele>
        <time>2016-05-06T12:47:02Z</time>
      </trkpt>
      <trkpt lat="42.485" lon="1.49941">
        <ele>1202.717</ele>
        <time>2016-05-06T12:47:22Z</time>
      </trkpt>
      <trkpt lat="42.485" lon="1.49945">
        <ele>1204.308</ele>
        <time>2016-05-06T12:47:42Z</time>
      </trkpt>
      <trkpt lat="42.48497" lon="1.49951">
        <ele>1205.079</ele>
        <time>2016-05-06T12:48:02Z</time>
      </trkpt>
      <trkpt lat="42.48497" lon="1.49952">
        <ele>1205.581</ele>
        <time>2016-05-06T12:48:22Z</time>
      </trkpt>
      <trkpt lat="42.48497" lon="1.49953">
        <ele>1205.639</ele>
        <time>2016-05-06T12:48:42Z</time>
      </trkpt>
      <trkpt lat="42.48497" lon="1.49956">
        <ele>1206.827</ele>
        <time>2016-05-06T12:49:02Z</time>
      </trkpt>
      <trkpt lat="42.48495" lon="1.49961">
        <ele>1207.545</ele>
        <time>2016-05-06T12:49:22Z</time>
      </trkpt>
      <trkpt lat="42.48502" lon="1.49967">
        <ele>1211.986</ele>
        <time>2016-05-06T12:49:42Z</time>
      </trkpt>
      <trkpt lat="42.48506" lon="1.49971">
        <ele>1212.624</ele>
        <time>2016-05-06T12:50:02Z</time>
      </trkpt>
      <trkpt lat="42.48512" lon="1.49975">
        <ele>1213.492</ele>
        <time>2016-05-06T12:50:22Z</time>
      </trkpt>
      <trkpt lat="42.48515" lon="1.49979">
        <ele>1214.462</ele>
        <time>2016-05-06T12:50:42Z</time>
      </trkpt>
      <trkpt lat="42.48522" lon="1.49982">
        <ele>1215.383</ele>
        <time>2016-05-06T12:51:02Z</time>
      </trkpt>
      <trkpt lat="42.48516" lon="1.49995">
        <ele>1221.111</ele>
        <time>2016-05-06T12:51:22Z</time>
      </trkpt>
      <trkpt lat="42.48514" lon="1.50005">
        <ele>1224.908</ele>
        <time>2016-05-06T12:51:42Z</time>
      </trkpt>
      <trkpt lat="42.48512" lon="1.50014">
        <ele>1228.797</ele>
        <time>2016-05-06T12:52:02Z</time>
      </trkpt>
      <trkpt lat="42.4851" lon="1.50022">
        <ele>1231.899</ele>
        <time>2016-05-06T12:52:22Z</time>
      </trkpt>
      <trkpt lat="42.48509" lon="1.50029">
        <ele>1234.647</ele>
        <time>2016-05-06T12:52:42Z</time>
      </trkpt>
      <trkpt lat="42.48508" lon="1.50035">
        <ele>1236.525</ele>
        <time>2016-05-06T12:53:02Z</time>
      </trkpt>
      <trkpt lat="42.48506" lon="1.50042">
        <ele>1238.873</ele>
        <time>2016-05-06T12:53:22Z</time>
      </trkpt>
      <trkpt lat="42.48505" lon="1.50047">
        <ele>1240.624</ele>
        <time>2016-05-06T12:53:42Z</time>
      </trkpt>
      <trkpt lat="42.48505" lon="1.50053">
        <ele>1242.532</ele>
        <time>2016-05-06T12:54:02Z</time>
      </trkpt>
      <trkpt lat="42.48504" lon="1.50061">
        <ele>1245.14</ele>
        <time>2016-05-06T12:54:22Z</time>
      </trkpt>
      <trkpt lat="42.48504" lon="1.50067">
        <ele>1247.497</ele>
        <time>2016-05-06T12:54:42Z</time>
      </trkpt>
      <trkpt lat="42.48504" lon="1.50071">
        <ele>1249.123</ele>
        <time>2016-05-06T12:55:02Z</time>
      </trkpt>
      <trkpt lat="42.48503" lon="1.50077">
        <ele>1251.025</ele>
        <time>2016-05-06T12:55:22Z</time>
      </trkpt>
      <trkpt lat="42.48503" lon="1.50081">
        <ele>1252.308</ele>
        <time>2016-05-06T12:55:42Z</time>
      </trkpt>
      <trkpt lat="42.485" lon="1.50089">
        <ele>1253.37</ele>
        <time>2016-05-06T12:56:02Z</time>
      </trkpt>
      <trkpt lat="42.48499" lon="1.50095">
        <ele>1254.592</ele>
        <time>2016-05-06T12:56:22Z</time>
      </trkpt>
      <trkpt lat="42.48498" lon="1.50098">
        <ele>1254.86</ele>
        <time>2016-05-06T12:56:42Z</time>
      </trkpt>
      <trkpt lat="42.48498" lon="1.50106">
        <ele>1257.458</ele>
        <time>2016-05-06T12:57:02Z</time>
      </trkpt>
      <trkpt lat="42.48498" lon="1.50111">
        <ele>1259.036</ele>
        <time>2016-05-06T12:57:22Z</time>
      </trkpt>
      <trkpt lat="42.48499" lon="1.50115">
        <ele>1260.347</ele>
        <time>2016-05-06T12:57:42Z</time>
      </trkpt>
      <trkpt lat="42.485" lon="1.50122">
        <ele>1262.975</ele>
        <time>2016-05-06T12:58:02Z</time>
      </trkpt>
      <trkpt lat="42.48499" lon="1.50129">
        <ele>1264.633</ele>
        <time>2016-05-06T12:58:22Z</time>
      </trkpt>
      <trkpt lat="42.48499" lon="1.50137">
        <ele>1266.948</ele>
        <time>2016-05-06T12:58:42Z</time>
      </trkpt>
      <trkpt lat="42.485" lon="1.50143">
        <ele>1270.061</ele>
        <time>2016-05-06T12:59:02Z</time>
      </trkpt>
      <trkpt lat="42.48497" lon="1.50151">
        <ele>1271.617</ele>
        <time>2016-05-06T12:59:22Z</time>
      </trkpt>
      <trkpt lat="42.48489" lon="1.50156">
        <ele>1270.408</ele>
        <time>2016-05-06T12:59:42Z</time>
      </trkpt>
      <trkpt lat="42.48481" lon="1.50158">
        <ele>1267.635</ele>
        <time>2016-05-06T13:00:02Z</time>
      </trkpt>
      <trkpt lat="42.48472" lon="1.50159">
        <ele>1263.917</ele>
        <time>2016-05-06T13:00:22Z</time>
      </trkpt>
      <trkpt lat="42.48466" lon="1.5016">
        <ele>1265.485</ele>
        <time>2016-05-06T13:00:42Z</time>
      </trkpt>
      <trkpt lat="42.4846" lon="1.50162">
        <ele>1267.313</ele>
        <time>2016-05-06T13:01:02Z</time>
      </trkpt>
      <trkpt lat="42.48459" lon="1.50162">
        <ele>1267.611</ele>
        <time>2016-05-06T13:01:22Z</time>
      </trkpt>
      <trkpt lat="42.48456" lon="1.50165">
        <ele>1269.252</ele>
        <time>2016-05-06T13:01:42Z</time>
      </trkpt>
      <trkpt lat="42.4845" lon="1.50166">
        <ele>1270.76</ele>
        <time>2016-05-06T13:02:02Z</time>
      </trkpt>
      <trkpt lat="42.48444" lon="1.50169">
        <ele>1273.798</ele>
        <time>2016-05-06T13:02:22Z</time>
      </trkpt>
      <trkpt lat="42.48438" lon="1.5017">
        <ele>1276.296</ele>
        <time>2016-05-06T13:02:42Z</time>
      </trkpt>
      <trkpt lat="42.48432" lon="1.50175">
        <ele>1280.231</ele>
        <time>2016-05-06T13:03:02Z</time>
      </trkpt>
      <trkpt lat="42.48427" lon="1.50177">
        <ele>1282.724</ele>
        <time>2016-05-06T13:03:22Z</time>
      </trkpt>
      <trkpt lat="42.4842" lon="1.50175">
        <ele>1284.408</ele>
        <time>2016-05-06T13:03:42Z</time>
      </trkpt>
      <trkpt lat="42.48415" lon="1.50175">
        <ele>1285.36</ele>
        <time>2016-05-06T13:04:02Z</time>
      </trkpt>
      <trkpt lat="42.48416" lon="1.50183">
        <ele>1288.392</ele>
        <time>2016-05-06T13:04:22Z</time>
      </trkpt>
      <trkpt lat="42.48416" lon="1.5019">
        <ele>1291.16</ele>
        <time>2016-05-06T13:04:42Z</time>
      </trkpt>
      <trkpt lat="42.48415" lon="1.50198">
        <ele>1294.818</ele>
        <time>2016-05-06T13:05:02Z</time>
      </trkpt>
      <trkpt lat="42.48412" lon="1.50204">
        <ele>1297.256</ele>
        <time>2016-05-06T13:05:22Z</time>
      </trkpt>
      <trkpt lat="42.48412" lon="1.50211">
        <ele>1300.377</ele>
        <time>2016-05-06T13:05:42Z</time>
      </trkpt>
      <trkpt lat="42.48406" lon="1.50218">
        <ele>1303.845</ele>
        <time>2016-05-06T13:06:02Z</time>
      </trkpt>
      <trkpt lat="42.48404" lon="1.50222">
        <ele>1305.713</ele>
        <time>2016-05-06T13:06:22Z</time>
      </trkpt>
      <trkpt lat="42.48405" lon="1.50225">
        <ele>1306.977</ele>
        <time>2016-05-06T13:06:42Z</time>
      </trkpt>
      <trkpt lat="42.48411" lon="1.50228">
        <ele>1308.061</ele>
        <time>2016-05-06T13:07:02Z</time>
      </trkpt>
      <trkpt lat="42.48415" lon="1.50234">
        <ele>1310.227</ele>
        <time>2016-05-06T13:07:22Z</time>
      </trkpt>
      <trkpt lat="42.48416" lon="1.50237">
        <ele>1311.508</ele>
        <time>2016-05-06T13:07:42Z</time>
      </trkpt>
      <trkpt lat="42.48415" lon="1.50239">
        <ele>1312.588</ele>
        <time>2016-05-06T13:08:02Z</time>
      </trkpt>
      <trkpt lat="42.48414" lon="1.50245">
        <ele>1314.92</ele>
        <time>2016-05-06T13:08:22Z</time>
      </trkpt>
      <trkpt lat="42.48414" lon="1.50248">
        <ele>1316.118</ele>
        <time>2016-05-06T13:08:42Z</time>
      </trkpt>
      <trkpt lat="42.48412" lon="1.50252">
        <ele>1318.326</ele>
        <time>2016-05-06T13:09:02Z</time>
      </trkpt>
      <trkpt lat="42.4841" lon="1.50255">
        <ele>1319.854</ele>
        <time>2016-05-06T13:09:22Z</time>
      </trkpt>
      <trkpt lat="42.48408" lon="1.50257">
        <ele>1320.845</ele>
        <time>2016-05-06T13:09:42Z</time>
      </trkpt>
      <trkpt lat="42.48404" lon="1.50257">
        <ele>1321.273</ele>
        <time>2016-05-06T13:10:02Z</time>
      </trkpt>
      <trkpt lat="42.48398" lon="1.50258">
        <ele>1321.611</ele>
        <time>2016-05-06T13:10:22Z</time>
      </trkpt>
      <trkpt lat="42.48393" lon="1.50258">
        <ele>1322.032</ele>
        <time>2016-05-06T13:10:42Z</time>
      </trkpt>
      <trkpt lat="42.48395" lon="1.50261">
        <ele>1323.092</ele>
        <time>2016-05-06T13:11:02Z</time>
      </trkpt>
      <trkpt lat="42.48399" lon="1.50264">
        <ele>1324.411</ele>
        <time>2016-05-06T13:11:22Z</time>
      </trkpt>
      <trkpt lat="42.48396" lon="1.50267">
        <ele>1325.708</ele>
        <time>2016-05-06T13:11:42Z</time>
      </trkpt>
      <trkpt lat="42.48397" lon="1.50271">
        <ele>1327.694</ele>
        <time>2016-05-06T13:12:02Z</time>
      </trkpt>
      <trkpt lat="42.48397" lon="1.50277">
        <ele>1329.756</ele>
        <time>2016-05-06T13:12:22Z</time>
      </trkpt>
      <trkpt lat="42.48394" lon="1.50281">
        <ele>1331.654</ele>
        <time>2016-05-06T13:12:42Z</time>
      </trkpt>
      <trkpt lat="42.48393" lon="1.50286">
        <ele>1333.892</ele>
        <time>2016-05-06T13:13:02Z</time>
      </trkpt>
      <trkpt lat="42.4839" lon="1.50289">
        <ele>1334.92</ele>
        <time>2016-05-06T13:13:22Z</time>
      </trkpt>
      <trkpt lat="42.4839" lon="1.50293">
        <ele>1336.661</ele>
        <time>2016-05-06T13:13:42Z</time>
      </trkpt>
      <trkpt lat="42.48387" lon="1.50296">
        <ele>1338.019</ele>
        <time>2016-05-06T13:14:02Z</time>
      </trkpt>
      <trkpt lat="42.48382" lon="1.50298">
        <ele>1338.837</ele>
        <time>2016-05-06T13:14:22Z</time>
      </trkpt>
      <trkpt lat="42.48381" lon="1.503">
        <ele>1339.724</ele>
        <time>2016-05-06T13:14:42Z</time>
      </trkpt>
      <trkpt lat="42.48378" lon="1.50302">
        <ele>1340.704</ele>
        <time>2016-05-06T13:15:02Z</time>
      </trkpt>
      <trkpt lat="42.48375" lon="1.50305">
        <ele>1341.614</ele>
        <time>2016-05-06T13:15:22Z</time>
      </trkpt>
      <trkpt lat="42.48373" lon="1.50307">
        <ele>1342.508</ele>
        <time>2016-05-06T13:15:42Z</time>
      </trkpt>
      <trkpt lat="42.48367" lon="1.50308">
        <ele>1342.833</ele>
        <time>2016-05-06T13:16:02Z</time>
      </trkpt>
      <trkpt lat="42.48361" lon="1.50308">
        <ele>1342.995</ele>
        <time>2016-05-06T13:16:22Z</time>
      </trkpt>
      <trkpt lat="42.48355" lon="1.50303">
        <ele>1344.893</ele>
        <time>2016-05-06T13:16:42Z</time>
      </trkpt>
      <trkpt lat="42.48349" lon="1.50298">
        <ele>1347.191</ele>
        <time>2016-05-06T13:17:02Z</time>
      </trkpt>
      <trkpt lat="42.48345" lon="1.50295">
        <ele>1348.419</ele>
        <time>2016-05-06T13:17:22Z</time>
      </trkpt>
      <trkpt lat="42.48343" lon="1.5029">
        <ele>1347.89</ele>
        <time>2016-05-06T13:17:42Z</time>
      </trkpt>
      <trkpt lat="42.48338" lon="1.50285">
        <ele>1349.748</ele>
        <time>2016-05-06T13:18:02Z</time>
      </trkpt>
      <trkpt lat="42.48332" lon="1.5028">
        <ele>1351.226</ele>
        <time>2016-05-06T13:18:22Z</time>
      </trkpt>
      <trkpt lat="42.48325" lon="1.5028">
        <ele>1354.574</ele>
        <time>2016-05-06T13:18:42Z</time>
      </trkpt>
      <trkpt lat="42.48312" lon="1.50281">
        <ele>1360.456</ele>
        <time>2016-05-06T13:19:02Z</time>
      </trkpt>
      <trkpt lat="42.4831" lon="1.5029">
        <ele>1364.621</ele>
        <time>2016-05-06T13:19:22Z</time>
      </trkpt>
      <trkpt lat="42.48314" lon="1.50296">
        <ele>1364.408</ele>
        <time>2016-05-06T13:19:42Z</time>
      </trkpt>
      <trkpt lat="42.48311" lon="1.50315">
        <ele>1372.228</ele>
        <time>2016-05-06T13:20:02Z</time>
      </trkpt>
      <trkpt lat="42.48314" lon="1.50329">
        <ele>1374.86</ele>
        <time>2016-05-06T13:20:22Z</time>
      </trkpt>
      <trkpt lat="42.48314" lon="1.50347">
        <ele>1380.528</ele>
        <time>2016-05-06T13:20:42Z</time>
      </trkpt>
      <trkpt lat="42.48316" lon="1.50363">
        <ele>1384.216</ele>
        <time>2016-05-06T13:21:02Z</time>
      </trkpt>
      <trkpt lat="42.48319" lon="1.50375">
        <ele>1386.094</ele>
        <time>2016-05-06T13:21:22Z</time>
      </trkpt>
      <trkpt lat="42.48312" lon="1.50384">
        <ele>1393.355</ele>
        <time>2016-05-06T13:21:42Z</time>
      </trkpt>
      <trkpt lat="42.48308" lon="1.5039">
        <ele>1397.943</ele>
        <time>2016-05-06T13:22:02Z</time>
      </trkpt>
      <trkpt lat="42.48293" lon="1.50386">
        <ele>1404.161</ele>
        <time>2016-05-06T13:22:22Z</time>
      </trkpt>
      <trkpt lat="42.48287" lon="1.5037">
        <ele>1403.458</ele>
        <time>2016-05-06T13:22:42Z</time>
      </trkpt>
      <trkpt lat="42.4828" lon="1.50365">
        <ele>1405.852</ele>
        <time>2016-05-06T13:23:02Z</time>
      </trkpt>
      <trkpt lat="42.48268" lon="1.50363">
        <ele>1412.217</ele>
        <time>2016-05-06T13:23:22Z</time>
      </trkpt>
      <trkpt lat="42.48267" lon="1.50373">
        <ele>1415.408</ele>
        <time>2016-05-06T13:23:42Z</time>
      </trkpt>
      <trkpt lat="42.4827" lon="1.50386">
        <ele>1416.986</ele>
        <time>2016-05-06T13:24:02Z</time>
      </trkpt>
      <trkpt lat="42.48269" lon="1.50397">
        <ele>1420.128</ele>
        <time>2016-05-06T13:24:22Z</time>
      </trkpt>
      <trkpt lat="42.48269" lon="1.50406">
        <ele>1422.416</ele>
        <time>2016-05-06T13:24:42Z</time>
      </trkpt>
      <trkpt lat="42.48263" lon="1.50415">
        <ele>1428.394</ele>
        <time>2016-05-06T13:25:02Z</time>
      </trkpt>
      <trkpt lat="42.48252" lon="1.50413">
        <ele>1434.162</ele>
        <time>2016-05-06T13:25:22Z</time>
      </trkpt>
      <trkpt lat="42.48239" lon="1.50413">
        <ele>1439.573</ele>
        <time>2016-05-06T13:25:42Z</time>
      </trkpt>
      <trkpt lat="42.48233" lon="1.5042">
        <ele>1444.191</ele>
        <time>2016-05-06T13:26:02Z</time>
      </trkpt>
      <trkpt lat="42.48237" lon="1.50429">
        <ele>1444.769</ele>
        <time>2016-05-06T13:26:22Z</time>
      </trkpt>
      <trkpt lat="42.48237" lon="1.50439">
        <ele>1447.352</ele>
        <time>2016-05-06T13:26:42Z</time>
      </trkpt>
      <trkpt lat="42.48234" lon="1.50449">
        <ele>1451.653</ele>
        <time>2016-05-06T13:27:02Z</time>
      </trkpt>
      <trkpt lat="42.48233" lon="1.50462">
        <ele>1455.708</ele>
        <time>2016-05-06T13:27:22Z</time>
      </trkpt>
      <trkpt lat="42.48231" lon="1.50474">
        <ele>1459.708</ele>
        <time>2016-05-06T13:27:42Z</time>
      </trkpt>
      <trkpt lat="42.48231" lon="1.50484">
        <ele>1461.586</ele>
        <time>2016-05-06T13:28:02Z</time>
      </trkpt>
      <trkpt lat="42.48221" lon="1.50489">
        <ele>1469.558</ele>
        <time>2016-05-06T13:28:22Z</time>
      </trkpt>
      <trkpt lat="42.48208" lon="1.50481">
        <ele>1473.746</ele>
        <time>2016-05-06T13:28:42Z</time>
      </trkpt>
      <trkpt lat="42.48212" lon="1.50491">
        <ele>1473.754</ele>
        <time>2016-05-06T13:29:02Z</time>
      </trkpt>
      <trkpt lat="42.48213" lon="1.50499">
        <ele>1474.932</ele>
        <time>2016-05-06T13:29:22Z</time>
      </trkpt>
      <trkpt lat="42.48209" lon="1.50517">
        <ele>1478.633</ele>
        <time>2016-05-06T13:29:42Z</time>
      </trkpt>
      <trkpt lat="42.48209" lon="1.50522">
        <ele>1479.261</ele>
        <time>2016-05-06T13:30:02Z</time>
      </trkpt>
      <trkpt lat="42.4821" lon="1.50532">
        <ele>1479.639</ele>
        <time>2016-05-06T13:30:22Z</time>
      </trkpt>
      <trkpt lat="42.48209" lon="1.50547">
        <ele>1481.479</ele>
        <time>2016-05-06T13:30:42Z</time>
      </trkpt>
      <trkpt lat="42.48197" lon="1.50542">
        <ele>1488.705</ele>
        <time>2016-05-06T13:31:02Z</time>
      </trkpt>
      <trkpt lat="42.48197" lon="1.50563">
        <ele>1491.825</ele>
        <time>2016-05-06T13:31:22Z</time>
      </trkpt>
      <trkpt lat="42.48195" lon="1.50574">
        <ele>1494.208</ele>
        <time>2016-05-06T13:31:42Z</time>
      </trkpt>
      <trkpt lat="42.48187" lon="1.5058">
        <ele>1499.498</ele>
        <time>2016-05-06T13:32:02Z</time>
      </trkpt>
      <trkpt lat="42.48181" lon="1.50588">
        <ele>1503.19</ele>
        <time>2016-05-06T13:32:22Z</time>
      </trkpt>
      <trkpt lat="42.4818" lon="1.50598">
        <ele>1504.668</ele>
        <time>2016-05-06T13:32:42Z</time>
      </trkpt>
      <trkpt lat="42.48175" lon="1.50603">
        <ele>1508.236</ele>
        <time>2016-05-06T13:33:02Z</time>
      </trkpt>
      <trkpt lat="42.48163" lon="1.50609">
        <ele>1516.484</ele>
        <time>2016-05-06T13:33:22Z</time>
      </trkpt>
      <trkpt lat="42.48162" lon="1.50614">
        <ele>1517.615</ele>
        <time>2016-05-06T13:33:42Z</time>
      </trkpt>
      <trkpt lat="42.48158" lon="1.50622">
        <ele>1520.313</ele>
        <time>2016-05-06T13:34:02Z</time>
      </trkpt>
      <trkpt lat="42.48154" lon="1.50631">
        <ele>1523.751</ele>
        <time>2016-05-06T13:34:22Z</time>
      </trkpt>
      <trkpt lat="42.48144" lon="1.50622">
        <ele>1527.222</ele>
        <time>2016-05-06T13:34:42Z</time>
      </trkpt>
      <trkpt lat="42.48144" lon="1.50627">
        <ele>1528.262</ele>
        <time>2016-05-06T13:35:02Z</time>
      </trkpt>
      <trkpt lat="42.48147" lon="1.50639">
        <ele>1528.908</ele>
        <time>2016-05-06T13:35:22Z</time>
      </trkpt>
      <trkpt lat="42.48143" lon="1.50644">
        <ele>1531.408</ele>
        <time>2016-05-06T13:35:42Z</time>
      </trkpt>
      <trkpt lat="42.4814" lon="1.50644">
        <ele>1533.053</ele>
        <time>2016-05-06T13:36:02Z</time>
      </trkpt>
      <trkpt lat="42.48135" lon="1.50652">
        <ele>1536.615</ele>
        <time>2016-05-06T13:36:22Z</time>
      </trkpt>
      <trkpt lat="42.48125" lon="1.50647">
        <ele>1540.873</ele>
        <time>2016-05-06T13:36:42Z</time>
      </trkpt>
      <trkpt lat="42.48131" lon="1.50659">
        <ele>1539.571</ele>
        <time>2016-05-06T13:37:02Z</time>
      </trkpt>
      <trkpt lat="42.48129" lon="1.50669">
        <ele>1542.489</ele>
        <time>2016-05-06T13:37:22Z</time>
      </trkpt>
      <trkpt lat="42.48121" lon="1.50671">
        <ele>1547.05</ele>
        <time>2016-05-06T13:37:42Z</time>
      </trkpt>
      <trkpt lat="42.4812" lon="1.50685">
        <ele>1550.328</ele>
        <time>2016-05-06T13:38:02Z</time>
      </trkpt>
      <trkpt lat="42.48112" lon="1.5069">
        <ele>1555.446</ele>
        <time>2016-05-06T13:38:22Z</time>
      </trkpt>
      <trkpt lat="42.4811" lon="1.50701">
        <ele>1558.875</ele>
        <time>2016-05-06T13:38:42Z</time>
      </trkpt>
      <trkpt lat="42.48105" lon="1.50688">
        <ele>1559.828</ele>
        <time>2016-05-06T13:39:02Z</time>
      </trkpt>
      <trkpt lat="42.48095" lon="1.5068">
        <ele>1564.22</ele>
        <time>2016-05-06T13:39:22Z</time>
      </trkpt>
      <trkpt lat="42.48094" lon="1.50693">
        <ele>1567.608</ele>
        <time>2016-05-06T13:39:42Z</time>
      </trkpt>
      <trkpt lat="42.48096" lon="1.50704">
        <ele>1568.658</ele>
        <time>2016-05-06T13:40:02Z</time>
      </trkpt>
      <trkpt lat="42.48088" lon="1.50712">
        <ele>1575.26</ele>
        <time>2016-05-06T13:40:22Z</time>
      </trkpt>
      <trkpt lat="42.48081" lon="1.50704">
        <ele>1578.678</ele>
        <time>2016-05-06T13:40:42Z</time>
      </trkpt>
      <trkpt lat="42.48076" lon="1.50693">
        <ele>1578.416</ele>
        <time>2016-05-06T13:41:02Z</time>
      </trkpt>
      <trkpt lat="42.4807" lon="1.50687">
        <ele>1581.364</ele>
        <time>2016-05-06T13:41:22Z</time>
      </trkpt>
      <trkpt lat="42.48068" lon="1.50703">
        <ele>1585.175</ele>
        <time>2016-05-06T13:41:42Z</time>
      </trkpt>
      <trkpt lat="42.48068" lon="1.50717">
        <ele>1587.843</ele>
        <time>2016-05-06T13:42:02Z</time>
      </trkpt>
      <trkpt lat="42.48068" lon="1.50728">
        <ele>1589.831</ele>
        <time>2016-05-06T13:42:22Z</time>
      </trkpt>
      <trkpt lat="42.48068" lon="1.50744">
        <ele>1592.652</ele>
        <time>2016-05-06T13:42:42Z</time>
      </trkpt>
      <trkpt lat="42.48061" lon="1.50748">
        <ele>1596.553</ele>
        <time>2016-05-06T13:43:02Z</time>
      </trkpt>
      <trkpt lat="42.48057" lon="1.50748">
        <ele>1597.908</ele>
        <time>2016-05-06T13:43:22Z</time>
      </trkpt>
      <trkpt lat="42.4806" lon="1.50762">
        <ele>1599.308</ele>
        <time>2016-05-06T13:43:42Z</time>
      </trkpt>
      <trkpt lat="42.48062" lon="1.50775">
        <ele>1600.996</ele>
        <time>2016-05-06T13:44:02Z</time>
      </trkpt>
      <trkpt lat="42.48067" lon="1.50782">
        <ele>1601.368</ele>
        <time>2016-05-06T13:44:22Z</time>
      </trkpt>
      <trkpt lat="42.48069" lon="1.50791">
        <ele>1602.876</ele>
        <time>2016-05-06T13:44:42Z</time>
      </trkpt>
      <trkpt lat="42.48073" lon="1.50799">
        <ele>1603.814</ele>
        <time>2016-05-06T13:45:02Z</time>
      </trkpt>
      <trkpt lat="42.48075" lon="1.50816">
        <ele>1607.922</ele>
        <time>2016-05-06T13:45:22Z</time>
      </trkpt>
      <trkpt lat="42.48086" lon="1.50829">
        <ele>1608.763</ele>
        <time>2016-05-06T13:45:42Z</time>
      </trkpt>
      <trkpt lat="42.48096" lon="1.50843">
        <ele>1611.411</ele>
        <time>2016-05-06T13:46:02Z</time>
      </trkpt>
      <trkpt lat="42.48092" lon="1.50853">
        <ele>1616.399</ele>
        <time>2016-05-06T13:46:22Z</time>
      </trkpt>
      <trkpt lat="42.48082" lon="1.50846">
        <ele>1616.523</ele>
        <time>2016-05-06T13:46:42Z</time>
      </trkpt>
      <trkpt lat="42.48075" lon="1.50837">
        <ele>1615.583</ele>
        <time>2016-05-06T13:47:02Z</time>
      </trkpt>
      <trkpt lat="42.48066" lon="1.50833">
        <ele>1617.011</ele>
        <time>2016-05-06T13:47:22Z</time>
      </trkpt>
      <trkpt lat="42.48058" lon="1.50828">
        <ele>1618.408</ele>
        <time>2016-05-06T13:47:42Z</time>
      </trkpt>
      <trkpt lat="42.48052" lon="1.50827">
        <ele>1620.143</ele>
        <time>2016-05-06T13:48:02Z</time>
      </trkpt>
      <trkpt lat="42.48045" lon="1.50822">
        <ele>1620.925</ele>
        <time>2016-05-06T13:48:22Z</time>
      </trkpt>
      <trkpt lat="42.48041" lon="1.50819">
        <ele>1621.513</ele>
        <time>2016-05-06T13:48:42Z</time>
      </trkpt>
      <trkpt lat="42.4803" lon="1.50816">
        <ele>1624.961</ele>
        <time>2016-05-06T13:49:02Z</time>
      </trkpt>
      <trkpt lat="42.48024" lon="1.5081">
        <ele>1623.719</ele>
        <time>2016-05-06T13:49:22Z</time>
      </trkpt>
      <trkpt lat="42.48016" lon="1.50806">
        <ele>1621.48</ele>
        <time>2016-05-06T13:49:42Z</time>
      </trkpt>
      <trkpt lat="42.48012" lon="1.50811">
        <ele>1622.128</ele>
        <time>2016-05-06T13:50:02Z</time>
      </trkpt>
      <trkpt lat="42.48009" lon="1.50817">
        <ele>1623.236</ele>
        <time>2016-05-06T13:50:22Z</time>
      </trkpt>
      <trkpt lat="42.48005" lon="1.50817">
        <ele>1622.249</ele>
        <time>2016-05-06T13:50:42Z</time>
      </trkpt>
      <trkpt lat="42.47999" lon="1.50818">
        <ele>1620.902</ele>
        <time>2016-05-06T13:51:02Z</time>
      </trkpt>
      <trkpt lat="42.47995" lon="1.50823">
        <ele>1618.822</ele>
        <time>2016-05-06T13:51:22Z</time>
      </trkpt>
      <trkpt lat="42.47994" lon="1.5083">
        <ele>1619.708</ele>
        <time>2016-05-06T13:51:42Z</time>
      </trkpt>
      <trkpt lat="42.47989" lon="1.50837">
        <ele>1618.125</ele>
        <time>2016-05-06T13:52:02Z</time>
      </trkpt>
      <trkpt lat="42.47988" lon="1.50841">
        <ele>1618.157</ele>
        <time>2016-05-06T13:52:22Z</time>
      </trkpt>
      <trkpt lat="42.47986" lon="1.50845">
        <ele>1618.315</ele>
        <time>2016-05-06T13:52:42Z</time>
      </trkpt>
      <trkpt lat="42.47984" lon="1.50848">
        <ele>1617.723</ele>
        <time>2016-05-06T13:53:02Z</time>
      </trkpt>
      <trkpt lat="42.47979" lon="1.50849">
        <ele>1615.281</ele>
        <time>2016-05-06T13:53:22Z</time>
      </trkpt>
      <trkpt lat="42.47977" lon="1.50848">
        <ele>1613.792</ele>
        <time>2016-05-06T13:53:42Z</time>
      </trkpt>
      <trkpt lat="42.47974" lon="1.5085">
        <ele>1613.05</ele>
        <time>2016-05-06T13:54:02Z</time>
      </trkpt>
      <trkpt lat="42.47972" lon="1.5085">
        <ele>1611.688</ele>
        <time>2016-05-06T13:54:22Z</time>
      </trkpt>
      <trkpt lat="42.4797" lon="1.5085">
        <ele>1610.435</ele>
        <time>2016-05-06T13:54:42Z</time>
      </trkpt>
      <trkpt lat="42.47968" lon="1.50848">
        <ele>1608.086</ele>
        <time>2016-05-06T13:55:02Z</time>
      </trkpt>
      <trkpt lat="42.47973" lon="1.50845">
        <ele>1610.114</ele>
        <time>2016-05-06T13:55:22Z</time>
      </trkpt>
      <trkpt lat="42.47976" lon="1.50842">
        <ele>1610.808</ele>
        <time>2016-05-06T13:55:42Z</time>
      </trkpt>
      <trkpt lat="42.47979" lon="1.5084">
        <ele>1612.124</ele>
        <time>2016-05-06T13:56:02Z</time>
      </trkpt>
      <trkpt lat="42.47981" lon="1.50837">
        <ele>1612.526</ele>
        <time>2016-05-06T13:56:22Z</time>
      </trkpt>
      <trkpt lat="42.47983" lon="1.50835">
        <ele>1613.444</ele>
        <time>2016-05-06T13:56:42Z</time>
      </trkpt>
      <trkpt lat="42.47985" lon="1.50829">
        <ele>1612.682</ele>
        <time>2016-05-06T13:57:02Z</time>
      </trkpt>
      <trkpt lat="42.47983" lon="1.50826">
        <ele>1610.77</ele>
        <time>2016-05-06T13:57:22Z</time>
      </trkpt>
      <trkpt lat="42.47982" lon="1.50824">
        <ele>1609.151</ele>
        <time>2016-05-06T13:57:42Z</time>
      </trkpt>
      <trkpt lat="42.47981" lon="1.5082">
        <ele>1607.569</ele>
        <time>2016-05-06T13:58:02Z</time>
      </trkpt>
      <trkpt lat="42.47983" lon="1.50817">
        <ele>1608.347</ele>
        <time>2016-05-06T13:58:22Z</time>
      </trkpt>
      <trkpt lat="42.47983" lon="1.50812">
        <ele>1606.727</ele>
        <time>2016-05-06T13:58:42Z</time>
      </trkpt>
      <trkpt lat="42.47979" lon="1.50811">
        <ele>1603.068</ele>
        <time>2016-05-06T13:59:02Z</time>
      </trkpt>
      <trkpt lat="42.47977" lon="1.50812">
        <ele>1601.614</ele>
        <time>2016-05-06T13:59:22Z</time>
      </trkpt>
      <trkpt lat="42.47974" lon="1.50813">
        <ele>1599.708</ele>
        <time>2016-05-06T13:59:42Z</time>
      </trkpt>
      <trkpt lat="42.4797" lon="1.50813">
        <ele>1597.243</ele>
        <time>2016-05-06T14:00:02Z</time>
      </trkpt>
      <trkpt lat="42.47966" lon="1.50814">
        <ele>1595.565</ele>
        <time>2016-05-06T14:00:22Z</time>
      </trkpt>
      <trkpt lat="42.47971" lon="1.5081">
        <ele>1596.483</ele>
        <time>2016-05-06T14:00:42Z</time>
      </trkpt>
      <trkpt lat="42.47972" lon="1.50805">
        <ele>1596.141</ele>
        <time>2016-05-06T14:01:02Z</time>
      </trkpt>
      <trkpt lat="42.47974" lon="1.50802">
        <ele>1597.119</ele>
        <time>2016-05-06T14:01:22Z</time>
      </trkpt>
      <trkpt lat="42.4797" lon="1.50802">
        <ele>1594.97</ele>
        <time>2016-05-06T14:01:42Z</time>
      </trkpt>
      <trkpt lat="42.47966" lon="1.50805">
        <ele>1592.268</ele>
        <time>2016-05-06T14:02:02Z</time>
      </trkpt>
      <trkpt lat="42.47964" lon="1.50806">
        <ele>1591.336</ele>
        <time>2016-05-06T14:02:22Z</time>
      </trkpt>
      <trkpt lat="42.47961" lon="1.50806">
        <ele>1589.589</ele>
        <time>2016-05-06T14:02:42Z</time>
      </trkpt>
      <trkpt lat="42.47959" lon="1.50808">
        <ele>1589.506</ele>
        <time>2016-05-06T14:03:02Z</time>
      </trkpt>
      <trkpt lat="42.47957" lon="1.50809">
        <ele>1588.526</ele>
        <time>2016-05-06T14:03:22Z</time>
      </trkpt>
      <trkpt lat="42.47955" lon="1.5081">
        <ele>1587.708</ele>
        <time>2016-05-06T14:03:42Z</time>
      </trkpt>
      <trkpt lat="42.47953" lon="1.50811">
        <ele>1586.749</ele>
        <time>2016-05-06T14:04:02Z</time>
      </trkpt>
      <trkpt lat="42.4795" lon="1.50814">
        <ele>1586.151</ele>
        <time>2016-05-06T14:04:22Z</time>
      </trkpt>
      <trkpt lat="42.47948" lon="1.50816">
        <ele>1585.519</ele>
        <time>2016-05-06T14:04:42Z</time>
      </trkpt>
      <trkpt lat="42.47945" lon="1.50813">
        <ele>1582.877</ele>
        <time>2016-05-06T14:05:02Z</time>
      </trkpt>
      <trkpt lat="42.47943" lon="1.50811">
        <ele>1580.525</ele>
        <time>2016-05-06T14:05:22Z</time>
      </trkpt>
      <trkpt lat="42.4794" lon="1.50808">
        <ele>1577.646</ele>
        <time>2016-05-06T14:05:42Z</time>
      </trkpt>
      <trkpt lat="42.4794" lon="1.50803">
        <ele>1576.074</ele>
        <time>2016-05-06T14:06:02Z</time>
      </trkpt>
      <trkpt lat="42.47943" lon="1.50799">
        <ele>1576.492</ele>
        <time>2016-05-06T14:06:22Z</time>
      </trkpt>
      <trkpt lat="42.47946" lon="1.50793">
        <ele>1575.785</ele>
        <time>2016-05-06T14:06:42Z</time>
      </trkpt>
      <trkpt lat="42.47948" lon="1.50789">
        <ele>1576.589</ele>
        <time>2016-05-06T14:07:02Z</time>
      </trkpt>
      <trkpt lat="42.47952" lon="1.5078">
        <ele>1576.617</ele>
        <time>2016-05-06T14:07:22Z</time>
      </trkpt>
      <trkpt lat="42.47952" lon="1.50773">
        <ele>1577.308</ele>
        <time>2016-05-06T14:07:42Z</time>
      </trkpt>
      <trkpt lat="42.4795" lon="1.50774">
        <ele>1574.749</ele>
        <time>2016-05-06T14:08:02Z</time>
      </trkpt>
      <trkpt lat="42.47948" lon="1.50774">
        <ele>1572.981</ele>
        <time>2016-05-06T14:08:22Z</time>
      </trkpt>
      <trkpt lat="42.47945" lon="1.50775">
        <ele>1569.279</ele>
        <time>2016-05-06T14:08:42Z</time>
      </trkpt>
      <trkpt lat="42.47942" lon="1.50777">
        <ele>1567.957</ele>
        <time>2016-05-06T14:09:02Z</time>
      </trkpt>
      <trkpt lat="42.47941" lon="1.50777">
        <ele>1567.155</ele>
        <time>2016-05-06T14:09:22Z</time>
      </trkpt>
      <trkpt lat="42.4794" lon="1.50778">
        <ele>1566.636</ele>
        <time>2016-05-06T14:09:42Z</time>
      </trkpt>
      <trkpt lat="42.47939" lon="1.50779">
        <ele>1566.574</ele>
        <time>2016-05-06T14:10:02Z</time>
      </trkpt>
      <trkpt lat="42.47938" lon="1.50778">
        <ele>1565.042</ele>
        <time>2016-05-06T14:10:22Z</time>
      </trkpt>
      <trkpt lat="42.47936" lon="1.50772">
        <ele>1564.263</ele>
        <time>2016-05-06T14:10:42Z</time>
      </trkpt>
      <trkpt lat="42.47934" lon="1.50773">
        <ele>1562.944</ele>
        <time>2016-05-06T14:11:02Z</time>
      </trkpt>
      <trkpt lat="42.4793" lon="1.50776">
        <ele>1560.518</ele>
        <time>2016-05-06T14:11:22Z</time>
      </trkpt>
      <trkpt lat="42.47931" lon="1.50773">
        <ele>1560.708</ele>
        <time>2016-05-06T14:11:42Z</time>
      </trkpt>
      <trkpt lat="42.47933" lon="1.50769">
        <ele>1562.047</ele>
        <time>2016-05-06T14:12:02Z</time>
      </trkpt>
      <trkpt lat="42.47936" lon="1.50762">
        <ele>1563.779</ele>
        <time>2016-05-06T14:12:22Z</time>
      </trkpt>
      <trkpt lat="42.47936" lon="1.50758">
        <ele>1563.297</ele>
        <time>2016-05-06T14:12:42Z</time>
      </trkpt>
      <trkpt lat="42.47933" lon="1.50758">
        <ele>1561.395</ele>
        <time>2016-05-06T14:13:02Z</time>
      </trkpt>
      <trkpt lat="42.47931" lon="1.50761">
        <ele>1559.623</ele>
        <time>2016-05-06T14:13:22Z</time>
      </trkpt>
      <trkpt lat="42.47927" lon="1.50763">
        <ele>1556.994</ele>
        <time>2016-05-06T14:13:42Z</time>
      </trkpt>
      <trkpt lat="42.47928" lon="1.50753">
        <ele>1556.782</ele>
        <time>2016-05-06T14:14:02Z</time>
      </trkpt>
      <trkpt lat="42.47929" lon="1.50745">
        <ele>1556.57</ele>
        <time>2016-05-06T14:14:22Z</time>
      </trkpt>
      <trkpt lat="42.47931" lon="1.50735">
        <ele>1557.697</ele>
        <time>2016-05-06T14:14:42Z</time>
      </trkpt>
      <trkpt lat="42.47933" lon="1.50724">
        <ele>1559.023</ele>
        <time>2016-05-06T14:15:02Z</time>
      </trkpt>
      <trkpt lat="42.4793" lon="1.50721">
        <ele>1556.025</ele>
        <time>2016-05-06T14:15:22Z</time>
      </trkpt>
      <trkpt lat="42.47928" lon="1.50717">
        <ele>1554.708</ele>
        <time>2016-05-06T14:15:42Z</time>
      </trkpt>
      <trkpt lat="42.47926" lon="1.50712">
        <ele>1553.29</ele>
        <time>2016-05-06T14:16:02Z</time>
      </trkpt>
      <trkpt lat="42.47924" lon="1.50708">
        <ele>1551.192</ele>
        <time>2016-05-06T14:16:22Z</time>
      </trkpt>
      <trkpt lat="42.47922" lon="1.50707">
        <ele>1549.63</ele>
        <time>2016-05-06T14:16:42Z</time>
      </trkpt>
      <trkpt lat="42.4792" lon="1.50705">
        <ele>1547.728</ele>
        <time>2016-05-06T14:17:02Z</time>
      </trkpt>
      <trkpt lat="42.47917" lon="1.50701">
        <ele>1544.926</ele>
        <time>2016-05-06T14:17:22Z</time>
      </trkpt>
      <trkpt lat="42.47914" lon="1.50697">
        <ele>1544.227</ele>
        <time>2016-05-06T14:17:42Z</time>
      </trkpt>
      <trkpt lat="42.47912" lon="1.50693">
        <ele>1543.585</ele>
        <time>2016-05-06T14:18:02Z</time>
      </trkpt>
      <trkpt lat="42.47911" lon="1.50689">
        <ele>1543.543</ele>
        <time>2016-05-06T14:18:22Z</time>
      </trkpt>
      <trkpt lat="42.47908" lon="1.50684">
        <ele>1543.149</ele>
        <time>2016-05-06T14:18:42Z</time>
      </trkpt>
      <trkpt lat="42.47905" lon="1.50682">
        <ele>1541.202</ele>
        <time>2016-05-06T14:19:02Z</time>
      </trkpt>
      <trkpt lat="42.47902" lon="1.50681">
        <ele>1539.922</ele>
        <time>2016-05-06T14:19:22Z</time>
      </trkpt>
      <trkpt lat="42.47893" lon="1.5067">
        <ele>1536.408</ele>
        <time>2016-05-06T14:19:42Z</time>
      </trkpt>
      <trkpt lat="42.47887" lon="1.50663">
        <ele>1533.055</ele>
        <time>2016-05-06T14:20:02Z</time>
      </trkpt>
      <trkpt lat="42.4788" lon="1.5065">
        <ele>1530.757</ele>
        <time>2016-05-06T14:20:22Z</time>
      </trkpt>
      <trkpt lat="42.47876" lon="1.50642">
        <ele>1529.065</ele>
        <time>2016-05-06T14:20:42Z</time>
      </trkpt>
      <trkpt lat="42.47871" lon="1.50635">
        <ele>1526.923</ele>
        <time>2016-05-06T14:21:02Z</time>
      </trkpt>
      <trkpt lat="42.47869" lon="1.50631">
        <ele>1526.341</ele>
        <time>2016-05-06T14:21:22Z</time>
      </trkpt>
      <trkpt lat="42.47865" lon="1.50623">
        <ele>1525.472</ele>
        <time>2016-05-06T14:21:42Z</time>
      </trkpt>
      <trkpt lat="42.47862" lon="1.50616">
        <ele>1524.15</ele>
        <time>2016-05-06T14:22:02Z</time>
      </trkpt>
      <trkpt lat="42.47859" lon="1.50608">
        <ele>1523.398</ele>
        <time>2016-05-06T14:22:22Z</time>
      </trkpt>
      <trkpt lat="42.47857" lon="1.50599">
        <ele>1522.812</ele>
        <time>2016-05-06T14:22:42Z</time>
      </trkpt>
      <trkpt lat="42.47851" lon="1.506">
        <ele>1519.732</ele>
        <time>2016-05-06T14:23:02Z</time>
      </trkpt>
      <trkpt lat="42.47848" lon="1.50601">
        <ele>1517.905</ele>
        <time>2016-05-06T14:23:22Z</time>
      </trkpt>
      <trkpt lat="42.47846" lon="1.50609">
        <ele>1516.008</ele>
        <time>2016-05-06T14:23:42Z</time>
      </trkpt>
      <trkpt lat="42.47843" lon="1.50616">
        <ele>1513.792</ele>
        <time>2016-05-06T14:24:02Z</time>
      </trkpt>
      <trkpt lat="42.47839" lon="1.50624">
        <ele>1511.384</ele>
        <time>2016-05-06T14:24:22Z</time>
      </trkpt>
      <trkpt lat="42.47838" lon="1.50628">
        <ele>1510.112</ele>
        <time>2016-05-06T14:24:42Z</time>
      </trkpt>
      <trkpt lat="42.47835" lon="1.50638">
        <ele>1507.72</ele>
        <time>2016-05-06T14:25:02Z</time>
      </trkpt>
      <trkpt lat="42.47832" lon="1.50645">
        <ele>1506.098</ele>
        <time>2016-05-06T14:25:22Z</time>
      </trkpt>
      <trkpt lat="42.47825" lon="1.50654">
        <ele>1502.899</ele>
        <time>2016-05-06T14:25:42Z</time>
      </trkpt>
      <trkpt lat="42.4782" lon="1.50659">
        <ele>1500.657</ele>
        <time>2016-05-06T14:26:02Z</time>
      </trkpt>
      <trkpt lat="42.47817" lon="1.50663">
        <ele>1499.065</ele>
        <time>2016-05-06T14:26:22Z</time>
      </trkpt>
      <trkpt lat="42.47813" lon="1.50665">
        <ele>1497.095</ele>
        <time>2016-05-06T14:26:42Z</time>
      </trkpt>
      <trkpt lat="42.47811" lon="1.50668">
        <ele>1496.149</ele>
        <time>2016-05-06T14:27:02Z</time>
      </trkpt>
      <trkpt lat="42.47806" lon="1.50672">
        <ele>1494.323</ele>
        <time>2016-05-06T14:27:22Z</time>
      </trkpt>
      <trkpt lat="42.47802" lon="1.50684">
        <ele>1491.808</ele>
        <time>2016-05-06T14:27:42Z</time>
      </trkpt>
      <trkpt lat="42.478" lon="1.5069">
        <ele>1490.84</ele>
        <time>2016-05-06T14:28:02Z</time>
      </trkpt>
      <trkpt lat="42.47798" lon="1.50707">
        <ele>1487.452</ele>
        <time>2016-05-06T14:28:22Z</time>
      </trkpt>
      <trkpt lat="42.478" lon="1.50713">
        <ele>1487.71</ele>
        <time>2016-05-06T14:28:42Z</time>
      </trkpt>
      <trkpt lat="42.47803" lon="1.50722">
        <ele>1488.438</ele>
        <time>2016-05-06T14:29:02Z</time>
      </trkpt>
      <trkpt lat="42.47808" lon="1.50733">
        <ele>1489.146</ele>
        <time>2016-05-06T14:29:22Z</time>
      </trkpt>
      <trkpt lat="42.4781" lon="1.50741">
        <ele>1488.447</ele>
        <time>2016-05-06T14:29:42Z</time>
      </trkpt>
      <trkpt lat="42.4781" lon="1.50755">
        <ele>1486.525</ele>
        <time>2016-05-06T14:30:02Z</time>
      </trkpt>
      <trkpt lat="42.4781" lon="1.50766">
        <ele>1485.523</ele>
        <time>2016-05-06T14:30:22Z</time>
      </trkpt>
      <trkpt lat="42.47806" lon="1.50778">
        <ele>1482.285</ele>
        <time>2016-05-06T14:30:42Z</time>
      </trkpt>
      <trkpt lat="42.47803" lon="1.50789">
        <ele>1480.889</ele>
        <time>2016-05-06T14:31:02Z</time>
      </trkpt>
      <trkpt lat="42.47798" lon="1.50801">
        <ele>1478.417</ele>
        <time>2016-05-06T14:31:22Z</time>
      </trkpt>
      <trkpt lat="42.47797" lon="1.50813">
        <ele>1478.508</ele>
        <time>2016-05-06T14:31:42Z</time>
      </trkpt>
      <trkpt lat="42.47798" lon="1.50821">
        <ele>1479.459</ele>
        <time>2016-05-06T14:32:02Z</time>
      </trkpt>
      <trkpt lat="42.47794" lon="1.50829">
        <ele>1477.331</ele>
        <time>2016-05-06T14:32:22Z</time>
      </trkpt>
      <trkpt lat="42.47788" lon="1.50839">
        <ele>1476.189</ele>
        <time>2016-05-06T14:32:42Z</time>
      </trkpt>
      <trkpt lat="42.47781" lon="1.50845">
        <ele>1473.617</ele>
        <time>2016-05-06T14:33:02Z</time>
      </trkpt>
      <trkpt lat="42.47774" lon="1.50846">
        <ele>1470.845</ele>
        <time>2016-05-06T14:33:22Z</time>
      </trkpt>
      <trkpt lat="42.47767" lon="1.50848">
        <ele>1468.936</ele>
        <time>2016-05-06T14:33:42Z</time>
      </trkpt>
      <trkpt lat="42.47758" lon="1.50861">
        <ele>1468.844</ele>
        <time>2016-05-06T14:34:02Z</time>
      </trkpt>
      <trkpt lat="42.47749" lon="1.50861">
        <ele>1465.612</ele>
        <time>2016-05-06T14:34:22Z</time>
      </trkpt>
      <trkpt lat="42.47744" lon="1.50867">
        <ele>1465.127</ele>
        <time>2016-05-06T14:34:42Z</time>
      </trkpt>
      <trkpt lat="42.47741" lon="1.50873">
        <ele>1465.468</ele>
        <time>2016-05-06T14:35:02Z</time>
      </trkpt>
      <trkpt lat="42.47736" lon="1.50884">
        <ele>1465.514</ele>
        <time>2016-05-06T14:35:22Z</time>
      </trkpt>
      <trkpt lat="42.47728" lon="1.50883">
        <ele>1462.308</ele>
        <time>2016-05-06T14:35:42Z</time>
      </trkpt>
      <trkpt lat="42.47728" lon="1.50869">
        <ele>1460.043</ele>
        <time>2016-05-06T14:36:02Z</time>
      </trkpt>
      <trkpt lat="42.47727" lon="1.50859">
        <ele>1458.345</ele>
        <time>2016-05-06T14:36:22Z</time>
      </trkpt>
      <trkpt lat="42.47719" lon="1.50861">
        <ele>1455.943</ele>
        <time>2016-05-06T14:36:42Z</time>
      </trkpt>
      <trkpt lat="42.47718" lon="1.50867">
        <ele>1456.491</ele>
        <time>2016-05-06T14:37:02Z</time>
      </trkpt>
      <trkpt lat="42.47714" lon="1.50873">
        <ele>1455.939</ele>
        <time>2016-05-06T14:37:22Z</time>
      </trkpt>
      <trkpt lat="42.47709" lon="1.50878">
        <ele>1455.29</ele>
        <time>2016-05-06T14:37:42Z</time>
      </trkpt>
      <trkpt lat="42.47705" lon="1.50883">
        <ele>1454.898</ele>
        <time>2016-05-06T14:38:02Z</time>
      </trkpt>
      <trkpt lat="42.47699" lon="1.50886">
        <ele>1453.766</ele>
        <time>2016-05-06T14:38:22Z</time>
      </trkpt>
      <trkpt lat="42.47694" lon="1.50877">
        <ele>1450.327</ele>
        <time>2016-05-06T14:38:42Z</time>
      </trkpt>
      <trkpt lat="42.477" lon="1.50854">
        <ele>1447.868</ele>
        <time>2016-05-06T14:39:02Z</time>
      </trkpt>
      <trkpt lat="42.47693" lon="1.50854">
        <ele>1445.714</ele>
        <time>2016-05-06T14:39:22Z</time>
      </trkpt>
      <trkpt lat="42.47686" lon="1.50857">
        <ele>1445.008</ele>
        <time>2016-05-06T14:39:42Z</time>
      </trkpt>
      <trkpt lat="42.47681" lon="1.5086">
        <ele>1444.533</ele>
        <time>2016-05-06T14:40:02Z</time>
      </trkpt>
      <trkpt lat="42.47675" lon="1.50863">
        <ele>1443.945</ele>
        <time>2016-05-06T14:40:22Z</time>
      </trkpt>
      <trkpt lat="42.47668" lon="1.50867">
        <ele>1443.033</ele>
        <time>2016-05-06T14:40:42Z</time>
      </trkpt>
      <trkpt lat="42.47663" lon="1.50867">
        <ele>1441.791</ele>
        <time>2016-05-06T14:41:02Z</time>
      </trkpt>
      <trkpt lat="42.47652" lon="1.50861">
        <ele>1438.359</ele>
        <time>2016-05-06T14:41:22Z</time>
      </trkpt>
      <trkpt lat="42.47649" lon="1.50851">
        <ele>1436.72</ele>
        <time>2016-05-06T14:41:42Z</time>
      </trkpt>
      <trkpt lat="42.47656" lon="1.5084">
        <ele>1437.058</ele>
        <time>2016-05-06T14:42:02Z</time>
      </trkpt>
      <trkpt lat="42.47666" lon="1.50827">
        <ele>1436.946</ele>
        <time>2016-05-06T14:42:22Z</time>
      </trkpt>
      <trkpt lat="42.47671" lon="1.50815">
        <ele>1436.313</ele>
        <time>2016-05-06T14:42:42Z</time>
      </trkpt>
      <trkpt lat="42.47673" lon="1.50799">
        <ele>1433.443</ele>
        <time>2016-05-06T14:43:02Z</time>
      </trkpt>
      <trkpt lat="42.4767" lon="1.5079">
        <ele>1430.607</ele>
        <time>2016-05-06T14:43:22Z</time>
      </trkpt>
      <trkpt lat="42.47664" lon="1.50788">
        <ele>1429.208</ele>
        <time>2016-05-06T14:43:42Z</time>
      </trkpt>
      <trkpt lat="42.47654" lon="1.50789">
        <ele>1427.832</ele>
        <time>2016-05-06T14:44:02Z</time>
      </trkpt>
      <trkpt lat="42.47651" lon="1.50792">
        <ele>1427.934</ele>
        <time>2016-05-06T14:44:22Z</time>
      </trkpt>
      <trkpt lat="42.47648" lon="1.50796">
        <ele>1428.452</ele>
        <time>2016-05-06T14:44:42Z</time>
      </trkpt>
      <trkpt lat="42.47642" lon="1.50806">
        <ele>1429.56</ele>
        <time>2016-05-06T14:45:02Z</time>
      </trkpt>
      <trkpt lat="42.47636" lon="1.50811">
        <ele>1429.258</ele>
        <time>2016-05-06T14:45:22Z</time>
      </trkpt>
      <trkpt lat="42.4763" lon="1.50819">
        <ele>1428.989</ele>
        <time>2016-05-06T14:45:42Z</time>
      </trkpt>
      <trkpt lat="42.47625" lon="1.50825">
        <ele>1428.767</ele>
        <time>2016-05-06T14:46:02Z</time>
      </trkpt>
      <trkpt lat="42.47622" lon="1.50825">
        <ele>1427.815</ele>
        <time>2016-05-06T14:46:22Z</time>
      </trkpt>
      <trkpt lat="42.47612" lon="1.50833">
        <ele>1426.026</ele>
        <time>2016-05-06T14:46:42Z</time>
      </trkpt>
      <trkpt lat="42.47608" lon="1.50832">
        <ele>1424.547</ele>
        <time>2016-05-06T14:47:02Z</time>
      </trkpt>
      <trkpt lat="42.47605" lon="1.50831">
        <ele>1422.911</ele>
        <time>2016-05-06T14:47:22Z</time>
      </trkpt>
      <trkpt lat="42.47599" lon="1.50826">
        <ele>1419.908</ele>
        <time>2016-05-06T14:47:42Z</time>
      </trkpt>
      <trkpt lat="42.47597" lon="1.50821">
        <ele>1419.083</ele>
        <time>2016-05-06T14:48:02Z</time>
      </trkpt>
      <trkpt lat="42.47597" lon="1.50809">
        <ele>1417.815</ele>
        <time>2016-05-06T14:48:22Z</time>
      </trkpt>
      <trkpt lat="42.47602" lon="1.50799">
        <ele>1417.553</ele>
        <time>2016-05-06T14:48:42Z</time>
      </trkpt>
      <trkpt lat="42.47605" lon="1.50782">
        <ele>1414.591</ele>
        <time>2016-05-06T14:49:02Z</time>
      </trkpt>
      <trkpt lat="42.47607" lon="1.50773">
        <ele>1412.929</ele>
        <time>2016-05-06T14:49:22Z</time>
      </trkpt>
      <trkpt lat="42.47597" lon="1.50775">
        <ele>1410.81</ele>
        <time>2016-05-06T14:49:42Z</time>
      </trkpt>
      <trkpt lat="42.47592" lon="1.50777">
        <ele>1410.058</ele>
        <time>2016-05-06T14:50:02Z</time>
      </trkpt>
      <trkpt lat="42.47583" lon="1.50781">
        <ele>1408.576</ele>
        <time>2016-05-06T14:50:22Z</time>
      </trkpt>
      <trkpt lat="42.47582" lon="1.50784">
        <ele>1408.366</ele>
        <time>2016-05-06T14:50:42Z</time>
      </trkpt>
      <trkpt lat="42.47581" lon="1.5079">
        <ele>1408.829</ele>
        <time>2016-05-06T14:51:02Z</time>
      </trkpt>
      <trkpt lat="42.47576" lon="1.50801">
        <ele>1407.621</ele>
        <time>2016-05-06T14:51:22Z</time>
      </trkpt>
      <trkpt lat="42.47573" lon="1.50812">
        <ele>1406.908</ele>
        <time>2016-05-06T14:51:42Z</time>
      </trkpt>
      <trkpt lat="42.47572" lon="1.50823">
        <ele>1407.137</ele>
        <time>2016-05-06T14:52:02Z</time>
      </trkpt>
      <trkpt lat="42.47572" lon="1.50836">
        <ele>1407.389</ele>
        <time>2016-05-06T14:52:22Z</time>
      </trkpt>
      <trkpt lat="42.47572" lon="1.50846">
        <ele>1406.167</ele>
        <time>2016-05-06T14:52:42Z</time>
      </trkpt>
      <trkpt lat="42.47572" lon="1.50853">
        <ele>1405.815</ele>
        <time>2016-05-06T14:53:02Z</time>
      </trkpt>
      <trkpt lat="42.4757" lon="1.50862">
        <ele>1404.593</ele>
        <time>2016-05-06T14:53:22Z</time>
      </trkpt>
      <trkpt lat="42.47567" lon="1.50864">
        <ele>1404.184</ele>
        <time>2016-05-06T14:53:42Z</time>
      </trkpt>
      <trkpt lat="42.47557" lon="1.50866">
        <ele>1400.952</ele>
        <time>2016-05-06T14:54:02Z</time>
      </trkpt>
      <trkpt lat="42.47555" lon="1.50857">
        <ele>1398.89</ele>
        <time>2016-05-06T14:54:22Z</time>
      </trkpt>
      <trkpt lat="42.47556" lon="1.50846">
        <ele>1398.752</ele>
        <time>2016-05-06T14:54:42Z</time>
      </trkpt>
      <trkpt lat="42.47558" lon="1.50838">
        <ele>1399.253</ele>
        <time>2016-05-06T14:55:02Z</time>
      </trkpt>
      <trkpt lat="42.47557" lon="1.50831">
        <ele>1398.408</ele>
        <time>2016-05-06T14:55:22Z</time>
      </trkpt>
      <trkpt lat="42.47557" lon="1.50822">
        <ele>1397.908</ele>
        <time>2016-05-06T14:55:42Z</time>
      </trkpt>
      <trkpt lat="42.47556" lon="1.50821">
        <ele>1397.596</ele>
        <time>2016-05-06T14:56:02Z</time>
      </trkpt>
      <trkpt lat="42.47556" lon="1.50804">
        <ele>1396.158</ele>
        <time>2016-05-06T14:56:22Z</time>
      </trkpt>
      <trkpt lat="42.47558" lon="1.50795">
        <ele>1396.256</ele>
        <time>2016-05-06T14:56:42Z</time>
      </trkpt>
      <trkpt lat="42.47559" lon="1.50784">
        <ele>1395.444</ele>
        <time>2016-05-06T14:57:02Z</time>
      </trkpt>
      <trkpt lat="42.4756" lon="1.50773">
        <ele>1394.882</ele>
        <time>2016-05-06T14:57:22Z</time>
      </trkpt>
      <trkpt lat="42.4756" lon="1.50762">
        <ele>1393.833</ele>
        <time>2016-05-06T14:57:42Z</time>
      </trkpt>
      <trkpt lat="42.47559" lon="1.50756">
        <ele>1392.711</ele>
        <time>2016-05-06T14:58:02Z</time>
      </trkpt>
      <trkpt lat="42.47561" lon="1.50742">
        <ele>1391.379</ele>
        <time>2016-05-06T14:58:22Z</time>
      </trkpt>
      <trkpt lat="42.47563" lon="1.50735">
        <ele>1390.471</ele>
        <time>2016-05-06T14:58:42Z</time>
      </trkpt>
      <trkpt lat="42.47565" lon="1.50726">
        <ele>1389.741</ele>
        <time>2016-05-06T14:59:02Z</time>
      </trkpt>
      <trkpt lat="42.47564" lon="1.50713">
        <ele>1385.415</ele>
        <time>2016-05-06T14:59:22Z</time>
      </trkpt>
      <trkpt lat="42.47573" lon="1.50704">
        <ele>1386.708</ele>
        <time>2016-05-06T14:59:42Z</time>
      </trkpt>
      <trkpt lat="42.47582" lon="1.50699">
        <ele>1388.818</ele>
        <time>2016-05-06T15:00:02Z</time>
      </trkpt>
      <trkpt lat="42.47592" lon="1.5069">
        <ele>1386.86</ele>
        <time>2016-05-06T15:00:22Z</time>
      </trkpt>
      <trkpt lat="42.47598" lon="1.50685">
        <ele>1385.528</ele>
        <time>2016-05-06T15:00:42Z</time>
      </trkpt>
      <trkpt lat="42.47606" lon="1.50684">
        <ele>1386.376</ele>
        <time>2016-05-06T15:01:02Z</time>
      </trkpt>
      <trkpt lat="42.47618" lon="1.50682">
        <ele>1387.264</ele>
        <time>2016-05-06T15:01:22Z</time>
      </trkpt>
      <trkpt lat="42.47622" lon="1.50682">
        <ele>1387.875</ele>
        <time>2016-05-06T15:01:42Z</time>
      </trkpt>
      <trkpt lat="42.47627" lon="1.50678">
        <ele>1387.443</ele>
        <time>2016-05-06T15:02:02Z</time>
      </trkpt>
      <trkpt lat="42.47636" lon="1.50669">
        <ele>1385.991</ele>
        <time>2016-05-06T15:02:22Z</time>
      </trkpt>
      <trkpt lat="42.47639" lon="1.50651">
        <ele>1384.885</ele>
        <time>2016-05-06T15:02:42Z</time>
      </trkpt>
      <trkpt lat="42.47636" lon="1.50635">
        <ele>1382.389</ele>
        <time>2016-05-06T15:03:02Z</time>
      </trkpt>
      <trkpt lat="42.47636" lon="1.50613">
        <ele>1380.617</ele>
        <time>2016-05-06T15:03:22Z</time>
      </trkpt>
      <trkpt lat="42.47634" lon="1.50601">
        <ele>1379.308</ele>
        <time>2016-05-06T15:03:42Z</time>
      </trkpt>
      <trkpt lat="42.47634" lon="1.50588">
        <ele>1378.989</ele>
        <time>2016-05-06T15:04:02Z</time>
      </trkpt>
      <trkpt lat="42.47633" lon="1.50574">
        <ele>1378.131</ele>
        <time>2016-05-06T15:04:22Z</time>
      </trkpt>
      <trkpt lat="42.47632" lon="1.50562">
        <ele>1377.649</ele>
        <time>2016-05-06T15:04:42Z</time>
      </trkpt>
      <trkpt lat="42.4763" lon="1.50553">
        <ele>1376.557</ele>
        <time>2016-05-06T15:05:02Z</time>
      </trkpt>
      <trkpt lat="42.47628" lon="1.50531">
        <ele>1375.515</ele>
        <time>2016-05-06T15:05:22Z</time>
      </trkpt>
      <trkpt lat="42.47627" lon="1.50524">
        <ele>1375.226</ele>
        <time>2016-05-06T15:05:42Z</time>
      </trkpt>
      <trkpt lat="42.47626" lon="1.50511">
        <ele>1375.224</ele>
        <time>2016-05-06T15:06:02Z</time>
      </trkpt>
      <trkpt lat="42.47623" lon="1.50495">
        <ele>1374.832</ele>
        <time>2016-05-06T15:06:22Z</time>
      </trkpt>
      <trkpt lat="42.47615" lon="1.5049">
        <ele>1371.738</ele>
        <time>2016-05-06T15:06:42Z</time>
      </trkpt>
      <trkpt lat="42.47606" lon="1.50491">
        <ele>1368.17</ele>
        <time>2016-05-06T15:07:02Z</time>
      </trkpt>
      <trkpt lat="42.47601" lon="1.50499">
        <ele>1366.417</ele>
        <time>2016-05-06T15:07:22Z</time>
      </trkpt>
      <trkpt lat="42.476" lon="1.5051">
        <ele>1366.008</ele>
        <time>2016-05-06T15:07:42Z</time>
      </trkpt>
      <trkpt lat="42.47596" lon="1.50521">
        <ele>1364.954</ele>
        <time>2016-05-06T15:08:02Z</time>
      </trkpt>
      <trkpt lat="42.47596" lon="1.50539">
        <ele>1364.566</ele>
        <time>2016-05-06T15:08:22Z</time>
      </trkpt>
      <trkpt lat="42.47594" lon="1.50556">
        <ele>1363.394</ele>
        <time>2016-05-06T15:08:42Z</time>
      </trkpt>
      <trkpt lat="42.47596" lon="1.50564">
        <ele>1363.832</ele>
        <time>2016-05-06T15:09:02Z</time>
      </trkpt>
      <trkpt lat="42.47595" lon="1.50576">
        <ele>1362.92</ele>
        <time>2016-05-06T15:09:22Z</time>
      </trkpt>
      <trkpt lat="42.47594" lon="1.50587">
        <ele>1362.471</ele>
        <time>2016-05-06T15:09:42Z</time>
      </trkpt>
      <trkpt lat="42.47591" lon="1.506">
        <ele>1361.279</ele>
        <time>2016-05-06T15:10:02Z</time>
      </trkpt>
      <trkpt lat="42.47585" lon="1.50608">
        <ele>1358.597</ele>
        <time>2016-05-06T15:10:22Z</time>
      </trkpt>
      <trkpt lat="42.47578" lon="1.50613">
        <ele>1357.378</ele>
        <time>2016-05-06T15:10:42Z</time>
      </trkpt>
      <trkpt lat="42.47575" lon="1.50608">
        <ele>1356.333</ele>
        <time>2016-05-06T15:11:02Z</time>
      </trkpt>
      <trkpt lat="42.47572" lon="1.50602">
        <ele>1355.226</ele>
        <time>2016-05-06T15:11:22Z</time>
      </trkpt>
      <trkpt lat="42.47566" lon="1.50594">
        <ele>1352.808</ele>
        <time>2016-05-06T15:11:42Z</time>
      </trkpt>
      <trkpt lat="42.47556" lon="1.50584">
        <ele>1348.438</ele>
        <time>2016-05-06T15:12:02Z</time>
      </trkpt>
      <trkpt lat="42.47548" lon="1.50575">
        <ele>1346.27</ele>
        <time>2016-05-06T15:12:22Z</time>
      </trkpt>
      <trkpt lat="42.4754" lon="1.50569">
        <ele>1343.548</ele>
        <time>2016-05-06T15:12:42Z</time>
      </trkpt>
      <trkpt lat="42.47533" lon="1.50564">
        <ele>1340.486</ele>
        <time>2016-05-06T15:13:02Z</time>
      </trkpt>
      <trkpt lat="42.47528" lon="1.50562">
        <ele>1338.144</ele>
        <time>2016-05-06T15:13:22Z</time>
      </trkpt>
      <trkpt lat="42.47522" lon="1.5056">
        <ele>1335.865</ele>
        <time>2016-05-06T15:13:42Z</time>
      </trkpt>
      <trkpt lat="42.47516" lon="1.50556">
        <ele>1333.343</ele>
        <time>2016-05-06T15:14:02Z</time>
      </trkpt>
      <trkpt lat="42.47509" lon="1.50555">
        <ele>1331.111</ele>
        <time>2016-05-06T15:14:22Z</time>
      </trkpt>
      <trkpt lat="42.47503" lon="1.50554">
        <ele>1329.162</ele>
        <time>2016-05-06T15:14:42Z</time>
      </trkpt>
      <trkpt lat="42.47498" lon="1.50547">
        <ele>1327.083</ele>
        <time>2016-05-06T15:15:02Z</time>
      </trkpt>
      <trkpt lat="42.4749" lon="1.50545">
        <ele>1324.811</ele>
        <time>2016-05-06T15:15:22Z</time>
      </trkpt>
      <trkpt lat="42.4748" lon="1.5055">
        <ele>1322.608</ele>
        <time>2016-05-06T15:15:42Z</time>
      </trkpt>
      <trkpt lat="42.47474" lon="1.50554">
        <ele>1321.257</ele>
        <time>2016-05-06T15:16:02Z</time>
      </trkpt>
      <trkpt lat="42.47469" lon="1.50558">
        <ele>1320.549</ele>
        <time>2016-05-06T15:16:22Z</time>
      </trkpt>
      <trkpt lat="42.47461" lon="1.50564">
        <ele>1319.097</ele>
        <time>2016-05-06T15:16:42Z</time>
      </trkpt>
      <trkpt lat="42.47456" lon="1.50565">
        <ele>1317.935</ele>
        <time>2016-05-06T15:17:02Z</time>
      </trkpt>
      <trkpt lat="42.47451" lon="1.50571">
        <ele>1317.453</ele>
        <time>2016-05-06T15:17:22Z</time>
      </trkpt>
      <trkpt lat="42.47446" lon="1.50573">
        <ele>1316.794</ele>
        <time>2016-05-06T15:17:42Z</time>
      </trkpt>
      <trkpt lat="42.47439" lon="1.50576">
        <ele>1314.812</ele>
        <time>2016-05-06T15:18:02Z</time>
      </trkpt>
      <trkpt lat="42.47436" lon="1.50584">
        <ele>1315.11</ele>
        <time>2016-05-06T15:18:22Z</time>
      </trkpt>
      <trkpt lat="42.47432" lon="1.50592">
        <ele>1314.467</ele>
        <time>2016-05-06T15:18:42Z</time>
      </trkpt>
      <trkpt lat="42.47431" lon="1.50599">
        <ele>1314.781</ele>
        <time>2016-05-06T15:19:02Z</time>
      </trkpt>
      <trkpt lat="42.47429" lon="1.50607">
        <ele>1314.719</ele>
        <time>2016-05-06T15:19:22Z</time>
      </trkpt>
      <trkpt lat="42.47427" lon="1.50616">
        <ele>1314.608</ele>
        <time>2016-05-06T15:19:42Z</time>
      </trkpt>
      <trkpt lat="42.47427" lon="1.50628">
        <ele>1315.097</ele>
        <time>2016-05-06T15:20:02Z</time>
      </trkpt>
      <trkpt lat="42.47429" lon="1.5064">
        <ele>1316.739</ele>
        <time>2016-05-06T15:20:22Z</time>
      </trkpt>
      <trkpt lat="42.47428" lon="1.50653">
        <ele>1315.847</ele>
        <time>2016-05-06T15:20:42Z</time>
      </trkpt>
      <trkpt lat="42.47428" lon="1.50664">
        <ele>1315.595</ele>
        <time>2016-05-06T15:21:02Z</time>
      </trkpt>
      <trkpt lat="42.47429" lon="1.50665">
        <ele>1315.843</ele>
        <time>2016-05-06T15:21:22Z</time>
      </trkpt>
      <trkpt lat="42.4743" lon="1.50677">
        <ele>1316.944</ele>
        <time>2016-05-06T15:21:42Z</time>
      </trkpt>
      <trkpt lat="42.47427" lon="1.50687">
        <ele>1315.412</ele>
        <time>2016-05-06T15:22:02Z</time>
      </trkpt>
      <trkpt lat="42.47423" lon="1.50694">
        <ele>1313.32</ele>
        <time>2016-05-06T15:22:22Z</time>
      </trkpt>
      <trkpt lat="42.47416" lon="1.50701">
        <ele>1313.063</ele>
        <time>2016-05-06T15:22:42Z</time>
      </trkpt>
      <trkpt lat="42.4741" lon="1.50698">
        <ele>1312.044</ele>
        <time>2016-05-06T15:23:02Z</time>
      </trkpt>
      <trkpt lat="42.47396" lon="1.50692">
        <ele>1310.018</ele>
        <time>2016-05-06T15:23:22Z</time>
      </trkpt>
      <trkpt lat="42.47384" lon="1.50684">
        <ele>1308.008</ele>
        <time>2016-05-06T15:23:42Z</time>
      </trkpt>
      <trkpt lat="42.47366" lon="1.50675">
        <ele>1308.177</ele>
        <time>2016-05-06T15:24:02Z</time>
      </trkpt>
      <trkpt lat="42.47354" lon="1.50668">
        <ele>1305.149</ele>
        <time>2016-05-06T15:24:22Z</time>
      </trkpt>
      <trkpt lat="42.47343" lon="1.50672">
        <ele>1306.357</ele>
        <time>2016-05-06T15:24:42Z</time>
      </trkpt>
      <trkpt lat="42.47334" lon="1.50677">
        <ele>1308.065</ele>
        <time>2016-05-06T15:25:02Z</time>
      </trkpt>
      <trkpt lat="42.47325" lon="1.50681">
        <ele>1307.343</ele>
        <time>2016-05-06T15:25:22Z</time>
      </trkpt>
      <trkpt lat="42.4731" lon="1.50692">
        <ele>1306.934</ele>
        <time>2016-05-06T15:25:42Z</time>
      </trkpt>
      <trkpt lat="42.47304" lon="1.507">
        <ele>1306.512</ele>
        <time>2016-05-06T15:26:02Z</time>
      </trkpt>
      <trkpt lat="42.47297" lon="1.50715">
        <ele>1305.58</ele>
        <time>2016-05-06T15:26:22Z</time>
      </trkpt>
      <trkpt lat="42.47296" lon="1.50724">
        <ele>1306.499</ele>
        <time>2016-05-06T15:26:42Z</time>
      </trkpt>
      <trkpt lat="42.47295" lon="1.50726">
        <ele>1306.007</ele>
        <time>2016-05-06T15:27:02Z</time>
      </trkpt>
      <trkpt lat="42.47293" lon="1.50743">
        <ele>1306.327</ele>
        <time>2016-05-06T15:27:22Z</time>
      </trkpt>
      <trkpt lat="42.47292" lon="1.50762">
        <ele>1307.708</ele>
        <time>2016-05-06T15:27:42Z</time>
      </trkpt>
      <trkpt lat="42.47289" lon="1.50773">
        <ele>1307.05</ele>
        <time>2016-05-06T15:28:02Z</time>
      </trkpt>
      <trkpt lat="42.47286" lon="1.50778">
        <ele>1306.482</ele>
        <time>2016-05-06T15:28:22Z</time>
      </trkpt>
      <trkpt lat="42.4728" lon="1.50796">
        <ele>1304.17</ele>
        <time>2016-05-06T15:28:42Z</time>
      </trkpt>
      <trkpt lat="42.47282" lon="1.50807">
        <ele>1305.598</ele>
        <time>2016-05-06T15:29:02Z</time>
      </trkpt>
      <trkpt lat="42.47281" lon="1.50822">
        <ele>1304.686</ele>
        <time>2016-05-06T15:29:22Z</time>
      </trkpt>
      <trkpt lat="42.47283" lon="1.50832">
        <ele>1305.217</ele>
        <time>2016-05-06T15:29:42Z</time>
      </trkpt>
      <trkpt lat="42.47284" lon="1.50848">
        <ele>1304.375</ele>
        <time>2016-05-06T15:30:02Z</time>
      </trkpt>
      <trkpt lat="42.47286" lon="1.50866">
        <ele>1304.173</ele>
        <time>2016-05-06T15:30:22Z</time>
      </trkpt>
      <trkpt lat="42.47286" lon="1.50882">
        <ele>1302.626</ele>
        <time>2016-05-06T15:30:42Z</time>
      </trkpt>
      <trkpt lat="42.4729" lon="1.50899">
        <ele>1303.147</ele>
        <time>2016-05-06T15:31:02Z</time>
      </trkpt>
      <trkpt lat="42.47293" lon="1.5091">
        <ele>1303.111</ele>
        <time>2016-05-06T15:31:22Z</time>
      </trkpt>
      <trkpt lat="42.47299" lon="1.50923">
        <ele>1304.308</ele>
        <time>2016-05-06T15:31:42Z</time>
      </trkpt>
      <trkpt lat="42.47301" lon="1.50939">
        <ele>1302.553</ele>
        <time>2016-05-06T15:32:02Z</time>
      </trkpt>
      <trkpt lat="42.47308" lon="1.5095">
        <ele>1305.375</ele>
        <time>2016-05-06T15:32:22Z</time>
      </trkpt>
      <trkpt lat="42.47306" lon="1.50968">
        <ele>1303.243</ele>
        <time>2016-05-06T15:32:42Z</time>
      </trkpt>
      <trkpt lat="42.473" lon="1.50981">
        <ele>1302.991</ele>
        <time>2016-05-06T15:33:02Z</time>
      </trkpt>
      <trkpt lat="42.47297" lon="1.51002">
        <ele>1305.069</ele>
        <time>2016-05-06T15:33:22Z</time>
      </trkpt>
      <trkpt lat="42.47291" lon="1.51022">
        <ele>1305.66</ele>
        <time>2016-05-06T15:33:42Z</time>
      </trkpt>
      <trkpt lat="42.47286" lon="1.51041">
        <ele>1306.168</ele>
        <time>2016-05-06T15:34:02Z</time>
      </trkpt>
      <trkpt lat="42.4728" lon="1.51059">
        <ele>1305.946</ele>
        <time>2016-05-06T15:34:22Z</time>
      </trkpt>
      <trkpt lat="42.47277" lon="1.51078">
        <ele>1307.459</ele>
        <time>2016-05-06T15:34:42Z</time>
      </trkpt>
      <trkpt lat="42.47272" lon="1.51092">
        <ele>1309.203</ele>
        <time>2016-05-06T15:35:02Z</time>
      </trkpt>
      <trkpt lat="42.47262" lon="1.51094">
        <ele>1308.723</ele>
        <time>2016-05-06T15:35:22Z</time>
      </trkpt>
      <trkpt lat="42.47249" lon="1.51103">
        <ele>1309.808</ele>
        <time>2016-05-06T15:35:42Z</time>
      </trkpt>
      <trkpt lat="42.47239" lon="1.51109">
        <ele>1310.956</ele>
        <time>2016-05-06T15:36:02Z</time>
      </trkpt>
      <trkpt lat="42.47229" lon="1.51108">
        <ele>1310.548</ele>
        <time>2016-05-06T15:36:22Z</time>
      </trkpt>
      <trkpt lat="42.47225" lon="1.51116">
        <ele>1311.826</ele>
        <time>2016-05-06T15:36:42Z</time>
      </trkpt>
      <trkpt lat="42.47218" lon="1.51121">
        <ele>1310.484</ele>
        <time>2016-05-06T15:37:02Z</time>
      </trkpt>
      <trkpt lat="42.47215" lon="1.51126">
        <ele>1309.762</ele>
        <time>2016-05-06T15:37:22Z</time>
      </trkpt>
      <trkpt lat="42.47214" lon="1.5114">
        <ele>1310.683</ele>
        <time>2016-05-06T15:37:42Z</time>
      </trkpt>
      <trkpt lat="42.47213" lon="1.51149">
        <ele>1311.071</ele>
        <time>2016-05-06T15:38:02Z</time>
      </trkpt>
      <trkpt lat="42.47217" lon="1.51165">
        <ele>1315.269</ele>
        <time>2016-05-06T15:38:22Z</time>
      </trkpt>
      <trkpt lat="42.47218" lon="1.51177">
        <ele>1316.017</ele>
        <time>2016-05-06T15:38:42Z</time>
      </trkpt>
      <trkpt lat="42.47221" lon="1.51196">
        <ele>1318.487</ele>
        <time>2016-05-06T15:39:02Z</time>
      </trkpt>
      <trkpt lat="42.47227" lon="1.51211">
        <ele>1320.815</ele>
        <time>2016-05-06T15:39:22Z</time>
      </trkpt>
      <trkpt lat="42.47228" lon="1.51221">
        <ele>1321.508</ele>
        <time>2016-05-06T15:39:42Z</time>
      </trkpt>
      <trkpt lat="42.47222" lon="1.51229">
        <ele>1319.442</ele>
        <time>2016-05-06T15:40:02Z</time>
      </trkpt>
      <trkpt lat="42.47212" lon="1.51232">
        <ele>1321.554</ele>
        <time>2016-05-06T15:40:22Z</time>
      </trkpt>
      <trkpt lat="42.47201" lon="1.51231">
        <ele>1322.022</ele>
        <time>2016-05-06T15:40:42Z</time>
      </trkpt>
      <trkpt lat="42.47197" lon="1.5123">
        <ele>1322.08</ele>
        <time>2016-05-06T15:41:02Z</time>
      </trkpt>
      <trkpt lat="42.4719" lon="1.51227">
        <ele>1320.278</ele>
        <time>2016-05-06T15:41:22Z</time>
      </trkpt>
      <trkpt lat="42.47184" lon="1.51226">
        <ele>1320.959</ele>
        <time>2016-05-06T15:41:42Z</time>
      </trkpt>
      <trkpt lat="42.47176" lon="1.51236">
        <ele>1330.777</ele>
        <time>2016-05-06T15:42:02Z</time>
      </trkpt>
      <trkpt lat="42.47167" lon="1.51232">
        <ele>1329.695</ele>
        <time>2016-05-06T15:42:22Z</time>
      </trkpt>
      <trkpt lat="42.47157" lon="1.51227">
        <ele>1328.078</ele>
        <time>2016-05-06T15:42:42Z</time>
      </trkpt>
      <trkpt lat="42.47149" lon="1.51217">
        <ele>1324.733</ele>
        <time>2016-05-06T15:43:02Z</time>
      </trkpt>
      <trkpt lat="42.47141" lon="1.51208">
        <ele>1322.626</ele>
        <time>2016-05-06T15:43:22Z</time>
      </trkpt>
      <trkpt lat="42.47124" lon="1.51189">
        <ele>1321.808</ele>
        <time>2016-05-06T15:43:42Z</time>
      </trkpt>
      <trkpt lat="42.47118" lon="1.51175">
        <ele>1319.138</ele>
        <time>2016-05-06T15:44:02Z</time>
      </trkpt>
      <trkpt lat="42.4711" lon="1.5116">
        <ele>1317.78</ele>
        <time>2016-05-06T15:44:22Z</time>
      </trkpt>
      <trkpt lat="42.47099" lon="1.51146">
        <ele>1319.938</ele>
        <time>2016-05-06T15:44:42Z</time>
      </trkpt>
      <trkpt lat="42.47085" lon="1.51136">
        <ele>1324.546</ele>
        <time>2016-05-06T15:45:02Z</time>
      </trkpt>
      <trkpt lat="42.47084" lon="1.51135">
        <ele>1324.824</ele>
        <time>2016-05-06T15:45:22Z</time>
      </trkpt>
      <trkpt lat="42.47074" lon="1.51127">
        <ele>1323.045</ele>
        <time>2016-05-06T15:45:42Z</time>
      </trkpt>
      <trkpt lat="42.47064" lon="1.5112">
        <ele>1321.743</ele>
        <time>2016-05-06T15:46:02Z</time>
      </trkpt>
      <trkpt lat="42.47055" lon="1.51115">
        <ele>1320.321</ele>
        <time>2016-05-06T15:46:22Z</time>
      </trkpt>
      <trkpt lat="42.47044" lon="1.51114">
        <ele>1321.076</ele>
        <time>2016-05-06T15:46:42Z</time>
      </trkpt>
      <trkpt lat="42.47037" lon="1.5111">
        <ele>1319.49</ele>
        <time>2016-05-06T15:47:02Z</time>
      </trkpt>
      <trkpt lat="42.47023" lon="1.51109">
        <ele>1320.919</ele>
        <time>2016-05-06T15:47:22Z</time>
      </trkpt>
      <trkpt lat="42.47017" lon="1.51107">
        <ele>1321.008</ele>
        <time>2016-05-06T15:47:42Z</time>
      </trkpt>
      <trkpt lat="42.47006" lon="1.51107">
        <ele>1323.488</ele>
        <time>2016-05-06T15:48:02Z</time>
      </trkpt>
      <trkpt lat="42.46997" lon="1.51097">
        <ele>1321.03</ele>
        <time>2016-05-06T15:48:22Z</time>
      </trkpt>
      <trkpt lat="42.46983" lon="1.51081">
        <ele>1319.228</ele>
        <time>2016-05-06T15:48:42Z</time>
      </trkpt>
      <trkpt lat="42.46975" lon="1.51075">
        <ele>1320.086</ele>
        <time>2016-05-06T15:49:02Z</time>
      </trkpt>
      <trkpt lat="42.46965" lon="1.51066">
        <ele>1321.854</ele>
        <time>2016-05-06T15:49:22Z</time>
      </trkpt>
      <trkpt lat="42.46955" lon="1.51054">
        <ele>1323.195</ele>
        <time>2016-05-06T15:49:42Z</time>
      </trkpt>
      <trkpt lat="42.46946" lon="1.51045">
        <ele>1324.413</ele>
        <time>2016-05-06T15:50:02Z</time>
      </trkpt>
      <trkpt lat="42.4694" lon="1.51034">
        <ele>1324.261</ele>
        <time>2016-05-06T15:50:22Z</time>
      </trkpt>
      <trkpt lat="42.46933" lon="1.51028">
        <ele>1325.069</ele>
        <time>2016-05-06T15:50:42Z</time>
      </trkpt>
      <trkpt lat="42.46924" lon="1.51018">
        <ele>1326.204</ele>
        <time>2016-05-06T15:51:02Z</time>
      </trkpt>
      <trkpt lat="42.4692" lon="1.51018">
        <ele>1328.024</ele>
        <time>2016-05-06T15:51:22Z</time>
      </trkpt>
      <trkpt lat="42.4691" lon="1.51018">
        <ele>1332.008</ele>
        <time>2016-05-06T15:51:42Z</time>
      </trkpt>
      <trkpt lat="42.46903" lon="1.51015">
        <ele>1332.847</ele>
        <time>2016-05-06T15:52:02Z</time>
      </trkpt>
      <trkpt lat="42.46896" lon="1.5101">
        <ele>1332.749</ele>
        <time>2016-05-06T15:52:22Z</time>
      </trkpt>
      <trkpt lat="42.46885" lon="1.51005">
        <ele>1334.017</ele>
        <time>2016-05-06T15:52:42Z</time>
      </trkpt>
      <trkpt lat="42.46874" lon="1.51">
        <ele>1335.825</ele>
        <time>2016-05-06T15:53:02Z</time>
      </trkpt>
      <trkpt lat="42.46868" lon="1.50997">
        <ele>1337.123</ele>
        <time>2016-05-06T15:53:22Z</time>
      </trkpt>
      <trkpt lat="42.46856" lon="1.50993">
        <ele>1340.384</ele>
        <time>2016-05-06T15:53:42Z</time>
      </trkpt>
      <trkpt lat="42.46844" lon="1.50988">
        <ele>1343.562</ele>
        <time>2016-05-06T15:54:02Z</time>
      </trkpt>
      <trkpt lat="42.46837" lon="1.50983">
        <ele>1343.92</ele>
        <time>2016-05-06T15:54:22Z</time>
      </trkpt>
      <trkpt lat="42.46827" lon="1.50978">
        <ele>1345.218</ele>
        <time>2016-05-06T15:54:42Z</time>
      </trkpt>
      <trkpt lat="42.46815" lon="1.50976">
        <ele>1348.898</ele>
        <time>2016-05-06T15:55:02Z</time>
      </trkpt>
      <trkpt lat="42.46803" lon="1.50975">
        <ele>1352.117</ele>
        <time>2016-05-06T15:55:22Z</time>
      </trkpt>
      <trkpt lat="42.46784" lon="1.50974">
        <ele>1358.308</ele>
        <time>2016-05-06T15:55:42Z</time>
      </trkpt>
      <trkpt lat="42.46777" lon="1.50964">
        <ele>1354.482</ele>
        <time>2016-05-06T15:56:02Z</time>
      </trkpt>
      <trkpt lat="42.46761" lon="1.50964">
        <ele>1360.864</ele>
        <time>2016-05-06T15:56:22Z</time>
      </trkpt>
      <trkpt lat="42.46749" lon="1.50966">
        <ele>1367.152</ele>
        <time>2016-05-06T15:56:42Z</time>
      </trkpt>
      <trkpt lat="42.46741" lon="1.50962">
        <ele>1367.76</ele>
        <time>2016-05-06T15:57:02Z</time>
      </trkpt>
      <trkpt lat="42.4673" lon="1.50958">
        <ele>1369.428</ele>
        <time>2016-05-06T15:57:22Z</time>
      </trkpt>
      <trkpt lat="42.46716" lon="1.50959">
        <ele>1374.919</ele>
        <time>2016-05-06T15:57:42Z</time>
      </trkpt>
      <trkpt lat="42.46704" lon="1.50951">
        <ele>1376.347</ele>
        <time>2016-05-06T15:58:02Z</time>
      </trkpt>
      <trkpt lat="42.46699" lon="1.5096">
        <ele>1381.815</ele>
        <time>2016-05-06T15:58:22Z</time>
      </trkpt>
      <trkpt lat="42.46693" lon="1.50958">
        <ele>1382.849</ele>
        <time>2016-05-06T15:58:42Z</time>
      </trkpt>
      <trkpt lat="42.46686" lon="1.50964">
        <ele>1384.902</ele>
        <time>2016-05-06T15:59:02Z</time>
      </trkpt>
      <trkpt lat="42.46679" lon="1.50975">
        <ele>1387.922</ele>
        <time>2016-05-06T15:59:22Z</time>
      </trkpt>
      <trkpt lat="42.46671" lon="1.50991">
        <ele>1391.508</ele>
        <time>2016-05-06T15:59:42Z</time>
      </trkpt>
      <trkpt lat="42.4666" lon="1.5101">
        <ele>1393.135</ele>
        <time>2016-05-06T16:00:02Z</time>
      </trkpt>
      <trkpt lat="42.46653" lon="1.51025">
        <ele>1393.447</ele>
        <time>2016-05-06T16:00:22Z</time>
      </trkpt>
      <trkpt lat="42.46642" lon="1.51037">
        <ele>1390.685</ele>
        <time>2016-05-06T16:00:42Z</time>
      </trkpt>
      <trkpt lat="42.46647" lon="1.51052">
        <ele>1397.333</ele>
        <time>2016-05-06T16:01:02Z</time>
      </trkpt>
      <trkpt lat="42.46647" lon="1.51073">
        <ele>1402.441</ele>
        <time>2016-05-06T16:01:22Z</time>
      </trkpt>
      <trkpt lat="42.46636" lon="1.51106">
        <ele>1405.582</ele>
        <time>2016-05-06T16:01:42Z</time>
      </trkpt>
      <trkpt lat="42.46644" lon="1.51127">
        <ele>1410.47</ele>
        <time>2016-05-06T16:02:02Z</time>
      </trkpt>
      <trkpt lat="42.46651" lon="1.51138">
        <ele>1412.448</ele>
        <time>2016-05-06T16:02:22Z</time>
      </trkpt>
      <trkpt lat="42.46655" lon="1.51158">
        <ele>1411.023</ele>
        <time>2016-05-06T16:02:42Z</time>
      </trkpt>
      <trkpt lat="42.46662" lon="1.51172">
        <ele>1412.683</ele>
        <time>2016-05-06T16:03:02Z</time>
      </trkpt>
      <trkpt lat="42.46665" lon="1.51184">
        <ele>1413.011</ele>
        <time>2016-05-06T16:03:22Z</time>
      </trkpt>
      <trkpt lat="42.46668" lon="1.51199">
        <ele>1413.108</ele>
        <time>2016-05-06T16:03:42Z</time>
      </trkpt>
      <trkpt lat="42.46667" lon="1.51213">
        <ele>1412.563</ele>
        <time>2016-05-06T16:04:02Z</time>
      </trkpt>
      <trkpt lat="42.46669" lon="1.51227">
        <ele>1413.115</ele>
        <time>2016-05-06T16:04:22Z</time>
      </trkpt>
      <trkpt lat="42.46667" lon="1.51263">
        <ele>1415.033</ele>
        <time>2016-05-06T16:04:42Z</time>
      </trkpt>
      <trkpt lat="42.46659" lon="1.5129">
        <ele>1414.111</ele>
        <time>2016-05-06T16:05:02Z</time>
      </trkpt>
      <trkpt lat="42.46654" lon="1.51309">
        <ele>1414.769</ele>
        <time>2016-05-06T16:05:22Z</time>
      </trkpt>
      <trkpt lat="42.46643" lon="1.51334">
        <ele>1417.13</ele>
        <time>2016-05-06T16:05:42Z</time>
      </trkpt>
      <trkpt lat="42.46638" lon="1.51343">
        <ele>1417.628</ele>
        <time>2016-05-06T16:06:02Z</time>
      </trkpt>
      <trkpt lat="42.46624" lon="1.51361">
        <ele>1414.776</ele>
        <time>2016-05-06T16:06:22Z</time>
      </trkpt>
      <trkpt lat="42.46617" lon="1.51375">
        <ele>1417.444</ele>
        <time>2016-05-06T16:06:42Z</time>
      </trkpt>
      <trkpt lat="42.4661" lon="1.51392">
        <ele>1421.805</ele>
        <time>2016-05-06T16:07:02Z</time>
      </trkpt>
      <trkpt lat="42.46604" lon="1.51408">
        <ele>1423.915</ele>
        <time>2016-05-06T16:07:22Z</time>
      </trkpt>
      <trkpt lat="42.46598" lon="1.51422">
        <ele>1426.208</ele>
        <time>2016-05-06T16:07:42Z</time>
      </trkpt>
      <trkpt lat="42.46598" lon="1.51425">
        <ele>1427.745</ele>
        <time>2016-05-06T16:08:02Z</time>
      </trkpt>
      <trkpt lat="42.46598" lon="1.51445">
        <ele>1436.997</ele>
        <time>2016-05-06T16:08:22Z</time>
      </trkpt>
      <trkpt lat="42.46592" lon="1.51464">
        <ele>1432.995</ele>
        <time>2016-05-06T16:08:42Z</time>
      </trkpt>
      <trkpt lat="42.4659" lon="1.51488">
        <ele>1425.053</ele>
        <time>2016-05-06T16:09:02Z</time>
      </trkpt>
      <trkpt lat="42.46599" lon="1.515">
        <ele>1427.611</ele>
        <time>2016-05-06T16:09:22Z</time>
      </trkpt>
      <trkpt lat="42.46611" lon="1.51521">
        <ele>1423.522</ele>
        <time>2016-05-06T16:09:42Z</time>
      </trkpt>
      <trkpt lat="42.46618" lon="1.51531">
        <ele>1420.07</ele>
        <time>2016-05-06T16:10:02Z</time>
      </trkpt>
      <trkpt lat="42.46622" lon="1.51544">
        <ele>1415.798</ele>
        <time>2016-05-06T16:10:22Z</time>
      </trkpt>
      <trkpt lat="42.4663" lon="1.51553">
        <ele>1414.411</ele>
        <time>2016-05-06T16:10:42Z</time>
      </trkpt>
      <trkpt lat="42.46637" lon="1.51569">
        <ele>1417.721</ele>
        <time>2016-05-06T16:11:02Z</time>
      </trkpt>
      <trkpt lat="42.46622" lon="1.51578">
        <ele>1412.803</ele>
        <time>2016-05-06T16:11:22Z</time>
      </trkpt>
      <trkpt lat="42.46618" lon="1.51591">
        <ele>1416.108</ele>
        <time>2016-05-06T16:11:42Z</time>
      </trkpt>
      <trkpt lat="42.46617" lon="1.516">
        <ele>1420.692</ele>
        <time>2016-05-06T16:12:02Z</time>
      </trkpt>
      <trkpt lat="42.46607" lon="1.51612">
        <ele>1423.644</ele>
        <time>2016-05-06T16:12:22Z</time>
      </trkpt>
      <trkpt lat="42.46598" lon="1.51624">
        <ele>1427.242</ele>
        <time>2016-05-06T16:12:42Z</time>
      </trkpt>
      <trkpt lat="42.46594" lon="1.51637">
        <ele>1433.12</ele>
        <time>2016-05-06T16:13:02Z</time>
      </trkpt>
      <trkpt lat="42.46589" lon="1.51637">
        <ele>1431.548</ele>
        <time>2016-05-06T16:13:22Z</time>
      </trkpt>
      <trkpt lat="42.46581" lon="1.51647">
        <ele>1434.719</ele>
        <time>2016-05-06T16:13:42Z</time>
      </trkpt>
      <trkpt lat="42.46572" lon="1.51651">
        <ele>1434.647</ele>
        <time>2016-05-06T16:14:02Z</time>
      </trkpt>
      <trkpt lat="42.46562" lon="1.51647">
        <ele>1429.255</ele>
        <time>2016-05-06T16:14:22Z</time>
      </trkpt>
      <trkpt lat="42.46551" lon="1.51647">
        <ele>1427.248</ele>
        <time>2016-05-06T16:14:42Z</time>
      </trkpt>
      <trkpt lat="42.46538" lon="1.5165">
        <ele>1429.761</ele>
        <time>2016-05-06T16:15:02Z</time>
      </trkpt>
      <trkpt lat="42.46523" lon="1.51657">
        <ele>1434.317</ele>
        <time>2016-05-06T16:15:22Z</time>
      </trkpt>
      <trkpt lat="42.46511" lon="1.51665">
        <ele>1438.008</ele>
        <time>2016-05-06T16:15:42Z</time>
      </trkpt>
      <trkpt lat="42.4651" lon="1.51666">
        <ele>1438.675</ele>
        <time>2016-05-06T16:16:02Z</time>
      </trkpt>
      <trkpt lat="42.46506" lon="1.5167">
        <ele>1440.827</ele>
        <time>2016-05-06T16:16:22Z</time>
      </trkpt>
      <trkpt lat="42.46499" lon="1.51675">
        <ele>1443.025</ele>
        <time>2016-05-06T16:16:42Z</time>
      </trkpt>
      <trkpt lat="42.46491" lon="1.51674">
        <ele>1442.633</ele>
        <time>2016-05-06T16:17:02Z</time>
      </trkpt>
      <trkpt lat="42.46486" lon="1.51677">
        <ele>1443.921</ele>
        <time>2016-05-06T16:17:22Z</time>
      </trkpt>
      <trkpt lat="42.4648" lon="1.51684">
        <ele>1448.622</ele>
        <time>2016-05-06T16:17:42Z</time>
      </trkpt>
      <trkpt lat="42.46472" lon="1.51685">
        <ele>1448.83</ele>
        <time>2016-05-06T16:18:02Z</time>
      </trkpt>
      <trkpt lat="42.46461" lon="1.51686">
        <ele>1451.288</ele>
        <time>2016-05-06T16:18:22Z</time>
      </trkpt>
      <trkpt lat="42.4645" lon="1.51685">
        <ele>1452.893</ele>
        <time>2016-05-06T16:18:42Z</time>
      </trkpt>
      <trkpt lat="42.46437" lon="1.5169">
        <ele>1457.265</ele>
        <time>2016-05-06T16:19:02Z</time>
      </trkpt>
      <trkpt lat="42.46427" lon="1.51695">
        <ele>1460.021</ele>
        <time>2016-05-06T16:19:22Z</time>
      </trkpt>
      <trkpt lat="42.46419" lon="1.51704">
        <ele>1463.208</ele>
        <time>2016-05-06T16:19:42Z</time>
      </trkpt>
      <trkpt lat="42.46408" lon="1.51712">
        <ele>1467.48</ele>
        <time>2016-05-06T16:20:02Z</time>
      </trkpt>
      <trkpt lat="42.46398" lon="1.51713">
        <ele>1470.072</ele>
        <time>2016-05-06T16:20:22Z</time>
      </trkpt>
      <trkpt lat="42.46386" lon="1.51712">
        <ele>1472.32</ele>
        <time>2016-05-06T16:20:42Z</time>
      </trkpt>
      <trkpt lat="42.46378" lon="1.5171">
        <ele>1473.338</ele>
        <time>2016-05-06T16:21:02Z</time>
      </trkpt>
      <trkpt lat="42.46369" lon="1.51708">
        <ele>1474.446</ele>
        <time>2016-05-06T16:21:22Z</time>
      </trkpt>
      <trkpt lat="42.46349" lon="1.51705">
        <ele>1477.527</ele>
        <time>2016-05-06T16:21:42Z</time>
      </trkpt>
      <trkpt lat="42.4634" lon="1.51701">
        <ele>1478.255</ele>
        <time>2016-05-06T16:22:02Z</time>
      </trkpt>
      <trkpt lat="42.46335" lon="1.51694">
        <ele>1477.583</ele>
        <time>2016-05-06T16:22:22Z</time>
      </trkpt>
      <trkpt lat="42.46334" lon="1.51688">
        <ele>1475.955</ele>
        <time>2016-05-06T16:22:42Z</time>
      </trkpt>
      <trkpt lat="42.46322" lon="1.51669">
        <ele>1472.907</ele>
        <time>2016-05-06T16:23:02Z</time>
      </trkpt>
      <trkpt lat="42.46314" lon="1.51658">
        <ele>1472.017</ele>
        <time>2016-05-06T16:23:22Z</time>
      </trkpt>
      <trkpt lat="42.46302" lon="1.51654">
        <ele>1472.008</ele>
        <time>2016-05-06T16:23:42Z</time>
      </trkpt>
      <trkpt lat="42.46288" lon="1.51654">
        <ele>1471.416</ele>
        <time>2016-05-06T16:24:02Z</time>
      </trkpt>
      <trkpt lat="42.46269" lon="1.51664">
        <ele>1473.528</ele>
        <time>2016-05-06T16:24:22Z</time>
      </trkpt>
      <trkpt lat="42.4626" lon="1.51663">
        <ele>1472.756</ele>
        <time>2016-05-06T16:24:42Z</time>
      </trkpt>
      <trkpt lat="42.46234" lon="1.51666">
        <ele>1472.734</ele>
        <time>2016-05-06T16:25:02Z</time>
      </trkpt>
      <trkpt lat="42.46226" lon="1.51665">
        <ele>1472.462</ele>
        <time>2016-05-06T16:25:22Z</time>
      </trkpt>
      <trkpt lat="42.46216" lon="1.51664">
        <ele>1472.083</ele>
        <time>2016-05-06T16:25:42Z</time>
      </trkpt>
      <trkpt lat="42.4621" lon="1.51662">
        <ele>1471.061</ele>
        <time>2016-05-06T16:26:02Z</time>
      </trkpt>
      <trkpt lat="42.46194" lon="1.51666">
        <ele>1471.799</ele>
        <time>2016-05-06T16:26:22Z</time>
      </trkpt>
      <trkpt lat="42.46185" lon="1.51665">
        <ele>1470.832</ele>
        <time>2016-05-06T16:26:42Z</time>
      </trkpt>
      <trkpt lat="42.46177" lon="1.5167">
        <ele>1471.792</ele>
        <time>2016-05-06T16:27:02Z</time>
      </trkpt>
      <trkpt lat="42.46166" lon="1.51681">
        <ele>1474.511</ele>
        <time>2016-05-06T16:27:22Z</time>
      </trkpt>
      <trkpt lat="42.46159" lon="1.51689">
        <ele>1476.008</ele>
        <time>2016-05-06T16:27:42Z</time>
      </trkpt>
      <trkpt lat="42.46151" lon="1.51687">
        <ele>1474.494</ele>
        <time>2016-05-06T16:28:02Z</time>
      </trkpt>
      <trkpt lat="42.46144" lon="1.51677">
        <ele>1470.786</ele>
        <time>2016-05-06T16:28:22Z</time>
      </trkpt>
      <trkpt lat="42.46144" lon="1.51669">
        <ele>1468.864</ele>
        <time>2016-05-06T16:28:42Z</time>
      </trkpt>
      <trkpt lat="42.46144" lon="1.51654">
        <ele>1466.472</ele>
        <time>2016-05-06T16:29:02Z</time>
      </trkpt>
      <trkpt lat="42.46146" lon="1.5164">
        <ele>1464.03</ele>
        <time>2016-05-06T16:29:22Z</time>
      </trkpt>
      <trkpt lat="42.46144" lon="1.51631">
        <ele>1462.561</ele>
        <time>2016-05-06T16:29:42Z</time>
      </trkpt>
      <trkpt lat="42.4614" lon="1.51625">
        <ele>1462.499</ele>
        <time>2016-05-06T16:30:02Z</time>
      </trkpt>
      <trkpt lat="42.46134" lon="1.51617">
        <ele>1462.527</ele>
        <time>2016-05-06T16:30:22Z</time>
      </trkpt>
      <trkpt lat="42.46129" lon="1.51614">
        <ele>1463.378</ele>
        <time>2016-05-06T16:30:42Z</time>
      </trkpt>
      <trkpt lat="42.46123" lon="1.51601">
        <ele>1462.233</ele>
        <time>2016-05-06T16:31:02Z</time>
      </trkpt>
      <trkpt lat="42.46113" lon="1.51588">
        <ele>1461.126</ele>
        <time>2016-05-06T16:31:22Z</time>
      </trkpt>
      <trkpt lat="42.46111" lon="1.51577">
        <ele>1458.408</ele>
        <time>2016-05-06T16:31:42Z</time>
      </trkpt>
      <trkpt lat="42.46106" lon="1.51562">
        <ele>1456.278</ele>
        <time>2016-05-06T16:32:02Z</time>
      </trkpt>
      <trkpt lat="42.461" lon="1.51556">
        <ele>1456.34</ele>
        <time>2016-05-06T16:32:22Z</time>
      </trkpt>
      <trkpt lat="42.46092" lon="1.51543">
        <ele>1455.388</ele>
        <time>2016-05-06T16:32:42Z</time>
      </trkpt>
      <trkpt lat="42.46086" lon="1.51531">
        <ele>1454.256</ele>
        <time>2016-05-06T16:33:02Z</time>
      </trkpt>
      <trkpt lat="42.46082" lon="1.51524">
        <ele>1453.664</ele>
        <time>2016-05-06T16:33:22Z</time>
      </trkpt>
      <trkpt lat="42.46078" lon="1.51512">
        <ele>1452.865</ele>
        <time>2016-05-06T16:33:42Z</time>
      </trkpt>
      <trkpt lat="42.46075" lon="1.51499">
        <ele>1450.563</ele>
        <time>2016-05-06T16:34:02Z</time>
      </trkpt>
      <trkpt lat="42.46065" lon="1.51481">
        <ele>1449.141</ele>
        <time>2016-05-06T16:34:22Z</time>
      </trkpt>
      <trkpt lat="42.46057" lon="1.51468">
        <ele>1447.868</ele>
        <time>2016-05-06T16:34:42Z</time>
      </trkpt>
      <trkpt lat="42.46054" lon="1.51461">
        <ele>1446.542</ele>
        <time>2016-05-06T16:35:02Z</time>
      </trkpt>
      <trkpt lat="42.46047" lon="1.51447">
        <ele>1444.426</ele>
        <time>2016-05-06T16:35:22Z</time>
      </trkpt>
      <trkpt lat="42.46041" lon="1.51438">
        <ele>1445.208</ele>
        <time>2016-05-06T16:35:42Z</time>
      </trkpt>
      <trkpt lat="42.46038" lon="1.51427">
        <ele>1444.117</ele>
        <time>2016-05-06T16:36:02Z</time>
      </trkpt>
      <trkpt lat="42.46039" lon="1.51412">
        <ele>1441.439</ele>
        <time>2016-05-06T16:36:22Z</time>
      </trkpt>
      <trkpt lat="42.46039" lon="1.51395">
        <ele>1439.017</ele>
        <time>2016-05-06T16:36:42Z</time>
      </trkpt>
      <trkpt lat="42.46045" lon="1.51371">
        <ele>1434.215</ele>
        <time>2016-05-06T16:37:02Z</time>
      </trkpt>
      <trkpt lat="42.4605" lon="1.5138">
        <ele>1433.073</ele>
        <time>2016-05-06T16:37:22Z</time>
      </trkpt>
      <trkpt lat="42.46059" lon="1.51394">
        <ele>1431.534</ele>
        <time>2016-05-06T16:37:42Z</time>
      </trkpt>
      <trkpt lat="42.46067" lon="1.51406">
        <ele>1430.522</ele>
        <time>2016-05-06T16:38:02Z</time>
      </trkpt>
      <trkpt lat="42.46076" lon="1.51416">
        <ele>1429.29</ele>
        <time>2016-05-06T16:38:22Z</time>
      </trkpt>
      <trkpt lat="42.46087" lon="1.51427">
        <ele>1428.472</ele>
        <time>2016-05-06T16:38:42Z</time>
      </trkpt>
      <trkpt lat="42.46095" lon="1.5143">
        <ele>1427.613</ele>
        <time>2016-05-06T16:39:02Z</time>
      </trkpt>
      <trkpt lat="42.46106" lon="1.51443">
        <ele>1428.614</ele>
        <time>2016-05-06T16:39:22Z</time>
      </trkpt>
      <trkpt lat="42.46119" lon="1.51442">
        <ele>1426.308</ele>
        <time>2016-05-06T16:39:42Z</time>
      </trkpt>
      <trkpt lat="42.46132" lon="1.51437">
        <ele>1423.298</ele>
        <time>2016-05-06T16:40:02Z</time>
      </trkpt>
      <trkpt lat="42.46143" lon="1.51437">
        <ele>1422.19</ele>
        <time>2016-05-06T16:40:22Z</time>
      </trkpt>
      <trkpt lat="42.46157" lon="1.51438">
        <ele>1421.388</ele>
        <time>2016-05-06T16:40:42Z</time>
      </trkpt>
      <trkpt lat="42.46165" lon="1.51437">
        <ele>1420.556</ele>
        <time>2016-05-06T16:41:02Z</time>
      </trkpt>
      <trkpt lat="42.46167" lon="1.51429">
        <ele>1418.424</ele>
        <time>2016-05-06T16:41:22Z</time>
      </trkpt>
      <trkpt lat="42.46173" lon="1.51414">
        <ele>1411.965</ele>
        <time>2016-05-06T16:41:42Z</time>
      </trkpt>
      <trkpt lat="42.46155" lon="1.51394">
        <ele>1411.193</ele>
        <time>2016-05-06T16:42:02Z</time>
      </trkpt>
      <trkpt lat="42.46144" lon="1.51393">
        <ele>1411.621</ele>
        <time>2016-05-06T16:42:22Z</time>
      </trkpt>
      <trkpt lat="42.46132" lon="1.51385">
        <ele>1411.233</ele>
        <time>2016-05-06T16:42:42Z</time>
      </trkpt>
      <trkpt lat="42.4613" lon="1.51377">
        <ele>1409.823</ele>
        <time>2016-05-06T16:43:02Z</time>
      </trkpt>
      <trkpt lat="42.46128" lon="1.51364">
        <ele>1407.515</ele>
        <time>2016-05-06T16:43:22Z</time>
      </trkpt>
      <trkpt lat="42.46135" lon="1.51358">
        <ele>1405.508</ele>
        <time>2016-05-06T16:43:42Z</time>
      </trkpt>
      <trkpt lat="42.4615" lon="1.51355">
        <ele>1404.224</ele>
        <time>2016-05-06T16:44:02Z</time>
      </trkpt>
      <trkpt lat="42.46161" lon="1.51355">
        <ele>1404.296</ele>
        <time>2016-05-06T16:44:22Z</time>
      </trkpt>
      <trkpt lat="42.46169" lon="1.51355">
        <ele>1403.714</ele>
        <time>2016-05-06T16:44:42Z</time>
      </trkpt>
      <trkpt lat="42.46183" lon="1.51339">
        <ele>1399.462</ele>
        <time>2016-05-06T16:45:02Z</time>
      </trkpt>
      <trkpt lat="42.46193" lon="1.5133">
        <ele>1397.08</ele>
        <time>2016-05-06T16:45:22Z</time>
      </trkpt>
      <trkpt lat="42.46198" lon="1.51326">
        <ele>1395.241</ele>
        <time>2016-05-06T16:45:42Z</time>
      </trkpt>
      <trkpt lat="42.46201" lon="1.51314">
        <ele>1393.839</ele>
        <time>2016-05-06T16:46:02Z</time>
      </trkpt>
      <trkpt lat="42.46201" lon="1.51299">
        <ele>1392.627</ele>
        <time>2016-05-06T16:46:22Z</time>
      </trkpt>
      <trkpt lat="42.46189" lon="1.51292">
        <ele>1392.647</ele>
        <time>2016-05-06T16:46:42Z</time>
      </trkpt>
      <trkpt lat="42.46172" lon="1.51275">
        <ele>1391.729</ele>
        <time>2016-05-06T16:47:02Z</time>
      </trkpt>
      <trkpt lat="42.46173" lon="1.51263">
        <ele>1389.521</ele>
        <time>2016-05-06T16:47:22Z</time>
      </trkpt>
      <trkpt lat="42.46168" lon="1.51251">
        <ele>1388.008</ele>
        <time>2016-05-06T16:47:42Z</time>
      </trkpt>
      <trkpt lat="42.46166" lon="1.5124">
        <ele>1387.025</ele>
        <time>2016-05-06T16:48:02Z</time>
      </trkpt>
      <trkpt lat="42.46166" lon="1.51227">
        <ele>1385.577</ele>
        <time>2016-05-06T16:48:22Z</time>
      </trkpt>
      <trkpt lat="42.46156" lon="1.51216">
        <ele>1384.625</ele>
        <time>2016-05-06T16:48:42Z</time>
      </trkpt>
      <trkpt lat="42.46142" lon="1.51207">
        <ele>1383.533</ele>
        <time>2016-05-06T16:49:02Z</time>
      </trkpt>
      <trkpt lat="42.46134" lon="1.51207">
        <ele>1384.061</ele>
        <time>2016-05-06T16:49:22Z</time>
      </trkpt>
      <trkpt lat="42.46125" lon="1.51205">
        <ele>1383.832</ele>
        <time>2016-05-06T16:49:42Z</time>
      </trkpt>
      <trkpt lat="42.46111" lon="1.51197">
        <ele>1381.74</ele>
        <time>2016-05-06T16:50:02Z</time>
      </trkpt>
      <trkpt lat="42.46109" lon="1.51196">
        <ele>1381.828</ele>
        <time>2016-05-06T16:50:22Z</time>
      </trkpt>
      <trkpt lat="42.46102" lon="1.5119">
        <ele>1381.135</ele>
        <time>2016-05-06T16:50:42Z</time>
      </trkpt>
      <trkpt lat="42.46095" lon="1.51171">
        <ele>1377.586</ele>
        <time>2016-05-06T16:51:02Z</time>
      </trkpt>
      <trkpt lat="42.46095" lon="1.51156">
        <ele>1374.214</ele>
        <time>2016-05-06T16:51:22Z</time>
      </trkpt>
      <trkpt lat="42.46088" lon="1.51142">
        <ele>1373.708</ele>
        <time>2016-05-06T16:51:42Z</time>
      </trkpt>
      <trkpt lat="42.46081" lon="1.51135">
        <ele>1374.954</ele>
        <time>2016-05-06T16:52:02Z</time>
      </trkpt>
      <trkpt lat="42.46072" lon="1.51114">
        <ele>1373.186</ele>
        <time>2016-05-06T16:52:22Z</time>
      </trkpt>
      <trkpt lat="42.46061" lon="1.51095">
        <ele>1370.184</ele>
        <time>2016-05-06T16:52:42Z</time>
      </trkpt>
      <trkpt lat="42.46051" lon="1.51073">
        <ele>1366.772</ele>
        <time>2016-05-06T16:53:02Z</time>
      </trkpt>
      <trkpt lat="42.4604" lon="1.51057">
        <ele>1365.96</ele>
        <time>2016-05-06T16:53:22Z</time>
      </trkpt>
      <trkpt lat="42.46032" lon="1.51044">
        <ele>1365.591</ele>
        <time>2016-05-06T16:53:42Z</time>
      </trkpt>
      <trkpt lat="42.46027" lon="1.51023">
        <ele>1362.699</ele>
        <time>2016-05-06T16:54:02Z</time>
      </trkpt>
      <trkpt lat="42.46022" lon="1.51001">
        <ele>1361.487</ele>
        <time>2016-05-06T16:54:22Z</time>
      </trkpt>
      <trkpt lat="42.46031" lon="1.51">
        <ele>1358.295</ele>
        <time>2016-05-06T16:54:42Z</time>
      </trkpt>
      <trkpt lat="42.4604" lon="1.51006">
        <ele>1357.249</ele>
        <time>2016-05-06T16:55:02Z</time>
      </trkpt>
      <trkpt lat="42.46053" lon="1.51013">
        <ele>1355.423</ele>
        <time>2016-05-06T16:55:22Z</time>
      </trkpt>
      <trkpt lat="42.46078" lon="1.51022">
        <ele>1353.008</ele>
        <time>2016-05-06T16:55:42Z</time>
      </trkpt>
      <trkpt lat="42.46092" lon="1.5102">
        <ele>1350.59</ele>
        <time>2016-05-06T16:56:02Z</time>
      </trkpt>
      <trkpt lat="42.46111" lon="1.51031">
        <ele>1349.392</ele>
        <time>2016-05-06T16:56:22Z</time>
      </trkpt>
      <trkpt lat="42.46125" lon="1.51037">
        <ele>1346.33</ele>
        <time>2016-05-06T16:56:42Z</time>
      </trkpt>
      <trkpt lat="42.46135" lon="1.51031">
        <ele>1343.068</ele>
        <time>2016-05-06T16:57:02Z</time>
      </trkpt>
      <trkpt lat="42.46141" lon="1.51017">
        <ele>1339.856</ele>
        <time>2016-05-06T16:57:22Z</time>
      </trkpt>
      <trkpt lat="42.46143" lon="1.51">
        <ele>1337.567</ele>
        <time>2016-05-06T16:57:42Z</time>
      </trkpt>
      <trkpt lat="42.46141" lon="1.50988">
        <ele>1335.785</ele>
        <time>2016-05-06T16:58:02Z</time>
      </trkpt>
      <trkpt lat="42.46134" lon="1.50982">
        <ele>1336.193</ele>
        <time>2016-05-06T16:58:22Z</time>
      </trkpt>
      <trkpt lat="42.46127" lon="1.5097">
        <ele>1335.398</ele>
        <time>2016-05-06T16:58:42Z</time>
      </trkpt>
      <trkpt lat="42.46119" lon="1.50964">
        <ele>1335.615</ele>
        <time>2016-05-06T16:59:02Z</time>
      </trkpt>
      <trkpt lat="42.4611" lon="1.5095">
        <ele>1333.126</ele>
        <time>2016-05-06T16:59:22Z</time>
      </trkpt>
      <trkpt lat="42.46098" lon="1.50942">
        <ele>1332.808</ele>
        <time>2016-05-06T16:59:42Z</time>
      </trkpt>
      <trkpt lat="42.46092" lon="1.50934">
        <ele>1331.25</ele>
        <time>2016-05-06T17:00:02Z</time>
      </trkpt>
      <trkpt lat="42.46081" lon="1.50926">
        <ele>1330.022</ele>
        <time>2016-05-06T17:00:22Z</time>
      </trkpt>
      <trkpt lat="42.46072" lon="1.50918">
        <ele>1329.15</ele>
        <time>2016-05-06T17:00:42Z</time>
      </trkpt>
      <trkpt lat="42.46063" lon="1.50912">
        <ele>1329.558</ele>
        <time>2016-05-06T17:01:02Z</time>
      </trkpt>
      <trkpt lat="42.4606" lon="1.50903">
        <ele>1328.596</ele>
        <time>2016-05-06T17:01:22Z</time>
      </trkpt>
      <trkpt lat="42.46062" lon="1.50891">
        <ele>1325.757</ele>
        <time>2016-05-06T17:01:42Z</time>
      </trkpt>
      <trkpt lat="42.46064" lon="1.50879">
        <ele>1323.645</ele>
        <time>2016-05-06T17:02:02Z</time>
      </trkpt>
      <trkpt lat="42.46061" lon="1.50863">
        <ele>1322.623</ele>
        <time>2016-05-06T17:02:22Z</time>
      </trkpt>
      <trkpt lat="42.4606" lon="1.50838">
        <ele>1321.992</ele>
        <time>2016-05-06T17:02:42Z</time>
      </trkpt>
      <trkpt lat="42.46059" lon="1.5082">
        <ele>1320.973</ele>
        <time>2016-05-06T17:03:02Z</time>
      </trkpt>
      <trkpt lat="42.46062" lon="1.50799">
        <ele>1318.82</ele>
        <time>2016-05-06T17:03:22Z</time>
      </trkpt>
      <trkpt lat="42.46058" lon="1.50779">
        <ele>1318.508</ele>
        <time>2016-05-06T17:03:42Z</time>
      </trkpt>
      <trkpt lat="42.46057" lon="1.50761">
        <ele>1316.94</ele>
        <time>2016-05-06T17:04:02Z</time>
      </trkpt>
      <trkpt lat="42.46059" lon="1.50747">
        <ele>1314.822</ele>
        <time>2016-05-06T17:04:22Z</time>
      </trkpt>
      <trkpt lat="42.46053" lon="1.50731">
        <ele>1315.15</ele>
        <time>2016-05-06T17:04:42Z</time>
      </trkpt>
      <trkpt lat="42.46045" lon="1.50714">
        <ele>1316.438</ele>
        <time>2016-05-06T17:05:02Z</time>
      </trkpt>
      <trkpt lat="42.46039" lon="1.50698">
        <ele>1317.186</ele>
        <time>2016-05-06T17:05:22Z</time>
      </trkpt>
      <trkpt lat="42.46029" lon="1.5067">
        <ele>1317.067</ele>
        <time>2016-05-06T17:05:42Z</time>
      </trkpt>
      <trkpt lat="42.4602" lon="1.50651">
        <ele>1320.065</ele>
        <time>2016-05-06T17:06:02Z</time>
      </trkpt>
      <trkpt lat="42.46018" lon="1.50637">
        <ele>1320.073</ele>
        <time>2016-05-06T17:06:22Z</time>
      </trkpt>
      <trkpt lat="42.46009" lon="1.50614">
        <ele>1323.615</ele>
        <time>2016-05-06T17:06:42Z</time>
      </trkpt>
      <trkpt lat="42.46003" lon="1.50602">
        <ele>1325.265</ele>
        <time>2016-05-06T17:07:02Z</time>
      </trkpt>
      <trkpt lat="42.45996" lon="1.50586">
        <ele>1325.711</ele>
        <time>2016-05-06T17:07:22Z</time>
      </trkpt>
      <trkpt lat="42.45985" lon="1.50568">
        <ele>1327.408</ele>
        <time>2016-05-06T17:07:42Z</time>
      </trkpt>
      <trkpt lat="42.45974" lon="1.50555">
        <ele>1328.422</ele>
        <time>2016-05-06T17:08:02Z</time>
      </trkpt>
      <trkpt lat="42.45967" lon="1.50546">
        <ele>1328.614</ele>
        <time>2016-05-06T17:08:22Z</time>
      </trkpt>
      <trkpt lat="42.45971" lon="1.50529">
        <ele>1322.972</ele>
        <time>2016-05-06T17:08:42Z</time>
      </trkpt>
      <trkpt lat="42.45971" lon="1.50514">
        <ele>1319.06</ele>
        <time>2016-05-06T17:09:02Z</time>
      </trkpt>
      <trkpt lat="42.45972" lon="1.50487">
        <ele>1311.348</ele>
        <time>2016-05-06T17:09:22Z</time>
      </trkpt>
      <trkpt lat="42.45972" lon="1.50464">
        <ele>1304.869</ele>
        <time>2016-05-06T17:09:42Z</time>
      </trkpt>
      <trkpt lat="42.45968" lon="1.50445">
        <ele>1302.587</ele>
        <time>2016-05-06T17:10:02Z</time>
      </trkpt>
      <trkpt lat="42.45964" lon="1.5043">
        <ele>1302.265</ele>
        <time>2016-05-06T17:10:22Z</time>
      </trkpt>
      <trkpt lat="42.45965" lon="1.50414">
        <ele>1299.411</ele>
        <time>2016-05-06T17:10:42Z</time>
      </trkpt>
      <trkpt lat="42.45963" lon="1.50393">
        <ele>1297.821</ele>
        <time>2016-05-06T17:11:02Z</time>
      </trkpt>
      <trkpt lat="42.4596" lon="1.50382">
        <ele>1297.503</ele>
        <time>2016-05-06T17:11:22Z</time>
      </trkpt>
      <trkpt lat="42.45958" lon="1.50367">
        <ele>1296.708</ele>
        <time>2016-05-06T17:11:42Z</time>
      </trkpt>
      <trkpt lat="42.45956" lon="1.50339">
        <ele>1294.832</ele>
        <time>2016-05-06T17:12:02Z</time>
      </trkpt>
      <trkpt lat="42.45954" lon="1.50324">
        <ele>1294.394</ele>
        <time>2016-05-06T17:12:22Z</time>
      </trkpt>
      <trkpt lat="42.45947" lon="1.50304">
        <ele>1296.312</ele>
        <time>2016-05-06T17:12:42Z</time>
      </trkpt>
      <trkpt lat="42.45953" lon="1.5029">
        <ele>1290.48</ele>
        <time>2016-05-06T17:13:02Z</time>
      </trkpt>
      <trkpt lat="42.45951" lon="1.50267">
        <ele>1289.018</ele>
        <time>2016-05-06T17:13:22Z</time>
      </trkpt>
      <trkpt lat="42.45946" lon="1.50247">
        <ele>1290.019</ele>
        <time>2016-05-06T17:13:42Z</time>
      </trkpt>
      <trkpt lat="42.45944" lon="1.50227">
        <ele>1289.687</ele>
        <time>2016-05-06T17:14:02Z</time>
      </trkpt>
      <trkpt lat="42.45937" lon="1.50197">
        <ele>1293.725</ele>
        <time>2016-05-06T17:14:22Z</time>
      </trkpt>
      <trkpt lat="42.45928" lon="1.5017">
        <ele>1298.741</ele>
        <time>2016-05-06T17:14:42Z</time>
      </trkpt>
      <trkpt lat="42.45928" lon="1.5015">
        <ele>1297.681</ele>
        <time>2016-05-06T17:15:02Z</time>
      </trkpt>
      <trkpt lat="42.45923" lon="1.50136">
        <ele>1300.409</ele>
        <time>2016-05-06T17:15:22Z</time>
      </trkpt>
      <trkpt lat="42.45918" lon="1.5011">
        <ele>1300.808</ele>
        <time>2016-05-06T17:15:42Z</time>
      </trkpt>
      <trkpt lat="42.4591" lon="1.50097">
        <ele>1303.195</ele>
        <time>2016-05-06T17:16:02Z</time>
      </trkpt>
      <trkpt lat="42.45902" lon="1.50074">
        <ele>1302.817</ele>
        <time>2016-05-06T17:16:22Z</time>
      </trkpt>
      <trkpt lat="42.45891" lon="1.50067">
        <ele>1305.175</ele>
        <time>2016-05-06T17:16:42Z</time>
      </trkpt>
      <trkpt lat="42.45879" lon="1.50074">
        <ele>1306.593</ele>
        <time>2016-05-06T17:17:02Z</time>
      </trkpt>
      <trkpt lat="42.45867" lon="1.50082">
        <ele>1308.041</ele>
        <time>2016-05-06T17:17:22Z</time>
      </trkpt>
      <trkpt lat="42.45853" lon="1.5009">
        <ele>1308.572</ele>
        <time>2016-05-06T17:17:42Z</time>
      </trkpt>
      <trkpt lat="42.45844" lon="1.50101">
        <ele>1311.91</ele>
        <time>2016-05-06T17:18:02Z</time>
      </trkpt>
      <trkpt lat="42.45833" lon="1.50111">
        <ele>1315.738</ele>
        <time>2016-05-06T17:18:22Z</time>
      </trkpt>
      <trkpt lat="42.45816" lon="1.50113">
        <ele>1310.882</ele>
        <time>2016-05-06T17:18:42Z</time>
      </trkpt>
      <trkpt lat="42.45802" lon="1.50112">
        <ele>1306.843</ele>
        <time>2016-05-06T17:19:02Z</time>
      </trkpt>
      <trkpt lat="42.45788" lon="1.50109">
        <ele>1306.317</ele>
        <time>2016-05-06T17:19:22Z</time>
      </trkpt>
      <trkpt lat="42.4577" lon="1.501">
        <ele>1304.608</ele>
        <time>2016-05-06T17:19:42Z</time>
      </trkpt>
      <trkpt lat="42.45758" lon="1.50089">
        <ele>1303.129</ele>
        <time>2016-05-06T17:20:02Z</time>
      </trkpt>
      <trkpt lat="42.45745" lon="1.50073">
        <ele>1298.641</ele>
        <time>2016-05-06T17:20:22Z</time>
      </trkpt>
      <trkpt lat="42.45728" lon="1.50081">
        <ele>1305.989</ele>
        <time>2016-05-06T17:20:42Z</time>
      </trkpt>
      <trkpt lat="42.45705" lon="1.50085">
        <ele>1303.057</ele>
        <time>2016-05-06T17:21:02Z</time>
      </trkpt>
      <trkpt lat="42.45688" lon="1.50088">
        <ele>1299.365</ele>
        <time>2016-05-06T17:21:22Z</time>
      </trkpt>
      <trkpt lat="42.45671" lon="1.50077">
        <ele>1284.366</ele>
        <time>2016-05-06T17:21:42Z</time>
      </trkpt>
      <trkpt lat="42.45664" lon="1.50099">
        <ele>1295.584</ele>
        <time>2016-05-06T17:22:02Z</time>
      </trkpt>
      <trkpt lat="42.45654" lon="1.50115">
        <ele>1293.862</ele>
        <time>2016-05-06T17:22:22Z</time>
      </trkpt>
      <trkpt lat="42.45645" lon="1.50136">
        <ele>1292.633</ele>
        <time>2016-05-06T17:22:42Z</time>
      </trkpt>
      <trkpt lat="42.45624" lon="1.5015">
        <ele>1284.623</ele>
        <time>2016-05-06T17:23:02Z</time>
      </trkpt>
      <trkpt lat="42.45608" lon="1.50161">
        <ele>1282.515</ele>
        <time>2016-05-06T17:23:22Z</time>
      </trkpt>
      <trkpt lat="42.45592" lon="1.50165">
        <ele>1279.708</ele>
        <time>2016-05-06T17:23:42Z</time>
      </trkpt>
      <trkpt lat="42.4558" lon="1.50171">
        <ele>1279.754</ele>
        <time>2016-05-06T17:24:02Z</time>
      </trkpt>
      <trkpt lat="42.45574" lon="1.50182">
        <ele>1282.866</ele>
        <time>2016-05-06T17:24:22Z</time>
      </trkpt>
      <trkpt lat="42.45565" lon="1.50185">
        <ele>1281.354</ele>
        <time>2016-05-06T17:24:42Z</time>
      </trkpt>
      <trkpt lat="42.45558" lon="1.5019">
        <ele>1280.462</ele>
        <time>2016-05-06T17:25:02Z</time>
      </trkpt>
      <trkpt lat="42.45548" lon="1.50201">
        <ele>1279.42</ele>
        <time>2016-05-06T17:25:22Z</time>
      </trkpt>
      <trkpt lat="42.45535" lon="1.50207">
        <ele>1275.531</ele>
        <time>2016-05-06T17:25:42Z</time>
      </trkpt>
      <trkpt lat="42.45524" lon="1.50214">
        <ele>1272.939</ele>
        <time>2016-05-06T17:26:02Z</time>
      </trkpt>
      <trkpt lat="42.45515" lon="1.50216">
        <ele>1270.317</ele>
        <time>2016-05-06T17:26:22Z</time>
      </trkpt>
      <trkpt lat="42.45503" lon="1.50221">
        <ele>1267.761</ele>
        <time>2016-05-06T17:26:42Z</time>
      </trkpt>
      <trkpt lat="42.45493" lon="1.50229">
        <ele>1266.021</ele>
        <time>2016-05-06T17:27:02Z</time>
      </trkpt>
      <trkpt lat="42.45481" lon="1.50239">
        <ele>1263.813</ele>
        <time>2016-05-06T17:27:22Z</time>
      </trkpt>
      <trkpt lat="42.45469" lon="1.50253">
        <ele>1262.808</ele>
        <time>2016-05-06T17:27:42Z</time>
      </trkpt>
      <trkpt lat="42.45461" lon="1.50262">
        <ele>1259.077</ele>
        <time>2016-05-06T17:28:02Z</time>
      </trkpt>
      <trkpt lat="42.45457" lon="1.50286">
        <ele>1257.789</ele>
        <time>2016-05-06T17:28:22Z</time>
      </trkpt>
      <trkpt lat="42.45451" lon="1.50302">
        <ele>1254.287</ele>
        <time>2016-05-06T17:28:42Z</time>
      </trkpt>
      <trkpt lat="42.45441" lon="1.50315">
        <ele>1247.365</ele>
        <time>2016-05-06T17:29:02Z</time>
      </trkpt>
      <trkpt lat="42.45442" lon="1.50339">
        <ele>1251.133</ele>
        <time>2016-05-06T17:29:22Z</time>
      </trkpt>
      <trkpt lat="42.45438" lon="1.5035">
        <ele>1248.364</ele>
        <time>2016-05-06T17:29:42Z</time>
      </trkpt>
      <trkpt lat="42.45439" lon="1.50366">
        <ele>1250.682</ele>
        <time>2016-05-06T17:30:02Z</time>
      </trkpt>
      <trkpt lat="42.45427" lon="1.50373">
        <ele>1241.73</ele>
        <time>2016-05-06T17:30:22Z</time>
      </trkpt>
      <trkpt lat="42.45423" lon="1.5038">
        <ele>1240.164</ele>
        <time>2016-05-06T17:30:42Z</time>
      </trkpt>
      <trkpt lat="42.45409" lon="1.50384">
        <ele>1236.106</ele>
        <time>2016-05-06T17:31:02Z</time>
      </trkpt>
      <trkpt lat="42.45398" lon="1.50384">
        <ele>1235.316</ele>
        <time>2016-05-06T17:31:22Z</time>
      </trkpt>
      <trkpt lat="42.45386" lon="1.50384">
        <ele>1234.408</ele>
        <time>2016-05-06T17:31:42Z</time>
      </trkpt>
      <trkpt lat="42.45377" lon="1.5039">
        <ele>1235.527</ele>
        <time>2016-05-06T17:32:02Z</time>
      </trkpt>
      <trkpt lat="42.45375" lon="1.50406">
        <ele>1242.489</ele>
        <time>2016-05-06T17:32:22Z</time>
      </trkpt>
      <trkpt lat="42.45367" lon="1.50418">
        <ele>1244.447</ele>
        <time>2016-05-06T17:32:42Z</time>
      </trkpt>
      <trkpt lat="42.45355" lon="1.50438">
        <ele>1240.225</ele>
        <time>2016-05-06T17:33:02Z</time>
      </trkpt>
      <trkpt lat="42.45347" lon="1.50453">
        <ele>1237.363</ele>
        <time>2016-05-06T17:33:22Z</time>
      </trkpt>
      <trkpt lat="42.45334" lon="1.50474">
        <ele>1232.384</ele>
        <time>2016-05-06T17:33:42Z</time>
      </trkpt>
      <trkpt lat="42.45329" lon="1.5049">
        <ele>1231.462</ele>
        <time>2016-05-06T17:34:02Z</time>
      </trkpt>
      <trkpt lat="42.4532" lon="1.50522">
        <ele>1229.79</ele>
        <time>2016-05-06T17:34:22Z</time>
      </trkpt>
      <trkpt lat="42.45319" lon="1.5055">
        <ele>1231.792</ele>
        <time>2016-05-06T17:34:42Z</time>
      </trkpt>
      <trkpt lat="42.45316" lon="1.50571">
        <ele>1231.973</ele>
        <time>2016-05-06T17:35:02Z</time>
      </trkpt>
      <trkpt lat="42.45309" lon="1.5059">
        <ele>1227.52</ele>
        <time>2016-05-06T17:35:22Z</time>
      </trkpt>
      <trkpt lat="42.45301" lon="1.50605">
        <ele>1225.008</ele>
        <time>2016-05-06T17:35:42Z</time>
      </trkpt>
      <trkpt lat="42.45304" lon="1.50621">
        <ele>1228.67</ele>
        <time>2016-05-06T17:36:02Z</time>
      </trkpt>
      <trkpt lat="42.45297" lon="1.50632">
        <ele>1226.752</ele>
        <time>2016-05-06T17:36:22Z</time>
      </trkpt>
      <trkpt lat="42.45296" lon="1.50645">
        <ele>1227.33</ele>
        <time>2016-05-06T17:36:42Z</time>
      </trkpt>
      <trkpt lat="42.45294" lon="1.50657">
        <ele>1226.798</ele>
        <time>2016-05-06T17:37:02Z</time>
      </trkpt>
      <trkpt lat="42.45293" lon="1.50676">
        <ele>1227.166</ele>
        <time>2016-05-06T17:37:22Z</time>
      </trkpt>
      <trkpt lat="42.45298" lon="1.50695">
        <ele>1227.997</ele>
        <time>2016-05-06T17:37:42Z</time>
      </trkpt>
      <trkpt lat="42.45289" lon="1.50697">
        <ele>1226.875</ele>
        <time>2016-05-06T17:38:02Z</time>
      </trkpt>
      <trkpt lat="42.45282" lon="1.50704">
        <ele>1226.753</ele>
        <time>2016-05-06T17:38:22Z</time>
      </trkpt>
      <trkpt lat="42.45274" lon="1.50698">
        <ele>1228.022</ele>
        <time>2016-05-06T17:38:42Z</time>
      </trkpt>
      <trkpt lat="42.45267" lon="1.50689">
        <ele>1231.162</ele>
        <time>2016-05-06T17:39:02Z</time>
      </trkpt>
      <trkpt lat="42.45265" lon="1.50678">
        <ele>1231.408</ele>
        <time>2016-05-06T17:39:22Z</time>
      </trkpt>
      <trkpt lat="42.45255" lon="1.50661">
        <ele>1236.808</ele>
        <time>2016-05-06T17:39:42Z</time>
      </trkpt>
      <trkpt lat="42.45251" lon="1.50648">
        <ele>1237.073</ele>
        <time>2016-05-06T17:40:02Z</time>
      </trkpt>
      <trkpt lat="42.45247" lon="1.50635">
        <ele>1237.895</ele>
        <time>2016-05-06T17:40:22Z</time>
      </trkpt>
      <trkpt lat="42.45244" lon="1.5062">
        <ele>1239.053</ele>
        <time>2016-05-06T17:40:42Z</time>
      </trkpt>
      <trkpt lat="42.45239" lon="1.50601">
        <ele>1242.431</ele>
        <time>2016-05-06T17:41:02Z</time>
      </trkpt>
      <trkpt lat="42.45227" lon="1.50596">
        <ele>1251.039</ele>
        <time>2016-05-06T17:41:22Z</time>
      </trkpt>
      <trkpt lat="42.45222" lon="1.50584">
        <ele>1255.39</ele>
        <time>2016-05-06T17:41:42Z</time>
      </trkpt>
      <trkpt lat="42.45216" lon="1.50583">
        <ele>1259.078</ele>
        <time>2016-05-06T17:42:02Z</time>
      </trkpt>
      <trkpt lat="42.4521" lon="1.50573">
        <ele>1262.896</ele>
        <time>2016-05-06T17:42:22Z</time>
      </trkpt>
      <trkpt lat="42.45199" lon="1.50553">
        <ele>1269.065</ele>
        <time>2016-05-06T17:42:42Z</time>
      </trkpt>
      <trkpt lat="42.45199" lon="1.50537">
        <ele>1267.868</ele>
        <time>2016-05-06T17:43:02Z</time>
      </trkpt>
      <trkpt lat="42.45197" lon="1.50526">
        <ele>1267.714</ele>
        <time>2016-05-06T17:43:22Z</time>
      </trkpt>
      <trkpt lat="42.45194" lon="1.50514">
        <ele>1267.008</ele>
        <time>2016-05-06T17:43:42Z</time>
      </trkpt>
      <trkpt lat="42.45195" lon="1.50503">
        <ele>1264.077</ele>
        <time>2016-05-06T17:44:02Z</time>
      </trkpt>
      <trkpt lat="42.45184" lon="1.50496">
        <ele>1265.589</ele>
        <time>2016-05-06T17:44:22Z</time>
      </trkpt>
      <trkpt lat="42.45175" lon="1.50488">
        <ele>1265.397</ele>
        <time>2016-05-06T17:44:42Z</time>
      </trkpt>
      <trkpt lat="42.45165" lon="1.50476">
        <ele>1264.675</ele>
        <time>2016-05-06T17:45:02Z</time>
      </trkpt>
      <trkpt lat="42.45158" lon="1.50465">
        <ele>1264.343</ele>
        <time>2016-05-06T17:45:22Z</time>
      </trkpt>
      <trkpt lat="42.45154" lon="1.50455">
        <ele>1263.954</ele>
        <time>2016-05-06T17:45:42Z</time>
      </trkpt>
      <trkpt lat="42.45154" lon="1.50446">
        <ele>1262.132</ele>
        <time>2016-05-06T17:46:02Z</time>
      </trkpt>
      <trkpt lat="42.45149" lon="1.50434">
        <ele>1263.93</ele>
        <time>2016-05-06T17:46:22Z</time>
      </trkpt>
      <trkpt lat="42.45145" lon="1.50421">
        <ele>1265.096</ele>
        <time>2016-05-06T17:46:42Z</time>
      </trkpt>
      <trkpt lat="42.45142" lon="1.50402">
        <ele>1265.331</ele>
        <time>2016-05-06T17:47:02Z</time>
      </trkpt>
      <trkpt lat="42.45138" lon="1.50387">
        <ele>1266.424</ele>
        <time>2016-05-06T17:47:22Z</time>
      </trkpt>
      <trkpt lat="42.45135" lon="1.50368">
        <ele>1269.508</ele>
        <time>2016-05-06T17:47:42Z</time>
      </trkpt>
      <trkpt lat="42.45132" lon="1.50351">
        <ele>1272.88</ele>
        <time>2016-05-06T17:48:02Z</time>
      </trkpt>
      <trkpt lat="42.4513" lon="1.5032">
        <ele>1277.812</ele>
        <time>2016-05-06T17:48:22Z</time>
      </trkpt>
      <trkpt lat="42.45132" lon="1.50305">
        <ele>1278.75</ele>
        <time>2016-05-06T17:48:42Z</time>
      </trkpt>
      <trkpt lat="42.4513" lon="1.5029">
        <ele>1280.588</ele>
        <time>2016-05-06T17:49:02Z</time>
      </trkpt>
      <trkpt lat="42.45126" lon="1.50267">
        <ele>1283.096</ele>
        <time>2016-05-06T17:49:22Z</time>
      </trkpt>
      <trkpt lat="42.45119" lon="1.50275">
        <ele>1286.327</ele>
        <time>2016-05-06T17:49:42Z</time>
      </trkpt>
      <trkpt lat="42.4511" lon="1.50255">
        <ele>1290.465</ele>
        <time>2016-05-06T17:50:02Z</time>
      </trkpt>
      <trkpt lat="42.45102" lon="1.50269">
        <ele>1294.973</ele>
        <time>2016-05-06T17:50:22Z</time>
      </trkpt>
      <trkpt lat="42.45086" lon="1.5023">
        <ele>1300.782</ele>
        <time>2016-05-06T17:50:42Z</time>
      </trkpt>
      <trkpt lat="42.45081" lon="1.50257">
        <ele>1305.943</ele>
        <time>2016-05-06T17:51:02Z</time>
      </trkpt>
      <trkpt lat="42.4508" lon="1.50276">
        <ele>1307.517</ele>
        <time>2016-05-06T17:51:22Z</time>
      </trkpt>
      <trkpt lat="42.45072" lon="1.50292">
        <ele>1310.708</ele>
        <time>2016-05-06T17:51:42Z</time>
      </trkpt>
      <trkpt lat="42.45066" lon="1.50308">
        <ele>1311.939</ele>
        <time>2016-05-06T17:52:02Z</time>
      </trkpt>
      <trkpt lat="42.45049" lon="1.50316">
        <ele>1318.951</ele>
        <time>2016-05-06T17:52:22Z</time>
      </trkpt>
      <trkpt lat="42.45039" lon="1.50325">
        <ele>1322.259</ele>
        <time>2016-05-06T17:52:42Z</time>
      </trkpt>
      <trkpt lat="42.45025" lon="1.50339">
        <ele>1326.637</ele>
        <time>2016-05-06T17:53:02Z</time>
      </trkpt>
      <trkpt lat="42.45016" lon="1.50351">
        <ele>1328.325</ele>
        <time>2016-05-06T17:53:22Z</time>
      </trkpt>
      <trkpt lat="42.45006" lon="1.5036">
        <ele>1331.216</ele>
        <time>2016-05-06T17:53:42Z</time>
      </trkpt>
      <trkpt lat="42.44996" lon="1.50369">
        <ele>1335.184</ele>
        <time>2016-05-06T17:54:02Z</time>
      </trkpt>
      <trkpt lat="42.44987" lon="1.50362">
        <ele>1339.542</ele>
        <time>2016-05-06T17:54:22Z</time>
      </trkpt>
      <trkpt lat="42.44978" lon="1.50367">
        <ele>1344.373</ele>
        <time>2016-05-06T17:54:42Z</time>
      </trkpt>
      <trkpt lat="42.44974" lon="1.50353">
        <ele>1346.685</ele>
        <time>2016-05-06T17:55:02Z</time>
      </trkpt>
      <trkpt lat="42.44969" lon="1.50335">
        <ele>1349.513</ele>
        <time>2016-05-06T17:55:22Z</time>
      </trkpt>
      <trkpt lat="42.44961" lon="1.50323">
        <ele>1353.408</ele>
        <time>2016-05-06T17:55:42Z</time>
      </trkpt>
      <trkpt lat="42.44953" lon="1.5031">
        <ele>1357.028</ele>
        <time>2016-05-06T17:56:02Z</time>
      </trkpt>
      <trkpt lat="42.44946" lon="1.50301">
        <ele>1359.52</ele>
        <time>2016-05-06T17:56:22Z</time>
      </trkpt>
      <trkpt lat="42.44943" lon="1.50318">
        <ele>1360.468</ele>
        <time>2016-05-06T17:56:42Z</time>
      </trkpt>
      <trkpt lat="42.44939" lon="1.50339">
        <ele>1361.686</ele>
        <time>2016-05-06T17:57:02Z</time>
      </trkpt>
      <trkpt lat="42.44936" lon="1.50364">
        <ele>1363.184</ele>
        <time>2016-05-06T17:57:22Z</time>
      </trkpt>
      <trkpt lat="42.4494" lon="1.50382">
        <ele>1362.325</ele>
        <time>2016-05-06T17:57:42Z</time>
      </trkpt>
      <trkpt lat="42.44945" lon="1.50408">
        <ele>1362.163</ele>
        <time>2016-05-06T17:58:02Z</time>
      </trkpt>
      <trkpt lat="42.44945" lon="1.50427">
        <ele>1363.681</ele>
        <time>2016-05-06T17:58:22Z</time>
      </trkpt>
      <trkpt lat="42.4494" lon="1.5044">
        <ele>1365.781</ele>
        <time>2016-05-06T17:58:42Z</time>
      </trkpt>
      <trkpt lat="42.44934" lon="1.50445">
        <ele>1367.361</ele>
        <time>2016-05-06T17:59:02Z</time>
      </trkpt>
      <trkpt lat="42.44926" lon="1.50454">
        <ele>1369.217</ele>
        <time>2016-05-06T17:59:22Z</time>
      </trkpt>
      <trkpt lat="42.44915" lon="1.5046">
        <ele>1371.908</ele>
        <time>2016-05-06T17:59:42Z</time>
      </trkpt>
      <trkpt lat="42.44902" lon="1.50453">
        <ele>1374.669</ele>
        <time>2016-05-06T18:00:02Z</time>
      </trkpt>
      <trkpt lat="42.44896" lon="1.50443">
        <ele>1375.351</ele>
        <time>2016-05-06T18:00:22Z</time>
      </trkpt>
      <trkpt lat="42.44886" lon="1.50434">
        <ele>1377.059</ele>
        <time>2016-05-06T18:00:42Z</time>
      </trkpt>
      <trkpt lat="42.44878" lon="1.50424">
        <ele>1378.057</ele>
        <time>2016-05-06T18:01:02Z</time>
      </trkpt>
      <trkpt lat="42.4487" lon="1.50414">
        <ele>1378.875</ele>
        <time>2016-05-06T18:01:22Z</time>
      </trkpt>
      <trkpt lat="42.44864" lon="1.50402">
        <ele>1379.066</ele>
        <time>2016-05-06T18:01:42Z</time>
      </trkpt>
      <trkpt lat="42.44854" lon="1.5039">
        <ele>1380.454</ele>
        <time>2016-05-06T18:02:02Z</time>
      </trkpt>
      <trkpt lat="42.44846" lon="1.5038">
        <ele>1381.582</ele>
        <time>2016-05-06T18:02:22Z</time>
      </trkpt>
      <trkpt lat="42.44838" lon="1.50369">
        <ele>1382.237</ele>
        <time>2016-05-06T18:02:42Z</time>
      </trkpt>
      <trkpt lat="42.4483" lon="1.5036">
        <ele>1383.049</ele>
        <time>2016-05-06T18:03:02Z</time>
      </trkpt>
      <trkpt lat="42.44823" lon="1.50348">
        <ele>1383.613</ele>
        <time>2016-05-06T18:03:22Z</time>
      </trkpt>
      <trkpt lat="42.44812" lon="1.50334">
        <ele>1384.908</ele>
        <time>2016-05-06T18:03:42Z</time>
      </trkpt>
      <trkpt lat="42.44806" lon="1.50311">
        <ele>1384.414</ele>
        <time>2016-05-06T18:04:02Z</time>
      </trkpt>
      <trkpt lat="42.44802" lon="1.50297">
        <ele>1384.746</ele>
        <time>2016-05-06T18:04:22Z</time>
      </trkpt>
      <trkpt lat="42.44799" lon="1.50276">
        <ele>1384.254</ele>
        <time>2016-05-06T18:04:42Z</time>
      </trkpt>
      <trkpt lat="42.44792" lon="1.5025">
        <ele>1385.212</ele>
        <time>2016-05-06T18:05:02Z</time>
      </trkpt>
      <trkpt lat="42.4479" lon="1.50228">
        <ele>1384.54</ele>
        <time>2016-05-06T18:05:22Z</time>
      </trkpt>
      <trkpt lat="42.4479" lon="1.50208">
        <ele>1383.871</ele>
        <time>2016-05-06T18:05:42Z</time>
      </trkpt>
      <trkpt lat="42.44787" lon="1.50184">
        <ele>1384.779</ele>
        <time>2016-05-06T18:06:02Z</time>
      </trkpt>
      <trkpt lat="42.44789" lon="1.5016">
        <ele>1384.957</ele>
        <time>2016-05-06T18:06:22Z</time>
      </trkpt>
      <trkpt lat="42.44791" lon="1.50136">
        <ele>1384.959</ele>
        <time>2016-05-06T18:06:42Z</time>
      </trkpt>
      <trkpt lat="42.44795" lon="1.50118">
        <ele>1384.603</ele>
        <time>2016-05-06T18:07:02Z</time>
      </trkpt>
      <trkpt lat="42.44797" lon="1.50097">
        <ele>1385.123</ele>
        <time>2016-05-06T18:07:22Z</time>
      </trkpt>
      <trkpt lat="42.44798" lon="1.5007">
        <ele>1387.308</ele>
        <time>2016-05-06T18:07:42Z</time>
      </trkpt>
      <trkpt lat="42.44799" lon="1.50045">
        <ele>1388.656</ele>
        <time>2016-05-06T18:08:02Z</time>
      </trkpt>
      <trkpt lat="42.44802" lon="1.50024">
        <ele>1389.048</ele>
        <time>2016-05-06T18:08:22Z</time>
      </trkpt>
      <trkpt lat="42.44807" lon="1.5">
        <ele>1389.896</ele>
        <time>2016-05-06T18:08:42Z</time>
      </trkpt>
      <trkpt lat="42.44811" lon="1.49978">
        <ele>1391.364</ele>
        <time>2016-05-06T18:09:02Z</time>
      </trkpt>
      <trkpt lat="42.44815" lon="1.49959">
        <ele>1391.892</ele>
        <time>2016-05-06T18:09:22Z</time>
      </trkpt>
      <trkpt lat="42.44818" lon="1.49942">
        <ele>1391.963</ele>
        <time>2016-05-06T18:09:42Z</time>
      </trkpt>
      <trkpt lat="42.44821" lon="1.49929">
        <ele>1391.131</ele>
        <time>2016-05-06T18:10:02Z</time>
      </trkpt>
      <trkpt lat="42.44813" lon="1.49901">
        <ele>1391.989</ele>
        <time>2016-05-06T18:10:22Z</time>
      </trkpt>
      <trkpt lat="42.44803" lon="1.49877">
        <ele>1392.124</ele>
        <time>2016-05-06T18:10:42Z</time>
      </trkpt>
      <trkpt lat="42.44789" lon="1.49845">
        <ele>1392.704</ele>
        <time>2016-05-06T18:11:02Z</time>
      </trkpt>
      <trkpt lat="42.44782" lon="1.49827">
        <ele>1392.714</ele>
        <time>2016-05-06T18:11:22Z</time>
      </trkpt>
      <trkpt lat="42.44774" lon="1.49812">
        <ele>1393.408</ele>
        <time>2016-05-06T18:11:42Z</time>
      </trkpt>
      <trkpt lat="42.44764" lon="1.49789">
        <ele>1393.043</ele>
        <time>2016-05-06T18:12:02Z</time>
      </trkpt>
      <trkpt lat="42.44758" lon="1.49776">
        <ele>1392.775</ele>
        <time>2016-05-06T18:12:22Z</time>
      </trkpt>
      <trkpt lat="42.44752" lon="1.49766">
        <ele>1392.393</ele>
        <time>2016-05-06T18:12:42Z</time>
      </trkpt>
      <trkpt lat="42.44746" lon="1.49753">
        <ele>1390.731</ele>
        <time>2016-05-06T18:13:02Z</time>
      </trkpt>
      <trkpt lat="42.44741" lon="1.49741">
        <ele>1388.789</ele>
        <time>2016-05-06T18:13:22Z</time>
      </trkpt>
      <trkpt lat="42.44733" lon="1.49735">
        <ele>1389.33</ele>
        <time>2016-05-06T18:13:42Z</time>
      </trkpt>
      <trkpt lat="42.44725" lon="1.4973">
        <ele>1390.178</ele>
        <time>2016-05-06T18:14:02Z</time>
      </trkpt>
      <trkpt lat="42.44719" lon="1.49723">
        <ele>1389.986</ele>
        <time>2016-05-06T18:14:22Z</time>
      </trkpt>
      <trkpt lat="42.44712" lon="1.49718">
        <ele>1389.864</ele>
        <time>2016-05-06T18:14:42Z</time>
      </trkpt>
      <trkpt lat="42.44708" lon="1.49711">
        <ele>1389.106</ele>
        <time>2016-05-06T18:15:02Z</time>
      </trkpt>
      <trkpt lat="42.44703" lon="1.497">
        <ele>1388.416</ele>
        <time>2016-05-06T18:15:22Z</time>
      </trkpt>
      <trkpt lat="42.44697" lon="1.49688">
        <ele>1388.508</ele>
        <time>2016-05-06T18:15:42Z</time>
      </trkpt>
      <trkpt lat="42.44693" lon="1.49676">
        <ele>1387.877</ele>
        <time>2016-05-06T18:16:02Z</time>
      </trkpt>
      <trkpt lat="42.44688" lon="1.49663">
        <ele>1387.319</ele>
        <time>2016-05-06T18:16:22Z</time>
      </trkpt>
      <trkpt lat="42.44682" lon="1.49653">
        <ele>1387.997</ele>
        <time>2016-05-06T18:16:42Z</time>
      </trkpt>
      <trkpt lat="42.44679" lon="1.49641">
        <ele>1387.885</ele>
        <time>2016-05-06T18:17:02Z</time>
      </trkpt>
      <trkpt lat="42.44675" lon="1.49628">
        <ele>1387.363</ele>
        <time>2016-05-06T18:17:22Z</time>
      </trkpt>
      <trkpt lat="42.44672" lon="1.49614">
        <ele>1386.894</ele>
        <time>2016-05-06T18:17:42Z</time>
      </trkpt>
      <trkpt lat="42.44672" lon="1.496">
        <ele>1385.512</ele>
        <time>2016-05-06T18:18:02Z</time>
      </trkpt>
      <trkpt lat="42.44675" lon="1.49583">
        <ele>1382.89</ele>
        <time>2016-05-06T18:18:22Z</time>
      </trkpt>
      <trkpt lat="42.44685" lon="1.49568">
        <ele>1377.453</ele>
        <time>2016-05-06T18:18:42Z</time>
      </trkpt>
      <trkpt lat="42.4469" lon="1.49557">
        <ele>1374.704</ele>
        <time>2016-05-06T18:19:02Z</time>
      </trkpt>
      <trkpt lat="42.44694" lon="1.4955">
        <ele>1372.714</ele>
        <time>2016-05-06T18:19:22Z</time>
      </trkpt>
      <trkpt lat="42.44703" lon="1.49526">
        <ele>1367.708</ele>
        <time>2016-05-06T18:19:42Z</time>
      </trkpt>
      <trkpt lat="42.44697" lon="1.49509">
        <ele>1368.696</ele>
        <time>2016-05-06T18:20:02Z</time>
      </trkpt>
      <trkpt lat="42.44689" lon="1.49498">
        <ele>1370.168</ele>
        <time>2016-05-06T18:20:22Z</time>
      </trkpt>
      <trkpt lat="42.44683" lon="1.49487">
        <ele>1370.486</ele>
        <time>2016-05-06T18:20:42Z</time>
      </trkpt>
      <trkpt lat="42.4467" lon="1.49474">
        <ele>1371.464</ele>
        <time>2016-05-06T18:21:02Z</time>
      </trkpt>
      <trkpt lat="42.44661" lon="1.49479">
        <ele>1373.752</ele>
        <time>2016-05-06T18:21:22Z</time>
      </trkpt>
      <trkpt lat="42.44656" lon="1.49492">
        <ele>1376.023</ele>
        <time>2016-05-06T18:21:42Z</time>
      </trkpt>
      <trkpt lat="42.4465" lon="1.49506">
        <ele>1378.521</ele>
        <time>2016-05-06T18:22:02Z</time>
      </trkpt>
      <trkpt lat="42.44644" lon="1.49517">
        <ele>1380.339</ele>
        <time>2016-05-06T18:22:22Z</time>
      </trkpt>
      <trkpt lat="42.44625" lon="1.49507">
        <ele>1380.927</ele>
        <time>2016-05-06T18:22:42Z</time>
      </trkpt>
      <trkpt lat="42.44612" lon="1.49504">
        <ele>1381.468</ele>
        <time>2016-05-06T18:23:02Z</time>
      </trkpt>
      <trkpt lat="42.44604" lon="1.49504">
        <ele>1382.214</ele>
        <time>2016-05-06T18:23:22Z</time>
      </trkpt>
      <trkpt lat="42.44599" lon="1.49508">
        <ele>1383.208</ele>
        <time>2016-05-06T18:23:42Z</time>
      </trkpt>
      <trkpt lat="42.44466" lon="1.49374">
        <ele>1380.993</ele>
        <time>2016-05-06T18:24:02Z</time>
      </trkpt>
      <trkpt lat="42.44453" lon="1.49374">
        <ele>1382.825</ele>
        <time>2016-05-06T18:24:22Z</time>
      </trkpt>
      <trkpt lat="42.44448" lon="1.49416">
        <ele>1386.653</ele>
        <time>2016-05-06T18:24:42Z</time>
      </trkpt>
      <trkpt lat="42.44419" lon="1.49371">
        <ele>1392.341</ele>
        <time>2016-05-06T18:25:02Z</time>
      </trkpt>
      <trkpt lat="42.44401" lon="1.49336">
        <ele>1394.869</ele>
        <time>2016-05-06T18:25:22Z</time>
      </trkpt>
      <trkpt lat="42.44375" lon="1.49315">
        <ele>1397.44</ele>
        <time>2016-05-06T18:25:42Z</time>
      </trkpt>
      <trkpt lat="42.44304" lon="1.49311">
        <ele>1404.438</ele>
        <time>2016-05-06T18:26:02Z</time>
      </trkpt>
      <trkpt lat="42.44271" lon="1.49382">
        <ele>1426.526</ele>
        <time>2016-05-06T18:26:22Z</time>
      </trkpt>
      <trkpt lat="42.44221" lon="1.4946">
        <ele>1452.917</ele>
        <time>2016-05-06T18:26:42Z</time>
      </trkpt>
      <trkpt lat="42.44147" lon="1.49498">
        <ele>1481.087</ele>
        <time>2016-05-06T18:27:02Z</time>
      </trkpt>
      <trkpt lat="42.44116" lon="1.49523">
        <ele>1490.215</ele>
        <time>2016-05-06T18:27:22Z</time>
      </trkpt>
      <trkpt lat="42.44096" lon="1.49522">
        <ele>1488.408</ele>
        <time>2016-05-06T18:27:42Z</time>
      </trkpt>
      <trkpt lat="42.44048" lon="1.49573">
        <ele>1487.562</ele>
        <time>2016-05-06T18:28:02Z</time>
      </trkpt>
      <trkpt lat="42.44045" lon="1.49624">
        <ele>1498.594</ele>
        <time>2016-05-06T18:28:22Z</time>
      </trkpt>
      <trkpt lat="42.44035" lon="1.49667">
        <ele>1508.392</ele>
        <time>2016-05-06T18:28:42Z</time>
      </trkpt>
      <trkpt lat="42.44041" lon="1.49677">
        <ele>1512.91</ele>
        <time>2016-05-06T18:29:02Z</time>
      </trkpt>
      <trkpt lat="42.44034" lon="1.49694">
        <ele>1516.928</ele>
        <time>2016-05-06T18:29:22Z</time>
      </trkpt>
      <trkpt lat="42.4405" lon="1.49737">
        <ele>1531.139</ele>
        <time>2016-05-06T18:29:42Z</time>
      </trkpt>
      <trkpt lat="42.44032" lon="1.49756">
        <ele>1537.127</ele>
        <time>2016-05-06T18:30:02Z</time>
      </trkpt>
      <trkpt lat="42.44006" lon="1.49808">
        <ele>1552.845</ele>
        <time>2016-05-06T18:30:22Z</time>
      </trkpt>
      <trkpt lat="42.44008" lon="1.49821">
        <ele>1554.369</ele>
        <time>2016-05-06T18:30:42Z</time>
      </trkpt>
      <trkpt lat="42.44001" lon="1.49822">
        <ele>1556.704</ele>
        <time>2016-05-06T18:31:02Z</time>
      </trkpt>
      <trkpt lat="42.43996" lon="1.49837">
        <ele>1560.424</ele>
        <time>2016-05-06T18:31:22Z</time>
      </trkpt>
      <trkpt lat="42.43933" lon="1.49928">
        <ele>1594.608</ele>
        <time>2016-05-06T18:31:42Z</time>
      </trkpt>
      <trkpt lat="42.43886" lon="1.49967">
        <ele>1617.767</ele>
        <time>2016-05-06T18:32:02Z</time>
      </trkpt>
      <trkpt lat="42.43864" lon="1.49967">
        <ele>1623.149</ele>
        <time>2016-05-06T18:32:22Z</time>
      </trkpt>
      <trkpt lat="42.43844" lon="1.49971">
        <ele>1627.737</ele>
        <time>2016-05-06T18:32:42Z</time>
      </trkpt>
      <trkpt lat="42.43829" lon="1.49975">
        <ele>1631.175</ele>
        <time>2016-05-06T18:33:02Z</time>
      </trkpt>
      <trkpt lat="42.43801" lon="1.49982">
        <ele>1636.313</ele>
        <time>2016-05-06T18:33:22Z</time>
      </trkpt>
      <trkpt lat="42.43786" lon="1.49991">
        <ele>1641.314</ele>
        <time>2016-05-06T18:33:42Z</time>
      </trkpt>
      <trkpt lat="42.43767" lon="1.49999">
        <ele>1647.852</ele>
        <time>2016-05-06T18:34:02Z</time>
      </trkpt>
      <trkpt lat="42.43747" lon="1.50013">
        <ele>1655.69</ele>
        <time>2016-05-06T18:34:22Z</time>
      </trkpt>
      <trkpt lat="42.43728" lon="1.50011">
        <ele>1658.199</ele>
        <time>2016-05-06T18:34:42Z</time>
      </trkpt>
      <trkpt lat="42.43709" lon="1.50022">
        <ele>1663.907</ele>
        <time>2016-05-06T18:35:02Z</time>
      </trkpt>
      <trkpt lat="42.43696" lon="1.50029">
        <ele>1668.127</ele>
        <time>2016-05-06T18:35:22Z</time>
      </trkpt>
      <trkpt lat="42.43664" lon="1.50031">
        <ele>1675.608</ele>
        <time>2016-05-06T18:35:42Z</time>
      </trkpt>
      <trkpt lat="42.43639" lon="1.50029">
        <ele>1681.37</ele>
        <time>2016-05-06T18:36:02Z</time>
      </trkpt>
      <trkpt lat="42.4362" lon="1.50018">
        <ele>1681.822</ele>
        <time>2016-05-06T18:36:22Z</time>
      </trkpt>
      <trkpt lat="42.43594" lon="1.50025">
        <ele>1690.78</ele>
        <time>2016-05-06T18:36:42Z</time>
      </trkpt>
      <trkpt lat="42.43562" lon="1.5003">
        <ele>1700.268</ele>
        <time>2016-05-06T18:37:02Z</time>
      </trkpt>
      <trkpt lat="42.4354" lon="1.50039">
        <ele>1707.596</ele>
        <time>2016-05-06T18:37:22Z</time>
      </trkpt>
      <trkpt lat="42.43504" lon="1.50062">
        <ele>1714.157</ele>
        <time>2016-05-06T18:37:42Z</time>
      </trkpt>
      <trkpt lat="42.43497" lon="1.50087">
        <ele>1715.335</ele>
        <time>2016-05-06T18:38:02Z</time>
      </trkpt>
      <trkpt lat="42.43488" lon="1.5011">
        <ele>1713.653</ele>
        <time>2016-05-06T18:38:22Z</time>
      </trkpt>
      <trkpt lat="42.43487" lon="1.50141">
        <ele>1717.939</ele>
        <time>2016-05-06T18:38:42Z</time>
      </trkpt>
      <trkpt lat="42.43477" lon="1.50172">
        <ele>1719.301</ele>
        <time>2016-05-06T18:39:02Z</time>
      </trkpt>
      <trkpt lat="42.4347" lon="1.50246">
        <ele>1739.921</ele>
        <time>2016-05-06T18:39:22Z</time>
      </trkpt>
      <trkpt lat="42.43478" lon="1.50276">
        <ele>1749.808</ele>
        <time>2016-05-06T18:39:42Z</time>
      </trkpt>
      <trkpt lat="42.43469" lon="1.50302">
        <ele>1752.454</ele>
        <time>2016-05-06T18:40:02Z</time>
      </trkpt>
      <trkpt lat="42.43449" lon="1.50345">
        <ele>1756.656</ele>
        <time>2016-05-06T18:40:22Z</time>
      </trkpt>
      <trkpt lat="42.43448" lon="1.50371">
        <ele>1764.984</ele>
        <time>2016-05-06T18:40:42Z</time>
      </trkpt>
      <trkpt lat="42.4346" lon="1.50413">
        <ele>1782.882</ele>
        <time>2016-05-06T18:41:02Z</time>
      </trkpt>
      <trkpt lat="42.43482" lon="1.50452">
        <ele>1801.83</ele>
        <time>2016-05-06T18:41:22Z</time>
      </trkpt>
      <trkpt lat="42.43509" lon="1.50448">
        <ele>1805.191</ele>
        <time>2016-05-06T18:41:42Z</time>
      </trkpt>
      <trkpt lat="42.4352" lon="1.50471">
        <ele>1810.499</ele>
        <time>2016-05-06T18:42:02Z</time>
      </trkpt>
      <trkpt lat="42.43509" lon="1.50495">
        <ele>1814.867</ele>
        <time>2016-05-06T18:42:22Z</time>
      </trkpt>
      <trkpt lat="42.43502" lon="1.50537">
        <ele>1823.265</ele>
        <time>2016-05-06T18:42:42Z</time>
      </trkpt>
      <trkpt lat="42.43485" lon="1.50571">
        <ele>1828.768</ele>
        <time>2016-05-06T18:43:02Z</time>
      </trkpt>
      <trkpt lat="42.4347" lon="1.50624">
        <ele>1838.114</ele>
        <time>2016-05-06T18:43:22Z</time>
      </trkpt>
      <trkpt lat="42.43453" lon="1.50663">
        <ele>1843.208</ele>
        <time>2016-05-06T18:43:42Z</time>
      </trkpt>
      <trkpt lat="42.43439" lon="1.50698">
        <ele>1849.797</ele>
        <time>2016-05-06T18:44:02Z</time>
      </trkpt>
      <trkpt lat="42.43434" lon="1.5071">
        <ele>1851.899</ele>
        <time>2016-05-06T18:44:22Z</time>
      </trkpt>
      <trkpt lat="42.43431" lon="1.50729">
        <ele>1856.157</ele>
        <time>2016-05-06T18:44:42Z</time>
      </trkpt>
      <trkpt lat="42.4342" lon="1.50745">
        <ele>1860.435</ele>
        <time>2016-05-06T18:45:02Z</time>
      </trkpt>
      <trkpt lat="42.43407" lon="1.50764">
        <ele>1864.463</ele>
        <time>2016-05-06T18:45:22Z</time>
      </trkpt>
      <trkpt lat="42.43396" lon="1.50786">
        <ele>1870.764</ele>
        <time>2016-05-06T18:45:42Z</time>
      </trkpt>
      <trkpt lat="42.43376" lon="1.50804">
        <ele>1875.572</ele>
        <time>2016-05-06T18:46:02Z</time>
      </trkpt>
      <trkpt lat="42.43365" lon="1.50826">
        <ele>1882.36</ele>
        <time>2016-05-06T18:46:22Z</time>
      </trkpt>
      <trkpt lat="42.43358" lon="1.50853">
        <ele>1887.629</ele>
        <time>2016-05-06T18:46:42Z</time>
      </trkpt>
      <trkpt lat="42.43348" lon="1.50884">
        <ele>1891.9</ele>
        <time>2016-05-06T18:47:02Z</time>
      </trkpt>
      <trkpt lat="42.43343" lon="1.50914">
        <ele>1899.02</ele>
        <time>2016-05-06T18:47:22Z</time>
      </trkpt>
      <trkpt lat="42.4333" lon="1.50939">
        <ele>1900.408</ele>
        <time>2016-05-06T18:47:42Z</time>
      </trkpt>
      <trkpt lat="42.43327" lon="1.50968">
        <ele>1906.313</ele>
        <time>2016-05-06T18:48:02Z</time>
      </trkpt>
      <trkpt lat="42.43337" lon="1.51006">
        <ele>1917.665</ele>
        <time>2016-05-06T18:48:22Z</time>
      </trkpt>
      <trkpt lat="42.4335" lon="1.51039">
        <ele>1924.113</ele>
        <time>2016-05-06T18:48:42Z</time>
      </trkpt>
      <trkpt lat="42.43362" lon="1.51066">
        <ele>1929.421</ele>
        <time>2016-05-06T18:49:02Z</time>
      </trkpt>
      <trkpt lat="42.43383" lon="1.51117">
        <ele>1939.179</ele>
        <time>2016-05-06T18:49:22Z</time>
      </trkpt>
      <trkpt lat="42.43391" lon="1.51158">
        <ele>1946.53</ele>
        <time>2016-05-06T18:49:42Z</time>
      </trkpt>
      <trkpt lat="42.43394" lon="1.51183">
        <ele>1950.398</ele>
        <time>2016-05-06T18:50:02Z</time>
      </trkpt>
      <trkpt lat="42.43405" lon="1.51217">
        <ele>1957.576</ele>
        <time>2016-05-06T18:50:22Z</time>
      </trkpt>
      <trkpt lat="42.43418" lon="1.51246">
        <ele>1964.165</ele>
        <time>2016-05-06T18:50:42Z</time>
      </trkpt>
      <trkpt lat="42.43429" lon="1.51263">
        <ele>1969.168</ele>
        <time>2016-05-06T18:51:02Z</time>
      </trkpt>
      <trkpt lat="42.43443" lon="1.5127">
        <ele>1973.614</ele>
        <time>2016-05-06T18:51:22Z</time>
      </trkpt>
      <trkpt lat="42.43457" lon="1.51274">
        <ele>1978.808</ele>
        <time>2016-05-06T18:51:42Z</time>
      </trkpt>
      <trkpt lat="42.43468" lon="1.5129">
        <ele>1983.987</ele>
        <time>2016-05-06T18:52:02Z</time>
      </trkpt>
      <trkpt lat="42.43482" lon="1.51298">
        <ele>1988.239</ele>
        <time>2016-05-06T18:52:22Z</time>
      </trkpt>
      <trkpt lat="42.43492" lon="1.51316">
        <ele>1992.157</ele>
        <time>2016-05-06T18:52:42Z</time>
      </trkpt>
      <trkpt lat="42.4349" lon="1.51329">
        <ele>1992.535</ele>
        <time>2016-05-06T18:53:02Z</time>
      </trkpt>
      <trkpt lat="42.43488" lon="1.51343">
        <ele>1993.133</ele>
        <time>2016-05-06T18:53:22Z</time>
      </trkpt>
      <trkpt lat="42.43493" lon="1.51363">
        <ele>1994.784</ele>
        <time>2016-05-06T18:53:42Z</time>
      </trkpt>
      <trkpt lat="42.43503" lon="1.51389">
        <ele>1999.162</ele>
        <time>2016-05-06T18:54:02Z</time>
      </trkpt>
      <trkpt lat="42.43502" lon="1.51408">
        <ele>2002.48</ele>
        <time>2016-05-06T18:54:22Z</time>
      </trkpt>
      <trkpt lat="42.43497" lon="1.5143">
        <ele>2005.613</ele>
        <time>2016-05-06T18:54:42Z</time>
      </trkpt>
      <trkpt lat="42.4349" lon="1.51453">
        <ele>2007.843</ele>
        <time>2016-05-06T18:55:02Z</time>
      </trkpt>
      <trkpt lat="42.4349" lon="1.51472">
        <ele>2010.507</ele>
        <time>2016-05-06T18:55:22Z</time>
      </trkpt>
      <trkpt lat="42.43496" lon="1.51496">
        <ele>2014.808</ele>
        <time>2016-05-06T18:55:42Z</time>
      </trkpt>
      <trkpt lat="42.43499" lon="1.51518">
        <ele>2018.672</ele>
        <time>2016-05-06T18:56:02Z</time>
      </trkpt>
      <trkpt lat="42.4349" lon="1.51535">
        <ele>2020.294</ele>
        <time>2016-05-06T18:56:22Z</time>
      </trkpt>
      <trkpt lat="42.43484" lon="1.51551">
        <ele>2021.932</ele>
        <time>2016-05-06T18:56:42Z</time>
      </trkpt>
      <trkpt lat="42.43476" lon="1.51571">
        <ele>2024.41</ele>
        <time>2016-05-06T18:57:02Z</time>
      </trkpt>
      <trkpt lat="42.43474" lon="1.51591">
        <ele>2027.828</ele>
        <time>2016-05-06T18:57:22Z</time>
      </trkpt>
      <trkpt lat="42.4347" lon="1.5161">
        <ele>2030.219</ele>
        <time>2016-05-06T18:57:42Z</time>
      </trkpt>
      <trkpt lat="42.43479" lon="1.51606">
        <ele>2031.447</ele>
        <time>2016-05-06T18:58:02Z</time>
      </trkpt>
      <trkpt lat="42.43486" lon="1.51602">
        <ele>2031.825</ele>
        <time>2016-05-06T18:58:22Z</time>
      </trkpt>
      <trkpt lat="42.43495" lon="1.51597">
        <ele>2032.623</ele>
        <time>2016-05-06T18:58:42Z</time>
      </trkpt>
      <trkpt lat="42.43504" lon="1.51595">
        <ele>2032.683</ele>
        <time>2016-05-06T18:59:02Z</time>
      </trkpt>
      <trkpt lat="42.43514" lon="1.51605">
        <ele>2033.711</ele>
        <time>2016-05-06T18:59:22Z</time>
      </trkpt>
      <trkpt lat="42.4352" lon="1.51614">
        <ele>2035.308</ele>
        <time>2016-05-06T18:59:42Z</time>
      </trkpt>
      <trkpt lat="42.43529" lon="1.51626">
        <ele>2037.493</ele>
        <time>2016-05-06T19:00:02Z</time>
      </trkpt>
      <trkpt lat="42.4354" lon="1.51637">
        <ele>2036.765</ele>
        <time>2016-05-06T19:00:22Z</time>
      </trkpt>
      <trkpt lat="42.43549" lon="1.51645">
        <ele>2036.553</ele>
        <time>2016-05-06T19:00:42Z</time>
      </trkpt>
      <trkpt lat="42.43555" lon="1.51657">
        <ele>2037.711</ele>
        <time>2016-05-06T19:01:02Z</time>
      </trkpt>
      <trkpt lat="42.43564" lon="1.51668">
        <ele>2037.829</ele>
        <time>2016-05-06T19:01:22Z</time>
      </trkpt>
      <trkpt lat="42.43574" lon="1.51674">
        <ele>2036.61</ele>
        <time>2016-05-06T19:01:42Z</time>
      </trkpt>
      <trkpt lat="42.43578" lon="1.51684">
        <ele>2037.248</ele>
        <time>2016-05-06T19:02:02Z</time>
      </trkpt>
      <trkpt lat="42.43584" lon="1.51698">
        <ele>2038.286</ele>
        <time>2016-05-06T19:02:22Z</time>
      </trkpt>
      <trkpt lat="42.43588" lon="1.51712">
        <ele>2038.926</ele>
        <time>2016-05-06T19:02:42Z</time>
      </trkpt>
      <trkpt lat="42.43591" lon="1.51728">
        <ele>2039.447</ele>
        <time>2016-05-06T19:03:02Z</time>
      </trkpt>
      <trkpt lat="42.43588" lon="1.51741">
        <ele>2040.311</ele>
        <time>2016-05-06T19:03:22Z</time>
      </trkpt>
      <trkpt lat="42.43583" lon="1.51758">
        <ele>2041.508</ele>
        <time>2016-05-06T19:03:42Z</time>
      </trkpt>
      <trkpt lat="42.43581" lon="1.51774">
        <ele>2041.063</ele>
        <time>2016-05-06T19:04:02Z</time>
      </trkpt>
      <trkpt lat="42.43577" lon="1.51793">
        <ele>2040.775</ele>
        <time>2016-05-06T19:04:22Z</time>
      </trkpt>
      <trkpt lat="42.43577" lon="1.51812">
        <ele>2039.843</ele>
        <time>2016-05-06T19:04:42Z</time>
      </trkpt>
      <trkpt lat="42.43584" lon="1.51827">
        <ele>2037.861</ele>
        <time>2016-05-06T19:05:02Z</time>
      </trkpt>
      <trkpt lat="42.43586" lon="1.51842">
        <ele>2036.689</ele>
        <time>2016-05-06T19:05:22Z</time>
      </trkpt>
      <trkpt lat="42.43587" lon="1.51862">
        <ele>2035.53</ele>
        <time>2016-05-06T19:05:42Z</time>
      </trkpt>
      <trkpt lat="42.43585" lon="1.51878">
        <ele>2035.338</ele>
        <time>2016-05-06T19:06:02Z</time>
      </trkpt>
      <trkpt lat="42.43583" lon="1.51897">
        <ele>2034.386</ele>
        <time>2016-05-06T19:06:22Z</time>
      </trkpt>
      <trkpt lat="42.43581" lon="1.51914">
        <ele>2032.942</ele>
        <time>2016-05-06T19:06:42Z</time>
      </trkpt>
      <trkpt lat="42.43578" lon="1.51934">
        <ele>2033.222</ele>
        <time>2016-05-06T19:07:02Z</time>
      </trkpt>
      <trkpt lat="42.43574" lon="1.5195">
        <ele>2033.514</ele>
        <time>2016-05-06T19:07:22Z</time>
      </trkpt>
      <trkpt lat="42.4357" lon="1.51961">
        <ele>2033.708</ele>
        <time>2016-05-06T19:07:42Z</time>
      </trkpt>
      <trkpt lat="42.43566" lon="1.51976">
        <ele>2034.035</ele>
        <time>2016-05-06T19:08:02Z</time>
      </trkpt>
      <trkpt lat="42.43568" lon="1.51992">
        <ele>2033.417</ele>
        <time>2016-05-06T19:08:22Z</time>
      </trkpt>
      <trkpt lat="42.43569" lon="1.52008">
        <ele>2033.325</ele>
        <time>2016-05-06T19:08:42Z</time>
      </trkpt>
      <trkpt lat="42.43568" lon="1.52022">
        <ele>2033.613</ele>
        <time>2016-05-06T19:09:02Z</time>
      </trkpt>
      <trkpt lat="42.43569" lon="1.52036">
        <ele>2033.811</ele>
        <time>2016-05-06T19:09:22Z</time>
      </trkpt>
      <trkpt lat="42.43569" lon="1.52051">
        <ele>2034.082</ele>
        <time>2016-05-06T19:09:42Z</time>
      </trkpt>
      <trkpt lat="42.43566" lon="1.52064">
        <ele>2034.73</ele>
        <time>2016-05-06T19:10:02Z</time>
      </trkpt>
      <trkpt lat="42.43564" lon="1.52081">
        <ele>2035.478</ele>
        <time>2016-05-06T19:10:22Z</time>
      </trkpt>
      <trkpt lat="42.43561" lon="1.52095">
        <ele>2035.653</ele>
        <time>2016-05-06T19:10:42Z</time>
      </trkpt>
      <trkpt lat="42.43561" lon="1.52108">
        <ele>2035.104</ele>
        <time>2016-05-06T19:11:02Z</time>
      </trkpt>
      <trkpt lat="42.43561" lon="1.52116">
        <ele>2034.914</ele>
        <time>2016-05-06T19:11:22Z</time>
      </trkpt>
      <trkpt lat="42.43559" lon="1.52132">
        <ele>2034.608</ele>
        <time>2016-05-06T19:11:42Z</time>
      </trkpt>
      <trkpt lat="42.43557" lon="1.5215">
        <ele>2035.546</ele>
        <time>2016-05-06T19:12:02Z</time>
      </trkpt>
      <trkpt lat="42.43558" lon="1.52168">
        <ele>2036.548</ele>
        <time>2016-05-06T19:12:22Z</time>
      </trkpt>
      <trkpt lat="42.43559" lon="1.52181">
        <ele>2037.436</ele>
        <time>2016-05-06T19:12:42Z</time>
      </trkpt>
      <trkpt lat="42.43559" lon="1.52191">
        <ele>2038.014</ele>
        <time>2016-05-06T19:13:02Z</time>
      </trkpt>
      <trkpt lat="42.43563" lon="1.522">
        <ele>2038.052</ele>
        <time>2016-05-06T19:13:22Z</time>
      </trkpt>
      <trkpt lat="42.43567" lon="1.52212">
        <ele>2038.443</ele>
        <time>2016-05-06T19:13:42Z</time>
      </trkpt>
      <trkpt lat="42.43568" lon="1.52223">
        <ele>2039.581</ele>
        <time>2016-05-06T19:14:02Z</time>
      </trkpt>
      <trkpt lat="42.43568" lon="1.52234">
        <ele>2040.489</ele>
        <time>2016-05-06T19:14:22Z</time>
      </trkpt>
      <trkpt lat="42.43567" lon="1.52243">
        <ele>2041.431</ele>
        <time>2016-05-06T19:14:42Z</time>
      </trkpt>
      <trkpt lat="42.43565" lon="1.52255">
        <ele>2042.961</ele>
        <time>2016-05-06T19:15:02Z</time>
      </trkpt>
      <trkpt lat="42.43562" lon="1.52272">
        <ele>2045.107</ele>
        <time>2016-05-06T19:15:22Z</time>
      </trkpt>
      <trkpt lat="42.43557" lon="1.52288">
        <ele>2047.508</ele>
        <time>2016-05-06T19:15:42Z</time>
      </trkpt>
      <trkpt lat="42.43549" lon="1.52303">
        <ele>2050.584</ele>
        <time>2016-05-06T19:16:02Z</time>
      </trkpt>
      <trkpt lat="42.43543" lon="1.52319">
        <ele>2052.856</ele>
        <time>2016-05-06T19:16:22Z</time>
      </trkpt>
      <trkpt lat="42.43539" lon="1.52336">
        <ele>2053.814</ele>
        <time>2016-05-06T19:16:42Z</time>
      </trkpt>
      <trkpt lat="42.43537" lon="1.52353">
        <ele>2054.552</ele>
        <time>2016-05-06T19:17:02Z</time>
      </trkpt>
      <trkpt lat="42.43534" lon="1.52372">
        <ele>2055.04</ele>
        <time>2016-05-06T19:17:22Z</time>
      </trkpt>
      <trkpt lat="42.43532" lon="1.52388">
        <ele>2055.211</ele>
        <time>2016-05-06T19:17:42Z</time>
      </trkpt>
      <trkpt lat="42.43529" lon="1.52402">
        <ele>2055.559</ele>
        <time>2016-05-06T19:18:02Z</time>
      </trkpt>
      <trkpt lat="42.43526" lon="1.5242">
        <ele>2056.117</ele>
        <time>2016-05-06T19:18:22Z</time>
      </trkpt>
      <trkpt lat="42.43524" lon="1.52439">
        <ele>2056.736</ele>
        <time>2016-05-06T19:18:42Z</time>
      </trkpt>
      <trkpt lat="42.43525" lon="1.52456">
        <ele>2057.717</ele>
        <time>2016-05-06T19:19:02Z</time>
      </trkpt>
      <trkpt lat="42.43523" lon="1.52475">
        <ele>2058.818</ele>
        <time>2016-05-06T19:19:22Z</time>
      </trkpt>
      <trkpt lat="42.43521" lon="1.52492">
        <ele>2059.208</ele>
        <time>2016-05-06T19:19:42Z</time>
      </trkpt>
      <trkpt lat="42.43521" lon="1.5251">
        <ele>2060.654</ele>
        <time>2016-05-06T19:20:02Z</time>
      </trkpt>
      <trkpt lat="42.43528" lon="1.52529">
        <ele>2063.136</ele>
        <time>2016-05-06T19:20:22Z</time>
      </trkpt>
      <trkpt lat="42.43531" lon="1.52541">
        <ele>2064.774</ele>
        <time>2016-05-06T19:20:42Z</time>
      </trkpt>
      <trkpt lat="42.43536" lon="1.52554">
        <ele>2066.642</ele>
        <time>2016-05-06T19:21:02Z</time>
      </trkpt>
      <trkpt lat="42.43542" lon="1.52565">
        <ele>2068.42</ele>
        <time>2016-05-06T19:21:22Z</time>
      </trkpt>
      <trkpt lat="42.43555" lon="1.5257">
        <ele>2070.021</ele>
        <time>2016-05-06T19:21:42Z</time>
      </trkpt>
      <trkpt lat="42.43565" lon="1.52573">
        <ele>2071.399</ele>
        <time>2016-05-06T19:22:02Z</time>
      </trkpt>
      <trkpt lat="42.43575" lon="1.52578">
        <ele>2072.747</ele>
        <time>2016-05-06T19:22:22Z</time>
      </trkpt>
      <trkpt lat="42.43581" lon="1.52587">
        <ele>2073.955</ele>
        <time>2016-05-06T19:22:42Z</time>
      </trkpt>
      <trkpt lat="42.43586" lon="1.52596">
        <ele>2074.507</ele>
        <time>2016-05-06T19:23:02Z</time>
      </trkpt>
      <trkpt lat="42.43592" lon="1.52608">
        <ele>2074.917</ele>
        <time>2016-05-06T19:23:22Z</time>
      </trkpt>
      <trkpt lat="42.43597" lon="1.52617">
        <ele>2075.208</ele>
        <time>2016-05-06T19:23:42Z</time>
      </trkpt>
      <trkpt lat="42.43597" lon="1.52628">
        <ele>2075.616</ele>
        <time>2016-05-06T19:24:02Z</time>
      </trkpt>
      <trkpt lat="42.43588" lon="1.52663">
        <ele>2079.438</ele>
        <time>2016-05-06T19:24:22Z</time>
      </trkpt>
      <trkpt lat="42.43584" lon="1.52682">
        <ele>2081.626</ele>
        <time>2016-05-06T19:24:42Z</time>
      </trkpt>
      <trkpt lat="42.43579" lon="1.52702">
        <ele>2083.714</ele>
        <time>2016-05-06T19:25:02Z</time>
      </trkpt>
      <trkpt lat="42.43573" lon="1.52725">
        <ele>2086.072</ele>
        <time>2016-05-06T19:25:22Z</time>
      </trkpt>
      <trkpt lat="42.43569" lon="1.52743">
        <ele>2087.883</ele>
        <time>2016-05-06T19:25:42Z</time>
      </trkpt>
      <trkpt lat="42.43563" lon="1.52764">
        <ele>2089.191</ele>
        <time>2016-05-06T19:26:02Z</time>
      </trkpt>
      <trkpt lat="42.43561" lon="1.52789">
        <ele>2090.719</ele>
        <time>2016-05-06T19:26:22Z</time>
      </trkpt>
      <trkpt lat="42.43556" lon="1.52806">
        <ele>2092.043</ele>
        <time>2016-05-06T19:26:42Z</time>
      </trkpt>
      <trkpt lat="42.43551" lon="1.52824">
        <ele>2093.964</ele>
        <time>2016-05-06T19:27:02Z</time>
      </trkpt>
      <trkpt lat="42.43548" lon="1.52849">
        <ele>2096.41</ele>
        <time>2016-05-06T19:27:22Z</time>
      </trkpt>
      <trkpt lat="42.43546" lon="1.52879">
        <ele>2100.208</ele>
        <time>2016-05-06T19:27:42Z</time>
      </trkpt>
      <trkpt lat="42.43544" lon="1.529">
        <ele>2103.795</ele>
        <time>2016-05-06T19:28:02Z</time>
      </trkpt>
      <trkpt lat="42.4354" lon="1.52919">
        <ele>2107.677</ele>
        <time>2016-05-06T19:28:22Z</time>
      </trkpt>
      <trkpt lat="42.43534" lon="1.52936">
        <ele>2111.765</ele>
        <time>2016-05-06T19:28:42Z</time>
      </trkpt>
      <trkpt lat="42.43533" lon="1.5296">
        <ele>2115.973</ele>
        <time>2016-05-06T19:29:02Z</time>
      </trkpt>
      <trkpt lat="42.43533" lon="1.52975">
        <ele>2118.581</ele>
        <time>2016-05-06T19:29:22Z</time>
      </trkpt>
      <trkpt lat="42.43534" lon="1.5299">
        <ele>2120.712</ele>
        <time>2016-05-06T19:29:42Z</time>
      </trkpt>
      <trkpt lat="42.43526" lon="1.53001">
        <ele>2123.22</ele>
        <time>2016-05-06T19:30:02Z</time>
      </trkpt>
      <trkpt lat="42.43514" lon="1.53012">
        <ele>2125.258</ele>
        <time>2016-05-06T19:30:22Z</time>
      </trkpt>
      <trkpt lat="42.43503" lon="1.5302">
        <ele>2126.774</ele>
        <time>2016-05-06T19:30:42Z</time>
      </trkpt>
      <trkpt lat="42.43503" lon="1.53043">
        <ele>2129.656</ele>
        <time>2016-05-06T19:31:02Z</time>
      </trkpt>
      <trkpt lat="42.43505" lon="1.53064">
        <ele>2131.921</ele>
        <time>2016-05-06T19:31:22Z</time>
      </trkpt>
      <trkpt lat="42.4349" lon="1.53127">
        <ele>2138.708</ele>
        <time>2016-05-06T19:31:42Z</time>
      </trkpt>
      <trkpt lat="42.43475" lon="1.53221">
        <ele>2149.878</ele>
        <time>2016-05-06T19:32:02Z</time>
      </trkpt>
      <trkpt lat="42.43475" lon="1.53232">
        <ele>2150.69</ele>
        <time>2016-05-06T19:32:22Z</time>
      </trkpt>
      <trkpt lat="42.43473" lon="1.53245">
        <ele>2151.648</ele>
        <time>2016-05-06T19:32:42Z</time>
      </trkpt>
      <trkpt lat="42.43474" lon="1.53257">
        <ele>2152.646</ele>
        <time>2016-05-06T19:33:02Z</time>
      </trkpt>
      <trkpt lat="42.43473" lon="1.5327">
        <ele>2154.124</ele>
        <time>2016-05-06T19:33:22Z</time>
      </trkpt>
      <trkpt lat="42.43472" lon="1.53286">
        <ele>2156.285</ele>
        <time>2016-05-06T19:33:42Z</time>
      </trkpt>
      <trkpt lat="42.43472" lon="1.53297">
        <ele>2157.713</ele>
        <time>2016-05-06T19:34:02Z</time>
      </trkpt>
      <trkpt lat="42.43471" lon="1.53314">
        <ele>2159.741</ele>
        <time>2016-05-06T19:34:22Z</time>
      </trkpt>
      <trkpt lat="42.43469" lon="1.53328">
        <ele>2161.254</ele>
        <time>2016-05-06T19:34:42Z</time>
      </trkpt>
      <trkpt lat="42.43467" lon="1.53346">
        <ele>2163.356</ele>
        <time>2016-05-06T19:35:02Z</time>
      </trkpt>
      <trkpt lat="42.43466" lon="1.53362">
        <ele>2165.411</ele>
        <time>2016-05-06T19:35:22Z</time>
      </trkpt>
      <trkpt lat="42.43463" lon="1.53377">
        <ele>2165.908</ele>
        <time>2016-05-06T19:35:42Z</time>
      </trkpt>
      <trkpt lat="42.43457" lon="1.53387">
        <ele>2166.386</ele>
        <time>2016-05-06T19:36:02Z</time>
      </trkpt>
      <trkpt lat="42.43436" lon="1.53418">
        <ele>2163.878</ele>
        <time>2016-05-06T19:36:22Z</time>
      </trkpt>
      <trkpt lat="42.43433" lon="1.53425">
        <ele>2163.046</ele>
        <time>2016-05-06T19:36:42Z</time>
      </trkpt>
      <trkpt lat="42.43429" lon="1.53438">
        <ele>2162.884</ele>
        <time>2016-05-06T19:37:02Z</time>
      </trkpt>
      <trkpt lat="42.43423" lon="1.53451">
        <ele>2162.512</ele>
        <time>2016-05-06T19:37:22Z</time>
      </trkpt>
      <trkpt lat="42.43413" lon="1.53485">
        <ele>2160.653</ele>
        <time>2016-05-06T19:37:42Z</time>
      </trkpt>
      <trkpt lat="42.43404" lon="1.53501">
        <ele>2159.421</ele>
        <time>2016-05-06T19:38:02Z</time>
      </trkpt>
      <trkpt lat="42.43396" lon="1.53509">
        <ele>2159.059</ele>
        <time>2016-05-06T19:38:22Z</time>
      </trkpt>
      <trkpt lat="42.43389" lon="1.53521">
        <ele>2159.027</ele>
        <time>2016-05-06T19:38:42Z</time>
      </trkpt>
      <trkpt lat="42.43386" lon="1.53534">
        <ele>2158.668</ele>
        <time>2016-05-06T19:39:02Z</time>
      </trkpt>
      <trkpt lat="42.4338" lon="1.53544">
        <ele>2157.514</ele>
        <time>2016-05-06T19:39:22Z</time>
      </trkpt>
      <trkpt lat="42.43374" lon="1.53555">
        <ele>2156.808</ele>
        <time>2016-05-06T19:39:42Z</time>
      </trkpt>
      <trkpt lat="42.4337" lon="1.53566">
        <ele>2156.513</ele>
        <time>2016-05-06T19:40:02Z</time>
      </trkpt>
      <trkpt lat="42.43368" lon="1.53581">
        <ele>2156.655</ele>
        <time>2016-05-06T19:40:22Z</time>
      </trkpt>
      <trkpt lat="42.43367" lon="1.53657">
        <ele>2160.313</ele>
        <time>2016-05-06T19:40:42Z</time>
      </trkpt>
      <trkpt lat="42.43365" lon="1.53698">
        <ele>2161.481</ele>
        <time>2016-05-06T19:41:02Z</time>
      </trkpt>
      <trkpt lat="42.43349" lon="1.53748">
        <ele>2159.659</ele>
        <time>2016-05-06T19:41:22Z</time>
      </trkpt>
      <trkpt lat="42.43333" lon="1.53794">
        <ele>2155.82</ele>
        <time>2016-05-06T19:41:42Z</time>
      </trkpt>
      <trkpt lat="42.43331" lon="1.53808">
        <ele>2154.598</ele>
        <time>2016-05-06T19:42:02Z</time>
      </trkpt>
      <trkpt lat="42.43325" lon="1.53818">
        <ele>2152.716</ele>
        <time>2016-05-06T19:42:22Z</time>
      </trkpt>
      <trkpt lat="42.4332" lon="1.5384">
        <ele>2149.587</ele>
        <time>2016-05-06T19:42:42Z</time>
      </trkpt>
      <trkpt lat="42.43315" lon="1.5386">
        <ele>2146.242</ele>
        <time>2016-05-06T19:43:02Z</time>
      </trkpt>
      <trkpt lat="42.43311" lon="1.53885">
        <ele>2141.726</ele>
        <time>2016-05-06T19:43:22Z</time>
      </trkpt>
      <trkpt lat="42.43304" lon="1.53909">
        <ele>2138.908</ele>
        <time>2016-05-06T19:43:42Z</time>
      </trkpt>
      <trkpt lat="42.43302" lon="1.53931">
        <ele>2136.639</ele>
        <time>2016-05-06T19:44:02Z</time>
      </trkpt>
      <trkpt lat="42.433" lon="1.53951">
        <ele>2134.751</ele>
        <time>2016-05-06T19:44:22Z</time>
      </trkpt>
      <trkpt lat="42.43297" lon="1.53977">
        <ele>2132.659</ele>
        <time>2016-05-06T19:44:42Z</time>
      </trkpt>
      <trkpt lat="42.43301" lon="1.54002">
        <ele>2130.557</ele>
        <time>2016-05-06T19:45:02Z</time>
      </trkpt>
      <trkpt lat="42.43304" lon="1.54025">
        <ele>2128.595</ele>
        <time>2016-05-06T19:45:22Z</time>
      </trkpt>
      <trkpt lat="42.43305" lon="1.54045">
        <ele>2127.476</ele>
        <time>2016-05-06T19:45:42Z</time>
      </trkpt>
      <trkpt lat="42.43306" lon="1.5406">
        <ele>2126.864</ele>
        <time>2016-05-06T19:46:02Z</time>
      </trkpt>
      <trkpt lat="42.43309" lon="1.54074">
        <ele>2125.882</ele>
        <time>2016-05-06T19:46:22Z</time>
      </trkpt>
      <trkpt lat="42.43316" lon="1.54101">
        <ele>2124.328</ele>
        <time>2016-05-06T19:46:42Z</time>
      </trkpt>
      <trkpt lat="42.43315" lon="1.54124">
        <ele>2124.289</ele>
        <time>2016-05-06T19:47:02Z</time>
      </trkpt>
      <trkpt lat="42.43314" lon="1.54147">
        <ele>2124.017</ele>
        <time>2016-05-06T19:47:22Z</time>
      </trkpt>
      <trkpt lat="42.43316" lon="1.54172">
        <ele>2123.308</ele>
        <time>2016-05-06T19:47:42Z</time>
      </trkpt>
      <trkpt lat="42.43318" lon="1.54201">
        <ele>2122.353</ele>
        <time>2016-05-06T19:48:02Z</time>
      </trkpt>
      <trkpt lat="42.43325" lon="1.54232">
        <ele>2119.895</ele>
        <time>2016-05-06T19:48:22Z</time>
      </trkpt>
      <trkpt lat="42.43333" lon="1.54261">
        <ele>2117.253</ele>
        <time>2016-05-06T19:48:42Z</time>
      </trkpt>
      <trkpt lat="42.43333" lon="1.54287">
        <ele>2117.261</ele>
        <time>2016-05-06T19:49:02Z</time>
      </trkpt>
      <trkpt lat="42.43334" lon="1.54312">
        <ele>2117.039</ele>
        <time>2016-05-06T19:49:22Z</time>
      </trkpt>
      <trkpt lat="42.43341" lon="1.54336">
        <ele>2116.81</ele>
        <time>2016-05-06T19:49:42Z</time>
      </trkpt>
      <trkpt lat="42.43352" lon="1.54353">
        <ele>2117.568</ele>
        <time>2016-05-06T19:50:02Z</time>
      </trkpt>
      <trkpt lat="42.43363" lon="1.54366">
        <ele>2119.176</ele>
        <time>2016-05-06T19:50:22Z</time>
      </trkpt>
      <trkpt lat="42.43377" lon="1.5438">
        <ele>2123.718</ele>
        <time>2016-05-06T19:50:42Z</time>
      </trkpt>
      <trkpt lat="42.43386" lon="1.54391">
        <ele>2126.798</ele>
        <time>2016-05-06T19:51:02Z</time>
      </trkpt>
      <trkpt lat="42.43384" lon="1.54416">
        <ele>2129.217</ele>
        <time>2016-05-06T19:51:22Z</time>
      </trkpt>
      <trkpt lat="42.43381" lon="1.54441">
        <ele>2131.408</ele>
        <time>2016-05-06T19:51:42Z</time>
      </trkpt>
      <trkpt lat="42.43376" lon="1.54468">
        <ele>2133.752</ele>
        <time>2016-05-06T19:52:02Z</time>
      </trkpt>
      <trkpt lat="42.43373" lon="1.54495">
        <ele>2136.364</ele>
        <time>2016-05-06T19:52:22Z</time>
      </trkpt>
      <trkpt lat="42.43374" lon="1.54518">
        <ele>2138.312</ele>
        <time>2016-05-06T19:52:42Z</time>
      </trkpt>
      <trkpt lat="42.43373" lon="1.54553">
        <ele>2141.69</ele>
        <time>2016-05-06T19:53:02Z</time>
      </trkpt>
      <trkpt lat="42.4337" lon="1.5458">
        <ele>2144.698</ele>
        <time>2016-05-06T19:53:22Z</time>
      </trkpt>
      <trkpt lat="42.43373" lon="1.54604">
        <ele>2147.569</ele>
        <time>2016-05-06T19:53:42Z</time>
      </trkpt>
      <trkpt lat="42.43381" lon="1.54631">
        <ele>2151.047</ele>
        <time>2016-05-06T19:54:02Z</time>
      </trkpt>
      <trkpt lat="42.43377" lon="1.54657">
        <ele>2153.345</ele>
        <time>2016-05-06T19:54:22Z</time>
      </trkpt>
      <trkpt lat="42.43376" lon="1.54681">
        <ele>2155.467</ele>
        <time>2016-05-06T19:54:42Z</time>
      </trkpt>
      <trkpt lat="42.43375" lon="1.54704">
        <ele>2157.581</ele>
        <time>2016-05-06T19:55:02Z</time>
      </trkpt>
      <trkpt lat="42.43371" lon="1.54721">
        <ele>2159.019</ele>
        <time>2016-05-06T19:55:22Z</time>
      </trkpt>
      <trkpt lat="42.4337" lon="1.54755">
        <ele>2162.608</ele>
        <time>2016-05-06T19:55:42Z</time>
      </trkpt>
      <trkpt lat="42.43368" lon="1.54778">
        <ele>2165.117</ele>
        <time>2016-05-06T19:56:02Z</time>
      </trkpt>
      <trkpt lat="42.43362" lon="1.54799">
        <ele>2166.519</ele>
        <time>2016-05-06T19:56:22Z</time>
      </trkpt>
      <trkpt lat="42.43362" lon="1.54829">
        <ele>2169.617</ele>
        <time>2016-05-06T19:56:42Z</time>
      </trkpt>
      <trkpt lat="42.43361" lon="1.54859">
        <ele>2171.745</ele>
        <time>2016-05-06T19:57:02Z</time>
      </trkpt>
      <trkpt lat="42.4336" lon="1.54884">
        <ele>2173.553</ele>
        <time>2016-05-06T19:57:22Z</time>
      </trkpt>
      <trkpt lat="42.43364" lon="1.54911">
        <ele>2176.034</ele>
        <time>2016-05-06T19:57:42Z</time>
      </trkpt>
      <trkpt lat="42.43368" lon="1.54939">
        <ele>2178.442</ele>
        <time>2016-05-06T19:58:02Z</time>
      </trkpt>
      <trkpt lat="42.43372" lon="1.54963">
        <ele>2180.55</ele>
        <time>2016-05-06T19:58:22Z</time>
      </trkpt>
      <trkpt lat="42.43379" lon="1.54986">
        <ele>2182.578</ele>
        <time>2016-05-06T19:58:42Z</time>
      </trkpt>
      <trkpt lat="42.43387" lon="1.55007">
        <ele>2184.033</ele>
        <time>2016-05-06T19:59:02Z</time>
      </trkpt>
      <trkpt lat="42.43394" lon="1.5503">
        <ele>2186.026</ele>
        <time>2016-05-06T19:59:22Z</time>
      </trkpt>
      <trkpt lat="42.43403" lon="1.55053">
        <ele>2188.408</ele>
        <time>2016-05-06T19:59:42Z</time>
      </trkpt>
      <trkpt lat="42.43411" lon="1.5507">
        <ele>2191.178</ele>
        <time>2016-05-06T20:00:02Z</time>
      </trkpt>
      <trkpt lat="42.43424" lon="1.55095">
        <ele>2195.21</ele>
        <time>2016-05-06T20:00:22Z</time>
      </trkpt>
      <trkpt lat="42.43436" lon="1.55117">
        <ele>2199.078</ele>
        <time>2016-05-06T20:00:42Z</time>
      </trkpt>
      <trkpt lat="42.43448" lon="1.55136">
        <ele>2202.566</ele>
        <time>2016-05-06T20:01:02Z</time>
      </trkpt>
      <trkpt lat="42.43459" lon="1.55144">
        <ele>2205.244</ele>
        <time>2016-05-06T20:01:22Z</time>
      </trkpt>
      <trkpt lat="42.43472" lon="1.55153">
        <ele>2208.425</ele>
        <time>2016-05-06T20:01:42Z</time>
      </trkpt>
      <trkpt lat="42.43486" lon="1.55155">
        <ele>2212.123</ele>
        <time>2016-05-06T20:02:02Z</time>
      </trkpt>
      <trkpt lat="42.43499" lon="1.5516">
        <ele>2215.571</ele>
        <time>2016-05-06T20:02:22Z</time>
      </trkpt>
      <trkpt lat="42.43508" lon="1.55166">
        <ele>2218.591</ele>
        <time>2016-05-06T20:02:42Z</time>
      </trkpt>
      <trkpt lat="42.43519" lon="1.55176">
        <ele>2221.781</ele>
        <time>2016-05-06T20:03:02Z</time>
      </trkpt>
      <trkpt lat="42.43528" lon="1.5519">
        <ele>2224.119</ele>
        <time>2016-05-06T20:03:22Z</time>
      </trkpt>
      <trkpt lat="42.43534" lon="1.55201">
        <ele>2226.608</ele>
        <time>2016-05-06T20:03:42Z</time>
      </trkpt>
      <trkpt lat="42.43544" lon="1.55214">
        <ele>2230.58</ele>
        <time>2016-05-06T20:04:02Z</time>
      </trkpt>
      <trkpt lat="42.43552" lon="1.55232">
        <ele>2234.342</ele>
        <time>2016-05-06T20:04:22Z</time>
      </trkpt>
      <trkpt lat="42.43561" lon="1.55242">
        <ele>2237.98</ele>
        <time>2016-05-06T20:04:42Z</time>
      </trkpt>
      <trkpt lat="42.43575" lon="1.55251">
        <ele>2242.198</ele>
        <time>2016-05-06T20:05:02Z</time>
      </trkpt>
      <trkpt lat="42.43589" lon="1.55256">
        <ele>2245.486</ele>
        <time>2016-05-06T20:05:22Z</time>
      </trkpt>
      <trkpt lat="42.43612" lon="1.55259">
        <ele>2251.617</ele>
        <time>2016-05-06T20:05:42Z</time>
      </trkpt>
      <trkpt lat="42.43627" lon="1.55266">
        <ele>2254.495</ele>
        <time>2016-05-06T20:06:02Z</time>
      </trkpt>
      <trkpt lat="42.43644" lon="1.55274">
        <ele>2257.683</ele>
        <time>2016-05-06T20:06:22Z</time>
      </trkpt>
      <trkpt lat="42.43665" lon="1.5528">
        <ele>2266.462</ele>
        <time>2016-05-06T20:06:42Z</time>
      </trkpt>
      <trkpt lat="42.43683" lon="1.55279">
        <ele>2269.983</ele>
        <time>2016-05-06T20:07:02Z</time>
      </trkpt>
      <trkpt lat="42.43699" lon="1.55283">
        <ele>2272.211</ele>
        <time>2016-05-06T20:07:22Z</time>
      </trkpt>
      <trkpt lat="42.43718" lon="1.55288">
        <ele>2276.508</ele>
        <time>2016-05-06T20:07:42Z</time>
      </trkpt>
      <trkpt lat="42.43735" lon="1.55287">
        <ele>2281.567</ele>
        <time>2016-05-06T20:08:02Z</time>
      </trkpt>
      <trkpt lat="42.43756" lon="1.55295">
        <ele>2285.089</ele>
        <time>2016-05-06T20:08:22Z</time>
      </trkpt>
      <trkpt lat="42.43776" lon="1.55299">
        <ele>2292.937</ele>
        <time>2016-05-06T20:08:42Z</time>
      </trkpt>
      <trkpt lat="42.43798" lon="1.55306">
        <ele>2297.135</ele>
        <time>2016-05-06T20:09:02Z</time>
      </trkpt>
      <trkpt lat="42.43817" lon="1.55312">
        <ele>2299.943</ele>
        <time>2016-05-06T20:09:22Z</time>
      </trkpt>
      <trkpt lat="42.43835" lon="1.55315">
        <ele>2303.734</ele>
        <time>2016-05-06T20:09:42Z</time>
      </trkpt>
      <trkpt lat="42.43851" lon="1.55314">
        <ele>2308.612</ele>
        <time>2016-05-06T20:10:02Z</time>
      </trkpt>
      <trkpt lat="42.43868" lon="1.55321">
        <ele>2312.23</ele>
        <time>2016-05-06T20:10:22Z</time>
      </trkpt>
      <trkpt lat="42.43882" lon="1.55326">
        <ele>2314.691</ele>
        <time>2016-05-06T20:10:42Z</time>
      </trkpt>
      <trkpt lat="42.43899" lon="1.55336">
        <ele>2317.281</ele>
        <time>2016-05-06T20:11:02Z</time>
      </trkpt>
      <trkpt lat="42.43912" lon="1.55347">
        <ele>2317.819</ele>
        <time>2016-05-06T20:11:22Z</time>
      </trkpt>
      <trkpt lat="42.43931" lon="1.55347">
        <ele>2322.908</ele>
        <time>2016-05-06T20:11:42Z</time>
      </trkpt>
      <trkpt lat="42.43946" lon="1.55354">
        <ele>2326.78</ele>
        <time>2016-05-06T20:12:02Z</time>
      </trkpt>
      <trkpt lat="42.4396" lon="1.55361">
        <ele>2327.752</ele>
        <time>2016-05-06T20:12:22Z</time>
      </trkpt>
      <trkpt lat="42.43972" lon="1.55372">
        <ele>2328.38</ele>
        <time>2016-05-06T20:12:42Z</time>
      </trkpt>
      <trkpt lat="42.43989" lon="1.55383">
        <ele>2332.368</ele>
        <time>2016-05-06T20:13:02Z</time>
      </trkpt>
      <trkpt lat="42.44003" lon="1.55395">
        <ele>2335.416</ele>
        <time>2016-05-06T20:13:22Z</time>
      </trkpt>
      <trkpt lat="42.4402" lon="1.55401">
        <ele>2339.287</ele>
        <time>2016-05-06T20:13:42Z</time>
      </trkpt>
      <trkpt lat="42.44043" lon="1.55414">
        <ele>2344.455</ele>
        <time>2016-05-06T20:14:02Z</time>
      </trkpt>
      <trkpt lat="42.44058" lon="1.5542">
        <ele>2348.523</ele>
        <time>2016-05-06T20:14:22Z</time>
      </trkpt>
      <trkpt lat="42.44076" lon="1.55427">
        <ele>2353.184</ele>
        <time>2016-05-06T20:14:42Z</time>
      </trkpt>
      <trkpt lat="42.44097" lon="1.55428">
        <ele>2359.807</ele>
        <time>2016-05-06T20:15:02Z</time>
      </trkpt>
      <trkpt lat="42.44115" lon="1.5543">
        <ele>2366.017</ele>
        <time>2016-05-06T20:15:22Z</time>
      </trkpt>
      <trkpt lat="42.4413" lon="1.55426">
        <ele>2371.208</ele>
        <time>2016-05-06T20:15:42Z</time>
      </trkpt>
      <trkpt lat="42.4415" lon="1.55423">
        <ele>2378.019</ele>
        <time>2016-05-06T20:16:02Z</time>
      </trkpt>
      <trkpt lat="42.44167" lon="1.55419">
        <ele>2383.851</ele>
        <time>2016-05-06T20:16:22Z</time>
      </trkpt>
      <trkpt lat="42.44184" lon="1.55423">
        <ele>2388.399</ele>
        <time>2016-05-06T20:16:42Z</time>
      </trkpt>
      <trkpt lat="42.44211" lon="1.55429">
        <ele>2396.857</ele>
        <time>2016-05-06T20:17:02Z</time>
      </trkpt>
      <trkpt lat="42.44232" lon="1.55432">
        <ele>2403.625</ele>
        <time>2016-05-06T20:17:22Z</time>
      </trkpt>
      <trkpt lat="42.44253" lon="1.55438">
        <ele>2410.736</ele>
        <time>2016-05-06T20:17:42Z</time>
      </trkpt>
      <trkpt lat="42.44273" lon="1.55443">
        <ele>2418.114</ele>
        <time>2016-05-06T20:18:02Z</time>
      </trkpt>
      <trkpt lat="42.4429" lon="1.55448">
        <ele>2424.042</ele>
        <time>2016-05-06T20:18:22Z</time>
      </trkpt>
      <trkpt lat="42.44313" lon="1.5546">
        <ele>2432.439</ele>
        <time>2016-05-06T20:18:42Z</time>
      </trkpt>
      <trkpt lat="42.44334" lon="1.55468">
        <ele>2441.801</ele>
        <time>2016-05-06T20:19:02Z</time>
      </trkpt>
      <trkpt lat="42.44352" lon="1.5548">
        <ele>2449.721</ele>
        <time>2016-05-06T20:19:22Z</time>
      </trkpt>
      <trkpt lat="42.44355" lon="1.55501">
        <ele>2451.908</ele>
        <time>2016-05-06T20:19:42Z</time>
      </trkpt>
      <trkpt lat="42.44374" lon="1.55539">
        <ele>2459.664</ele>
        <time>2016-05-06T20:20:02Z</time>
      </trkpt>
      <trkpt lat="42.44385" lon="1.55566">
        <ele>2463.456</ele>
        <time>2016-05-06T20:20:22Z</time>
      </trkpt>
      <trkpt lat="42.44394" lon="1.55603">
        <ele>2467.264</ele>
        <time>2016-05-06T20:20:42Z</time>
      </trkpt>
      <trkpt lat="42.44408" lon="1.55644">
        <ele>2471.852</ele>
        <time>2016-05-06T20:21:02Z</time>
      </trkpt>
      <trkpt lat="42.44414" lon="1.55671">
        <ele>2474.29</ele>
        <time>2016-05-06T20:21:22Z</time>
      </trkpt>
      <trkpt lat="42.44424" lon="1.55689">
        <ele>2476.711</ele>
        <time>2016-05-06T20:21:42Z</time>
      </trkpt>
      <trkpt lat="42.44434" lon="1.55715">
        <ele>2478.219</ele>
        <time>2016-05-06T20:22:02Z</time>
      </trkpt>
      <trkpt lat="42.44443" lon="1.55737">
        <ele>2479.757</ele>
        <time>2016-05-06T20:22:22Z</time>
      </trkpt>
      <trkpt lat="42.44449" lon="1.55761">
        <ele>2481.162</ele>
        <time>2016-05-06T20:22:42Z</time>
      </trkpt>
      <trkpt lat="42.44463" lon="1.5579">
        <ele>2484.483</ele>
        <time>2016-05-06T20:23:02Z</time>
      </trkpt>
      <trkpt lat="42.44471" lon="1.55809">
        <ele>2486.111</ele>
        <time>2016-05-06T20:23:22Z</time>
      </trkpt>
      <trkpt lat="42.44474" lon="1.55823">
        <ele>2487.408</ele>
        <time>2016-05-06T20:23:42Z</time>
      </trkpt>
      <trkpt lat="42.44489" lon="1.55835">
        <ele>2489.287</ele>
        <time>2016-05-06T20:24:02Z</time>
      </trkpt>
      <trkpt lat="42.44509" lon="1.55849">
        <ele>2491.269</ele>
        <time>2016-05-06T20:24:22Z</time>
      </trkpt>
      <trkpt lat="42.44526" lon="1.55858">
        <ele>2492.097</ele>
        <time>2016-05-06T20:24:42Z</time>
      </trkpt>
      <trkpt lat="42.44547" lon="1.55869">
        <ele>2493.425</ele>
        <time>2016-05-06T20:25:02Z</time>
      </trkpt>
      <trkpt lat="42.4457" lon="1.55882">
        <ele>2494.583</ele>
        <time>2016-05-06T20:25:22Z</time>
      </trkpt>
      <trkpt lat="42.44592" lon="1.55895">
        <ele>2495.864</ele>
        <time>2016-05-06T20:25:42Z</time>
      </trkpt>
      <trkpt lat="42.44617" lon="1.55906">
        <ele>2498.012</ele>
        <time>2016-05-06T20:26:02Z</time>
      </trkpt>
      <trkpt lat="42.44645" lon="1.5592">
        <ele>2500.67</ele>
        <time>2016-05-06T20:26:22Z</time>
      </trkpt>
      <trkpt lat="42.44666" lon="1.55927">
        <ele>2502.621</ele>
        <time>2016-05-06T20:26:42Z</time>
      </trkpt>
      <trkpt lat="42.44688" lon="1.55943">
        <ele>2506.241</ele>
        <time>2016-05-06T20:27:02Z</time>
      </trkpt>
      <trkpt lat="42.44715" lon="1.55958">
        <ele>2510.205</ele>
        <time>2016-05-06T20:27:22Z</time>
      </trkpt>
      <trkpt lat="42.44737" lon="1.55964">
        <ele>2513.408</ele>
        <time>2016-05-06T20:27:42Z</time>
      </trkpt>
      <trkpt lat="42.4476" lon="1.55982">
        <ele>2518.343</ele>
        <time>2016-05-06T20:28:02Z</time>
      </trkpt>
      <trkpt lat="42.44792" lon="1.55992">
        <ele>2524.625</ele>
        <time>2016-05-06T20:28:22Z</time>
      </trkpt>
      <trkpt lat="42.44821" lon="1.55994">
        <ele>2531.083</ele>
        <time>2016-05-06T20:28:42Z</time>
      </trkpt>
      <trkpt lat="42.4485" lon="1.55996">
        <ele>2538.021</ele>
        <time>2016-05-06T20:29:02Z</time>
      </trkpt>
      <trkpt lat="42.44871" lon="1.56004">
        <ele>2543.559</ele>
        <time>2016-05-06T20:29:22Z</time>
      </trkpt>
      <trkpt lat="42.44904" lon="1.56012">
        <ele>2550.79</ele>
        <time>2016-05-06T20:29:42Z</time>
      </trkpt>
      <trkpt lat="42.44928" lon="1.56008">
        <ele>2553.728</ele>
        <time>2016-05-06T20:30:02Z</time>
      </trkpt>
      <trkpt lat="42.44948" lon="1.5601">
        <ele>2555.656</ele>
        <time>2016-05-06T20:30:22Z</time>
      </trkpt>
      <trkpt lat="42.44967" lon="1.56011">
        <ele>2556.925</ele>
        <time>2016-05-06T20:30:42Z</time>
      </trkpt>
      <trkpt lat="42.44988" lon="1.55994">
        <ele>2557.526</ele>
        <time>2016-05-06T20:31:02Z</time>
      </trkpt>
      <trkpt lat="42.44999" lon="1.55973">
        <ele>2556.908</ele>
        <time>2016-05-06T20:31:22Z</time>
      </trkpt>
      <trkpt lat="42.45016" lon="1.55952">
        <ele>2558.808</ele>
        <time>2016-05-06T20:31:42Z</time>
      </trkpt>
      <trkpt lat="42.45033" lon="1.55932">
        <ele>2560.833</ele>
        <time>2016-05-06T20:32:02Z</time>
      </trkpt>
      <trkpt lat="42.45056" lon="1.55915">
        <ele>2564.955</ele>
        <time>2016-05-06T20:32:22Z</time>
      </trkpt>
      <trkpt lat="42.45079" lon="1.55897">
        <ele>2564.953</ele>
        <time>2016-05-06T20:32:42Z</time>
      </trkpt>
      <trkpt lat="42.45102" lon="1.55889">
        <ele>2567.041</ele>
        <time>2016-05-06T20:33:02Z</time>
      </trkpt>
      <trkpt lat="42.45124" lon="1.5588">
        <ele>2568.439</ele>
        <time>2016-05-06T20:33:22Z</time>
      </trkpt>
      <trkpt lat="42.45144" lon="1.55876">
        <ele>2569.73</ele>
        <time>2016-05-06T20:33:42Z</time>
      </trkpt>
      <trkpt lat="42.45163" lon="1.55876">
        <ele>2570.328</ele>
        <time>2016-05-06T20:34:02Z</time>
      </trkpt>
      <trkpt lat="42.45184" lon="1.55879">
        <ele>2571.236</ele>
        <time>2016-05-06T20:34:22Z</time>
      </trkpt>
      <trkpt lat="42.45209" lon="1.55879">
        <ele>2572.359</ele>
        <time>2016-05-06T20:34:42Z</time>
      </trkpt>
      <trkpt lat="42.4523" lon="1.55874">
        <ele>2572.903</ele>
        <time>2016-05-06T20:35:02Z</time>
      </trkpt>
      <trkpt lat="42.45257" lon="1.5587">
        <ele>2572.423</ele>
        <time>2016-05-06T20:35:22Z</time>
      </trkpt>
      <trkpt lat="42.45291" lon="1.55869">
        <ele>2571.308</ele>
        <time>2016-05-06T20:35:42Z</time>
      </trkpt>
      <trkpt lat="42.4532" lon="1.55866">
        <ele>2569.866</ele>
        <time>2016-05-06T20:36:02Z</time>
      </trkpt>
      <trkpt lat="42.45349" lon="1.55862">
        <ele>2568.598</ele>
        <time>2016-05-06T20:36:22Z</time>
      </trkpt>
      <trkpt lat="42.45389" lon="1.55847">
        <ele>2566.536</ele>
        <time>2016-05-06T20:36:42Z</time>
      </trkpt>
      <trkpt lat="42.45415" lon="1.55837">
        <ele>2565.164</ele>
        <time>2016-05-06T20:37:02Z</time>
      </trkpt>
      <trkpt lat="42.45441" lon="1.55827">
        <ele>2563.842</ele>
        <time>2016-05-06T20:37:22Z</time>
      </trkpt>
      <trkpt lat="42.45459" lon="1.55818">
        <ele>2563.043</ele>
        <time>2016-05-06T20:37:42Z</time>
      </trkpt>
      <trkpt lat="42.45484" lon="1.5581">
        <ele>2562.051</ele>
        <time>2016-05-06T20:38:02Z</time>
      </trkpt>
      <trkpt lat="42.45503" lon="1.55802">
        <ele>2561.479</ele>
        <time>2016-05-06T20:38:22Z</time>
      </trkpt>
      <trkpt lat="42.4552" lon="1.55802">
        <ele>2561.859</ele>
        <time>2016-05-06T20:38:42Z</time>
      </trkpt>
      <trkpt lat="42.45533" lon="1.55802">
        <ele>2562.003</ele>
        <time>2016-05-06T20:39:02Z</time>
      </trkpt>
      <trkpt lat="42.45549" lon="1.55812">
        <ele>2562.423</ele>
        <time>2016-05-06T20:39:22Z</time>
      </trkpt>
      <trkpt lat="42.45562" lon="1.55821">
        <ele>2563.208</ele>
        <time>2016-05-06T20:39:42Z</time>
      </trkpt>
      <trkpt lat="42.45571" lon="1.55832">
        <ele>2564.456</ele>
        <time>2016-05-06T20:40:02Z</time>
      </trkpt>
      <trkpt lat="42.45584" lon="1.55846">
        <ele>2566.568</ele>
        <time>2016-05-06T20:40:22Z</time>
      </trkpt>
      <trkpt lat="42.45592" lon="1.55868">
        <ele>2569.726</ele>
        <time>2016-05-06T20:40:42Z</time>
      </trkpt>
      <trkpt lat="42.45599" lon="1.55889">
        <ele>2573.394</ele>
        <time>2016-05-06T20:41:02Z</time>
      </trkpt>
      <trkpt lat="42.45612" lon="1.55906">
        <ele>2576.492</ele>
        <time>2016-05-06T20:41:22Z</time>
      </trkpt>
      <trkpt lat="42.45627" lon="1.55917">
        <ele>2579.993</ele>
        <time>2016-05-06T20:41:42Z</time>
      </trkpt>
      <trkpt lat="42.45648" lon="1.55931">
        <ele>2585.441</ele>
        <time>2016-05-06T20:42:02Z</time>
      </trkpt>
      <trkpt lat="42.45668" lon="1.55943">
        <ele>2591.379</ele>
        <time>2016-05-06T20:42:22Z</time>
      </trkpt>
      <trkpt lat="42.45691" lon="1.5595">
        <ele>2599.927</ele>
        <time>2016-05-06T20:42:42Z</time>
      </trkpt>
      <trkpt lat="42.45711" lon="1.55959">
        <ele>2603.668</ele>
        <time>2016-05-06T20:43:02Z</time>
      </trkpt>
      <trkpt lat="42.45728" lon="1.55963">
        <ele>2606.214</ele>
        <time>2016-05-06T20:43:22Z</time>
      </trkpt>
      <trkpt lat="42.45744" lon="1.55964">
        <ele>2608.908</ele>
        <time>2016-05-06T20:43:42Z</time>
      </trkpt>
      <trkpt lat="42.45755" lon="1.55983">
        <ele>2612.913</ele>
        <time>2016-05-06T20:44:02Z</time>
      </trkpt>
      <trkpt lat="42.45769" lon="1.55997">
        <ele>2616.915</ele>
        <time>2016-05-06T20:44:22Z</time>
      </trkpt>
      <trkpt lat="42.45795" lon="1.56003">
        <ele>2621.263</ele>
        <time>2016-05-06T20:44:42Z</time>
      </trkpt>
      <trkpt lat="42.4581" lon="1.56024">
        <ele>2625.581</ele>
        <time>2016-05-06T20:45:02Z</time>
      </trkpt>
      <trkpt lat="42.4582" lon="1.56032">
        <ele>2627.019</ele>
        <time>2016-05-06T20:45:22Z</time>
      </trkpt>
      <trkpt lat="42.45831" lon="1.56042">
        <ele>2628.83</ele>
        <time>2016-05-06T20:45:42Z</time>
      </trkpt>
      <trkpt lat="42.45843" lon="1.56057">
        <ele>2631.818</ele>
        <time>2016-05-06T20:46:02Z</time>
      </trkpt>
      <trkpt lat="42.45849" lon="1.56068">
        <ele>2633.586</ele>
        <time>2016-05-06T20:46:22Z</time>
      </trkpt>
      <trkpt lat="42.45858" lon="1.56082">
        <ele>2635.652</ele>
        <time>2016-05-06T20:46:42Z</time>
      </trkpt>
      <trkpt lat="42.45865" lon="1.56088">
        <ele>2636.653</ele>
        <time>2016-05-06T20:47:02Z</time>
      </trkpt>
      <trkpt lat="42.45884" lon="1.56077">
        <ele>2636.208</ele>
        <time>2016-05-06T20:47:22Z</time>
      </trkpt>
      <trkpt lat="42.45893" lon="1.5606">
        <ele>2634.108</ele>
        <time>2016-05-06T20:47:42Z</time>
      </trkpt>
      <trkpt lat="42.45908" lon="1.56056">
        <ele>2632.696</ele>
        <time>2016-05-06T20:48:02Z</time>
      </trkpt>
      <trkpt lat="42.45925" lon="1.56046">
        <ele>2629.028</ele>
        <time>2016-05-06T20:48:22Z</time>
      </trkpt>
      <trkpt lat="42.45943" lon="1.56033">
        <ele>2625.536</ele>
        <time>2016-05-06T20:48:42Z</time>
      </trkpt>
      <trkpt lat="42.45962" lon="1.56022">
        <ele>2624.234</ele>
        <time>2016-05-06T20:49:02Z</time>
      </trkpt>
      <trkpt lat="42.45974" lon="1.56007">
        <ele>2622.842</ele>
        <time>2016-05-06T20:49:22Z</time>
      </trkpt>
      <trkpt lat="42.45994" lon="1.55984">
        <ele>2621.513</ele>
        <time>2016-05-06T20:49:42Z</time>
      </trkpt>
      <trkpt lat="42.4601" lon="1.55962">
        <ele>2617.741</ele>
        <time>2016-05-06T20:50:02Z</time>
      </trkpt>
      <trkpt lat="42.46027" lon="1.55939">
        <ele>2615.189</ele>
        <time>2016-05-06T20:50:22Z</time>
      </trkpt>
      <trkpt lat="42.46051" lon="1.55909">
        <ele>2611.515</ele>
        <time>2016-05-06T20:50:42Z</time>
      </trkpt>
      <trkpt lat="42.4607" lon="1.55873">
        <ele>2606.165</ele>
        <time>2016-05-06T20:51:02Z</time>
      </trkpt>
      <trkpt lat="42.46091" lon="1.55838">
        <ele>2603.611</ele>
        <time>2016-05-06T20:51:22Z</time>
      </trkpt>
      <trkpt lat="42.46113" lon="1.55811">
        <ele>2604.408</ele>
        <time>2016-05-06T20:51:42Z</time>
      </trkpt>
      <trkpt lat="42.46139" lon="1.55787">
        <ele>2604.372</ele>
        <time>2016-05-06T20:52:02Z</time>
      </trkpt>
      <trkpt lat="42.46158" lon="1.55755">
        <ele>2604.284</ele>
        <time>2016-05-06T20:52:22Z</time>
      </trkpt>
      <trkpt lat="42.46179" lon="1.55726">
        <ele>2603.912</ele>
        <time>2016-05-06T20:52:42Z</time>
      </trkpt>
      <trkpt lat="42.46199" lon="1.55711">
        <ele>2605.81</ele>
        <time>2016-05-06T20:53:02Z</time>
      </trkpt>
      <trkpt lat="42.46223" lon="1.55693">
        <ele>2609.138</ele>
        <time>2016-05-06T20:53:22Z</time>
      </trkpt>
      <trkpt lat="42.46252" lon="1.55658">
        <ele>2614.389</ele>
        <time>2016-05-06T20:53:42Z</time>
      </trkpt>
      <trkpt lat="42.46272" lon="1.55636">
        <ele>2618.097</ele>
        <time>2016-05-06T20:54:02Z</time>
      </trkpt>
      <trkpt lat="42.46287" lon="1.55615">
        <ele>2618.525</ele>
        <time>2016-05-06T20:54:22Z</time>
      </trkpt>
      <trkpt lat="42.46308" lon="1.55605">
        <ele>2614.716</ele>
        <time>2016-05-06T20:54:42Z</time>
      </trkpt>
      <trkpt lat="42.46325" lon="1.55588">
        <ele>2609.376</ele>
        <time>2016-05-06T20:55:02Z</time>
      </trkpt>
      <trkpt lat="42.46346" lon="1.55572">
        <ele>2602.613</ele>
        <time>2016-05-06T20:55:22Z</time>
      </trkpt>
      <trkpt lat="42.46367" lon="1.55544">
        <ele>2595.308</ele>
        <time>2016-05-06T20:55:42Z</time>
      </trkpt>
      <trkpt lat="42.46388" lon="1.55531">
        <ele>2590.532</ele>
        <time>2016-05-06T20:56:02Z</time>
      </trkpt>
      <trkpt lat="42.4641" lon="1.55496">
        <ele>2584.494</ele>
        <time>2016-05-06T20:56:22Z</time>
      </trkpt>
      <trkpt lat="42.46434" lon="1.55465">
        <ele>2580.582</ele>
        <time>2016-05-06T20:56:42Z</time>
      </trkpt>
      <trkpt lat="42.46463" lon="1.55439">
        <ele>2579.92</ele>
        <time>2016-05-06T20:57:02Z</time>
      </trkpt>
      <trkpt lat="42.46478" lon="1.55417">
        <ele>2579.828</ele>
        <time>2016-05-06T20:57:22Z</time>
      </trkpt>
      <trkpt lat="42.46502" lon="1.55389">
        <ele>2580.029</ele>
        <time>2016-05-06T20:57:42Z</time>
      </trkpt>
      <trkpt lat="42.46527" lon="1.55363">
        <ele>2581.887</ele>
        <time>2016-05-06T20:58:02Z</time>
      </trkpt>
      <trkpt lat="42.46552" lon="1.55331">
        <ele>2584.935</ele>
        <time>2016-05-06T20:58:22Z</time>
      </trkpt>
      <trkpt lat="42.46569" lon="1.55303">
        <ele>2585.689</ele>
        <time>2016-05-06T20:58:42Z</time>
      </trkpt>
      <trkpt lat="42.46579" lon="1.55287">
        <ele>2587.006</ele>
        <time>2016-05-06T20:59:02Z</time>
      </trkpt>
      <trkpt lat="42.46586" lon="1.55277">
        <ele>2588.226</ele>
        <time>2016-05-06T20:59:22Z</time>
      </trkpt>
      <trkpt lat="42.46594" lon="1.55261">
        <ele>2588.808</ele>
        <time>2016-05-06T20:59:42Z</time>
      </trkpt>
      <trkpt lat="42.46604" lon="1.55247">
        <ele>2589.529</ele>
        <time>2016-05-06T21:00:02Z</time>
      </trkpt>
      <trkpt lat="42.46614" lon="1.55232">
        <ele>2590.191</ele>
        <time>2016-05-06T21:00:22Z</time>
      </trkpt>
      <trkpt lat="42.46623" lon="1.55218">
        <ele>2590.459</ele>
        <time>2016-05-06T21:00:42Z</time>
      </trkpt>
      <trkpt lat="42.46633" lon="1.55204">
        <ele>2590.367</ele>
        <time>2016-05-06T21:01:02Z</time>
      </trkpt>
      <trkpt lat="42.46646" lon="1.55191">
        <ele>2590.325</ele>
        <time>2016-05-06T21:01:22Z</time>
      </trkpt>
      <trkpt lat="42.46657" lon="1.55173">
        <ele>2590.686</ele>
        <time>2016-05-06T21:01:42Z</time>
      </trkpt>
      <trkpt lat="42.46669" lon="1.55159">
        <ele>2590.774</ele>
        <time>2016-05-06T21:02:02Z</time>
      </trkpt>
      <trkpt lat="42.4668" lon="1.55144">
        <ele>2590.232</ele>
        <time>2016-05-06T21:02:22Z</time>
      </trkpt>
      <trkpt lat="42.46693" lon="1.55128">
        <ele>2590.011</ele>
        <time>2016-05-06T21:02:42Z</time>
      </trkpt>
      <trkpt lat="42.4672" lon="1.55093">
        <ele>2589.421</ele>
        <time>2016-05-06T21:03:02Z</time>
      </trkpt>
      <trkpt lat="42.46743" lon="1.55063">
        <ele>2589.803</ele>
        <time>2016-05-06T21:03:22Z</time>
      </trkpt>
      <trkpt lat="42.46767" lon="1.55033">
        <ele>2590.408</ele>
        <time>2016-05-06T21:03:42Z</time>
      </trkpt>
      <trkpt lat="42.46793" lon="1.55001">
        <ele>2590.152</ele>
        <time>2016-05-06T21:04:02Z</time>
      </trkpt>
      <trkpt lat="42.46806" lon="1.54982">
        <ele>2590.034</ele>
        <time>2016-05-06T21:04:22Z</time>
      </trkpt>
      <trkpt lat="42.46829" lon="1.54956">
        <ele>2590.062</ele>
        <time>2016-05-06T21:04:42Z</time>
      </trkpt>
      <trkpt lat="42.46856" lon="1.54932">
        <ele>2589.64</ele>
        <time>2016-05-06T21:05:02Z</time>
      </trkpt>
      <trkpt lat="42.46874" lon="1.5491">
        <ele>2589.148</ele>
        <time>2016-05-06T21:05:22Z</time>
      </trkpt>
      <trkpt lat="42.46894" lon="1.54888">
        <ele>2589.159</ele>
        <time>2016-05-06T21:05:42Z</time>
      </trkpt>
      <trkpt lat="42.46916" lon="1.54867">
        <ele>2588.457</ele>
        <time>2016-05-06T21:06:02Z</time>
      </trkpt>
      <trkpt lat="42.46934" lon="1.54849">
        <ele>2588.445</ele>
        <time>2016-05-06T21:06:22Z</time>
      </trkpt>
      <trkpt lat="42.46955" lon="1.54826">
        <ele>2587.964</ele>
        <time>2016-05-06T21:06:42Z</time>
      </trkpt>
      <trkpt lat="42.4697" lon="1.54808">
        <ele>2587.106</ele>
        <time>2016-05-06T21:07:02Z</time>
      </trkpt>
      <trkpt lat="42.4699" lon="1.54776">
        <ele>2585.516</ele>
        <time>2016-05-06T21:07:22Z</time>
      </trkpt>
      <trkpt lat="42.47012" lon="1.54736">
        <ele>2582.708</ele>
        <time>2016-05-06T21:07:42Z</time>
      </trkpt>
      <trkpt lat="42.47034" lon="1.5471">
        <ele>2580.557</ele>
        <time>2016-05-06T21:08:02Z</time>
      </trkpt>
      <trkpt lat="42.47055" lon="1.54687">
        <ele>2578.419</ele>
        <time>2016-05-06T21:08:22Z</time>
      </trkpt>
      <trkpt lat="42.47067" lon="1.54659">
        <ele>2575.727</ele>
        <time>2016-05-06T21:08:42Z</time>
      </trkpt>
      <trkpt lat="42.47085" lon="1.54635">
        <ele>2573.665</ele>
        <time>2016-05-06T21:09:02Z</time>
      </trkpt>
      <trkpt lat="42.47105" lon="1.54611">
        <ele>2571.263</ele>
        <time>2016-05-06T21:09:22Z</time>
      </trkpt>
      <trkpt lat="42.47123" lon="1.54585">
        <ele>2570.434</ele>
        <time>2016-05-06T21:09:42Z</time>
      </trkpt>
      <trkpt lat="42.47138" lon="1.54557">
        <ele>2570.952</ele>
        <time>2016-05-06T21:10:02Z</time>
      </trkpt>
      <trkpt lat="42.47153" lon="1.5455">
        <ele>2571.14</ele>
        <time>2016-05-06T21:10:22Z</time>
      </trkpt>
      <trkpt lat="42.47177" lon="1.54522">
        <ele>2570.638</ele>
        <time>2016-05-06T21:10:42Z</time>
      </trkpt>
      <trkpt lat="42.47201" lon="1.54508">
        <ele>2568.07</ele>
        <time>2016-05-06T21:11:02Z</time>
      </trkpt>
      <trkpt lat="42.47231" lon="1.54488">
        <ele>2563.417</ele>
        <time>2016-05-06T21:11:22Z</time>
      </trkpt>
      <trkpt lat="42.47259" lon="1.54477">
        <ele>2557.808</ele>
        <time>2016-05-06T21:11:42Z</time>
      </trkpt>
      <trkpt lat="42.47284" lon="1.5447">
        <ele>2551.444</ele>
        <time>2016-05-06T21:12:02Z</time>
      </trkpt>
      <trkpt lat="42.47315" lon="1.54477">
        <ele>2542.776</ele>
        <time>2016-05-06T21:12:22Z</time>
      </trkpt>
      <trkpt lat="42.47342" lon="1.54475">
        <ele>2538.854</ele>
        <time>2016-05-06T21:12:42Z</time>
      </trkpt>
      <trkpt lat="42.4736" lon="1.54472">
        <ele>2537.152</ele>
        <time>2016-05-06T21:13:02Z</time>
      </trkpt>
      <trkpt lat="42.47374" lon="1.54476">
        <ele>2535.15</ele>
        <time>2016-05-06T21:13:22Z</time>
      </trkpt>
      <trkpt lat="42.47393" lon="1.54476">
        <ele>2532.261</ele>
        <time>2016-05-06T21:13:42Z</time>
      </trkpt>
      <trkpt lat="42.47396" lon="1.54474">
        <ele>2531.819</ele>
        <time>2016-05-06T21:14:02Z</time>
      </trkpt>
      <trkpt lat="42.47398" lon="1.54472">
        <ele>2531.477</ele>
        <time>2016-05-06T21:14:22Z</time>
      </trkpt>
      <trkpt lat="42.47421" lon="1.5448">
        <ele>2527.589</ele>
        <time>2016-05-06T21:14:42Z</time>
      </trkpt>
      <trkpt lat="42.47433" lon="1.54483">
        <ele>2526.106</ele>
        <time>2016-05-06T21:15:02Z</time>
      </trkpt>
      <trkpt lat="42.47447" lon="1.54486">
        <ele>2524.726</ele>
        <time>2016-05-06T21:15:22Z</time>
      </trkpt>
      <trkpt lat="42.47462" lon="1.54485">
        <ele>2522.708</ele>
        <time>2016-05-06T21:15:42Z</time>
      </trkpt>
      <trkpt lat="42.47478" lon="1.5448">
        <ele>2520.129</ele>
        <time>2016-05-06T21:16:02Z</time>
      </trkpt>
      <trkpt lat="42.47488" lon="1.54473">
        <ele>2517.631</ele>
        <time>2016-05-06T21:16:22Z</time>
      </trkpt>
      <trkpt lat="42.47502" lon="1.54462">
        <ele>2513.129</ele>
        <time>2016-05-06T21:16:42Z</time>
      </trkpt>
      <trkpt lat="42.47521" lon="1.54456">
        <ele>2509.967</ele>
        <time>2016-05-06T21:17:02Z</time>
      </trkpt>
      <trkpt lat="42.47541" lon="1.54449">
        <ele>2507.535</ele>
        <time>2016-05-06T21:17:22Z</time>
      </trkpt>
      <trkpt lat="42.47554" lon="1.5444">
        <ele>2505.816</ele>
        <time>2016-05-06T21:17:42Z</time>
      </trkpt>
      <trkpt lat="42.47572" lon="1.5443">
        <ele>2502.344</ele>
        <time>2016-05-06T21:18:02Z</time>
      </trkpt>
      <trkpt lat="42.47595" lon="1.5443">
        <ele>2497.242</ele>
        <time>2016-05-06T21:18:22Z</time>
      </trkpt>
      <trkpt lat="42.47605" lon="1.54431">
        <ele>2494.475</ele>
        <time>2016-05-06T21:18:42Z</time>
      </trkpt>
      <trkpt lat="42.47612" lon="1.54435">
        <ele>2492.628</ele>
        <time>2016-05-06T21:19:02Z</time>
      </trkpt>
      <trkpt lat="42.47621" lon="1.54435">
        <ele>2492.22</ele>
        <time>2016-05-06T21:19:22Z</time>
      </trkpt>
      <trkpt lat="42.47632" lon="1.54432">
        <ele>2491.208</ele>
        <time>2016-05-06T21:19:42Z</time>
      </trkpt>
      <trkpt lat="42.4767" lon="1.54435">
        <ele>2489.378</ele>
        <time>2016-05-06T21:20:02Z</time>
      </trkpt>
      <trkpt lat="42.47683" lon="1.5443">
        <ele>2487.17</ele>
        <time>2016-05-06T21:20:22Z</time>
      </trkpt>
      <trkpt lat="42.47692" lon="1.54425">
        <ele>2486.238</ele>
        <time>2016-05-06T21:20:42Z</time>
      </trkpt>
      <trkpt lat="42.47701" lon="1.5442">
        <ele>2485.356</ele>
        <time>2016-05-06T21:21:02Z</time>
      </trkpt>
      <trkpt lat="42.47708" lon="1.54417">
        <ele>2484.944</ele>
        <time>2016-05-06T21:21:22Z</time>
      </trkpt>
      <trkpt lat="42.47718" lon="1.54414">
        <ele>2483.195</ele>
        <time>2016-05-06T21:21:42Z</time>
      </trkpt>
      <trkpt lat="42.47725" lon="1.54409">
        <ele>2481.083</ele>
        <time>2016-05-06T21:22:02Z</time>
      </trkpt>
      <trkpt lat="42.47732" lon="1.54406">
        <ele>2479.281</ele>
        <time>2016-05-06T21:22:22Z</time>
      </trkpt>
      <trkpt lat="42.47737" lon="1.54402">
        <ele>2478.447</ele>
        <time>2016-05-06T21:22:42Z</time>
      </trkpt>
      <trkpt lat="42.47744" lon="1.54398">
        <ele>2477.929</ele>
        <time>2016-05-06T21:23:02Z</time>
      </trkpt>
      <trkpt lat="42.47751" lon="1.54396">
        <ele>2477.621</ele>
        <time>2016-05-06T21:23:22Z</time>
      </trkpt>
      <trkpt lat="42.47757" lon="1.54392">
        <ele>2477.808</ele>
        <time>2016-05-06T21:23:42Z</time>
      </trkpt>
      <trkpt lat="42.47761" lon="1.5439">
        <ele>2478.055</ele>
        <time>2016-05-06T21:24:02Z</time>
      </trkpt>
      <trkpt lat="42.47765" lon="1.54387">
        <ele>2477.547</ele>
        <time>2016-05-06T21:24:22Z</time>
      </trkpt>
      <trkpt lat="42.47773" lon="1.54383">
        <ele>2476.445</ele>
        <time>2016-05-06T21:24:42Z</time>
      </trkpt>
      <trkpt lat="42.47778" lon="1.54381">
        <ele>2475.763</ele>
        <time>2016-05-06T21:25:02Z</time>
      </trkpt>
      <trkpt lat="42.47784" lon="1.5438">
        <ele>2474.251</ele>
        <time>2016-05-06T21:25:22Z</time>
      </trkpt>
      <trkpt lat="42.47791" lon="1.54376">
        <ele>2472.682</ele>
        <time>2016-05-06T21:25:42Z</time>
      </trkpt>
      <trkpt lat="42.47796" lon="1.54373">
        <ele>2471.85</ele>
        <time>2016-05-06T21:26:02Z</time>
      </trkpt>
      <trkpt lat="42.47803" lon="1.54369">
        <ele>2471.278</ele>
        <time>2016-05-06T21:26:22Z</time>
      </trkpt>
      <trkpt lat="42.4781" lon="1.54364">
        <ele>2471.214</ele>
        <time>2016-05-06T21:26:42Z</time>
      </trkpt>
      <trkpt lat="42.47818" lon="1.5436">
        <ele>2470.954</ele>
        <time>2016-05-06T21:27:02Z</time>
      </trkpt>
      <trkpt lat="42.47826" lon="1.5436">
        <ele>2470.409</ele>
        <time>2016-05-06T21:27:22Z</time>
      </trkpt>
      <trkpt lat="42.47833" lon="1.54359">
        <ele>2469.708</ele>
        <time>2016-05-06T21:27:42Z</time>
      </trkpt>
      <trkpt lat="42.47841" lon="1.54358">
        <ele>2469.172</ele>
        <time>2016-05-06T21:28:02Z</time>
      </trkpt>
      <trkpt lat="42.4785" lon="1.54355">
        <ele>2468.584</ele>
        <time>2016-05-06T21:28:22Z</time>
      </trkpt>
      <trkpt lat="42.47856" lon="1.54353">
        <ele>2468.262</ele>
        <time>2016-05-06T21:28:42Z</time>
      </trkpt>
      <trkpt lat="42.47865" lon="1.54351">
        <ele>2467.25</ele>
        <time>2016-05-06T21:29:02Z</time>
      </trkpt>
      <trkpt lat="42.47869" lon="1.54347">
        <ele>2466.768</ele>
        <time>2016-05-06T21:29:22Z</time>
      </trkpt>
      <trkpt lat="42.47877" lon="1.54342">
        <ele>2466.569</ele>
        <time>2016-05-06T21:29:42Z</time>
      </trkpt>
      <trkpt lat="42.47886" lon="1.54334">
        <ele>2467.867</ele>
        <time>2016-05-06T21:30:02Z</time>
      </trkpt>
      <trkpt lat="42.47894" lon="1.54321">
        <ele>2464.555</ele>
        <time>2016-05-06T21:30:22Z</time>
      </trkpt>
      <trkpt lat="42.47903" lon="1.54307">
        <ele>2461.558</ele>
        <time>2016-05-06T21:30:42Z</time>
      </trkpt>
      <trkpt lat="42.47911" lon="1.54294">
        <ele>2458.652</ele>
        <time>2016-05-06T21:31:02Z</time>
      </trkpt>
      <trkpt lat="42.47914" lon="1.54286">
        <ele>2457.217</ele>
        <time>2016-05-06T21:31:22Z</time>
      </trkpt>
      <trkpt lat="42.47918" lon="1.54259">
        <ele>2451.108</ele>
        <time>2016-05-06T21:31:42Z</time>
      </trkpt>
      <trkpt lat="42.47918" lon="1.54232">
        <ele>2443.126</ele>
        <time>2016-05-06T21:32:02Z</time>
      </trkpt>
      <trkpt lat="42.47907" lon="1.54214">
        <ele>2434.348</ele>
        <time>2016-05-06T21:32:22Z</time>
      </trkpt>
      <trkpt lat="42.47899" lon="1.5421">
        <ele>2430.766</ele>
        <time>2016-05-06T21:32:42Z</time>
      </trkpt>
      <trkpt lat="42.47886" lon="1.54204">
        <ele>2424.944</ele>
        <time>2016-05-06T21:33:02Z</time>
      </trkpt>
      <trkpt lat="42.47876" lon="1.542">
        <ele>2419.892</ele>
        <time>2016-05-06T21:33:22Z</time>
      </trkpt>
      <trkpt lat="42.47863" lon="1.54195">
        <ele>2413.913</ele>
        <time>2016-05-06T21:33:42Z</time>
      </trkpt>
      <trkpt lat="42.47857" lon="1.54184">
        <ele>2407.531</ele>
        <time>2016-05-06T21:34:02Z</time>
      </trkpt>
      <trkpt lat="42.47861" lon="1.54161">
        <ele>2398.589</ele>
        <time>2016-05-06T21:34:22Z</time>
      </trkpt>
      <trkpt lat="42.47882" lon="1.54127">
        <ele>2390.985</ele>
        <time>2016-05-06T21:34:42Z</time>
      </trkpt>
      <trkpt lat="42.47891" lon="1.5411">
        <ele>2386.189</ele>
        <time>2016-05-06T21:35:02Z</time>
      </trkpt>
      <trkpt lat="42.47902" lon="1.54091">
        <ele>2381.517</ele>
        <time>2016-05-06T21:35:22Z</time>
      </trkpt>
      <trkpt lat="42.47914" lon="1.54074">
        <ele>2377.908</ele>
        <time>2016-05-06T21:35:42Z</time>
      </trkpt>
      <trkpt lat="42.47927" lon="1.54052">
        <ele>2372.539</ele>
        <time>2016-05-06T21:36:02Z</time>
      </trkpt>
      <trkpt lat="42.47932" lon="1.54044">
        <ele>2370.661</ele>
        <time>2016-05-06T21:36:22Z</time>
      </trkpt>
      <trkpt lat="42.47936" lon="1.54026">
        <ele>2365.099</ele>
        <time>2016-05-06T21:36:42Z</time>
      </trkpt>
      <trkpt lat="42.47946" lon="1.54013">
        <ele>2361.727</ele>
        <time>2016-05-06T21:37:02Z</time>
      </trkpt>
      <trkpt lat="42.47949" lon="1.54001">
        <ele>2357.115</ele>
        <time>2016-05-06T21:37:22Z</time>
      </trkpt>
      <trkpt lat="42.47953" lon="1.53985">
        <ele>2351.216</ele>
        <time>2016-05-06T21:37:42Z</time>
      </trkpt>
      <trkpt lat="42.47963" lon="1.5397">
        <ele>2345.564</ele>
        <time>2016-05-06T21:38:02Z</time>
      </trkpt>
      <trkpt lat="42.47972" lon="1.53951">
        <ele>2339.232</ele>
        <time>2016-05-06T21:38:22Z</time>
      </trkpt>
      <trkpt lat="42.47978" lon="1.5393">
        <ele>2331.237</ele>
        <time>2016-05-06T21:38:42Z</time>
      </trkpt>
      <trkpt lat="42.47986" lon="1.53907">
        <ele>2323.249</ele>
        <time>2016-05-06T21:39:02Z</time>
      </trkpt>
      <trkpt lat="42.47995" lon="1.53893">
        <ele>2319.613</ele>
        <time>2016-05-06T21:39:22Z</time>
      </trkpt>
      <trkpt lat="42.48002" lon="1.53862">
        <ele>2313.608</ele>
        <time>2016-05-06T21:39:42Z</time>
      </trkpt>
      <trkpt lat="42.48005" lon="1.53842">
        <ele>2308.424</ele>
        <time>2016-05-06T21:40:02Z</time>
      </trkpt>
      <trkpt lat="42.48006" lon="1.53824">
        <ele>2304.086</ele>
        <time>2016-05-06T21:40:22Z</time>
      </trkpt>
      <trkpt lat="42.48011" lon="1.53794">
        <ele>2296.834</ele>
        <time>2016-05-06T21:40:42Z</time>
      </trkpt>
      <trkpt lat="42.48015" lon="1.53774">
        <ele>2292.182</ele>
        <time>2016-05-06T21:41:02Z</time>
      </trkpt>
      <trkpt lat="42.48018" lon="1.5374">
        <ele>2283.97</ele>
        <time>2016-05-06T21:41:22Z</time>
      </trkpt>
      <trkpt lat="42.48022" lon="1.53716">
        <ele>2277.671</ele>
        <time>2016-05-06T21:41:42Z</time>
      </trkpt>
      <trkpt lat="42.48023" lon="1.53694">
        <ele>2271.489</ele>
        <time>2016-05-06T21:42:02Z</time>
      </trkpt>
      <trkpt lat="42.48027" lon="1.53673">
        <ele>2264.997</ele>
        <time>2016-05-06T21:42:22Z</time>
      </trkpt>
      <trkpt lat="42.4803" lon="1.53649">
        <ele>2257.219</ele>
        <time>2016-05-06T21:42:42Z</time>
      </trkpt>
      <trkpt lat="42.48037" lon="1.53621">
        <ele>2248.509</ele>
        <time>2016-05-06T21:43:02Z</time>
      </trkpt>
      <trkpt lat="42.4804" lon="1.53607">
        <ele>2244.519</ele>
        <time>2016-05-06T21:43:22Z</time>
      </trkpt>
      <trkpt lat="42.48042" lon="1.53589">
        <ele>2239.908</ele>
        <time>2016-05-06T21:43:42Z</time>
      </trkpt>
      <trkpt lat="42.48045" lon="1.53568">
        <ele>2233.662</ele>
        <time>2016-05-06T21:44:02Z</time>
      </trkpt>
      <trkpt lat="42.48047" lon="1.53543">
        <ele>2225.694</ele>
        <time>2016-05-06T21:44:22Z</time>
      </trkpt>
      <trkpt lat="42.48047" lon="1.5352">
        <ele>2218.232</ele>
        <time>2016-05-06T21:44:42Z</time>
      </trkpt>
      <trkpt lat="42.48045" lon="1.535">
        <ele>2212.49</ele>
        <time>2016-05-06T21:45:02Z</time>
      </trkpt>
      <trkpt lat="42.48045" lon="1.53476">
        <ele>2204.538</ele>
        <time>2016-05-06T21:45:22Z</time>
      </trkpt>
      <trkpt lat="42.48043" lon="1.53461">
        <ele>2199.679</ele>
        <time>2016-05-06T21:45:42Z</time>
      </trkpt>
      <trkpt lat="42.48039" lon="1.53432">
        <ele>2190.957</ele>
        <time>2016-05-06T21:46:02Z</time>
      </trkpt>
      <trkpt lat="42.48037" lon="1.53412">
        <ele>2184.915</ele>
        <time>2016-05-06T21:46:22Z</time>
      </trkpt>
      <trkpt lat="42.48038" lon="1.53391">
        <ele>2177.971</ele>
        <time>2016-05-06T21:46:42Z</time>
      </trkpt>
      <trkpt lat="42.48043" lon="1.5337">
        <ele>2172.141</ele>
        <time>2016-05-06T21:47:02Z</time>
      </trkpt>
      <trkpt lat="42.48048" lon="1.53354">
        <ele>2168.115</ele>
        <time>2016-05-06T21:47:22Z</time>
      </trkpt>
      <trkpt lat="42.48051" lon="1.5334">
        <ele>2164.908</ele>
        <time>2016-05-06T21:47:42Z</time>
      </trkpt>
      <trkpt lat="42.48052" lon="1.53318">
        <ele>2161.038</ele>
        <time>2016-05-06T21:48:02Z</time>
      </trkpt>
      <trkpt lat="42.48058" lon="1.53292">
        <ele>2156.08</ele>
        <time>2016-05-06T21:48:22Z</time>
      </trkpt>
      <trkpt lat="42.48064" lon="1.53276">
        <ele>2152.558</ele>
        <time>2016-05-06T21:48:42Z</time>
      </trkpt>
      <trkpt lat="42.48065" lon="1.5326">
        <ele>2149.986</ele>
        <time>2016-05-06T21:49:02Z</time>
      </trkpt>
      <trkpt lat="42.48069" lon="1.53244">
        <ele>2147.344</ele>
        <time>2016-05-06T21:49:22Z</time>
      </trkpt>
      <trkpt lat="42.48081" lon="1.53249">
        <ele>2147.155</ele>
        <time>2016-05-06T21:49:42Z</time>
      </trkpt>
      <trkpt lat="42.48091" lon="1.53265">
        <ele>2145.583</ele>
        <time>2016-05-06T21:50:02Z</time>
      </trkpt>
      <trkpt lat="42.48099" lon="1.53284">
        <ele>2144.771</ele>
        <time>2016-05-06T21:50:22Z</time>
      </trkpt>
      <trkpt lat="42.48108" lon="1.53299">
        <ele>2144.668</ele>
        <time>2016-05-06T21:50:42Z</time>
      </trkpt>
      <trkpt lat="42.48119" lon="1.53315">
        <ele>2145.542</ele>
        <time>2016-05-06T21:51:02Z</time>
      </trkpt>
      <trkpt lat="42.4813" lon="1.53326">
        <ele>2146.426</ele>
        <time>2016-05-06T21:51:22Z</time>
      </trkpt>
      <trkpt lat="42.48144" lon="1.53336">
        <ele>2147.308</ele>
        <time>2016-05-06T21:51:42Z</time>
      </trkpt>
      <trkpt lat="42.48161" lon="1.53344">
        <ele>2149.167</ele>
        <time>2016-05-06T21:52:02Z</time>
      </trkpt>
      <trkpt lat="42.48172" lon="1.53354">
        <ele>2152.299</ele>
        <time>2016-05-06T21:52:22Z</time>
      </trkpt>
      <trkpt lat="42.48184" lon="1.53357">
        <ele>2152.527</ele>
        <time>2016-05-06T21:52:42Z</time>
      </trkpt>
      <trkpt lat="42.48193" lon="1.5336">
        <ele>2152.675</ele>
        <time>2016-05-06T21:53:02Z</time>
      </trkpt>
      <trkpt lat="42.48204" lon="1.53366">
        <ele>2153.173</ele>
        <time>2016-05-06T21:53:22Z</time>
      </trkpt>
      <trkpt lat="42.4822" lon="1.53372">
        <ele>2152.184</ele>
        <time>2016-05-06T21:53:42Z</time>
      </trkpt>
      <trkpt lat="42.48229" lon="1.53381">
        <ele>2153.622</ele>
        <time>2016-05-06T21:54:02Z</time>
      </trkpt>
      <trkpt lat="42.48239" lon="1.53391">
        <ele>2155.59</ele>
        <time>2016-05-06T21:54:22Z</time>
      </trkpt>
      <trkpt lat="42.48251" lon="1.53397">
        <ele>2156.035</ele>
        <time>2016-05-06T21:54:42Z</time>
      </trkpt>
      <trkpt lat="42.48257" lon="1.53404">
        <ele>2157.686</ele>
        <time>2016-05-06T21:55:02Z</time>
      </trkpt>
      <trkpt lat="42.48266" lon="1.53415">
        <ele>2159.914</ele>
        <time>2016-05-06T21:55:22Z</time>
      </trkpt>
      <trkpt lat="42.48276" lon="1.53429">
        <ele>2161.208</ele>
        <time>2016-05-06T21:55:42Z</time>
      </trkpt>
      <trkpt lat="42.48281" lon="1.53444">
        <ele>2162.214</ele>
        <time>2016-05-06T21:56:02Z</time>
      </trkpt>
      <trkpt lat="42.48289" lon="1.53465">
        <ele>2161.136</ele>
        <time>2016-05-06T21:56:22Z</time>
      </trkpt>
      <trkpt lat="42.4829" lon="1.53484">
        <ele>2162.274</ele>
        <time>2016-05-06T21:56:42Z</time>
      </trkpt>
      <trkpt lat="42.48292" lon="1.53507">
        <ele>2162.892</ele>
        <time>2016-05-06T21:57:02Z</time>
      </trkpt>
      <trkpt lat="42.48297" lon="1.53527">
        <ele>2161.59</ele>
        <time>2016-05-06T21:57:22Z</time>
      </trkpt>
      <trkpt lat="42.483" lon="1.53554">
        <ele>2161.961</ele>
        <time>2016-05-06T21:57:42Z</time>
      </trkpt>
      <trkpt lat="42.483" lon="1.53575">
        <ele>2164.019</ele>
        <time>2016-05-06T21:58:02Z</time>
      </trkpt>
      <trkpt lat="42.48302" lon="1.53596">
        <ele>2165.377</ele>
        <time>2016-05-06T21:58:22Z</time>
      </trkpt>
      <trkpt lat="42.48301" lon="1.53618">
        <ele>2166.519</ele>
        <time>2016-05-06T21:58:42Z</time>
      </trkpt>
      <trkpt lat="42.48299" lon="1.53647">
        <ele>2162.009</ele>
        <time>2016-05-06T21:59:02Z</time>
      </trkpt>
      <trkpt lat="42.48291" lon="1.53673">
        <ele>2159.019</ele>
        <time>2016-05-06T21:59:22Z</time>
      </trkpt>
      <trkpt lat="42.4828" lon="1.53703">
        <ele>2158.008</ele>
        <time>2016-05-06T21:59:42Z</time>
      </trkpt>
      <trkpt lat="42.48279" lon="1.53726">
        <ele>2156.292</ele>
        <time>2016-05-06T22:00:02Z</time>
      </trkpt>
      <trkpt lat="42.48277" lon="1.53753">
        <ele>2155.554</ele>
        <time>2016-05-06T22:00:22Z</time>
      </trkpt>
      <trkpt lat="42.48282" lon="1.53776">
        <ele>2151.382</ele>
        <time>2016-05-06T22:00:42Z</time>
      </trkpt>
      <trkpt lat="42.48283" lon="1.53799">
        <ele>2152.54</ele>
        <time>2016-05-06T22:01:02Z</time>
      </trkpt>
      <trkpt lat="42.48283" lon="1.53822">
        <ele>2155.988</ele>
        <time>2016-05-06T22:01:22Z</time>
      </trkpt>
      <trkpt lat="42.48287" lon="1.5384">
        <ele>2156.959</ele>
        <time>2016-05-06T22:01:42Z</time>
      </trkpt>
      <trkpt lat="42.48293" lon="1.53858">
        <ele>2156.457</ele>
        <time>2016-05-06T22:02:02Z</time>
      </trkpt>
      <trkpt lat="42.48298" lon="1.53875">
        <ele>2157.795</ele>
        <time>2016-05-06T22:02:22Z</time>
      </trkpt>
      <trkpt lat="42.48304" lon="1.53895">
        <ele>2159.424</ele>
        <time>2016-05-06T22:02:42Z</time>
      </trkpt>
      <trkpt lat="42.48311" lon="1.53911">
        <ele>2158.704</ele>
        <time>2016-05-06T22:03:02Z</time>
      </trkpt>
      <trkpt lat="42.48312" lon="1.53933">
        <ele>2160.614</ele>
        <time>2016-05-06T22:03:22Z</time>
      </trkpt>
      <trkpt lat="42.4831" lon="1.53955">
        <ele>2163.208</ele>
        <time>2016-05-06T22:03:42Z</time>
      </trkpt>
      <trkpt lat="42.48307" lon="1.53989">
        <ele>2168.453</ele>
        <time>2016-05-06T22:04:02Z</time>
      </trkpt>
      <trkpt lat="42.48318" lon="1.54009">
        <ele>2167.275</ele>
        <time>2016-05-06T22:04:22Z</time>
      </trkpt>
      <trkpt lat="42.48321" lon="1.54021">
        <ele>2169.183</ele>
        <time>2016-05-06T22:04:42Z</time>
      </trkpt>
      <trkpt lat="42.48323" lon="1.54038">
        <ele>2172.051</ele>
        <time>2016-05-06T22:05:02Z</time>
      </trkpt>
      <trkpt lat="42.48322" lon="1.54062">
        <ele>2178.619</ele>
        <time>2016-05-06T22:05:22Z</time>
      </trkpt>
      <trkpt lat="42.4833" lon="1.54074">
        <ele>2178.34</ele>
        <time>2016-05-06T22:05:42Z</time>
      </trkpt>
      <trkpt lat="42.48338" lon="1.54088">
        <ele>2178.528</ele>
        <time>2016-05-06T22:06:02Z</time>
      </trkpt>
      <trkpt lat="42.48344" lon="1.54098">
        <ele>2178.056</ele>
        <time>2016-05-06T22:06:22Z</time>
      </trkpt>
      <trkpt lat="42.48348" lon="1.54108">
        <ele>2178.824</ele>
        <time>2016-05-06T22:06:42Z</time>
      </trkpt>
      <trkpt lat="42.48354" lon="1.54121">
        <ele>2179.404</ele>
        <time>2016-05-06T22:07:02Z</time>
      </trkpt>
      <trkpt lat="42.4836" lon="1.54134">
        <ele>2181.414</ele>
        <time>2016-05-06T22:07:22Z</time>
      </trkpt>
      <trkpt lat="42.48368" lon="1.54145">
        <ele>2181.308</ele>
        <time>2016-05-06T22:07:42Z</time>
      </trkpt>
      <trkpt lat="42.48374" lon="1.54159">
        <ele>2182.253</ele>
        <time>2016-05-06T22:08:02Z</time>
      </trkpt>
      <trkpt lat="42.48376" lon="1.54172">
        <ele>2184.585</ele>
        <time>2016-05-06T22:08:22Z</time>
      </trkpt>
      <trkpt lat="42.48381" lon="1.54184">
        <ele>2184.273</ele>
        <time>2016-05-06T22:08:42Z</time>
      </trkpt>
      <trkpt lat="42.48384" lon="1.54199">
        <ele>2185.041</ele>
        <time>2016-05-06T22:09:02Z</time>
      </trkpt>
      <trkpt lat="42.48386" lon="1.54209">
        <ele>2185.799</ele>
        <time>2016-05-06T22:09:22Z</time>
      </trkpt>
      <trkpt lat="42.48392" lon="1.54223">
        <ele>2185.58</ele>
        <time>2016-05-06T22:09:42Z</time>
      </trkpt>
      <trkpt lat="42.48394" lon="1.54235">
        <ele>2185.598</ele>
        <time>2016-05-06T22:10:02Z</time>
      </trkpt>
      <trkpt lat="42.48397" lon="1.54248">
        <ele>2184.896</ele>
        <time>2016-05-06T22:10:22Z</time>
      </trkpt>
      <trkpt lat="42.48397" lon="1.54266">
        <ele>2184.014</ele>
        <time>2016-05-06T22:10:42Z</time>
      </trkpt>
      <trkpt lat="42.48391" lon="1.54283">
        <ele>2187.554</ele>
        <time>2016-05-06T22:11:02Z</time>
      </trkpt>
      <trkpt lat="42.48386" lon="1.54304">
        <ele>2189.209</ele>
        <time>2016-05-06T22:11:22Z</time>
      </trkpt>
      <trkpt lat="42.48383" lon="1.54327">
        <ele>2189.708</ele>
        <time>2016-05-06T22:11:42Z</time>
      </trkpt>
      <trkpt lat="42.48375" lon="1.54359">
        <ele>2192.062</ele>
        <time>2016-05-06T22:12:02Z</time>
      </trkpt>
      <trkpt lat="42.48363" lon="1.5438">
        <ele>2194.754</ele>
        <time>2016-05-06T22:12:22Z</time>
      </trkpt>
      <trkpt lat="42.48337" lon="1.54393">
        <ele>2197.372</ele>
        <time>2016-05-06T22:12:42Z</time>
      </trkpt>
      <trkpt lat="42.48317" lon="1.54393">
        <ele>2202.29</ele>
        <time>2016-05-06T22:13:02Z</time>
      </trkpt>
      <trkpt lat="42.48302" lon="1.54409">
        <ele>2199.168</ele>
        <time>2016-05-06T22:13:22Z</time>
      </trkpt>
      <trkpt lat="42.4829" lon="1.54422">
        <ele>2197.279</ele>
        <time>2016-05-06T22:13:42Z</time>
      </trkpt>
      <trkpt lat="42.48272" lon="1.54443">
        <ele>2196.127</ele>
        <time>2016-05-06T22:14:02Z</time>
      </trkpt>
      <trkpt lat="42.48248" lon="1.54473">
        <ele>2203.665</ele>
        <time>2016-05-06T22:14:22Z</time>
      </trkpt>
      <trkpt lat="42.48236" lon="1.54509">
        <ele>2209.697</ele>
        <time>2016-05-06T22:14:42Z</time>
      </trkpt>
      <trkpt lat="42.482" lon="1.5455">
        <ele>2208.123</ele>
        <time>2016-05-06T22:15:02Z</time>
      </trkpt>
      <trkpt lat="42.48171" lon="1.54564">
        <ele>2214.825</ele>
        <time>2016-05-06T22:15:22Z</time>
      </trkpt>
      <trkpt lat="42.48151" lon="1.54593">
        <ele>2200.808</ele>
        <time>2016-05-06T22:15:42Z</time>
      </trkpt>
      <trkpt lat="42.48124" lon="1.54616">
        <ele>2196.71</ele>
        <time>2016-05-06T22:16:02Z</time>
      </trkpt>
      <trkpt lat="42.48104" lon="1.54634">
        <ele>2195.462</ele>
        <time>2016-05-06T22:16:22Z</time>
      </trkpt>
      <trkpt lat="42.48089" lon="1.54654">
        <ele>2192.61</ele>
        <time>2016-05-06T22:16:42Z</time>
      </trkpt>
      <trkpt lat="42.48069" lon="1.54678">
        <ele>2194.038</ele>
        <time>2016-05-06T22:17:02Z</time>
      </trkpt>
      <trkpt lat="42.48053" lon="1.54696">
        <ele>2196.756</ele>
        <time>2016-05-06T22:17:22Z</time>
      </trkpt>
      <trkpt lat="42.48041" lon="1.54712">
        <ele>2196.237</ele>
        <time>2016-05-06T22:17:42Z</time>
      </trkpt>
      <trkpt lat="42.48025" lon="1.54738">
        <ele>2195.825</ele>
        <time>2016-05-06T22:18:02Z</time>
      </trkpt>
      <trkpt lat="42.48004" lon="1.5476">
        <ele>2198.633</ele>
        <time>2016-05-06T22:18:22Z</time>
      </trkpt>
      <trkpt lat="42.47984" lon="1.54779">
        <ele>2201.381</ele>
        <time>2016-05-06T22:18:42Z</time>
      </trkpt>
      <trkpt lat="42.47967" lon="1.54797">
        <ele>2202.261</ele>
        <time>2016-05-06T22:19:02Z</time>
      </trkpt>
      <trkpt lat="42.47949" lon="1.54799">
        <ele>2207.117</ele>
        <time>2016-05-06T22:19:22Z</time>
      </trkpt>
      <trkpt lat="42.4793" lon="1.54812">
        <ele>2210.208</ele>
        <time>2016-05-06T22:19:42Z</time>
      </trkpt>
      <trkpt lat="42.47911" lon="1.54829">
        <ele>2214.349</ele>
        <time>2016-05-06T22:20:02Z</time>
      </trkpt>
      <trkpt lat="42.47888" lon="1.54859">
        <ele>2218.541</ele>
        <time>2016-05-06T22:20:22Z</time>
      </trkpt>
      <trkpt lat="42.47871" lon="1.54899">
        <ele>2227.769</ele>
        <time>2016-05-06T22:20:42Z</time>
      </trkpt>
      <trkpt lat="42.47854" lon="1.54944">
        <ele>2229.087</ele>
        <time>2016-05-06T22:21:02Z</time>
      </trkpt>
      <trkpt lat="42.47845" lon="1.5499">
        <ele>2229.715</ele>
        <time>2016-05-06T22:21:22Z</time>
      </trkpt>
      <trkpt lat="42.4784" lon="1.55017">
        <ele>2232.546</ele>
        <time>2016-05-06T22:21:42Z</time>
      </trkpt>
      <trkpt lat="42.47834" lon="1.5504">
        <ele>2233.174</ele>
        <time>2016-05-06T22:22:02Z</time>
      </trkpt>
      <trkpt lat="42.47824" lon="1.55059">
        <ele>2233.292</ele>
        <time>2016-05-06T22:22:22Z</time>
      </trkpt>
      <trkpt lat="42.47809" lon="1.55082">
        <ele>2235.211</ele>
        <time>2016-05-06T22:22:42Z</time>
      </trkpt>
      <trkpt lat="42.47794" lon="1.55096">
        <ele>2240.221</ele>
        <time>2016-05-06T22:23:02Z</time>
      </trkpt>
      <trkpt lat="42.47777" lon="1.55109">
        <ele>2246.003</ele>
        <time>2016-05-06T22:23:22Z</time>
      </trkpt>
      <trkpt lat="42.47766" lon="1.55123">
        <ele>2251.308</ele>
        <time>2016-05-06T22:23:42Z</time>
      </trkpt>
      <trkpt lat="42.4775" lon="1.55128">
        <ele>2256.862</ele>
        <time>2016-05-06T22:24:02Z</time>
      </trkpt>
      <trkpt lat="42.47731" lon="1.5514">
        <ele>2264.914</ele>
        <time>2016-05-06T22:24:22Z</time>
      </trkpt>
      <trkpt lat="42.47715" lon="1.55143">
        <ele>2270.472</ele>
        <time>2016-05-06T22:24:42Z</time>
      </trkpt>
      <trkpt lat="42.47692" lon="1.55149">
        <ele>2277.63</ele>
        <time>2016-05-06T22:25:02Z</time>
      </trkpt>
      <trkpt lat="42.47681" lon="1.55141">
        <ele>2282.158</ele>
        <time>2016-05-06T22:25:22Z</time>
      </trkpt>
      <trkpt lat="42.47662" lon="1.55145">
        <ele>2287.579</ele>
        <time>2016-05-06T22:25:42Z</time>
      </trkpt>
      <trkpt lat="42.47645" lon="1.55145">
        <ele>2292.667</ele>
        <time>2016-05-06T22:26:02Z</time>
      </trkpt>
      <trkpt lat="42.47636" lon="1.55142">
        <ele>2296.085</ele>
        <time>2016-05-06T22:26:22Z</time>
      </trkpt>
      <trkpt lat="42.47627" lon="1.55139">
        <ele>2299.849</ele>
        <time>2016-05-06T22:26:42Z</time>
      </trkpt>
      <trkpt lat="42.47618" lon="1.55136">
        <ele>2303.202</ele>
        <time>2016-05-06T22:27:02Z</time>
      </trkpt>
      <trkpt lat="42.47608" lon="1.55134">
        <ele>2307.522</ele>
        <time>2016-05-06T22:27:22Z</time>
      </trkpt>
      <trkpt lat="42.47597" lon="1.55136">
        <ele>2311.908</ele>
        <time>2016-05-06T22:27:42Z</time>
      </trkpt>
      <trkpt lat="42.47582" lon="1.5514">
        <ele>2318.275</ele>
        <time>2016-05-06T22:28:02Z</time>
      </trkpt>
      <trkpt lat="42.47569" lon="1.55144">
        <ele>2321.517</ele>
        <time>2016-05-06T22:28:22Z</time>
      </trkpt>
      <trkpt lat="42.47558" lon="1.5515">
        <ele>2324.785</ele>
        <time>2016-05-06T22:28:42Z</time>
      </trkpt>
      <trkpt lat="42.47542" lon="1.55155">
        <ele>2328.583</ele>
        <time>2016-05-06T22:29:02Z</time>
      </trkpt>
      <trkpt lat="42.47526" lon="1.55168">
        <ele>2333.341</ele>
        <time>2016-05-06T22:29:22Z</time>
      </trkpt>
      <trkpt lat="42.47514" lon="1.55179">
        <ele>2335.842</ele>
        <time>2016-05-06T22:29:42Z</time>
      </trkpt>
      <trkpt lat="42.47495" lon="1.55188">
        <ele>2338.36</ele>
        <time>2016-05-06T22:30:02Z</time>
      </trkpt>
      <trkpt lat="42.47474" lon="1.55198">
        <ele>2338.458</ele>
        <time>2016-05-06T22:30:22Z</time>
      </trkpt>
      <trkpt lat="42.47451" lon="1.55214">
        <ele>2337.215</ele>
        <time>2016-05-06T22:30:42Z</time>
      </trkpt>
      <trkpt lat="42.4743" lon="1.5523">
        <ele>2336.965</ele>
        <time>2016-05-06T22:31:02Z</time>
      </trkpt>
      <trkpt lat="42.47422" lon="1.55244">
        <ele>2336.611</ele>
        <time>2016-05-06T22:31:22Z</time>
      </trkpt>
      <trkpt lat="42.47413" lon="1.55262">
        <ele>2338.908</ele>
        <time>2016-05-06T22:31:42Z</time>
      </trkpt>
      <trkpt lat="42.47409" lon="1.55278">
        <ele>2341.362</ele>
        <time>2016-05-06T22:32:02Z</time>
      </trkpt>
      <trkpt lat="42.47412" lon="1.55292">
        <ele>2342.014</ele>
        <time>2016-05-06T22:32:22Z</time>
      </trkpt>
      <trkpt lat="42.47414" lon="1.55307">
        <ele>2343.872</ele>
        <time>2016-05-06T22:32:42Z</time>
      </trkpt>
      <trkpt lat="42.47418" lon="1.55321">
        <ele>2346.84</ele>
        <time>2016-05-06T22:33:02Z</time>
      </trkpt>
      <trkpt lat="42.4742" lon="1.55332">
        <ele>2349.728</ele>
        <time>2016-05-06T22:33:22Z</time>
      </trkpt>
      <trkpt lat="42.47429" lon="1.55344">
        <ele>2350.089</ele>
        <time>2016-05-06T22:33:42Z</time>
      </trkpt>
      <trkpt lat="42.47431" lon="1.55356">
        <ele>2353.487</ele>
        <time>2016-05-06T22:34:02Z</time>
      </trkpt>
      <trkpt lat="42.47436" lon="1.55368">
        <ele>2355.695</ele>
        <time>2016-05-06T22:34:22Z</time>
      </trkpt>
      <trkpt lat="42.4744" lon="1.55381">
        <ele>2358.543</ele>
        <time>2016-05-06T22:34:42Z</time>
      </trkpt>
      <trkpt lat="42.47443" lon="1.55397">
        <ele>2362.764</ele>
        <time>2016-05-06T22:35:02Z</time>
      </trkpt>
      <trkpt lat="42.47448" lon="1.55411">
        <ele>2365.21</ele>
        <time>2016-05-06T22:35:22Z</time>
      </trkpt>
      <trkpt lat="42.47448" lon="1.55425">
        <ele>2370.208</ele>
        <time>2016-05-06T22:35:42Z</time>
      </trkpt>
      <trkpt lat="42.47449" lon="1.55442">
        <ele>2375.865</ele>
        <time>2016-05-06T22:36:02Z</time>
      </trkpt>
      <trkpt lat="42.47448" lon="1.55456">
        <ele>2381.217</ele>
        <time>2016-05-06T22:36:22Z</time>
      </trkpt>
      <trkpt lat="42.47451" lon="1.55468">
        <ele>2384.685</ele>
        <time>2016-05-06T22:36:42Z</time>
      </trkpt>
      <trkpt lat="42.47457" lon="1.55479">
        <ele>2386.663</ele>
        <time>2016-05-06T22:37:02Z</time>
      </trkpt>
      <trkpt lat="42.47463" lon="1.55489">
        <ele>2387.191</ele>
        <time>2016-05-06T22:37:22Z</time>
      </trkpt>
      <trkpt lat="42.4746" lon="1.55505">
        <ele>2392.112</ele>
        <time>2016-05-06T22:37:42Z</time>
      </trkpt>
      <trkpt lat="42.47451" lon="1.55511">
        <ele>2397.37</ele>
        <time>2016-05-06T22:38:02Z</time>
      </trkpt>
      <trkpt lat="42.47445" lon="1.55507">
        <ele>2399.498</ele>
        <time>2016-05-06T22:38:22Z</time>
      </trkpt>
      <trkpt lat="42.47435" lon="1.55509">
        <ele>2403.757</ele>
        <time>2016-05-06T22:38:42Z</time>
      </trkpt>
      <trkpt lat="42.47437" lon="1.55514">
        <ele>2404</ele>
        <time>2016-05-06T22:39:02Z</time>
      </trkpt>
      <trkpt lat="42.47438" lon="1.55519">
        <ele>2404.62</ele>
        <time>2016-05-06T22:39:22Z</time>
      </trkpt>
      <trkpt lat="42.47436" lon="1.55524">
        <ele>2406.908</ele>
        <time>2016-05-06T22:39:42Z</time>
      </trkpt>
      <trkpt lat="42.47434" lon="1.55529">
        <ele>2408.616</ele>
        <time>2016-05-06T22:40:02Z</time>
      </trkpt>
      <trkpt lat="42.4743" lon="1.5553">
        <ele>2410.438</ele>
        <time>2016-05-06T22:40:22Z</time>
      </trkpt>
      <trkpt lat="42.47425" lon="1.55532">
        <ele>2413.236</ele>
        <time>2016-05-06T22:40:42Z</time>
      </trkpt>
      <trkpt lat="42.47421" lon="1.55538">
        <ele>2415.634</ele>
        <time>2016-05-06T22:41:02Z</time>
      </trkpt>
      <trkpt lat="42.47418" lon="1.55544">
        <ele>2418.542</ele>
        <time>2016-05-06T22:41:22Z</time>
      </trkpt>
      <trkpt lat="42.47414" lon="1.5555">
        <ele>2421.413</ele>
        <time>2016-05-06T22:41:42Z</time>
      </trkpt>
      <trkpt lat="42.47408" lon="1.55549">
        <ele>2424.081</ele>
        <time>2016-05-06T22:42:02Z</time>
      </trkpt>
      <trkpt lat="42.47403" lon="1.55547">
        <ele>2425.599</ele>
        <time>2016-05-06T22:42:22Z</time>
      </trkpt>
      <trkpt lat="42.47399" lon="1.55545">
        <ele>2427.194</ele>
        <time>2016-05-06T22:42:42Z</time>
      </trkpt>
      <trkpt lat="42.47393" lon="1.55545">
        <ele>2429.357</ele>
        <time>2016-05-06T22:43:02Z</time>
      </trkpt>
      <trkpt lat="42.47388" lon="1.55542">
        <ele>2431.222</ele>
        <time>2016-05-06T22:43:22Z</time>
      </trkpt>
      <trkpt lat="42.47381" lon="1.55542">
        <ele>2434.308</ele>
        <time>2016-05-06T22:43:42Z</time>
      </trkpt>
      <trkpt lat="42.47377" lon="1.55548">
        <ele>2437.74</ele>
        <time>2016-05-06T22:44:02Z</time>
      </trkpt>
      <trkpt lat="42.47374" lon="1.55555">
        <ele>2440.342</ele>
        <time>2016-05-06T22:44:22Z</time>
      </trkpt>
      <trkpt lat="42.47369" lon="1.55562">
        <ele>2443.79</ele>
        <time>2016-05-06T22:44:42Z</time>
      </trkpt>
      <trkpt lat="42.47363" lon="1.55564">
        <ele>2446.618</ele>
        <time>2016-05-06T22:45:02Z</time>
      </trkpt>
      <trkpt lat="42.47359" lon="1.55564">
        <ele>2448.636</ele>
        <time>2016-05-06T22:45:22Z</time>
      </trkpt>
      <trkpt lat="42.47354" lon="1.55564">
        <ele>2451.067</ele>
        <time>2016-05-06T22:45:42Z</time>
      </trkpt>
      <trkpt lat="42.4735" lon="1.55564">
        <ele>2452.795</ele>
        <time>2016-05-06T22:46:02Z</time>
      </trkpt>
      <trkpt lat="42.47347" lon="1.55566">
        <ele>2454.853</ele>
        <time>2016-05-06T22:46:22Z</time>
      </trkpt>
      <trkpt lat="42.47342" lon="1.55567">
        <ele>2457.035</ele>
        <time>2016-05-06T22:46:42Z</time>
      </trkpt>
      <trkpt lat="42.47338" lon="1.55569">
        <ele>2459.386</ele>
        <time>2016-05-06T22:47:02Z</time>
      </trkpt>
      <trkpt lat="42.47334" lon="1.55568">
        <ele>2461.214</ele>
        <time>2016-05-06T22:47:22Z</time>
      </trkpt>
      <trkpt lat="42.47331" lon="1.55566">
        <ele>2462.108</ele>
        <time>2016-05-06T22:47:42Z</time>
      </trkpt>
      <trkpt lat="42.47326" lon="1.55568">
        <ele>2463.944</ele>
        <time>2016-05-06T22:48:02Z</time>
      </trkpt>
      <trkpt lat="42.47323" lon="1.55574">
        <ele>2465.736</ele>
        <time>2016-05-06T22:48:22Z</time>
      </trkpt>
      <trkpt lat="42.47319" lon="1.55579">
        <ele>2467.684</ele>
        <time>2016-05-06T22:48:42Z</time>
      </trkpt>
      <trkpt lat="42.47314" lon="1.55584">
        <ele>2470.262</ele>
        <time>2016-05-06T22:49:02Z</time>
      </trkpt>
      <trkpt lat="42.47307" lon="1.55593">
        <ele>2474.13</ele>
        <time>2016-05-06T22:49:22Z</time>
      </trkpt>
      <trkpt lat="42.47301" lon="1.556">
        <ele>2477.481</ele>
        <time>2016-05-06T22:49:42Z</time>
      </trkpt>
      <trkpt lat="42.47296" lon="1.55608">
        <ele>2480.559</ele>
        <time>2016-05-06T22:50:02Z</time>
      </trkpt>
      <trkpt lat="42.4729" lon="1.55617">
        <ele>2484.067</ele>
        <time>2016-05-06T22:50:22Z</time>
      </trkpt>
      <trkpt lat="42.47277" lon="1.55631">
        <ele>2488.253</ele>
        <time>2016-05-06T22:50:42Z</time>
      </trkpt>
      <trkpt lat="42.47271" lon="1.55646">
        <ele>2485.104</ele>
        <time>2016-05-06T22:51:02Z</time>
      </trkpt>
      <trkpt lat="42.47259" lon="1.5566">
        <ele>2476.814</ele>
        <time>2016-05-06T22:51:22Z</time>
      </trkpt>
      <trkpt lat="42.47249" lon="1.55658">
        <ele>2472.608</ele>
        <time>2016-05-06T22:51:42Z</time>
      </trkpt>
      <trkpt lat="42.47236" lon="1.55649">
        <ele>2468.066</ele>
        <time>2016-05-06T22:52:02Z</time>
      </trkpt>
      <trkpt lat="42.47225" lon="1.55648">
        <ele>2462.848</ele>
        <time>2016-05-06T22:52:22Z</time>
      </trkpt>
      <trkpt lat="42.47218" lon="1.55648">
        <ele>2459.576</ele>
        <time>2016-05-06T22:52:42Z</time>
      </trkpt>
      <trkpt lat="42.47205" lon="1.55647">
        <ele>2453.424</ele>
        <time>2016-05-06T22:53:02Z</time>
      </trkpt>
      <trkpt lat="42.47192" lon="1.55637">
        <ele>2450.522</ele>
        <time>2016-05-06T22:53:22Z</time>
      </trkpt>
      <trkpt lat="42.47173" lon="1.55631">
        <ele>2444.733</ele>
        <time>2016-05-06T22:53:42Z</time>
      </trkpt>
      <trkpt lat="42.47171" lon="1.55661">
        <ele>2431.831</ele>
        <time>2016-05-06T22:54:02Z</time>
      </trkpt>
      <trkpt lat="42.47171" lon="1.55689">
        <ele>2424.139</ele>
        <time>2016-05-06T22:54:22Z</time>
      </trkpt>
      <trkpt lat="42.47178" lon="1.5571">
        <ele>2423.013</ele>
        <time>2016-05-06T22:54:42Z</time>
      </trkpt>
      <trkpt lat="42.47173" lon="1.55726">
        <ele>2417.243</ele>
        <time>2016-05-06T22:55:02Z</time>
      </trkpt>
      <trkpt lat="42.47165" lon="1.55763">
        <ele>2407.307</ele>
        <time>2016-05-06T22:55:22Z</time>
      </trkpt>
      <trkpt lat="42.47161" lon="1.55792">
        <ele>2402.908</ele>
        <time>2016-05-06T22:55:42Z</time>
      </trkpt>
      <trkpt lat="42.47155" lon="1.55808">
        <ele>2400.022</ele>
        <time>2016-05-06T22:56:02Z</time>
      </trkpt>
      <trkpt lat="42.47148" lon="1.55835">
        <ele>2396.934</ele>
        <time>2016-05-06T22:56:22Z</time>
      </trkpt>
      <trkpt lat="42.47139" lon="1.55864">
        <ele>2392.742</ele>
        <time>2016-05-06T22:56:42Z</time>
      </trkpt>
      <trkpt lat="42.47135" lon="1.55892">
        <ele>2389.21</ele>
        <time>2016-05-06T22:57:02Z</time>
      </trkpt>
      <trkpt lat="42.47131" lon="1.5592">
        <ele>2383.178</ele>
        <time>2016-05-06T22:57:22Z</time>
      </trkpt>
      <trkpt lat="42.47131" lon="1.55942">
        <ele>2378.899</ele>
        <time>2016-05-06T22:57:42Z</time>
      </trkpt>
      <trkpt lat="42.47131" lon="1.55966">
        <ele>2374.617</ele>
        <time>2016-05-06T22:58:02Z</time>
      </trkpt>
      <trkpt lat="42.47131" lon="1.55985">
        <ele>2370.915</ele>
        <time>2016-05-06T22:58:22Z</time>
      </trkpt>
      <trkpt lat="42.47126" lon="1.55999">
        <ele>2366.787</ele>
        <time>2016-05-06T22:58:42Z</time>
      </trkpt>
      <trkpt lat="42.47121" lon="1.56012">
        <ele>2361.242</ele>
        <time>2016-05-06T22:59:02Z</time>
      </trkpt>
      <trkpt lat="42.47114" lon="1.5603">
        <ele>2353.726</ele>
        <time>2016-05-06T22:59:22Z</time>
      </trkpt>
      <trkpt lat="42.47116" lon="1.56045">
        <ele>2350.308</ele>
        <time>2016-05-06T22:59:42Z</time>
      </trkpt>
      <trkpt lat="42.47112" lon="1.56078">
        <ele>2340.659</ele>
        <time>2016-05-06T23:00:02Z</time>
      </trkpt>
      <trkpt lat="42.47106" lon="1.56097">
        <ele>2334.781</ele>
        <time>2016-05-06T23:00:22Z</time>
      </trkpt>
      <trkpt lat="42.47095" lon="1.56121">
        <ele>2326.169</ele>
        <time>2016-05-06T23:00:42Z</time>
      </trkpt>
      <trkpt lat="42.47086" lon="1.56139">
        <ele>2319.767</ele>
        <time>2016-05-06T23:01:02Z</time>
      </trkpt>
      <trkpt lat="42.47077" lon="1.56156">
        <ele>2314.355</ele>
        <time>2016-05-06T23:01:22Z</time>
      </trkpt>
      <trkpt lat="42.47065" lon="1.56169">
        <ele>2309.146</ele>
        <time>2016-05-06T23:01:42Z</time>
      </trkpt>
      <trkpt lat="42.47051" lon="1.56202">
        <ele>2299.444</ele>
        <time>2016-05-06T23:02:02Z</time>
      </trkpt>
      <trkpt lat="42.47041" lon="1.5622">
        <ele>2295.312</ele>
        <time>2016-05-06T23:02:22Z</time>
      </trkpt>
      <trkpt lat="42.47016" lon="1.56303">
        <ele>2287.053</ele>
        <time>2016-05-06T23:02:42Z</time>
      </trkpt>
      <trkpt lat="42.47013" lon="1.56323">
        <ele>2285.004</ele>
        <time>2016-05-06T23:03:02Z</time>
      </trkpt>
      <trkpt lat="42.47008" lon="1.56354">
        <ele>2282.014</ele>
        <time>2016-05-06T23:03:22Z</time>
      </trkpt>
      <trkpt lat="42.47001" lon="1.5637">
        <ele>2281.308</ele>
        <time>2016-05-06T23:03:42Z</time>
      </trkpt>
      <trkpt lat="42.47" lon="1.56397">
        <ele>2278.246</ele>
        <time>2016-05-06T23:04:02Z</time>
      </trkpt>
      <trkpt lat="42.46994" lon="1.56418">
        <ele>2272.888</ele>
        <time>2016-05-06T23:04:22Z</time>
      </trkpt>
      <trkpt lat="42.46987" lon="1.56441">
        <ele>2265.736</ele>
        <time>2016-05-06T23:04:42Z</time>
      </trkpt>
      <trkpt lat="42.4698" lon="1.56462">
        <ele>2257.914</ele>
        <time>2016-05-06T23:05:02Z</time>
      </trkpt>
      <trkpt lat="42.46968" lon="1.56489">
        <ele>2249.052</ele>
        <time>2016-05-06T23:05:22Z</time>
      </trkpt>
      <trkpt lat="42.46962" lon="1.5651">
        <ele>2244.543</ele>
        <time>2016-05-06T23:05:42Z</time>
      </trkpt>
      <trkpt lat="42.46957" lon="1.56541">
        <ele>2239.951</ele>
        <time>2016-05-06T23:06:02Z</time>
      </trkpt>
      <trkpt lat="42.46941" lon="1.56561">
        <ele>2237.559</ele>
        <time>2016-05-06T23:06:22Z</time>
      </trkpt>
      <trkpt lat="42.46931" lon="1.56585">
        <ele>2235.454</ele>
        <time>2016-05-06T23:06:42Z</time>
      </trkpt>
      <trkpt lat="42.46916" lon="1.56603">
        <ele>2233.556</ele>
        <time>2016-05-06T23:07:02Z</time>
      </trkpt>
      <trkpt lat="42.46901" lon="1.56628">
        <ele>2229.511</ele>
        <time>2016-05-06T23:07:22Z</time>
      </trkpt>
      <trkpt lat="42.46893" lon="1.56649">
        <ele>2226.408</ele>
        <time>2016-05-06T23:07:42Z</time>
      </trkpt>
      <trkpt lat="42.46879" lon="1.56669">
        <ele>2223.126</ele>
        <time>2016-05-06T23:08:02Z</time>
      </trkpt>
      <trkpt lat="42.46869" lon="1.56686">
        <ele>2220.458</ele>
        <time>2016-05-06T23:08:22Z</time>
      </trkpt>
      <trkpt lat="42.46855" lon="1.56707">
        <ele>2218.136</ele>
        <time>2016-05-06T23:08:42Z</time>
      </trkpt>
      <trkpt lat="42.46845" lon="1.56728">
        <ele>2217.574</ele>
        <time>2016-05-06T23:09:02Z</time>
      </trkpt>
      <trkpt lat="42.46841" lon="1.56753">
        <ele>2216.852</ele>
        <time>2016-05-06T23:09:22Z</time>
      </trkpt>
      <trkpt lat="42.46845" lon="1.56778">
        <ele>2215.323</ele>
        <time>2016-05-06T23:09:42Z</time>
      </trkpt>
      <trkpt lat="42.46856" lon="1.56799">
        <ele>2211.521</ele>
        <time>2016-05-06T23:10:02Z</time>
      </trkpt>
      <trkpt lat="42.46866" lon="1.56831">
        <ele>2205.559</ele>
        <time>2016-05-06T23:10:22Z</time>
      </trkpt>
      <trkpt lat="42.46869" lon="1.56863">
        <ele>2201.132</ele>
        <time>2016-05-06T23:10:42Z</time>
      </trkpt>
      <trkpt lat="42.46875" lon="1.56892">
        <ele>2197.992</ele>
        <time>2016-05-06T23:11:02Z</time>
      </trkpt>
      <trkpt lat="42.46887" lon="1.56914">
        <ele>2196.611</ele>
        <time>2016-05-06T23:11:22Z</time>
      </trkpt>
      <trkpt lat="42.46898" lon="1.56937">
        <ele>2196.808</ele>
        <time>2016-05-06T23:11:42Z</time>
      </trkpt>
      <trkpt lat="42.46913" lon="1.56962">
        <ele>2196.174</ele>
        <time>2016-05-06T23:12:02Z</time>
      </trkpt>
      <trkpt lat="42.46923" lon="1.56985">
        <ele>2196.296</ele>
        <time>2016-05-06T23:12:22Z</time>
      </trkpt>
      <trkpt lat="42.46923" lon="1.57007">
        <ele>2198.134</ele>
        <time>2016-05-06T23:12:42Z</time>
      </trkpt>
      <trkpt lat="42.46922" lon="1.57028">
        <ele>2198.272</ele>
        <time>2016-05-06T23:13:02Z</time>
      </trkpt>
      <trkpt lat="42.46945" lon="1.57041">
        <ele>2195.97</ele>
        <time>2016-05-06T23:13:22Z</time>
      </trkpt>
      <trkpt lat="42.46965" lon="1.57055">
        <ele>2193.951</ele>
        <time>2016-05-06T23:13:42Z</time>
      </trkpt>
      <trkpt lat="42.4698" lon="1.57066">
        <ele>2193.549</ele>
        <time>2016-05-06T23:14:02Z</time>
      </trkpt>
      <trkpt lat="42.46998" lon="1.57077">
        <ele>2193.487</ele>
        <time>2016-05-06T23:14:22Z</time>
      </trkpt>
      <trkpt lat="42.47019" lon="1.57087">
        <ele>2194.642</ele>
        <time>2016-05-06T23:14:42Z</time>
      </trkpt>
      <trkpt lat="42.47047" lon="1.57101">
        <ele>2198.222</ele>
        <time>2016-05-06T23:15:02Z</time>
      </trkpt>
      <trkpt lat="42.47081" lon="1.57109">
        <ele>2202.314</ele>
        <time>2016-05-06T23:15:22Z</time>
      </trkpt>
      <trkpt lat="42.47104" lon="1.57111">
        <ele>2205.908</ele>
        <time>2016-05-06T23:15:42Z</time>
      </trkpt>
      <trkpt lat="42.47134" lon="1.57117">
        <ele>2212.475</ele>
        <time>2016-05-06T23:16:02Z</time>
      </trkpt>
      <trkpt lat="42.47153" lon="1.57141">
        <ele>2219.347</ele>
        <time>2016-05-06T23:16:22Z</time>
      </trkpt>
      <trkpt lat="42.47152" lon="1.57175">
        <ele>2223.345</ele>
        <time>2016-05-06T23:16:42Z</time>
      </trkpt>
      <trkpt lat="42.4717" lon="1.57203">
        <ele>2224.213</ele>
        <time>2016-05-06T23:17:02Z</time>
      </trkpt>
      <trkpt lat="42.4718" lon="1.57225">
        <ele>2225.691</ele>
        <time>2016-05-06T23:17:22Z</time>
      </trkpt>
      <trkpt lat="42.47197" lon="1.57247">
        <ele>2227.862</ele>
        <time>2016-05-06T23:17:42Z</time>
      </trkpt>
      <trkpt lat="42.47218" lon="1.57269">
        <ele>2231.68</ele>
        <time>2016-05-06T23:18:02Z</time>
      </trkpt>
      <trkpt lat="42.47239" lon="1.57287">
        <ele>2231.818</ele>
        <time>2016-05-06T23:18:22Z</time>
      </trkpt>
      <trkpt lat="42.47256" lon="1.57305">
        <ele>2231.763</ele>
        <time>2016-05-06T23:18:42Z</time>
      </trkpt>
      <trkpt lat="42.47291" lon="1.57327">
        <ele>2227.144</ele>
        <time>2016-05-06T23:19:02Z</time>
      </trkpt>
      <trkpt lat="42.47299" lon="1.57337">
        <ele>2228.918</ele>
        <time>2016-05-06T23:19:22Z</time>
      </trkpt>
      <trkpt lat="42.47315" lon="1.57345">
        <ele>2229.608</ele>
        <time>2016-05-06T23:19:42Z</time>
      </trkpt>
      <trkpt lat="42.47329" lon="1.57353">
        <ele>2231.157</ele>
        <time>2016-05-06T23:20:02Z</time>
      </trkpt>
      <trkpt lat="42.47346" lon="1.57353">
        <ele>2228.179</ele>
        <time>2016-05-06T23:20:22Z</time>
      </trkpt>
      <trkpt lat="42.47364" lon="1.57356">
        <ele>2227.287</ele>
        <time>2016-05-06T23:20:42Z</time>
      </trkpt>
      <trkpt lat="42.47381" lon="1.57362">
        <ele>2228.445</ele>
        <time>2016-05-06T23:21:02Z</time>
      </trkpt>
      <trkpt lat="42.47406" lon="1.57362">
        <ele>2226.943</ele>
        <time>2016-05-06T23:21:22Z</time>
      </trkpt>
      <trkpt lat="42.4742" lon="1.57366">
        <ele>2228.434</ele>
        <time>2016-05-06T23:21:42Z</time>
      </trkpt>
      <trkpt lat="42.47436" lon="1.5737">
        <ele>2230.312</ele>
        <time>2016-05-06T23:22:02Z</time>
      </trkpt>
      <trkpt lat="42.47449" lon="1.57378">
        <ele>2233.11</ele>
        <time>2016-05-06T23:22:22Z</time>
      </trkpt>
      <trkpt lat="42.47467" lon="1.57387">
        <ele>2233.956</ele>
        <time>2016-05-06T23:22:42Z</time>
      </trkpt>
      <trkpt lat="42.47476" lon="1.574">
        <ele>2236.159</ele>
        <time>2016-05-06T23:23:02Z</time>
      </trkpt>
      <trkpt lat="42.4749" lon="1.57411">
        <ele>2236.414</ele>
        <time>2016-05-06T23:23:22Z</time>
      </trkpt>
      <trkpt lat="42.47495" lon="1.57429">
        <ele>2237.808</ele>
        <time>2016-05-06T23:23:42Z</time>
      </trkpt>
      <trkpt lat="42.47504" lon="1.57438">
        <ele>2237.286</ele>
        <time>2016-05-06T23:24:02Z</time>
      </trkpt>
      <trkpt lat="42.4751" lon="1.5745">
        <ele>2237.138</ele>
        <time>2016-05-06T23:24:22Z</time>
      </trkpt>
      <trkpt lat="42.47527" lon="1.57462">
        <ele>2235.476</ele>
        <time>2016-05-06T23:24:42Z</time>
      </trkpt>
      <trkpt lat="42.4754" lon="1.57463">
        <ele>2234.984</ele>
        <time>2016-05-06T23:25:02Z</time>
      </trkpt>
      <trkpt lat="42.47551" lon="1.57456">
        <ele>2234.162</ele>
        <time>2016-05-06T23:25:22Z</time>
      </trkpt>
      <trkpt lat="42.47559" lon="1.57446">
        <ele>2232.763</ele>
        <time>2016-05-06T23:25:42Z</time>
      </trkpt>
      <trkpt lat="42.47579" lon="1.57437">
        <ele>2228.391</ele>
        <time>2016-05-06T23:26:02Z</time>
      </trkpt>
      <trkpt lat="42.47584" lon="1.5743">
        <ele>2226.469</ele>
        <time>2016-05-06T23:26:22Z</time>
      </trkpt>
      <trkpt lat="42.47588" lon="1.57429">
        <ele>2225.754</ele>
        <time>2016-05-06T23:26:42Z</time>
      </trkpt>
      <trkpt lat="42.47596" lon="1.57418">
        <ele>2222.056</ele>
        <time>2016-05-06T23:27:02Z</time>
      </trkpt>
      <trkpt lat="42.47602" lon="1.57412">
        <ele>2219.311</ele>
        <time>2016-05-06T23:27:22Z</time>
      </trkpt>
      <trkpt lat="42.47612" lon="1.57397">
        <ele>2213.208</ele>
        <time>2016-05-06T23:27:42Z</time>
      </trkpt>
      <trkpt lat="42.47618" lon="1.57387">
        <ele>2209.126</ele>
        <time>2016-05-06T23:28:02Z</time>
      </trkpt>
      <trkpt lat="42.47627" lon="1.57376">
        <ele>2205.348</ele>
        <time>2016-05-06T23:28:22Z</time>
      </trkpt>
      <trkpt lat="42.47636" lon="1.57367">
        <ele>2202.386</ele>
        <time>2016-05-06T23:28:42Z</time>
      </trkpt>
      <trkpt lat="42.4764" lon="1.57367">
        <ele>2201.724</ele>
        <time>2016-05-06T23:29:02Z</time>
      </trkpt>
      <trkpt lat="42.4765" lon="1.57368">
        <ele>2200.832</ele>
        <time>2016-05-06T23:29:22Z</time>
      </trkpt>
      <trkpt lat="42.47659" lon="1.57368">
        <ele>2199.863</ele>
        <time>2016-05-06T23:29:42Z</time>
      </trkpt>
      <trkpt lat="42.47667" lon="1.57367">
        <ele>2198.911</ele>
        <time>2016-05-06T23:30:02Z</time>
      </trkpt>
      <trkpt lat="42.47672" lon="1.57368">
        <ele>2198.619</ele>
        <time>2016-05-06T23:30:22Z</time>
      </trkpt>
      <trkpt lat="42.47678" lon="1.57371">
        <ele>2198.544</ele>
        <time>2016-05-06T23:30:42Z</time>
      </trkpt>
      <trkpt lat="42.47684" lon="1.57374">
        <ele>2198.305</ele>
        <time>2016-05-06T23:31:02Z</time>
      </trkpt>
      <trkpt lat="42.47692" lon="1.57372">
        <ele>2197.315</ele>
        <time>2016-05-06T23:31:22Z</time>
      </trkpt>
      <trkpt lat="42.47703" lon="1.57366">
        <ele>2195.708</ele>
        <time>2016-05-06T23:31:42Z</time>
      </trkpt>
      <trkpt lat="42.47711" lon="1.57369">
        <ele>2195.565</ele>
        <time>2016-05-06T23:32:02Z</time>
      </trkpt>
      <trkpt lat="42.47718" lon="1.57372">
        <ele>2195.287</ele>
        <time>2016-05-06T23:32:22Z</time>
      </trkpt>
      <trkpt lat="42.47726" lon="1.57372">
        <ele>2194.055</ele>
        <time>2016-05-06T23:32:42Z</time>
      </trkpt>
      <trkpt lat="42.47729" lon="1.5738">
        <ele>2194.533</ele>
        <time>2016-05-06T23:33:02Z</time>
      </trkpt>
      <trkpt lat="42.47734" lon="1.57391">
        <ele>2194.961</ele>
        <time>2016-05-06T23:33:22Z</time>
      </trkpt>
      <trkpt lat="42.47737" lon="1.57401">
        <ele>2194.962</ele>
        <time>2016-05-06T23:33:42Z</time>
      </trkpt>
      <trkpt lat="42.47737" lon="1.57411">
        <ele>2195.68</ele>
        <time>2016-05-06T23:34:02Z</time>
      </trkpt>
      <trkpt lat="42.4774" lon="1.57425">
        <ele>2195.128</ele>
        <time>2016-05-06T23:34:22Z</time>
      </trkpt>
      <trkpt lat="42.47742" lon="1.57435">
        <ele>2193.986</ele>
        <time>2016-05-06T23:34:42Z</time>
      </trkpt>
      <trkpt lat="42.47745" lon="1.57449">
        <ele>2192.16</ele>
        <time>2016-05-06T23:35:02Z</time>
      </trkpt>
      <trkpt lat="42.47748" lon="1.57461">
        <ele>2190.426</ele>
        <time>2016-05-06T23:35:22Z</time>
      </trkpt>
      <trkpt lat="42.4775" lon="1.57473">
        <ele>2188.908</ele>
        <time>2016-05-06T23:35:42Z</time>
      </trkpt>
      <trkpt lat="42.47752" lon="1.5749">
        <ele>2186.679</ele>
        <time>2016-05-06T23:36:02Z</time>
      </trkpt>
      <trkpt lat="42.47756" lon="1.57502">
        <ele>2184.561</ele>
        <time>2016-05-06T23:36:22Z</time>
      </trkpt>
      <trkpt lat="42.47759" lon="1.57513">
        <ele>2183.049</ele>
        <time>2016-05-06T23:36:42Z</time>
      </trkpt>
      <trkpt lat="42.47762" lon="1.57528">
        <ele>2181.347</ele>
        <time>2016-05-06T23:37:02Z</time>
      </trkpt>
      <trkpt lat="42.47764" lon="1.57542">
        <ele>2180.275</ele>
        <time>2016-05-06T23:37:22Z</time>
      </trkpt>
      <trkpt lat="42.47766" lon="1.57553">
        <ele>2179.446</ele>
        <time>2016-05-06T23:37:42Z</time>
      </trkpt>
      <trkpt lat="42.4777" lon="1.57572">
        <ele>2179.164</ele>
        <time>2016-05-06T23:38:02Z</time>
      </trkpt>
      <trkpt lat="42.47778" lon="1.57587">
        <ele>2178.092</ele>
        <time>2016-05-06T23:38:22Z</time>
      </trkpt>
      <trkpt lat="42.47787" lon="1.57609">
        <ele>2177.032</ele>
        <time>2016-05-06T23:38:42Z</time>
      </trkpt>
      <trkpt lat="42.47792" lon="1.57619">
        <ele>2176.892</ele>
        <time>2016-05-06T23:39:02Z</time>
      </trkpt>
      <trkpt lat="42.47798" lon="1.57634">
        <ele>2177.211</ele>
        <time>2016-05-06T23:39:22Z</time>
      </trkpt>
      <trkpt lat="42.47795" lon="1.57644">
        <ele>2178.108</ele>
        <time>2016-05-06T23:39:42Z</time>
      </trkpt>
      <trkpt lat="42.47794" lon="1.57657">
        <ele>2178.774</ele>
        <time>2016-05-06T23:40:02Z</time>
      </trkpt>
      <trkpt lat="42.47796" lon="1.57668">
        <ele>2179.226</ele>
        <time>2016-05-06T23:40:22Z</time>
      </trkpt>
      <trkpt lat="42.47799" lon="1.57679">
        <ele>2179.784</ele>
        <time>2016-05-06T23:40:42Z</time>
      </trkpt>
      <trkpt lat="42.47805" lon="1.57692">
        <ele>2179.962</ele>
        <time>2016-05-06T23:41:02Z</time>
      </trkpt>
      <trkpt lat="42.47812" lon="1.57701">
        <ele>2180.06</ele>
        <time>2016-05-06T23:41:22Z</time>
      </trkpt>
      <trkpt lat="42.47821" lon="1.57708">
        <ele>2180.161</ele>
        <time>2016-05-06T23:41:42Z</time>
      </trkpt>
      <trkpt lat="42.4783" lon="1.57718">
        <ele>2180.639</ele>
        <time>2016-05-06T23:42:02Z</time>
      </trkpt>
      <trkpt lat="42.47837" lon="1.57728">
        <ele>2181.667</ele>
        <time>2016-05-06T23:42:22Z</time>
      </trkpt>
      <trkpt lat="42.47845" lon="1.57737">
        <ele>2182.324</ele>
        <time>2016-05-06T23:42:42Z</time>
      </trkpt>
      <trkpt lat="42.47849" lon="1.57745">
        <ele>2183.204</ele>
        <time>2016-05-06T23:43:02Z</time>
      </trkpt>
      <trkpt lat="42.47856" lon="1.57757">
        <ele>2184.614</ele>
        <time>2016-05-06T23:43:22Z</time>
      </trkpt>
      <trkpt lat="42.47863" lon="1.57761">
        <ele>2185.008</ele>
        <time>2016-05-06T23:43:42Z</time>
      </trkpt>
      <trkpt lat="42.47868" lon="1.57758">
        <ele>2185.023</ele>
        <time>2016-05-06T23:44:02Z</time>
      </trkpt>
      <trkpt lat="42.47877" lon="1.57767">
        <ele>2186.975</ele>
        <time>2016-05-06T23:44:22Z</time>
      </trkpt>
      <trkpt lat="42.47883" lon="1.57775">
        <ele>2188.333</ele>
        <time>2016-05-06T23:44:42Z</time>
      </trkpt>
      <trkpt lat="42.4789" lon="1.57782">
        <ele>2189.831</ele>
        <time>2016-05-06T23:45:02Z</time>
      </trkpt>
      <trkpt lat="42.47897" lon="1.57789">
        <ele>2190.859</ele>
        <time>2016-05-06T23:45:22Z</time>
      </trkpt>
      <trkpt lat="42.47903" lon="1.57793">
        <ele>2191.16</ele>
        <time>2016-05-06T23:45:42Z</time>
      </trkpt>
      <trkpt lat="42.47911" lon="1.57799">
        <ele>2191.618</ele>
        <time>2016-05-06T23:46:02Z</time>
      </trkpt>
      <trkpt lat="42.47919" lon="1.57806">
        <ele>2192.096</ele>
        <time>2016-05-06T23:46:22Z</time>
      </trkpt>
      <trkpt lat="42.47927" lon="1.5781">
        <ele>2192.467</ele>
        <time>2016-05-06T23:46:42Z</time>
      </trkpt>
      <trkpt lat="42.47933" lon="1.57815">
        <ele>2193.081</ele>
        <time>2016-05-06T23:47:02Z</time>
      </trkpt>
      <trkpt lat="42.47941" lon="1.57818">
        <ele>2193.419</ele>
        <time>2016-05-06T23:47:22Z</time>
      </trkpt>
      <trkpt lat="42.47947" lon="1.57822">
        <ele>2194.408</ele>
        <time>2016-05-06T23:47:42Z</time>
      </trkpt>
      <trkpt lat="42.47953" lon="1.57823">
        <ele>2195.637</ele>
        <time>2016-05-06T23:48:02Z</time>
      </trkpt>
      <trkpt lat="42.47956" lon="1.57824">
        <ele>2196.369</ele>
        <time>2016-05-06T23:48:22Z</time>
      </trkpt>
      <trkpt lat="42.47964" lon="1.57826">
        <ele>2197.917</ele>
        <time>2016-05-06T23:48:42Z</time>
      </trkpt>
      <trkpt lat="42.47964" lon="1.5784">
        <ele>2199.175</ele>
        <time>2016-05-06T23:49:02Z</time>
      </trkpt>
      <trkpt lat="42.47964" lon="1.57858">
        <ele>2200.943</ele>
        <time>2016-05-06T23:49:22Z</time>
      </trkpt>
      <trkpt lat="42.47969" lon="1.5787">
        <ele>2203.754</ele>
        <time>2016-05-06T23:49:42Z</time>
      </trkpt>
      <trkpt lat="42.47976" lon="1.57875">
        <ele>2206.082</ele>
        <time>2016-05-06T23:50:02Z</time>
      </trkpt>
      <trkpt lat="42.47978" lon="1.579">
        <ele>2210.32</ele>
        <time>2016-05-06T23:50:22Z</time>
      </trkpt>
      <trkpt lat="42.47978" lon="1.57917">
        <ele>2212.661</ele>
        <time>2016-05-06T23:50:42Z</time>
      </trkpt>
      <trkpt lat="42.47979" lon="1.5794">
        <ele>2216.421</ele>
        <time>2016-05-06T23:51:02Z</time>
      </trkpt>
      <trkpt lat="42.47979" lon="1.57953">
        <ele>2218.013</ele>
        <time>2016-05-06T23:51:22Z</time>
      </trkpt>
      <trkpt lat="42.4798" lon="1.57962">
        <ele>2219.308</ele>
        <time>2016-05-06T23:51:42Z</time>
      </trkpt>
      <trkpt lat="42.4798" lon="1.57982">
        <ele>2221.987</ele>
        <time>2016-05-06T23:52:02Z</time>
      </trkpt>
      <trkpt lat="42.47982" lon="1.57995">
        <ele>2224.149</ele>
        <time>2016-05-06T23:52:22Z</time>
      </trkpt>
      <trkpt lat="42.47989" lon="1.58011">
        <ele>2228.127</ele>
        <time>2016-05-06T23:52:42Z</time>
      </trkpt>
      <trkpt lat="42.47993" lon="1.58017">
        <ele>2230.025</ele>
        <time>2016-05-06T23:53:02Z</time>
      </trkpt>
      <trkpt lat="42.47998" lon="1.5802">
        <ele>2231.693</ele>
        <time>2016-05-06T23:53:22Z</time>
      </trkpt>
      <trkpt lat="42.48003" lon="1.58035">
        <ele>2235.684</ele>
        <time>2016-05-06T23:53:42Z</time>
      </trkpt>
      <trkpt lat="42.48008" lon="1.58048">
        <ele>2239.642</ele>
        <time>2016-05-06T23:54:02Z</time>
      </trkpt>
      <trkpt lat="42.48011" lon="1.58062">
        <ele>2243.54</ele>
        <time>2016-05-06T23:54:22Z</time>
      </trkpt>
      <trkpt lat="42.4801" lon="1.58069">
        <ele>2245.595</ele>
        <time>2016-05-06T23:54:42Z</time>
      </trkpt>
      <trkpt lat="42.48008" lon="1.58079">
        <ele>2247.749</ele>
        <time>2016-05-06T23:55:02Z</time>
      </trkpt>
      <trkpt lat="42.48008" lon="1.58088">
        <ele>2250.623</ele>
        <time>2016-05-06T23:55:22Z</time>
      </trkpt>
      <trkpt lat="42.48008" lon="1.58101">
        <ele>2255.208</ele>
        <time>2016-05-06T23:55:42Z</time>
      </trkpt>
      <trkpt lat="42.48017" lon="1.58115">
        <ele>2261.92</ele>
        <time>2016-05-06T23:56:02Z</time>
      </trkpt>
      <trkpt lat="42.48024" lon="1.58118">
        <ele>2264.092</ele>
        <time>2016-05-06T23:56:22Z</time>
      </trkpt>
      <trkpt lat="42.48033" lon="1.58119">
        <ele>2265.97</ele>
        <time>2016-05-06T23:56:42Z</time>
      </trkpt>
      <trkpt lat="42.4804" lon="1.58117">
        <ele>2266.668</ele>
        <time>2016-05-06T23:57:02Z</time>
      </trkpt>
      <trkpt lat="42.48045" lon="1.58121">
        <ele>2268.116</ele>
        <time>2016-05-06T23:57:22Z</time>
      </trkpt>
      <trkpt lat="42.48045" lon="1.58128">
        <ele>2269.657</ele>
        <time>2016-05-06T23:57:42Z</time>
      </trkpt>
      <trkpt lat="42.48045" lon="1.58139">
        <ele>2271.915</ele>
        <time>2016-05-06T23:58:02Z</time>
      </trkpt>
      <trkpt lat="42.48044" lon="1.58149">
        <ele>2273.313</ele>
        <time>2016-05-06T23:58:22Z</time>
      </trkpt>
      <trkpt lat="42.48039" lon="1.58159">
        <ele>2274.476</ele>
        <time>2016-05-06T23:58:42Z</time>
      </trkpt>
      <trkpt lat="42.48041" lon="1.58172">
        <ele>2276.69</ele>
        <time>2016-05-06T23:59:02Z</time>
      </trkpt>
      <trkpt lat="42.48041" lon="1.58178">
        <ele>2277.419</ele>
        <time>2016-05-06T23:59:22Z</time>
      </trkpt>
      <trkpt lat="42.48044" lon="1.58189">
        <ele>2279.108</ele>
        <time>2016-05-06T23:59:42Z</time>
      </trkpt>
      <trkpt lat="42.48044" lon="1.58198">
        <ele>2280.348</ele>
        <time>2016-05-07T00:00:02Z</time>
      </trkpt>
      <trkpt lat="42.48046" lon="1.5821">
        <ele>2281.96</ele>
        <time>2016-05-07T00:00:22Z</time>
      </trkpt>
      <trkpt lat="42.48048" lon="1.58225">
        <ele>2284.318</ele>
        <time>2016-05-07T00:00:42Z</time>
      </trkpt>
      <trkpt lat="42.48051" lon="1.58245">
        <ele>2287.456</ele>
        <time>2016-05-07T00:01:02Z</time>
      </trkpt>
      <trkpt lat="42.48054" lon="1.58251">
        <ele>2288.924</ele>
        <time>2016-05-07T00:01:22Z</time>
      </trkpt>
      <trkpt lat="42.48056" lon="1.58261">
        <ele>2291.265</ele>
        <time>2016-05-07T00:01:42Z</time>
      </trkpt>
      <trkpt lat="42.48057" lon="1.58267">
        <ele>2292.513</ele>
        <time>2016-05-07T00:02:02Z</time>
      </trkpt>
      <trkpt lat="42.48061" lon="1.58273">
        <ele>2294.611</ele>
        <time>2016-05-07T00:02:22Z</time>
      </trkpt>
      <trkpt lat="42.48062" lon="1.58277">
        <ele>2295.542</ele>
        <time>2016-05-07T00:02:42Z</time>
      </trkpt>
      <trkpt lat="42.4807" lon="1.58278">
        <ele>2297.722</ele>
        <time>2016-05-07T00:03:02Z</time>
      </trkpt>
      <trkpt lat="42.48074" lon="1.58318">
        <ele>2305.614</ele>
        <time>2016-05-07T00:03:22Z</time>
      </trkpt>
      <trkpt lat="42.48067" lon="1.58336">
        <ele>2307.708</ele>
        <time>2016-05-07T00:03:42Z</time>
      </trkpt>
      <trkpt lat="42.48064" lon="1.58352">
        <ele>2308.995</ele>
        <time>2016-05-07T00:04:02Z</time>
      </trkpt>
      <trkpt lat="42.48055" lon="1.58377">
        <ele>2310.257</ele>
        <time>2016-05-07T00:04:22Z</time>
      </trkpt>
      <trkpt lat="42.48051" lon="1.58382">
        <ele>2311.365</ele>
        <time>2016-05-07T00:04:42Z</time>
      </trkpt>
      <trkpt lat="42.48042" lon="1.58399">
        <ele>2314.873</ele>
        <time>2016-05-07T00:05:02Z</time>
      </trkpt>
      <trkpt lat="42.48038" lon="1.5841">
        <ele>2316.751</ele>
        <time>2016-05-07T00:05:22Z</time>
      </trkpt>
      <trkpt lat="42.48034" lon="1.58417">
        <ele>2317.962</ele>
        <time>2016-05-07T00:05:42Z</time>
      </trkpt>
      <trkpt lat="42.48034" lon="1.58419">
        <ele>2318.22</ele>
        <time>2016-05-07T00:06:02Z</time>
      </trkpt>
      <trkpt lat="42.48031" lon="1.58425">
        <ele>2319.468</ele>
        <time>2016-05-07T00:06:22Z</time>
      </trkpt>
      <trkpt lat="42.48025" lon="1.58426">
        <ele>2320.145</ele>
        <time>2016-05-07T00:06:42Z</time>
      </trkpt>
      <trkpt lat="42.48018" lon="1.58427">
        <ele>2320.547</ele>
        <time>2016-05-07T00:07:02Z</time>
      </trkpt>
      <trkpt lat="42.48011" lon="1.58427">
        <ele>2320.911</ele>
        <time>2016-05-07T00:07:22Z</time>
      </trkpt>
      <trkpt lat="42.48004" lon="1.58431">
        <ele>2321.408</ele>
        <time>2016-05-07T00:07:42Z</time>
      </trkpt>
      <trkpt lat="42.47994" lon="1.58436">
        <ele>2321.685</ele>
        <time>2016-05-07T00:08:02Z</time>
      </trkpt>
      <trkpt lat="42.47986" lon="1.58442">
        <ele>2321.847</ele>
        <time>2016-05-07T00:08:22Z</time>
      </trkpt>
      <trkpt lat="42.47979" lon="1.58449">
        <ele>2322.535</ele>
        <time>2016-05-07T00:08:42Z</time>
      </trkpt>
      <trkpt lat="42.4798" lon="1.58459">
        <ele>2323.713</ele>
        <time>2016-05-07T00:09:02Z</time>
      </trkpt>
      <trkpt lat="42.4798" lon="1.58468">
        <ele>2324.861</ele>
        <time>2016-05-07T00:09:22Z</time>
      </trkpt>
      <trkpt lat="42.47981" lon="1.58478">
        <ele>2325.962</ele>
        <time>2016-05-07T00:09:42Z</time>
      </trkpt>
      <trkpt lat="42.47984" lon="1.58487">
        <ele>2327.01</ele>
        <time>2016-05-07T00:10:02Z</time>
      </trkpt>
      <trkpt lat="42.47988" lon="1.58499">
        <ele>2328.498</ele>
        <time>2016-05-07T00:10:22Z</time>
      </trkpt>
      <trkpt lat="42.47999" lon="1.58512">
        <ele>2331.423</ele>
        <time>2016-05-07T00:10:42Z</time>
      </trkpt>
      <trkpt lat="42.48001" lon="1.58519">
        <ele>2333.383</ele>
        <time>2016-05-07T00:11:02Z</time>
      </trkpt>
      <trkpt lat="42.48002" lon="1.58529">
        <ele>2335.911</ele>
        <time>2016-05-07T00:11:22Z</time>
      </trkpt>
      <trkpt lat="42.48006" lon="1.5854">
        <ele>2338.308</ele>
        <time>2016-05-07T00:11:42Z</time>
      </trkpt>
      <trkpt lat="42.48008" lon="1.58545">
        <ele>2339.473</ele>
        <time>2016-05-07T00:12:02Z</time>
      </trkpt>
      <trkpt lat="42.48016" lon="1.58576">
        <ele>2344.225</ele>
        <time>2016-05-07T00:12:22Z</time>
      </trkpt>
      <trkpt lat="42.4802" lon="1.58593">
        <ele>2346.363</ele>
        <time>2016-05-07T00:12:42Z</time>
      </trkpt>
      <trkpt lat="42.48023" lon="1.58604">
        <ele>2347.811</ele>
        <time>2016-05-07T00:13:02Z</time>
      </trkpt>
      <trkpt lat="42.48026" lon="1.5861">
        <ele>2348.739</ele>
        <time>2016-05-07T00:13:22Z</time>
      </trkpt>
      <trkpt lat="42.48029" lon="1.58618">
        <ele>2349.61</ele>
        <time>2016-05-07T00:13:42Z</time>
      </trkpt>
      <trkpt lat="42.48031" lon="1.58623">
        <ele>2350.588</ele>
        <time>2016-05-07T00:14:02Z</time>
      </trkpt>
      <trkpt lat="42.48032" lon="1.58632">
        <ele>2351.096</ele>
        <time>2016-05-07T00:14:22Z</time>
      </trkpt>
      <trkpt lat="42.48032" lon="1.58637">
        <ele>2351.271</ele>
        <time>2016-05-07T00:14:42Z</time>
      </trkpt>
      <trkpt lat="42.48032" lon="1.58645">
        <ele>2351.841</ele>
        <time>2016-05-07T00:15:02Z</time>
      </trkpt>
      <trkpt lat="42.48032" lon="1.58653">
        <ele>2352.515</ele>
        <time>2016-05-07T00:15:22Z</time>
      </trkpt>
      <trkpt lat="42.48033" lon="1.5866">
        <ele>2353.308</ele>
        <time>2016-05-07T00:15:42Z</time>
      </trkpt>
      <trkpt lat="42.48032" lon="1.58667">
        <ele>2353.418</ele>
        <time>2016-05-07T00:16:02Z</time>
      </trkpt>
      <trkpt lat="42.48029" lon="1.58674">
        <ele>2352.98</ele>
        <time>2016-05-07T00:16:22Z</time>
      </trkpt>
      <trkpt lat="42.48026" lon="1.58684">
        <ele>2353.048</ele>
        <time>2016-05-07T00:16:42Z</time>
      </trkpt>
      <trkpt lat="42.48007" lon="1.58717">
        <ele>2352.566</ele>
        <time>2016-05-07T00:17:02Z</time>
      </trkpt>
      <trkpt lat="42.48" lon="1.5873">
        <ele>2352.934</ele>
        <time>2016-05-07T00:17:22Z</time>
      </trkpt>
      <trkpt lat="42.47989" lon="1.58745">
        <ele>2354.045</ele>
        <time>2016-05-07T00:17:42Z</time>
      </trkpt>
      <trkpt lat="42.47983" lon="1.58751">
        <ele>2354.613</ele>
        <time>2016-05-07T00:18:02Z</time>
      </trkpt>
      <trkpt lat="42.47971" lon="1.58774">
        <ele>2357.221</ele>
        <time>2016-05-07T00:18:22Z</time>
      </trkpt>
      <trkpt lat="42.47969" lon="1.58786">
        <ele>2358.215</ele>
        <time>2016-05-07T00:18:42Z</time>
      </trkpt>
      <trkpt lat="42.47966" lon="1.58799">
        <ele>2358.865</ele>
        <time>2016-05-07T00:19:02Z</time>
      </trkpt>
      <trkpt lat="42.47965" lon="1.58814">
        <ele>2359.411</ele>
        <time>2016-05-07T00:19:22Z</time>
      </trkpt>
      <trkpt lat="42.47965" lon="1.58833">
        <ele>2360.108</ele>
        <time>2016-05-07T00:19:42Z</time>
      </trkpt>
      <trkpt lat="42.4797" lon="1.5886">
        <ele>2362.322</ele>
        <time>2016-05-07T00:20:02Z</time>
      </trkpt>
      <trkpt lat="42.47975" lon="1.58874">
        <ele>2363.134</ele>
        <time>2016-05-07T00:20:22Z</time>
      </trkpt>
      <trkpt lat="42.47978" lon="1.58885">
        <ele>2363.472</ele>
        <time>2016-05-07T00:20:42Z</time>
      </trkpt>
      <trkpt lat="42.47982" lon="1.58895">
        <ele>2364.15</ele>
        <time>2016-05-07T00:21:02Z</time>
      </trkpt>
      <trkpt lat="42.47989" lon="1.58932">
        <ele>2365.358</ele>
        <time>2016-05-07T00:21:22Z</time>
      </trkpt>
      <trkpt lat="42.48019" lon="1.59032">
        <ele>2367.659</ele>
        <time>2016-05-07T00:21:42Z</time>
      </trkpt>
      <trkpt lat="42.48023" lon="1.59042">
        <ele>2368.057</ele>
        <time>2016-05-07T00:22:02Z</time>
      </trkpt>
      <trkpt lat="42.4803" lon="1.59075">
        <ele>2368.775</ele>
        <time>2016-05-07T00:22:22Z</time>
      </trkpt>
      <trkpt lat="42.48032" lon="1.5909">
        <ele>2369.224</ele>
        <time>2016-05-07T00:22:42Z</time>
      </trkpt>
      <trkpt lat="42.48033" lon="1.59114">
        <ele>2369.204</ele>
        <time>2016-05-07T00:23:02Z</time>
      </trkpt>
      <trkpt lat="42.48033" lon="1.59146">
        <ele>2370.014</ele>
        <time>2016-05-07T00:23:22Z</time>
      </trkpt>
      <trkpt lat="42.48033" lon="1.59167">
        <ele>2370.608</ele>
        <time>2016-05-07T00:23:42Z</time>
      </trkpt>
      <trkpt lat="42.48032" lon="1.59203">
        <ele>2372.323</ele>
        <time>2016-05-07T00:24:02Z</time>
      </trkpt>
      <trkpt lat="42.4803" lon="1.59217">
        <ele>2373.755</ele>
        <time>2016-05-07T00:24:22Z</time>
      </trkpt>
      <trkpt lat="42.48028" lon="1.59234">
        <ele>2375.323</ele>
        <time>2016-05-07T00:24:42Z</time>
      </trkpt>
      <trkpt lat="42.48023" lon="1.59246">
        <ele>2376.331</ele>
        <time>2016-05-07T00:25:02Z</time>
      </trkpt>
      <trkpt lat="42.48018" lon="1.59267">
        <ele>2378.289</ele>
        <time>2016-05-07T00:25:22Z</time>
      </trkpt>
      <trkpt lat="42.48016" lon="1.59282">
        <ele>2379.43</ele>
        <time>2016-05-07T00:25:42Z</time>
      </trkpt>
      <trkpt lat="42.48016" lon="1.59298">
        <ele>2381.448</ele>
        <time>2016-05-07T00:26:02Z</time>
      </trkpt>
      <trkpt lat="42.48013" lon="1.59318">
        <ele>2383.666</ele>
        <time>2016-05-07T00:26:22Z</time>
      </trkpt>
      <trkpt lat="42.48011" lon="1.59336">
        <ele>2385.996</ele>
        <time>2016-05-07T00:26:42Z</time>
      </trkpt>
      <trkpt lat="42.48008" lon="1.59352">
        <ele>2387.631</ele>
        <time>2016-05-07T00:27:02Z</time>
      </trkpt>
      <trkpt lat="42.48005" lon="1.59368">
        <ele>2389.324</ele>
        <time>2016-05-07T00:27:22Z</time>
      </trkpt>
      <trkpt lat="42.48003" lon="1.59381">
        <ele>2390.308</ele>
        <time>2016-05-07T00:27:42Z</time>
      </trkpt>
      <trkpt lat="42.48001" lon="1.59393">
        <ele>2391.45</ele>
        <time>2016-05-07T00:28:02Z</time>
      </trkpt>
      <trkpt lat="42.48" lon="1.59401">
        <ele>2391.882</ele>
        <time>2016-05-07T00:28:22Z</time>
      </trkpt>
      <trkpt lat="42.47998" lon="1.5941">
        <ele>2392.53</ele>
        <time>2016-05-07T00:28:42Z</time>
      </trkpt>
      <trkpt lat="42.47993" lon="1.59428">
        <ele>2393.728</ele>
        <time>2016-05-07T00:29:02Z</time>
      </trkpt>
      <trkpt lat="42.47987" lon="1.59452">
        <ele>2394.956</ele>
        <time>2016-05-07T00:29:22Z</time>
      </trkpt>
      <trkpt lat="42.47984" lon="1.59463">
        <ele>2395.347</ele>
        <time>2016-05-07T00:29:42Z</time>
      </trkpt>
      <trkpt lat="42.47979" lon="1.59479">
        <ele>2395.835</ele>
        <time>2016-05-07T00:30:02Z</time>
      </trkpt>
      <trkpt lat="42.47973" lon="1.59489">
        <ele>2395.653</ele>
        <time>2016-05-07T00:30:22Z</time>
      </trkpt>
      <trkpt lat="42.4795" lon="1.5957">
        <ele>2401.256</ele>
        <time>2016-05-07T00:30:42Z</time>
      </trkpt>
      <trkpt lat="42.47948" lon="1.59583">
        <ele>2402.159</ele>
        <time>2016-05-07T00:31:02Z</time>
      </trkpt>
      <trkpt lat="42.47944" lon="1.596">
        <ele>2403.814</ele>
        <time>2016-05-07T00:31:22Z</time>
      </trkpt>
      <trkpt lat="42.47938" lon="1.59619">
        <ele>2405.808</ele>
        <time>2016-05-07T00:31:42Z</time>
      </trkpt>
      <trkpt lat="42.47915" lon="1.59661">
        <ele>2410.486</ele>
        <time>2016-05-07T00:32:02Z</time>
      </trkpt>
      <trkpt lat="42.47908" lon="1.59681">
        <ele>2411.748</ele>
        <time>2016-05-07T00:32:22Z</time>
      </trkpt>
      <trkpt lat="42.47899" lon="1.5971">
        <ele>2414.216</ele>
        <time>2016-05-07T00:32:42Z</time>
      </trkpt>
      <trkpt lat="42.47898" lon="1.59718">
        <ele>2415.134</ele>
        <time>2016-05-07T00:33:02Z</time>
      </trkpt>
      <trkpt lat="42.47893" lon="1.5975">
        <ele>2417.512</ele>
        <time>2016-05-07T00:33:22Z</time>
      </trkpt>
      <trkpt lat="42.4789" lon="1.59771">
        <ele>2419.483</ele>
        <time>2016-05-07T00:33:42Z</time>
      </trkpt>
      <trkpt lat="42.47887" lon="1.59793">
        <ele>2422.681</ele>
        <time>2016-05-07T00:34:02Z</time>
      </trkpt>
      <trkpt lat="42.47886" lon="1.59807">
        <ele>2424.969</ele>
        <time>2016-05-07T00:34:22Z</time>
      </trkpt>
      <trkpt lat="42.47889" lon="1.5989">
        <ele>2423.061</ele>
        <time>2016-05-07T00:34:42Z</time>
      </trkpt>
      <trkpt lat="42.47895" lon="1.5992">
        <ele>2420.321</ele>
        <time>2016-05-07T00:35:02Z</time>
      </trkpt>
      <trkpt lat="42.47903" lon="1.59935">
        <ele>2417.713</ele>
        <time>2016-05-07T00:35:22Z</time>
      </trkpt>
      <trkpt lat="42.47915" lon="1.59961">
        <ele>2411.208</ele>
        <time>2016-05-07T00:35:42Z</time>
      </trkpt>
      <trkpt lat="42.47923" lon="1.59987">
        <ele>2405.237</ele>
        <time>2016-05-07T00:36:02Z</time>
      </trkpt>
      <trkpt lat="42.47943" lon="1.60008">
        <ele>2397.739</ele>
        <time>2016-05-07T00:36:22Z</time>
      </trkpt>
      <trkpt lat="42.47956" lon="1.60048">
        <ele>2388.847</ele>
        <time>2016-05-07T00:36:42Z</time>
      </trkpt>
      <trkpt lat="42.47973" lon="1.6011">
        <ele>2375.295</ele>
        <time>2016-05-07T00:37:02Z</time>
      </trkpt>
      <trkpt lat="42.4798" lon="1.60153">
        <ele>2369.113</ele>
        <time>2016-05-07T00:37:22Z</time>
      </trkpt>
      <trkpt lat="42.47977" lon="1.60166">
        <ele>2367.774</ele>
        <time>2016-05-07T00:37:42Z</time>
      </trkpt>
      <trkpt lat="42.47971" lon="1.60198">
        <ele>2365.122</ele>
        <time>2016-05-07T00:38:02Z</time>
      </trkpt>
      <trkpt lat="42.47958" lon="1.60243">
        <ele>2362.36</ele>
        <time>2016-05-07T00:38:22Z</time>
      </trkpt>
      <trkpt lat="42.47959" lon="1.60286">
        <ele>2353.831</ele>
        <time>2016-05-07T00:38:42Z</time>
      </trkpt>
      <trkpt lat="42.47975" lon="1.60326">
        <ele>2346.161</ele>
        <time>2016-05-07T00:39:02Z</time>
      </trkpt>
      <trkpt lat="42.47977" lon="1.60345">
        <ele>2341.907</ele>
        <time>2016-05-07T00:39:22Z</time>
      </trkpt>
      <trkpt lat="42.47995" lon="1.60385">
        <ele>2336.408</ele>
        <time>2016-05-07T00:39:42Z</time>
      </trkpt>
      <trkpt lat="42.47995" lon="1.60422">
        <ele>2328.254</ele>
        <time>2016-05-07T00:40:02Z</time>
      </trkpt>
      <trkpt lat="42.47963" lon="1.60424">
        <ele>2321.316</ele>
        <time>2016-05-07T00:40:22Z</time>
      </trkpt>
      <trkpt lat="42.47939" lon="1.60448">
        <ele>2310.334</ele>
        <time>2016-05-07T00:40:42Z</time>
      </trkpt>
      <trkpt lat="42.47926" lon="1.60494">
        <ele>2298.052</ele>
        <time>2016-05-07T00:41:02Z</time>
      </trkpt>
      <trkpt lat="42.47965" lon="1.60529">
        <ele>2283.26</ele>
        <time>2016-05-07T00:41:22Z</time>
      </trkpt>
      <trkpt lat="42.47998" lon="1.60578">
        <ele>2271.971</ele>
        <time>2016-05-07T00:41:42Z</time>
      </trkpt>
      <trkpt lat="42.48025" lon="1.6064">
        <ele>2268.249</ele>
        <time>2016-05-07T00:42:02Z</time>
      </trkpt>
      <trkpt lat="42.48042" lon="1.60678">
        <ele>2264.887</ele>
        <time>2016-05-07T00:42:22Z</time>
      </trkpt>
      <trkpt lat="42.48077" lon="1.60695">
        <ele>2255.598</ele>
        <time>2016-05-07T00:42:42Z</time>
      </trkpt>
      <trkpt lat="42.48107" lon="1.60751">
        <ele>2251.615</ele>
        <time>2016-05-07T00:43:02Z</time>
      </trkpt>
      <trkpt lat="42.48118" lon="1.60802">
        <ele>2240.126</ele>
        <time>2016-05-07T00:43:22Z</time>
      </trkpt>
      <trkpt lat="42.48085" lon="1.60845">
        <ele>2227.608</ele>
        <time>2016-05-07T00:43:42Z</time>
      </trkpt>
      <trkpt lat="42.48112" lon="1.60879">
        <ele>2218.77</ele>
        <time>2016-05-07T00:44:02Z</time>
      </trkpt>
      <trkpt lat="42.48137" lon="1.60909">
        <ele>2209.782</ele>
        <time>2016-05-07T00:44:22Z</time>
      </trkpt>
      <trkpt lat="42.48168" lon="1.60943">
        <ele>2199.02</ele>
        <time>2016-05-07T00:44:42Z</time>
      </trkpt>
      <trkpt lat="42.48197" lon="1.60966">
        <ele>2188.758</ele>
        <time>2016-05-07T00:45:02Z</time>
      </trkpt>
      <trkpt lat="42.48233" lon="1.60975">
        <ele>2171.076</ele>
        <time>2016-05-07T00:45:22Z</time>
      </trkpt>
      <trkpt lat="42.48258" lon="1.60963">
        <ele>2163.917</ele>
        <time>2016-05-07T00:45:42Z</time>
      </trkpt>
      <trkpt lat="42.48276" lon="1.61">
        <ele>2145.945</ele>
        <time>2016-05-07T00:46:02Z</time>
      </trkpt>
      <trkpt lat="42.48284" lon="1.61034">
        <ele>2133.723</ele>
        <time>2016-05-07T00:46:22Z</time>
      </trkpt>
      <trkpt lat="42.48315" lon="1.61016">
        <ele>2125.975</ele>
        <time>2016-05-07T00:46:42Z</time>
      </trkpt>
      <trkpt lat="42.48326" lon="1.61063">
        <ele>2107.528</ele>
        <time>2016-05-07T00:47:02Z</time>
      </trkpt>
      <trkpt lat="42.48336" lon="1.61125">
        <ele>2086.92</ele>
        <time>2016-05-07T00:47:22Z</time>
      </trkpt>
      <trkpt lat="42.48351" lon="1.61155">
        <ele>2078.108</ele>
        <time>2016-05-07T00:47:42Z</time>
      </trkpt>
      <trkpt lat="42.484" lon="1.61174">
        <ele>2064.968</ele>
        <time>2016-05-07T00:48:02Z</time>
      </trkpt>
      <trkpt lat="42.48457" lon="1.61265">
        <ele>2053.41</ele>
        <time>2016-05-07T00:48:22Z</time>
      </trkpt>
      <trkpt lat="42.48502" lon="1.61325">
        <ele>2043.098</ele>
        <time>2016-05-07T00:48:42Z</time>
      </trkpt>
      <trkpt lat="42.4854" lon="1.61339">
        <ele>2041.336</ele>
        <time>2016-05-07T00:49:02Z</time>
      </trkpt>
      <trkpt lat="42.48563" lon="1.61361">
        <ele>2039.544</ele>
        <time>2016-05-07T00:49:22Z</time>
      </trkpt>
      <trkpt lat="42.48614" lon="1.61392">
        <ele>2035.855</ele>
        <time>2016-05-07T00:49:42Z</time>
      </trkpt>
      <trkpt lat="42.48623" lon="1.6141">
        <ele>2035.173</ele>
        <time>2016-05-07T00:50:02Z</time>
      </trkpt>
      <trkpt lat="42.48631" lon="1.6143">
        <ele>2035.691</ele>
        <time>2016-05-07T00:50:22Z</time>
      </trkpt>
      <trkpt lat="42.48646" lon="1.61451">
        <ele>2037.517</ele>
        <time>2016-05-07T00:50:42Z</time>
      </trkpt>
      <trkpt lat="42.48652" lon="1.61471">
        <ele>2040.487</ele>
        <time>2016-05-07T00:51:02Z</time>
      </trkpt>
      <trkpt lat="42.48662" lon="1.61486">
        <ele>2041.415</ele>
        <time>2016-05-07T00:51:22Z</time>
      </trkpt>
      <trkpt lat="42.48666" lon="1.61487">
        <ele>2041.208</ele>
        <time>2016-05-07T00:51:42Z</time>
      </trkpt>
      <trkpt lat="42.4867" lon="1.61495">
        <ele>2041.292</ele>
        <time>2016-05-07T00:52:02Z</time>
      </trkpt>
      <trkpt lat="42.48676" lon="1.61506">
        <ele>2041.014</ele>
        <time>2016-05-07T00:52:22Z</time>
      </trkpt>
      <trkpt lat="42.48684" lon="1.61521">
        <ele>2040.522</ele>
        <time>2016-05-07T00:52:42Z</time>
      </trkpt>
      <trkpt lat="42.48686" lon="1.61532">
        <ele>2040.83</ele>
        <time>2016-05-07T00:53:02Z</time>
      </trkpt>
      <trkpt lat="42.48685" lon="1.61541">
        <ele>2041.368</ele>
        <time>2016-05-07T00:53:22Z</time>
      </trkpt>
      <trkpt lat="42.48682" lon="1.6155">
        <ele>2042.419</ele>
        <time>2016-05-07T00:53:42Z</time>
      </trkpt>
      <trkpt lat="42.48677" lon="1.61561">
        <ele>2043.897</ele>
        <time>2016-05-07T00:54:02Z</time>
      </trkpt>
      <trkpt lat="42.48673" lon="1.61572">
        <ele>2044.445</ele>
        <time>2016-05-07T00:54:22Z</time>
      </trkpt>
      <trkpt lat="42.48669" lon="1.61583">
        <ele>2044.831</ele>
        <time>2016-05-07T00:54:42Z</time>
      </trkpt>
      <trkpt lat="42.48663" lon="1.61591">
        <ele>2045.261</ele>
        <time>2016-05-07T00:55:02Z</time>
      </trkpt>
      <trkpt lat="42.48655" lon="1.61595">
        <ele>2046.307</ele>
        <time>2016-05-07T00:55:22Z</time>
      </trkpt>
      <trkpt lat="42.48644" lon="1.61597">
        <ele>2047.708</ele>
        <time>2016-05-07T00:55:42Z</time>
      </trkpt>
      <trkpt lat="42.48638" lon="1.61599">
        <ele>2048.544</ele>
        <time>2016-05-07T00:56:02Z</time>
      </trkpt>
      <trkpt lat="42.48633" lon="1.61603">
        <ele>2048.966</ele>
        <time>2016-05-07T00:56:22Z</time>
      </trkpt>
      <trkpt lat="42.48624" lon="1.61609">
        <ele>2049.734</ele>
        <time>2016-05-07T00:56:42Z</time>
      </trkpt>
      <trkpt lat="42.48617" lon="1.61614">
        <ele>2050.622</ele>
        <time>2016-05-07T00:57:02Z</time>
      </trkpt>
      <trkpt lat="42.4861" lon="1.6162">
        <ele>2051.86</ele>
        <time>2016-05-07T00:57:22Z</time>
      </trkpt>
      <trkpt lat="42.48602" lon="1.61623">
        <ele>2052.911</ele>
        <time>2016-05-07T00:57:42Z</time>
      </trkpt>
      <trkpt lat="42.48592" lon="1.61631">
        <ele>2054.229</ele>
        <time>2016-05-07T00:58:02Z</time>
      </trkpt>
      <trkpt lat="42.48588" lon="1.6164">
        <ele>2054.867</ele>
        <time>2016-05-07T00:58:22Z</time>
      </trkpt>
      <trkpt lat="42.4858" lon="1.61649">
        <ele>2056.543</ele>
        <time>2016-05-07T00:58:42Z</time>
      </trkpt>
      <trkpt lat="42.48575" lon="1.61658">
        <ele>2057.964</ele>
        <time>2016-05-07T00:59:02Z</time>
      </trkpt>
      <trkpt lat="42.48569" lon="1.61669">
        <ele>2059.31</ele>
        <time>2016-05-07T00:59:22Z</time>
      </trkpt>
      <trkpt lat="42.48564" lon="1.61676">
        <ele>2060.208</ele>
        <time>2016-05-07T00:59:42Z</time>
      </trkpt>
      <trkpt lat="42.4856" lon="1.6168">
        <ele>2060.835</ele>
        <time>2016-05-07T01:00:02Z</time>
      </trkpt>
      <trkpt lat="42.48556" lon="1.61688">
        <ele>2061.537</ele>
        <time>2016-05-07T01:00:22Z</time>
      </trkpt>
      <trkpt lat="42.48551" lon="1.61696">
        <ele>2062.645</ele>
        <time>2016-05-07T01:00:42Z</time>
      </trkpt>
      <trkpt lat="42.48547" lon="1.61701">
        <ele>2063.413</ele>
        <time>2016-05-07T01:01:02Z</time>
      </trkpt>
      <trkpt lat="42.48543" lon="1.61712">
        <ele>2064.451</ele>
        <time>2016-05-07T01:01:22Z</time>
      </trkpt>
      <trkpt lat="42.48539" lon="1.61721">
        <ele>2065.072</ele>
        <time>2016-05-07T01:01:42Z</time>
      </trkpt>
      <trkpt lat="42.48532" lon="1.61729">
        <ele>2065.05</ele>
        <time>2016-05-07T01:02:02Z</time>
      </trkpt>
      <trkpt lat="42.48525" lon="1.61738">
        <ele>2065.118</ele>
        <time>2016-05-07T01:02:22Z</time>
      </trkpt>
      <trkpt lat="42.48522" lon="1.61749">
        <ele>2065.229</ele>
        <time>2016-05-07T01:02:42Z</time>
      </trkpt>
      <trkpt lat="42.48519" lon="1.61757">
        <ele>2066</ele>
        <time>2016-05-07T01:03:02Z</time>
      </trkpt>
      <trkpt lat="42.48514" lon="1.61766">
        <ele>2067.22</ele>
        <time>2016-05-07T01:03:22Z</time>
      </trkpt>
      <trkpt lat="42.48511" lon="1.61776">
        <ele>2068.608</ele>
        <time>2016-05-07T01:03:42Z</time>
      </trkpt>
      <trkpt lat="42.48508" lon="1.61783">
        <ele>2069.733</ele>
        <time>2016-05-07T01:04:02Z</time>
      </trkpt>
      <trkpt lat="42.48503" lon="1.61788">
        <ele>2070.795</ele>
        <time>2016-05-07T01:04:22Z</time>
      </trkpt>
      <trkpt lat="42.48499" lon="1.61796">
        <ele>2071.973</ele>
        <time>2016-05-07T01:04:42Z</time>
      </trkpt>
      <trkpt lat="42.48495" lon="1.61804">
        <ele>2072.791</ele>
        <time>2016-05-07T01:05:02Z</time>
      </trkpt>
      <trkpt lat="42.48492" lon="1.61812">
        <ele>2073.359</ele>
        <time>2016-05-07T01:05:22Z</time>
      </trkpt>
      <trkpt lat="42.48486" lon="1.61821">
        <ele>2073.95</ele>
        <time>2016-05-07T01:05:42Z</time>
      </trkpt>
      <trkpt lat="42.48477" lon="1.61831">
        <ele>2074.848</ele>
        <time>2016-05-07T01:06:02Z</time>
      </trkpt>
      <trkpt lat="42.48472" lon="1.61839">
        <ele>2075.616</ele>
        <time>2016-05-07T01:06:22Z</time>
      </trkpt>
      <trkpt lat="42.48466" lon="1.61849">
        <ele>2076.924</ele>
        <time>2016-05-07T01:06:42Z</time>
      </trkpt>
      <trkpt lat="42.48462" lon="1.61856">
        <ele>2077.904</ele>
        <time>2016-05-07T01:07:02Z</time>
      </trkpt>
      <trkpt lat="42.4846" lon="1.61867">
        <ele>2079.314</ele>
        <time>2016-05-07T01:07:22Z</time>
      </trkpt>
      <trkpt lat="42.48457" lon="1.61875">
        <ele>2080.608</ele>
        <time>2016-05-07T01:07:42Z</time>
      </trkpt>
      <trkpt lat="42.48455" lon="1.61884">
        <ele>2082.033</ele>
        <time>2016-05-07T01:08:02Z</time>
      </trkpt>
      <trkpt lat="42.48453" lon="1.61891">
        <ele>2083.065</ele>
        <time>2016-05-07T01:08:22Z</time>
      </trkpt>
      <trkpt lat="42.4845" lon="1.61898">
        <ele>2084.483</ele>
        <time>2016-05-07T01:08:42Z</time>
      </trkpt>
      <trkpt lat="42.48451" lon="1.6191">
        <ele>2086.731</ele>
        <time>2016-05-07T01:09:02Z</time>
      </trkpt>
      <trkpt lat="42.48443" lon="1.61918">
        <ele>2088.159</ele>
        <time>2016-05-07T01:09:22Z</time>
      </trkpt>
      <trkpt lat="42.48437" lon="1.61929">
        <ele>2089.96</ele>
        <time>2016-05-07T01:09:42Z</time>
      </trkpt>
      <trkpt lat="42.48435" lon="1.61941">
        <ele>2091.718</ele>
        <time>2016-05-07T01:10:02Z</time>
      </trkpt>
      <trkpt lat="42.48434" lon="1.61953">
        <ele>2093.426</ele>
        <time>2016-05-07T01:10:22Z</time>
      </trkpt>
      <trkpt lat="42.48432" lon="1.61972">
        <ele>2096.186</ele>
        <time>2016-05-07T01:10:42Z</time>
      </trkpt>
      <trkpt lat="42.48431" lon="1.61985">
        <ele>2097.66</ele>
        <time>2016-05-07T01:11:02Z</time>
      </trkpt>
      <trkpt lat="42.4843" lon="1.61996">
        <ele>2098.926</ele>
        <time>2016-05-07T01:11:22Z</time>
      </trkpt>
      <trkpt lat="42.4843" lon="1.62005">
        <ele>2100.208</ele>
        <time>2016-05-07T01:11:42Z</time>
      </trkpt>
      <trkpt lat="42.48432" lon="1.62015">
        <ele>2101.849</ele>
        <time>2016-05-07T01:12:02Z</time>
      </trkpt>
      <trkpt lat="42.48432" lon="1.62022">
        <ele>2102.811</ele>
        <time>2016-05-07T01:12:22Z</time>
      </trkpt>
      <trkpt lat="42.48432" lon="1.62031">
        <ele>2103.959</ele>
        <time>2016-05-07T01:12:42Z</time>
      </trkpt>
      <trkpt lat="42.48429" lon="1.62038">
        <ele>2104.397</ele>
        <time>2016-05-07T01:13:02Z</time>
      </trkpt>
      <trkpt lat="42.48426" lon="1.62044">
        <ele>2104.915</ele>
        <time>2016-05-07T01:13:22Z</time>
      </trkpt>
      <trkpt lat="42.48421" lon="1.62051">
        <ele>2105.576</ele>
        <time>2016-05-07T01:13:42Z</time>
      </trkpt>
      <trkpt lat="42.48419" lon="1.62059">
        <ele>2106.454</ele>
        <time>2016-05-07T01:14:02Z</time>
      </trkpt>
      <trkpt lat="42.4842" lon="1.62067">
        <ele>2107.252</ele>
        <time>2016-05-07T01:14:22Z</time>
      </trkpt>
      <trkpt lat="42.4842" lon="1.62073">
        <ele>2107.816</ele>
        <time>2016-05-07T01:14:42Z</time>
      </trkpt>
      <trkpt lat="42.48419" lon="1.62079">
        <ele>2108.576</ele>
        <time>2016-05-07T01:15:02Z</time>
      </trkpt>
      <trkpt lat="42.48413" lon="1.62086">
        <ele>2109.013</ele>
        <time>2016-05-07T01:15:22Z</time>
      </trkpt>
      <trkpt lat="42.48413" lon="1.621">
        <ele>2110.608</ele>
        <time>2016-05-07T01:15:42Z</time>
      </trkpt>
      <trkpt lat="42.48408" lon="1.62109">
        <ele>2111.192</ele>
        <time>2016-05-07T01:16:02Z</time>
      </trkpt>
      <trkpt lat="42.48396" lon="1.62126">
        <ele>2111.124</ele>
        <time>2016-05-07T01:16:22Z</time>
      </trkpt>
      <trkpt lat="42.48391" lon="1.62143">
        <ele>2111.152</ele>
        <time>2016-05-07T01:16:42Z</time>
      </trkpt>
      <trkpt lat="42.48388" lon="1.62155">
        <ele>2109.97</ele>
        <time>2016-05-07T01:17:02Z</time>
      </trkpt>
      <trkpt lat="42.48386" lon="1.62164">
        <ele>2108.838</ele>
        <time>2016-05-07T01:17:22Z</time>
      </trkpt>
      <trkpt lat="42.48385" lon="1.62178">
        <ele>2107.949</ele>
        <time>2016-05-07T01:17:42Z</time>
      </trkpt>
      <trkpt lat="42.48383" lon="1.62193">
        <ele>2106.377</ele>
        <time>2016-05-07T01:18:02Z</time>
      </trkpt>
      <trkpt lat="42.48379" lon="1.62204">
        <ele>2105.895</ele>
        <time>2016-05-07T01:18:22Z</time>
      </trkpt>
      <trkpt lat="42.48382" lon="1.62224">
        <ele>2108.722</ele>
        <time>2016-05-07T01:18:42Z</time>
      </trkpt>
      <trkpt lat="42.48377" lon="1.6224">
        <ele>2109.762</ele>
        <time>2016-05-07T01:19:02Z</time>
      </trkpt>
      <trkpt lat="42.4837" lon="1.62244">
        <ele>2107.808</ele>
        <time>2016-05-07T01:19:22Z</time>
      </trkpt>
      <trkpt lat="42.48362" lon="1.62253">
        <ele>2106.808</ele>
        <time>2016-05-07T01:19:42Z</time>
      </trkpt>
      <trkpt lat="42.48357" lon="1.62262">
        <ele>2107.713</ele>
        <time>2016-05-07T01:20:02Z</time>
      </trkpt>
      <trkpt lat="42.4835" lon="1.62269">
        <ele>2108.245</ele>
        <time>2016-05-07T01:20:22Z</time>
      </trkpt>
      <trkpt lat="42.48347" lon="1.62275">
        <ele>2109.063</ele>
        <time>2016-05-07T01:20:42Z</time>
      </trkpt>
      <trkpt lat="42.48341" lon="1.62284">
        <ele>2110.051</ele>
        <time>2016-05-07T01:21:02Z</time>
      </trkpt>
      <trkpt lat="42.48335" lon="1.62296">
        <ele>2111.529</ele>
        <time>2016-05-07T01:21:22Z</time>
      </trkpt>
      <trkpt lat="42.48332" lon="1.62315">
        <ele>2114.05</ele>
        <time>2016-05-07T01:21:42Z</time>
      </trkpt>
      <trkpt lat="42.48335" lon="1.62326">
        <ele>2115.448</ele>
        <time>2016-05-07T01:22:02Z</time>
      </trkpt>
      <trkpt lat="42.48328" lon="1.62334">
        <ele>2115.736</ele>
        <time>2016-05-07T01:22:22Z</time>
      </trkpt>
      <trkpt lat="42.48328" lon="1.62347">
        <ele>2117.648</ele>
        <time>2016-05-07T01:22:42Z</time>
      </trkpt>
      <trkpt lat="42.48332" lon="1.62356">
        <ele>2119.161</ele>
        <time>2016-05-07T01:23:02Z</time>
      </trkpt>
      <trkpt lat="42.48326" lon="1.62375">
        <ele>2121.417</ele>
        <time>2016-05-07T01:23:22Z</time>
      </trkpt>
      <trkpt lat="42.48332" lon="1.62392">
        <ele>2123.308</ele>
        <time>2016-05-07T01:23:42Z</time>
      </trkpt>
      <trkpt lat="42.48329" lon="1.62398">
        <ele>2123.885</ele>
        <time>2016-05-07T01:24:02Z</time>
      </trkpt>
      <trkpt lat="42.4833" lon="1.62403">
        <ele>2124.147</ele>
        <time>2016-05-07T01:24:22Z</time>
      </trkpt>
      <trkpt lat="42.48327" lon="1.62417">
        <ele>2125.065</ele>
        <time>2016-05-07T01:24:42Z</time>
      </trkpt>
      <trkpt lat="42.48314" lon="1.62441">
        <ele>2127.023</ele>
        <time>2016-05-07T01:25:02Z</time>
      </trkpt>
      <trkpt lat="42.48305" lon="1.62464">
        <ele>2129.051</ele>
        <time>2016-05-07T01:25:22Z</time>
      </trkpt>
      <trkpt lat="42.48299" lon="1.62471">
        <ele>2129.272</ele>
        <time>2016-05-07T01:25:42Z</time>
      </trkpt>
      <trkpt lat="42.48301" lon="1.62488">
        <ele>2133.77</ele>
        <time>2016-05-07T01:26:02Z</time>
      </trkpt>
      <trkpt lat="42.48294" lon="1.62516">
        <ele>2139.038</ele>
        <time>2016-05-07T01:26:22Z</time>
      </trkpt>
      <trkpt lat="42.48281" lon="1.62539">
        <ele>2138.621</ele>
        <time>2016-05-07T01:26:42Z</time>
      </trkpt>
      <trkpt lat="42.48276" lon="1.62557">
        <ele>2138.841</ele>
        <time>2016-05-07T01:27:02Z</time>
      </trkpt>
      <trkpt lat="42.48281" lon="1.6258">
        <ele>2142.605</ele>
        <time>2016-05-07T01:27:22Z</time>
      </trkpt>
      <trkpt lat="42.4828" lon="1.62588">
        <ele>2142.408</ele>
        <time>2016-05-07T01:27:42Z</time>
      </trkpt>
      <trkpt lat="42.4828" lon="1.62595">
        <ele>2143.653</ele>
        <time>2016-05-07T01:28:02Z</time>
      </trkpt>
      <trkpt lat="42.48283" lon="1.62609">
        <ele>2146.515</ele>
        <time>2016-05-07T01:28:22Z</time>
      </trkpt>
      <trkpt lat="42.48283" lon="1.62616">
        <ele>2147.723</ele>
        <time>2016-05-07T01:28:42Z</time>
      </trkpt>
      <trkpt lat="42.48282" lon="1.62623">
        <ele>2148.181</ele>
        <time>2016-05-07T01:29:02Z</time>
      </trkpt>
      <trkpt lat="42.48282" lon="1.62634">
        <ele>2150.149</ele>
        <time>2016-05-07T01:29:22Z</time>
      </trkpt>
      <trkpt lat="42.48284" lon="1.62639">
        <ele>2152.36</ele>
        <time>2016-05-07T01:29:42Z</time>
      </trkpt>
      <trkpt lat="42.48286" lon="1.62654">
        <ele>2155.598</ele>
        <time>2016-05-07T01:30:02Z</time>
      </trkpt>
      <trkpt lat="42.48283" lon="1.62664">
        <ele>2154.946</ele>
        <time>2016-05-07T01:30:22Z</time>
      </trkpt>
      <trkpt lat="42.48286" lon="1.62681">
        <ele>2158.694</ele>
        <time>2016-05-07T01:30:42Z</time>
      </trkpt>
      <trkpt lat="42.48287" lon="1.62694">
        <ele>2161.057</ele>
        <time>2016-05-07T01:31:02Z</time>
      </trkpt>
      <trkpt lat="42.48287" lon="1.627">
        <ele>2161.522</ele>
        <time>2016-05-07T01:31:22Z</time>
      </trkpt>
      <trkpt lat="42.48283" lon="1.62718">
        <ele>2162.408</ele>
        <time>2016-05-07T01:31:42Z</time>
      </trkpt>
      <trkpt lat="42.48285" lon="1.62727">
        <ele>2164.21</ele>
        <time>2016-05-07T01:32:02Z</time>
      </trkpt>
      <trkpt lat="42.48274" lon="1.62739">
        <ele>2161.142</ele>
        <time>2016-05-07T01:32:22Z</time>
      </trkpt>
      <trkpt lat="42.48273" lon="1.6275">
        <ele>2161.83</ele>
        <time>2016-05-07T01:32:42Z</time>
      </trkpt>
      <trkpt lat="42.48276" lon="1.62764">
        <ele>2162.988</ele>
        <time>2016-05-07T01:33:02Z</time>
      </trkpt>
      <trkpt lat="42.48272" lon="1.62776">
        <ele>2163.756</ele>
        <time>2016-05-07T01:33:22Z</time>
      </trkpt>
      <trkpt lat="42.48272" lon="1.62795">
        <ele>2165.757</ele>
        <time>2016-05-07T01:33:42Z</time>
      </trkpt>
      <trkpt lat="42.48271" lon="1.62812">
        <ele>2167.235</ele>
        <time>2016-05-07T01:34:02Z</time>
      </trkpt>
      <trkpt lat="42.48277" lon="1.62829">
        <ele>2168.773</ele>
        <time>2016-05-07T01:34:22Z</time>
      </trkpt>
      <trkpt lat="42.48268" lon="1.62838">
        <ele>2168.939</ele>
        <time>2016-05-07T01:34:42Z</time>
      </trkpt>
      <trkpt lat="42.48275" lon="1.62858">
        <ele>2169.901</ele>
        <time>2016-05-07T01:35:02Z</time>
      </trkpt>
      <trkpt lat="42.48274" lon="1.62868">
        <ele>2170.521</ele>
        <time>2016-05-07T01:35:22Z</time>
      </trkpt>
      <trkpt lat="42.4827" lon="1.62874">
        <ele>2170.908</ele>
        <time>2016-05-07T01:35:42Z</time>
      </trkpt>
      <trkpt lat="42.48275" lon="1.62887">
        <ele>2171.964</ele>
        <time>2016-05-07T01:36:02Z</time>
      </trkpt>
      <trkpt lat="42.48262" lon="1.62908">
        <ele>2173.096</ele>
        <time>2016-05-07T01:36:22Z</time>
      </trkpt>
      <trkpt lat="42.48265" lon="1.62924">
        <ele>2174.134</ele>
        <time>2016-05-07T01:36:42Z</time>
      </trkpt>
      <trkpt lat="42.48265" lon="1.62934">
        <ele>2174.842</ele>
        <time>2016-05-07T01:37:02Z</time>
      </trkpt>
      <trkpt lat="42.4826" lon="1.62939">
        <ele>2175.07</ele>
        <time>2016-05-07T01:37:22Z</time>
      </trkpt>
      <trkpt lat="42.48263" lon="1.62945">
        <ele>2175.591</ele>
        <time>2016-05-07T01:37:42Z</time>
      </trkpt>
      <trkpt lat="42.48263" lon="1.62952">
        <ele>2175.769</ele>
        <time>2016-05-07T01:38:02Z</time>
      </trkpt>
      <trkpt lat="42.48266" lon="1.62958">
        <ele>2176.127</ele>
        <time>2016-05-07T01:38:22Z</time>
      </trkpt>
      <trkpt lat="42.48269" lon="1.62964">
        <ele>2176.439</ele>
        <time>2016-05-07T01:38:42Z</time>
      </trkpt>
      <trkpt lat="42.48272" lon="1.62974">
        <ele>2176.701</ele>
        <time>2016-05-07T01:39:02Z</time>
      </trkpt>
      <trkpt lat="42.48275" lon="1.62983">
        <ele>2176.221</ele>
        <time>2016-05-07T01:39:22Z</time>
      </trkpt>
      <trkpt lat="42.48274" lon="1.62991">
        <ele>2175.808</ele>
        <time>2016-05-07T01:39:42Z</time>
      </trkpt>
      <trkpt lat="42.48274" lon="1.63007">
        <ele>2175.344</ele>
        <time>2016-05-07T01:40:02Z</time>
      </trkpt>
      <trkpt lat="42.48278" lon="1.63018">
        <ele>2175.196</ele>
        <time>2016-05-07T01:40:22Z</time>
      </trkpt>
      <trkpt lat="42.4828" lon="1.63028">
        <ele>2175.574</ele>
        <time>2016-05-07T01:40:42Z</time>
      </trkpt>
      <trkpt lat="42.48281" lon="1.63044">
        <ele>2175.692</ele>
        <time>2016-05-07T01:41:02Z</time>
      </trkpt>
      <trkpt lat="42.48283" lon="1.63071">
        <ele>2175.92</ele>
        <time>2016-05-07T01:41:22Z</time>
      </trkpt>
      <trkpt lat="42.48289" lon="1.631">
        <ele>2176.711</ele>
        <time>2016-05-07T01:41:42Z</time>
      </trkpt>
      <trkpt lat="42.48293" lon="1.63119">
        <ele>2176.759</ele>
        <time>2016-05-07T01:42:02Z</time>
      </trkpt>
      <trkpt lat="42.48306" lon="1.6317">
        <ele>2175.027</ele>
        <time>2016-05-07T01:42:22Z</time>
      </trkpt>
      <trkpt lat="42.48306" lon="1.63187">
        <ele>2175.178</ele>
        <time>2016-05-07T01:42:42Z</time>
      </trkpt>
      <trkpt lat="42.48313" lon="1.63201">
        <ele>2176.233</ele>
        <time>2016-05-07T01:43:02Z</time>
      </trkpt>
      <trkpt lat="42.48319" lon="1.63212">
        <ele>2177.326</ele>
        <time>2016-05-07T01:43:22Z</time>
      </trkpt>
      <trkpt lat="42.48326" lon="1.63241">
        <ele>2178.408</ele>
        <time>2016-05-07T01:43:42Z</time>
      </trkpt>
      <trkpt lat="42.48331" lon="1.63259">
        <ele>2178.978</ele>
        <time>2016-05-07T01:44:02Z</time>
      </trkpt>
      <trkpt lat="42.48331" lon="1.63273">
        <ele>2178.95</ele>
        <time>2016-05-07T01:44:22Z</time>
      </trkpt>
      <trkpt lat="42.48342" lon="1.63305">
        <ele>2180.078</ele>
        <time>2016-05-07T01:44:42Z</time>
      </trkpt>
      <trkpt lat="42.48345" lon="1.63317">
        <ele>2180.026</ele>
        <time>2016-05-07T01:45:02Z</time>
      </trkpt>
      <trkpt lat="42.48345" lon="1.63329">
        <ele>2180.054</ele>
        <time>2016-05-07T01:45:22Z</time>
      </trkpt>
      <trkpt lat="42.48354" lon="1.63353">
        <ele>2180.525</ele>
        <time>2016-05-07T01:45:42Z</time>
      </trkpt>
      <trkpt lat="42.48359" lon="1.63364">
        <ele>2181.093</ele>
        <time>2016-05-07T01:46:02Z</time>
      </trkpt>
      <trkpt lat="42.48361" lon="1.63374">
        <ele>2181.531</ele>
        <time>2016-05-07T01:46:22Z</time>
      </trkpt>
      <trkpt lat="42.48367" lon="1.63399">
        <ele>2183.498</ele>
        <time>2016-05-07T01:46:42Z</time>
      </trkpt>
      <trkpt lat="42.48372" lon="1.63421">
        <ele>2185.115</ele>
        <time>2016-05-07T01:47:02Z</time>
      </trkpt>
      <trkpt lat="42.48374" lon="1.63437">
        <ele>2185.326</ele>
        <time>2016-05-07T01:47:22Z</time>
      </trkpt>
      <trkpt lat="42.48378" lon="1.63446">
        <ele>2185.708</ele>
        <time>2016-05-07T01:47:42Z</time>
      </trkpt>
      <trkpt lat="42.48381" lon="1.63468">
        <ele>2187.26</ele>
        <time>2016-05-07T01:48:02Z</time>
      </trkpt>
      <trkpt lat="42.48382" lon="1.63478">
        <ele>2187.792</ele>
        <time>2016-05-07T01:48:22Z</time>
      </trkpt>
      <trkpt lat="42.48383" lon="1.63492">
        <ele>2188.52</ele>
        <time>2016-05-07T01:48:42Z</time>
      </trkpt>
      <trkpt lat="42.48382" lon="1.63503">
        <ele>2189.198</ele>
        <time>2016-05-07T01:49:02Z</time>
      </trkpt>
      <trkpt lat="42.48382" lon="1.63513">
        <ele>2190.066</ele>
        <time>2016-05-07T01:49:22Z</time>
      </trkpt>
      <trkpt lat="42.48379" lon="1.63519">
        <ele>2190.597</ele>
        <time>2016-05-07T01:49:42Z</time>
      </trkpt>
      <trkpt lat="42.48382" lon="1.63531">
        <ele>2191.715</ele>
        <time>2016-05-07T01:50:02Z</time>
      </trkpt>
      <trkpt lat="42.48383" lon="1.63546">
        <ele>2192.963</ele>
        <time>2016-05-07T01:50:22Z</time>
      </trkpt>
      <trkpt lat="42.48386" lon="1.63566">
        <ele>2194.272</ele>
        <time>2016-05-07T01:50:42Z</time>
      </trkpt>
      <trkpt lat="42.48393" lon="1.6359">
        <ele>2196.013</ele>
        <time>2016-05-07T01:51:02Z</time>
      </trkpt>
      <trkpt lat="42.48401" lon="1.63617">
        <ele>2199.114</ele>
        <time>2016-05-07T01:51:22Z</time>
      </trkpt>
      <trkpt lat="42.48404" lon="1.63623">
        <ele>2199.808</ele>
        <time>2016-05-07T01:51:42Z</time>
      </trkpt>
      <trkpt lat="42.48408" lon="1.63639">
        <ele>2201.128</ele>
        <time>2016-05-07T01:52:02Z</time>
      </trkpt>
      <trkpt lat="42.48411" lon="1.6365">
        <ele>2201.68</ele>
        <time>2016-05-07T01:52:22Z</time>
      </trkpt>
      <trkpt lat="42.48416" lon="1.63662">
        <ele>2202.758</ele>
        <time>2016-05-07T01:52:42Z</time>
      </trkpt>
      <trkpt lat="42.48419" lon="1.63666">
        <ele>2203.726</ele>
        <time>2016-05-07T01:53:02Z</time>
      </trkpt>
      <trkpt lat="42.48429" lon="1.63673">
        <ele>2207.074</ele>
        <time>2016-05-07T01:53:22Z</time>
      </trkpt>
      <trkpt lat="42.48434" lon="1.6368">
        <ele>2208.565</ele>
        <time>2016-05-07T01:53:42Z</time>
      </trkpt>
      <trkpt lat="42.48443" lon="1.6369">
        <ele>2210.723</ele>
        <time>2016-05-07T01:54:02Z</time>
      </trkpt>
      <trkpt lat="42.48449" lon="1.63697">
        <ele>2213.721</ele>
        <time>2016-05-07T01:54:22Z</time>
      </trkpt>
      <trkpt lat="42.48454" lon="1.63708">
        <ele>2216.982</ele>
        <time>2016-05-07T01:54:42Z</time>
      </trkpt>
      <trkpt lat="42.48453" lon="1.63716">
        <ele>2217.043</ele>
        <time>2016-05-07T01:55:02Z</time>
      </trkpt>
      <trkpt lat="42.48456" lon="1.63722">
        <ele>2218.517</ele>
        <time>2016-05-07T01:55:22Z</time>
      </trkpt>
      <trkpt lat="42.48452" lon="1.63725">
        <ele>2216.708</ele>
        <time>2016-05-07T01:55:42Z</time>
      </trkpt>
      <trkpt lat="42.48446" lon="1.63726">
        <ele>2214.429</ele>
        <time>2016-05-07T01:56:02Z</time>
      </trkpt>
      <trkpt lat="42.48444" lon="1.63728">
        <ele>2213.961</ele>
        <time>2016-05-07T01:56:22Z</time>
      </trkpt>
      <trkpt lat="42.48445" lon="1.63737">
        <ele>2215.349</ele>
        <time>2016-05-07T01:56:42Z</time>
      </trkpt>
      <trkpt lat="42.4844" lon="1.63751">
        <ele>2217.717</ele>
        <time>2016-05-07T01:57:02Z</time>
      </trkpt>
      <trkpt lat="42.48439" lon="1.63754">
        <ele>2218.455</ele>
        <time>2016-05-07T01:57:22Z</time>
      </trkpt>
      <trkpt lat="42.48441" lon="1.63759">
        <ele>2219.346</ele>
        <time>2016-05-07T01:57:42Z</time>
      </trkpt>
      <trkpt lat="42.48459" lon="1.63775">
        <ele>2221.894</ele>
        <time>2016-05-07T01:58:02Z</time>
      </trkpt>
      <trkpt lat="42.48459" lon="1.6379">
        <ele>2222.852</ele>
        <time>2016-05-07T01:58:22Z</time>
      </trkpt>
      <trkpt lat="42.48461" lon="1.63799">
        <ele>2223.191</ele>
        <time>2016-05-07T01:58:42Z</time>
      </trkpt>
      <trkpt lat="42.48477" lon="1.63809">
        <ele>2223.681</ele>
        <time>2016-05-07T01:59:02Z</time>
      </trkpt>
      <trkpt lat="42.48476" lon="1.63813">
        <ele>2223.119</ele>
        <time>2016-05-07T01:59:22Z</time>
      </trkpt>
      <trkpt lat="42.48479" lon="1.63823">
        <ele>2225.208</ele>
        <time>2016-05-07T01:59:42Z</time>
      </trkpt>
      <trkpt lat="42.48481" lon="1.6383">
        <ele>2226.15</ele>
        <time>2016-05-07T02:00:02Z</time>
      </trkpt>
      <trkpt lat="42.48478" lon="1.63838">
        <ele>2224.632</ele>
        <time>2016-05-07T02:00:22Z</time>
      </trkpt>
      <trkpt lat="42.48473" lon="1.63851">
        <ele>2222.82</ele>
        <time>2016-05-07T02:00:42Z</time>
      </trkpt>
      <trkpt lat="42.48475" lon="1.63856">
        <ele>2223.798</ele>
        <time>2016-05-07T02:01:02Z</time>
      </trkpt>
      <trkpt lat="42.48484" lon="1.63865">
        <ele>2227.176</ele>
        <time>2016-05-07T02:01:22Z</time>
      </trkpt>
      <trkpt lat="42.48489" lon="1.63874">
        <ele>2228.237</ele>
        <time>2016-05-07T02:01:42Z</time>
      </trkpt>
      <trkpt lat="42.48491" lon="1.6388">
        <ele>2228.485</ele>
        <time>2016-05-07T02:02:02Z</time>
      </trkpt>
      <trkpt lat="42.485" lon="1.63889">
        <ele>2229.033</ele>
        <time>2016-05-07T02:02:22Z</time>
      </trkpt>
      <trkpt lat="42.48505" lon="1.63895">
        <ele>2231.178</ele>
        <time>2016-05-07T02:02:42Z</time>
      </trkpt>
      <trkpt lat="42.48507" lon="1.63902">
        <ele>2232.233</ele>
        <time>2016-05-07T02:03:02Z</time>
      </trkpt>
      <trkpt lat="42.4851" lon="1.63909">
        <ele>2232.926</ele>
        <time>2016-05-07T02:03:22Z</time>
      </trkpt>
      <trkpt lat="42.48509" lon="1.63915">
        <ele>2232.308</ele>
        <time>2016-05-07T02:03:42Z</time>
      </trkpt>
      <trkpt lat="42.48507" lon="1.63918">
        <ele>2231.418</ele>
        <time>2016-05-07T02:04:02Z</time>
      </trkpt>
      <trkpt lat="42.48507" lon="1.63925">
        <ele>2231.32</ele>
        <time>2016-05-07T02:04:22Z</time>
      </trkpt>
      <trkpt lat="42.48508" lon="1.63933">
        <ele>2231.538</ele>
        <time>2016-05-07T02:04:42Z</time>
      </trkpt>
      <trkpt lat="42.48509" lon="1.63941">
        <ele>2231.856</ele>
        <time>2016-05-07T02:05:02Z</time>
      </trkpt>
      <trkpt lat="42.4851" lon="1.63948">
        <ele>2232.074</ele>
        <time>2016-05-07T02:05:22Z</time>
      </trkpt>
      <trkpt lat="42.4851" lon="1.63964">
        <ele>2232.415</ele>
        <time>2016-05-07T02:05:42Z</time>
      </trkpt>
      <trkpt lat="42.4851" lon="1.63969">
        <ele>2232.453</ele>
        <time>2016-05-07T02:06:02Z</time>
      </trkpt>
      <trkpt lat="42.48513" lon="1.63982">
        <ele>2233.691</ele>
        <time>2016-05-07T02:06:22Z</time>
      </trkpt>
      <trkpt lat="42.48512" lon="1.6399">
        <ele>2233.772</ele>
        <time>2016-05-07T02:06:42Z</time>
      </trkpt>
      <trkpt lat="42.48514" lon="1.64012">
        <ele>2235.013</ele>
        <time>2016-05-07T02:07:02Z</time>
      </trkpt>
      <trkpt lat="42.48515" lon="1.64027">
        <ele>2235.614</ele>
        <time>2016-05-07T02:07:22Z</time>
      </trkpt>
      <trkpt lat="42.48516" lon="1.64037">
        <ele>2236.408</ele>
        <time>2016-05-07T02:07:42Z</time>
      </trkpt>
      <trkpt lat="42.48529" lon="1.64054">
        <ele>2239.618</ele>
        <time>2016-05-07T02:08:02Z</time>
      </trkpt>
      <trkpt lat="42.48536" lon="1.64072">
        <ele>2242.74</ele>
        <time>2016-05-07T02:08:22Z</time>
      </trkpt>
      <trkpt lat="42.48547" lon="1.64096">
        <ele>2245.328</ele>
        <time>2016-05-07T02:08:42Z</time>
      </trkpt>
      <trkpt lat="42.48553" lon="1.64112">
        <ele>2246.576</ele>
        <time>2016-05-07T02:09:02Z</time>
      </trkpt>
      <trkpt lat="42.48555" lon="1.64122">
        <ele>2247.474</ele>
        <time>2016-05-07T02:09:22Z</time>
      </trkpt>
      <trkpt lat="42.48551" lon="1.64129">
        <ele>2246.725</ele>
        <time>2016-05-07T02:09:42Z</time>
      </trkpt>
      <trkpt lat="42.48554" lon="1.64144">
        <ele>2248.463</ele>
        <time>2016-05-07T02:10:02Z</time>
      </trkpt>
      <trkpt lat="42.48558" lon="1.64157">
        <ele>2251.261</ele>
        <time>2016-05-07T02:10:22Z</time>
      </trkpt>
      <trkpt lat="42.48562" lon="1.64166">
        <ele>2253.311</ele>
        <time>2016-05-07T02:10:42Z</time>
      </trkpt>
      <trkpt lat="42.48565" lon="1.64174">
        <ele>2254.321</ele>
        <time>2016-05-07T02:11:02Z</time>
      </trkpt>
      <trkpt lat="42.48575" lon="1.64191">
        <ele>2256.503</ele>
        <time>2016-05-07T02:11:22Z</time>
      </trkpt>
      <trkpt lat="42.48586" lon="1.64205">
        <ele>2258.008</ele>
        <time>2016-05-07T02:11:42Z</time>
      </trkpt>
      <trkpt lat="42.48592" lon="1.64214">
        <ele>2258.772</ele>
        <time>2016-05-07T02:12:02Z</time>
      </trkpt>
      <trkpt lat="42.4859" lon="1.6422">
        <ele>2258.034</ele>
        <time>2016-05-07T02:12:22Z</time>
      </trkpt>
      <trkpt lat="42.48587" lon="1.64228">
        <ele>2258.022</ele>
        <time>2016-05-07T02:12:42Z</time>
      </trkpt>
      <trkpt lat="42.48586" lon="1.64242">
        <ele>2258.82</ele>
        <time>2016-05-07T02:13:02Z</time>
      </trkpt>
      <trkpt lat="42.48587" lon="1.64251">
        <ele>2259.648</ele>
        <time>2016-05-07T02:13:22Z</time>
      </trkpt>
      <trkpt lat="42.48589" lon="1.64261">
        <ele>2260.989</ele>
        <time>2016-05-07T02:13:42Z</time>
      </trkpt>
      <trkpt lat="42.48589" lon="1.64269">
        <ele>2261.797</ele>
        <time>2016-05-07T02:14:02Z</time>
      </trkpt>
      <trkpt lat="42.4859" lon="1.64277">
        <ele>2262.675</ele>
        <time>2016-05-07T02:14:22Z</time>
      </trkpt>
      <trkpt lat="42.48593" lon="1.64282">
        <ele>2263.429</ele>
        <time>2016-05-07T02:14:42Z</time>
      </trkpt>
      <trkpt lat="42.48591" lon="1.64288">
        <ele>2263.8</ele>
        <time>2016-05-07T02:15:02Z</time>
      </trkpt>
      <trkpt lat="42.48589" lon="1.64295">
        <ele>2264.42</ele>
        <time>2016-05-07T02:15:22Z</time>
      </trkpt>
      <trkpt lat="42.48587" lon="1.64308">
        <ele>2265.508</ele>
        <time>2016-05-07T02:15:42Z</time>
      </trkpt>
      <trkpt lat="42.48584" lon="1.64316">
        <ele>2266.243</ele>
        <time>2016-05-07T02:16:02Z</time>
      </trkpt>
      <trkpt lat="42.48582" lon="1.64326">
        <ele>2267.155</ele>
        <time>2016-05-07T02:16:22Z</time>
      </trkpt>
      <trkpt lat="42.48579" lon="1.64336">
        <ele>2268.063</ele>
        <time>2016-05-07T02:16:42Z</time>
      </trkpt>
      <trkpt lat="42.48576" lon="1.64347">
        <ele>2269.391</ele>
        <time>2016-05-07T02:17:02Z</time>
      </trkpt>
      <trkpt lat="42.48574" lon="1.64354">
        <ele>2270.089</ele>
        <time>2016-05-07T02:17:22Z</time>
      </trkpt>
      <trkpt lat="42.48566" lon="1.64361">
        <ele>2270.21</ele>
        <time>2016-05-07T02:17:42Z</time>
      </trkpt>
      <trkpt lat="42.48555" lon="1.6437">
        <ele>2271.238</ele>
        <time>2016-05-07T02:18:02Z</time>
      </trkpt>
      <trkpt lat="42.48543" lon="1.6438">
        <ele>2273.656</ele>
        <time>2016-05-07T02:18:22Z</time>
      </trkpt>
      <trkpt lat="42.48538" lon="1.64385">
        <ele>2274.946</ele>
        <time>2016-05-07T02:18:42Z</time>
      </trkpt>
      <trkpt lat="42.48537" lon="1.64394">
        <ele>2277.288</ele>
        <time>2016-05-07T02:19:02Z</time>
      </trkpt>
      <trkpt lat="42.48529" lon="1.64394">
        <ele>2277.216</ele>
        <time>2016-05-07T02:19:22Z</time>
      </trkpt>
      <trkpt lat="42.4852" lon="1.644">
        <ele>2279.208</ele>
        <time>2016-05-07T02:19:42Z</time>
      </trkpt>
      <trkpt lat="42.48503" lon="1.64408">
        <ele>2283.135</ele>
        <time>2016-05-07T02:20:02Z</time>
      </trkpt>
      <trkpt lat="42.48496" lon="1.64416">
        <ele>2285.587</ele>
        <time>2016-05-07T02:20:22Z</time>
      </trkpt>
      <trkpt lat="42.48489" lon="1.6442">
        <ele>2286.245</ele>
        <time>2016-05-07T02:20:42Z</time>
      </trkpt>
      <trkpt lat="42.48484" lon="1.64427">
        <ele>2287.213</ele>
        <time>2016-05-07T02:21:02Z</time>
      </trkpt>
      <trkpt lat="42.48482" lon="1.64434">
        <ele>2288.071</ele>
        <time>2016-05-07T02:21:22Z</time>
      </trkpt>
      <trkpt lat="42.48479" lon="1.64442">
        <ele>2288.812</ele>
        <time>2016-05-07T02:21:42Z</time>
      </trkpt>
      <trkpt lat="42.48476" lon="1.6445">
        <ele>2289.35</ele>
        <time>2016-05-07T02:22:02Z</time>
      </trkpt>
      <trkpt lat="42.48474" lon="1.64456">
        <ele>2289.528</ele>
        <time>2016-05-07T02:22:22Z</time>
      </trkpt>
      <trkpt lat="42.48478" lon="1.64466">
        <ele>2291.674</ele>
        <time>2016-05-07T02:22:42Z</time>
      </trkpt>
      <trkpt lat="42.4848" lon="1.64471">
        <ele>2292.456</ele>
        <time>2016-05-07T02:23:02Z</time>
      </trkpt>
      <trkpt lat="42.48478" lon="1.64474">
        <ele>2292.521</ele>
        <time>2016-05-07T02:23:22Z</time>
      </trkpt>
      <trkpt lat="42.48481" lon="1.64481">
        <ele>2293.708</ele>
        <time>2016-05-07T02:23:42Z</time>
      </trkpt>
      <trkpt lat="42.4848" lon="1.64485">
        <ele>2293.818</ele>
        <time>2016-05-07T02:24:02Z</time>
      </trkpt>
      <trkpt lat="42.4848" lon="1.64497">
        <ele>2295.24</ele>
        <time>2016-05-07T02:24:22Z</time>
      </trkpt>
      <trkpt lat="42.48479" lon="1.645">
        <ele>2295.338</ele>
        <time>2016-05-07T02:24:42Z</time>
      </trkpt>
      <trkpt lat="42.48481" lon="1.64506">
        <ele>2296.486</ele>
        <time>2016-05-07T02:25:02Z</time>
      </trkpt>
      <trkpt lat="42.48481" lon="1.64511">
        <ele>2296.954</ele>
        <time>2016-05-07T02:25:22Z</time>
      </trkpt>
      <trkpt lat="42.48483" lon="1.64509">
        <ele>2297.495</ele>
        <time>2016-05-07T02:25:42Z</time>
      </trkpt>
      <trkpt lat="42.48488" lon="1.64503">
        <ele>2298.573</ele>
        <time>2016-05-07T02:26:02Z</time>
      </trkpt>
      <trkpt lat="42.4849" lon="1.64503">
        <ele>2299.261</ele>
        <time>2016-05-07T02:26:22Z</time>
      </trkpt>
      <trkpt lat="42.48495" lon="1.64505">
        <ele>2301.128</ele>
        <time>2016-05-07T02:26:42Z</time>
      </trkpt>
      <trkpt lat="42.48498" lon="1.64516">
        <ele>2304.389</ele>
        <time>2016-05-07T02:27:02Z</time>
      </trkpt>
      <trkpt lat="42.485" lon="1.64521">
        <ele>2305.817</ele>
        <time>2016-05-07T02:27:22Z</time>
      </trkpt>
      <trkpt lat="42.485" lon="1.64529">
        <ele>2307.108</ele>
        <time>2016-05-07T02:27:42Z</time>
      </trkpt>
      <trkpt lat="42.485" lon="1.64535">
        <ele>2307.653</ele>
        <time>2016-05-07T02:28:02Z</time>
      </trkpt>
      <trkpt lat="42.48501" lon="1.64541">
        <ele>2308.515</ele>
        <time>2016-05-07T02:28:22Z</time>
      </trkpt>
      <trkpt lat="42.48502" lon="1.64546">
        <ele>2309.173</ele>
        <time>2016-05-07T02:28:42Z</time>
      </trkpt>
      <trkpt lat="42.485" lon="1.64549">
        <ele>2309.241</ele>
        <time>2016-05-07T02:29:02Z</time>
      </trkpt>
      <trkpt lat="42.48498" lon="1.64552">
        <ele>2308.899</ele>
        <time>2016-05-07T02:29:22Z</time>
      </trkpt>
      <trkpt lat="42.48498" lon="1.64561">
        <ele>2309.63</ele>
        <time>2016-05-07T02:29:42Z</time>
      </trkpt>
      <trkpt lat="42.48494" lon="1.64569">
        <ele>2307.878</ele>
        <time>2016-05-07T02:30:02Z</time>
      </trkpt>
      <trkpt lat="42.48506" lon="1.6458">
        <ele>2312.816</ele>
        <time>2016-05-07T02:30:22Z</time>
      </trkpt>
      <trkpt lat="42.48516" lon="1.64588">
        <ele>2315.211</ele>
        <time>2016-05-07T02:30:42Z</time>
      </trkpt>
      <trkpt lat="42.48521" lon="1.646">
        <ele>2317.421</ele>
        <time>2016-05-07T02:31:02Z</time>
      </trkpt>
      <trkpt lat="42.48525" lon="1.64613">
        <ele>2319.503</ele>
        <time>2016-05-07T02:31:22Z</time>
      </trkpt>
      <trkpt lat="42.48531" lon="1.64624">
        <ele>2321.008</ele>
        <time>2016-05-07T02:31:42Z</time>
      </trkpt>
      <trkpt lat="42.48539" lon="1.6462">
        <ele>2322.112</ele>
        <time>2016-05-07T02:32:02Z</time>
      </trkpt>
      <trkpt lat="42.48547" lon="1.64616">
        <ele>2323.494</ele>
        <time>2016-05-07T02:32:22Z</time>
      </trkpt>
      <trkpt lat="42.4855" lon="1.64607">
        <ele>2323.642</ele>
        <time>2016-05-07T02:32:42Z</time>
      </trkpt>
      <trkpt lat="42.48557" lon="1.64599">
        <ele>2324.18</ele>
        <time>2016-05-07T02:33:02Z</time>
      </trkpt>
      <trkpt lat="42.48571" lon="1.64594">
        <ele>2326.498</ele>
        <time>2016-05-07T02:33:22Z</time>
      </trkpt>
      <trkpt lat="42.48576" lon="1.64591">
        <ele>2327.379</ele>
        <time>2016-05-07T02:33:42Z</time>
      </trkpt>
      <trkpt lat="42.4859" lon="1.64591">
        <ele>2330.067</ele>
        <time>2016-05-07T02:34:02Z</time>
      </trkpt>
      <trkpt lat="42.48595" lon="1.64598">
        <ele>2331.745</ele>
        <time>2016-05-07T02:34:22Z</time>
      </trkpt>
      <trkpt lat="42.48603" lon="1.64607">
        <ele>2333.698</ele>
        <time>2016-05-07T02:34:42Z</time>
      </trkpt>
      <trkpt lat="42.4861" lon="1.64611">
        <ele>2334.915</ele>
        <time>2016-05-07T02:35:02Z</time>
      </trkpt>
      <trkpt lat="42.48619" lon="1.64616">
        <ele>2336.226</ele>
        <time>2016-05-07T02:35:22Z</time>
      </trkpt>
      <trkpt lat="42.48622" lon="1.64614">
        <ele>2336.608</ele>
        <time>2016-05-07T02:35:42Z</time>
      </trkpt>
      <trkpt lat="42.48637" lon="1.64607">
        <ele>2338.84</ele>
        <time>2016-05-07T02:36:02Z</time>
      </trkpt>
      <trkpt lat="42.48647" lon="1.64596">
        <ele>2340.282</ele>
        <time>2016-05-07T02:36:22Z</time>
      </trkpt>
      <trkpt lat="42.4865" lon="1.64593">
        <ele>2340.65</ele>
        <time>2016-05-07T02:36:42Z</time>
      </trkpt>
      <trkpt lat="42.48656" lon="1.64594">
        <ele>2341.558</ele>
        <time>2016-05-07T02:37:02Z</time>
      </trkpt>
      <trkpt lat="42.48665" lon="1.64604">
        <ele>2344.086</ele>
        <time>2016-05-07T02:37:22Z</time>
      </trkpt>
      <trkpt lat="42.48669" lon="1.64613">
        <ele>2345.677</ele>
        <time>2016-05-07T02:37:42Z</time>
      </trkpt>
      <trkpt lat="42.48677" lon="1.64606">
        <ele>2345.955</ele>
        <time>2016-05-07T02:38:02Z</time>
      </trkpt>
      <trkpt lat="42.48685" lon="1.6461">
        <ele>2347.593</ele>
        <time>2016-05-07T02:38:22Z</time>
      </trkpt>
      <trkpt lat="42.48693" lon="1.64615">
        <ele>2349.295</ele>
        <time>2016-05-07T02:38:42Z</time>
      </trkpt>
      <trkpt lat="42.48697" lon="1.6462">
        <ele>2350.449</ele>
        <time>2016-05-07T02:39:02Z</time>
      </trkpt>
      <trkpt lat="42.48701" lon="1.64634">
        <ele>2352.723</ele>
        <time>2016-05-07T02:39:22Z</time>
      </trkpt>
      <trkpt lat="42.48714" lon="1.64651">
        <ele>2356.908</ele>
        <time>2016-05-07T02:39:42Z</time>
      </trkpt>
      <trkpt lat="42.48716" lon="1.64652">
        <ele>2357.48</ele>
        <time>2016-05-07T02:40:02Z</time>
      </trkpt>
      <trkpt lat="42.48717" lon="1.64659">
        <ele>2358.452</ele>
        <time>2016-05-07T02:40:22Z</time>
      </trkpt>
      <trkpt lat="42.48719" lon="1.64672">
        <ele>2360.15</ele>
        <time>2016-05-07T02:40:42Z</time>
      </trkpt>
      <trkpt lat="42.48718" lon="1.64683">
        <ele>2361.228</ele>
        <time>2016-05-07T02:41:02Z</time>
      </trkpt>
      <trkpt lat="42.48718" lon="1.64693">
        <ele>2362.466</ele>
        <time>2016-05-07T02:41:22Z</time>
      </trkpt>
      <trkpt lat="42.48732" lon="1.64707">
        <ele>2368.217</ele>
        <time>2016-05-07T02:41:42Z</time>
      </trkpt>
      <trkpt lat="42.48745" lon="1.64709">
        <ele>2371.925</ele>
        <time>2016-05-07T02:42:02Z</time>
      </trkpt>
      <trkpt lat="42.48758" lon="1.64711">
        <ele>2375.093</ele>
        <time>2016-05-07T02:42:22Z</time>
      </trkpt>
      <trkpt lat="42.48772" lon="1.64707">
        <ele>2377.983</ele>
        <time>2016-05-07T02:42:42Z</time>
      </trkpt>
      <trkpt lat="42.4878" lon="1.64705">
        <ele>2379.225</ele>
        <time>2016-05-07T02:43:02Z</time>
      </trkpt>
      <trkpt lat="42.4879" lon="1.64696">
        <ele>2379.117</ele>
        <time>2016-05-07T02:43:22Z</time>
      </trkpt>
      <trkpt lat="42.48798" lon="1.64696">
        <ele>2379.208</ele>
        <time>2016-05-07T02:43:42Z</time>
      </trkpt>
      <trkpt lat="42.48806" lon="1.647">
        <ele>2380.059</ele>
        <time>2016-05-07T02:44:02Z</time>
      </trkpt>
      <trkpt lat="42.48815" lon="1.6471">
        <ele>2381.341</ele>
        <time>2016-05-07T02:44:22Z</time>
      </trkpt>
      <trkpt lat="42.48823" lon="1.6472">
        <ele>2381.949</ele>
        <time>2016-05-07T02:44:42Z</time>
      </trkpt>
      <trkpt lat="42.48825" lon="1.64722">
        <ele>2382.067</ele>
        <time>2016-05-07T02:45:02Z</time>
      </trkpt>
      <trkpt lat="42.48832" lon="1.64728">
        <ele>2383.045</ele>
        <time>2016-05-07T02:45:22Z</time>
      </trkpt>
      <trkpt lat="42.4884" lon="1.64736">
        <ele>2384.376</ele>
        <time>2016-05-07T02:45:42Z</time>
      </trkpt>
      <trkpt lat="42.48852" lon="1.64755">
        <ele>2386.274</ele>
        <time>2016-05-07T02:46:02Z</time>
      </trkpt>
      <trkpt lat="42.48862" lon="1.64777">
        <ele>2386.952</ele>
        <time>2016-05-07T02:46:22Z</time>
      </trkpt>
      <trkpt lat="42.48864" lon="1.64789">
        <ele>2390.242</ele>
        <time>2016-05-07T02:46:42Z</time>
      </trkpt>
      <trkpt lat="42.48872" lon="1.64797">
        <ele>2391.722</ele>
        <time>2016-05-07T02:47:02Z</time>
      </trkpt>
      <trkpt lat="42.48885" lon="1.64805">
        <ele>2392.414</ele>
        <time>2016-05-07T02:47:22Z</time>
      </trkpt>
      <trkpt lat="42.489" lon="1.648">
        <ele>2394.108</ele>
        <time>2016-05-07T02:47:42Z</time>
      </trkpt>
      <trkpt lat="42.48904" lon="1.64796">
        <ele>2394.545</ele>
        <time>2016-05-07T02:48:02Z</time>
      </trkpt>
      <trkpt lat="42.48911" lon="1.64784">
        <ele>2394.957</ele>
        <time>2016-05-07T02:48:22Z</time>
      </trkpt>
      <trkpt lat="42.48917" lon="1.64771">
        <ele>2395.655</ele>
        <time>2016-05-07T02:48:42Z</time>
      </trkpt>
      <trkpt lat="42.48919" lon="1.64763">
        <ele>2395.733</ele>
        <time>2016-05-07T02:49:02Z</time>
      </trkpt>
      <trkpt lat="42.48922" lon="1.64745">
        <ele>2395.021</ele>
        <time>2016-05-07T02:49:22Z</time>
      </trkpt>
      <trkpt lat="42.48923" lon="1.64731">
        <ele>2394.412</ele>
        <time>2016-05-07T02:49:42Z</time>
      </trkpt>
      <trkpt lat="42.48925" lon="1.64728">
        <ele>2394.67</ele>
        <time>2016-05-07T02:50:02Z</time>
      </trkpt>
      <trkpt lat="42.48946" lon="1.64731">
        <ele>2400.368</ele>
        <time>2016-05-07T02:50:22Z</time>
      </trkpt>
      <trkpt lat="42.48957" lon="1.64732">
        <ele>2403.238</ele>
        <time>2016-05-07T02:50:42Z</time>
      </trkpt>
      <trkpt lat="42.4897" lon="1.64746">
        <ele>2407.97</ele>
        <time>2016-05-07T02:51:02Z</time>
      </trkpt>
      <trkpt lat="42.4898" lon="1.6475">
        <ele>2411.117</ele>
        <time>2016-05-07T02:51:22Z</time>
      </trkpt>
      <trkpt lat="42.48989" lon="1.64754">
        <ele>2414.208</ele>
        <time>2016-05-07T02:51:42Z</time>
      </trkpt>
      <trkpt lat="42.49001" lon="1.64765">
        <ele>2419.244</ele>
        <time>2016-05-07T02:52:02Z</time>
      </trkpt>
      <trkpt lat="42.49019" lon="1.64765">
        <ele>2419.856</ele>
        <time>2016-05-07T02:52:22Z</time>
      </trkpt>
      <trkpt lat="42.49026" lon="1.64771">
        <ele>2420.034</ele>
        <time>2016-05-07T02:52:42Z</time>
      </trkpt>
      <trkpt lat="42.49029" lon="1.64777">
        <ele>2420.222</ele>
        <time>2016-05-07T02:53:02Z</time>
      </trkpt>
      <trkpt lat="42.49032" lon="1.6479">
        <ele>2420.48</ele>
        <time>2016-05-07T02:53:22Z</time>
      </trkpt>
      <trkpt lat="42.49034" lon="1.64804">
        <ele>2421.151</ele>
        <time>2016-05-07T02:53:42Z</time>
      </trkpt>
      <trkpt lat="42.49041" lon="1.64831">
        <ele>2424.229</ele>
        <time>2016-05-07T02:54:02Z</time>
      </trkpt>
      <trkpt lat="42.49047" lon="1.64844">
        <ele>2424.987</ele>
        <time>2016-05-07T02:54:22Z</time>
      </trkpt>
      <trkpt lat="42.49054" lon="1.64861">
        <ele>2423.833</ele>
        <time>2016-05-07T02:54:42Z</time>
      </trkpt>
      <trkpt lat="42.49062" lon="1.64874">
        <ele>2424.023</ele>
        <time>2016-05-07T02:55:02Z</time>
      </trkpt>
      <trkpt lat="42.4907" lon="1.64882">
        <ele>2425.015</ele>
        <time>2016-05-07T02:55:22Z</time>
      </trkpt>
      <trkpt lat="42.49073" lon="1.64889">
        <ele>2424.808</ele>
        <time>2016-05-07T02:55:42Z</time>
      </trkpt>
      <trkpt lat="42.49081" lon="1.64914">
        <ele>2424.724</ele>
        <time>2016-05-07T02:56:02Z</time>
      </trkpt>
      <trkpt lat="42.49084" lon="1.64926">
        <ele>2424.756</ele>
        <time>2016-05-07T02:56:22Z</time>
      </trkpt>
      <trkpt lat="42.49089" lon="1.64935">
        <ele>2425.714</ele>
        <time>2016-05-07T02:56:42Z</time>
      </trkpt>
      <trkpt lat="42.49088" lon="1.6495">
        <ele>2425.052</ele>
        <time>2016-05-07T02:57:02Z</time>
      </trkpt>
      <trkpt lat="42.49085" lon="1.64959">
        <ele>2424.04</ele>
        <time>2016-05-07T02:57:22Z</time>
      </trkpt>
      <trkpt lat="42.49086" lon="1.64968">
        <ele>2425.241</ele>
        <time>2016-05-07T02:57:42Z</time>
      </trkpt>
      <trkpt lat="42.4909" lon="1.64976">
        <ele>2427.129</ele>
        <time>2016-05-07T02:58:02Z</time>
      </trkpt>
      <trkpt lat="42.49095" lon="1.64985">
        <ele>2428.937</ele>
        <time>2016-05-07T02:58:22Z</time>
      </trkpt>
      <trkpt lat="42.491" lon="1.64992">
        <ele>2430.632</ele>
        <time>2016-05-07T02:58:42Z</time>
      </trkpt>
      <trkpt lat="42.49106" lon="1.64998">
        <ele>2432.892</ele>
        <time>2016-05-07T02:59:02Z</time>
      </trkpt>
      <trkpt lat="42.49109" lon="1.6501">
        <ele>2433.811</ele>
        <time>2016-05-07T02:59:22Z</time>
      </trkpt>
      <trkpt lat="42.49112" lon="1.6503">
        <ele>2434.308</ele>
        <time>2016-05-07T02:59:42Z</time>
      </trkpt>
      <trkpt lat="42.49115" lon="1.65041">
        <ele>2435.124</ele>
        <time>2016-05-07T03:00:02Z</time>
      </trkpt>
      <trkpt lat="42.49117" lon="1.65055">
        <ele>2435.946</ele>
        <time>2016-05-07T03:00:22Z</time>
      </trkpt>
      <trkpt lat="42.49119" lon="1.65065">
        <ele>2436.824</ele>
        <time>2016-05-07T03:00:42Z</time>
      </trkpt>
      <trkpt lat="42.49115" lon="1.65071">
        <ele>2436.982</ele>
        <time>2016-05-07T03:01:02Z</time>
      </trkpt>
      <trkpt lat="42.49112" lon="1.65079">
        <ele>2437.64</ele>
        <time>2016-05-07T03:01:22Z</time>
      </trkpt>
      <trkpt lat="42.49111" lon="1.65087">
        <ele>2438.111</ele>
        <time>2016-05-07T03:01:42Z</time>
      </trkpt>
      <trkpt lat="42.4911" lon="1.65099">
        <ele>2438.539</ele>
        <time>2016-05-07T03:02:02Z</time>
      </trkpt>
      <trkpt lat="42.49111" lon="1.65109">
        <ele>2438.967</ele>
        <time>2016-05-07T03:02:22Z</time>
      </trkpt>
      <trkpt lat="42.49114" lon="1.65116">
        <ele>2439.195</ele>
        <time>2016-05-07T03:02:42Z</time>
      </trkpt>
      <trkpt lat="42.49124" lon="1.65116">
        <ele>2439.449</ele>
        <time>2016-05-07T03:03:02Z</time>
      </trkpt>
      <trkpt lat="42.49131" lon="1.65115">
        <ele>2439.723</ele>
        <time>2016-05-07T03:03:22Z</time>
      </trkpt>
      <trkpt lat="42.49139" lon="1.65114">
        <ele>2440.008</ele>
        <time>2016-05-07T03:03:42Z</time>
      </trkpt>
      <trkpt lat="42.4915" lon="1.65114">
        <ele>2440.77</ele>
        <time>2016-05-07T03:04:02Z</time>
      </trkpt>
      <trkpt lat="42.49158" lon="1.65115">
        <ele>2441.392</ele>
        <time>2016-05-07T03:04:22Z</time>
      </trkpt>
      <trkpt lat="42.49165" lon="1.65117">
        <ele>2441.76</ele>
        <time>2016-05-07T03:04:42Z</time>
      </trkpt>
      <trkpt lat="42.4917" lon="1.6512">
        <ele>2442.268</ele>
        <time>2016-05-07T03:05:02Z</time>
      </trkpt>
      <trkpt lat="42.49176" lon="1.65125">
        <ele>2442.816</ele>
        <time>2016-05-07T03:05:22Z</time>
      </trkpt>
      <trkpt lat="42.49181" lon="1.6513">
        <ele>2443.247</ele>
        <time>2016-05-07T03:05:42Z</time>
      </trkpt>
      <trkpt lat="42.49185" lon="1.6514">
        <ele>2442.955</ele>
        <time>2016-05-07T03:06:02Z</time>
      </trkpt>
      <trkpt lat="42.49192" lon="1.65146">
        <ele>2443.363</ele>
        <time>2016-05-07T03:06:22Z</time>
      </trkpt>
      <trkpt lat="42.49195" lon="1.65147">
        <ele>2443.443</ele>
        <time>2016-05-07T03:06:42Z</time>
      </trkpt>
      <trkpt lat="42.49206" lon="1.65157">
        <ele>2442.464</ele>
        <time>2016-05-07T03:07:02Z</time>
      </trkpt>
      <trkpt lat="42.49222" lon="1.65168">
        <ele>2441.01</ele>
        <time>2016-05-07T03:07:22Z</time>
      </trkpt>
      <trkpt lat="42.49235" lon="1.65183">
        <ele>2443.008</ele>
        <time>2016-05-07T03:07:42Z</time>
      </trkpt>
      <trkpt lat="42.4924" lon="1.65185">
        <ele>2443.885</ele>
        <time>2016-05-07T03:08:02Z</time>
      </trkpt>
      <trkpt lat="42.49249" lon="1.65177">
        <ele>2446.837</ele>
        <time>2016-05-07T03:08:22Z</time>
      </trkpt>
      <trkpt lat="42.49259" lon="1.65161">
        <ele>2448.645</ele>
        <time>2016-05-07T03:08:42Z</time>
      </trkpt>
      <trkpt lat="42.49263" lon="1.65151">
        <ele>2450.043</ele>
        <time>2016-05-07T03:09:02Z</time>
      </trkpt>
      <trkpt lat="42.4927" lon="1.65141">
        <ele>2451.451</ele>
        <time>2016-05-07T03:09:22Z</time>
      </trkpt>
      <trkpt lat="42.49275" lon="1.65135">
        <ele>2452.272</ele>
        <time>2016-05-07T03:09:42Z</time>
      </trkpt>
      <trkpt lat="42.49289" lon="1.6513">
        <ele>2452.03</ele>
        <time>2016-05-07T03:10:02Z</time>
      </trkpt>
      <trkpt lat="42.49301" lon="1.65126">
        <ele>2452.088</ele>
        <time>2016-05-07T03:10:22Z</time>
      </trkpt>
      <trkpt lat="42.49312" lon="1.65121">
        <ele>2452.936</ele>
        <time>2016-05-07T03:10:42Z</time>
      </trkpt>
      <trkpt lat="42.49324" lon="1.65118">
        <ele>2453.917</ele>
        <time>2016-05-07T03:11:02Z</time>
      </trkpt>
      <trkpt lat="42.49334" lon="1.65116">
        <ele>2454.418</ele>
        <time>2016-05-07T03:11:22Z</time>
      </trkpt>
      <trkpt lat="42.49344" lon="1.65114">
        <ele>2454.708</ele>
        <time>2016-05-07T03:11:42Z</time>
      </trkpt>
      <trkpt lat="42.4935" lon="1.65114">
        <ele>2454.824</ele>
        <time>2016-05-07T03:12:02Z</time>
      </trkpt>
      <trkpt lat="42.49354" lon="1.65123">
        <ele>2454.426</ele>
        <time>2016-05-07T03:12:22Z</time>
      </trkpt>
      <trkpt lat="42.49359" lon="1.65131">
        <ele>2454.214</ele>
        <time>2016-05-07T03:12:42Z</time>
      </trkpt>
      <trkpt lat="42.49362" lon="1.65136">
        <ele>2454.342</ele>
        <time>2016-05-07T03:13:02Z</time>
      </trkpt>
      <trkpt lat="42.49356" lon="1.65149">
        <ele>2454.87</ele>
        <time>2016-05-07T03:13:22Z</time>
      </trkpt>
      <trkpt lat="42.49351" lon="1.65154">
        <ele>2455.451</ele>
        <time>2016-05-07T03:13:42Z</time>
      </trkpt>
      <trkpt lat="42.49348" lon="1.65159">
        <ele>2455.969</ele>
        <time>2016-05-07T03:14:02Z</time>
      </trkpt>
      <trkpt lat="42.49342" lon="1.6516">
        <ele>2456.077</ele>
        <time>2016-05-07T03:14:22Z</time>
      </trkpt>
      <trkpt lat="42.49324" lon="1.65187">
        <ele>2459.543</ele>
        <time>2016-05-07T03:14:42Z</time>
      </trkpt>
      <trkpt lat="42.49318" lon="1.65198">
        <ele>2460.264</ele>
        <time>2016-05-07T03:15:02Z</time>
      </trkpt>
      <trkpt lat="42.49313" lon="1.65216">
        <ele>2462.51</ele>
        <time>2016-05-07T03:15:22Z</time>
      </trkpt>
      <trkpt lat="42.49331" lon="1.6521">
        <ele>2464.208</ele>
        <time>2016-05-07T03:15:42Z</time>
      </trkpt>
      <trkpt lat="42.49336" lon="1.65212">
        <ele>2465.075</ele>
        <time>2016-05-07T03:16:02Z</time>
      </trkpt>
      <trkpt lat="42.4934" lon="1.65218">
        <ele>2465.727</ele>
        <time>2016-05-07T03:16:22Z</time>
      </trkpt>
      <trkpt lat="42.49346" lon="1.65219">
        <ele>2466.095</ele>
        <time>2016-05-07T03:16:42Z</time>
      </trkpt>
      <trkpt lat="42.49351" lon="1.65223">
        <ele>2466.843</ele>
        <time>2016-05-07T03:17:02Z</time>
      </trkpt>
      <trkpt lat="42.49352" lon="1.65229">
        <ele>2467.571</ele>
        <time>2016-05-07T03:17:22Z</time>
      </trkpt>
      <trkpt lat="42.49359" lon="1.65244">
        <ele>2469.312</ele>
        <time>2016-05-07T03:17:42Z</time>
      </trkpt>
      <trkpt lat="42.4936" lon="1.65261">
        <ele>2471.21</ele>
        <time>2016-05-07T03:18:02Z</time>
      </trkpt>
      <trkpt lat="42.49361" lon="1.65272">
        <ele>2472.438</ele>
        <time>2016-05-07T03:18:22Z</time>
      </trkpt>
      <trkpt lat="42.49365" lon="1.6528">
        <ele>2473.131</ele>
        <time>2016-05-07T03:18:42Z</time>
      </trkpt>
      <trkpt lat="42.49371" lon="1.65292">
        <ele>2474.561</ele>
        <time>2016-05-07T03:19:02Z</time>
      </trkpt>
      <trkpt lat="42.49377" lon="1.653">
        <ele>2475.507</ele>
        <time>2016-05-07T03:19:22Z</time>
      </trkpt>
      <trkpt lat="42.49381" lon="1.6531">
        <ele>2477.108</ele>
        <time>2016-05-07T03:19:42Z</time>
      </trkpt>
      <trkpt lat="42.49388" lon="1.6532">
        <ele>2478.724</ele>
        <time>2016-05-07T03:20:02Z</time>
      </trkpt>
      <trkpt lat="42.49393" lon="1.65331">
        <ele>2480.346</ele>
        <time>2016-05-07T03:20:22Z</time>
      </trkpt>
      <trkpt lat="42.494" lon="1.65343">
        <ele>2480.954</ele>
        <time>2016-05-07T03:20:42Z</time>
      </trkpt>
      <trkpt lat="42.49407" lon="1.65352">
        <ele>2480.332</ele>
        <time>2016-05-07T03:21:02Z</time>
      </trkpt>
      <trkpt lat="42.49409" lon="1.65359">
        <ele>2480.08</ele>
        <time>2016-05-07T03:21:22Z</time>
      </trkpt>
      <trkpt lat="42.49409" lon="1.65379">
        <ele>2479.111</ele>
        <time>2016-05-07T03:21:42Z</time>
      </trkpt>
      <trkpt lat="42.49406" lon="1.65393">
        <ele>2479.479</ele>
        <time>2016-05-07T03:22:02Z</time>
      </trkpt>
      <trkpt lat="42.49404" lon="1.65412">
        <ele>2479.877</ele>
        <time>2016-05-07T03:22:22Z</time>
      </trkpt>
      <trkpt lat="42.49404" lon="1.6543">
        <ele>2479.712</ele>
        <time>2016-05-07T03:22:42Z</time>
      </trkpt>
      <trkpt lat="42.49415" lon="1.65437">
        <ele>2479.132</ele>
        <time>2016-05-07T03:23:02Z</time>
      </trkpt>
      <trkpt lat="42.49421" lon="1.65441">
        <ele>2478.705</ele>
        <time>2016-05-07T03:23:22Z</time>
      </trkpt>
      <trkpt lat="42.49429" lon="1.65445">
        <ele>2478.208</ele>
        <time>2016-05-07T03:23:42Z</time>
      </trkpt>
      <trkpt lat="42.49436" lon="1.6545">
        <ele>2477.732</ele>
        <time>2016-05-07T03:24:02Z</time>
      </trkpt>
      <trkpt lat="42.49439" lon="1.65473">
        <ele>2477.394</ele>
        <time>2016-05-07T03:24:22Z</time>
      </trkpt>
      <trkpt lat="42.49437" lon="1.65482">
        <ele>2477.872</ele>
        <time>2016-05-07T03:24:42Z</time>
      </trkpt>
      <trkpt lat="42.49432" lon="1.65496">
        <ele>2479.01</ele>
        <time>2016-05-07T03:25:02Z</time>
      </trkpt>
      <trkpt lat="42.49427" lon="1.65506">
        <ele>2480.428</ele>
        <time>2016-05-07T03:25:22Z</time>
      </trkpt>
      <trkpt lat="42.49428" lon="1.65518">
        <ele>2479.769</ele>
        <time>2016-05-07T03:25:42Z</time>
      </trkpt>
      <trkpt lat="42.49428" lon="1.65521">
        <ele>2479.637</ele>
        <time>2016-05-07T03:26:02Z</time>
      </trkpt>
      <trkpt lat="42.49436" lon="1.65541">
        <ele>2478.215</ele>
        <time>2016-05-07T03:26:22Z</time>
      </trkpt>
      <trkpt lat="42.49449" lon="1.65557">
        <ele>2477.467</ele>
        <time>2016-05-07T03:26:42Z</time>
      </trkpt>
      <trkpt lat="42.49463" lon="1.65573">
        <ele>2475.681</ele>
        <time>2016-05-07T03:27:02Z</time>
      </trkpt>
      <trkpt lat="42.49474" lon="1.65592">
        <ele>2475.119</ele>
        <time>2016-05-07T03:27:22Z</time>
      </trkpt>
      <trkpt lat="42.49478" lon="1.65599">
        <ele>2475.708</ele>
        <time>2016-05-07T03:27:42Z</time>
      </trkpt>
      <trkpt lat="42.49484" lon="1.65605">
        <ele>2476.817</ele>
        <time>2016-05-07T03:28:02Z</time>
      </trkpt>
      <trkpt lat="42.49489" lon="1.6561">
        <ele>2477.939</ele>
        <time>2016-05-07T03:28:22Z</time>
      </trkpt>
      <trkpt lat="42.49491" lon="1.65616">
        <ele>2478.987</ele>
        <time>2016-05-07T03:28:42Z</time>
      </trkpt>
      <trkpt lat="42.49493" lon="1.65625">
        <ele>2480.555</ele>
        <time>2016-05-07T03:29:02Z</time>
      </trkpt>
      <trkpt lat="42.49493" lon="1.65636">
        <ele>2482.023</ele>
        <time>2016-05-07T03:29:22Z</time>
      </trkpt>
      <trkpt lat="42.49494" lon="1.65645">
        <ele>2483.454</ele>
        <time>2016-05-07T03:29:42Z</time>
      </trkpt>
      <trkpt lat="42.4949" lon="1.6566">
        <ele>2484.472</ele>
        <time>2016-05-07T03:30:02Z</time>
      </trkpt>
      <trkpt lat="42.4949" lon="1.65666">
        <ele>2485.24</ele>
        <time>2016-05-07T03:30:22Z</time>
      </trkpt>
      <trkpt lat="42.495" lon="1.65678">
        <ele>2489.337</ele>
        <time>2016-05-07T03:30:42Z</time>
      </trkpt>
      <trkpt lat="42.49506" lon="1.65691">
        <ele>2493.449</ele>
        <time>2016-05-07T03:31:02Z</time>
      </trkpt>
      <trkpt lat="42.49512" lon="1.65704">
        <ele>2497.313</ele>
        <time>2016-05-07T03:31:22Z</time>
      </trkpt>
      <trkpt lat="42.49517" lon="1.65712">
        <ele>2499.808</ele>
        <time>2016-05-07T03:31:42Z</time>
      </trkpt>
      <trkpt lat="42.49519" lon="1.6572">
        <ele>2500.664</ele>
        <time>2016-05-07T03:32:02Z</time>
      </trkpt>
      <trkpt lat="42.49517" lon="1.65731">
        <ele>2500.646</ele>
        <time>2016-05-07T03:32:22Z</time>
      </trkpt>
      <trkpt lat="42.49513" lon="1.6574">
        <ele>2500.934</ele>
        <time>2016-05-07T03:32:42Z</time>
      </trkpt>
      <trkpt lat="42.49514" lon="1.65752">
        <ele>2502.912</ele>
        <time>2016-05-07T03:33:02Z</time>
      </trkpt>
      <trkpt lat="42.49515" lon="1.65764">
        <ele>2506.03</ele>
        <time>2016-05-07T03:33:22Z</time>
      </trkpt>
      <trkpt lat="42.49519" lon="1.65784">
        <ele>2510.171</ele>
        <time>2016-05-07T03:33:42Z</time>
      </trkpt>
      <trkpt lat="42.49521" lon="1.65797">
        <ele>2511.759</ele>
        <time>2016-05-07T03:34:02Z</time>
      </trkpt>
      <trkpt lat="42.49521" lon="1.65803">
        <ele>2512.467</ele>
        <time>2016-05-07T03:34:22Z</time>
      </trkpt>
      <trkpt lat="42.49519" lon="1.6581">
        <ele>2513.812</ele>
        <time>2016-05-07T03:34:42Z</time>
      </trkpt>
      <trkpt lat="42.49523" lon="1.65814">
        <ele>2514.132</ele>
        <time>2016-05-07T03:35:02Z</time>
      </trkpt>
      <trkpt lat="42.49528" lon="1.65827">
        <ele>2516.005</ele>
        <time>2016-05-07T03:35:22Z</time>
      </trkpt>
      <trkpt lat="42.49537" lon="1.65844">
        <ele>2518.308</ele>
        <time>2016-05-07T03:35:42Z</time>
      </trkpt>
      <trkpt lat="42.49541" lon="1.65846">
        <ele>2518.022</ele>
        <time>2016-05-07T03:36:02Z</time>
      </trkpt>
      <trkpt lat="42.49543" lon="1.65852">
        <ele>2518.554</ele>
        <time>2016-05-07T03:36:22Z</time>
      </trkpt>
      <trkpt lat="42.49545" lon="1.65859">
        <ele>2519.112</ele>
        <time>2016-05-07T03:36:42Z</time>
      </trkpt>
      <trkpt lat="42.49546" lon="1.65877">
        <ele>2520.89</ele>
        <time>2016-05-07T03:37:02Z</time>
      </trkpt>
      <trkpt lat="42.49551" lon="1.65898">
        <ele>2521.768</ele>
        <time>2016-05-07T03:37:22Z</time>
      </trkpt>
      <trkpt lat="42.49556" lon="1.65916">
        <ele>2522.729</ele>
        <time>2016-05-07T03:37:42Z</time>
      </trkpt>
      <trkpt lat="42.4956" lon="1.65929">
        <ele>2523.087</ele>
        <time>2016-05-07T03:38:02Z</time>
      </trkpt>
      <trkpt lat="42.49559" lon="1.65947">
        <ele>2524.825</ele>
        <time>2016-05-07T03:38:22Z</time>
      </trkpt>
      <trkpt lat="42.49557" lon="1.6596">
        <ele>2526.014</ele>
        <time>2016-05-07T03:38:42Z</time>
      </trkpt>
      <trkpt lat="42.49556" lon="1.65973">
        <ele>2526.954</ele>
        <time>2016-05-07T03:39:02Z</time>
      </trkpt>
      <trkpt lat="42.49555" lon="1.65983">
        <ele>2527.109</ele>
        <time>2016-05-07T03:39:22Z</time>
      </trkpt>
      <trkpt lat="42.49554" lon="1.65994">
        <ele>2527.208</ele>
        <time>2016-05-07T03:39:42Z</time>
      </trkpt>
      <trkpt lat="42.49553" lon="1.66006">
        <ele>2527.382</ele>
        <time>2016-05-07T03:40:02Z</time>
      </trkpt>
      <trkpt lat="42.49551" lon="1.66024">
        <ele>2528.314</ele>
        <time>2016-05-07T03:40:22Z</time>
      </trkpt>
      <trkpt lat="42.49543" lon="1.66037">
        <ele>2530.432</ele>
        <time>2016-05-07T03:40:42Z</time>
      </trkpt>
      <trkpt lat="42.49539" lon="1.66046">
        <ele>2531.23</ele>
        <time>2016-05-07T03:41:02Z</time>
      </trkpt>
      <trkpt lat="42.49539" lon="1.66066">
        <ele>2531.638</ele>
        <time>2016-05-07T03:41:22Z</time>
      </trkpt>
      <trkpt lat="42.49531" lon="1.66076">
        <ele>2533.319</ele>
        <time>2016-05-07T03:41:42Z</time>
      </trkpt>
      <trkpt lat="42.49532" lon="1.66091">
        <ele>2534.017</ele>
        <time>2016-05-07T03:42:02Z</time>
      </trkpt>
      <trkpt lat="42.49512" lon="1.6611">
        <ele>2535.055</ele>
        <time>2016-05-07T03:42:22Z</time>
      </trkpt>
      <trkpt lat="42.49502" lon="1.66115">
        <ele>2535.111</ele>
        <time>2016-05-07T03:42:42Z</time>
      </trkpt>
      <trkpt lat="42.49495" lon="1.66119">
        <ele>2536.221</ele>
        <time>2016-05-07T03:43:02Z</time>
      </trkpt>
      <trkpt lat="42.49489" lon="1.66124">
        <ele>2537.103</ele>
        <time>2016-05-07T03:43:22Z</time>
      </trkpt>
      <trkpt lat="42.49482" lon="1.66125">
        <ele>2538.108</ele>
        <time>2016-05-07T03:43:42Z</time>
      </trkpt>
      <trkpt lat="42.49477" lon="1.66131">
        <ele>2538.352</ele>
        <time>2016-05-07T03:44:02Z</time>
      </trkpt>
      <trkpt lat="42.49472" lon="1.66133">
        <ele>2538.774</ele>
        <time>2016-05-07T03:44:22Z</time>
      </trkpt>
      <trkpt lat="42.49466" lon="1.6614">
        <ele>2538.532</ele>
        <time>2016-05-07T03:44:42Z</time>
      </trkpt>
      <trkpt lat="42.4946" lon="1.66143">
        <ele>2538.91</ele>
        <time>2016-05-07T03:45:02Z</time>
      </trkpt>
      <trkpt lat="42.49455" lon="1.66146">
        <ele>2539.288</ele>
        <time>2016-05-07T03:45:22Z</time>
      </trkpt>
      <trkpt lat="42.49451" lon="1.66145">
        <ele>2539.419</ele>
        <time>2016-05-07T03:45:42Z</time>
      </trkpt>
      <trkpt lat="42.49441" lon="1.66154">
        <ele>2540.027</ele>
        <time>2016-05-07T03:46:02Z</time>
      </trkpt>
      <trkpt lat="42.49435" lon="1.66158">
        <ele>2540.585</ele>
        <time>2016-05-07T03:46:22Z</time>
      </trkpt>
      <trkpt lat="42.49432" lon="1.6616">
        <ele>2540.749</ele>
        <time>2016-05-07T03:46:42Z</time>
      </trkpt>
      <trkpt lat="42.49427" lon="1.66171">
        <ele>2540.002</ele>
        <time>2016-05-07T03:47:02Z</time>
      </trkpt>
      <trkpt lat="42.49419" lon="1.66179">
        <ele>2540.022</ele>
        <time>2016-05-07T03:47:22Z</time>
      </trkpt>
      <trkpt lat="42.49414" lon="1.6619">
        <ele>2539.708</ele>
        <time>2016-05-07T03:47:42Z</time>
      </trkpt>
      <trkpt lat="42.49405" lon="1.66192">
        <ele>2540.975</ele>
        <time>2016-05-07T03:48:02Z</time>
      </trkpt>
      <trkpt lat="42.49401" lon="1.66198">
        <ele>2541.777</ele>
        <time>2016-05-07T03:48:22Z</time>
      </trkpt>
      <trkpt lat="42.49385" lon="1.66218">
        <ele>2543.425</ele>
        <time>2016-05-07T03:48:42Z</time>
      </trkpt>
      <trkpt lat="42.49375" lon="1.66225">
        <ele>2544.293</ele>
        <time>2016-05-07T03:49:02Z</time>
      </trkpt>
      <trkpt lat="42.49368" lon="1.6623">
        <ele>2544.691</ele>
        <time>2016-05-07T03:49:22Z</time>
      </trkpt>
      <trkpt lat="42.49354" lon="1.66238">
        <ele>2545.052</ele>
        <time>2016-05-07T03:49:42Z</time>
      </trkpt>
      <trkpt lat="42.49324" lon="1.66315">
        <ele>2539.98</ele>
        <time>2016-05-07T03:50:02Z</time>
      </trkpt>
      <trkpt lat="42.49311" lon="1.66331">
        <ele>2537.718</ele>
        <time>2016-05-07T03:50:22Z</time>
      </trkpt>
      <trkpt lat="42.49305" lon="1.6634">
        <ele>2536.618</ele>
        <time>2016-05-07T03:50:42Z</time>
      </trkpt>
      <trkpt lat="42.49301" lon="1.66347">
        <ele>2536.598</ele>
        <time>2016-05-07T03:51:02Z</time>
      </trkpt>
      <trkpt lat="42.49294" lon="1.66354">
        <ele>2536.517</ele>
        <time>2016-05-07T03:51:22Z</time>
      </trkpt>
      <trkpt lat="42.49286" lon="1.66359">
        <ele>2536.608</ele>
        <time>2016-05-07T03:51:42Z</time>
      </trkpt>
      <trkpt lat="42.49283" lon="1.6637">
        <ele>2536.062</ele>
        <time>2016-05-07T03:52:02Z</time>
      </trkpt>
      <trkpt lat="42.49278" lon="1.66382">
        <ele>2534.814</ele>
        <time>2016-05-07T03:52:22Z</time>
      </trkpt>
      <trkpt lat="42.49269" lon="1.66398">
        <ele>2534.342</ele>
        <time>2016-05-07T03:52:42Z</time>
      </trkpt>
      <trkpt lat="42.49264" lon="1.66407">
        <ele>2533.35</ele>
        <time>2016-05-07T03:53:02Z</time>
      </trkpt>
      <trkpt lat="42.49256" lon="1.66414">
        <ele>2532.178</ele>
        <time>2016-05-07T03:53:22Z</time>
      </trkpt>
      <trkpt lat="42.49247" lon="1.66417">
        <ele>2530.099</ele>
        <time>2016-05-07T03:53:42Z</time>
      </trkpt>
      <trkpt lat="42.49239" lon="1.66418">
        <ele>2527.657</ele>
        <time>2016-05-07T03:54:02Z</time>
      </trkpt>
      <trkpt lat="42.49232" lon="1.66424">
        <ele>2524.785</ele>
        <time>2016-05-07T03:54:22Z</time>
      </trkpt>
      <trkpt lat="42.49228" lon="1.6643">
        <ele>2522.555</ele>
        <time>2016-05-07T03:54:42Z</time>
      </trkpt>
      <trkpt lat="42.49224" lon="1.66436">
        <ele>2519.907</ele>
        <time>2016-05-07T03:55:02Z</time>
      </trkpt>
      <trkpt lat="42.49212" lon="1.66456">
        <ele>2512.817</ele>
        <time>2016-05-07T03:55:22Z</time>
      </trkpt>
      <trkpt lat="42.49203" lon="1.66456">
        <ele>2509.408</ele>
        <time>2016-05-07T03:55:42Z</time>
      </trkpt>
      <trkpt lat="42.49196" lon="1.66467">
        <ele>2505.146</ele>
        <time>2016-05-07T03:56:02Z</time>
      </trkpt>
      <trkpt lat="42.49186" lon="1.66475">
        <ele>2501.328</ele>
        <time>2016-05-07T03:56:22Z</time>
      </trkpt>
      <trkpt lat="42.49176" lon="1.66484">
        <ele>2497.066</ele>
        <time>2016-05-07T03:56:42Z</time>
      </trkpt>
      <trkpt lat="42.49166" lon="1.66497">
        <ele>2491.594</ele>
        <time>2016-05-07T03:57:02Z</time>
      </trkpt>
      <trkpt lat="42.49152" lon="1.66519">
        <ele>2482.322</ele>
        <time>2016-05-07T03:57:22Z</time>
      </trkpt>
      <trkpt lat="42.49145" lon="1.66539">
        <ele>2472.163</ele>
        <time>2016-05-07T03:57:42Z</time>
      </trkpt>
      <trkpt lat="42.49131" lon="1.66567">
        <ele>2455.331</ele>
        <time>2016-05-07T03:58:02Z</time>
      </trkpt>
      <trkpt lat="42.49116" lon="1.6659">
        <ele>2442.329</ele>
        <time>2016-05-07T03:58:22Z</time>
      </trkpt>
      <trkpt lat="42.49098" lon="1.66589">
        <ele>2435.718</ele>
        <time>2016-05-07T03:58:42Z</time>
      </trkpt>
      <trkpt lat="42.49086" lon="1.66593">
        <ele>2430.398</ele>
        <time>2016-05-07T03:59:02Z</time>
      </trkpt>
      <trkpt lat="42.49097" lon="1.66632">
        <ele>2423.017</ele>
        <time>2016-05-07T03:59:22Z</time>
      </trkpt>
      <trkpt lat="42.49089" lon="1.66673">
        <ele>2412.008</ele>
        <time>2016-05-07T03:59:42Z</time>
      </trkpt>
      <trkpt lat="42.49082" lon="1.66732">
        <ele>2400.222</ele>
        <time>2016-05-07T04:00:02Z</time>
      </trkpt>
      <trkpt lat="42.49062" lon="1.66761">
        <ele>2393.554</ele>
        <time>2016-05-07T04:00:22Z</time>
      </trkpt>
      <trkpt lat="42.49043" lon="1.6677">
        <ele>2385.012</ele>
        <time>2016-05-07T04:00:42Z</time>
      </trkpt>
      <trkpt lat="42.49035" lon="1.66799">
        <ele>2381.21</ele>
        <time>2016-05-07T04:01:02Z</time>
      </trkpt>
      <trkpt lat="42.49031" lon="1.66825">
        <ele>2377.138</ele>
        <time>2016-05-07T04:01:22Z</time>
      </trkpt>
      <trkpt lat="42.49024" lon="1.66846">
        <ele>2373.649</ele>
        <time>2016-05-07T04:01:42Z</time>
      </trkpt>
      <trkpt lat="42.49012" lon="1.66857">
        <ele>2370.157</ele>
        <time>2016-05-07T04:02:02Z</time>
      </trkpt>
      <trkpt lat="42.49002" lon="1.66867">
        <ele>2367.745</ele>
        <time>2016-05-07T04:02:22Z</time>
      </trkpt>
      <trkpt lat="42.48991" lon="1.66879">
        <ele>2365.589</ele>
        <time>2016-05-07T04:02:42Z</time>
      </trkpt>
      <trkpt lat="42.48982" lon="1.66902">
        <ele>2363.806</ele>
        <time>2016-05-07T04:03:02Z</time>
      </trkpt>
      <trkpt lat="42.48966" lon="1.66922">
        <ele>2361.726</ele>
        <time>2016-05-07T04:03:22Z</time>
      </trkpt>
      <trkpt lat="42.48937" lon="1.66942">
        <ele>2356.308</ele>
        <time>2016-05-07T04:03:42Z</time>
      </trkpt>
      <trkpt lat="42.48927" lon="1.66958">
        <ele>2354.339</ele>
        <time>2016-05-07T04:04:02Z</time>
      </trkpt>
      <trkpt lat="42.48913" lon="1.67003">
        <ele>2351.491</ele>
        <time>2016-05-07T04:04:22Z</time>
      </trkpt>
      <trkpt lat="42.48904" lon="1.67027">
        <ele>2349.689</ele>
        <time>2016-05-07T04:04:42Z</time>
      </trkpt>
      <trkpt lat="42.48899" lon="1.67051">
        <ele>2348.747</ele>
        <time>2016-05-07T04:05:02Z</time>
      </trkpt>
      <trkpt lat="42.48893" lon="1.67083">
        <ele>2347.235</ele>
        <time>2016-05-07T04:05:22Z</time>
      </trkpt>
      <trkpt lat="42.48885" lon="1.67116">
        <ele>2345.216</ele>
        <time>2016-05-07T04:05:42Z</time>
      </trkpt>
      <trkpt lat="42.48886" lon="1.67158">
        <ele>2341.634</ele>
        <time>2016-05-07T04:06:02Z</time>
      </trkpt>
      <trkpt lat="42.4887" lon="1.67184">
        <ele>2338.082</ele>
        <time>2016-05-07T04:06:22Z</time>
      </trkpt>
      <trkpt lat="42.48868" lon="1.67226">
        <ele>2334.065</ele>
        <time>2016-05-07T04:06:42Z</time>
      </trkpt>
      <trkpt lat="42.48861" lon="1.67257">
        <ele>2329.368</ele>
        <time>2016-05-07T04:07:02Z</time>
      </trkpt>
      <trkpt lat="42.48855" lon="1.6729">
        <ele>2325.014</ele>
        <time>2016-05-07T04:07:22Z</time>
      </trkpt>
      <trkpt lat="42.48853" lon="1.67316">
        <ele>2321.808</ele>
        <time>2016-05-07T04:07:42Z</time>
      </trkpt>
      <trkpt lat="42.48855" lon="1.6735">
        <ele>2317.627</ele>
        <time>2016-05-07T04:08:02Z</time>
      </trkpt>
      <trkpt lat="42.48848" lon="1.67373">
        <ele>2314.529</ele>
        <time>2016-05-07T04:08:22Z</time>
      </trkpt>
      <trkpt lat="42.48851" lon="1.67394">
        <ele>2312.067</ele>
        <time>2016-05-07T04:08:42Z</time>
      </trkpt>
      <trkpt lat="42.48851" lon="1.67428">
        <ele>2308.985</ele>
        <time>2016-05-07T04:09:02Z</time>
      </trkpt>
      <trkpt lat="42.48854" lon="1.67454">
        <ele>2306.553</ele>
        <time>2016-05-07T04:09:22Z</time>
      </trkpt>
      <trkpt lat="42.48857" lon="1.67472">
        <ele>2305.244</ele>
        <time>2016-05-07T04:09:42Z</time>
      </trkpt>
      <trkpt lat="42.48861" lon="1.67514">
        <ele>2306.092</ele>
        <time>2016-05-07T04:10:02Z</time>
      </trkpt>
      <trkpt lat="42.48859" lon="1.67543">
        <ele>2303.24</ele>
        <time>2016-05-07T04:10:22Z</time>
      </trkpt>
      <trkpt lat="42.48858" lon="1.6757">
        <ele>2298.468</ele>
        <time>2016-05-07T04:10:42Z</time>
      </trkpt>
      <trkpt lat="42.48856" lon="1.67599">
        <ele>2293.142</ele>
        <time>2016-05-07T04:11:02Z</time>
      </trkpt>
      <trkpt lat="42.48852" lon="1.67629">
        <ele>2288.226</ele>
        <time>2016-05-07T04:11:22Z</time>
      </trkpt>
      <trkpt lat="42.48832" lon="1.67655">
        <ele>2283.608</ele>
        <time>2016-05-07T04:11:42Z</time>
      </trkpt>
      <trkpt lat="42.48831" lon="1.67693">
        <ele>2279.067</ele>
        <time>2016-05-07T04:12:02Z</time>
      </trkpt>
      <trkpt lat="42.48836" lon="1.67725">
        <ele>2279.689</ele>
        <time>2016-05-07T04:12:22Z</time>
      </trkpt>
      <trkpt lat="42.48832" lon="1.67746">
        <ele>2278.877</ele>
        <time>2016-05-07T04:12:42Z</time>
      </trkpt>
      <trkpt lat="42.48837" lon="1.67769">
        <ele>2279.335</ele>
        <time>2016-05-07T04:13:02Z</time>
      </trkpt>
      <trkpt lat="42.48836" lon="1.67805">
        <ele>2275.033</ele>
        <time>2016-05-07T04:13:22Z</time>
      </trkpt>
      <trkpt lat="42.48841" lon="1.67876">
        <ele>2270.394</ele>
        <time>2016-05-07T04:13:42Z</time>
      </trkpt>
      <trkpt lat="42.48838" lon="1.67899">
        <ele>2268.052</ele>
        <time>2016-05-07T04:14:02Z</time>
      </trkpt>
      <trkpt lat="42.48835" lon="1.67923">
        <ele>2265.92</ele>
        <time>2016-05-07T04:14:22Z</time>
      </trkpt>
      <trkpt lat="42.4883" lon="1.67948">
        <ele>2265.098</ele>
        <time>2016-05-07T04:14:42Z</time>
      </trkpt>
      <trkpt lat="42.4882" lon="1.67969">
        <ele>2265.015</ele>
        <time>2016-05-07T04:15:02Z</time>
      </trkpt>
      <trkpt lat="42.48814" lon="1.68007">
        <ele>2264.726</ele>
        <time>2016-05-07T04:15:22Z</time>
      </trkpt>
      <trkpt lat="42.48809" lon="1.68044">
        <ele>2262.008</ele>
        <time>2016-05-07T04:15:42Z</time>
      </trkpt>
      <trkpt lat="42.48804" lon="1.68074">
        <ele>2260.59</ele>
        <time>2016-05-07T04:16:02Z</time>
      </trkpt>
      <trkpt lat="42.48793" lon="1.6811">
        <ele>2259.982</ele>
        <time>2016-05-07T04:16:22Z</time>
      </trkpt>
      <trkpt lat="42.48782" lon="1.6813">
        <ele>2255.45</ele>
        <time>2016-05-07T04:16:42Z</time>
      </trkpt>
      <trkpt lat="42.48777" lon="1.68156">
        <ele>2254.068</ele>
        <time>2016-05-07T04:17:02Z</time>
      </trkpt>
      <trkpt lat="42.48772" lon="1.68186">
        <ele>2253.886</ele>
        <time>2016-05-07T04:17:22Z</time>
      </trkpt>
      <trkpt lat="42.48771" lon="1.68215">
        <ele>2253.667</ele>
        <time>2016-05-07T04:17:42Z</time>
      </trkpt>
      <trkpt lat="42.4877" lon="1.68237">
        <ele>2253.575</ele>
        <time>2016-05-07T04:18:02Z</time>
      </trkpt>
      <trkpt lat="42.48767" lon="1.68266">
        <ele>2252.783</ele>
        <time>2016-05-07T04:18:22Z</time>
      </trkpt>
      <trkpt lat="42.48765" lon="1.68299">
        <ele>2250.894</ele>
        <time>2016-05-07T04:18:42Z</time>
      </trkpt>
      <trkpt lat="42.48762" lon="1.68361">
        <ele>2244.157</ele>
        <time>2016-05-07T04:19:02Z</time>
      </trkpt>
      <trkpt lat="42.48759" lon="1.68389">
        <ele>2238.722</ele>
        <time>2016-05-07T04:19:22Z</time>
      </trkpt>
      <trkpt lat="42.48746" lon="1.68431">
        <ele>2231.208</ele>
        <time>2016-05-07T04:19:42Z</time>
      </trkpt>
      <trkpt lat="42.48744" lon="1.68468">
        <ele>2225.17</ele>
        <time>2016-05-07T04:20:02Z</time>
      </trkpt>
      <trkpt lat="42.48745" lon="1.68496">
        <ele>2221.432</ele>
        <time>2016-05-07T04:20:22Z</time>
      </trkpt>
      <trkpt lat="42.48758" lon="1.68528">
        <ele>2220.57</ele>
        <time>2016-05-07T04:20:42Z</time>
      </trkpt>
      <trkpt lat="42.48764" lon="1.68549">
        <ele>2222.048</ele>
        <time>2016-05-07T04:21:02Z</time>
      </trkpt>
      <trkpt lat="42.48764" lon="1.6858">
        <ele>2222.426</ele>
        <time>2016-05-07T04:21:22Z</time>
      </trkpt>
      <trkpt lat="42.48767" lon="1.68617">
        <ele>2223.537</ele>
        <time>2016-05-07T04:21:42Z</time>
      </trkpt>
      <trkpt lat="42.4876" lon="1.68654">
        <ele>2218.075</ele>
        <time>2016-05-07T04:22:02Z</time>
      </trkpt>
      <trkpt lat="42.48752" lon="1.68691">
        <ele>2211.153</ele>
        <time>2016-05-07T04:22:22Z</time>
      </trkpt>
      <trkpt lat="42.48764" lon="1.68748">
        <ele>2210.865</ele>
        <time>2016-05-07T04:22:42Z</time>
      </trkpt>
      <trkpt lat="42.48745" lon="1.68779">
        <ele>2207.368</ele>
        <time>2016-05-07T04:23:02Z</time>
      </trkpt>
      <trkpt lat="42.48736" lon="1.68814">
        <ele>2206.514</ele>
        <time>2016-05-07T04:23:22Z</time>
      </trkpt>
      <trkpt lat="42.48734" lon="1.68855">
        <ele>2206.308</ele>
        <time>2016-05-07T04:23:42Z</time>
      </trkpt>
      <trkpt lat="42.48742" lon="1.68901">
        <ele>2208.287</ele>
        <time>2016-05-07T04:24:02Z</time>
      </trkpt>
      <trkpt lat="42.48743" lon="1.6894">
        <ele>2208.359</ele>
        <time>2016-05-07T04:24:22Z</time>
      </trkpt>
      <trkpt lat="42.48743" lon="1.6898">
        <ele>2205.757</ele>
        <time>2016-05-07T04:24:42Z</time>
      </trkpt>
      <trkpt lat="42.48732" lon="1.69014">
        <ele>2202.175</ele>
        <time>2016-05-07T04:25:02Z</time>
      </trkpt>
      <trkpt lat="42.4872" lon="1.69046">
        <ele>2197.873</ele>
        <time>2016-05-07T04:25:22Z</time>
      </trkpt>
      <trkpt lat="42.48714" lon="1.69072">
        <ele>2192.284</ele>
        <time>2016-05-07T04:25:42Z</time>
      </trkpt>
      <trkpt lat="42.48712" lon="1.69103">
        <ele>2188.672</ele>
        <time>2016-05-07T04:26:02Z</time>
      </trkpt>
      <trkpt lat="42.48701" lon="1.69129">
        <ele>2184.82</ele>
        <time>2016-05-07T04:26:22Z</time>
      </trkpt>
      <trkpt lat="42.48693" lon="1.6916">
        <ele>2180.253</ele>
        <time>2016-05-07T04:26:42Z</time>
      </trkpt>
      <trkpt lat="42.48685" lon="1.69191">
        <ele>2174.804</ele>
        <time>2016-05-07T04:27:02Z</time>
      </trkpt>
      <trkpt lat="42.48677" lon="1.69233">
        <ele>2171.414</ele>
        <time>2016-05-07T04:27:22Z</time>
      </trkpt>
      <trkpt lat="42.48669" lon="1.69256">
        <ele>2168.208</ele>
        <time>2016-05-07T04:27:42Z</time>
      </trkpt>
      <trkpt lat="42.48675" lon="1.69273">
        <ele>2169.546</ele>
        <time>2016-05-07T04:28:02Z</time>
      </trkpt>
      <trkpt lat="42.48672" lon="1.69294">
        <ele>2167.828</ele>
        <time>2016-05-07T04:28:22Z</time>
      </trkpt>
      <trkpt lat="42.48654" lon="1.69324">
        <ele>2164.646</ele>
        <time>2016-05-07T04:28:42Z</time>
      </trkpt>
      <trkpt lat="42.48648" lon="1.69361">
        <ele>2159.944</ele>
        <time>2016-05-07T04:29:02Z</time>
      </trkpt>
      <trkpt lat="42.48642" lon="1.69374">
        <ele>2155.852</ele>
        <time>2016-05-07T04:29:22Z</time>
      </trkpt>
      <trkpt lat="42.4864" lon="1.69424">
        <ele>2150.293</ele>
        <time>2016-05-07T04:29:42Z</time>
      </trkpt>
      <trkpt lat="42.48632" lon="1.69462">
        <ele>2143.261</ele>
        <time>2016-05-07T04:30:02Z</time>
      </trkpt>
      <trkpt lat="42.48623" lon="1.69501">
        <ele>2135.599</ele>
        <time>2016-05-07T04:30:22Z</time>
      </trkpt>
      <trkpt lat="42.48609" lon="1.69547">
        <ele>2126.815</ele>
        <time>2016-05-07T04:30:42Z</time>
      </trkpt>
      <trkpt lat="42.48605" lon="1.69587">
        <ele>2123.165</ele>
        <time>2016-05-07T04:31:02Z</time>
      </trkpt>
      <trkpt lat="42.48607" lon="1.69631">
        <ele>2114.111</ele>
        <time>2016-05-07T04:31:22Z</time>
      </trkpt>
      <trkpt lat="42.48612" lon="1.69687">
        <ele>2104.208</ele>
        <time>2016-05-07T04:31:42Z</time>
      </trkpt>
      <trkpt lat="42.48612" lon="1.69723">
        <ele>2101.022</ele>
        <time>2016-05-07T04:32:02Z</time>
      </trkpt>
      <trkpt lat="42.48621" lon="1.69761">
        <ele>2099.774</ele>
        <time>2016-05-07T04:32:22Z</time>
      </trkpt>
      <trkpt lat="42.48624" lon="1.6981">
        <ele>2096.682</ele>
        <time>2016-05-07T04:32:42Z</time>
      </trkpt>
      <trkpt lat="42.48617" lon="1.69851">
        <ele>2089.97</ele>
        <time>2016-05-07T04:33:02Z</time>
      </trkpt>
      <trkpt lat="42.4861" lon="1.69905">
        <ele>2081.588</ele>
        <time>2016-05-07T04:33:22Z</time>
      </trkpt>
      <trkpt lat="42.48629" lon="1.69962">
        <ele>2079.149</ele>
        <time>2016-05-07T04:33:42Z</time>
      </trkpt>
      <trkpt lat="42.48618" lon="1.7">
        <ele>2074.327</ele>
        <time>2016-05-07T04:34:02Z</time>
      </trkpt>
      <trkpt lat="42.48576" lon="1.70058">
        <ele>2070.265</ele>
        <time>2016-05-07T04:34:22Z</time>
      </trkpt>
      <trkpt lat="42.4857" lon="1.70118">
        <ele>2068.876</ele>
        <time>2016-05-07T04:34:42Z</time>
      </trkpt>
      <trkpt lat="42.48557" lon="1.70179">
        <ele>2066.29</ele>
        <time>2016-05-07T04:35:02Z</time>
      </trkpt>
      <trkpt lat="42.48537" lon="1.70219">
        <ele>2065.119</ele>
        <time>2016-05-07T04:35:22Z</time>
      </trkpt>
      <trkpt lat="42.48558" lon="1.70262">
        <ele>2067.608</ele>
        <time>2016-05-07T04:35:42Z</time>
      </trkpt>
      <trkpt lat="42.48551" lon="1.70313">
        <ele>2067.058</ele>
        <time>2016-05-07T04:36:02Z</time>
      </trkpt>
      <trkpt lat="42.48544" lon="1.70363">
        <ele>2067.94</ele>
        <time>2016-05-07T04:36:22Z</time>
      </trkpt>
      <trkpt lat="42.48518" lon="1.70443">
        <ele>2076.238</ele>
        <time>2016-05-07T04:36:42Z</time>
      </trkpt>
      <trkpt lat="42.48564" lon="1.70462">
        <ele>2077.026</ele>
        <time>2016-05-07T04:37:02Z</time>
      </trkpt>
      <trkpt lat="42.48591" lon="1.70489">
        <ele>2077.334</ele>
        <time>2016-05-07T04:37:22Z</time>
      </trkpt>
      <trkpt lat="42.48629" lon="1.70504">
        <ele>2081.715</ele>
        <time>2016-05-07T04:37:42Z</time>
      </trkpt>
      <trkpt lat="42.48657" lon="1.70516">
        <ele>2084.613</ele>
        <time>2016-05-07T04:38:02Z</time>
      </trkpt>
      <trkpt lat="42.48696" lon="1.70549">
        <ele>2090.321</ele>
        <time>2016-05-07T04:38:22Z</time>
      </trkpt>
      <trkpt lat="42.4871" lon="1.70607">
        <ele>2095.579</ele>
        <time>2016-05-07T04:38:42Z</time>
      </trkpt>
      <trkpt lat="42.48745" lon="1.70665">
        <ele>2106.605</ele>
        <time>2016-05-07T04:39:02Z</time>
      </trkpt>
      <trkpt lat="42.48756" lon="1.7072">
        <ele>2110.725</ele>
        <time>2016-05-07T04:39:22Z</time>
      </trkpt>
      <trkpt lat="42.48781" lon="1.70785">
        <ele>2121.608</ele>
        <time>2016-05-07T04:39:42Z</time>
      </trkpt>
      <trkpt lat="42.48814" lon="1.7083">
        <ele>2135.468</ele>
        <time>2016-05-07T04:40:02Z</time>
      </trkpt>
      <trkpt lat="42.48851" lon="1.70879">
        <ele>2145.55</ele>
        <time>2016-05-07T04:40:22Z</time>
      </trkpt>
      <trkpt lat="42.489" lon="1.70937">
        <ele>2155.628</ele>
        <time>2016-05-07T04:40:42Z</time>
      </trkpt>
      <trkpt lat="42.48968" lon="1.70981">
        <ele>2176.176</ele>
        <time>2016-05-07T04:41:02Z</time>
      </trkpt>
      <trkpt lat="42.49013" lon="1.70983">
        <ele>2185.944</ele>
        <time>2016-05-07T04:41:22Z</time>
      </trkpt>
      <trkpt lat="42.49045" lon="1.7103">
        <ele>2187.845</ele>
        <time>2016-05-07T04:41:42Z</time>
      </trkpt>
      <trkpt lat="42.49091" lon="1.71093">
        <ele>2195.293</ele>
        <time>2016-05-07T04:42:02Z</time>
      </trkpt>
      <trkpt lat="42.49126" lon="1.7115">
        <ele>2198.861</ele>
        <time>2016-05-07T04:42:22Z</time>
      </trkpt>
      <trkpt lat="42.49144" lon="1.71211">
        <ele>2199.249</ele>
        <time>2016-05-07T04:42:42Z</time>
      </trkpt>
      <trkpt lat="42.49181" lon="1.71279">
        <ele>2199.902</ele>
        <time>2016-05-07T04:43:02Z</time>
      </trkpt>
      <trkpt lat="42.49229" lon="1.71325">
        <ele>2205.422</ele>
        <time>2016-05-07T04:43:22Z</time>
      </trkpt>
      <trkpt lat="42.49267" lon="1.71369">
        <ele>2204.908</ele>
        <time>2016-05-07T04:43:42Z</time>
      </trkpt>
      <trkpt lat="42.493" lon="1.71418">
        <ele>2203.985</ele>
        <time>2016-05-07T04:44:02Z</time>
      </trkpt>
      <trkpt lat="42.49333" lon="1.71461">
        <ele>2204.247</ele>
        <time>2016-05-07T04:44:22Z</time>
      </trkpt>
      <trkpt lat="42.49367" lon="1.71476">
        <ele>2207.485</ele>
        <time>2016-05-07T04:44:42Z</time>
      </trkpt>
      <trkpt lat="42.49408" lon="1.71546">
        <ele>2209.553</ele>
        <time>2016-05-07T04:45:02Z</time>
      </trkpt>
      <trkpt lat="42.49419" lon="1.71576">
        <ele>2210.571</ele>
        <time>2016-05-07T04:45:22Z</time>
      </trkpt>
      <trkpt lat="42.49449" lon="1.71625">
        <ele>2214.732</ele>
        <time>2016-05-07T04:45:42Z</time>
      </trkpt>
      <trkpt lat="42.4948" lon="1.71653">
        <ele>2215.75</ele>
        <time>2016-05-07T04:46:02Z</time>
      </trkpt>
      <trkpt lat="42.49516" lon="1.71677">
        <ele>2217.388</ele>
        <time>2016-05-07T04:46:22Z</time>
      </trkpt>
      <trkpt lat="42.49557" lon="1.71716">
        <ele>2223.651</ele>
        <time>2016-05-07T04:46:42Z</time>
      </trkpt>
      <trkpt lat="42.49595" lon="1.71754">
        <ele>2232.101</ele>
        <time>2016-05-07T04:47:02Z</time>
      </trkpt>
      <trkpt lat="42.49627" lon="1.71766">
        <ele>2235.711</ele>
        <time>2016-05-07T04:47:22Z</time>
      </trkpt>
      <trkpt lat="42.49681" lon="1.71792">
        <ele>2246.308</ele>
        <time>2016-05-07T04:47:42Z</time>
      </trkpt>
      <trkpt lat="42.49729" lon="1.71815">
        <ele>2253.796</ele>
        <time>2016-05-07T04:48:02Z</time>
      </trkpt>
      <trkpt lat="42.49784" lon="1.71841">
        <ele>2262.818</ele>
        <time>2016-05-07T04:48:22Z</time>
      </trkpt>
      <trkpt lat="42.49816" lon="1.719">
        <ele>2273.456</ele>
        <time>2016-05-07T04:48:42Z</time>
      </trkpt>
      <trkpt lat="42.49847" lon="1.71923">
        <ele>2277.944</ele>
        <time>2016-05-07T04:49:02Z</time>
      </trkpt>
      <trkpt lat="42.49867" lon="1.71939">
        <ele>2279.072</ele>
        <time>2016-05-07T04:49:22Z</time>
      </trkpt>
      <trkpt lat="42.49884" lon="1.71963">
        <ele>2280.113</ele>
        <time>2016-05-07T04:49:42Z</time>
      </trkpt>
      <trkpt lat="42.49896" lon="1.71975">
        <ele>2281.861</ele>
        <time>2016-05-07T04:50:02Z</time>
      </trkpt>
      <trkpt lat="42.49908" lon="1.71984">
        <ele>2283.699</ele>
        <time>2016-05-07T04:50:22Z</time>
      </trkpt>
      <trkpt lat="42.49911" lon="1.72003">
        <ele>2285.821</ele>
        <time>2016-05-07T04:50:42Z</time>
      </trkpt>
      <trkpt lat="42.49928" lon="1.72012">
        <ele>2288.341</ele>
        <time>2016-05-07T04:51:02Z</time>
      </trkpt>
      <trkpt lat="42.49953" lon="1.7202">
        <ele>2291.105</ele>
        <time>2016-05-07T04:51:22Z</time>
      </trkpt>
      <trkpt lat="42.49979" lon="1.72024">
        <ele>2292.708</ele>
        <time>2016-05-07T04:51:42Z</time>
      </trkpt>
      <trkpt lat="42.50029" lon="1.72033">
        <ele>2296.743</ele>
        <time>2016-05-07T04:52:02Z</time>
      </trkpt>
      <trkpt lat="42.50077" lon="1.72053">
        <ele>2300.495</ele>
        <time>2016-05-07T04:52:22Z</time>
      </trkpt>
      <trkpt lat="42.50118" lon="1.72064">
        <ele>2303.633</ele>
        <time>2016-05-07T04:52:42Z</time>
      </trkpt>
      <trkpt lat="42.50131" lon="1.72073">
        <ele>2305.681</ele>
        <time>2016-05-07T04:53:02Z</time>
      </trkpt>
      <trkpt lat="42.50168" lon="1.7209">
        <ele>2310.999</ele>
        <time>2016-05-07T04:53:22Z</time>
      </trkpt>
      <trkpt lat="42.50195" lon="1.72089">
        <ele>2314.54</ele>
        <time>2016-05-07T04:53:42Z</time>
      </trkpt>
      <trkpt lat="42.50246" lon="1.72094">
        <ele>2324.018</ele>
        <time>2016-05-07T04:54:02Z</time>
      </trkpt>
      <trkpt lat="42.50277" lon="1.72085">
        <ele>2330.996</ele>
        <time>2016-05-07T04:54:22Z</time>
      </trkpt>
      <trkpt lat="42.5032" lon="1.72086">
        <ele>2343.914</ele>
        <time>2016-05-07T04:54:42Z</time>
      </trkpt>
      <trkpt lat="42.50352" lon="1.72084">
        <ele>2351.954</ele>
        <time>2016-05-07T04:55:02Z</time>
      </trkpt>
      <trkpt lat="42.50384" lon="1.72077">
        <ele>2356.509</ele>
        <time>2016-05-07T04:55:22Z</time>
      </trkpt>
      <trkpt lat="42.50431" lon="1.72075">
        <ele>2365.208</ele>
        <time>2016-05-07T04:55:42Z</time>
      </trkpt>
      <trkpt lat="42.50405" lon="1.72137">
        <ele>2380.742</ele>
        <time>2016-05-07T04:56:02Z</time>
      </trkpt>
      <trkpt lat="42.50463" lon="1.72163">
        <ele>2396.614</ele>
        <time>2016-05-07T04:56:22Z</time>
      </trkpt>
      <trkpt lat="42.50469" lon="1.72193">
        <ele>2406.342</ele>
        <time>2016-05-07T04:56:42Z</time>
      </trkpt>
      <trkpt lat="42.5049" lon="1.7221">
        <ele>2413.02</ele>
        <time>2016-05-07T04:57:02Z</time>
      </trkpt>
      <trkpt lat="42.50505" lon="1.7221">
        <ele>2414.188</ele>
        <time>2016-05-07T04:57:22Z</time>
      </trkpt>
      <trkpt lat="42.5052" lon="1.72217">
        <ele>2417.849</ele>
        <time>2016-05-07T04:57:42Z</time>
      </trkpt>
      <trkpt lat="42.50511" lon="1.72239">
        <ele>2423.257</ele>
        <time>2016-05-07T04:58:02Z</time>
      </trkpt>
      <trkpt lat="42.50515" lon="1.72268">
        <ele>2431.695</ele>
        <time>2016-05-07T04:58:22Z</time>
      </trkpt>
      <trkpt lat="42.50511" lon="1.72301">
        <ele>2439.915</ele>
        <time>2016-05-07T04:58:42Z</time>
      </trkpt>
      <trkpt lat="42.50509" lon="1.72322">
        <ele>2445.165</ele>
        <time>2016-05-07T04:59:02Z</time>
      </trkpt>
      <trkpt lat="42.50508" lon="1.72342">
        <ele>2450.011</ele>
        <time>2016-05-07T04:59:22Z</time>
      </trkpt>
      <trkpt lat="42.50507" lon="1.72365">
        <ele>2455.708</ele>
        <time>2016-05-07T04:59:42Z</time>
      </trkpt>
      <trkpt lat="42.50501" lon="1.72387">
        <ele>2460.632</ele>
        <time>2016-05-07T05:00:02Z</time>
      </trkpt>
      <trkpt lat="42.50498" lon="1.72412">
        <ele>2467.954</ele>
        <time>2016-05-07T05:00:22Z</time>
      </trkpt>
      <trkpt lat="42.50497" lon="1.72429">
        <ele>2474.132</ele>
        <time>2016-05-07T05:00:42Z</time>
      </trkpt>
      <trkpt lat="42.50494" lon="1.72448">
        <ele>2481.71</ele>
        <time>2016-05-07T05:01:02Z</time>
      </trkpt>
      <trkpt lat="42.50502" lon="1.72469">
        <ele>2489.128</ele>
        <time>2016-05-07T05:01:22Z</time>
      </trkpt>
      <trkpt lat="42.50503" lon="1.72489">
        <ele>2497.299</ele>
        <time>2016-05-07T05:01:42Z</time>
      </trkpt>
      <trkpt lat="42.50495" lon="1.72512">
        <ele>2505.487</ele>
        <time>2016-05-07T05:02:02Z</time>
      </trkpt>
      <trkpt lat="42.50459" lon="1.72591">
        <ele>2513.655</ele>
        <time>2016-05-07T05:02:22Z</time>
      </trkpt>
      <trkpt lat="42.50476" lon="1.72623">
        <ele>2508.843</ele>
        <time>2016-05-07T05:02:42Z</time>
      </trkpt>
      <trkpt lat="42.50516" lon="1.72646">
        <ele>2502.864</ele>
        <time>2016-05-07T05:03:02Z</time>
      </trkpt>
      <trkpt lat="42.50547" lon="1.72657">
        <ele>2499.21</ele>
        <time>2016-05-07T05:03:22Z</time>
      </trkpt>
      <trkpt lat="42.5059" lon="1.72667">
        <ele>2496.508</ele>
        <time>2016-05-07T05:03:42Z</time>
      </trkpt>
      <trkpt lat="42.50642" lon="1.72692">
        <ele>2494.515</ele>
        <time>2016-05-07T05:04:02Z</time>
      </trkpt>
      <trkpt lat="42.50709" lon="1.72743">
        <ele>2488.747</ele>
        <time>2016-05-07T05:04:22Z</time>
      </trkpt>
      <trkpt lat="42.50751" lon="1.72772">
        <ele>2488.985</ele>
        <time>2016-05-07T05:04:42Z</time>
      </trkpt>
      <trkpt lat="42.50771" lon="1.72814">
        <ele>2489.073</ele>
        <time>2016-05-07T05:05:02Z</time>
      </trkpt>
      <trkpt lat="42.50792" lon="1.72853">
        <ele>2491.031</ele>
        <time>2016-05-07T05:05:22Z</time>
      </trkpt>
      <trkpt lat="42.50812" lon="1.72865">
        <ele>2493.632</ele>
        <time>2016-05-07T05:05:42Z</time>
      </trkpt>
      <trkpt lat="42.50844" lon="1.72881">
        <ele>2497.09</ele>
        <time>2016-05-07T05:06:02Z</time>
      </trkpt>
      <trkpt lat="42.50918" lon="1.72901">
        <ele>2502.468</ele>
        <time>2016-05-07T05:06:22Z</time>
      </trkpt>
      <trkpt lat="42.50993" lon="1.72921">
        <ele>2517.131</ele>
        <time>2016-05-07T05:06:42Z</time>
      </trkpt>
      <trkpt lat="42.51022" lon="1.72893">
        <ele>2525.061</ele>
        <time>2016-05-07T05:07:02Z</time>
      </trkpt>
      <trkpt lat="42.51063" lon="1.72892">
        <ele>2532.907</ele>
        <time>2016-05-07T05:07:22Z</time>
      </trkpt>
      <trkpt lat="42.51115" lon="1.72904">
        <ele>2542.308</ele>
        <time>2016-05-07T05:07:42Z</time>
      </trkpt>
      <trkpt lat="42.51138" lon="1.72906">
        <ele>2550.154</ele>
        <time>2016-05-07T05:08:02Z</time>
      </trkpt>
      <trkpt lat="42.51164" lon="1.72908">
        <ele>2557.496</ele>
        <time>2016-05-07T05:08:22Z</time>
      </trkpt>
      <trkpt lat="42.51183" lon="1.7291">
        <ele>2559.934</ele>
        <time>2016-05-07T05:08:42Z</time>
      </trkpt>
      <trkpt lat="42.51203" lon="1.7293">
        <ele>2562.412</ele>
        <time>2016-05-07T05:09:02Z</time>
      </trkpt>
      <trkpt lat="42.51219" lon="1.72949">
        <ele>2563.35</ele>
        <time>2016-05-07T05:09:22Z</time>
      </trkpt>
      <trkpt lat="42.51232" lon="1.72959">
        <ele>2563.521</ele>
        <time>2016-05-07T05:09:42Z</time>
      </trkpt>
      <trkpt lat="42.51252" lon="1.72958">
        <ele>2563.519</ele>
        <time>2016-05-07T05:10:02Z</time>
      </trkpt>
      <trkpt lat="42.51275" lon="1.7295">
        <ele>2563.937</ele>
        <time>2016-05-07T05:10:22Z</time>
      </trkpt>
      <trkpt lat="42.51295" lon="1.7294">
        <ele>2564.496</ele>
        <time>2016-05-07T05:10:42Z</time>
      </trkpt>
      <trkpt lat="42.51321" lon="1.72929">
        <ele>2564.231</ele>
        <time>2016-05-07T05:11:02Z</time>
      </trkpt>
      <trkpt lat="42.51338" lon="1.72917">
        <ele>2564.024</ele>
        <time>2016-05-07T05:11:22Z</time>
      </trkpt>
      <trkpt lat="42.51367" lon="1.72902">
        <ele>2564.008</ele>
        <time>2016-05-07T05:11:42Z</time>
      </trkpt>
      <trkpt lat="42.51392" lon="1.72887">
        <ele>2564.13</ele>
        <time>2016-05-07T05:12:02Z</time>
      </trkpt>
      <trkpt lat="42.51415" lon="1.72878">
        <ele>2564.592</ele>
        <time>2016-05-07T05:12:22Z</time>
      </trkpt>
      <trkpt lat="42.51429" lon="1.72866">
        <ele>2564.55</ele>
        <time>2016-05-07T05:12:42Z</time>
      </trkpt>
      <trkpt lat="42.51449" lon="1.72861">
        <ele>2565.068</ele>
        <time>2016-05-07T05:13:02Z</time>
      </trkpt>
      <trkpt lat="42.51462" lon="1.72848">
        <ele>2566.016</ele>
        <time>2016-05-07T05:13:22Z</time>
      </trkpt>
      <trkpt lat="42.51479" lon="1.72837">
        <ele>2568.157</ele>
        <time>2016-05-07T05:13:42Z</time>
      </trkpt>
      <trkpt lat="42.51498" lon="1.72837">
        <ele>2569.415</ele>
        <time>2016-05-07T05:14:02Z</time>
      </trkpt>
      <trkpt lat="42.51517" lon="1.72842">
        <ele>2575.373</ele>
        <time>2016-05-07T05:14:22Z</time>
      </trkpt>
      <trkpt lat="42.51523" lon="1.7287">
        <ele>2574.321</ele>
        <time>2016-05-07T05:14:42Z</time>
      </trkpt>
      <trkpt lat="42.51523" lon="1.72884">
        <ele>2574.441</ele>
        <time>2016-05-07T05:15:02Z</time>
      </trkpt>
      <trkpt lat="42.51538" lon="1.72911">
        <ele>2579.605</ele>
        <time>2016-05-07T05:15:22Z</time>
      </trkpt>
      <trkpt lat="42.51558" lon="1.72914">
        <ele>2586.208</ele>
        <time>2016-05-07T05:15:42Z</time>
      </trkpt>
      <trkpt lat="42.51571" lon="1.72932">
        <ele>2589.383</ele>
        <time>2016-05-07T05:16:02Z</time>
      </trkpt>
      <trkpt lat="42.51585" lon="1.72945">
        <ele>2592.835</ele>
        <time>2016-05-07T05:16:22Z</time>
      </trkpt>
      <trkpt lat="42.51604" lon="1.72975">
        <ele>2600.133</ele>
        <time>2016-05-07T05:16:42Z</time>
      </trkpt>
      <trkpt lat="42.51615" lon="1.73">
        <ele>2606.681</ele>
        <time>2016-05-07T05:17:02Z</time>
      </trkpt>
      <trkpt lat="42.51636" lon="1.73023">
        <ele>2615.679</ele>
        <time>2016-05-07T05:17:22Z</time>
      </trkpt>
      <trkpt lat="42.51677" lon="1.73029">
        <ele>2630.11</ele>
        <time>2016-05-07T05:17:42Z</time>
      </trkpt>
      <trkpt lat="42.51707" lon="1.72999">
        <ele>2649.038</ele>
        <time>2016-05-07T05:18:02Z</time>
      </trkpt>
      <trkpt lat="42.51738" lon="1.72987">
        <ele>2646.726</ele>
        <time>2016-05-07T05:18:22Z</time>
      </trkpt>
      <trkpt lat="42.51761" lon="1.73015">
        <ele>2633.028</ele>
        <time>2016-05-07T05:18:42Z</time>
      </trkpt>
      <trkpt lat="42.51793" lon="1.73028">
        <ele>2612.389</ele>
        <time>2016-05-07T05:19:02Z</time>
      </trkpt>
      <trkpt lat="42.51802" lon="1.73028">
        <ele>2606.617</ele>
        <time>2016-05-07T05:19:22Z</time>
      </trkpt>
      <trkpt lat="42.51814" lon="1.73034">
        <ele>2599.608</ele>
        <time>2016-05-07T05:19:42Z</time>
      </trkpt>
      <trkpt lat="42.51828" lon="1.73052">
        <ele>2594.693</ele>
        <time>2016-05-07T05:20:02Z</time>
      </trkpt>
      <trkpt lat="42.51846" lon="1.73068">
        <ele>2586.025</ele>
        <time>2016-05-07T05:20:22Z</time>
      </trkpt>
      <trkpt lat="42.51845" lon="1.7303">
        <ele>2578.353</ele>
        <time>2016-05-07T05:20:42Z</time>
      </trkpt>
      <trkpt lat="42.51857" lon="1.73029">
        <ele>2571.081</ele>
        <time>2016-05-07T05:21:02Z</time>
      </trkpt>
      <trkpt lat="42.51867" lon="1.73029">
        <ele>2566.129</ele>
        <time>2016-05-07T05:21:22Z</time>
      </trkpt>
      <trkpt lat="42.51879" lon="1.73027">
        <ele>2562.11</ele>
        <time>2016-05-07T05:21:42Z</time>
      </trkpt>
      <trkpt lat="42.51893" lon="1.73028">
        <ele>2558.388</ele>
        <time>2016-05-07T05:22:02Z</time>
      </trkpt>
      <trkpt lat="42.51903" lon="1.73026">
        <ele>2556.696</ele>
        <time>2016-05-07T05:22:22Z</time>
      </trkpt>
      <trkpt lat="42.51912" lon="1.73027">
        <ele>2554.996</ele>
        <time>2016-05-07T05:22:42Z</time>
      </trkpt>
      <trkpt lat="42.51926" lon="1.73035">
        <ele>2553.231</ele>
        <time>2016-05-07T05:23:02Z</time>
      </trkpt>
      <trkpt lat="42.51934" lon="1.73047">
        <ele>2551.924</ele>
        <time>2016-05-07T05:23:22Z</time>
      </trkpt>
      <trkpt lat="42.51939" lon="1.73058">
        <ele>2550.908</ele>
        <time>2016-05-07T05:23:42Z</time>
      </trkpt>
      <trkpt lat="42.51943" lon="1.73065">
        <ele>2550.73</ele>
        <time>2016-05-07T05:24:02Z</time>
      </trkpt>
      <trkpt lat="42.51949" lon="1.73065">
        <ele>2550.812</ele>
        <time>2016-05-07T05:24:22Z</time>
      </trkpt>
      <trkpt lat="42.51955" lon="1.73065">
        <ele>2550.93</ele>
        <time>2016-05-07T05:24:42Z</time>
      </trkpt>
      <trkpt lat="42.51962" lon="1.73066">
        <ele>2551.028</ele>
        <time>2016-05-07T05:25:02Z</time>
      </trkpt>
      <trkpt lat="42.51969" lon="1.73075">
        <ele>2550.586</ele>
        <time>2016-05-07T05:25:22Z</time>
      </trkpt>
      <trkpt lat="42.51977" lon="1.7308">
        <ele>2549.367</ele>
        <time>2016-05-07T05:25:42Z</time>
      </trkpt>
      <trkpt lat="42.51984" lon="1.73082">
        <ele>2547.475</ele>
        <time>2016-05-07T05:26:02Z</time>
      </trkpt>
      <trkpt lat="42.5199" lon="1.73083">
        <ele>2546.133</ele>
        <time>2016-05-07T05:26:22Z</time>
      </trkpt>
      <trkpt lat="42.51995" lon="1.73073">
        <ele>2545.361</ele>
        <time>2016-05-07T05:26:42Z</time>
      </trkpt>
      <trkpt lat="42.51995" lon="1.73063">
        <ele>2545.321</ele>
        <time>2016-05-07T05:27:02Z</time>
      </trkpt>
      <trkpt lat="42.51996" lon="1.73051">
        <ele>2545.813</ele>
        <time>2016-05-07T05:27:22Z</time>
      </trkpt>
      <trkpt lat="42.52" lon="1.73036">
        <ele>2547.008</ele>
        <time>2016-05-07T05:27:42Z</time>
      </trkpt>
      <trkpt lat="42.52004" lon="1.73026">
        <ele>2547.847</ele>
        <time>2016-05-07T05:28:02Z</time>
      </trkpt>
      <trkpt lat="42.52009" lon="1.7302">
        <ele>2548.719</ele>
        <time>2016-05-07T05:28:22Z</time>
      </trkpt>
      <trkpt lat="42.52015" lon="1.73018">
        <ele>2548.827</ele>
        <time>2016-05-07T05:28:42Z</time>
      </trkpt>
      <trkpt lat="42.52021" lon="1.73016">
        <ele>2549.445</ele>
        <time>2016-05-07T05:29:02Z</time>
      </trkpt>
      <trkpt lat="42.52027" lon="1.73015">
        <ele>2549.613</ele>
        <time>2016-05-07T05:29:22Z</time>
      </trkpt>
      <trkpt lat="42.52035" lon="1.73017">
        <ele>2550.534</ele>
        <time>2016-05-07T05:29:42Z</time>
      </trkpt>
      <trkpt lat="42.52046" lon="1.73024">
        <ele>2550.712</ele>
        <time>2016-05-07T05:30:02Z</time>
      </trkpt>
      <trkpt lat="42.52054" lon="1.73028">
        <ele>2551.55</ele>
        <time>2016-05-07T05:30:22Z</time>
      </trkpt>
      <trkpt lat="42.5206" lon="1.73028">
        <ele>2551.931</ele>
        <time>2016-05-07T05:30:42Z</time>
      </trkpt>
      <trkpt lat="42.5207" lon="1.73037">
        <ele>2548.461</ele>
        <time>2016-05-07T05:31:02Z</time>
      </trkpt>
      <trkpt lat="42.52079" lon="1.73037">
        <ele>2549.507</ele>
        <time>2016-05-07T05:31:22Z</time>
      </trkpt>
      <trkpt lat="42.52086" lon="1.7303">
        <ele>2550.608</ele>
        <time>2016-05-07T05:31:42Z</time>
      </trkpt>
      <trkpt lat="42.5209" lon="1.73019">
        <ele>2545.524</ele>
        <time>2016-05-07T05:32:02Z</time>
      </trkpt>
      <trkpt lat="42.52091" lon="1.73007">
        <ele>2539.626</ele>
        <time>2016-05-07T05:32:22Z</time>
      </trkpt>
      <trkpt lat="42.52091" lon="1.72993">
        <ele>2535.354</ele>
        <time>2016-05-07T05:32:42Z</time>
      </trkpt>
      <trkpt lat="42.52091" lon="1.7298">
        <ele>2531.682</ele>
        <time>2016-05-07T05:33:02Z</time>
      </trkpt>
      <trkpt lat="42.52092" lon="1.7297">
        <ele>2528.95</ele>
        <time>2016-05-07T05:33:22Z</time>
      </trkpt>
      <trkpt lat="42.52099" lon="1.72965">
        <ele>2523.761</ele>
        <time>2016-05-07T05:33:42Z</time>
      </trkpt>
      <trkpt lat="42.52104" lon="1.72972">
        <ele>2521.129</ele>
        <time>2016-05-07T05:34:02Z</time>
      </trkpt>
      <trkpt lat="42.52111" lon="1.72984">
        <ele>2519.467</ele>
        <time>2016-05-07T05:34:22Z</time>
      </trkpt>
      <trkpt lat="42.52118" lon="1.72984">
        <ele>2515.062</ele>
        <time>2016-05-07T05:34:42Z</time>
      </trkpt>
      <trkpt lat="42.52117" lon="1.72964">
        <ele>2510.883</ele>
        <time>2016-05-07T05:35:02Z</time>
      </trkpt>
      <trkpt lat="42.5212" lon="1.72952">
        <ele>2506.911</ele>
        <time>2016-05-07T05:35:22Z</time>
      </trkpt>
      <trkpt lat="42.5213" lon="1.72948">
        <ele>2500.908</ele>
        <time>2016-05-07T05:35:42Z</time>
      </trkpt>
      <trkpt lat="42.52136" lon="1.72945">
        <ele>2496.667</ele>
        <time>2016-05-07T05:36:02Z</time>
      </trkpt>
      <trkpt lat="42.52142" lon="1.72942">
        <ele>2494.079</ele>
        <time>2016-05-07T05:36:22Z</time>
      </trkpt>
      <trkpt lat="42.52147" lon="1.72939">
        <ele>2492.287</ele>
        <time>2016-05-07T05:36:42Z</time>
      </trkpt>
      <trkpt lat="42.52154" lon="1.72938">
        <ele>2489.545</ele>
        <time>2016-05-07T05:37:02Z</time>
      </trkpt>
      <trkpt lat="42.52159" lon="1.72938">
        <ele>2487.483</ele>
        <time>2016-05-07T05:37:22Z</time>
      </trkpt>
      <trkpt lat="42.52165" lon="1.72939">
        <ele>2484.914</ele>
        <time>2016-05-07T05:37:42Z</time>
      </trkpt>
      <trkpt lat="42.52171" lon="1.72939">
        <ele>2482.162</ele>
        <time>2016-05-07T05:38:02Z</time>
      </trkpt>
      <trkpt lat="42.52176" lon="1.7294">
        <ele>2479.48</ele>
        <time>2016-05-07T05:38:22Z</time>
      </trkpt>
      <trkpt lat="42.52181" lon="1.72943">
        <ele>2476.951</ele>
        <time>2016-05-07T05:38:42Z</time>
      </trkpt>
      <trkpt lat="42.52187" lon="1.72943">
        <ele>2473.801</ele>
        <time>2016-05-07T05:39:02Z</time>
      </trkpt>
      <trkpt lat="42.52184" lon="1.72931">
        <ele>2475.611</ele>
        <time>2016-05-07T05:39:22Z</time>
      </trkpt>
      <trkpt lat="42.52183" lon="1.72923">
        <ele>2476.108</ele>
        <time>2016-05-07T05:39:42Z</time>
      </trkpt>
      <trkpt lat="42.52188" lon="1.72923">
        <ele>2473.666</ele>
        <time>2016-05-07T05:40:02Z</time>
      </trkpt>
      <trkpt lat="42.52194" lon="1.72933">
        <ele>2470.248</ele>
        <time>2016-05-07T05:40:22Z</time>
      </trkpt>
      <trkpt lat="42.52198" lon="1.72941">
        <ele>2468.746</ele>
        <time>2016-05-07T05:40:42Z</time>
      </trkpt>
      <trkpt lat="42.52204" lon="1.7294">
        <ele>2466.664</ele>
        <time>2016-05-07T05:41:02Z</time>
      </trkpt>
      <trkpt lat="42.52205" lon="1.72929">
        <ele>2466.392</ele>
        <time>2016-05-07T05:41:22Z</time>
      </trkpt>
      <trkpt lat="42.52207" lon="1.7292">
        <ele>2465.613</ele>
        <time>2016-05-07T05:41:42Z</time>
      </trkpt>
      <trkpt lat="42.52214" lon="1.7292">
        <ele>2463.191</ele>
        <time>2016-05-07T05:42:02Z</time>
      </trkpt>
      <trkpt lat="42.5222" lon="1.72917">
        <ele>2460.989</ele>
        <time>2016-05-07T05:42:22Z</time>
      </trkpt>
      <trkpt lat="42.52226" lon="1.72916">
        <ele>2459.176</ele>
        <time>2016-05-07T05:42:42Z</time>
      </trkpt>
      <trkpt lat="42.52231" lon="1.72914">
        <ele>2458.19</ele>
        <time>2016-05-07T05:43:02Z</time>
      </trkpt>
      <trkpt lat="42.52238" lon="1.7291">
        <ele>2457.219</ele>
        <time>2016-05-07T05:43:22Z</time>
      </trkpt>
      <trkpt lat="42.52244" lon="1.72905">
        <ele>2456.908</ele>
        <time>2016-05-07T05:43:42Z</time>
      </trkpt>
      <trkpt lat="42.52251" lon="1.72896">
        <ele>2457.328</ele>
        <time>2016-05-07T05:44:02Z</time>
      </trkpt>
      <trkpt lat="42.52256" lon="1.72893">
        <ele>2456.94</ele>
        <time>2016-05-07T05:44:22Z</time>
      </trkpt>
      <trkpt lat="42.52262" lon="1.72891">
        <ele>2456.438</ele>
        <time>2016-05-07T05:44:42Z</time>
      </trkpt>
      <trkpt lat="42.52268" lon="1.72889">
        <ele>2455.696</ele>
        <time>2016-05-07T05:45:02Z</time>
      </trkpt>
      <trkpt lat="42.52273" lon="1.7289">
        <ele>2454.744</ele>
        <time>2016-05-07T05:45:22Z</time>
      </trkpt>
      <trkpt lat="42.52281" lon="1.72893">
        <ele>2452.335</ele>
        <time>2016-05-07T05:45:42Z</time>
      </trkpt>
      <trkpt lat="42.52286" lon="1.72898">
        <ele>2449.833</ele>
        <time>2016-05-07T05:46:02Z</time>
      </trkpt>
      <trkpt lat="42.52291" lon="1.72901">
        <ele>2448.071</ele>
        <time>2016-05-07T05:46:22Z</time>
      </trkpt>
      <trkpt lat="42.52303" lon="1.72904">
        <ele>2444.523</ele>
        <time>2016-05-07T05:46:42Z</time>
      </trkpt>
      <trkpt lat="42.52308" lon="1.72905">
        <ele>2443.283</ele>
        <time>2016-05-07T05:47:02Z</time>
      </trkpt>
      <trkpt lat="42.52315" lon="1.72904">
        <ele>2442.111</ele>
        <time>2016-05-07T05:47:22Z</time>
      </trkpt>
      <trkpt lat="42.52321" lon="1.72901">
        <ele>2441.008</ele>
        <time>2016-05-07T05:47:42Z</time>
      </trkpt>
      <trkpt lat="42.52326" lon="1.72902">
        <ele>2439.913</ele>
        <time>2016-05-07T05:48:02Z</time>
      </trkpt>
      <trkpt lat="42.52332" lon="1.72899">
        <ele>2438.865</ele>
        <time>2016-05-07T05:48:22Z</time>
      </trkpt>
      <trkpt lat="42.52337" lon="1.72894">
        <ele>2437.923</ele>
        <time>2016-05-07T05:48:42Z</time>
      </trkpt>
      <trkpt lat="42.52342" lon="1.7289">
        <ele>2437.271</ele>
        <time>2016-05-07T05:49:02Z</time>
      </trkpt>
      <trkpt lat="42.52346" lon="1.72894">
        <ele>2437.019</ele>
        <time>2016-05-07T05:49:22Z</time>
      </trkpt>
      <trkpt lat="42.52352" lon="1.72901">
        <ele>2437.01</ele>
        <time>2016-05-07T05:49:42Z</time>
      </trkpt>
      <trkpt lat="42.52359" lon="1.729">
        <ele>2436.458</ele>
        <time>2016-05-07T05:50:02Z</time>
      </trkpt>
      <trkpt lat="42.52367" lon="1.729">
        <ele>2435.696</ele>
        <time>2016-05-07T05:50:22Z</time>
      </trkpt>
      <trkpt lat="42.52375" lon="1.72896">
        <ele>2434.387</ele>
        <time>2016-05-07T05:50:42Z</time>
      </trkpt>
      <trkpt lat="42.52383" lon="1.72895">
        <ele>2433.342</ele>
        <time>2016-05-07T05:51:02Z</time>
      </trkpt>
      <trkpt lat="42.52391" lon="1.72894">
        <ele>2432.226</ele>
        <time>2016-05-07T05:51:22Z</time>
      </trkpt>
      <trkpt lat="42.52395" lon="1.72895">
        <ele>2431.508</ele>
        <time>2016-05-07T05:51:42Z</time>
      </trkpt>
      <trkpt lat="42.52401" lon="1.72895">
        <ele>2430.669</ele>
        <time>2016-05-07T05:52:02Z</time>
      </trkpt>
      <trkpt lat="42.52407" lon="1.72892">
        <ele>2429.141</ele>
        <time>2016-05-07T05:52:22Z</time>
      </trkpt>
      <trkpt lat="42.52412" lon="1.72891">
        <ele>2428.289</ele>
        <time>2016-05-07T05:52:42Z</time>
      </trkpt>
      <trkpt lat="42.52419" lon="1.72893">
        <ele>2427.367</ele>
        <time>2016-05-07T05:53:02Z</time>
      </trkpt>
      <trkpt lat="42.52425" lon="1.72898">
        <ele>2427.275</ele>
        <time>2016-05-07T05:53:22Z</time>
      </trkpt>
      <trkpt lat="42.52429" lon="1.72902">
        <ele>2426.966</ele>
        <time>2016-05-07T05:53:42Z</time>
      </trkpt>
      <trkpt lat="42.52433" lon="1.72904">
        <ele>2426.424</ele>
        <time>2016-05-07T05:54:02Z</time>
      </trkpt>
      <trkpt lat="42.52439" lon="1.72906">
        <ele>2425.532</ele>
        <time>2016-05-07T05:54:22Z</time>
      </trkpt>
      <trkpt lat="42.52447" lon="1.72909">
        <ele>2424.368</ele>
        <time>2016-05-07T05:54:42Z</time>
      </trkpt>
      <trkpt lat="42.52455" lon="1.72904">
        <ele>2422.642</ele>
        <time>2016-05-07T05:55:02Z</time>
      </trkpt>
      <trkpt lat="42.52463" lon="1.729">
        <ele>2421.226</ele>
        <time>2016-05-07T05:55:22Z</time>
      </trkpt>
      <trkpt lat="42.52468" lon="1.72898">
        <ele>2420.108</ele>
        <time>2016-05-07T05:55:42Z</time>
      </trkpt>
      <trkpt lat="42.52474" lon="1.72896">
        <ele>2418.857</ele>
        <time>2016-05-07T05:56:02Z</time>
      </trkpt>
      <trkpt lat="42.52481" lon="1.72893">
        <ele>2416.949</ele>
        <time>2016-05-07T05:56:22Z</time>
      </trkpt>
      <trkpt lat="42.52501" lon="1.72883">
        <ele>2411.117</ele>
        <time>2016-05-07T05:56:42Z</time>
      </trkpt>
      <trkpt lat="42.52516" lon="1.72893">
        <ele>2409.745</ele>
        <time>2016-05-07T05:57:02Z</time>
      </trkpt>
      <trkpt lat="42.52528" lon="1.72901">
        <ele>2408.573</ele>
        <time>2016-05-07T05:57:22Z</time>
      </trkpt>
      <trkpt lat="42.52562" lon="1.72922">
        <ele>2399.944</ele>
        <time>2016-05-07T05:57:42Z</time>
      </trkpt>
      <trkpt lat="42.52567" lon="1.72926">
        <ele>2398.692</ele>
        <time>2016-05-07T05:58:02Z</time>
      </trkpt>
      <trkpt lat="42.52575" lon="1.72934">
        <ele>2395.91</ele>
        <time>2016-05-07T05:58:22Z</time>
      </trkpt>
      <trkpt lat="42.52596" lon="1.72953">
        <ele>2386.919</ele>
        <time>2016-05-07T05:58:42Z</time>
      </trkpt>
      <trkpt lat="42.52607" lon="1.72964">
        <ele>2381.209</ele>
        <time>2016-05-07T05:59:02Z</time>
      </trkpt>
      <trkpt lat="42.5261" lon="1.72972">
        <ele>2378.619</ele>
        <time>2016-05-07T05:59:22Z</time>
      </trkpt>
      <trkpt lat="42.52616" lon="1.72983">
        <ele>2375.608</ele>
        <time>2016-05-07T05:59:42Z</time>
      </trkpt>
      <trkpt lat="42.52619" lon="1.72994">
        <ele>2373.672</ele>
        <time>2016-05-07T06:00:02Z</time>
      </trkpt>
      <trkpt lat="42.52626" lon="1.73006">
        <ele>2370.534</ele>
        <time>2016-05-07T06:00:22Z</time>
      </trkpt>
      <trkpt lat="42.52632" lon="1.73017">
        <ele>2367.412</ele>
        <time>2016-05-07T06:00:42Z</time>
      </trkpt>
      <trkpt lat="42.52639" lon="1.73025">
        <ele>2364.22</ele>
        <time>2016-05-07T06:01:02Z</time>
      </trkpt>
      <trkpt lat="42.52646" lon="1.73035">
        <ele>2362.328</ele>
        <time>2016-05-07T06:01:22Z</time>
      </trkpt>
      <trkpt lat="42.52653" lon="1.73044">
        <ele>2361.289</ele>
        <time>2016-05-07T06:01:42Z</time>
      </trkpt>
      <trkpt lat="42.52663" lon="1.73054">
        <ele>2360.297</ele>
        <time>2016-05-07T06:02:02Z</time>
      </trkpt>
      <trkpt lat="42.52678" lon="1.73068">
        <ele>2358.785</ele>
        <time>2016-05-07T06:02:22Z</time>
      </trkpt>
      <trkpt lat="42.52691" lon="1.73082">
        <ele>2358.792</ele>
        <time>2016-05-07T06:02:42Z</time>
      </trkpt>
      <trkpt lat="42.52705" lon="1.73089">
        <ele>2356.573</ele>
        <time>2016-05-07T06:03:02Z</time>
      </trkpt>
      <trkpt lat="42.52713" lon="1.73095">
        <ele>2354.22</ele>
        <time>2016-05-07T06:03:22Z</time>
      </trkpt>
      <trkpt lat="42.5272" lon="1.73098">
        <ele>2353.108</ele>
        <time>2016-05-07T06:03:42Z</time>
      </trkpt>
      <trkpt lat="42.52728" lon="1.73103">
        <ele>2350.42</ele>
        <time>2016-05-07T06:04:02Z</time>
      </trkpt>
      <trkpt lat="42.52738" lon="1.73112">
        <ele>2346.982</ele>
        <time>2016-05-07T06:04:22Z</time>
      </trkpt>
      <trkpt lat="42.5275" lon="1.73117">
        <ele>2343.41</ele>
        <time>2016-05-07T06:04:42Z</time>
      </trkpt>
      <trkpt lat="42.5276" lon="1.73124">
        <ele>2339.178</ele>
        <time>2016-05-07T06:05:02Z</time>
      </trkpt>
      <trkpt lat="42.52768" lon="1.73131">
        <ele>2336.326</ele>
        <time>2016-05-07T06:05:22Z</time>
      </trkpt>
      <trkpt lat="42.52774" lon="1.73131">
        <ele>2335.217</ele>
        <time>2016-05-07T06:05:42Z</time>
      </trkpt>
      <trkpt lat="42.52784" lon="1.73133">
        <ele>2332.815</ele>
        <time>2016-05-07T06:06:02Z</time>
      </trkpt>
      <trkpt lat="42.52796" lon="1.73138">
        <ele>2329.433</ele>
        <time>2016-05-07T06:06:22Z</time>
      </trkpt>
      <trkpt lat="42.52811" lon="1.73135">
        <ele>2325.169</ele>
        <time>2016-05-07T06:06:42Z</time>
      </trkpt>
      <trkpt lat="42.52822" lon="1.73138">
        <ele>2321.804</ele>
        <time>2016-05-07T06:07:02Z</time>
      </trkpt>
      <trkpt lat="42.5283" lon="1.73136">
        <ele>2318.824</ele>
        <time>2016-05-07T06:07:22Z</time>
      </trkpt>
      <trkpt lat="42.52842" lon="1.7314">
        <ele>2314.908</ele>
        <time>2016-05-07T06:07:42Z</time>
      </trkpt>
      <trkpt lat="42.52858" lon="1.73144">
        <ele>2308.517</ele>
        <time>2016-05-07T06:08:02Z</time>
      </trkpt>
      <trkpt lat="42.5287" lon="1.73147">
        <ele>2304.649</ele>
        <time>2016-05-07T06:08:22Z</time>
      </trkpt>
      <trkpt lat="42.52883" lon="1.73152">
        <ele>2300.567</ele>
        <time>2016-05-07T06:08:42Z</time>
      </trkpt>
      <trkpt lat="42.52894" lon="1.73164">
        <ele>2296.655</ele>
        <time>2016-05-07T06:09:02Z</time>
      </trkpt>
      <trkpt lat="42.52903" lon="1.73174">
        <ele>2292.573</ele>
        <time>2016-05-07T06:09:22Z</time>
      </trkpt>
      <trkpt lat="42.52915" lon="1.73185">
        <ele>2287.924</ele>
        <time>2016-05-07T06:09:42Z</time>
      </trkpt>
      <trkpt lat="42.5293" lon="1.73194">
        <ele>2283.282</ele>
        <time>2016-05-07T06:10:02Z</time>
      </trkpt>
      <trkpt lat="42.52943" lon="1.73208">
        <ele>2276.15</ele>
        <time>2016-05-07T06:10:22Z</time>
      </trkpt>
      <trkpt lat="42.52958" lon="1.73221">
        <ele>2270.664</ele>
        <time>2016-05-07T06:10:42Z</time>
      </trkpt>
      <trkpt lat="42.52968" lon="1.73233">
        <ele>2266.706</ele>
        <time>2016-05-07T06:11:02Z</time>
      </trkpt>
      <trkpt lat="42.52977" lon="1.73238">
        <ele>2265.816</ele>
        <time>2016-05-07T06:11:22Z</time>
      </trkpt>
      <trkpt lat="42.52985" lon="1.7325">
        <ele>2263.908</ele>
        <time>2016-05-07T06:11:42Z</time>
      </trkpt>
      <trkpt lat="42.52995" lon="1.73263">
        <ele>2262.427</ele>
        <time>2016-05-07T06:12:02Z</time>
      </trkpt>
      <trkpt lat="42.53001" lon="1.73274">
        <ele>2260.639</ele>
        <time>2016-05-07T06:12:22Z</time>
      </trkpt>
      <trkpt lat="42.53013" lon="1.73282">
        <ele>2259.277</ele>
        <time>2016-05-07T06:12:42Z</time>
      </trkpt>
      <trkpt lat="42.5303" lon="1.73284">
        <ele>2258.035</ele>
        <time>2016-05-07T06:13:02Z</time>
      </trkpt>
      <trkpt lat="42.53026" lon="1.73289">
        <ele>2258.093</ele>
        <time>2016-05-07T06:13:22Z</time>
      </trkpt>
      <trkpt lat="42.5302" lon="1.73292">
        <ele>2258.044</ele>
        <time>2016-05-07T06:13:42Z</time>
      </trkpt>
      <trkpt lat="42.53016" lon="1.73295">
        <ele>2258.182</ele>
        <time>2016-05-07T06:14:02Z</time>
      </trkpt>
      <trkpt lat="42.53011" lon="1.73302">
        <ele>2258.17</ele>
        <time>2016-05-07T06:14:22Z</time>
      </trkpt>
      <trkpt lat="42.53008" lon="1.73309">
        <ele>2258.389</ele>
        <time>2016-05-07T06:14:42Z</time>
      </trkpt>
      <trkpt lat="42.5301" lon="1.73312">
        <ele>2258.106</ele>
        <time>2016-05-07T06:15:02Z</time>
      </trkpt>
      <trkpt lat="42.53011" lon="1.7332">
        <ele>2258.426</ele>
        <time>2016-05-07T06:15:22Z</time>
      </trkpt>
      <trkpt lat="42.53011" lon="1.73326">
        <ele>2258.708</ele>
        <time>2016-05-07T06:15:42Z</time>
      </trkpt>
      <trkpt lat="42.5302" lon="1.73331">
        <ele>2258.999</ele>
        <time>2016-05-07T06:16:02Z</time>
      </trkpt>
      <trkpt lat="42.53025" lon="1.73333">
        <ele>2259.031</ele>
        <time>2016-05-07T06:16:22Z</time>
      </trkpt>
      <trkpt lat="42.53031" lon="1.73341">
        <ele>2259.349</ele>
        <time>2016-05-07T06:16:42Z</time>
      </trkpt>
      <trkpt lat="42.53038" lon="1.73346">
        <ele>2258.987</ele>
        <time>2016-05-07T06:17:02Z</time>
      </trkpt>
      <trkpt lat="42.53045" lon="1.73342">
        <ele>2257.575</ele>
        <time>2016-05-07T06:17:22Z</time>
      </trkpt>
      <trkpt lat="42.53051" lon="1.73337">
        <ele>2256.066</ele>
        <time>2016-05-07T06:17:42Z</time>
      </trkpt>
      <trkpt lat="42.53055" lon="1.73336">
        <ele>2255.334</ele>
        <time>2016-05-07T06:18:02Z</time>
      </trkpt>
      <trkpt lat="42.53062" lon="1.73336">
        <ele>2253.212</ele>
        <time>2016-05-07T06:18:22Z</time>
      </trkpt>
      <trkpt lat="42.53071" lon="1.73337">
        <ele>2250.573</ele>
        <time>2016-05-07T06:18:42Z</time>
      </trkpt>
      <trkpt lat="42.53077" lon="1.73339">
        <ele>2249.185</ele>
        <time>2016-05-07T06:19:02Z</time>
      </trkpt>
      <trkpt lat="42.53091" lon="1.73342">
        <ele>2245.013</ele>
        <time>2016-05-07T06:19:22Z</time>
      </trkpt>
      <trkpt lat="42.53096" lon="1.73345">
        <ele>2244.108</ele>
        <time>2016-05-07T06:19:42Z</time>
      </trkpt>
      <trkpt lat="42.53101" lon="1.73347">
        <ele>2242.788</ele>
        <time>2016-05-07T06:20:02Z</time>
      </trkpt>
      <trkpt lat="42.53106" lon="1.73351">
        <ele>2241.72</ele>
        <time>2016-05-07T06:20:22Z</time>
      </trkpt>
      <trkpt lat="42.53111" lon="1.73356">
        <ele>2241.278</ele>
        <time>2016-05-07T06:20:42Z</time>
      </trkpt>
      <trkpt lat="42.53115" lon="1.73363">
        <ele>2240.866</ele>
        <time>2016-05-07T06:21:02Z</time>
      </trkpt>
      <trkpt lat="42.53121" lon="1.7337">
        <ele>2239.614</ele>
        <time>2016-05-07T06:21:22Z</time>
      </trkpt>
      <trkpt lat="42.53126" lon="1.7338">
        <ele>2240.075</ele>
        <time>2016-05-07T06:21:42Z</time>
      </trkpt>
      <trkpt lat="42.53133" lon="1.73385">
        <ele>2238.533</ele>
        <time>2016-05-07T06:22:02Z</time>
      </trkpt>
      <trkpt lat="42.53147" lon="1.73393">
        <ele>2234.341</ele>
        <time>2016-05-07T06:22:22Z</time>
      </trkpt>
      <trkpt lat="42.53153" lon="1.73398">
        <ele>2232.319</ele>
        <time>2016-05-07T06:22:42Z</time>
      </trkpt>
      <trkpt lat="42.53162" lon="1.73405">
        <ele>2229.009</ele>
        <time>2016-05-07T06:23:02Z</time>
      </trkpt>
      <trkpt lat="42.53172" lon="1.73415">
        <ele>2225.519</ele>
        <time>2016-05-07T06:23:22Z</time>
      </trkpt>
      <trkpt lat="42.53188" lon="1.73423">
        <ele>2217.808</ele>
        <time>2016-05-07T06:23:42Z</time>
      </trkpt>
      <trkpt lat="42.53196" lon="1.7343">
        <ele>2213.842</ele>
        <time>2016-05-07T06:24:02Z</time>
      </trkpt>
      <trkpt lat="42.53205" lon="1.73435">
        <ele>2209.644</ele>
        <time>2016-05-07T06:24:22Z</time>
      </trkpt>
      <trkpt lat="42.53217" lon="1.73441">
        <ele>2204.332</ele>
        <time>2016-05-07T06:24:42Z</time>
      </trkpt>
      <trkpt lat="42.53225" lon="1.73444">
        <ele>2200.75</ele>
        <time>2016-05-07T06:25:02Z</time>
      </trkpt>
      <trkpt lat="42.53233" lon="1.73447">
        <ele>2197.728</ele>
        <time>2016-05-07T06:25:22Z</time>
      </trkpt>
      <trkpt lat="42.53235" lon="1.73443">
        <ele>2196.369</ele>
        <time>2016-05-07T06:25:42Z</time>
      </trkpt>
      <trkpt lat="42.53242" lon="1.73446">
        <ele>2193.657</ele>
        <time>2016-05-07T06:26:02Z</time>
      </trkpt>
      <trkpt lat="42.53247" lon="1.73451">
        <ele>2192.225</ele>
        <time>2016-05-07T06:26:22Z</time>
      </trkpt>
      <trkpt lat="42.53252" lon="1.7346">
        <ele>2190.749</ele>
        <time>2016-05-07T06:26:42Z</time>
      </trkpt>
      <trkpt lat="42.53263" lon="1.73468">
        <ele>2187.402</ele>
        <time>2016-05-07T06:27:02Z</time>
      </trkpt>
      <trkpt lat="42.53271" lon="1.73475">
        <ele>2184.722</ele>
        <time>2016-05-07T06:27:22Z</time>
      </trkpt>
      <trkpt lat="42.53285" lon="1.7348">
        <ele>2180.308</ele>
        <time>2016-05-07T06:27:42Z</time>
      </trkpt>
      <trkpt lat="42.53297" lon="1.73481">
        <ele>2176.925</ele>
        <time>2016-05-07T06:28:02Z</time>
      </trkpt>
      <trkpt lat="42.53307" lon="1.73485">
        <ele>2174.337</ele>
        <time>2016-05-07T06:28:22Z</time>
      </trkpt>
      <trkpt lat="42.53313" lon="1.7348">
        <ele>2173.355</ele>
        <time>2016-05-07T06:28:42Z</time>
      </trkpt>
      <trkpt lat="42.53331" lon="1.73487">
        <ele>2170.893</ele>
        <time>2016-05-07T06:29:02Z</time>
      </trkpt>
      <trkpt lat="42.5334" lon="1.73488">
        <ele>2169.641</ele>
        <time>2016-05-07T06:29:22Z</time>
      </trkpt>
      <trkpt lat="42.53355" lon="1.73495">
        <ele>2167.012</ele>
        <time>2016-05-07T06:29:42Z</time>
      </trkpt>
      <trkpt lat="42.53364" lon="1.73491">
        <ele>2165.74</ele>
        <time>2016-05-07T06:30:02Z</time>
      </trkpt>
      <trkpt lat="42.53375" lon="1.73494">
        <ele>2164.968</ele>
        <time>2016-05-07T06:30:22Z</time>
      </trkpt>
      <trkpt lat="42.53381" lon="1.73495">
        <ele>2164.425</ele>
        <time>2016-05-07T06:30:42Z</time>
      </trkpt>
      <trkpt lat="42.53389" lon="1.73493">
        <ele>2163.726</ele>
        <time>2016-05-07T06:31:02Z</time>
      </trkpt>
      <trkpt lat="42.534" lon="1.73492">
        <ele>2162.608</ele>
        <time>2016-05-07T06:31:22Z</time>
      </trkpt>
      <trkpt lat="42.53409" lon="1.73492">
        <ele>2161.608</ele>
        <time>2016-05-07T06:31:42Z</time>
      </trkpt>
      <trkpt lat="42.53417" lon="1.7349">
        <ele>2160.693</ele>
        <time>2016-05-07T06:32:02Z</time>
      </trkpt>
      <trkpt lat="42.53424" lon="1.73488">
        <ele>2160.325</ele>
        <time>2016-05-07T06:32:22Z</time>
      </trkpt>
      <trkpt lat="42.5343" lon="1.73486">
        <ele>2160.043</ele>
        <time>2016-05-07T06:32:42Z</time>
      </trkpt>
      <trkpt lat="42.53437" lon="1.73484">
        <ele>2159.771</ele>
        <time>2016-05-07T06:33:02Z</time>
      </trkpt>
      <trkpt lat="42.53443" lon="1.7348">
        <ele>2159.339</ele>
        <time>2016-05-07T06:33:22Z</time>
      </trkpt>
      <trkpt lat="42.53449" lon="1.73476">
        <ele>2158.93</ele>
        <time>2016-05-07T06:33:42Z</time>
      </trkpt>
      <trkpt lat="42.53454" lon="1.73482">
        <ele>2159.128</ele>
        <time>2016-05-07T06:34:02Z</time>
      </trkpt>
      <trkpt lat="42.53462" lon="1.73479">
        <ele>2158.566</ele>
        <time>2016-05-07T06:34:22Z</time>
      </trkpt>
      <trkpt lat="42.53469" lon="1.73481">
        <ele>2158.357</ele>
        <time>2016-05-07T06:34:42Z</time>
      </trkpt>
      <trkpt lat="42.53476" lon="1.73484">
        <ele>2158.6</ele>
        <time>2016-05-07T06:35:02Z</time>
      </trkpt>
      <trkpt lat="42.5348" lon="1.73493">
        <ele>2159.72</ele>
        <time>2016-05-07T06:35:22Z</time>
      </trkpt>
      <trkpt lat="42.53488" lon="1.73498">
        <ele>2160.108</ele>
        <time>2016-05-07T06:35:42Z</time>
      </trkpt>
      <trkpt lat="42.53494" lon="1.73508">
        <ele>2161.446</ele>
        <time>2016-05-07T06:36:02Z</time>
      </trkpt>
      <trkpt lat="42.535" lon="1.73516">
        <ele>2162.328</ele>
        <time>2016-05-07T06:36:22Z</time>
      </trkpt>
      <trkpt lat="42.53509" lon="1.73514">
        <ele>2161.416</ele>
        <time>2016-05-07T06:36:42Z</time>
      </trkpt>
      <trkpt lat="42.53517" lon="1.73513">
        <ele>2160.684</ele>
        <time>2016-05-07T06:37:02Z</time>
      </trkpt>
      <trkpt lat="42.53525" lon="1.7351">
        <ele>2159.712</ele>
        <time>2016-05-07T06:37:22Z</time>
      </trkpt>
      <trkpt lat="42.53535" lon="1.73508">
        <ele>2158.753</ele>
        <time>2016-05-07T06:37:42Z</time>
      </trkpt>
      <trkpt lat="42.53542" lon="1.73505">
        <ele>2157.771</ele>
        <time>2016-05-07T06:38:02Z</time>
      </trkpt>
      <trkpt lat="42.53555" lon="1.73499">
        <ele>2155.889</ele>
        <time>2016-05-07T06:38:22Z</time>
      </trkpt>
      <trkpt lat="42.53564" lon="1.73493">
        <ele>2154.462</ele>
        <time>2016-05-07T06:38:42Z</time>
      </trkpt>
      <trkpt lat="42.53571" lon="1.73492">
        <ele>2153.783</ele>
        <time>2016-05-07T06:39:02Z</time>
      </trkpt>
      <trkpt lat="42.53579" lon="1.73493">
        <ele>2153.311</ele>
        <time>2016-05-07T06:39:22Z</time>
      </trkpt>
      <trkpt lat="42.53587" lon="1.73488">
        <ele>2152.208</ele>
        <time>2016-05-07T06:39:42Z</time>
      </trkpt>
      <trkpt lat="42.53598" lon="1.73484">
        <ele>2151.257</ele>
        <time>2016-05-07T06:40:02Z</time>
      </trkpt>
      <trkpt lat="42.53607" lon="1.73483">
        <ele>2150.739</ele>
        <time>2016-05-07T06:40:22Z</time>
      </trkpt>
      <trkpt lat="42.53617" lon="1.73481">
        <ele>2149.847</ele>
        <time>2016-05-07T06:40:42Z</time>
      </trkpt>
      <trkpt lat="42.53629" lon="1.73475">
        <ele>2148.275</ele>
        <time>2016-05-07T06:41:02Z</time>
      </trkpt>
      <trkpt lat="42.53636" lon="1.73473">
        <ele>2147.273</ele>
        <time>2016-05-07T06:41:22Z</time>
      </trkpt>
      <trkpt lat="42.5365" lon="1.73476">
        <ele>2146.734</ele>
        <time>2016-05-07T06:41:42Z</time>
      </trkpt>
      <trkpt lat="42.5366" lon="1.73473">
        <ele>2145.722</ele>
        <time>2016-05-07T06:42:02Z</time>
      </trkpt>
      <trkpt lat="42.5367" lon="1.7347">
        <ele>2144.54</ele>
        <time>2016-05-07T06:42:22Z</time>
      </trkpt>
      <trkpt lat="42.53681" lon="1.73464">
        <ele>2143.717</ele>
        <time>2016-05-07T06:42:42Z</time>
      </trkpt>
      <trkpt lat="42.53689" lon="1.73461">
        <ele>2143.287</ele>
        <time>2016-05-07T06:43:02Z</time>
      </trkpt>
      <trkpt lat="42.53695" lon="1.73453">
        <ele>2142.315</ele>
        <time>2016-05-07T06:43:22Z</time>
      </trkpt>
      <trkpt lat="42.537" lon="1.73445">
        <ele>2141.208</ele>
        <time>2016-05-07T06:43:42Z</time>
      </trkpt>
      <trkpt lat="42.53705" lon="1.73435">
        <ele>2140.492</ele>
        <time>2016-05-07T06:44:02Z</time>
      </trkpt>
      <trkpt lat="42.53713" lon="1.73428">
        <ele>2140.384</ele>
        <time>2016-05-07T06:44:22Z</time>
      </trkpt>
      <trkpt lat="42.53722" lon="1.73431">
        <ele>2141.062</ele>
        <time>2016-05-07T06:44:42Z</time>
      </trkpt>
      <trkpt lat="42.53736" lon="1.73432">
        <ele>2139.92</ele>
        <time>2016-05-07T06:45:02Z</time>
      </trkpt>
      <trkpt lat="42.53749" lon="1.73433">
        <ele>2138.758</ele>
        <time>2016-05-07T06:45:22Z</time>
      </trkpt>
      <trkpt lat="42.5376" lon="1.73429">
        <ele>2137.259</ele>
        <time>2016-05-07T06:45:42Z</time>
      </trkpt>
      <trkpt lat="42.53769" lon="1.73423">
        <ele>2136.067</ele>
        <time>2016-05-07T06:46:02Z</time>
      </trkpt>
      <trkpt lat="42.53773" lon="1.73418">
        <ele>2135.675</ele>
        <time>2016-05-07T06:46:22Z</time>
      </trkpt>
      <trkpt lat="42.53783" lon="1.73417">
        <ele>2134.459</ele>
        <time>2016-05-07T06:46:42Z</time>
      </trkpt>
      <trkpt lat="42.53792" lon="1.73419">
        <ele>2133.503</ele>
        <time>2016-05-07T06:47:02Z</time>
      </trkpt>
      <trkpt lat="42.53798" lon="1.73426">
        <ele>2133.023</ele>
        <time>2016-05-07T06:47:22Z</time>
      </trkpt>
      <trkpt lat="42.53807" lon="1.73427">
        <ele>2132.308</ele>
        <time>2016-05-07T06:47:42Z</time>
      </trkpt>
      <trkpt lat="42.53812" lon="1.73435">
        <ele>2132.086</ele>
        <time>2016-05-07T06:48:02Z</time>
      </trkpt>
      <trkpt lat="42.53819" lon="1.73434">
        <ele>2131.388</ele>
        <time>2016-05-07T06:48:22Z</time>
      </trkpt>
      <trkpt lat="42.53826" lon="1.73438">
        <ele>2130.766</ele>
        <time>2016-05-07T06:48:42Z</time>
      </trkpt>
      <trkpt lat="42.53835" lon="1.73438">
        <ele>2129.994</ele>
        <time>2016-05-07T06:49:02Z</time>
      </trkpt>
      <trkpt lat="42.53841" lon="1.73444">
        <ele>2129.542</ele>
        <time>2016-05-07T06:49:22Z</time>
      </trkpt>
      <trkpt lat="42.53848" lon="1.73447">
        <ele>2129.063</ele>
        <time>2016-05-07T06:49:42Z</time>
      </trkpt>
      <trkpt lat="42.53856" lon="1.7345">
        <ele>2128.541</ele>
        <time>2016-05-07T06:50:02Z</time>
      </trkpt>
      <trkpt lat="42.53867" lon="1.73454">
        <ele>2127.739</ele>
        <time>2016-05-07T06:50:22Z</time>
      </trkpt>
      <trkpt lat="42.53874" lon="1.73451">
        <ele>2126.845</ele>
        <time>2016-05-07T06:50:42Z</time>
      </trkpt>
      <trkpt lat="42.53882" lon="1.73448">
        <ele>2125.947</ele>
        <time>2016-05-07T06:51:02Z</time>
      </trkpt>
      <trkpt lat="42.53888" lon="1.73445">
        <ele>2125.111</ele>
        <time>2016-05-07T06:51:22Z</time>
      </trkpt>
      <trkpt lat="42.53898" lon="1.73442">
        <ele>2123.908</ele>
        <time>2016-05-07T06:51:42Z</time>
      </trkpt>
      <trkpt lat="42.53906" lon="1.73444">
        <ele>2123.175</ele>
        <time>2016-05-07T06:52:02Z</time>
      </trkpt>
      <trkpt lat="42.53912" lon="1.73452">
        <ele>2122.547</ele>
        <time>2016-05-07T06:52:22Z</time>
      </trkpt>
      <trkpt lat="42.53921" lon="1.73449">
        <ele>2121.665</ele>
        <time>2016-05-07T06:52:42Z</time>
      </trkpt>
      <trkpt lat="42.5393" lon="1.73449">
        <ele>2120.683</ele>
        <time>2016-05-07T06:53:02Z</time>
      </trkpt>
      <trkpt lat="42.5394" lon="1.73449">
        <ele>2119.551</ele>
        <time>2016-05-07T06:53:22Z</time>
      </trkpt>
      <trkpt lat="42.53951" lon="1.73449">
        <ele>2118.162</ele>
        <time>2016-05-07T06:53:42Z</time>
      </trkpt>
      <trkpt lat="42.53958" lon="1.73447">
        <ele>2117.14</ele>
        <time>2016-05-07T06:54:02Z</time>
      </trkpt>
      <trkpt lat="42.53965" lon="1.73444">
        <ele>2116.118</ele>
        <time>2016-05-07T06:54:22Z</time>
      </trkpt>
      <trkpt lat="42.53972" lon="1.73443">
        <ele>2114.995</ele>
        <time>2016-05-07T06:54:42Z</time>
      </trkpt>
      <trkpt lat="42.53981" lon="1.73442">
        <ele>2113.849</ele>
        <time>2016-05-07T06:55:02Z</time>
      </trkpt>
      <trkpt lat="42.53988" lon="1.7345">
        <ele>2112.923</ele>
        <time>2016-05-07T06:55:22Z</time>
      </trkpt>
      <trkpt lat="42.53995" lon="1.73452">
        <ele>2112.008</ele>
        <time>2016-05-07T06:55:42Z</time>
      </trkpt>
      <trkpt lat="42.54004" lon="1.73452">
        <ele>2110.99</ele>
        <time>2016-05-07T06:56:02Z</time>
      </trkpt>
      <trkpt lat="42.54012" lon="1.7345">
        <ele>2110.022</ele>
        <time>2016-05-07T06:56:22Z</time>
      </trkpt>
      <trkpt lat="42.5402" lon="1.73453">
        <ele>2109.42</ele>
        <time>2016-05-07T06:56:42Z</time>
      </trkpt>
      <trkpt lat="42.54029" lon="1.73454">
        <ele>2108.688</ele>
        <time>2016-05-07T06:57:02Z</time>
      </trkpt>
      <trkpt lat="42.54041" lon="1.73453">
        <ele>2107.436</ele>
        <time>2016-05-07T06:57:22Z</time>
      </trkpt>
      <trkpt lat="42.54051" lon="1.7345">
        <ele>2106.027</ele>
        <time>2016-05-07T06:57:42Z</time>
      </trkpt>
      <trkpt lat="42.54063" lon="1.73442">
        <ele>2105.095</ele>
        <time>2016-05-07T06:58:02Z</time>
      </trkpt>
      <trkpt lat="42.54075" lon="1.73441">
        <ele>2104.853</ele>
        <time>2016-05-07T06:58:22Z</time>
      </trkpt>
      <trkpt lat="42.54085" lon="1.73439">
        <ele>2104.479</ele>
        <time>2016-05-07T06:58:42Z</time>
      </trkpt>
      <trkpt lat="42.54094" lon="1.73448">
        <ele>2103.805</ele>
        <time>2016-05-07T06:59:02Z</time>
      </trkpt>
      <trkpt lat="42.54106" lon="1.73459">
        <ele>2102.625</ele>
        <time>2016-05-07T06:59:22Z</time>
      </trkpt>
      <trkpt lat="42.5412" lon="1.73462">
        <ele>2101.208</ele>
        <time>2016-05-07T06:59:42Z</time>
      </trkpt>
      <trkpt lat="42.5413" lon="1.73455">
        <ele>2100.458</ele>
        <time>2016-05-07T07:00:02Z</time>
      </trkpt>
      <trkpt lat="42.54149" lon="1.73455">
        <ele>2098.72</ele>
        <time>2016-05-07T07:00:22Z</time>
      </trkpt>
      <trkpt lat="42.54161" lon="1.73456">
        <ele>2097.548</ele>
        <time>2016-05-07T07:00:42Z</time>
      </trkpt>
      <trkpt lat="42.54174" lon="1.73461">
        <ele>2096.326</ele>
        <time>2016-05-07T07:01:02Z</time>
      </trkpt>
      <trkpt lat="42.54189" lon="1.73467">
        <ele>2094.884</ele>
        <time>2016-05-07T07:01:22Z</time>
      </trkpt>
      <trkpt lat="42.542" lon="1.73466">
        <ele>2093.855</ele>
        <time>2016-05-07T07:01:42Z</time>
      </trkpt>
      <trkpt lat="42.54211" lon="1.73473">
        <ele>2092.863</ele>
        <time>2016-05-07T07:02:02Z</time>
      </trkpt>
      <trkpt lat="42.54221" lon="1.73491">
        <ele>2091.431</ele>
        <time>2016-05-07T07:02:22Z</time>
      </trkpt>
      <trkpt lat="42.54227" lon="1.73506">
        <ele>2090.822</ele>
        <time>2016-05-07T07:02:42Z</time>
      </trkpt>
      <trkpt lat="42.5423" lon="1.7352">
        <ele>2090.762</ele>
        <time>2016-05-07T07:03:02Z</time>
      </trkpt>
      <trkpt lat="42.54238" lon="1.73543">
        <ele>2090.208</ele>
        <time>2016-05-07T07:03:22Z</time>
      </trkpt>
      <trkpt lat="42.5425" lon="1.73553">
        <ele>2090.008</ele>
        <time>2016-05-07T07:03:42Z</time>
      </trkpt>
      <trkpt lat="42.5426" lon="1.73563">
        <ele>2088.993</ele>
        <time>2016-05-07T07:04:02Z</time>
      </trkpt>
      <trkpt lat="42.54272" lon="1.73576">
        <ele>2087.785</ele>
        <time>2016-05-07T07:04:22Z</time>
      </trkpt>
      <trkpt lat="42.54285" lon="1.73585">
        <ele>2086.533</ele>
        <time>2016-05-07T07:04:42Z</time>
      </trkpt>
      <trkpt lat="42.54299" lon="1.73584">
        <ele>2085.521</ele>
        <time>2016-05-07T07:05:02Z</time>
      </trkpt>
      <trkpt lat="42.5431" lon="1.73584">
        <ele>2085.089</ele>
        <time>2016-05-07T07:05:22Z</time>
      </trkpt>
      <trkpt lat="42.54317" lon="1.73582">
        <ele>2085.02</ele>
        <time>2016-05-07T07:05:42Z</time>
      </trkpt>
      <trkpt lat="42.54325" lon="1.73579">
        <ele>2085.168</ele>
        <time>2016-05-07T07:06:02Z</time>
      </trkpt>
      <trkpt lat="42.54327" lon="1.73577">
        <ele>2085.166</ele>
        <time>2016-05-07T07:06:22Z</time>
      </trkpt>
      <trkpt lat="42.5433" lon="1.73577">
        <ele>2085.044</ele>
        <time>2016-05-07T07:06:42Z</time>
      </trkpt>
      <trkpt lat="42.54332" lon="1.73576">
        <ele>2085.005</ele>
        <time>2016-05-07T07:07:02Z</time>
      </trkpt>
      <trkpt lat="42.54336" lon="1.73575">
        <ele>2084.815</ele>
        <time>2016-05-07T07:07:22Z</time>
      </trkpt>
      <trkpt lat="42.54339" lon="1.73576">
        <ele>2084.608</ele>
        <time>2016-05-07T07:07:42Z</time>
      </trkpt>
      <trkpt lat="42.54341" lon="1.73575">
        <ele>2084.495</ele>
        <time>2016-05-07T07:08:02Z</time>
      </trkpt>
      <trkpt lat="42.54343" lon="1.73571">
        <ele>2084.337</ele>
        <time>2016-05-07T07:08:22Z</time>
      </trkpt>
      <trkpt lat="42.54341" lon="1.73569">
        <ele>2084.445</ele>
        <time>2016-05-07T07:08:42Z</time>
      </trkpt>
      <trkpt lat="42.5434" lon="1.73567">
        <ele>2084.633</ele>
        <time>2016-05-07T07:09:02Z</time>
      </trkpt>
      <trkpt lat="42.54338" lon="1.73563">
        <ele>2084.621</ele>
        <time>2016-05-07T07:09:22Z</time>
      </trkpt>
      <trkpt lat="42.54338" lon="1.73559">
        <ele>2084.722</ele>
        <time>2016-05-07T07:09:42Z</time>
      </trkpt>
      <trkpt lat="42.54336" lon="1.73555">
        <ele>2084.89</ele>
        <time>2016-05-07T07:10:02Z</time>
      </trkpt>
      <trkpt lat="42.54336" lon="1.73549">
        <ele>2085.018</ele>
        <time>2016-05-07T07:10:22Z</time>
      </trkpt>
      <trkpt lat="42.54337" lon="1.73543">
        <ele>2085.212</ele>
        <time>2016-05-07T07:10:42Z</time>
      </trkpt>
      <trkpt lat="42.54339" lon="1.73538">
        <ele>2085.232</ele>
        <time>2016-05-07T07:11:02Z</time>
      </trkpt>
      <trkpt lat="42.54343" lon="1.73531">
        <ele>2085.205</ele>
        <time>2016-05-07T07:11:22Z</time>
      </trkpt>
      <trkpt lat="42.54347" lon="1.73527">
        <ele>2085.008</ele>
        <time>2016-05-07T07:11:42Z</time>
      </trkpt>
      <trkpt lat="42.54349" lon="1.73522">
        <ele>2085.232</ele>
        <time>2016-05-07T07:12:02Z</time>
      </trkpt>
      <trkpt lat="42.54352" lon="1.73517">
        <ele>2085.354</ele>
        <time>2016-05-07T07:12:22Z</time>
      </trkpt>
      <trkpt lat="42.54355" lon="1.73513">
        <ele>2085.332</ele>
        <time>2016-05-07T07:12:42Z</time>
      </trkpt>
      <trkpt lat="42.54358" lon="1.73509">
        <ele>2085.53</ele>
        <time>2016-05-07T07:13:02Z</time>
      </trkpt>
      <trkpt lat="42.54369" lon="1.7352">
        <ele>2083.998</ele>
        <time>2016-05-07T07:13:22Z</time>
      </trkpt>
      <trkpt lat="42.54373" lon="1.73515">
        <ele>2084.019</ele>
        <time>2016-05-07T07:13:42Z</time>
      </trkpt>
      <trkpt lat="42.54377" lon="1.73511">
        <ele>2084.267</ele>
        <time>2016-05-07T07:14:02Z</time>
      </trkpt>
      <trkpt lat="42.54383" lon="1.73508">
        <ele>2084.285</ele>
        <time>2016-05-07T07:14:22Z</time>
      </trkpt>
      <trkpt lat="42.54388" lon="1.73506">
        <ele>2084.168</ele>
        <time>2016-05-07T07:14:42Z</time>
      </trkpt>
      <trkpt lat="42.54392" lon="1.73499">
        <ele>2084.442</ele>
        <time>2016-05-07T07:15:02Z</time>
      </trkpt>
      <trkpt lat="42.54394" lon="1.73491">
        <ele>2084.326</ele>
        <time>2016-05-07T07:15:22Z</time>
      </trkpt>
      <trkpt lat="42.54394" lon="1.73483">
        <ele>2084.508</ele>
        <time>2016-05-07T07:15:42Z</time>
      </trkpt>
      <trkpt lat="42.54395" lon="1.7347">
        <ele>2084.947</ele>
        <time>2016-05-07T07:16:02Z</time>
      </trkpt>
      <trkpt lat="42.54396" lon="1.73464">
        <ele>2085.189</ele>
        <time>2016-05-07T07:16:22Z</time>
      </trkpt>
      <trkpt lat="42.54397" lon="1.73457">
        <ele>2085.157</ele>
        <time>2016-05-07T07:16:42Z</time>
      </trkpt>
      <trkpt lat="42.54397" lon="1.73449">
        <ele>2085.475</ele>
        <time>2016-05-07T07:17:02Z</time>
      </trkpt>
      <trkpt lat="42.54396" lon="1.73442">
        <ele>2085.793</ele>
        <time>2016-05-07T07:17:22Z</time>
      </trkpt>
      <trkpt lat="42.54391" lon="1.73438">
        <ele>2086.794</ele>
        <time>2016-05-07T07:17:42Z</time>
      </trkpt>
      <trkpt lat="42.54386" lon="1.73432">
        <ele>2087.092</ele>
        <time>2016-05-07T07:18:02Z</time>
      </trkpt>
      <trkpt lat="42.54385" lon="1.73423">
        <ele>2087.13</ele>
        <time>2016-05-07T07:18:22Z</time>
      </trkpt>
      <trkpt lat="42.54384" lon="1.73414">
        <ele>2087.237</ele>
        <time>2016-05-07T07:18:42Z</time>
      </trkpt>
      <trkpt lat="42.54385" lon="1.73409">
        <ele>2087.449</ele>
        <time>2016-05-07T07:19:02Z</time>
      </trkpt>
      <trkpt lat="42.54387" lon="1.73401">
        <ele>2087.713</ele>
        <time>2016-05-07T07:19:22Z</time>
      </trkpt>
      <trkpt lat="42.54389" lon="1.73397">
        <ele>2087.708</ele>
        <time>2016-05-07T07:19:42Z</time>
      </trkpt>
      <trkpt lat="42.54391" lon="1.73393">
        <ele>2087.634</ele>
        <time>2016-05-07T07:20:02Z</time>
      </trkpt>
      <trkpt lat="42.54417" lon="1.73388">
        <ele>2085.056</ele>
        <time>2016-05-07T07:20:22Z</time>
      </trkpt>
      <trkpt lat="42.54434" lon="1.73391">
        <ele>2084.344</ele>
        <time>2016-05-07T07:20:42Z</time>
      </trkpt>
      <trkpt lat="42.5444" lon="1.73426">
        <ele>2081.712</ele>
        <time>2016-05-07T07:21:02Z</time>
      </trkpt>
      <trkpt lat="42.54444" lon="1.73454">
        <ele>2079.39</ele>
        <time>2016-05-07T07:21:22Z</time>
      </trkpt>
      <trkpt lat="42.54455" lon="1.73454">
        <ele>2078.751</ele>
        <time>2016-05-07T07:21:42Z</time>
      </trkpt>
      <trkpt lat="42.54454" lon="1.73456">
        <ele>2078.659</ele>
        <time>2016-05-07T07:22:02Z</time>
      </trkpt>
      <trkpt lat="42.54446" lon="1.73464">
        <ele>2078.697</ele>
        <time>2016-05-07T07:22:22Z</time>
      </trkpt>
      <trkpt lat="42.54441" lon="1.73498">
        <ele>2076.595</ele>
        <time>2016-05-07T07:22:42Z</time>
      </trkpt>
      <trkpt lat="42.54444" lon="1.73508">
        <ele>2075.849</ele>
        <time>2016-05-07T07:23:02Z</time>
      </trkpt>
      <trkpt lat="42.54445" lon="1.73516">
        <ele>2075.423</ele>
        <time>2016-05-07T07:23:22Z</time>
      </trkpt>
      <trkpt lat="42.54448" lon="1.73521">
        <ele>2074.908</ele>
        <time>2016-05-07T07:23:42Z</time>
      </trkpt>
      <trkpt lat="42.54468" lon="1.73524">
        <ele>2072.94</ele>
        <time>2016-05-07T07:24:02Z</time>
      </trkpt>
      <trkpt lat="42.54493" lon="1.7353">
        <ele>2070.422</ele>
        <time>2016-05-07T07:24:22Z</time>
      </trkpt>
      <trkpt lat="42.54512" lon="1.7353">
        <ele>2069.09</ele>
        <time>2016-05-07T07:24:42Z</time>
      </trkpt>
      <trkpt lat="42.54533" lon="1.73529">
        <ele>2067.578</ele>
        <time>2016-05-07T07:25:02Z</time>
      </trkpt>
      <trkpt lat="42.54548" lon="1.73532">
        <ele>2065.866</ele>
        <time>2016-05-07T07:25:22Z</time>
      </trkpt>
      <trkpt lat="42.54554" lon="1.73532">
        <ele>2065.227</ele>
        <time>2016-05-07T07:25:42Z</time>
      </trkpt>
      <trkpt lat="42.5456" lon="1.73531">
        <ele>2064.715</ele>
        <time>2016-05-07T07:26:02Z</time>
      </trkpt>
      <trkpt lat="42.54564" lon="1.73533">
        <ele>2063.713</ele>
        <time>2016-05-07T07:26:22Z</time>
      </trkpt>
      <trkpt lat="42.54564" lon="1.73539">
        <ele>2062.297</ele>
        <time>2016-05-07T07:26:42Z</time>
      </trkpt>
      <trkpt lat="42.54558" lon="1.73542">
        <ele>2062.523</ele>
        <time>2016-05-07T07:27:02Z</time>
      </trkpt>
      <trkpt lat="42.54553" lon="1.73543">
        <ele>2063.125</ele>
        <time>2016-05-07T07:27:22Z</time>
      </trkpt>
      <trkpt lat="42.5455" lon="1.73546">
        <ele>2063.008</ele>
        <time>2016-05-07T07:27:42Z</time>
      </trkpt>
      <trkpt lat="42.54548" lon="1.73553">
        <ele>2062.14</ele>
        <time>2016-05-07T07:28:02Z</time>
      </trkpt>
      <trkpt lat="42.5455" lon="1.73559">
        <ele>2060.982</ele>
        <time>2016-05-07T07:28:22Z</time>
      </trkpt>
      <trkpt lat="42.54553" lon="1.73558">
        <ele>2060.12</ele>
        <time>2016-05-07T07:28:42Z</time>
      </trkpt>
      <trkpt lat="42.54558" lon="1.73559">
        <ele>2059.098</ele>
        <time>2016-05-07T07:29:02Z</time>
      </trkpt>
      <trkpt lat="42.54564" lon="1.73556">
        <ele>2057.826</ele>
        <time>2016-05-07T07:29:22Z</time>
      </trkpt>
      <trkpt lat="42.54569" lon="1.73555">
        <ele>2056.837</ele>
        <time>2016-05-07T07:29:42Z</time>
      </trkpt>
      <trkpt lat="42.54572" lon="1.73554">
        <ele>2056.565</ele>
        <time>2016-05-07T07:30:02Z</time>
      </trkpt>
      <trkpt lat="42.54575" lon="1.73554">
        <ele>2055.773</ele>
        <time>2016-05-07T07:30:22Z</time>
      </trkpt>
      <trkpt lat="42.5458" lon="1.73556">
        <ele>2054.061</ele>
        <time>2016-05-07T07:30:42Z</time>
      </trkpt>
      <trkpt lat="42.54583" lon="1.73557">
        <ele>2052.921</ele>
        <time>2016-05-07T07:31:02Z</time>
      </trkpt>
      <trkpt lat="42.54591" lon="1.73556">
        <ele>2051.913</ele>
        <time>2016-05-07T07:31:22Z</time>
      </trkpt>
      <trkpt lat="42.54595" lon="1.73556">
        <ele>2051.208</ele>
        <time>2016-05-07T07:31:42Z</time>
      </trkpt>
      <trkpt lat="42.54602" lon="1.73558">
        <ele>2050.017</ele>
        <time>2016-05-07T07:32:02Z</time>
      </trkpt>
      <trkpt lat="42.54607" lon="1.73561">
        <ele>2049.169</ele>
        <time>2016-05-07T07:32:22Z</time>
      </trkpt>
      <trkpt lat="42.54612" lon="1.73562">
        <ele>2048.297</ele>
        <time>2016-05-07T07:32:42Z</time>
      </trkpt>
      <trkpt lat="42.54617" lon="1.73562">
        <ele>2047.385</ele>
        <time>2016-05-07T07:33:02Z</time>
      </trkpt>
      <trkpt lat="42.54628" lon="1.73566">
        <ele>2045.533</ele>
        <time>2016-05-07T07:33:22Z</time>
      </trkpt>
      <trkpt lat="42.54632" lon="1.73564">
        <ele>2045.174</ele>
        <time>2016-05-07T07:33:42Z</time>
      </trkpt>
      <trkpt lat="42.54638" lon="1.73564">
        <ele>2044.292</ele>
        <time>2016-05-07T07:34:02Z</time>
      </trkpt>
      <trkpt lat="42.54642" lon="1.73563">
        <ele>2043.73</ele>
        <time>2016-05-07T07:34:22Z</time>
      </trkpt>
      <trkpt lat="42.54647" lon="1.73561">
        <ele>2043.134</ele>
        <time>2016-05-07T07:34:42Z</time>
      </trkpt>
      <trkpt lat="42.54654" lon="1.73558">
        <ele>2042.455</ele>
        <time>2016-05-07T07:35:02Z</time>
      </trkpt>
      <trkpt lat="42.54658" lon="1.73555">
        <ele>2041.91</ele>
        <time>2016-05-07T07:35:22Z</time>
      </trkpt>
      <trkpt lat="42.54663" lon="1.73551">
        <ele>2041.608</ele>
        <time>2016-05-07T07:35:42Z</time>
      </trkpt>
      <trkpt lat="42.54668" lon="1.73547">
        <ele>2041.274</ele>
        <time>2016-05-07T07:36:02Z</time>
      </trkpt>
      <trkpt lat="42.54673" lon="1.73544">
        <ele>2041.066</ele>
        <time>2016-05-07T07:36:22Z</time>
      </trkpt>
      <trkpt lat="42.54678" lon="1.73541">
        <ele>2040.954</ele>
        <time>2016-05-07T07:36:42Z</time>
      </trkpt>
      <trkpt lat="42.54684" lon="1.73538">
        <ele>2040.832</ele>
        <time>2016-05-07T07:37:02Z</time>
      </trkpt>
      <trkpt lat="42.54687" lon="1.73536">
        <ele>2040.83</ele>
        <time>2016-05-07T07:37:22Z</time>
      </trkpt>
      <trkpt lat="42.54691" lon="1.73532">
        <ele>2040.861</ele>
        <time>2016-05-07T07:37:42Z</time>
      </trkpt>
      <trkpt lat="42.54696" lon="1.73529">
        <ele>2040.979</ele>
        <time>2016-05-07T07:38:02Z</time>
      </trkpt>
      <trkpt lat="42.547" lon="1.73526">
        <ele>2041.217</ele>
        <time>2016-05-07T07:38:22Z</time>
      </trkpt>
      <trkpt lat="42.54713" lon="1.73514">
        <ele>2043.717</ele>
        <time>2016-05-07T07:38:42Z</time>
      </trkpt>
      <trkpt lat="42.54726" lon="1.735">
        <ele>2046.287</ele>
        <time>2016-05-07T07:39:02Z</time>
      </trkpt>
      <trkpt lat="42.54746" lon="1.73484">
        <ele>2046.015</ele>
        <time>2016-05-07T07:39:22Z</time>
      </trkpt>
      <trkpt lat="42.54764" lon="1.73481">
        <ele>2046.308</ele>
        <time>2016-05-07T07:39:42Z</time>
      </trkpt>
      <trkpt lat="42.54773" lon="1.73487">
        <ele>2044.362</ele>
        <time>2016-05-07T07:40:02Z</time>
      </trkpt>
      <trkpt lat="42.5478" lon="1.7349">
        <ele>2043.594</ele>
        <time>2016-05-07T07:40:22Z</time>
      </trkpt>
      <trkpt lat="42.54786" lon="1.73496">
        <ele>2042.512</ele>
        <time>2016-05-07T07:40:42Z</time>
      </trkpt>
      <trkpt lat="42.54795" lon="1.73502">
        <ele>2042.58</ele>
        <time>2016-05-07T07:41:02Z</time>
      </trkpt>
      <trkpt lat="42.54806" lon="1.73507">
        <ele>2042.838</ele>
        <time>2016-05-07T07:41:22Z</time>
      </trkpt>
      <trkpt lat="42.54813" lon="1.73508">
        <ele>2041.449</ele>
        <time>2016-05-07T07:41:42Z</time>
      </trkpt>
      <trkpt lat="42.54829" lon="1.73494">
        <ele>2042.277</ele>
        <time>2016-05-07T07:42:02Z</time>
      </trkpt>
      <trkpt lat="42.54847" lon="1.73484">
        <ele>2042.435</ele>
        <time>2016-05-07T07:42:22Z</time>
      </trkpt>
      <trkpt lat="42.54857" lon="1.73477">
        <ele>2043.588</ele>
        <time>2016-05-07T07:42:42Z</time>
      </trkpt>
      <trkpt lat="42.54874" lon="1.73466">
        <ele>2042.724</ele>
        <time>2016-05-07T07:43:02Z</time>
      </trkpt>
      <trkpt lat="42.54887" lon="1.73457">
        <ele>2041.326</ele>
        <time>2016-05-07T07:43:22Z</time>
      </trkpt>
      <trkpt lat="42.54898" lon="1.73449">
        <ele>2040.708</ele>
        <time>2016-05-07T07:43:42Z</time>
      </trkpt>
      <trkpt lat="42.54909" lon="1.73439">
        <ele>2041.569</ele>
        <time>2016-05-07T07:44:02Z</time>
      </trkpt>
      <trkpt lat="42.54922" lon="1.73446">
        <ele>2037.431</ele>
        <time>2016-05-07T07:44:22Z</time>
      </trkpt>
      <trkpt lat="42.54934" lon="1.73453">
        <ele>2034.439</ele>
        <time>2016-05-07T07:44:42Z</time>
      </trkpt>
      <trkpt lat="42.5495" lon="1.73459">
        <ele>2031.157</ele>
        <time>2016-05-07T07:45:02Z</time>
      </trkpt>
      <trkpt lat="42.54959" lon="1.7346">
        <ele>2029.615</ele>
        <time>2016-05-07T07:45:22Z</time>
      </trkpt>
      <trkpt lat="42.5496" lon="1.73475">
        <ele>2025.466</ele>
        <time>2016-05-07T07:45:42Z</time>
      </trkpt>
      <trkpt lat="42.54974" lon="1.73487">
        <ele>2022.054</ele>
        <time>2016-05-07T07:46:02Z</time>
      </trkpt>
      <trkpt lat="42.54984" lon="1.73494">
        <ele>2021.042</ele>
        <time>2016-05-07T07:46:22Z</time>
      </trkpt>
      <trkpt lat="42.55" lon="1.73505">
        <ele>2020.398</ele>
        <time>2016-05-07T07:46:42Z</time>
      </trkpt>
      <trkpt lat="42.55018" lon="1.73511">
        <ele>2020.715</ele>
        <time>2016-05-07T07:47:02Z</time>
      </trkpt>
      <trkpt lat="42.55035" lon="1.7352">
        <ele>2020.926</ele>
        <time>2016-05-07T07:47:22Z</time>
      </trkpt>
      <trkpt lat="42.5505" lon="1.73529">
        <ele>2020.408</ele>
        <time>2016-05-07T07:47:42Z</time>
      </trkpt>
      <trkpt lat="42.55067" lon="1.7354">
        <ele>2022.15</ele>
        <time>2016-05-07T07:48:02Z</time>
      </trkpt>
      <trkpt lat="42.55082" lon="1.73559">
        <ele>2022.882</ele>
        <time>2016-05-07T07:48:22Z</time>
      </trkpt>
      <trkpt lat="42.551" lon="1.73572">
        <ele>2022.64</ele>
        <time>2016-05-07T07:48:42Z</time>
      </trkpt>
      <trkpt lat="42.55117" lon="1.73578">
        <ele>2023.778</ele>
        <time>2016-05-07T07:49:02Z</time>
      </trkpt>
      <trkpt lat="42.55134" lon="1.73585">
        <ele>2023.936</ele>
        <time>2016-05-07T07:49:22Z</time>
      </trkpt>
      <trkpt lat="42.5515" lon="1.7358">
        <ele>2026.437</ele>
        <time>2016-05-07T07:49:42Z</time>
      </trkpt>
      <trkpt lat="42.55165" lon="1.73581">
        <ele>2027.485</ele>
        <time>2016-05-07T07:50:02Z</time>
      </trkpt>
      <trkpt lat="42.5518" lon="1.73593">
        <ele>2024.053</ele>
        <time>2016-05-07T07:50:22Z</time>
      </trkpt>
      <trkpt lat="42.55198" lon="1.73593">
        <ele>2024.362</ele>
        <time>2016-05-07T07:50:42Z</time>
      </trkpt>
      <trkpt lat="42.55211" lon="1.73593">
        <ele>2023.283</ele>
        <time>2016-05-07T07:51:02Z</time>
      </trkpt>
      <trkpt lat="42.55224" lon="1.73598">
        <ele>2021.011</ele>
        <time>2016-05-07T07:51:22Z</time>
      </trkpt>
      <trkpt lat="42.55237" lon="1.73602">
        <ele>2017.308</ele>
        <time>2016-05-07T07:51:42Z</time>
      </trkpt>
      <trkpt lat="42.55251" lon="1.73615">
        <ele>2012.567</ele>
        <time>2016-05-07T07:52:02Z</time>
      </trkpt>
      <trkpt lat="42.55264" lon="1.73616">
        <ele>2011.939</ele>
        <time>2016-05-07T07:52:22Z</time>
      </trkpt>
      <trkpt lat="42.55277" lon="1.73621">
        <ele>2010.217</ele>
        <time>2016-05-07T07:52:42Z</time>
      </trkpt>
      <trkpt lat="42.55289" lon="1.73626">
        <ele>2008.375</ele>
        <time>2016-05-07T07:53:02Z</time>
      </trkpt>
      <trkpt lat="42.55302" lon="1.73629">
        <ele>2007.453</ele>
        <time>2016-05-07T07:53:22Z</time>
      </trkpt>
      <trkpt lat="42.55312" lon="1.73635">
        <ele>2004.964</ele>
        <time>2016-05-07T07:53:42Z</time>
      </trkpt>
      <trkpt lat="42.55321" lon="1.73649">
        <ele>2000.432</ele>
        <time>2016-05-07T07:54:02Z</time>
      </trkpt>
      <trkpt lat="42.55337" lon="1.73664">
        <ele>1995.23</ele>
        <time>2016-05-07T07:54:22Z</time>
      </trkpt>
      <trkpt lat="42.55349" lon="1.73682">
        <ele>1989.814</ele>
        <time>2016-05-07T07:54:42Z</time>
      </trkpt>
      <trkpt lat="42.55361" lon="1.73694">
        <ele>1986.154</ele>
        <time>2016-05-07T07:55:02Z</time>
      </trkpt>
      <trkpt lat="42.55376" lon="1.73706">
        <ele>1984.509</ele>
        <time>2016-05-07T07:55:22Z</time>
      </trkpt>
      <trkpt lat="42.55389" lon="1.73718">
        <ele>1982.108</ele>
        <time>2016-05-07T07:55:42Z</time>
      </trkpt>
      <trkpt lat="42.55401" lon="1.73726">
        <ele>1979.322</ele>
        <time>2016-05-07T07:56:02Z</time>
      </trkpt>
      <trkpt lat="42.55432" lon="1.73761">
        <ele>1963.694</ele>
        <time>2016-05-07T07:56:22Z</time>
      </trkpt>
      <trkpt lat="42.55446" lon="1.73772">
        <ele>1960.262</ele>
        <time>2016-05-07T07:56:42Z</time>
      </trkpt>
      <trkpt lat="42.55472" lon="1.7379">
        <ele>1954.73</ele>
        <time>2016-05-07T07:57:02Z</time>
      </trkpt>
      <trkpt lat="42.55493" lon="1.73803">
        <ele>1952.388</ele>
        <time>2016-05-07T07:57:22Z</time>
      </trkpt>
      <trkpt lat="42.55515" lon="1.73816">
        <ele>1950.929</ele>
        <time>2016-05-07T07:57:42Z</time>
      </trkpt>
      <trkpt lat="42.55544" lon="1.73834">
        <ele>1950.067</ele>
        <time>2016-05-07T07:58:02Z</time>
      </trkpt>
      <trkpt lat="42.55566" lon="1.73848">
        <ele>1948.535</ele>
        <time>2016-05-07T07:58:22Z</time>
      </trkpt>
      <trkpt lat="42.55581" lon="1.73863">
        <ele>1943.845</ele>
        <time>2016-05-07T07:58:42Z</time>
      </trkpt>
      <trkpt lat="42.55605" lon="1.739">
        <ele>1937.947</ele>
        <time>2016-05-07T07:59:02Z</time>
      </trkpt>
      <trkpt lat="42.55623" lon="1.73914">
        <ele>1939.811</ele>
        <time>2016-05-07T07:59:22Z</time>
      </trkpt>
      <trkpt lat="42.55641" lon="1.73931">
        <ele>1937.308</ele>
        <time>2016-05-07T07:59:42Z</time>
      </trkpt>
      <trkpt lat="42.55663" lon="1.73946">
        <ele>1933.765</ele>
        <time>2016-05-07T08:00:02Z</time>
      </trkpt>
      <trkpt lat="42.55685" lon="1.73948">
        <ele>1940.467</ele>
        <time>2016-05-07T08:00:22Z</time>
      </trkpt>
      <trkpt lat="42.55695" lon="1.73957">
        <ele>1939.015</ele>
        <time>2016-05-07T08:00:42Z</time>
      </trkpt>
      <trkpt lat="42.55716" lon="1.73982">
        <ele>1939.723</ele>
        <time>2016-05-07T08:01:02Z</time>
      </trkpt>
      <trkpt lat="42.55721" lon="1.73993">
        <ele>1938.711</ele>
        <time>2016-05-07T08:01:22Z</time>
      </trkpt>
      <trkpt lat="42.5573" lon="1.74021">
        <ele>1934.932</ele>
        <time>2016-05-07T08:01:42Z</time>
      </trkpt>
      <trkpt lat="42.55741" lon="1.74051">
        <ele>1932.74</ele>
        <time>2016-05-07T08:02:02Z</time>
      </trkpt>
      <trkpt lat="42.55761" lon="1.7407">
        <ele>1933.568</ele>
        <time>2016-05-07T08:02:22Z</time>
      </trkpt>
      <trkpt lat="42.55786" lon="1.74104">
        <ele>1930.075</ele>
        <time>2016-05-07T08:02:42Z</time>
      </trkpt>
      <trkpt lat="42.55804" lon="1.74136">
        <ele>1925.828</ele>
        <time>2016-05-07T08:03:02Z</time>
      </trkpt>
      <trkpt lat="42.55825" lon="1.74157">
        <ele>1924.02</ele>
        <time>2016-05-07T08:03:22Z</time>
      </trkpt>
      <trkpt lat="42.55846" lon="1.74161">
        <ele>1930.308</ele>
        <time>2016-05-07T08:03:42Z</time>
      </trkpt>
      <trkpt lat="42.55857" lon="1.74185">
        <ele>1927.728</ele>
        <time>2016-05-07T08:04:02Z</time>
      </trkpt>
      <trkpt lat="42.55862" lon="1.74204">
        <ele>1925.82</ele>
        <time>2016-05-07T08:04:22Z</time>
      </trkpt>
      <trkpt lat="42.55868" lon="1.74222">
        <ele>1923.318</ele>
        <time>2016-05-07T08:04:42Z</time>
      </trkpt>
      <trkpt lat="42.55879" lon="1.74238">
        <ele>1919.916</ele>
        <time>2016-05-07T08:05:02Z</time>
      </trkpt>
      <trkpt lat="42.55894" lon="1.74242">
        <ele>1921.074</ele>
        <time>2016-05-07T08:05:22Z</time>
      </trkpt>
      <trkpt lat="42.55914" lon="1.74245">
        <ele>1919.525</ele>
        <time>2016-05-07T08:05:42Z</time>
      </trkpt>
      <trkpt lat="42.55934" lon="1.74248">
        <ele>1921.073</ele>
        <time>2016-05-07T08:06:02Z</time>
      </trkpt>
      <trkpt lat="42.55948" lon="1.74265">
        <ele>1915.511</ele>
        <time>2016-05-07T08:06:22Z</time>
      </trkpt>
      <trkpt lat="42.55977" lon="1.74298">
        <ele>1917.521</ele>
        <time>2016-05-07T08:06:42Z</time>
      </trkpt>
      <trkpt lat="42.56" lon="1.74326">
        <ele>1917.041</ele>
        <time>2016-05-07T08:07:02Z</time>
      </trkpt>
      <trkpt lat="42.56007" lon="1.74342">
        <ele>1913.405</ele>
        <time>2016-05-07T08:07:22Z</time>
      </trkpt>
      <trkpt lat="42.56024" lon="1.74367">
        <ele>1910.908</ele>
        <time>2016-05-07T08:07:42Z</time>
      </trkpt>
      <trkpt lat="42.56043" lon="1.74395">
        <ele>1904.253</ele>
        <time>2016-05-07T08:08:02Z</time>
      </trkpt>
      <trkpt lat="42.56066" lon="1.74406">
        <ele>1903.485</ele>
        <time>2016-05-07T08:08:22Z</time>
      </trkpt>
      <trkpt lat="42.56087" lon="1.74406">
        <ele>1906.063</ele>
        <time>2016-05-07T08:08:42Z</time>
      </trkpt>
      <trkpt lat="42.56106" lon="1.74424">
        <ele>1902.151</ele>
        <time>2016-05-07T08:09:02Z</time>
      </trkpt>
      <trkpt lat="42.5612" lon="1.74436">
        <ele>1899.449</ele>
        <time>2016-05-07T08:09:22Z</time>
      </trkpt>
      <trkpt lat="42.56132" lon="1.74445">
        <ele>1898.39</ele>
        <time>2016-05-07T08:09:42Z</time>
      </trkpt>
      <trkpt lat="42.56145" lon="1.74457">
        <ele>1896.588</ele>
        <time>2016-05-07T08:10:02Z</time>
      </trkpt>
      <trkpt lat="42.56154" lon="1.74472">
        <ele>1893.396</ele>
        <time>2016-05-07T08:10:22Z</time>
      </trkpt>
      <trkpt lat="42.56168" lon="1.74488">
        <ele>1892.613</ele>
        <time>2016-05-07T08:10:42Z</time>
      </trkpt>
      <trkpt lat="42.56181" lon="1.74507">
        <ele>1887.843</ele>
        <time>2016-05-07T08:11:02Z</time>
      </trkpt>
      <trkpt lat="42.56203" lon="1.74514">
        <ele>1887.807</ele>
        <time>2016-05-07T08:11:22Z</time>
      </trkpt>
      <trkpt lat="42.56227" lon="1.74532">
        <ele>1882.808</ele>
        <time>2016-05-07T08:11:42Z</time>
      </trkpt>
      <trkpt lat="42.56242" lon="1.74553">
        <ele>1876.812</ele>
        <time>2016-05-07T08:12:02Z</time>
      </trkpt>
      <trkpt lat="42.56256" lon="1.74571">
        <ele>1871.944</ele>
        <time>2016-05-07T08:12:22Z</time>
      </trkpt>
      <trkpt lat="42.5627" lon="1.74586">
        <ele>1867.092</ele>
        <time>2016-05-07T08:12:42Z</time>
      </trkpt>
      <trkpt lat="42.5628" lon="1.7459">
        <ele>1865.79</ele>
        <time>2016-05-07T08:13:02Z</time>
      </trkpt>
      <trkpt lat="42.56294" lon="1.74597">
        <ele>1864.298</ele>
        <time>2016-05-07T08:13:22Z</time>
      </trkpt>
      <trkpt lat="42.56304" lon="1.74602">
        <ele>1862.759</ele>
        <time>2016-05-07T08:13:42Z</time>
      </trkpt>
      <trkpt lat="42.56319" lon="1.74618">
        <ele>1859.387</ele>
        <time>2016-05-07T08:14:02Z</time>
      </trkpt>
      <trkpt lat="42.56332" lon="1.74633">
        <ele>1856.345</ele>
        <time>2016-05-07T08:14:22Z</time>
      </trkpt>
      <trkpt lat="42.56354" lon="1.74659">
        <ele>1854.082</ele>
        <time>2016-05-07T08:14:42Z</time>
      </trkpt>
      <trkpt lat="42.56368" lon="1.74672">
        <ele>1852.643</ele>
        <time>2016-05-07T08:15:02Z</time>
      </trkpt>
      <trkpt lat="42.56387" lon="1.74675">
        <ele>1854.717</ele>
        <time>2016-05-07T08:15:22Z</time>
      </trkpt>
      <trkpt lat="42.56405" lon="1.74681">
        <ele>1854.708</ele>
        <time>2016-05-07T08:15:42Z</time>
      </trkpt>
      <trkpt lat="42.56422" lon="1.74681">
        <ele>1853.819</ele>
        <time>2016-05-07T08:16:02Z</time>
      </trkpt>
      <trkpt lat="42.56432" lon="1.7467">
        <ele>1852.521</ele>
        <time>2016-05-07T08:16:22Z</time>
      </trkpt>
      <trkpt lat="42.56438" lon="1.7465">
        <ele>1854.789</ele>
        <time>2016-05-07T08:16:42Z</time>
      </trkpt>
      <trkpt lat="42.56449" lon="1.74629">
        <ele>1856.067</ele>
        <time>2016-05-07T08:17:02Z</time>
      </trkpt>
      <trkpt lat="42.56467" lon="1.74607">
        <ele>1855.635</ele>
        <time>2016-05-07T08:17:22Z</time>
      </trkpt>
      <trkpt lat="42.56483" lon="1.74595">
        <ele>1854.896</ele>
        <time>2016-05-07T08:17:42Z</time>
      </trkpt>
      <trkpt lat="42.56504" lon="1.74587">
        <ele>1852.234</ele>
        <time>2016-05-07T08:18:02Z</time>
      </trkpt>
      <trkpt lat="42.56521" lon="1.74575">
        <ele>1854.172</ele>
        <time>2016-05-07T08:18:22Z</time>
      </trkpt>
      <trkpt lat="42.5653" lon="1.74573">
        <ele>1853.589</ele>
        <time>2016-05-07T08:18:42Z</time>
      </trkpt>
      <trkpt lat="42.56545" lon="1.74559">
        <ele>1856.406</ele>
        <time>2016-05-07T08:19:02Z</time>
      </trkpt>
      <trkpt lat="42.56563" lon="1.74552">
        <ele>1856.926</ele>
        <time>2016-05-07T08:19:22Z</time>
      </trkpt>
      <trkpt lat="42.56579" lon="1.74527">
        <ele>1861.308</ele>
        <time>2016-05-07T08:19:42Z</time>
      </trkpt>
      <trkpt lat="42.56588" lon="1.74506">
        <ele>1864.719</ele>
        <time>2016-05-07T08:20:02Z</time>
      </trkpt>
      <trkpt lat="42.56598" lon="1.74498">
        <ele>1865.981</ele>
        <time>2016-05-07T08:20:22Z</time>
      </trkpt>
      <trkpt lat="42.56609" lon="1.74485">
        <ele>1866.969</ele>
        <time>2016-05-07T08:20:42Z</time>
      </trkpt>
      <trkpt lat="42.56616" lon="1.74468">
        <ele>1869.767</ele>
        <time>2016-05-07T08:21:02Z</time>
      </trkpt>
      <trkpt lat="42.56622" lon="1.74454">
        <ele>1872.655</ele>
        <time>2016-05-07T08:21:22Z</time>
      </trkpt>
      <trkpt lat="42.56625" lon="1.7444">
        <ele>1874.386</ele>
        <time>2016-05-07T08:21:42Z</time>
      </trkpt>
      <trkpt lat="42.56633" lon="1.74425">
        <ele>1875.144</ele>
        <time>2016-05-07T08:22:02Z</time>
      </trkpt>
      <trkpt lat="42.56638" lon="1.74406">
        <ele>1876.712</ele>
        <time>2016-05-07T08:22:22Z</time>
      </trkpt>
      <trkpt lat="42.56648" lon="1.74391">
        <ele>1879.773</ele>
        <time>2016-05-07T08:22:42Z</time>
      </trkpt>
      <trkpt lat="42.56654" lon="1.74379">
        <ele>1882.185</ele>
        <time>2016-05-07T08:23:02Z</time>
      </trkpt>
      <trkpt lat="42.56666" lon="1.74371">
        <ele>1881.913</ele>
        <time>2016-05-07T08:23:22Z</time>
      </trkpt>
      <trkpt lat="42.56675" lon="1.74362">
        <ele>1883.308</ele>
        <time>2016-05-07T08:23:42Z</time>
      </trkpt>
      <trkpt lat="42.56685" lon="1.74345">
        <ele>1886.138</ele>
        <time>2016-05-07T08:24:02Z</time>
      </trkpt>
      <trkpt lat="42.56694" lon="1.74328">
        <ele>1887.34</ele>
        <time>2016-05-07T08:24:22Z</time>
      </trkpt>
      <trkpt lat="42.56699" lon="1.74311">
        <ele>1890.978</ele>
        <time>2016-05-07T08:24:42Z</time>
      </trkpt>
      <trkpt lat="42.56702" lon="1.74293">
        <ele>1893.536</ele>
        <time>2016-05-07T08:25:02Z</time>
      </trkpt>
      <trkpt lat="42.56704" lon="1.7427">
        <ele>1896.774</ele>
        <time>2016-05-07T08:25:22Z</time>
      </trkpt>
      <trkpt lat="42.56706" lon="1.74255">
        <ele>1899.475</ele>
        <time>2016-05-07T08:25:42Z</time>
      </trkpt>
      <trkpt lat="42.56711" lon="1.74239">
        <ele>1900.813</ele>
        <time>2016-05-07T08:26:02Z</time>
      </trkpt>
      <trkpt lat="42.56712" lon="1.74228">
        <ele>1902.261</ele>
        <time>2016-05-07T08:26:22Z</time>
      </trkpt>
      <trkpt lat="42.56717" lon="1.74217">
        <ele>1902.798</ele>
        <time>2016-05-07T08:26:42Z</time>
      </trkpt>
      <trkpt lat="42.56723" lon="1.74207">
        <ele>1903.415</ele>
        <time>2016-05-07T08:27:02Z</time>
      </trkpt>
      <trkpt lat="42.5673" lon="1.7419">
        <ele>1907.226</ele>
        <time>2016-05-07T08:27:22Z</time>
      </trkpt>
      <trkpt lat="42.56738" lon="1.74178">
        <ele>1909.608</ele>
        <time>2016-05-07T08:27:42Z</time>
      </trkpt>
      <trkpt lat="42.56744" lon="1.74168">
        <ele>1910.56</ele>
        <time>2016-05-07T08:28:02Z</time>
      </trkpt>
      <trkpt lat="42.56753" lon="1.74165">
        <ele>1909.652</ele>
        <time>2016-05-07T08:28:22Z</time>
      </trkpt>
      <trkpt lat="42.56763" lon="1.74163">
        <ele>1909.62</ele>
        <time>2016-05-07T08:28:42Z</time>
      </trkpt>
      <trkpt lat="42.5678" lon="1.74138">
        <ele>1913.288</ele>
        <time>2016-05-07T08:29:02Z</time>
      </trkpt>
      <trkpt lat="42.56792" lon="1.74113">
        <ele>1916.856</ele>
        <time>2016-05-07T08:29:22Z</time>
      </trkpt>
      <trkpt lat="42.56804" lon="1.74097">
        <ele>1917.667</ele>
        <time>2016-05-07T08:29:42Z</time>
      </trkpt>
      <trkpt lat="42.56815" lon="1.74082">
        <ele>1919.965</ele>
        <time>2016-05-07T08:30:02Z</time>
      </trkpt>
      <trkpt lat="42.56841" lon="1.7407">
        <ele>1922.653</ele>
        <time>2016-05-07T08:30:22Z</time>
      </trkpt>
      <trkpt lat="42.56867" lon="1.74033">
        <ele>1930.712</ele>
        <time>2016-05-07T08:30:42Z</time>
      </trkpt>
      <trkpt lat="42.56887" lon="1.73939">
        <ele>1940.032</ele>
        <time>2016-05-07T08:31:02Z</time>
      </trkpt>
      <trkpt lat="42.5689" lon="1.73878">
        <ele>1945.805</ele>
        <time>2016-05-07T08:31:22Z</time>
      </trkpt>
      <trkpt lat="42.56899" lon="1.73829">
        <ele>1956.708</ele>
        <time>2016-05-07T08:31:42Z</time>
      </trkpt>
      <trkpt lat="42.56905" lon="1.73784">
        <ele>1967.542</ele>
        <time>2016-05-07T08:32:02Z</time>
      </trkpt>
      <trkpt lat="42.56905" lon="1.73765">
        <ele>1971.074</ele>
        <time>2016-05-07T08:32:22Z</time>
      </trkpt>
      <trkpt lat="42.56902" lon="1.73746">
        <ele>1972.732</ele>
        <time>2016-05-07T08:32:42Z</time>
      </trkpt>
      <trkpt lat="42.56899" lon="1.73732">
        <ele>1973.02</ele>
        <time>2016-05-07T08:33:02Z</time>
      </trkpt>
      <trkpt lat="42.56898" lon="1.73714">
        <ele>1975.078</ele>
        <time>2016-05-07T08:33:22Z</time>
      </trkpt>
      <trkpt lat="42.56898" lon="1.73694">
        <ele>1977.549</ele>
        <time>2016-05-07T08:33:42Z</time>
      </trkpt>
      <trkpt lat="42.56898" lon="1.73673">
        <ele>1979.947</ele>
        <time>2016-05-07T08:34:02Z</time>
      </trkpt>
      <trkpt lat="42.56908" lon="1.73639">
        <ele>1986.875</ele>
        <time>2016-05-07T08:34:22Z</time>
      </trkpt>
      <trkpt lat="42.56911" lon="1.73607">
        <ele>1990.717</ele>
        <time>2016-05-07T08:34:42Z</time>
      </trkpt>
      <trkpt lat="42.56916" lon="1.73584">
        <ele>1992.987</ele>
        <time>2016-05-07T08:35:02Z</time>
      </trkpt>
      <trkpt lat="42.56919" lon="1.73568">
        <ele>1995.815</ele>
        <time>2016-05-07T08:35:22Z</time>
      </trkpt>
      <trkpt lat="42.56923" lon="1.7355">
        <ele>1999.808</ele>
        <time>2016-05-07T08:35:42Z</time>
      </trkpt>
      <trkpt lat="42.56918" lon="1.73522">
        <ele>2002.732</ele>
        <time>2016-05-07T08:36:02Z</time>
      </trkpt>
      <trkpt lat="42.56919" lon="1.73503">
        <ele>2006.934</ele>
        <time>2016-05-07T08:36:22Z</time>
      </trkpt>
      <trkpt lat="42.56914" lon="1.73469">
        <ele>2011.372</ele>
        <time>2016-05-07T08:36:42Z</time>
      </trkpt>
      <trkpt lat="42.5692" lon="1.73435">
        <ele>2017.45</ele>
        <time>2016-05-07T08:37:02Z</time>
      </trkpt>
      <trkpt lat="42.56917" lon="1.7341">
        <ele>2019.988</ele>
        <time>2016-05-07T08:37:22Z</time>
      </trkpt>
      <trkpt lat="42.5692" lon="1.73382">
        <ele>2025.129</ele>
        <time>2016-05-07T08:37:42Z</time>
      </trkpt>
      <trkpt lat="42.56916" lon="1.73364">
        <ele>2027.467</ele>
        <time>2016-05-07T08:38:02Z</time>
      </trkpt>
      <trkpt lat="42.56913" lon="1.73343">
        <ele>2030.975</ele>
        <time>2016-05-07T08:38:22Z</time>
      </trkpt>
      <trkpt lat="42.56915" lon="1.73331">
        <ele>2033.029</ele>
        <time>2016-05-07T08:38:42Z</time>
      </trkpt>
      <trkpt lat="42.56918" lon="1.73317">
        <ele>2036</ele>
        <time>2016-05-07T08:39:02Z</time>
      </trkpt>
      <trkpt lat="42.56924" lon="1.73302">
        <ele>2040.52</ele>
        <time>2016-05-07T08:39:22Z</time>
      </trkpt>
      <trkpt lat="42.5692" lon="1.73284">
        <ele>2041.608</ele>
        <time>2016-05-07T08:39:42Z</time>
      </trkpt>
      <trkpt lat="42.56922" lon="1.73267">
        <ele>2045.293</ele>
        <time>2016-05-07T08:40:02Z</time>
      </trkpt>
      <trkpt lat="42.56925" lon="1.73249">
        <ele>2049.525</ele>
        <time>2016-05-07T08:40:22Z</time>
      </trkpt>
      <trkpt lat="42.56924" lon="1.7323">
        <ele>2053.623</ele>
        <time>2016-05-07T08:40:42Z</time>
      </trkpt>
      <trkpt lat="42.56924" lon="1.73212">
        <ele>2057.891</ele>
        <time>2016-05-07T08:41:02Z</time>
      </trkpt>
      <trkpt lat="42.56928" lon="1.73195">
        <ele>2062.659</ele>
        <time>2016-05-07T08:41:22Z</time>
      </trkpt>
      <trkpt lat="42.56934" lon="1.73176">
        <ele>2068.07</ele>
        <time>2016-05-07T08:41:42Z</time>
      </trkpt>
      <trkpt lat="42.56944" lon="1.73161">
        <ele>2073.968</ele>
        <time>2016-05-07T08:42:02Z</time>
      </trkpt>
      <trkpt lat="42.56947" lon="1.73147">
        <ele>2078.186</ele>
        <time>2016-05-07T08:42:22Z</time>
      </trkpt>
      <trkpt lat="42.56947" lon="1.73121">
        <ele>2083.345</ele>
        <time>2016-05-07T08:42:42Z</time>
      </trkpt>
      <trkpt lat="42.56947" lon="1.7311">
        <ele>2085.847</ele>
        <time>2016-05-07T08:43:02Z</time>
      </trkpt>
      <trkpt lat="42.5695" lon="1.73094">
        <ele>2091.011</ele>
        <time>2016-05-07T08:43:22Z</time>
      </trkpt>
      <trkpt lat="42.56944" lon="1.7307">
        <ele>2093.908</ele>
        <time>2016-05-07T08:43:42Z</time>
      </trkpt>
      <trkpt lat="42.56934" lon="1.73057">
        <ele>2094.415</ele>
        <time>2016-05-07T08:44:02Z</time>
      </trkpt>
      <trkpt lat="42.56937" lon="1.7303">
        <ele>2099.477</ele>
        <time>2016-05-07T08:44:22Z</time>
      </trkpt>
      <trkpt lat="42.56934" lon="1.73008">
        <ele>2102.255</ele>
        <time>2016-05-07T08:44:42Z</time>
      </trkpt>
      <trkpt lat="42.56929" lon="1.72984">
        <ele>2104.253</ele>
        <time>2016-05-07T08:45:02Z</time>
      </trkpt>
      <trkpt lat="42.56927" lon="1.72958">
        <ele>2106.091</ele>
        <time>2016-05-07T08:45:22Z</time>
      </trkpt>
      <trkpt lat="42.56935" lon="1.72941">
        <ele>2110.022</ele>
        <time>2016-05-07T08:45:42Z</time>
      </trkpt>
      <trkpt lat="42.5694" lon="1.7293">
        <ele>2112.47</ele>
        <time>2016-05-07T08:46:02Z</time>
      </trkpt>
      <trkpt lat="42.56943" lon="1.72917">
        <ele>2114.648</ele>
        <time>2016-05-07T08:46:22Z</time>
      </trkpt>
      <trkpt lat="42.56956" lon="1.72896">
        <ele>2123.366</ele>
        <time>2016-05-07T08:46:42Z</time>
      </trkpt>
      <trkpt lat="42.56965" lon="1.72875">
        <ele>2131.129</ele>
        <time>2016-05-07T08:47:02Z</time>
      </trkpt>
      <trkpt lat="42.56971" lon="1.72845">
        <ele>2138.721</ele>
        <time>2016-05-07T08:47:22Z</time>
      </trkpt>
      <trkpt lat="42.56973" lon="1.7283">
        <ele>2141.708</ele>
        <time>2016-05-07T08:47:42Z</time>
      </trkpt>
      <trkpt lat="42.56974" lon="1.72817">
        <ele>2144.517</ele>
        <time>2016-05-07T08:48:02Z</time>
      </trkpt>
      <trkpt lat="42.56977" lon="1.72801">
        <ele>2148.439</ele>
        <time>2016-05-07T08:48:22Z</time>
      </trkpt>
      <trkpt lat="42.56977" lon="1.72788">
        <ele>2150.597</ele>
        <time>2016-05-07T08:48:42Z</time>
      </trkpt>
      <trkpt lat="42.56973" lon="1.72772">
        <ele>2151.245</ele>
        <time>2016-05-07T08:49:02Z</time>
      </trkpt>
      <trkpt lat="42.56973" lon="1.7276">
        <ele>2152.953</ele>
        <time>2016-05-07T08:49:22Z</time>
      </trkpt>
      <trkpt lat="42.56976" lon="1.72752">
        <ele>2155.264</ele>
        <time>2016-05-07T08:49:42Z</time>
      </trkpt>
      <trkpt lat="42.56981" lon="1.72746">
        <ele>2158.072</ele>
        <time>2016-05-07T08:50:02Z</time>
      </trkpt>
      <trkpt lat="42.56988" lon="1.7274">
        <ele>2161.09</ele>
        <time>2016-05-07T08:50:22Z</time>
      </trkpt>
      <trkpt lat="42.56991" lon="1.72731">
        <ele>2163.142</ele>
        <time>2016-05-07T08:50:42Z</time>
      </trkpt>
      <trkpt lat="42.56999" lon="1.72718">
        <ele>2167.122</ele>
        <time>2016-05-07T08:51:02Z</time>
      </trkpt>
      <trkpt lat="42.56992" lon="1.72651">
        <ele>2170.614</ele>
        <time>2016-05-07T08:51:22Z</time>
      </trkpt>
      <trkpt lat="42.56984" lon="1.72596">
        <ele>2169.308</ele>
        <time>2016-05-07T08:51:42Z</time>
      </trkpt>
      <trkpt lat="42.56986" lon="1.72567">
        <ele>2171.595</ele>
        <time>2016-05-07T08:52:02Z</time>
      </trkpt>
      <trkpt lat="42.57003" lon="1.72504">
        <ele>2182.997</ele>
        <time>2016-05-07T08:52:22Z</time>
      </trkpt>
      <trkpt lat="42.57013" lon="1.7248">
        <ele>2189.975</ele>
        <time>2016-05-07T08:52:42Z</time>
      </trkpt>
      <trkpt lat="42.57023" lon="1.72458">
        <ele>2197.683</ele>
        <time>2016-05-07T08:53:02Z</time>
      </trkpt>
      <trkpt lat="42.57025" lon="1.72445">
        <ele>2199.571</ele>
        <time>2016-05-07T08:53:22Z</time>
      </trkpt>
      <trkpt lat="42.57032" lon="1.72417">
        <ele>2204.842</ele>
        <time>2016-05-07T08:53:42Z</time>
      </trkpt>
      <trkpt lat="42.57036" lon="1.72398">
        <ele>2207.73</ele>
        <time>2016-05-07T08:54:02Z</time>
      </trkpt>
      <trkpt lat="42.57041" lon="1.72367">
        <ele>2209.268</ele>
        <time>2016-05-07T08:54:22Z</time>
      </trkpt>
      <trkpt lat="42.57044" lon="1.72329">
        <ele>2208.137</ele>
        <time>2016-05-07T08:54:42Z</time>
      </trkpt>
      <trkpt lat="42.57053" lon="1.72298">
        <ele>2211.949</ele>
        <time>2016-05-07T08:55:02Z</time>
      </trkpt>
      <trkpt lat="42.5706" lon="1.72217">
        <ele>2215.013</ele>
        <time>2016-05-07T08:55:22Z</time>
      </trkpt>
      <trkpt lat="42.57064" lon="1.72178">
        <ele>2218.408</ele>
        <time>2016-05-07T08:55:42Z</time>
      </trkpt>
      <trkpt lat="42.57066" lon="1.72152">
        <ele>2218.584</ele>
        <time>2016-05-07T08:56:02Z</time>
      </trkpt>
      <trkpt lat="42.57069" lon="1.72115">
        <ele>2218.726</ele>
        <time>2016-05-07T08:56:22Z</time>
      </trkpt>
      <trkpt lat="42.57071" lon="1.72095">
        <ele>2218.914</ele>
        <time>2016-05-07T08:56:42Z</time>
      </trkpt>
      <trkpt lat="42.57077" lon="1.72067">
        <ele>2219.812</ele>
        <time>2016-05-07T08:57:02Z</time>
      </trkpt>
      <trkpt lat="42.57078" lon="1.72051">
        <ele>2218.82</ele>
        <time>2016-05-07T08:57:22Z</time>
      </trkpt>
      <trkpt lat="42.57081" lon="1.72032">
        <ele>2219.281</ele>
        <time>2016-05-07T08:57:42Z</time>
      </trkpt>
      <trkpt lat="42.57088" lon="1.72015">
        <ele>2220.249</ele>
        <time>2016-05-07T08:58:02Z</time>
      </trkpt>
      <trkpt lat="42.57092" lon="1.72003">
        <ele>2220.587</ele>
        <time>2016-05-07T08:58:22Z</time>
      </trkpt>
      <trkpt lat="42.57097" lon="1.71982">
        <ele>2221.771</ele>
        <time>2016-05-07T08:58:42Z</time>
      </trkpt>
      <trkpt lat="42.57103" lon="1.71963">
        <ele>2223.441</ele>
        <time>2016-05-07T08:59:02Z</time>
      </trkpt>
      <trkpt lat="42.57116" lon="1.71948">
        <ele>2226.815</ele>
        <time>2016-05-07T08:59:22Z</time>
      </trkpt>
      <trkpt lat="42.57124" lon="1.71931">
        <ele>2229.008</ele>
        <time>2016-05-07T08:59:42Z</time>
      </trkpt>
      <trkpt lat="42.57134" lon="1.71909">
        <ele>2231.958</ele>
        <time>2016-05-07T09:00:02Z</time>
      </trkpt>
      <trkpt lat="42.5714" lon="1.71895">
        <ele>2233.73</ele>
        <time>2016-05-07T09:00:22Z</time>
      </trkpt>
      <trkpt lat="42.57148" lon="1.71883">
        <ele>2237.338</ele>
        <time>2016-05-07T09:00:42Z</time>
      </trkpt>
      <trkpt lat="42.57154" lon="1.7188">
        <ele>2240.626</ele>
        <time>2016-05-07T09:01:02Z</time>
      </trkpt>
      <trkpt lat="42.57165" lon="1.71873">
        <ele>2245.684</ele>
        <time>2016-05-07T09:01:22Z</time>
      </trkpt>
      <trkpt lat="42.57172" lon="1.71869">
        <ele>2249.585</ele>
        <time>2016-05-07T09:01:42Z</time>
      </trkpt>
      <trkpt lat="42.57181" lon="1.7186">
        <ele>2254.883</ele>
        <time>2016-05-07T09:02:02Z</time>
      </trkpt>
      <trkpt lat="42.5719" lon="1.71864">
        <ele>2259.211</ele>
        <time>2016-05-07T09:02:22Z</time>
      </trkpt>
      <trkpt lat="42.57193" lon="1.71855">
        <ele>2261.645</ele>
        <time>2016-05-07T09:02:42Z</time>
      </trkpt>
      <trkpt lat="42.57194" lon="1.71842">
        <ele>2263.947</ele>
        <time>2016-05-07T09:03:02Z</time>
      </trkpt>
      <trkpt lat="42.57194" lon="1.71838">
        <ele>2264.511</ele>
        <time>2016-05-07T09:03:22Z</time>
      </trkpt>
      <trkpt lat="42.57193" lon="1.71823">
        <ele>2265.208</ele>
        <time>2016-05-07T09:03:42Z</time>
      </trkpt>
      <trkpt lat="42.57189" lon="1.71806">
        <ele>2265.245</ele>
        <time>2016-05-07T09:04:02Z</time>
      </trkpt>
      <trkpt lat="42.57185" lon="1.7178">
        <ele>2266.157</ele>
        <time>2016-05-07T09:04:22Z</time>
      </trkpt>
      <trkpt lat="42.57183" lon="1.71759">
        <ele>2267.545</ele>
        <time>2016-05-07T09:04:42Z</time>
      </trkpt>
      <trkpt lat="42.57178" lon="1.71748">
        <ele>2266.163</ele>
        <time>2016-05-07T09:05:02Z</time>
      </trkpt>
      <trkpt lat="42.57172" lon="1.71729">
        <ele>2265.781</ele>
        <time>2016-05-07T09:05:22Z</time>
      </trkpt>
      <trkpt lat="42.57169" lon="1.71718">
        <ele>2266.032</ele>
        <time>2016-05-07T09:05:42Z</time>
      </trkpt>
      <trkpt lat="42.57164" lon="1.71707">
        <ele>2267.05</ele>
        <time>2016-05-07T09:06:02Z</time>
      </trkpt>
      <trkpt lat="42.57159" lon="1.71699">
        <ele>2268.588</ele>
        <time>2016-05-07T09:06:22Z</time>
      </trkpt>
      <trkpt lat="42.57155" lon="1.71694">
        <ele>2269.282</ele>
        <time>2016-05-07T09:06:42Z</time>
      </trkpt>
      <trkpt lat="42.5715" lon="1.71691">
        <ele>2269.743</ele>
        <time>2016-05-07T09:07:02Z</time>
      </trkpt>
      <trkpt lat="42.57145" lon="1.71688">
        <ele>2270.117</ele>
        <time>2016-05-07T09:07:22Z</time>
      </trkpt>
      <trkpt lat="42.5714" lon="1.71684">
        <ele>2270.808</ele>
        <time>2016-05-07T09:07:42Z</time>
      </trkpt>
      <trkpt lat="42.57135" lon="1.7168">
        <ele>2271.359</ele>
        <time>2016-05-07T09:08:02Z</time>
      </trkpt>
      <trkpt lat="42.57127" lon="1.71676">
        <ele>2271.431</ele>
        <time>2016-05-07T09:08:22Z</time>
      </trkpt>
      <trkpt lat="42.57123" lon="1.71668">
        <ele>2272.469</ele>
        <time>2016-05-07T09:08:42Z</time>
      </trkpt>
      <trkpt lat="42.57117" lon="1.71647">
        <ele>2274.347</ele>
        <time>2016-05-07T09:09:02Z</time>
      </trkpt>
      <trkpt lat="42.57115" lon="1.71631">
        <ele>2275.295</ele>
        <time>2016-05-07T09:09:22Z</time>
      </trkpt>
      <trkpt lat="42.57116" lon="1.71608">
        <ele>2277.916</ele>
        <time>2016-05-07T09:09:42Z</time>
      </trkpt>
      <trkpt lat="42.57119" lon="1.71585">
        <ele>2280.654</ele>
        <time>2016-05-07T09:10:02Z</time>
      </trkpt>
      <trkpt lat="42.57118" lon="1.71562">
        <ele>2280.682</ele>
        <time>2016-05-07T09:10:22Z</time>
      </trkpt>
      <trkpt lat="42.57122" lon="1.71538">
        <ele>2282.735</ele>
        <time>2016-05-07T09:10:42Z</time>
      </trkpt>
      <trkpt lat="42.57124" lon="1.71511">
        <ele>2284.586</ele>
        <time>2016-05-07T09:11:02Z</time>
      </trkpt>
      <trkpt lat="42.57124" lon="1.71494">
        <ele>2284.814</ele>
        <time>2016-05-07T09:11:22Z</time>
      </trkpt>
      <trkpt lat="42.57131" lon="1.71456">
        <ele>2289.808</ele>
        <time>2016-05-07T09:11:42Z</time>
      </trkpt>
      <trkpt lat="42.57131" lon="1.71444">
        <ele>2290.524</ele>
        <time>2016-05-07T09:12:02Z</time>
      </trkpt>
      <trkpt lat="42.57139" lon="1.71407">
        <ele>2294.426</ele>
        <time>2016-05-07T09:12:22Z</time>
      </trkpt>
      <trkpt lat="42.57143" lon="1.71379">
        <ele>2300.234</ele>
        <time>2016-05-07T09:12:42Z</time>
      </trkpt>
      <trkpt lat="42.57141" lon="1.71372">
        <ele>2300.562</ele>
        <time>2016-05-07T09:13:02Z</time>
      </trkpt>
      <trkpt lat="42.57139" lon="1.71361">
        <ele>2301.21</ele>
        <time>2016-05-07T09:13:22Z</time>
      </trkpt>
      <trkpt lat="42.57139" lon="1.71351">
        <ele>2302.121</ele>
        <time>2016-05-07T09:13:42Z</time>
      </trkpt>
      <trkpt lat="42.5714" lon="1.71338">
        <ele>2303.789</ele>
        <time>2016-05-07T09:14:02Z</time>
      </trkpt>
      <trkpt lat="42.57139" lon="1.71328">
        <ele>2304.617</ele>
        <time>2016-05-07T09:14:22Z</time>
      </trkpt>
      <trkpt lat="42.57139" lon="1.71319">
        <ele>2305.222</ele>
        <time>2016-05-07T09:14:42Z</time>
      </trkpt>
      <trkpt lat="42.57141" lon="1.71306">
        <ele>2306.962</ele>
        <time>2016-05-07T09:15:02Z</time>
      </trkpt>
      <trkpt lat="42.57141" lon="1.71294">
        <ele>2308.208</ele>
        <time>2016-05-07T09:15:22Z</time>
      </trkpt>
      <trkpt lat="42.57141" lon="1.71282">
        <ele>2310.008</ele>
        <time>2016-05-07T09:15:42Z</time>
      </trkpt>
      <trkpt lat="42.57142" lon="1.71274">
        <ele>2311.063</ele>
        <time>2016-05-07T09:16:02Z</time>
      </trkpt>
      <trkpt lat="42.57141" lon="1.71264">
        <ele>2312.415</ele>
        <time>2016-05-07T09:16:22Z</time>
      </trkpt>
      <trkpt lat="42.57138" lon="1.71251">
        <ele>2314.053</ele>
        <time>2016-05-07T09:16:42Z</time>
      </trkpt>
      <trkpt lat="42.57141" lon="1.7124">
        <ele>2317.951</ele>
        <time>2016-05-07T09:17:02Z</time>
      </trkpt>
      <trkpt lat="42.57145" lon="1.71223">
        <ele>2324.079</ele>
        <time>2016-05-07T09:17:22Z</time>
      </trkpt>
      <trkpt lat="42.57151" lon="1.71214">
        <ele>2326.93</ele>
        <time>2016-05-07T09:17:42Z</time>
      </trkpt>
      <trkpt lat="42.57162" lon="1.71196">
        <ele>2330.018</ele>
        <time>2016-05-07T09:18:02Z</time>
      </trkpt>
      <trkpt lat="42.57169" lon="1.71176">
        <ele>2334.956</ele>
        <time>2016-05-07T09:18:22Z</time>
      </trkpt>
      <trkpt lat="42.57175" lon="1.71157">
        <ele>2340.315</ele>
        <time>2016-05-07T09:18:42Z</time>
      </trkpt>
      <trkpt lat="42.5718" lon="1.71138">
        <ele>2343.865</ele>
        <time>2016-05-07T09:19:02Z</time>
      </trkpt>
      <trkpt lat="42.57183" lon="1.71119">
        <ele>2346.811</ele>
        <time>2016-05-07T09:19:22Z</time>
      </trkpt>
      <trkpt lat="42.57185" lon="1.71105">
        <ele>2349.308</ele>
        <time>2016-05-07T09:19:42Z</time>
      </trkpt>
      <trkpt lat="42.57193" lon="1.71086">
        <ele>2352.482</ele>
        <time>2016-05-07T09:20:02Z</time>
      </trkpt>
      <trkpt lat="42.57201" lon="1.71081">
        <ele>2353.654</ele>
        <time>2016-05-07T09:20:22Z</time>
      </trkpt>
      <trkpt lat="42.57211" lon="1.7108">
        <ele>2353.732</ele>
        <time>2016-05-07T09:20:42Z</time>
      </trkpt>
      <trkpt lat="42.5722" lon="1.71073">
        <ele>2355.23</ele>
        <time>2016-05-07T09:21:02Z</time>
      </trkpt>
      <trkpt lat="42.57225" lon="1.71057">
        <ele>2358.858</ele>
        <time>2016-05-07T09:21:22Z</time>
      </trkpt>
      <trkpt lat="42.5723" lon="1.71028">
        <ele>2361.439</ele>
        <time>2016-05-07T09:21:42Z</time>
      </trkpt>
      <trkpt lat="42.57236" lon="1.70999">
        <ele>2363.667</ele>
        <time>2016-05-07T09:22:02Z</time>
      </trkpt>
      <trkpt lat="42.57242" lon="1.70981">
        <ele>2364.755</ele>
        <time>2016-05-07T09:22:22Z</time>
      </trkpt>
      <trkpt lat="42.57244" lon="1.70965">
        <ele>2365.415</ele>
        <time>2016-05-07T09:22:42Z</time>
      </trkpt>
      <trkpt lat="42.57249" lon="1.70947">
        <ele>2365.265</ele>
        <time>2016-05-07T09:23:02Z</time>
      </trkpt>
      <trkpt lat="42.57256" lon="1.70935">
        <ele>2366.211</ele>
        <time>2016-05-07T09:23:22Z</time>
      </trkpt>
      <trkpt lat="42.57265" lon="1.70927">
        <ele>2366.508</ele>
        <time>2016-05-07T09:23:42Z</time>
      </trkpt>
      <trkpt lat="42.57275" lon="1.70918">
        <ele>2366.342</ele>
        <time>2016-05-07T09:24:02Z</time>
      </trkpt>
      <trkpt lat="42.57282" lon="1.70909">
        <ele>2366.764</ele>
        <time>2016-05-07T09:24:22Z</time>
      </trkpt>
      <trkpt lat="42.57283" lon="1.70888">
        <ele>2368.192</ele>
        <time>2016-05-07T09:24:42Z</time>
      </trkpt>
      <trkpt lat="42.5729" lon="1.70871">
        <ele>2369.39</ele>
        <time>2016-05-07T09:25:02Z</time>
      </trkpt>
      <trkpt lat="42.57297" lon="1.70854">
        <ele>2370.428</ele>
        <time>2016-05-07T09:25:22Z</time>
      </trkpt>
      <trkpt lat="42.57303" lon="1.70834">
        <ele>2371.289</ele>
        <time>2016-05-07T09:25:42Z</time>
      </trkpt>
      <trkpt lat="42.57303" lon="1.70821">
        <ele>2372.777</ele>
        <time>2016-05-07T09:26:02Z</time>
      </trkpt>
      <trkpt lat="42.57293" lon="1.70803">
        <ele>2377.015</ele>
        <time>2016-05-07T09:26:22Z</time>
      </trkpt>
      <trkpt lat="42.57302" lon="1.70793">
        <ele>2378.438</ele>
        <time>2016-05-07T09:26:42Z</time>
      </trkpt>
      <trkpt lat="42.57312" lon="1.70779">
        <ele>2382.17</ele>
        <time>2016-05-07T09:27:02Z</time>
      </trkpt>
      <trkpt lat="42.57321" lon="1.70761">
        <ele>2388.917</ele>
        <time>2016-05-07T09:27:22Z</time>
      </trkpt>
      <trkpt lat="42.57331" lon="1.70746">
        <ele>2393.708</ele>
        <time>2016-05-07T09:27:42Z</time>
      </trkpt>
      <trkpt lat="42.57337" lon="1.70725">
        <ele>2398.644</ele>
        <time>2016-05-07T09:28:02Z</time>
      </trkpt>
      <trkpt lat="42.57334" lon="1.707">
        <ele>2403.256</ele>
        <time>2016-05-07T09:28:22Z</time>
      </trkpt>
      <trkpt lat="42.57333" lon="1.70665">
        <ele>2411.534</ele>
        <time>2016-05-07T09:28:42Z</time>
      </trkpt>
      <trkpt lat="42.57334" lon="1.70639">
        <ele>2418.582</ele>
        <time>2016-05-07T09:29:02Z</time>
      </trkpt>
      <trkpt lat="42.57334" lon="1.70625">
        <ele>2422.24</ele>
        <time>2016-05-07T09:29:22Z</time>
      </trkpt>
      <trkpt lat="42.57344" lon="1.70606">
        <ele>2431.051</ele>
        <time>2016-05-07T09:29:42Z</time>
      </trkpt>
      <trkpt lat="42.57339" lon="1.70567">
        <ele>2436.869</ele>
        <time>2016-05-07T09:30:02Z</time>
      </trkpt>
      <trkpt lat="42.57337" lon="1.70531">
        <ele>2440.977</ele>
        <time>2016-05-07T09:30:22Z</time>
      </trkpt>
      <trkpt lat="42.57332" lon="1.70467">
        <ele>2446.219</ele>
        <time>2016-05-07T09:30:42Z</time>
      </trkpt>
      <trkpt lat="42.57334" lon="1.70439">
        <ele>2449.809</ele>
        <time>2016-05-07T09:31:02Z</time>
      </trkpt>
      <trkpt lat="42.57333" lon="1.70412">
        <ele>2453.919</ele>
        <time>2016-05-07T09:31:22Z</time>
      </trkpt>
      <trkpt lat="42.57332" lon="1.70381">
        <ele>2460.608</ele>
        <time>2016-05-07T09:31:42Z</time>
      </trkpt>
      <trkpt lat="42.57332" lon="1.70357">
        <ele>2464.912</ele>
        <time>2016-05-07T09:32:02Z</time>
      </trkpt>
      <trkpt lat="42.57336" lon="1.70332">
        <ele>2469.444</ele>
        <time>2016-05-07T09:32:22Z</time>
      </trkpt>
      <trkpt lat="42.57344" lon="1.70301">
        <ele>2473.872</ele>
        <time>2016-05-07T09:32:42Z</time>
      </trkpt>
      <trkpt lat="42.57348" lon="1.70275">
        <ele>2478.27</ele>
        <time>2016-05-07T09:33:02Z</time>
      </trkpt>
      <trkpt lat="42.57351" lon="1.70262">
        <ele>2481.428</ele>
        <time>2016-05-07T09:33:22Z</time>
      </trkpt>
      <trkpt lat="42.57361" lon="1.70221">
        <ele>2493.359</ele>
        <time>2016-05-07T09:33:42Z</time>
      </trkpt>
      <trkpt lat="42.57364" lon="1.70186">
        <ele>2504.437</ele>
        <time>2016-05-07T09:34:02Z</time>
      </trkpt>
      <trkpt lat="42.57366" lon="1.70152">
        <ele>2517.135</ele>
        <time>2016-05-07T09:34:22Z</time>
      </trkpt>
      <trkpt lat="42.57378" lon="1.70129">
        <ele>2526.625</ele>
        <time>2016-05-07T09:34:42Z</time>
      </trkpt>
      <trkpt lat="42.57386" lon="1.70094">
        <ele>2543.126</ele>
        <time>2016-05-07T09:35:02Z</time>
      </trkpt>
      <trkpt lat="42.57393" lon="1.70079">
        <ele>2549.708</ele>
        <time>2016-05-07T09:35:22Z</time>
      </trkpt>
      <trkpt lat="42.5741" lon="1.70043">
        <ele>2560.908</ele>
        <time>2016-05-07T09:35:42Z</time>
      </trkpt>
      <trkpt lat="42.57474" lon="1.69987">
        <ele>2567.213</ele>
        <time>2016-05-07T09:36:02Z</time>
      </trkpt>
      <trkpt lat="42.57489" lon="1.69978">
        <ele>2567.265</ele>
        <time>2016-05-07T09:36:22Z</time>
      </trkpt>
      <trkpt lat="42.57496" lon="1.69976">
        <ele>2567.323</ele>
        <time>2016-05-07T09:36:42Z</time>
      </trkpt>
      <trkpt lat="42.57505" lon="1.6997">
        <ele>2566.991</ele>
        <time>2016-05-07T09:37:02Z</time>
      </trkpt>
      <trkpt lat="42.57516" lon="1.69969">
        <ele>2567.019</ele>
        <time>2016-05-07T09:37:22Z</time>
      </trkpt>
      <trkpt lat="42.5754" lon="1.69968">
        <ele>2567.31</ele>
        <time>2016-05-07T09:37:42Z</time>
      </trkpt>
      <trkpt lat="42.57563" lon="1.69972">
        <ele>2567.188</ele>
        <time>2016-05-07T09:38:02Z</time>
      </trkpt>
      <trkpt lat="42.57581" lon="1.6998">
        <ele>2567.386</ele>
        <time>2016-05-07T09:38:22Z</time>
      </trkpt>
      <trkpt lat="42.57599" lon="1.69988">
        <ele>2567.011</ele>
        <time>2016-05-07T09:38:42Z</time>
      </trkpt>
      <trkpt lat="42.57617" lon="1.69994">
        <ele>2566.221</ele>
        <time>2016-05-07T09:39:02Z</time>
      </trkpt>
      <trkpt lat="42.5764" lon="1.70005">
        <ele>2565.003</ele>
        <time>2016-05-07T09:39:22Z</time>
      </trkpt>
      <trkpt lat="42.57655" lon="1.70016">
        <ele>2565.208</ele>
        <time>2016-05-07T09:39:42Z</time>
      </trkpt>
      <trkpt lat="42.57672" lon="1.70015">
        <ele>2561.652</ele>
        <time>2016-05-07T09:40:02Z</time>
      </trkpt>
      <trkpt lat="42.57686" lon="1.70016">
        <ele>2559.334</ele>
        <time>2016-05-07T09:40:22Z</time>
      </trkpt>
      <trkpt lat="42.57703" lon="1.70032">
        <ele>2560.922</ele>
        <time>2016-05-07T09:40:42Z</time>
      </trkpt>
      <trkpt lat="42.57722" lon="1.7004">
        <ele>2558.87</ele>
        <time>2016-05-07T09:41:02Z</time>
      </trkpt>
      <trkpt lat="42.57739" lon="1.70049">
        <ele>2557.318</ele>
        <time>2016-05-07T09:41:22Z</time>
      </trkpt>
      <trkpt lat="42.57749" lon="1.70064">
        <ele>2561.169</ele>
        <time>2016-05-07T09:41:42Z</time>
      </trkpt>
      <trkpt lat="42.57768" lon="1.70071">
        <ele>2557.677</ele>
        <time>2016-05-07T09:42:02Z</time>
      </trkpt>
      <trkpt lat="42.57777" lon="1.70072">
        <ele>2555.055</ele>
        <time>2016-05-07T09:42:22Z</time>
      </trkpt>
      <trkpt lat="42.57802" lon="1.70088">
        <ele>2555.832</ele>
        <time>2016-05-07T09:42:42Z</time>
      </trkpt>
      <trkpt lat="42.57843" lon="1.70103">
        <ele>2556.492</ele>
        <time>2016-05-07T09:43:02Z</time>
      </trkpt>
      <trkpt lat="42.57866" lon="1.70105">
        <ele>2555.111</ele>
        <time>2016-05-07T09:43:22Z</time>
      </trkpt>
      <trkpt lat="42.57884" lon="1.70109">
        <ele>2555.408</ele>
        <time>2016-05-07T09:43:42Z</time>
      </trkpt>
      <trkpt lat="42.57888" lon="1.70114">
        <ele>2557.394</ele>
        <time>2016-05-07T09:44:02Z</time>
      </trkpt>
      <trkpt lat="42.57902" lon="1.70107">
        <ele>2554.666</ele>
        <time>2016-05-07T09:44:22Z</time>
      </trkpt>
      <trkpt lat="42.57919" lon="1.70113">
        <ele>2556.444</ele>
        <time>2016-05-07T09:44:42Z</time>
      </trkpt>
      <trkpt lat="42.57942" lon="1.7011">
        <ele>2554.952</ele>
        <time>2016-05-07T09:45:02Z</time>
      </trkpt>
      <trkpt lat="42.57956" lon="1.70113">
        <ele>2557.02</ele>
        <time>2016-05-07T09:45:22Z</time>
      </trkpt>
      <trkpt lat="42.57985" lon="1.70104">
        <ele>2559.471</ele>
        <time>2016-05-07T09:45:42Z</time>
      </trkpt>
      <trkpt lat="42.58011" lon="1.70114">
        <ele>2565.099</ele>
        <time>2016-05-07T09:46:02Z</time>
      </trkpt>
      <trkpt lat="42.58026" lon="1.70124">
        <ele>2568.267</ele>
        <time>2016-05-07T09:46:22Z</time>
      </trkpt>
      <trkpt lat="42.58036" lon="1.70145">
        <ele>2567.751</ele>
        <time>2016-05-07T09:46:42Z</time>
      </trkpt>
      <trkpt lat="42.58052" lon="1.7016">
        <ele>2561.301</ele>
        <time>2016-05-07T09:47:02Z</time>
      </trkpt>
      <trkpt lat="42.58062" lon="1.70163">
        <ele>2556.411</ele>
        <time>2016-05-07T09:47:22Z</time>
      </trkpt>
      <trkpt lat="42.58074" lon="1.70158">
        <ele>2550.108</ele>
        <time>2016-05-07T09:47:42Z</time>
      </trkpt>
      <trkpt lat="42.58085" lon="1.70168">
        <ele>2543.096</ele>
        <time>2016-05-07T09:48:02Z</time>
      </trkpt>
      <trkpt lat="42.5809" lon="1.70182">
        <ele>2538.638</ele>
        <time>2016-05-07T09:48:22Z</time>
      </trkpt>
      <trkpt lat="42.58095" lon="1.70195">
        <ele>2535.346</ele>
        <time>2016-05-07T09:48:42Z</time>
      </trkpt>
      <trkpt lat="42.58112" lon="1.70189">
        <ele>2526.884</ele>
        <time>2016-05-07T09:49:02Z</time>
      </trkpt>
      <trkpt lat="42.58116" lon="1.70183">
        <ele>2524.782</ele>
        <time>2016-05-07T09:49:22Z</time>
      </trkpt>
      <trkpt lat="42.58122" lon="1.70186">
        <ele>2521.563</ele>
        <time>2016-05-07T09:49:42Z</time>
      </trkpt>
      <trkpt lat="42.58127" lon="1.70183">
        <ele>2519.411</ele>
        <time>2016-05-07T09:50:02Z</time>
      </trkpt>
      <trkpt lat="42.58128" lon="1.70185">
        <ele>2518.519</ele>
        <time>2016-05-07T09:50:22Z</time>
      </trkpt>
      <trkpt lat="42.58133" lon="1.7018">
        <ele>2516.376</ele>
        <time>2016-05-07T09:50:42Z</time>
      </trkpt>
      <trkpt lat="42.58138" lon="1.70179">
        <ele>2514.09</ele>
        <time>2016-05-07T09:51:02Z</time>
      </trkpt>
      <trkpt lat="42.5814" lon="1.70179">
        <ele>2513.119</ele>
        <time>2016-05-07T09:51:22Z</time>
      </trkpt>
      <trkpt lat="42.5814" lon="1.70184">
        <ele>2512.608</ele>
        <time>2016-05-07T09:51:42Z</time>
      </trkpt>
      <trkpt lat="42.58145" lon="1.70183">
        <ele>2509.978</ele>
        <time>2016-05-07T09:52:02Z</time>
      </trkpt>
      <trkpt lat="42.58148" lon="1.70182">
        <ele>2508.62</ele>
        <time>2016-05-07T09:52:22Z</time>
      </trkpt>
      <trkpt lat="42.58153" lon="1.70188">
        <ele>2505.678</ele>
        <time>2016-05-07T09:52:42Z</time>
      </trkpt>
      <trkpt lat="42.58165" lon="1.70192">
        <ele>2499.616</ele>
        <time>2016-05-07T09:53:02Z</time>
      </trkpt>
      <trkpt lat="42.58171" lon="1.70198">
        <ele>2496.914</ele>
        <time>2016-05-07T09:53:22Z</time>
      </trkpt>
      <trkpt lat="42.58173" lon="1.70205">
        <ele>2496.045</ele>
        <time>2016-05-07T09:53:42Z</time>
      </trkpt>
      <trkpt lat="42.5819" lon="1.70197">
        <ele>2487.033</ele>
        <time>2016-05-07T09:54:02Z</time>
      </trkpt>
      <trkpt lat="42.58198" lon="1.70201">
        <ele>2483.141</ele>
        <time>2016-05-07T09:54:22Z</time>
      </trkpt>
      <trkpt lat="42.58202" lon="1.70201">
        <ele>2480.328</ele>
        <time>2016-05-07T09:54:42Z</time>
      </trkpt>
      <trkpt lat="42.58211" lon="1.70207">
        <ele>2475.589</ele>
        <time>2016-05-07T09:55:02Z</time>
      </trkpt>
      <trkpt lat="42.5822" lon="1.70208">
        <ele>2470.917</ele>
        <time>2016-05-07T09:55:22Z</time>
      </trkpt>
      <trkpt lat="42.58223" lon="1.70217">
        <ele>2469.208</ele>
        <time>2016-05-07T09:55:42Z</time>
      </trkpt>
      <trkpt lat="42.58229" lon="1.70229">
        <ele>2465.423</ele>
        <time>2016-05-07T09:56:02Z</time>
      </trkpt>
      <trkpt lat="42.58229" lon="1.70234">
        <ele>2464.665</ele>
        <time>2016-05-07T09:56:22Z</time>
      </trkpt>
      <trkpt lat="42.58236" lon="1.70233">
        <ele>2461.273</ele>
        <time>2016-05-07T09:56:42Z</time>
      </trkpt>
      <trkpt lat="42.58243" lon="1.70221">
        <ele>2458.691</ele>
        <time>2016-05-07T09:57:02Z</time>
      </trkpt>
      <trkpt lat="42.58248" lon="1.70213">
        <ele>2454.929</ele>
        <time>2016-05-07T09:57:22Z</time>
      </trkpt>
      <trkpt lat="42.58258" lon="1.70214">
        <ele>2450.21</ele>
        <time>2016-05-07T09:57:42Z</time>
      </trkpt>
      <trkpt lat="42.58268" lon="1.70216">
        <ele>2445.758</ele>
        <time>2016-05-07T09:58:02Z</time>
      </trkpt>
      <trkpt lat="42.58272" lon="1.70215">
        <ele>2443.626</ele>
        <time>2016-05-07T09:58:22Z</time>
      </trkpt>
      <trkpt lat="42.58275" lon="1.70218">
        <ele>2442.769</ele>
        <time>2016-05-07T09:58:42Z</time>
      </trkpt>
      <trkpt lat="42.58282" lon="1.70218">
        <ele>2440.104</ele>
        <time>2016-05-07T09:59:02Z</time>
      </trkpt>
      <trkpt lat="42.5829" lon="1.70212">
        <ele>2436.924</ele>
        <time>2016-05-07T09:59:22Z</time>
      </trkpt>
      <trkpt lat="42.58292" lon="1.70204">
        <ele>2434.608</ele>
        <time>2016-05-07T09:59:42Z</time>
      </trkpt>
      <trkpt lat="42.58292" lon="1.70197">
        <ele>2433.047</ele>
        <time>2016-05-07T10:00:02Z</time>
      </trkpt>
      <trkpt lat="42.5829" lon="1.70191">
        <ele>2432.659</ele>
        <time>2016-05-07T10:00:22Z</time>
      </trkpt>
      <trkpt lat="42.58294" lon="1.70186">
        <ele>2431.127</ele>
        <time>2016-05-07T10:00:42Z</time>
      </trkpt>
      <trkpt lat="42.58311" lon="1.7018">
        <ele>2425.735</ele>
        <time>2016-05-07T10:01:02Z</time>
      </trkpt>
      <trkpt lat="42.58324" lon="1.70176">
        <ele>2422.493</ele>
        <time>2016-05-07T10:01:22Z</time>
      </trkpt>
      <trkpt lat="42.58346" lon="1.70185">
        <ele>2417.164</ele>
        <time>2016-05-07T10:01:42Z</time>
      </trkpt>
      <trkpt lat="42.58366" lon="1.70195">
        <ele>2411.652</ele>
        <time>2016-05-07T10:02:02Z</time>
      </trkpt>
      <trkpt lat="42.58379" lon="1.70203">
        <ele>2407.42</ele>
        <time>2016-05-07T10:02:22Z</time>
      </trkpt>
      <trkpt lat="42.58404" lon="1.70195">
        <ele>2401.198</ele>
        <time>2016-05-07T10:02:42Z</time>
      </trkpt>
      <trkpt lat="42.58428" lon="1.70185">
        <ele>2397.715</ele>
        <time>2016-05-07T10:03:02Z</time>
      </trkpt>
      <trkpt lat="42.58453" lon="1.70176">
        <ele>2394.326</ele>
        <time>2016-05-07T10:03:22Z</time>
      </trkpt>
      <trkpt lat="42.58466" lon="1.70177">
        <ele>2391.108</ele>
        <time>2016-05-07T10:03:42Z</time>
      </trkpt>
      <trkpt lat="42.58473" lon="1.70182">
        <ele>2389.97</ele>
        <time>2016-05-07T10:04:02Z</time>
      </trkpt>
      <trkpt lat="42.58481" lon="1.70174">
        <ele>2386.642</ele>
        <time>2016-05-07T10:04:22Z</time>
      </trkpt>
      <trkpt lat="42.58488" lon="1.70171">
        <ele>2384.59</ele>
        <time>2016-05-07T10:04:42Z</time>
      </trkpt>
      <trkpt lat="42.58496" lon="1.70175">
        <ele>2382.448</ele>
        <time>2016-05-07T10:05:02Z</time>
      </trkpt>
      <trkpt lat="42.58511" lon="1.70187">
        <ele>2378.776</ele>
        <time>2016-05-07T10:05:22Z</time>
      </trkpt>
      <trkpt lat="42.58521" lon="1.70198">
        <ele>2376.497</ele>
        <time>2016-05-07T10:05:42Z</time>
      </trkpt>
      <trkpt lat="42.58528" lon="1.70204">
        <ele>2374.735</ele>
        <time>2016-05-07T10:06:02Z</time>
      </trkpt>
      <trkpt lat="42.5853" lon="1.70203">
        <ele>2374.143</ele>
        <time>2016-05-07T10:06:22Z</time>
      </trkpt>
      <trkpt lat="42.58534" lon="1.70206">
        <ele>2373.638</ele>
        <time>2016-05-07T10:06:42Z</time>
      </trkpt>
      <trkpt lat="42.58538" lon="1.70211">
        <ele>2373.17</ele>
        <time>2016-05-07T10:07:02Z</time>
      </trkpt>
      <trkpt lat="42.58544" lon="1.70219">
        <ele>2372.317</ele>
        <time>2016-05-07T10:07:22Z</time>
      </trkpt>
      <trkpt lat="42.58552" lon="1.70225">
        <ele>2370.808</ele>
        <time>2016-05-07T10:07:42Z</time>
      </trkpt>
      <trkpt lat="42.58558" lon="1.70232">
        <ele>2370.264</ele>
        <time>2016-05-07T10:08:02Z</time>
      </trkpt>
      <trkpt lat="42.58562" lon="1.70249">
        <ele>2370.366</ele>
        <time>2016-05-07T10:08:22Z</time>
      </trkpt>
      <trkpt lat="42.58567" lon="1.70255">
        <ele>2369.354</ele>
        <time>2016-05-07T10:08:42Z</time>
      </trkpt>
      <trkpt lat="42.58599" lon="1.70263">
        <ele>2362.212</ele>
        <time>2016-05-07T10:09:02Z</time>
      </trkpt>
      <trkpt lat="42.58609" lon="1.70259">
        <ele>2361.04</ele>
        <time>2016-05-07T10:09:22Z</time>
      </trkpt>
      <trkpt lat="42.58634" lon="1.70268">
        <ele>2351.081</ele>
        <time>2016-05-07T10:09:42Z</time>
      </trkpt>
      <trkpt lat="42.58651" lon="1.70261">
        <ele>2345.869</ele>
        <time>2016-05-07T10:10:02Z</time>
      </trkpt>
      <trkpt lat="42.58657" lon="1.70265">
        <ele>2343.177</ele>
        <time>2016-05-07T10:10:22Z</time>
      </trkpt>
      <trkpt lat="42.58668" lon="1.70264">
        <ele>2339.046</ele>
        <time>2016-05-07T10:10:42Z</time>
      </trkpt>
      <trkpt lat="42.58696" lon="1.70277">
        <ele>2331.988</ele>
        <time>2016-05-07T10:11:02Z</time>
      </trkpt>
      <trkpt lat="42.58718" lon="1.70273">
        <ele>2329.516</ele>
        <time>2016-05-07T10:11:22Z</time>
      </trkpt>
      <trkpt lat="42.58746" lon="1.70262">
        <ele>2329.908</ele>
        <time>2016-05-07T10:11:42Z</time>
      </trkpt>
      <trkpt lat="42.58762" lon="1.70252">
        <ele>2330.085</ele>
        <time>2016-05-07T10:12:02Z</time>
      </trkpt>
      <trkpt lat="42.58772" lon="1.70248">
        <ele>2330.037</ele>
        <time>2016-05-07T10:12:22Z</time>
      </trkpt>
      <trkpt lat="42.58779" lon="1.70244">
        <ele>2330.135</ele>
        <time>2016-05-07T10:12:42Z</time>
      </trkpt>
      <trkpt lat="42.58787" lon="1.70239">
        <ele>2330.513</ele>
        <time>2016-05-07T10:13:02Z</time>
      </trkpt>
      <trkpt lat="42.58795" lon="1.70237">
        <ele>2330.961</ele>
        <time>2016-05-07T10:13:22Z</time>
      </trkpt>
      <trkpt lat="42.58801" lon="1.70232">
        <ele>2331.152</ele>
        <time>2016-05-07T10:13:42Z</time>
      </trkpt>
      <trkpt lat="42.58807" lon="1.70227">
        <ele>2331.57</ele>
        <time>2016-05-07T10:14:02Z</time>
      </trkpt>
      <trkpt lat="42.58814" lon="1.70218">
        <ele>2332.228</ele>
        <time>2016-05-07T10:14:22Z</time>
      </trkpt>
      <trkpt lat="42.58821" lon="1.7021">
        <ele>2332.985</ele>
        <time>2016-05-07T10:14:42Z</time>
      </trkpt>
      <trkpt lat="42.5883" lon="1.70202">
        <ele>2333.489</ele>
        <time>2016-05-07T10:15:02Z</time>
      </trkpt>
      <trkpt lat="42.5884" lon="1.70193">
        <ele>2333.417</ele>
        <time>2016-05-07T10:15:22Z</time>
      </trkpt>
      <trkpt lat="42.5885" lon="1.70184">
        <ele>2333.408</ele>
        <time>2016-05-07T10:15:42Z</time>
      </trkpt>
      <trkpt lat="42.58858" lon="1.70177">
        <ele>2333.099</ele>
        <time>2016-05-07T10:16:02Z</time>
      </trkpt>
      <trkpt lat="42.5887" lon="1.70166">
        <ele>2331.171</ele>
        <time>2016-05-07T10:16:22Z</time>
      </trkpt>
      <trkpt lat="42.5888" lon="1.70161">
        <ele>2329.359</ele>
        <time>2016-05-07T10:16:42Z</time>
      </trkpt>
      <trkpt lat="42.58895" lon="1.70165">
        <ele>2327.797</ele>
        <time>2016-05-07T10:17:02Z</time>
      </trkpt>
      <trkpt lat="42.58906" lon="1.70168">
        <ele>2326.185</ele>
        <time>2016-05-07T10:17:22Z</time>
      </trkpt>
      <trkpt lat="42.58917" lon="1.70175">
        <ele>2324.476</ele>
        <time>2016-05-07T10:17:42Z</time>
      </trkpt>
      <trkpt lat="42.58928" lon="1.70178">
        <ele>2321.454</ele>
        <time>2016-05-07T10:18:02Z</time>
      </trkpt>
      <trkpt lat="42.5894" lon="1.70186">
        <ele>2317.832</ele>
        <time>2016-05-07T10:18:22Z</time>
      </trkpt>
      <trkpt lat="42.58953" lon="1.70194">
        <ele>2313.015</ele>
        <time>2016-05-07T10:18:42Z</time>
      </trkpt>
      <trkpt lat="42.58961" lon="1.70201">
        <ele>2310.365</ele>
        <time>2016-05-07T10:19:02Z</time>
      </trkpt>
      <trkpt lat="42.58971" lon="1.7021">
        <ele>2307.111</ele>
        <time>2016-05-07T10:19:22Z</time>
      </trkpt>
      <trkpt lat="42.58984" lon="1.70223">
        <ele>2303.308</ele>
        <time>2016-05-07T10:19:42Z</time>
      </trkpt>
      <trkpt lat="42.5899" lon="1.70232">
        <ele>2300.182</ele>
        <time>2016-05-07T10:20:02Z</time>
      </trkpt>
      <trkpt lat="42.58998" lon="1.70243">
        <ele>2296.024</ele>
        <time>2016-05-07T10:20:22Z</time>
      </trkpt>
      <trkpt lat="42.59" lon="1.70257">
        <ele>2293.332</ele>
        <time>2016-05-07T10:20:42Z</time>
      </trkpt>
      <trkpt lat="42.59002" lon="1.70274">
        <ele>2290.05</ele>
        <time>2016-05-07T10:21:02Z</time>
      </trkpt>
      <trkpt lat="42.59002" lon="1.70297">
        <ele>2284.478</ele>
        <time>2016-05-07T10:21:22Z</time>
      </trkpt>
      <trkpt lat="42.59" lon="1.70314">
        <ele>2279.659</ele>
        <time>2016-05-07T10:21:42Z</time>
      </trkpt>
      <trkpt lat="42.58998" lon="1.70333">
        <ele>2273.267</ele>
        <time>2016-05-07T10:22:02Z</time>
      </trkpt>
      <trkpt lat="42.58997" lon="1.70359">
        <ele>2261.955</ele>
        <time>2016-05-07T10:22:22Z</time>
      </trkpt>
      <trkpt lat="42.58992" lon="1.70371">
        <ele>2259.627</ele>
        <time>2016-05-07T10:22:42Z</time>
      </trkpt>
      <trkpt lat="42.5899" lon="1.70389">
        <ele>2254.968</ele>
        <time>2016-05-07T10:23:02Z</time>
      </trkpt>
      <trkpt lat="42.58993" lon="1.70403">
        <ele>2251.414</ele>
        <time>2016-05-07T10:23:22Z</time>
      </trkpt>
      <trkpt lat="42.5899" lon="1.70427">
        <ele>2248.008</ele>
        <time>2016-05-07T10:23:42Z</time>
      </trkpt>
      <trkpt lat="42.58996" lon="1.70451">
        <ele>2242.833</ele>
        <time>2016-05-07T10:24:02Z</time>
      </trkpt>
      <trkpt lat="42.59" lon="1.70493">
        <ele>2235.365</ele>
        <time>2016-05-07T10:24:22Z</time>
      </trkpt>
      <trkpt lat="42.59011" lon="1.70507">
        <ele>2230.793</ele>
        <time>2016-05-07T10:24:42Z</time>
      </trkpt>
      <trkpt lat="42.59026" lon="1.70522">
        <ele>2223.951</ele>
        <time>2016-05-07T10:25:02Z</time>
      </trkpt>
      <trkpt lat="42.59035" lon="1.70536">
        <ele>2218.449</ele>
        <time>2016-05-07T10:25:22Z</time>
      </trkpt>
      <trkpt lat="42.59054" lon="1.7053">
        <ele>2212.42</ele>
        <time>2016-05-07T10:25:42Z</time>
      </trkpt>
      <trkpt lat="42.59055" lon="1.70532">
        <ele>2212.058</ele>
        <time>2016-05-07T10:26:02Z</time>
      </trkpt>
      <trkpt lat="42.59088" lon="1.70524">
        <ele>2198.796</ele>
        <time>2016-05-07T10:26:22Z</time>
      </trkpt>
      <trkpt lat="42.59092" lon="1.70527">
        <ele>2197.565</ele>
        <time>2016-05-07T10:26:42Z</time>
      </trkpt>
      <trkpt lat="42.59098" lon="1.70518">
        <ele>2195.568</ele>
        <time>2016-05-07T10:27:02Z</time>
      </trkpt>
      <trkpt lat="42.5911" lon="1.70509">
        <ele>2190.914</ele>
        <time>2016-05-07T10:27:22Z</time>
      </trkpt>
      <trkpt lat="42.59124" lon="1.70503">
        <ele>2186.508</ele>
        <time>2016-05-07T10:27:42Z</time>
      </trkpt>
      <trkpt lat="42.59137" lon="1.70494">
        <ele>2182.567</ele>
        <time>2016-05-07T10:28:02Z</time>
      </trkpt>
      <trkpt lat="42.59147" lon="1.70491">
        <ele>2179.569</ele>
        <time>2016-05-07T10:28:22Z</time>
      </trkpt>
      <trkpt lat="42.59157" lon="1.70494">
        <ele>2176.657</ele>
        <time>2016-05-07T10:28:42Z</time>
      </trkpt>
      <trkpt lat="42.59164" lon="1.70486">
        <ele>2174.455</ele>
        <time>2016-05-07T10:29:02Z</time>
      </trkpt>
      <trkpt lat="42.59165" lon="1.70482">
        <ele>2173.973</ele>
        <time>2016-05-07T10:29:22Z</time>
      </trkpt>
      <trkpt lat="42.59243" lon="1.70433">
        <ele>2156.964</ele>
        <time>2016-05-07T10:29:42Z</time>
      </trkpt>
      <trkpt lat="42.59253" lon="1.70424">
        <ele>2155.322</ele>
        <time>2016-05-07T10:30:02Z</time>
      </trkpt>
      <trkpt lat="42.59302" lon="1.70401">
        <ele>2149.67</ele>
        <time>2016-05-07T10:30:22Z</time>
      </trkpt>
      <trkpt lat="42.5931" lon="1.704">
        <ele>2148.652</ele>
        <time>2016-05-07T10:30:42Z</time>
      </trkpt>
      <trkpt lat="42.59321" lon="1.704">
        <ele>2147.053</ele>
        <time>2016-05-07T10:31:02Z</time>
      </trkpt>
      <trkpt lat="42.59331" lon="1.70403">
        <ele>2145.308</ele>
        <time>2016-05-07T10:31:22Z</time>
      </trkpt>
      <trkpt lat="42.59342" lon="1.70402">
        <ele>2144.608</ele>
        <time>2016-05-07T10:31:42Z</time>
      </trkpt>
      <trkpt lat="42.59354" lon="1.7038">
        <ele>2145.356</ele>
        <time>2016-05-07T10:32:02Z</time>
      </trkpt>
      <trkpt lat="42.59389" lon="1.70346">
        <ele>2146.228</ele>
        <time>2016-05-07T10:32:22Z</time>
      </trkpt>
      <trkpt lat="42.59402" lon="1.70345">
        <ele>2145.476</ele>
        <time>2016-05-07T10:32:42Z</time>
      </trkpt>
      <trkpt lat="42.59412" lon="1.7034">
        <ele>2145.054</ele>
        <time>2016-05-07T10:33:02Z</time>
      </trkpt>
      <trkpt lat="42.59434" lon="1.70328">
        <ele>2145.432</ele>
        <time>2016-05-07T10:33:22Z</time>
      </trkpt>
      <trkpt lat="42.5953" lon="1.70322">
        <ele>2144.923</ele>
        <time>2016-05-07T10:33:42Z</time>
      </trkpt>
      <trkpt lat="42.59539" lon="1.70322">
        <ele>2145.081</ele>
        <time>2016-05-07T10:34:02Z</time>
      </trkpt>
      <trkpt lat="42.59558" lon="1.70333">
        <ele>2143.979</ele>
        <time>2016-05-07T10:34:22Z</time>
      </trkpt>
      <trkpt lat="42.59575" lon="1.70348">
        <ele>2142.657</ele>
        <time>2016-05-07T10:34:42Z</time>
      </trkpt>
      <trkpt lat="42.59593" lon="1.70364">
        <ele>2142.6</ele>
        <time>2016-05-07T10:35:02Z</time>
      </trkpt>
      <trkpt lat="42.59606" lon="1.70391">
        <ele>2142.52</ele>
        <time>2016-05-07T10:35:22Z</time>
      </trkpt>
      <trkpt lat="42.59613" lon="1.70404">
        <ele>2142.008</ele>
        <time>2016-05-07T10:35:42Z</time>
      </trkpt>
      <trkpt lat="42.59618" lon="1.70413">
        <ele>2141.556</ele>
        <time>2016-05-07T10:36:02Z</time>
      </trkpt>
      <trkpt lat="42.59625" lon="1.70426">
        <ele>2141.088</ele>
        <time>2016-05-07T10:36:22Z</time>
      </trkpt>
      <trkpt lat="42.59642" lon="1.70422">
        <ele>2141.096</ele>
        <time>2016-05-07T10:36:42Z</time>
      </trkpt>
      <trkpt lat="42.59658" lon="1.70401">
        <ele>2138.084</ele>
        <time>2016-05-07T10:37:02Z</time>
      </trkpt>
      <trkpt lat="42.59671" lon="1.70351">
        <ele>2133.192</ele>
        <time>2016-05-07T10:37:22Z</time>
      </trkpt>
      <trkpt lat="42.59673" lon="1.70334">
        <ele>2131.543</ele>
        <time>2016-05-07T10:37:42Z</time>
      </trkpt>
      <trkpt lat="42.59674" lon="1.70319">
        <ele>2130.781</ele>
        <time>2016-05-07T10:38:02Z</time>
      </trkpt>
      <trkpt lat="42.59676" lon="1.70306">
        <ele>2129.699</ele>
        <time>2016-05-07T10:38:22Z</time>
      </trkpt>
      <trkpt lat="42.59683" lon="1.70304">
        <ele>2127.732</ele>
        <time>2016-05-07T10:38:42Z</time>
      </trkpt>
      <trkpt lat="42.59706" lon="1.70268">
        <ele>2118.592</ele>
        <time>2016-05-07T10:39:02Z</time>
      </trkpt>
      <trkpt lat="42.59717" lon="1.70261">
        <ele>2114.511</ele>
        <time>2016-05-07T10:39:22Z</time>
      </trkpt>
      <trkpt lat="42.59723" lon="1.70248">
        <ele>2111.308</ele>
        <time>2016-05-07T10:39:42Z</time>
      </trkpt>
      <trkpt lat="42.59727" lon="1.7024">
        <ele>2109.464</ele>
        <time>2016-05-07T10:40:02Z</time>
      </trkpt>
      <trkpt lat="42.59731" lon="1.70224">
        <ele>2105.896</ele>
        <time>2016-05-07T10:40:22Z</time>
      </trkpt>
      <trkpt lat="42.59729" lon="1.70203">
        <ele>2103.244</ele>
        <time>2016-05-07T10:40:42Z</time>
      </trkpt>
      <trkpt lat="42.5973" lon="1.70197">
        <ele>2101.872</ele>
        <time>2016-05-07T10:41:02Z</time>
      </trkpt>
      <trkpt lat="42.59736" lon="1.7019">
        <ele>2098.92</ele>
        <time>2016-05-07T10:41:22Z</time>
      </trkpt>
      <trkpt lat="42.59737" lon="1.70181">
        <ele>2097.261</ele>
        <time>2016-05-07T10:41:42Z</time>
      </trkpt>
      <trkpt lat="42.59732" lon="1.70168">
        <ele>2096.579</ele>
        <time>2016-05-07T10:42:02Z</time>
      </trkpt>
      <trkpt lat="42.59733" lon="1.70159">
        <ele>2094.987</ele>
        <time>2016-05-07T10:42:22Z</time>
      </trkpt>
      <trkpt lat="42.59734" lon="1.7015">
        <ele>2093.084</ele>
        <time>2016-05-07T10:42:42Z</time>
      </trkpt>
      <trkpt lat="42.59734" lon="1.70144">
        <ele>2091.907</ele>
        <time>2016-05-07T10:43:02Z</time>
      </trkpt>
      <trkpt lat="42.59734" lon="1.70136">
        <ele>2090.517</ele>
        <time>2016-05-07T10:43:22Z</time>
      </trkpt>
      <trkpt lat="42.59738" lon="1.70128">
        <ele>2087.908</ele>
        <time>2016-05-07T10:43:42Z</time>
      </trkpt>
      <trkpt lat="42.5974" lon="1.70121">
        <ele>2086.199</ele>
        <time>2016-05-07T10:44:02Z</time>
      </trkpt>
      <trkpt lat="42.59745" lon="1.70115">
        <ele>2082.241</ele>
        <time>2016-05-07T10:44:22Z</time>
      </trkpt>
      <trkpt lat="42.5975" lon="1.70107">
        <ele>2079.079</ele>
        <time>2016-05-07T10:44:42Z</time>
      </trkpt>
      <trkpt lat="42.5975" lon="1.70103">
        <ele>2079.267</ele>
        <time>2016-05-07T10:45:02Z</time>
      </trkpt>
      <trkpt lat="42.59759" lon="1.70089">
        <ele>2076.475</ele>
        <time>2016-05-07T10:45:22Z</time>
      </trkpt>
      <trkpt lat="42.59762" lon="1.70075">
        <ele>2074.726</ele>
        <time>2016-05-07T10:45:42Z</time>
      </trkpt>
      <trkpt lat="42.59765" lon="1.70066">
        <ele>2073.364</ele>
        <time>2016-05-07T10:46:02Z</time>
      </trkpt>
      <trkpt lat="42.59768" lon="1.70052">
        <ele>2071.662</ele>
        <time>2016-05-07T10:46:22Z</time>
      </trkpt>
      <trkpt lat="42.59773" lon="1.7004">
        <ele>2069.361</ele>
        <time>2016-05-07T10:46:42Z</time>
      </trkpt>
      <trkpt lat="42.59777" lon="1.70033">
        <ele>2067.121</ele>
        <time>2016-05-07T10:47:02Z</time>
      </trkpt>
      <trkpt lat="42.59789" lon="1.70019">
        <ele>2063.113</ele>
        <time>2016-05-07T10:47:22Z</time>
      </trkpt>
      <trkpt lat="42.59802" lon="1.70001">
        <ele>2057.608</ele>
        <time>2016-05-07T10:47:42Z</time>
      </trkpt>
      <trkpt lat="42.59806" lon="1.69994">
        <ele>2056.457</ele>
        <time>2016-05-07T10:48:02Z</time>
      </trkpt>
      <trkpt lat="42.59835" lon="1.69962">
        <ele>2040.199</ele>
        <time>2016-05-07T10:48:22Z</time>
      </trkpt>
      <trkpt lat="42.59838" lon="1.69957">
        <ele>2038.917</ele>
        <time>2016-05-07T10:48:42Z</time>
      </trkpt>
      <trkpt lat="42.59843" lon="1.69949">
        <ele>2035.745</ele>
        <time>2016-05-07T10:49:02Z</time>
      </trkpt>
      <trkpt lat="42.59851" lon="1.69937">
        <ele>2030.083</ele>
        <time>2016-05-07T10:49:22Z</time>
      </trkpt>
      <trkpt lat="42.59857" lon="1.69922">
        <ele>2025.434</ele>
        <time>2016-05-07T10:49:42Z</time>
      </trkpt>
      <trkpt lat="42.59867" lon="1.6993">
        <ele>2021.662</ele>
        <time>2016-05-07T10:50:02Z</time>
      </trkpt>
      <trkpt lat="42.59874" lon="1.69922">
        <ele>2018.17</ele>
        <time>2016-05-07T10:50:22Z</time>
      </trkpt>
      <trkpt lat="42.59876" lon="1.69919">
        <ele>2016.683</ele>
        <time>2016-05-07T10:50:42Z</time>
      </trkpt>
      <trkpt lat="42.59884" lon="1.69912">
        <ele>2012.625</ele>
        <time>2016-05-07T10:51:02Z</time>
      </trkpt>
      <trkpt lat="42.59884" lon="1.69902">
        <ele>2012.617</ele>
        <time>2016-05-07T10:51:22Z</time>
      </trkpt>
      <trkpt lat="42.59889" lon="1.699">
        <ele>2010.008</ele>
        <time>2016-05-07T10:51:42Z</time>
      </trkpt>
      <trkpt lat="42.59895" lon="1.69894">
        <ele>2007.189</ele>
        <time>2016-05-07T10:52:02Z</time>
      </trkpt>
      <trkpt lat="42.59906" lon="1.69881">
        <ele>2002.851</ele>
        <time>2016-05-07T10:52:22Z</time>
      </trkpt>
      <trkpt lat="42.59908" lon="1.69884">
        <ele>2000.989</ele>
        <time>2016-05-07T10:52:42Z</time>
      </trkpt>
      <trkpt lat="42.5992" lon="1.69872">
        <ele>1996.187</ele>
        <time>2016-05-07T10:53:02Z</time>
      </trkpt>
      <trkpt lat="42.59927" lon="1.69859">
        <ele>1993.775</ele>
        <time>2016-05-07T10:53:22Z</time>
      </trkpt>
      <trkpt lat="42.59931" lon="1.69856">
        <ele>1992.046</ele>
        <time>2016-05-07T10:53:42Z</time>
      </trkpt>
      <trkpt lat="42.5994" lon="1.69851">
        <ele>1987.024</ele>
        <time>2016-05-07T10:54:02Z</time>
      </trkpt>
      <trkpt lat="42.59943" lon="1.6984">
        <ele>1986.732</ele>
        <time>2016-05-07T10:54:22Z</time>
      </trkpt>
      <trkpt lat="42.59947" lon="1.69841">
        <ele>1984.315</ele>
        <time>2016-05-07T10:54:42Z</time>
      </trkpt>
      <trkpt lat="42.59954" lon="1.69828">
        <ele>1982.965</ele>
        <time>2016-05-07T10:55:02Z</time>
      </trkpt>
      <trkpt lat="42.59956" lon="1.69832">
        <ele>1981.311</ele>
        <time>2016-05-07T10:55:22Z</time>
      </trkpt>
      <trkpt lat="42.59962" lon="1.69828">
        <ele>1979.308</ele>
        <time>2016-05-07T10:55:42Z</time>
      </trkpt>
      <trkpt lat="42.59968" lon="1.69821">
        <ele>1977.572</ele>
        <time>2016-05-07T10:56:02Z</time>
      </trkpt>
      <trkpt lat="42.59973" lon="1.69823">
        <ele>1974.714</ele>
        <time>2016-05-07T10:56:22Z</time>
      </trkpt>
      <trkpt lat="42.59975" lon="1.69829">
        <ele>1973.472</ele>
        <time>2016-05-07T10:56:42Z</time>
      </trkpt>
      <trkpt lat="42.5998" lon="1.6982">
        <ele>1972.16</ele>
        <time>2016-05-07T10:57:02Z</time>
      </trkpt>
      <trkpt lat="42.5999" lon="1.69824">
        <ele>1967.998</ele>
        <time>2016-05-07T10:57:22Z</time>
      </trkpt>
      <trkpt lat="42.60002" lon="1.69812">
        <ele>1963.369</ele>
        <time>2016-05-07T10:57:42Z</time>
      </trkpt>
      <trkpt lat="42.60009" lon="1.69809">
        <ele>1961.267</ele>
        <time>2016-05-07T10:58:02Z</time>
      </trkpt>
      <trkpt lat="42.60014" lon="1.69801">
        <ele>1960.025</ele>
        <time>2016-05-07T10:58:22Z</time>
      </trkpt>
      <trkpt lat="42.60025" lon="1.69791">
        <ele>1956.184</ele>
        <time>2016-05-07T10:58:42Z</time>
      </trkpt>
      <trkpt lat="42.60037" lon="1.69779">
        <ele>1951.807</ele>
        <time>2016-05-07T10:59:02Z</time>
      </trkpt>
      <trkpt lat="42.60043" lon="1.69761">
        <ele>1948.617</ele>
        <time>2016-05-07T10:59:22Z</time>
      </trkpt>
      <trkpt lat="42.60042" lon="1.69742">
        <ele>1947.008</ele>
        <time>2016-05-07T10:59:42Z</time>
      </trkpt>
      <trkpt lat="42.60046" lon="1.69731">
        <ele>1944.549</ele>
        <time>2016-05-07T11:00:02Z</time>
      </trkpt>
      <trkpt lat="42.60056" lon="1.69732">
        <ele>1941.421</ele>
        <time>2016-05-07T11:00:22Z</time>
      </trkpt>
      <trkpt lat="42.60061" lon="1.69721">
        <ele>1938.979</ele>
        <time>2016-05-07T11:00:42Z</time>
      </trkpt>
      <trkpt lat="42.60075" lon="1.69717">
        <ele>1936.077</ele>
        <time>2016-05-07T11:01:02Z</time>
      </trkpt>
      <trkpt lat="42.60082" lon="1.697">
        <ele>1932.815</ele>
        <time>2016-05-07T11:01:22Z</time>
      </trkpt>
      <trkpt lat="42.60086" lon="1.69679">
        <ele>1929.586</ele>
        <time>2016-05-07T11:01:42Z</time>
      </trkpt>
      <trkpt lat="42.60099" lon="1.69662">
        <ele>1925.674</ele>
        <time>2016-05-07T11:02:02Z</time>
      </trkpt>
      <trkpt lat="42.60107" lon="1.69636">
        <ele>1920.772</ele>
        <time>2016-05-07T11:02:22Z</time>
      </trkpt>
      <trkpt lat="42.60123" lon="1.69619">
        <ele>1916.341</ele>
        <time>2016-05-07T11:02:42Z</time>
      </trkpt>
      <trkpt lat="42.60115" lon="1.69541">
        <ele>1909.481</ele>
        <time>2016-05-07T11:03:02Z</time>
      </trkpt>
      <trkpt lat="42.60135" lon="1.69481">
        <ele>1897.309</ele>
        <time>2016-05-07T11:03:22Z</time>
      </trkpt>
      <trkpt lat="42.60123" lon="1.6938">
        <ele>1892.908</ele>
        <time>2016-05-07T11:03:42Z</time>
      </trkpt>
      <trkpt lat="42.60147" lon="1.69239">
        <ele>1876.975</ele>
        <time>2016-05-07T11:04:02Z</time>
      </trkpt>
      <trkpt lat="42.60146" lon="1.6915">
        <ele>1870.537</ele>
        <time>2016-05-07T11:04:22Z</time>
      </trkpt>
      <trkpt lat="42.60153" lon="1.691">
        <ele>1863.925</ele>
        <time>2016-05-07T11:04:42Z</time>
      </trkpt>
      <trkpt lat="42.60147" lon="1.69038">
        <ele>1860.463</ele>
        <time>2016-05-07T11:05:02Z</time>
      </trkpt>
      <trkpt lat="42.60167" lon="1.68987">
        <ele>1851.121</ele>
        <time>2016-05-07T11:05:22Z</time>
      </trkpt>
      <trkpt lat="42.60151" lon="1.68904">
        <ele>1849.152</ele>
        <time>2016-05-07T11:05:42Z</time>
      </trkpt>
      <trkpt lat="42.60154" lon="1.68845">
        <ele>1843.84</ele>
        <time>2016-05-07T11:06:02Z</time>
      </trkpt>
      <trkpt lat="42.60199" lon="1.68785">
        <ele>1836.438</ele>
        <time>2016-05-07T11:06:22Z</time>
      </trkpt>
      <trkpt lat="42.60221" lon="1.68761">
        <ele>1836.447</ele>
        <time>2016-05-07T11:06:42Z</time>
      </trkpt>
      <trkpt lat="42.60234" lon="1.6875">
        <ele>1838.129</ele>
        <time>2016-05-07T11:07:02Z</time>
      </trkpt>
      <trkpt lat="42.60243" lon="1.68742">
        <ele>1839.421</ele>
        <time>2016-05-07T11:07:22Z</time>
      </trkpt>
      <trkpt lat="42.60247" lon="1.68737">
        <ele>1840.008</ele>
        <time>2016-05-07T11:07:42Z</time>
      </trkpt>
      <trkpt lat="42.6025" lon="1.68733">
        <ele>1840.335</ele>
        <time>2016-05-07T11:08:02Z</time>
      </trkpt>
      <trkpt lat="42.60253" lon="1.68733">
        <ele>1841.347</ele>
        <time>2016-05-07T11:08:22Z</time>
      </trkpt>
      <trkpt lat="42.60256" lon="1.68731">
        <ele>1842.065</ele>
        <time>2016-05-07T11:08:42Z</time>
      </trkpt>
      <trkpt lat="42.60258" lon="1.68733">
        <ele>1842.973</ele>
        <time>2016-05-07T11:09:02Z</time>
      </trkpt>
      <trkpt lat="42.60262" lon="1.68733">
        <ele>1843.991</ele>
        <time>2016-05-07T11:09:22Z</time>
      </trkpt>
      <trkpt lat="42.6027" lon="1.68733">
        <ele>1846.472</ele>
        <time>2016-05-07T11:09:42Z</time>
      </trkpt>
      <trkpt lat="42.60275" lon="1.68741">
        <ele>1848.51</ele>
        <time>2016-05-07T11:10:02Z</time>
      </trkpt>
      <trkpt lat="42.60275" lon="1.68746">
        <ele>1848.928</ele>
        <time>2016-05-07T11:10:22Z</time>
      </trkpt>
      <trkpt lat="42.60286" lon="1.6875">
        <ele>1853.078</ele>
        <time>2016-05-07T11:10:42Z</time>
      </trkpt>
      <trkpt lat="42.60294" lon="1.68754">
        <ele>1856.333</ele>
        <time>2016-05-07T11:11:02Z</time>
      </trkpt>
      <trkpt lat="42.603" lon="1.68756">
        <ele>1859.126</ele>
        <time>2016-05-07T11:11:22Z</time>
      </trkpt>
      <trkpt lat="42.603" lon="1.68759">
        <ele>1859.908</ele>
        <time>2016-05-07T11:11:42Z</time>
      </trkpt>
      <trkpt lat="42.60304" lon="1.68765">
        <ele>1862.518</ele>
        <time>2016-05-07T11:12:02Z</time>
      </trkpt>
      <trkpt lat="42.60309" lon="1.68764">
        <ele>1864.33</ele>
        <time>2016-05-07T11:12:22Z</time>
      </trkpt>
      <trkpt lat="42.60312" lon="1.68765">
        <ele>1865.738</ele>
        <time>2016-05-07T11:12:42Z</time>
      </trkpt>
      <trkpt lat="42.60318" lon="1.68763">
        <ele>1867.656</ele>
        <time>2016-05-07T11:13:02Z</time>
      </trkpt>
      <trkpt lat="42.60321" lon="1.68769">
        <ele>1869.744</ele>
        <time>2016-05-07T11:13:22Z</time>
      </trkpt>
      <trkpt lat="42.60323" lon="1.68772">
        <ele>1870.845</ele>
        <time>2016-05-07T11:13:42Z</time>
      </trkpt>
      <trkpt lat="42.60324" lon="1.6878">
        <ele>1872.273</ele>
        <time>2016-05-07T11:14:02Z</time>
      </trkpt>
      <trkpt lat="42.60327" lon="1.68783">
        <ele>1874.051</ele>
        <time>2016-05-07T11:14:22Z</time>
      </trkpt>
      <trkpt lat="42.60329" lon="1.68782">
        <ele>1874.515</ele>
        <time>2016-05-07T11:14:42Z</time>
      </trkpt>
      <trkpt lat="42.60335" lon="1.68786">
        <ele>1877.865</ele>
        <time>2016-05-07T11:15:02Z</time>
      </trkpt>
      <trkpt lat="42.60341" lon="1.68786">
        <ele>1879.511</ele>
        <time>2016-05-07T11:15:22Z</time>
      </trkpt>
      <trkpt lat="42.60342" lon="1.68791">
        <ele>1881.008</ele>
        <time>2016-05-07T11:15:42Z</time>
      </trkpt>
      <trkpt lat="42.60345" lon="1.68793">
        <ele>1882.532</ele>
        <time>2016-05-07T11:16:02Z</time>
      </trkpt>
      <trkpt lat="42.60347" lon="1.68798">
        <ele>1884.234</ele>
        <time>2016-05-07T11:16:22Z</time>
      </trkpt>
      <trkpt lat="42.60352" lon="1.68808">
        <ele>1888.052</ele>
        <time>2016-05-07T11:16:42Z</time>
      </trkpt>
      <trkpt lat="42.60359" lon="1.68806">
        <ele>1889.59</ele>
        <time>2016-05-07T11:17:02Z</time>
      </trkpt>
      <trkpt lat="42.60364" lon="1.68811">
        <ele>1892.728</ele>
        <time>2016-05-07T11:17:22Z</time>
      </trkpt>
      <trkpt lat="42.60366" lon="1.68816">
        <ele>1895.359</ele>
        <time>2016-05-07T11:17:42Z</time>
      </trkpt>
      <trkpt lat="42.60369" lon="1.68814">
        <ele>1896.257</ele>
        <time>2016-05-07T11:18:02Z</time>
      </trkpt>
      <trkpt lat="42.60374" lon="1.68819">
        <ele>1899.285</ele>
        <time>2016-05-07T11:18:22Z</time>
      </trkpt>
      <trkpt lat="42.60374" lon="1.68822">
        <ele>1900.165</ele>
        <time>2016-05-07T11:18:42Z</time>
      </trkpt>
      <trkpt lat="42.60379" lon="1.68825">
        <ele>1902.968</ele>
        <time>2016-05-07T11:19:02Z</time>
      </trkpt>
      <trkpt lat="42.60389" lon="1.68822">
        <ele>1906.814</ele>
        <time>2016-05-07T11:19:22Z</time>
      </trkpt>
      <trkpt lat="42.60398" lon="1.68827">
        <ele>1912.008</ele>
        <time>2016-05-07T11:19:42Z</time>
      </trkpt>
      <trkpt lat="42.60405" lon="1.68822">
        <ele>1914.837</ele>
        <time>2016-05-07T11:20:02Z</time>
      </trkpt>
      <trkpt lat="42.60408" lon="1.68818">
        <ele>1915.729</ele>
        <time>2016-05-07T11:20:22Z</time>
      </trkpt>
      <trkpt lat="42.60411" lon="1.68817">
        <ele>1917.447</ele>
        <time>2016-05-07T11:20:42Z</time>
      </trkpt>
      <trkpt lat="42.60418" lon="1.68811">
        <ele>1919.915</ele>
        <time>2016-05-07T11:21:02Z</time>
      </trkpt>
      <trkpt lat="42.60419" lon="1.68807">
        <ele>1919.933</ele>
        <time>2016-05-07T11:21:22Z</time>
      </trkpt>
      <trkpt lat="42.60424" lon="1.68803">
        <ele>1921.284</ele>
        <time>2016-05-07T11:21:42Z</time>
      </trkpt>
      <trkpt lat="42.60429" lon="1.68807">
        <ele>1922.752</ele>
        <time>2016-05-07T11:22:02Z</time>
      </trkpt>
      <trkpt lat="42.60431" lon="1.68815">
        <ele>1924.72</ele>
        <time>2016-05-07T11:22:22Z</time>
      </trkpt>
      <trkpt lat="42.60435" lon="1.68817">
        <ele>1926.434</ele>
        <time>2016-05-07T11:22:42Z</time>
      </trkpt>
      <trkpt lat="42.60439" lon="1.68825">
        <ele>1929.155</ele>
        <time>2016-05-07T11:23:02Z</time>
      </trkpt>
      <trkpt lat="42.60446" lon="1.68827">
        <ele>1931.91</ele>
        <time>2016-05-07T11:23:22Z</time>
      </trkpt>
      <trkpt lat="42.6045" lon="1.68829">
        <ele>1933.308</ele>
        <time>2016-05-07T11:23:42Z</time>
      </trkpt>
      <trkpt lat="42.60453" lon="1.68827">
        <ele>1933.784</ele>
        <time>2016-05-07T11:24:02Z</time>
      </trkpt>
      <trkpt lat="42.60466" lon="1.68834">
        <ele>1936.936</ele>
        <time>2016-05-07T11:24:22Z</time>
      </trkpt>
      <trkpt lat="42.60474" lon="1.68846">
        <ele>1941.474</ele>
        <time>2016-05-07T11:24:42Z</time>
      </trkpt>
      <trkpt lat="42.60477" lon="1.68847">
        <ele>1942.152</ele>
        <time>2016-05-07T11:25:02Z</time>
      </trkpt>
      <trkpt lat="42.60489" lon="1.68857">
        <ele>1945.73</ele>
        <time>2016-05-07T11:25:22Z</time>
      </trkpt>
      <trkpt lat="42.60495" lon="1.68868">
        <ele>1948.741</ele>
        <time>2016-05-07T11:25:42Z</time>
      </trkpt>
      <trkpt lat="42.60498" lon="1.68871">
        <ele>1949.929</ele>
        <time>2016-05-07T11:26:02Z</time>
      </trkpt>
      <trkpt lat="42.60501" lon="1.68874">
        <ele>1951.387</ele>
        <time>2016-05-07T11:26:22Z</time>
      </trkpt>
      <trkpt lat="42.6051" lon="1.68876">
        <ele>1952.726</ele>
        <time>2016-05-07T11:26:42Z</time>
      </trkpt>
      <trkpt lat="42.60518" lon="1.68883">
        <ele>1954.847</ele>
        <time>2016-05-07T11:27:02Z</time>
      </trkpt>
      <trkpt lat="42.60523" lon="1.68892">
        <ele>1956.611</ele>
        <time>2016-05-07T11:27:22Z</time>
      </trkpt>
      <trkpt lat="42.60532" lon="1.68901">
        <ele>1958.908</ele>
        <time>2016-05-07T11:27:42Z</time>
      </trkpt>
      <trkpt lat="42.60543" lon="1.68911">
        <ele>1961.823</ele>
        <time>2016-05-07T11:28:02Z</time>
      </trkpt>
      <trkpt lat="42.6055" lon="1.68915">
        <ele>1963.245</ele>
        <time>2016-05-07T11:28:22Z</time>
      </trkpt>
      <trkpt lat="42.6056" lon="1.68924">
        <ele>1966.093</ele>
        <time>2016-05-07T11:28:42Z</time>
      </trkpt>
      <trkpt lat="42.60568" lon="1.68929">
        <ele>1967.221</ele>
        <time>2016-05-07T11:29:02Z</time>
      </trkpt>
      <trkpt lat="42.60574" lon="1.68935">
        <ele>1968.489</ele>
        <time>2016-05-07T11:29:22Z</time>
      </trkpt>
      <trkpt lat="42.60577" lon="1.68935">
        <ele>1968.48</ele>
        <time>2016-05-07T11:29:42Z</time>
      </trkpt>
      <trkpt lat="42.60593" lon="1.68941">
        <ele>1969.528</ele>
        <time>2016-05-07T11:30:02Z</time>
      </trkpt>
      <trkpt lat="42.60608" lon="1.68953">
        <ele>1972.346</ele>
        <time>2016-05-07T11:30:22Z</time>
      </trkpt>
      <trkpt lat="42.60619" lon="1.68959">
        <ele>1974.041</ele>
        <time>2016-05-07T11:30:42Z</time>
      </trkpt>
      <trkpt lat="42.60632" lon="1.68963">
        <ele>1974.981</ele>
        <time>2016-05-07T11:31:02Z</time>
      </trkpt>
      <trkpt lat="42.60637" lon="1.68962">
        <ele>1974.909</ele>
        <time>2016-05-07T11:31:22Z</time>
      </trkpt>
      <trkpt lat="42.60645" lon="1.6897">
        <ele>1976.308</ele>
        <time>2016-05-07T11:31:42Z</time>
      </trkpt>
      <trkpt lat="42.60651" lon="1.68972">
        <ele>1976.915</ele>
        <time>2016-05-07T11:32:02Z</time>
      </trkpt>
      <trkpt lat="42.60657" lon="1.6898">
        <ele>1978.977</ele>
        <time>2016-05-07T11:32:22Z</time>
      </trkpt>
      <trkpt lat="42.60661" lon="1.68981">
        <ele>1979.435</ele>
        <time>2016-05-07T11:32:42Z</time>
      </trkpt>
      <trkpt lat="42.60662" lon="1.68988">
        <ele>1980.683</ele>
        <time>2016-05-07T11:33:02Z</time>
      </trkpt>
      <trkpt lat="42.60663" lon="1.6899">
        <ele>1981.071</ele>
        <time>2016-05-07T11:33:22Z</time>
      </trkpt>
      <trkpt lat="42.60669" lon="1.68994">
        <ele>1981.922</ele>
        <time>2016-05-07T11:33:42Z</time>
      </trkpt>
      <trkpt lat="42.6067" lon="1.68996">
        <ele>1982.41</ele>
        <time>2016-05-07T11:34:02Z</time>
      </trkpt>
      <trkpt lat="42.60674" lon="1.68997">
        <ele>1982.748</ele>
        <time>2016-05-07T11:34:22Z</time>
      </trkpt>
      <trkpt lat="42.60678" lon="1.69002">
        <ele>1983.483</ele>
        <time>2016-05-07T11:34:42Z</time>
      </trkpt>
      <trkpt lat="42.60683" lon="1.69002">
        <ele>1983.525</ele>
        <time>2016-05-07T11:35:02Z</time>
      </trkpt>
      <trkpt lat="42.60689" lon="1.69007">
        <ele>1984.517</ele>
        <time>2016-05-07T11:35:22Z</time>
      </trkpt>
      <trkpt lat="42.60695" lon="1.69007">
        <ele>1984.608</ele>
        <time>2016-05-07T11:35:42Z</time>
      </trkpt>
      <trkpt lat="42.60701" lon="1.69007">
        <ele>1985.159</ele>
        <time>2016-05-07T11:36:02Z</time>
      </trkpt>
      <trkpt lat="42.60712" lon="1.69012">
        <ele>1986.781</ele>
        <time>2016-05-07T11:36:22Z</time>
      </trkpt>
      <trkpt lat="42.60722" lon="1.69018">
        <ele>1987.919</ele>
        <time>2016-05-07T11:36:42Z</time>
      </trkpt>
      <trkpt lat="42.60729" lon="1.69025">
        <ele>1989.167</ele>
        <time>2016-05-07T11:37:02Z</time>
      </trkpt>
      <trkpt lat="42.6074" lon="1.69032">
        <ele>1990.365</ele>
        <time>2016-05-07T11:37:22Z</time>
      </trkpt>
      <trkpt lat="42.60749" lon="1.69035">
        <ele>1990.836</ele>
        <time>2016-05-07T11:37:42Z</time>
      </trkpt>
      <trkpt lat="42.60759" lon="1.69045">
        <ele>1992.824</ele>
        <time>2016-05-07T11:38:02Z</time>
      </trkpt>
      <trkpt lat="42.60775" lon="1.69054">
        <ele>1994.042</ele>
        <time>2016-05-07T11:38:22Z</time>
      </trkpt>
      <trkpt lat="42.60782" lon="1.69055">
        <ele>1994.489</ele>
        <time>2016-05-07T11:38:42Z</time>
      </trkpt>
      <trkpt lat="42.60791" lon="1.69065">
        <ele>1996.206</ele>
        <time>2016-05-07T11:39:02Z</time>
      </trkpt>
      <trkpt lat="42.60793" lon="1.69065">
        <ele>1996.326</ele>
        <time>2016-05-07T11:39:22Z</time>
      </trkpt>
      <trkpt lat="42.60804" lon="1.69065">
        <ele>1996.608</ele>
        <time>2016-05-07T11:39:42Z</time>
      </trkpt>
      <trkpt lat="42.60812" lon="1.69076">
        <ele>1997.749</ele>
        <time>2016-05-07T11:40:02Z</time>
      </trkpt>
      <trkpt lat="42.60822" lon="1.69088">
        <ele>1998.531</ele>
        <time>2016-05-07T11:40:22Z</time>
      </trkpt>
      <trkpt lat="42.60838" lon="1.69096">
        <ele>1999.639</ele>
        <time>2016-05-07T11:40:42Z</time>
      </trkpt>
      <trkpt lat="42.60855" lon="1.6912">
        <ele>2002.647</ele>
        <time>2016-05-07T11:41:02Z</time>
      </trkpt>
      <trkpt lat="42.6087" lon="1.69128">
        <ele>2003.465</ele>
        <time>2016-05-07T11:41:22Z</time>
      </trkpt>
      <trkpt lat="42.60881" lon="1.69134">
        <ele>2003.556</ele>
        <time>2016-05-07T11:41:42Z</time>
      </trkpt>
      <trkpt lat="42.60905" lon="1.69134">
        <ele>2003.934</ele>
        <time>2016-05-07T11:42:02Z</time>
      </trkpt>
      <trkpt lat="42.60915" lon="1.69143">
        <ele>2004.622</ele>
        <time>2016-05-07T11:42:22Z</time>
      </trkpt>
      <trkpt lat="42.60919" lon="1.69151">
        <ele>2005.894</ele>
        <time>2016-05-07T11:42:42Z</time>
      </trkpt>
      <trkpt lat="42.6093" lon="1.69164">
        <ele>2006.557</ele>
        <time>2016-05-07T11:43:02Z</time>
      </trkpt>
      <trkpt lat="42.60936" lon="1.6918">
        <ele>2008.422</ele>
        <time>2016-05-07T11:43:22Z</time>
      </trkpt>
      <trkpt lat="42.60951" lon="1.69193">
        <ele>2008.608</ele>
        <time>2016-05-07T11:43:42Z</time>
      </trkpt>
      <trkpt lat="42.60956" lon="1.69193">
        <ele>2008.51</ele>
        <time>2016-05-07T11:44:02Z</time>
      </trkpt>
      <trkpt lat="42.60962" lon="1.69198">
        <ele>2009.192</ele>
        <time>2016-05-07T11:44:22Z</time>
      </trkpt>
      <trkpt lat="42.60965" lon="1.69198">
        <ele>2009.08</ele>
        <time>2016-05-07T11:44:42Z</time>
      </trkpt>
      <trkpt lat="42.60975" lon="1.69201">
        <ele>2009.488</ele>
        <time>2016-05-07T11:45:02Z</time>
      </trkpt>
      <trkpt lat="42.60982" lon="1.69212">
        <ele>2010.896</ele>
        <time>2016-05-07T11:45:22Z</time>
      </trkpt>
      <trkpt lat="42.6099" lon="1.69219">
        <ele>2011.027</ele>
        <time>2016-05-07T11:45:42Z</time>
      </trkpt>
      <trkpt lat="42.60999" lon="1.69223">
        <ele>2010.325</ele>
        <time>2016-05-07T11:46:02Z</time>
      </trkpt>
      <trkpt lat="42.61018" lon="1.69238">
        <ele>2012.183</ele>
        <time>2016-05-07T11:46:22Z</time>
      </trkpt>
      <trkpt lat="42.61025" lon="1.69239">
        <ele>2011.558</ele>
        <time>2016-05-07T11:46:42Z</time>
      </trkpt>
      <trkpt lat="42.61038" lon="1.69245">
        <ele>2011.452</ele>
        <time>2016-05-07T11:47:02Z</time>
      </trkpt>
      <trkpt lat="42.61046" lon="1.69252">
        <ele>2011.717</ele>
        <time>2016-05-07T11:47:22Z</time>
      </trkpt>
      <trkpt lat="42.61053" lon="1.69259">
        <ele>2012.408</ele>
        <time>2016-05-07T11:47:42Z</time>
      </trkpt>
      <trkpt lat="42.61064" lon="1.69267">
        <ele>2013.016</ele>
        <time>2016-05-07T11:48:02Z</time>
      </trkpt>
      <trkpt lat="42.6107" lon="1.69267">
        <ele>2012.838</ele>
        <time>2016-05-07T11:48:22Z</time>
      </trkpt>
      <trkpt lat="42.61073" lon="1.69259">
        <ele>2011.846</ele>
        <time>2016-05-07T11:48:42Z</time>
      </trkpt>
      <trkpt lat="42.61074" lon="1.69246">
        <ele>2011.184</ele>
        <time>2016-05-07T11:49:02Z</time>
      </trkpt>
      <trkpt lat="42.61076" lon="1.69237">
        <ele>2011.422</ele>
        <time>2016-05-07T11:49:22Z</time>
      </trkpt>
      <trkpt lat="42.6108" lon="1.69228">
        <ele>2011.763</ele>
        <time>2016-05-07T11:49:42Z</time>
      </trkpt>
      <trkpt lat="42.61084" lon="1.69225">
        <ele>2011.941</ele>
        <time>2016-05-07T11:50:02Z</time>
      </trkpt>
      <trkpt lat="42.61084" lon="1.69219">
        <ele>2012.599</ele>
        <time>2016-05-07T11:50:22Z</time>
      </trkpt>
      <trkpt lat="42.61083" lon="1.69211">
        <ele>2013.693</ele>
        <time>2016-05-07T11:50:42Z</time>
      </trkpt>
      <trkpt lat="42.61075" lon="1.69207">
        <ele>2014.565</ele>
        <time>2016-05-07T11:51:02Z</time>
      </trkpt>
      <trkpt lat="42.61075" lon="1.69203">
        <ele>2015.221</ele>
        <time>2016-05-07T11:51:22Z</time>
      </trkpt>
      <trkpt lat="42.6109" lon="1.6919">
        <ele>2017.308</ele>
        <time>2016-05-07T11:51:42Z</time>
      </trkpt>
      <trkpt lat="42.61098" lon="1.69182">
        <ele>2019.34</ele>
        <time>2016-05-07T11:52:02Z</time>
      </trkpt>
      <trkpt lat="42.61097" lon="1.69147">
        <ele>2025.522</ele>
        <time>2016-05-07T11:52:22Z</time>
      </trkpt>
      <trkpt lat="42.61097" lon="1.69141">
        <ele>2026.51</ele>
        <time>2016-05-07T11:52:42Z</time>
      </trkpt>
      <trkpt lat="42.61097" lon="1.69134">
        <ele>2028.098</ele>
        <time>2016-05-07T11:53:02Z</time>
      </trkpt>
      <trkpt lat="42.61093" lon="1.69124">
        <ele>2029.416</ele>
        <time>2016-05-07T11:53:22Z</time>
      </trkpt>
      <trkpt lat="42.61085" lon="1.69103">
        <ele>2032.397</ele>
        <time>2016-05-07T11:53:42Z</time>
      </trkpt>
      <trkpt lat="42.61083" lon="1.69098">
        <ele>2032.775</ele>
        <time>2016-05-07T11:54:02Z</time>
      </trkpt>
      <trkpt lat="42.61079" lon="1.69093">
        <ele>2033.193</ele>
        <time>2016-05-07T11:54:22Z</time>
      </trkpt>
      <trkpt lat="42.61069" lon="1.69082">
        <ele>2033.812</ele>
        <time>2016-05-07T11:54:42Z</time>
      </trkpt>
      <trkpt lat="42.61062" lon="1.69074">
        <ele>2033.932</ele>
        <time>2016-05-07T11:55:02Z</time>
      </trkpt>
      <trkpt lat="42.6105" lon="1.69058">
        <ele>2035.305</ele>
        <time>2016-05-07T11:55:22Z</time>
      </trkpt>
      <trkpt lat="42.61043" lon="1.69049">
        <ele>2037.208</ele>
        <time>2016-05-07T11:55:42Z</time>
      </trkpt>
      <trkpt lat="42.61037" lon="1.69041">
        <ele>2038.622</ele>
        <time>2016-05-07T11:56:02Z</time>
      </trkpt>
      <trkpt lat="42.61023" lon="1.69024">
        <ele>2040.954</ele>
        <time>2016-05-07T11:56:22Z</time>
      </trkpt>
      <trkpt lat="42.60997" lon="1.68989">
        <ele>2043.392</ele>
        <time>2016-05-07T11:56:42Z</time>
      </trkpt>
      <trkpt lat="42.60995" lon="1.68983">
        <ele>2044.08</ele>
        <time>2016-05-07T11:57:02Z</time>
      </trkpt>
      <trkpt lat="42.60987" lon="1.68972">
        <ele>2044.728</ele>
        <time>2016-05-07T11:57:22Z</time>
      </trkpt>
      <trkpt lat="42.60963" lon="1.6896">
        <ele>2045.969</ele>
        <time>2016-05-07T11:57:42Z</time>
      </trkpt>
      <trkpt lat="42.6096" lon="1.68957">
        <ele>2046.557</ele>
        <time>2016-05-07T11:58:02Z</time>
      </trkpt>
      <trkpt lat="42.60954" lon="1.68951">
        <ele>2047.425</ele>
        <time>2016-05-07T11:58:22Z</time>
      </trkpt>
      <trkpt lat="42.60948" lon="1.68945">
        <ele>2048.197</ele>
        <time>2016-05-07T11:58:42Z</time>
      </trkpt>
      <trkpt lat="42.60913" lon="1.68885">
        <ele>2055.523</ele>
        <time>2016-05-07T11:59:02Z</time>
      </trkpt>
      <trkpt lat="42.60906" lon="1.68873">
        <ele>2056.925</ele>
        <time>2016-05-07T11:59:22Z</time>
      </trkpt>
      <trkpt lat="42.609" lon="1.68864">
        <ele>2057.808</ele>
        <time>2016-05-07T11:59:42Z</time>
      </trkpt>
      <trkpt lat="42.60883" lon="1.68844">
        <ele>2059.34</ele>
        <time>2016-05-07T12:00:02Z</time>
      </trkpt>
      <trkpt lat="42.60872" lon="1.68835">
        <ele>2059.842</ele>
        <time>2016-05-07T12:00:22Z</time>
      </trkpt>
      <trkpt lat="42.60862" lon="1.68824">
        <ele>2060.89</ele>
        <time>2016-05-07T12:00:42Z</time>
      </trkpt>
      <trkpt lat="42.60855" lon="1.68814">
        <ele>2062.068</ele>
        <time>2016-05-07T12:01:02Z</time>
      </trkpt>
      <trkpt lat="42.60815" lon="1.68761">
        <ele>2069.736</ele>
        <time>2016-05-07T12:01:22Z</time>
      </trkpt>
      <trkpt lat="42.60809" lon="1.68754">
        <ele>2070.577</ele>
        <time>2016-05-07T12:01:42Z</time>
      </trkpt>
      <trkpt lat="42.60804" lon="1.6875">
        <ele>2070.935</ele>
        <time>2016-05-07T12:02:02Z</time>
      </trkpt>
      <trkpt lat="42.608" lon="1.68743">
        <ele>2072.283</ele>
        <time>2016-05-07T12:02:22Z</time>
      </trkpt>
      <trkpt lat="42.60794" lon="1.68733">
        <ele>2073.869</ele>
        <time>2016-05-07T12:02:42Z</time>
      </trkpt>
      <trkpt lat="42.6079" lon="1.68724">
        <ele>2075.504</ele>
        <time>2016-05-07T12:03:02Z</time>
      </trkpt>
      <trkpt lat="42.60784" lon="1.68713">
        <ele>2077.924</ele>
        <time>2016-05-07T12:03:22Z</time>
      </trkpt>
      <trkpt lat="42.60782" lon="1.68708">
        <ele>2078.908</ele>
        <time>2016-05-07T12:03:42Z</time>
      </trkpt>
      <trkpt lat="42.60773" lon="1.68697">
        <ele>2081.177</ele>
        <time>2016-05-07T12:04:02Z</time>
      </trkpt>
      <trkpt lat="42.60766" lon="1.68684">
        <ele>2084.419</ele>
        <time>2016-05-07T12:04:22Z</time>
      </trkpt>
      <trkpt lat="42.60758" lon="1.68672">
        <ele>2088.037</ele>
        <time>2016-05-07T12:04:42Z</time>
      </trkpt>
      <trkpt lat="42.60753" lon="1.6866">
        <ele>2091.245</ele>
        <time>2016-05-07T12:05:02Z</time>
      </trkpt>
      <trkpt lat="42.60746" lon="1.68648">
        <ele>2093.963</ele>
        <time>2016-05-07T12:05:22Z</time>
      </trkpt>
      <trkpt lat="42.60742" lon="1.68641">
        <ele>2095.394</ele>
        <time>2016-05-07T12:05:42Z</time>
      </trkpt>
      <trkpt lat="42.60739" lon="1.68637">
        <ele>2096.532</ele>
        <time>2016-05-07T12:06:02Z</time>
      </trkpt>
      <trkpt lat="42.60735" lon="1.68634">
        <ele>2097.33</ele>
        <time>2016-05-07T12:06:22Z</time>
      </trkpt>
      <trkpt lat="42.60727" lon="1.68625">
        <ele>2099.354</ele>
        <time>2016-05-07T12:06:42Z</time>
      </trkpt>
      <trkpt lat="42.60719" lon="1.68613">
        <ele>2101.656</ele>
        <time>2016-05-07T12:07:02Z</time>
      </trkpt>
      <trkpt lat="42.60713" lon="1.68605">
        <ele>2103.411</ele>
        <time>2016-05-07T12:07:22Z</time>
      </trkpt>
      <trkpt lat="42.60705" lon="1.68594">
        <ele>2105.908</ele>
        <time>2016-05-07T12:07:42Z</time>
      </trkpt>
      <trkpt lat="42.60695" lon="1.68571">
        <ele>2111.856</ele>
        <time>2016-05-07T12:08:02Z</time>
      </trkpt>
      <trkpt lat="42.60688" lon="1.68563">
        <ele>2113.338</ele>
        <time>2016-05-07T12:08:22Z</time>
      </trkpt>
      <trkpt lat="42.60684" lon="1.68553">
        <ele>2116.246</ele>
        <time>2016-05-07T12:08:42Z</time>
      </trkpt>
      <trkpt lat="42.60677" lon="1.68536">
        <ele>2120.814</ele>
        <time>2016-05-07T12:09:02Z</time>
      </trkpt>
      <trkpt lat="42.60674" lon="1.68521">
        <ele>2125.232</ele>
        <time>2016-05-07T12:09:22Z</time>
      </trkpt>
      <trkpt lat="42.6067" lon="1.68507">
        <ele>2128.643</ele>
        <time>2016-05-07T12:09:42Z</time>
      </trkpt>
      <trkpt lat="42.60668" lon="1.6849">
        <ele>2134.011</ele>
        <time>2016-05-07T12:10:02Z</time>
      </trkpt>
      <trkpt lat="42.60666" lon="1.68477">
        <ele>2138.189</ele>
        <time>2016-05-07T12:10:22Z</time>
      </trkpt>
      <trkpt lat="42.60666" lon="1.68468">
        <ele>2140.888</ele>
        <time>2016-05-07T12:10:42Z</time>
      </trkpt>
      <trkpt lat="42.60662" lon="1.68428">
        <ele>2152.324</ele>
        <time>2016-05-07T12:11:02Z</time>
      </trkpt>
      <trkpt lat="42.60661" lon="1.68422">
        <ele>2153.626</ele>
        <time>2016-05-07T12:11:22Z</time>
      </trkpt>
      <trkpt lat="42.6066" lon="1.68417">
        <ele>2154.708</ele>
        <time>2016-05-07T12:11:42Z</time>
      </trkpt>
      <trkpt lat="42.60656" lon="1.68414">
        <ele>2153.799</ele>
        <time>2016-05-07T12:12:02Z</time>
      </trkpt>
      <trkpt lat="42.60652" lon="1.6841">
        <ele>2153.831</ele>
        <time>2016-05-07T12:12:22Z</time>
      </trkpt>
      <trkpt lat="42.60652" lon="1.68406">
        <ele>2154.899</ele>
        <time>2016-05-07T12:12:42Z</time>
      </trkpt>
      <trkpt lat="42.60649" lon="1.68398">
        <ele>2156.537</ele>
        <time>2016-05-07T12:13:02Z</time>
      </trkpt>
      <trkpt lat="42.60649" lon="1.68389">
        <ele>2159.765</ele>
        <time>2016-05-07T12:13:22Z</time>
      </trkpt>
      <trkpt lat="42.60646" lon="1.68378">
        <ele>2160.166</ele>
        <time>2016-05-07T12:13:42Z</time>
      </trkpt>
      <trkpt lat="42.6065" lon="1.68354">
        <ele>2164.954</ele>
        <time>2016-05-07T12:14:02Z</time>
      </trkpt>
      <trkpt lat="42.60652" lon="1.6835">
        <ele>2165.872</ele>
        <time>2016-05-07T12:14:22Z</time>
      </trkpt>
      <trkpt lat="42.60651" lon="1.68338">
        <ele>2164.626</ele>
        <time>2016-05-07T12:14:42Z</time>
      </trkpt>
      <trkpt lat="42.60651" lon="1.68325">
        <ele>2164.747</ele>
        <time>2016-05-07T12:15:02Z</time>
      </trkpt>
      <trkpt lat="42.60652" lon="1.68312">
        <ele>2165.411</ele>
        <time>2016-05-07T12:15:22Z</time>
      </trkpt>
      <trkpt lat="42.60652" lon="1.68288">
        <ele>2165.408</ele>
        <time>2016-05-07T12:15:42Z</time>
      </trkpt>
      <trkpt lat="42.60651" lon="1.6827">
        <ele>2164.883</ele>
        <time>2016-05-07T12:16:02Z</time>
      </trkpt>
      <trkpt lat="42.60651" lon="1.68242">
        <ele>2165.685</ele>
        <time>2016-05-07T12:16:22Z</time>
      </trkpt>
      <trkpt lat="42.60646" lon="1.68215">
        <ele>2167.023</ele>
        <time>2016-05-07T12:16:42Z</time>
      </trkpt>
      <trkpt lat="42.60643" lon="1.6819">
        <ele>2169.621</ele>
        <time>2016-05-07T12:17:02Z</time>
      </trkpt>
      <trkpt lat="42.60643" lon="1.68176">
        <ele>2171.629</ele>
        <time>2016-05-07T12:17:22Z</time>
      </trkpt>
      <trkpt lat="42.60644" lon="1.68173">
        <ele>2172.13</ele>
        <time>2016-05-07T12:17:42Z</time>
      </trkpt>
      <trkpt lat="42.60645" lon="1.68162">
        <ele>2173.128</ele>
        <time>2016-05-07T12:18:02Z</time>
      </trkpt>
      <trkpt lat="42.60647" lon="1.6815">
        <ele>2173.316</ele>
        <time>2016-05-07T12:18:22Z</time>
      </trkpt>
      <trkpt lat="42.60652" lon="1.68132">
        <ele>2173.556</ele>
        <time>2016-05-07T12:18:42Z</time>
      </trkpt>
      <trkpt lat="42.60655" lon="1.68124">
        <ele>2173.559</ele>
        <time>2016-05-07T12:19:02Z</time>
      </trkpt>
      <trkpt lat="42.60659" lon="1.68116">
        <ele>2173.414</ele>
        <time>2016-05-07T12:19:22Z</time>
      </trkpt>
      <trkpt lat="42.60661" lon="1.68098">
        <ele>2172.908</ele>
        <time>2016-05-07T12:19:42Z</time>
      </trkpt>
      <trkpt lat="42.60663" lon="1.68087">
        <ele>2172.716</ele>
        <time>2016-05-07T12:20:02Z</time>
      </trkpt>
      <trkpt lat="42.60666" lon="1.68075">
        <ele>2172.638</ele>
        <time>2016-05-07T12:20:22Z</time>
      </trkpt>
      <trkpt lat="42.60672" lon="1.68063">
        <ele>2172.526</ele>
        <time>2016-05-07T12:20:42Z</time>
      </trkpt>
      <trkpt lat="42.60674" lon="1.68053">
        <ele>2172.174</ele>
        <time>2016-05-07T12:21:02Z</time>
      </trkpt>
      <trkpt lat="42.60676" lon="1.68041">
        <ele>2171.352</ele>
        <time>2016-05-07T12:21:22Z</time>
      </trkpt>
      <trkpt lat="42.6068" lon="1.68027">
        <ele>2170.483</ele>
        <time>2016-05-07T12:21:42Z</time>
      </trkpt>
      <trkpt lat="42.60685" lon="1.68017">
        <ele>2169.211</ele>
        <time>2016-05-07T12:22:02Z</time>
      </trkpt>
      <trkpt lat="42.60686" lon="1.68008">
        <ele>2168.069</ele>
        <time>2016-05-07T12:22:22Z</time>
      </trkpt>
      <trkpt lat="42.60693" lon="1.67994">
        <ele>2166.185</ele>
        <time>2016-05-07T12:22:42Z</time>
      </trkpt>
      <trkpt lat="42.60699" lon="1.67974">
        <ele>2163.489</ele>
        <time>2016-05-07T12:23:02Z</time>
      </trkpt>
      <trkpt lat="42.60706" lon="1.67957">
        <ele>2162.017</ele>
        <time>2016-05-07T12:23:22Z</time>
      </trkpt>
      <trkpt lat="42.60709" lon="1.6795">
        <ele>2161.608</ele>
        <time>2016-05-07T12:23:42Z</time>
      </trkpt>
      <trkpt lat="42.60707" lon="1.67937">
        <ele>2161.319</ele>
        <time>2016-05-07T12:24:02Z</time>
      </trkpt>
      <trkpt lat="42.60706" lon="1.67923">
        <ele>2161.941</ele>
        <time>2016-05-07T12:24:22Z</time>
      </trkpt>
      <trkpt lat="42.60707" lon="1.67913">
        <ele>2162.949</ele>
        <time>2016-05-07T12:24:42Z</time>
      </trkpt>
      <trkpt lat="42.60711" lon="1.67896">
        <ele>2166.057</ele>
        <time>2016-05-07T12:25:02Z</time>
      </trkpt>
      <trkpt lat="42.60717" lon="1.67885">
        <ele>2168.425</ele>
        <time>2016-05-07T12:25:22Z</time>
      </trkpt>
      <trkpt lat="42.60728" lon="1.67865">
        <ele>2173.386</ele>
        <time>2016-05-07T12:25:42Z</time>
      </trkpt>
      <trkpt lat="42.60737" lon="1.67847">
        <ele>2178.124</ele>
        <time>2016-05-07T12:26:02Z</time>
      </trkpt>
      <trkpt lat="42.60743" lon="1.67829">
        <ele>2182.372</ele>
        <time>2016-05-07T12:26:22Z</time>
      </trkpt>
      <trkpt lat="42.60743" lon="1.67826">
        <ele>2182.879</ele>
        <time>2016-05-07T12:26:42Z</time>
      </trkpt>
      <trkpt lat="42.60751" lon="1.6781">
        <ele>2186.505</ele>
        <time>2016-05-07T12:27:02Z</time>
      </trkpt>
      <trkpt lat="42.6076" lon="1.67792">
        <ele>2191.425</ele>
        <time>2016-05-07T12:27:22Z</time>
      </trkpt>
      <trkpt lat="42.60763" lon="1.67778">
        <ele>2193.708</ele>
        <time>2016-05-07T12:27:42Z</time>
      </trkpt>
      <trkpt lat="42.60774" lon="1.67754">
        <ele>2195.758</ele>
        <time>2016-05-07T12:28:02Z</time>
      </trkpt>
      <trkpt lat="42.60779" lon="1.67741">
        <ele>2197.58</ele>
        <time>2016-05-07T12:28:22Z</time>
      </trkpt>
      <trkpt lat="42.60783" lon="1.67736">
        <ele>2200.418</ele>
        <time>2016-05-07T12:28:42Z</time>
      </trkpt>
      <trkpt lat="42.60786" lon="1.67733">
        <ele>2202.166</ele>
        <time>2016-05-07T12:29:02Z</time>
      </trkpt>
      <trkpt lat="42.60788" lon="1.67733">
        <ele>2203.494</ele>
        <time>2016-05-07T12:29:22Z</time>
      </trkpt>
      <trkpt lat="42.60792" lon="1.67725">
        <ele>2205.535</ele>
        <time>2016-05-07T12:29:42Z</time>
      </trkpt>
      <trkpt lat="42.60796" lon="1.67723">
        <ele>2207.713</ele>
        <time>2016-05-07T12:30:02Z</time>
      </trkpt>
      <trkpt lat="42.608" lon="1.6772">
        <ele>2210.711</ele>
        <time>2016-05-07T12:30:22Z</time>
      </trkpt>
      <trkpt lat="42.60806" lon="1.67719">
        <ele>2213.938</ele>
        <time>2016-05-07T12:30:42Z</time>
      </trkpt>
      <trkpt lat="42.60807" lon="1.67716">
        <ele>2215.77</ele>
        <time>2016-05-07T12:31:02Z</time>
      </trkpt>
      <trkpt lat="42.60807" lon="1.6771">
        <ele>2217.117</ele>
        <time>2016-05-07T12:31:22Z</time>
      </trkpt>
      <trkpt lat="42.60807" lon="1.67704">
        <ele>2218.708</ele>
        <time>2016-05-07T12:31:42Z</time>
      </trkpt>
      <trkpt lat="42.60806" lon="1.67694">
        <ele>2220.614</ele>
        <time>2016-05-07T12:32:02Z</time>
      </trkpt>
      <trkpt lat="42.60807" lon="1.67682">
        <ele>2224.126</ele>
        <time>2016-05-07T12:32:22Z</time>
      </trkpt>
      <trkpt lat="42.60807" lon="1.6767">
        <ele>2226.924</ele>
        <time>2016-05-07T12:32:42Z</time>
      </trkpt>
      <trkpt lat="42.60806" lon="1.67664">
        <ele>2227.662</ele>
        <time>2016-05-07T12:33:02Z</time>
      </trkpt>
      <trkpt lat="42.60806" lon="1.67657">
        <ele>2229.02</ele>
        <time>2016-05-07T12:33:22Z</time>
      </trkpt>
      <trkpt lat="42.60809" lon="1.67646">
        <ele>2232.181</ele>
        <time>2016-05-07T12:33:42Z</time>
      </trkpt>
      <trkpt lat="42.60811" lon="1.67637">
        <ele>2234.669</ele>
        <time>2016-05-07T12:34:02Z</time>
      </trkpt>
      <trkpt lat="42.60816" lon="1.67627">
        <ele>2237.187</ele>
        <time>2016-05-07T12:34:22Z</time>
      </trkpt>
      <trkpt lat="42.60819" lon="1.67622">
        <ele>2238.344</ele>
        <time>2016-05-07T12:34:42Z</time>
      </trkpt>
      <trkpt lat="42.60821" lon="1.67614">
        <ele>2239.405</ele>
        <time>2016-05-07T12:35:02Z</time>
      </trkpt>
      <trkpt lat="42.60824" lon="1.67606">
        <ele>2240.515</ele>
        <time>2016-05-07T12:35:22Z</time>
      </trkpt>
      <trkpt lat="42.60827" lon="1.67595">
        <ele>2241.408</ele>
        <time>2016-05-07T12:35:42Z</time>
      </trkpt>
      <trkpt lat="42.6083" lon="1.67583">
        <ele>2242.015</ele>
        <time>2016-05-07T12:36:02Z</time>
      </trkpt>
      <trkpt lat="42.60834" lon="1.67566">
        <ele>2242.487</ele>
        <time>2016-05-07T12:36:22Z</time>
      </trkpt>
      <trkpt lat="42.60838" lon="1.67541">
        <ele>2242.975</ele>
        <time>2016-05-07T12:36:42Z</time>
      </trkpt>
      <trkpt lat="42.60841" lon="1.67522">
        <ele>2242.953</ele>
        <time>2016-05-07T12:37:02Z</time>
      </trkpt>
      <trkpt lat="42.60843" lon="1.67512">
        <ele>2242.921</ele>
        <time>2016-05-07T12:37:22Z</time>
      </trkpt>
      <trkpt lat="42.60846" lon="1.67505">
        <ele>2243.572</ele>
        <time>2016-05-07T12:37:42Z</time>
      </trkpt>
      <trkpt lat="42.60851" lon="1.67487">
        <ele>2244.04</ele>
        <time>2016-05-07T12:38:02Z</time>
      </trkpt>
      <trkpt lat="42.60854" lon="1.67474">
        <ele>2244.368</ele>
        <time>2016-05-07T12:38:22Z</time>
      </trkpt>
      <trkpt lat="42.60857" lon="1.67452">
        <ele>2244.699</ele>
        <time>2016-05-07T12:38:42Z</time>
      </trkpt>
      <trkpt lat="42.60859" lon="1.67441">
        <ele>2244.607</ele>
        <time>2016-05-07T12:39:02Z</time>
      </trkpt>
      <trkpt lat="42.60861" lon="1.67424">
        <ele>2245.027</ele>
        <time>2016-05-07T12:39:22Z</time>
      </trkpt>
      <trkpt lat="42.60865" lon="1.67413">
        <ele>2245.908</ele>
        <time>2016-05-07T12:39:42Z</time>
      </trkpt>
      <trkpt lat="42.60876" lon="1.67403">
        <ele>2247.92</ele>
        <time>2016-05-07T12:40:02Z</time>
      </trkpt>
      <trkpt lat="42.60882" lon="1.67389">
        <ele>2248.542</ele>
        <time>2016-05-07T12:40:22Z</time>
      </trkpt>
      <trkpt lat="42.60886" lon="1.67378">
        <ele>2248.57</ele>
        <time>2016-05-07T12:40:42Z</time>
      </trkpt>
      <trkpt lat="42.60887" lon="1.67374">
        <ele>2248.528</ele>
        <time>2016-05-07T12:41:02Z</time>
      </trkpt>
      <trkpt lat="42.6089" lon="1.67365">
        <ele>2248.786</ele>
        <time>2016-05-07T12:41:22Z</time>
      </trkpt>
      <trkpt lat="42.60893" lon="1.67366">
        <ele>2250.377</ele>
        <time>2016-05-07T12:41:42Z</time>
      </trkpt>
      <trkpt lat="42.60898" lon="1.67367">
        <ele>2252.365</ele>
        <time>2016-05-07T12:42:02Z</time>
      </trkpt>
      <trkpt lat="42.60904" lon="1.67365">
        <ele>2254.623</ele>
        <time>2016-05-07T12:42:22Z</time>
      </trkpt>
      <trkpt lat="42.60907" lon="1.6736">
        <ele>2255.964</ele>
        <time>2016-05-07T12:42:42Z</time>
      </trkpt>
      <trkpt lat="42.60916" lon="1.67354">
        <ele>2259.206</ele>
        <time>2016-05-07T12:43:02Z</time>
      </trkpt>
      <trkpt lat="42.60924" lon="1.67349">
        <ele>2262.016</ele>
        <time>2016-05-07T12:43:22Z</time>
      </trkpt>
      <trkpt lat="42.60932" lon="1.67344">
        <ele>2264.508</ele>
        <time>2016-05-07T12:43:42Z</time>
      </trkpt>
      <trkpt lat="42.60943" lon="1.6734">
        <ele>2267.337</ele>
        <time>2016-05-07T12:44:02Z</time>
      </trkpt>
      <trkpt lat="42.60949" lon="1.67338">
        <ele>2268.799</ele>
        <time>2016-05-07T12:44:22Z</time>
      </trkpt>
      <trkpt lat="42.60953" lon="1.67335">
        <ele>2269.437</ele>
        <time>2016-05-07T12:44:42Z</time>
      </trkpt>
      <trkpt lat="42.60961" lon="1.67328">
        <ele>2270.885</ele>
        <time>2016-05-07T12:45:02Z</time>
      </trkpt>
      <trkpt lat="42.60968" lon="1.67322">
        <ele>2272.023</ele>
        <time>2016-05-07T12:45:22Z</time>
      </trkpt>
      <trkpt lat="42.60971" lon="1.67319">
        <ele>2272.724</ele>
        <time>2016-05-07T12:45:42Z</time>
      </trkpt>
      <trkpt lat="42.60976" lon="1.67315">
        <ele>2273.292</ele>
        <time>2016-05-07T12:46:02Z</time>
      </trkpt>
      <trkpt lat="42.60994" lon="1.67302">
        <ele>2274.84</ele>
        <time>2016-05-07T12:46:22Z</time>
      </trkpt>
      <trkpt lat="42.60997" lon="1.67299">
        <ele>2275.125</ele>
        <time>2016-05-07T12:46:42Z</time>
      </trkpt>
      <trkpt lat="42.61003" lon="1.67296">
        <ele>2275.826</ele>
        <time>2016-05-07T12:47:02Z</time>
      </trkpt>
      <trkpt lat="42.61008" lon="1.67293">
        <ele>2276.408</ele>
        <time>2016-05-07T12:47:22Z</time>
      </trkpt>
      <trkpt lat="42.61015" lon="1.67288">
        <ele>2277.308</ele>
        <time>2016-05-07T12:47:42Z</time>
      </trkpt>
      <trkpt lat="42.6102" lon="1.67285">
        <ele>2278.063</ele>
        <time>2016-05-07T12:48:02Z</time>
      </trkpt>
      <trkpt lat="42.61025" lon="1.67279">
        <ele>2278.675</ele>
        <time>2016-05-07T12:48:22Z</time>
      </trkpt>
      <trkpt lat="42.61031" lon="1.67276">
        <ele>2279.613</ele>
        <time>2016-05-07T12:48:42Z</time>
      </trkpt>
      <trkpt lat="42.61035" lon="1.67275">
        <ele>2280.371</ele>
        <time>2016-05-07T12:49:02Z</time>
      </trkpt>
      <trkpt lat="42.61043" lon="1.67266">
        <ele>2281.589</ele>
        <time>2016-05-07T12:49:22Z</time>
      </trkpt>
      <trkpt lat="42.6105" lon="1.67259">
        <ele>2282.54</ele>
        <time>2016-05-07T12:49:42Z</time>
      </trkpt>
      <trkpt lat="42.61057" lon="1.67254">
        <ele>2283.378</ele>
        <time>2016-05-07T12:50:02Z</time>
      </trkpt>
      <trkpt lat="42.61068" lon="1.6725">
        <ele>2285.346</ele>
        <time>2016-05-07T12:50:22Z</time>
      </trkpt>
      <trkpt lat="42.61083" lon="1.67245">
        <ele>2287.381</ele>
        <time>2016-05-07T12:50:42Z</time>
      </trkpt>
      <trkpt lat="42.61096" lon="1.6724">
        <ele>2288.561</ele>
        <time>2016-05-07T12:51:02Z</time>
      </trkpt>
      <trkpt lat="42.61118" lon="1.67236">
        <ele>2290.617</ele>
        <time>2016-05-07T12:51:22Z</time>
      </trkpt>
      <trkpt lat="42.61134" lon="1.67227">
        <ele>2291.108</ele>
        <time>2016-05-07T12:51:42Z</time>
      </trkpt>
      <trkpt lat="42.61147" lon="1.67218">
        <ele>2291.499</ele>
        <time>2016-05-07T12:52:02Z</time>
      </trkpt>
      <trkpt lat="42.61164" lon="1.67204">
        <ele>2292.141</ele>
        <time>2016-05-07T12:52:22Z</time>
      </trkpt>
      <trkpt lat="42.61168" lon="1.67203">
        <ele>2292.539</ele>
        <time>2016-05-07T12:52:42Z</time>
      </trkpt>
      <trkpt lat="42.61173" lon="1.67178">
        <ele>2292.387</ele>
        <time>2016-05-07T12:53:02Z</time>
      </trkpt>
      <trkpt lat="42.61175" lon="1.67169">
        <ele>2292.265</ele>
        <time>2016-05-07T12:53:22Z</time>
      </trkpt>
      <trkpt lat="42.61179" lon="1.67162">
        <ele>2292.336</ele>
        <time>2016-05-07T12:53:42Z</time>
      </trkpt>
      <trkpt lat="42.61183" lon="1.67155">
        <ele>2292.314</ele>
        <time>2016-05-07T12:54:02Z</time>
      </trkpt>
      <trkpt lat="42.61179" lon="1.67152">
        <ele>2291.512</ele>
        <time>2016-05-07T12:54:22Z</time>
      </trkpt>
      <trkpt lat="42.61187" lon="1.67131">
        <ele>2290.828</ele>
        <time>2016-05-07T12:54:42Z</time>
      </trkpt>
      <trkpt lat="42.61191" lon="1.67125">
        <ele>2290.789</ele>
        <time>2016-05-07T12:55:02Z</time>
      </trkpt>
      <trkpt lat="42.61196" lon="1.67111">
        <ele>2290.117</ele>
        <time>2016-05-07T12:55:22Z</time>
      </trkpt>
      <trkpt lat="42.61199" lon="1.67103">
        <ele>2290.708</ele>
        <time>2016-05-07T12:55:42Z</time>
      </trkpt>
      <trkpt lat="42.61202" lon="1.67086">
        <ele>2291.913</ele>
        <time>2016-05-07T12:56:02Z</time>
      </trkpt>
      <trkpt lat="42.61181" lon="1.67078">
        <ele>2292.995</ele>
        <time>2016-05-07T12:56:22Z</time>
      </trkpt>
      <trkpt lat="42.61171" lon="1.67063">
        <ele>2296.153</ele>
        <time>2016-05-07T12:56:42Z</time>
      </trkpt>
      <trkpt lat="42.6117" lon="1.67042">
        <ele>2302.871</ele>
        <time>2016-05-07T12:57:02Z</time>
      </trkpt>
      <trkpt lat="42.61162" lon="1.67022">
        <ele>2312.099</ele>
        <time>2016-05-07T12:57:22Z</time>
      </trkpt>
      <trkpt lat="42.61155" lon="1.67014">
        <ele>2316.68</ele>
        <time>2016-05-07T12:57:42Z</time>
      </trkpt>
      <trkpt lat="42.61135" lon="1.6701">
        <ele>2322.178</ele>
        <time>2016-05-07T12:58:02Z</time>
      </trkpt>
      <trkpt lat="42.61126" lon="1.67009">
        <ele>2324.496</ele>
        <time>2016-05-07T12:58:22Z</time>
      </trkpt>
      <trkpt lat="42.61109" lon="1.66978">
        <ele>2343.458</ele>
        <time>2016-05-07T12:58:42Z</time>
      </trkpt>
      <trkpt lat="42.61081" lon="1.66968">
        <ele>2354.152</ele>
        <time>2016-05-07T12:59:02Z</time>
      </trkpt>
      <trkpt lat="42.61058" lon="1.66961">
        <ele>2361.417</ele>
        <time>2016-05-07T12:59:22Z</time>
      </trkpt>
      <trkpt lat="42.61051" lon="1.66957">
        <ele>2364.708</ele>
        <time>2016-05-07T12:59:42Z</time>
      </trkpt>
      <trkpt lat="42.61048" lon="1.66955">
        <ele>2366.186</ele>
        <time>2016-05-07T13:00:02Z</time>
      </trkpt>
      <trkpt lat="42.61037" lon="1.66952">
        <ele>2368.888</ele>
        <time>2016-05-07T13:00:22Z</time>
      </trkpt>
      <trkpt lat="42.61026" lon="1.66947">
        <ele>2373.916</ele>
        <time>2016-05-07T13:00:42Z</time>
      </trkpt>
      <trkpt lat="42.61019" lon="1.66943">
        <ele>2377.784</ele>
        <time>2016-05-07T13:01:02Z</time>
      </trkpt>
      <trkpt lat="42.61014" lon="1.66938">
        <ele>2382.342</ele>
        <time>2016-05-07T13:01:22Z</time>
      </trkpt>
      <trkpt lat="42.61011" lon="1.66935">
        <ele>2384.583</ele>
        <time>2016-05-07T13:01:42Z</time>
      </trkpt>
      <trkpt lat="42.61007" lon="1.66933">
        <ele>2386.861</ele>
        <time>2016-05-07T13:02:02Z</time>
      </trkpt>
      <trkpt lat="42.61006" lon="1.66931">
        <ele>2388.299</ele>
        <time>2016-05-07T13:02:22Z</time>
      </trkpt>
      <trkpt lat="42.61003" lon="1.66929">
        <ele>2390.171</ele>
        <time>2016-05-07T13:02:42Z</time>
      </trkpt>
      <trkpt lat="42.60998" lon="1.66925">
        <ele>2393.541</ele>
        <time>2016-05-07T13:03:02Z</time>
      </trkpt>
      <trkpt lat="42.60995" lon="1.66924">
        <ele>2394.915</ele>
        <time>2016-05-07T13:03:22Z</time>
      </trkpt>
      <trkpt lat="42.60981" lon="1.66923">
        <ele>2397.008</ele>
        <time>2016-05-07T13:03:42Z</time>
      </trkpt>
      <trkpt lat="42.60968" lon="1.66915">
        <ele>2402.238</ele>
        <time>2016-05-07T13:04:02Z</time>
      </trkpt>
      <trkpt lat="42.60953" lon="1.66906">
        <ele>2404.39</ele>
        <time>2016-05-07T13:04:22Z</time>
      </trkpt>
      <trkpt lat="42.60944" lon="1.66899">
        <ele>2406.258</ele>
        <time>2016-05-07T13:04:42Z</time>
      </trkpt>
      <trkpt lat="42.60933" lon="1.66899">
        <ele>2405.656</ele>
        <time>2016-05-07T13:05:02Z</time>
      </trkpt>
      <trkpt lat="42.60931" lon="1.66898">
        <ele>2405.674</ele>
        <time>2016-05-07T13:05:22Z</time>
      </trkpt>
      <trkpt lat="42.60928" lon="1.66897">
        <ele>2406.025</ele>
        <time>2016-05-07T13:05:42Z</time>
      </trkpt>
      <trkpt lat="42.60922" lon="1.66889">
        <ele>2409.383</ele>
        <time>2016-05-07T13:06:02Z</time>
      </trkpt>
      <trkpt lat="42.6092" lon="1.66884">
        <ele>2411.871</ele>
        <time>2016-05-07T13:06:22Z</time>
      </trkpt>
      <trkpt lat="42.60916" lon="1.66878">
        <ele>2414.828</ele>
        <time>2016-05-07T13:06:42Z</time>
      </trkpt>
      <trkpt lat="42.60915" lon="1.66876">
        <ele>2416.289</ele>
        <time>2016-05-07T13:07:02Z</time>
      </trkpt>
      <trkpt lat="42.60914" lon="1.66872">
        <ele>2418.017</ele>
        <time>2016-05-07T13:07:22Z</time>
      </trkpt>
      <trkpt lat="42.60913" lon="1.6687">
        <ele>2419.508</ele>
        <time>2016-05-07T13:07:42Z</time>
      </trkpt>
      <trkpt lat="42.60913" lon="1.66868">
        <ele>2420.573</ele>
        <time>2016-05-07T13:08:02Z</time>
      </trkpt>
      <trkpt lat="42.60911" lon="1.66862">
        <ele>2423.765</ele>
        <time>2016-05-07T13:08:22Z</time>
      </trkpt>
      <trkpt lat="42.60906" lon="1.66862">
        <ele>2423.883</ele>
        <time>2016-05-07T13:08:42Z</time>
      </trkpt>
      <trkpt lat="42.60903" lon="1.66861">
        <ele>2424.431</ele>
        <time>2016-05-07T13:09:02Z</time>
      </trkpt>
      <trkpt lat="42.609" lon="1.66861">
        <ele>2425.079</ele>
        <time>2016-05-07T13:09:22Z</time>
      </trkpt>
      <trkpt lat="42.60897" lon="1.6686">
        <ele>2425.71</ele>
        <time>2016-05-07T13:09:42Z</time>
      </trkpt>
      <trkpt lat="42.60893" lon="1.66858">
        <ele>2426.828</ele>
        <time>2016-05-07T13:10:02Z</time>
      </trkpt>
      <trkpt lat="42.60887" lon="1.66858">
        <ele>2427.386</ele>
        <time>2016-05-07T13:10:22Z</time>
      </trkpt>
      <trkpt lat="42.60883" lon="1.66857">
        <ele>2427.568</ele>
        <time>2016-05-07T13:10:42Z</time>
      </trkpt>
      <trkpt lat="42.60875" lon="1.66857">
        <ele>2427.642</ele>
        <time>2016-05-07T13:11:02Z</time>
      </trkpt>
      <trkpt lat="42.6087" lon="1.66853">
        <ele>2429.726</ele>
        <time>2016-05-07T13:11:22Z</time>
      </trkpt>
      <trkpt lat="42.60864" lon="1.66851">
        <ele>2430.508</ele>
        <time>2016-05-07T13:11:42Z</time>
      </trkpt>
      <trkpt lat="42.60857" lon="1.66849">
        <ele>2430.137</ele>
        <time>2016-05-07T13:12:02Z</time>
      </trkpt>
      <trkpt lat="42.60851" lon="1.66845">
        <ele>2429.889</ele>
        <time>2016-05-07T13:12:22Z</time>
      </trkpt>
      <trkpt lat="42.60844" lon="1.66838">
        <ele>2430.047</ele>
        <time>2016-05-07T13:12:42Z</time>
      </trkpt>
      <trkpt lat="42.60837" lon="1.66827">
        <ele>2431.245</ele>
        <time>2016-05-07T13:13:02Z</time>
      </trkpt>
      <trkpt lat="42.60831" lon="1.66817">
        <ele>2432.023</ele>
        <time>2016-05-07T13:13:22Z</time>
      </trkpt>
      <trkpt lat="42.60822" lon="1.66807">
        <ele>2432.644</ele>
        <time>2016-05-07T13:13:42Z</time>
      </trkpt>
      <trkpt lat="42.60817" lon="1.66803">
        <ele>2433.382</ele>
        <time>2016-05-07T13:14:02Z</time>
      </trkpt>
      <trkpt lat="42.60807" lon="1.668">
        <ele>2431.62</ele>
        <time>2016-05-07T13:14:22Z</time>
      </trkpt>
      <trkpt lat="42.60796" lon="1.66796">
        <ele>2431.637</ele>
        <time>2016-05-07T13:14:42Z</time>
      </trkpt>
      <trkpt lat="42.60789" lon="1.66794">
        <ele>2431.449</ele>
        <time>2016-05-07T13:15:02Z</time>
      </trkpt>
      <trkpt lat="42.60786" lon="1.66792">
        <ele>2431.413</ele>
        <time>2016-05-07T13:15:22Z</time>
      </trkpt>
      <trkpt lat="42.60795" lon="1.66783">
        <ele>2435.808</ele>
        <time>2016-05-07T13:15:42Z</time>
      </trkpt>
      <trkpt lat="42.60803" lon="1.66778">
        <ele>2440.884</ele>
        <time>2016-05-07T13:16:02Z</time>
      </trkpt>
      <trkpt lat="42.60807" lon="1.66773">
        <ele>2442.696</ele>
        <time>2016-05-07T13:16:22Z</time>
      </trkpt>
      <trkpt lat="42.60814" lon="1.66761">
        <ele>2446.264</ele>
        <time>2016-05-07T13:16:42Z</time>
      </trkpt>
      <trkpt lat="42.60817" lon="1.66748">
        <ele>2448.882</ele>
        <time>2016-05-07T13:17:02Z</time>
      </trkpt>
      <trkpt lat="42.60822" lon="1.66736">
        <ele>2451.06</ele>
        <time>2016-05-07T13:17:22Z</time>
      </trkpt>
      <trkpt lat="42.60826" lon="1.66726">
        <ele>2453.051</ele>
        <time>2016-05-07T13:17:42Z</time>
      </trkpt>
      <trkpt lat="42.60831" lon="1.66719">
        <ele>2455.949</ele>
        <time>2016-05-07T13:18:02Z</time>
      </trkpt>
      <trkpt lat="42.60837" lon="1.66709">
        <ele>2459.177</ele>
        <time>2016-05-07T13:18:22Z</time>
      </trkpt>
      <trkpt lat="42.6084" lon="1.66706">
        <ele>2460.313</ele>
        <time>2016-05-07T13:18:42Z</time>
      </trkpt>
      <trkpt lat="42.60842" lon="1.66698">
        <ele>2461.143</ele>
        <time>2016-05-07T13:19:02Z</time>
      </trkpt>
      <trkpt lat="42.60848" lon="1.66686">
        <ele>2464.207</ele>
        <time>2016-05-07T13:19:22Z</time>
      </trkpt>
      <trkpt lat="42.60853" lon="1.66674">
        <ele>2465.708</ele>
        <time>2016-05-07T13:19:42Z</time>
      </trkpt>
      <trkpt lat="42.60862" lon="1.66665">
        <ele>2469.062</ele>
        <time>2016-05-07T13:20:02Z</time>
      </trkpt>
      <trkpt lat="42.60869" lon="1.66656">
        <ele>2471.614</ele>
        <time>2016-05-07T13:20:22Z</time>
      </trkpt>
      <trkpt lat="42.60872" lon="1.6665">
        <ele>2472.312</ele>
        <time>2016-05-07T13:20:42Z</time>
      </trkpt>
      <trkpt lat="42.60874" lon="1.66643">
        <ele>2473.33</ele>
        <time>2016-05-07T13:21:02Z</time>
      </trkpt>
      <trkpt lat="42.60876" lon="1.66637">
        <ele>2474.028</ele>
        <time>2016-05-07T13:21:22Z</time>
      </trkpt>
      <trkpt lat="42.6088" lon="1.66634">
        <ele>2475.729</ele>
        <time>2016-05-07T13:21:42Z</time>
      </trkpt>
      <trkpt lat="42.60882" lon="1.66629">
        <ele>2476.737</ele>
        <time>2016-05-07T13:22:02Z</time>
      </trkpt>
      <trkpt lat="42.60887" lon="1.66617">
        <ele>2478.515</ele>
        <time>2016-05-07T13:22:22Z</time>
      </trkpt>
      <trkpt lat="42.60888" lon="1.66612">
        <ele>2478.626</ele>
        <time>2016-05-07T13:22:42Z</time>
      </trkpt>
      <trkpt lat="42.60889" lon="1.6661">
        <ele>2479.247</ele>
        <time>2016-05-07T13:23:02Z</time>
      </trkpt>
      <trkpt lat="42.60891" lon="1.66601">
        <ele>2479.811</ele>
        <time>2016-05-07T13:23:22Z</time>
      </trkpt>
      <trkpt lat="42.60893" lon="1.66595">
        <ele>2481.108</ele>
        <time>2016-05-07T13:23:42Z</time>
      </trkpt>
      <trkpt lat="42.60895" lon="1.66586">
        <ele>2482.253</ele>
        <time>2016-05-07T13:24:02Z</time>
      </trkpt>
      <trkpt lat="42.60897" lon="1.66582">
        <ele>2483.145</ele>
        <time>2016-05-07T13:24:22Z</time>
      </trkpt>
      <trkpt lat="42.60898" lon="1.66577">
        <ele>2484.163</ele>
        <time>2016-05-07T13:24:42Z</time>
      </trkpt>
      <trkpt lat="42.60899" lon="1.66571">
        <ele>2485.841</ele>
        <time>2016-05-07T13:25:02Z</time>
      </trkpt>
      <trkpt lat="42.60901" lon="1.66565">
        <ele>2487.059</ele>
        <time>2016-05-07T13:25:22Z</time>
      </trkpt>
      <trkpt lat="42.60902" lon="1.66559">
        <ele>2488.08</ele>
        <time>2016-05-07T13:25:42Z</time>
      </trkpt>
      <trkpt lat="42.60902" lon="1.66552">
        <ele>2488.788</ele>
        <time>2016-05-07T13:26:02Z</time>
      </trkpt>
      <trkpt lat="42.60902" lon="1.66545">
        <ele>2489.456</ele>
        <time>2016-05-07T13:26:22Z</time>
      </trkpt>
      <trkpt lat="42.60902" lon="1.66537">
        <ele>2490.487</ele>
        <time>2016-05-07T13:26:42Z</time>
      </trkpt>
      <trkpt lat="42.60902" lon="1.6653">
        <ele>2491.042</ele>
        <time>2016-05-07T13:27:02Z</time>
      </trkpt>
      <trkpt lat="42.60901" lon="1.66523">
        <ele>2491.126</ele>
        <time>2016-05-07T13:27:22Z</time>
      </trkpt>
      <trkpt lat="42.60901" lon="1.66518">
        <ele>2491.908</ele>
        <time>2016-05-07T13:27:42Z</time>
      </trkpt>
      <trkpt lat="42.60907" lon="1.66509">
        <ele>2495.649</ele>
        <time>2016-05-07T13:28:02Z</time>
      </trkpt>
      <trkpt lat="42.60912" lon="1.66499">
        <ele>2498.321</ele>
        <time>2016-05-07T13:28:22Z</time>
      </trkpt>
      <trkpt lat="42.60913" lon="1.66494">
        <ele>2499.029</ele>
        <time>2016-05-07T13:28:42Z</time>
      </trkpt>
      <trkpt lat="42.60919" lon="1.66464">
        <ele>2502.087</ele>
        <time>2016-05-07T13:29:02Z</time>
      </trkpt>
      <trkpt lat="42.60922" lon="1.66457">
        <ele>2503.155</ele>
        <time>2016-05-07T13:29:22Z</time>
      </trkpt>
      <trkpt lat="42.60927" lon="1.66448">
        <ele>2504.856</ele>
        <time>2016-05-07T13:29:42Z</time>
      </trkpt>
      <trkpt lat="42.60928" lon="1.66439">
        <ele>2505.424</ele>
        <time>2016-05-07T13:30:02Z</time>
      </trkpt>
      <trkpt lat="42.60931" lon="1.66428">
        <ele>2506.882</ele>
        <time>2016-05-07T13:30:22Z</time>
      </trkpt>
      <trkpt lat="42.60931" lon="1.66421">
        <ele>2507.112</ele>
        <time>2016-05-07T13:30:42Z</time>
      </trkpt>
      <trkpt lat="42.60933" lon="1.66417">
        <ele>2507.832</ele>
        <time>2016-05-07T13:31:02Z</time>
      </trkpt>
      <trkpt lat="42.60935" lon="1.66407">
        <ele>2509.305</ele>
        <time>2016-05-07T13:31:22Z</time>
      </trkpt>
      <trkpt lat="42.60938" lon="1.66392">
        <ele>2511.508</ele>
        <time>2016-05-07T13:31:42Z</time>
      </trkpt>
      <trkpt lat="42.60938" lon="1.66379">
        <ele>2513.112</ele>
        <time>2016-05-07T13:32:02Z</time>
      </trkpt>
      <trkpt lat="42.60942" lon="1.66368">
        <ele>2516.094</ele>
        <time>2016-05-07T13:32:22Z</time>
      </trkpt>
      <trkpt lat="42.60943" lon="1.66358">
        <ele>2518.372</ele>
        <time>2016-05-07T13:32:42Z</time>
      </trkpt>
      <trkpt lat="42.60945" lon="1.66346">
        <ele>2521.69</ele>
        <time>2016-05-07T13:33:02Z</time>
      </trkpt>
      <trkpt lat="42.60953" lon="1.66337">
        <ele>2525.998</ele>
        <time>2016-05-07T13:33:22Z</time>
      </trkpt>
      <trkpt lat="42.6096" lon="1.66334">
        <ele>2528.929</ele>
        <time>2016-05-07T13:33:42Z</time>
      </trkpt>
      <trkpt lat="42.60967" lon="1.6633">
        <ele>2532.067</ele>
        <time>2016-05-07T13:34:02Z</time>
      </trkpt>
      <trkpt lat="42.60973" lon="1.6633">
        <ele>2534.095</ele>
        <time>2016-05-07T13:34:22Z</time>
      </trkpt>
      <trkpt lat="42.60978" lon="1.66326">
        <ele>2537.194</ele>
        <time>2016-05-07T13:34:42Z</time>
      </trkpt>
      <trkpt lat="42.60981" lon="1.66324">
        <ele>2538.757</ele>
        <time>2016-05-07T13:35:02Z</time>
      </trkpt>
      <trkpt lat="42.60984" lon="1.66322">
        <ele>2540.522</ele>
        <time>2016-05-07T13:35:22Z</time>
      </trkpt>
      <trkpt lat="42.60987" lon="1.66318">
        <ele>2542.808</ele>
        <time>2016-05-07T13:35:42Z</time>
      </trkpt>
      <trkpt lat="42.60989" lon="1.66317">
        <ele>2543.94</ele>
        <time>2016-05-07T13:36:02Z</time>
      </trkpt>
      <trkpt lat="42.60991" lon="1.66316">
        <ele>2544.712</ele>
        <time>2016-05-07T13:36:22Z</time>
      </trkpt>
      <trkpt lat="42.60992" lon="1.66315">
        <ele>2545.67</ele>
        <time>2016-05-07T13:36:42Z</time>
      </trkpt>
      <trkpt lat="42.60994" lon="1.66314">
        <ele>2546.588</ele>
        <time>2016-05-07T13:37:02Z</time>
      </trkpt>
      <trkpt lat="42.60997" lon="1.66312">
        <ele>2548.336</ele>
        <time>2016-05-07T13:37:22Z</time>
      </trkpt>
      <trkpt lat="42.61002" lon="1.6631">
        <ele>2551.027</ele>
        <time>2016-05-07T13:37:42Z</time>
      </trkpt>
      <trkpt lat="42.61006" lon="1.66307">
        <ele>2553.145</ele>
        <time>2016-05-07T13:38:02Z</time>
      </trkpt>
      <trkpt lat="42.61012" lon="1.66305">
        <ele>2556.593</ele>
        <time>2016-05-07T13:38:22Z</time>
      </trkpt>
      <trkpt lat="42.61015" lon="1.66304">
        <ele>2558.842</ele>
        <time>2016-05-07T13:38:42Z</time>
      </trkpt>
      <trkpt lat="42.6102" lon="1.66304">
        <ele>2561.322</ele>
        <time>2016-05-07T13:39:02Z</time>
      </trkpt>
      <trkpt lat="42.61024" lon="1.66304">
        <ele>2563.314</ele>
        <time>2016-05-07T13:39:22Z</time>
      </trkpt>
      <trkpt lat="42.61025" lon="1.66304">
        <ele>2564.208</ele>
        <time>2016-05-07T13:39:42Z</time>
      </trkpt>
      <trkpt lat="42.61028" lon="1.66304">
        <ele>2565.845</ele>
        <time>2016-05-07T13:40:02Z</time>
      </trkpt>
      <trkpt lat="42.61034" lon="1.66302">
        <ele>2569.587</ele>
        <time>2016-05-07T13:40:22Z</time>
      </trkpt>
      <trkpt lat="42.61035" lon="1.663">
        <ele>2570.935</ele>
        <time>2016-05-07T13:40:42Z</time>
      </trkpt>
      <trkpt lat="42.61037" lon="1.66298">
        <ele>2572.623</ele>
        <time>2016-05-07T13:41:02Z</time>
      </trkpt>
      <trkpt lat="42.61038" lon="1.66296">
        <ele>2574.051</ele>
        <time>2016-05-07T13:41:22Z</time>
      </trkpt>
      <trkpt lat="42.61042" lon="1.66294">
        <ele>2576.962</ele>
        <time>2016-05-07T13:41:42Z</time>
      </trkpt>
      <trkpt lat="42.61047" lon="1.66295">
        <ele>2579.78</ele>
        <time>2016-05-07T13:42:02Z</time>
      </trkpt>
      <trkpt lat="42.61051" lon="1.66296">
        <ele>2581.648</ele>
        <time>2016-05-07T13:42:22Z</time>
      </trkpt>
      <trkpt lat="42.61056" lon="1.66297">
        <ele>2584.629</ele>
        <time>2016-05-07T13:42:42Z</time>
      </trkpt>
      <trkpt lat="42.61059" lon="1.66296">
        <ele>2586.2</ele>
        <time>2016-05-07T13:43:02Z</time>
      </trkpt>
      <trkpt lat="42.61062" lon="1.66296">
        <ele>2588.02</ele>
        <time>2016-05-07T13:43:22Z</time>
      </trkpt>
      <trkpt lat="42.61064" lon="1.66297">
        <ele>2589.108</ele>
        <time>2016-05-07T13:43:42Z</time>
      </trkpt>
      <trkpt lat="42.61066" lon="1.66296">
        <ele>2590.643</ele>
        <time>2016-05-07T13:44:02Z</time>
      </trkpt>
      <trkpt lat="42.61068" lon="1.66296">
        <ele>2591.665</ele>
        <time>2016-05-07T13:44:22Z</time>
      </trkpt>
      <trkpt lat="42.61069" lon="1.66296">
        <ele>2592.243</ele>
        <time>2016-05-07T13:44:42Z</time>
      </trkpt>
      <trkpt lat="42.61071" lon="1.66296">
        <ele>2593.621</ele>
        <time>2016-05-07T13:45:02Z</time>
      </trkpt>
      <trkpt lat="42.61074" lon="1.66293">
        <ele>2596.079</ele>
        <time>2016-05-07T13:45:22Z</time>
      </trkpt>
      <trkpt lat="42.61078" lon="1.66289">
        <ele>2598.84</ele>
        <time>2016-05-07T13:45:42Z</time>
      </trkpt>
      <trkpt lat="42.61084" lon="1.66283">
        <ele>2603.528</ele>
        <time>2016-05-07T13:46:02Z</time>
      </trkpt>
      <trkpt lat="42.61093" lon="1.66283">
        <ele>2608.196</ele>
        <time>2016-05-07T13:46:22Z</time>
      </trkpt>
      <trkpt lat="42.61097" lon="1.66283">
        <ele>2610.784</ele>
        <time>2016-05-07T13:46:42Z</time>
      </trkpt>
      <trkpt lat="42.61103" lon="1.66282">
        <ele>2613.807</ele>
        <time>2016-05-07T13:47:02Z</time>
      </trkpt>
      <trkpt lat="42.61108" lon="1.66281">
        <ele>2616.917</ele>
        <time>2016-05-07T13:47:22Z</time>
      </trkpt>
      <trkpt lat="42.61111" lon="1.6627">
        <ele>2621.108</ele>
        <time>2016-05-07T13:47:42Z</time>
      </trkpt>
      <trkpt lat="42.61112" lon="1.66265">
        <ele>2623.219</ele>
        <time>2016-05-07T13:48:02Z</time>
      </trkpt>
      <trkpt lat="42.61113" lon="1.6626">
        <ele>2625.561</ele>
        <time>2016-05-07T13:48:22Z</time>
      </trkpt>
      <trkpt lat="42.6112" lon="1.66254">
        <ele>2631.269</ele>
        <time>2016-05-07T13:48:42Z</time>
      </trkpt>
      <trkpt lat="42.61129" lon="1.66258">
        <ele>2635.177</ele>
        <time>2016-05-07T13:49:02Z</time>
      </trkpt>
      <trkpt lat="42.61135" lon="1.66258">
        <ele>2638.955</ele>
        <time>2016-05-07T13:49:22Z</time>
      </trkpt>
      <trkpt lat="42.61144" lon="1.66258">
        <ele>2643.026</ele>
        <time>2016-05-07T13:49:42Z</time>
      </trkpt>
      <trkpt lat="42.61159" lon="1.66253">
        <ele>2648.834</ele>
        <time>2016-05-07T13:50:02Z</time>
      </trkpt>
      <trkpt lat="42.61164" lon="1.66243">
        <ele>2649.582</ele>
        <time>2016-05-07T13:50:22Z</time>
      </trkpt>
      <trkpt lat="42.61165" lon="1.66242">
        <ele>2649.515</ele>
        <time>2016-05-07T13:50:42Z</time>
      </trkpt>
      <trkpt lat="42.61168" lon="1.66236">
        <ele>2648.865</ele>
        <time>2016-05-07T13:51:02Z</time>
      </trkpt>
      <trkpt lat="42.61167" lon="1.66232">
        <ele>2648.411</ele>
        <time>2016-05-07T13:51:22Z</time>
      </trkpt>
      <trkpt lat="42.61169" lon="1.66228">
        <ele>2647.608</ele>
        <time>2016-05-07T13:51:42Z</time>
      </trkpt>
      <trkpt lat="42.61173" lon="1.66216">
        <ele>2643.912</ele>
        <time>2016-05-07T13:52:02Z</time>
      </trkpt>
      <trkpt lat="42.61176" lon="1.66201">
        <ele>2638.034</ele>
        <time>2016-05-07T13:52:22Z</time>
      </trkpt>
      <trkpt lat="42.61185" lon="1.662">
        <ele>2636.482</ele>
        <time>2016-05-07T13:52:42Z</time>
      </trkpt>
      <trkpt lat="42.61192" lon="1.66195">
        <ele>2633.61</ele>
        <time>2016-05-07T13:53:02Z</time>
      </trkpt>
      <trkpt lat="42.61198" lon="1.66196">
        <ele>2632.598</ele>
        <time>2016-05-07T13:53:22Z</time>
      </trkpt>
      <trkpt lat="42.61215" lon="1.66192">
        <ele>2627.659</ele>
        <time>2016-05-07T13:53:42Z</time>
      </trkpt>
      <trkpt lat="42.61216" lon="1.66191">
        <ele>2626.727</ele>
        <time>2016-05-07T13:54:02Z</time>
      </trkpt>
      <trkpt lat="42.61231" lon="1.6619">
        <ele>2623.365</ele>
        <time>2016-05-07T13:54:22Z</time>
      </trkpt>
      <trkpt lat="42.6124" lon="1.6619">
        <ele>2621.146</ele>
        <time>2016-05-07T13:54:42Z</time>
      </trkpt>
      <trkpt lat="42.61253" lon="1.66188">
        <ele>2618.088</ele>
        <time>2016-05-07T13:55:02Z</time>
      </trkpt>
      <trkpt lat="42.61257" lon="1.66184">
        <ele>2615.816</ele>
        <time>2016-05-07T13:55:22Z</time>
      </trkpt>
      <trkpt lat="42.61263" lon="1.66184">
        <ele>2615.308</ele>
        <time>2016-05-07T13:55:42Z</time>
      </trkpt>
      <trkpt lat="42.61271" lon="1.66176">
        <ele>2611.255</ele>
        <time>2016-05-07T13:56:02Z</time>
      </trkpt>
      <trkpt lat="42.61271" lon="1.66172">
        <ele>2609.677</ele>
        <time>2016-05-07T13:56:22Z</time>
      </trkpt>
      <trkpt lat="42.61285" lon="1.66163">
        <ele>2604.795</ele>
        <time>2016-05-07T13:56:42Z</time>
      </trkpt>
      <trkpt lat="42.61291" lon="1.66157">
        <ele>2601.543</ele>
        <time>2016-05-07T13:57:02Z</time>
      </trkpt>
      <trkpt lat="42.61298" lon="1.66154">
        <ele>2599.851</ele>
        <time>2016-05-07T13:57:22Z</time>
      </trkpt>
      <trkpt lat="42.61314" lon="1.6614">
        <ele>2592.992</ele>
        <time>2016-05-07T13:57:42Z</time>
      </trkpt>
      <trkpt lat="42.6132" lon="1.66138">
        <ele>2592.15</ele>
        <time>2016-05-07T13:58:02Z</time>
      </trkpt>
      <trkpt lat="42.61344" lon="1.66109">
        <ele>2576.878</ele>
        <time>2016-05-07T13:58:22Z</time>
      </trkpt>
      <trkpt lat="42.61349" lon="1.66104">
        <ele>2574.153</ele>
        <time>2016-05-07T13:58:42Z</time>
      </trkpt>
      <trkpt lat="42.61354" lon="1.66099">
        <ele>2570.504</ele>
        <time>2016-05-07T13:59:02Z</time>
      </trkpt>
      <trkpt lat="42.61375" lon="1.66094">
        <ele>2565.814</ele>
        <time>2016-05-07T13:59:22Z</time>
      </trkpt>
      <trkpt lat="42.61384" lon="1.66085">
        <ele>2559.908</ele>
        <time>2016-05-07T13:59:42Z</time>
      </trkpt>
      <trkpt lat="42.61394" lon="1.66073">
        <ele>2554.596</ele>
        <time>2016-05-07T14:00:02Z</time>
      </trkpt>
      <trkpt lat="42.61401" lon="1.66064">
        <ele>2551.198</ele>
        <time>2016-05-07T14:00:22Z</time>
      </trkpt>
      <trkpt lat="42.61414" lon="1.66042">
        <ele>2541.836</ele>
        <time>2016-05-07T14:00:42Z</time>
      </trkpt>
      <trkpt lat="42.61426" lon="1.66018">
        <ele>2531.434</ele>
        <time>2016-05-07T14:01:02Z</time>
      </trkpt>
      <trkpt lat="42.61441" lon="1.66001">
        <ele>2523.612</ele>
        <time>2016-05-07T14:01:22Z</time>
      </trkpt>
      <trkpt lat="42.61452" lon="1.65991">
        <ele>2519.043</ele>
        <time>2016-05-07T14:01:42Z</time>
      </trkpt>
      <trkpt lat="42.61455" lon="1.65987">
        <ele>2516.431</ele>
        <time>2016-05-07T14:02:02Z</time>
      </trkpt>
      <trkpt lat="42.61454" lon="1.6598">
        <ele>2512.049</ele>
        <time>2016-05-07T14:02:22Z</time>
      </trkpt>
      <trkpt lat="42.61464" lon="1.65974">
        <ele>2508.649</ele>
        <time>2016-05-07T14:02:42Z</time>
      </trkpt>
      <trkpt lat="42.61469" lon="1.65967">
        <ele>2504.702</ele>
        <time>2016-05-07T14:03:02Z</time>
      </trkpt>
      <trkpt lat="42.61472" lon="1.6596">
        <ele>2500.522</ele>
        <time>2016-05-07T14:03:22Z</time>
      </trkpt>
      <trkpt lat="42.61487" lon="1.65954">
        <ele>2496.808</ele>
        <time>2016-05-07T14:03:42Z</time>
      </trkpt>
      <trkpt lat="42.61493" lon="1.65949">
        <ele>2493.875</ele>
        <time>2016-05-07T14:04:02Z</time>
      </trkpt>
      <trkpt lat="42.61498" lon="1.65934">
        <ele>2487.097</ele>
        <time>2016-05-07T14:04:22Z</time>
      </trkpt>
      <trkpt lat="42.61503" lon="1.65919">
        <ele>2481.825</ele>
        <time>2016-05-07T14:04:42Z</time>
      </trkpt>
      <trkpt lat="42.61504" lon="1.65909">
        <ele>2479.943</ele>
        <time>2016-05-07T14:05:02Z</time>
      </trkpt>
      <trkpt lat="42.61501" lon="1.65899">
        <ele>2478.461</ele>
        <time>2016-05-07T14:05:22Z</time>
      </trkpt>
      <trkpt lat="42.61508" lon="1.65893">
        <ele>2477.392</ele>
        <time>2016-05-07T14:05:42Z</time>
      </trkpt>
      <trkpt lat="42.61511" lon="1.65882">
        <ele>2476.19</ele>
        <time>2016-05-07T14:06:02Z</time>
      </trkpt>
      <trkpt lat="42.61509" lon="1.65872">
        <ele>2475.578</ele>
        <time>2016-05-07T14:06:22Z</time>
      </trkpt>
      <trkpt lat="42.61499" lon="1.65858">
        <ele>2474.585</ele>
        <time>2016-05-07T14:06:42Z</time>
      </trkpt>
      <trkpt lat="42.61498" lon="1.65835">
        <ele>2472.789</ele>
        <time>2016-05-07T14:07:02Z</time>
      </trkpt>
      <trkpt lat="42.61505" lon="1.65822">
        <ele>2472.717</ele>
        <time>2016-05-07T14:07:22Z</time>
      </trkpt>
      <trkpt lat="42.61517" lon="1.65801">
        <ele>2471.508</ele>
        <time>2016-05-07T14:07:42Z</time>
      </trkpt>
      <trkpt lat="42.61526" lon="1.65787">
        <ele>2468.969</ele>
        <time>2016-05-07T14:08:02Z</time>
      </trkpt>
      <trkpt lat="42.61536" lon="1.65785">
        <ele>2467.691</ele>
        <time>2016-05-07T14:08:22Z</time>
      </trkpt>
      <trkpt lat="42.61546" lon="1.65764">
        <ele>2460.799</ele>
        <time>2016-05-07T14:08:42Z</time>
      </trkpt>
      <trkpt lat="42.6155" lon="1.65748">
        <ele>2455.327</ele>
        <time>2016-05-07T14:09:02Z</time>
      </trkpt>
      <trkpt lat="42.61556" lon="1.65743">
        <ele>2454.265</ele>
        <time>2016-05-07T14:09:22Z</time>
      </trkpt>
      <trkpt lat="42.61555" lon="1.65736">
        <ele>2453.086</ele>
        <time>2016-05-07T14:09:42Z</time>
      </trkpt>
      <trkpt lat="42.61562" lon="1.65726">
        <ele>2453.474</ele>
        <time>2016-05-07T14:10:02Z</time>
      </trkpt>
      <trkpt lat="42.61562" lon="1.65718">
        <ele>2452.072</ele>
        <time>2016-05-07T14:10:22Z</time>
      </trkpt>
      <trkpt lat="42.61564" lon="1.6571">
        <ele>2451.295</ele>
        <time>2016-05-07T14:10:42Z</time>
      </trkpt>
      <trkpt lat="42.61568" lon="1.65707">
        <ele>2451.749</ele>
        <time>2016-05-07T14:11:02Z</time>
      </trkpt>
      <trkpt lat="42.61567" lon="1.65702">
        <ele>2450.423</ele>
        <time>2016-05-07T14:11:22Z</time>
      </trkpt>
      <trkpt lat="42.61565" lon="1.65696">
        <ele>2448.608</ele>
        <time>2016-05-07T14:11:42Z</time>
      </trkpt>
      <trkpt lat="42.61568" lon="1.65692">
        <ele>2448.34</ele>
        <time>2016-05-07T14:12:02Z</time>
      </trkpt>
      <trkpt lat="42.61562" lon="1.65686">
        <ele>2445.122</ele>
        <time>2016-05-07T14:12:22Z</time>
      </trkpt>
      <trkpt lat="42.61562" lon="1.65679">
        <ele>2443.07</ele>
        <time>2016-05-07T14:12:42Z</time>
      </trkpt>
      <trkpt lat="42.6156" lon="1.65674">
        <ele>2441.068</ele>
        <time>2016-05-07T14:13:02Z</time>
      </trkpt>
      <trkpt lat="42.61565" lon="1.65669">
        <ele>2440.726</ele>
        <time>2016-05-07T14:13:22Z</time>
      </trkpt>
      <trkpt lat="42.6156" lon="1.65662">
        <ele>2437.597</ele>
        <time>2016-05-07T14:13:42Z</time>
      </trkpt>
      <trkpt lat="42.61564" lon="1.65658">
        <ele>2437.215</ele>
        <time>2016-05-07T14:14:02Z</time>
      </trkpt>
      <trkpt lat="42.61563" lon="1.65651">
        <ele>2435.063</ele>
        <time>2016-05-07T14:14:22Z</time>
      </trkpt>
      <trkpt lat="42.61557" lon="1.65645">
        <ele>2432.085</ele>
        <time>2016-05-07T14:14:42Z</time>
      </trkpt>
      <trkpt lat="42.61554" lon="1.65625">
        <ele>2426.189</ele>
        <time>2016-05-07T14:15:02Z</time>
      </trkpt>
      <trkpt lat="42.61547" lon="1.65606">
        <ele>2421.017</ele>
        <time>2016-05-07T14:15:22Z</time>
      </trkpt>
      <trkpt lat="42.61546" lon="1.65594">
        <ele>2417.308</ele>
        <time>2016-05-07T14:15:42Z</time>
      </trkpt>
      <trkpt lat="42.61551" lon="1.65585">
        <ele>2413.869</ele>
        <time>2016-05-07T14:16:02Z</time>
      </trkpt>
      <trkpt lat="42.61551" lon="1.65576">
        <ele>2412.291</ele>
        <time>2016-05-07T14:16:22Z</time>
      </trkpt>
      <trkpt lat="42.6155" lon="1.65564">
        <ele>2410.329</ele>
        <time>2016-05-07T14:16:42Z</time>
      </trkpt>
      <trkpt lat="42.61547" lon="1.65555">
        <ele>2408.967</ele>
        <time>2016-05-07T14:17:02Z</time>
      </trkpt>
      <trkpt lat="42.61539" lon="1.65536">
        <ele>2406.715</ele>
        <time>2016-05-07T14:17:22Z</time>
      </trkpt>
      <trkpt lat="42.61539" lon="1.65524">
        <ele>2405.536</ele>
        <time>2016-05-07T14:17:42Z</time>
      </trkpt>
      <trkpt lat="42.61545" lon="1.65506">
        <ele>2404.874</ele>
        <time>2016-05-07T14:18:02Z</time>
      </trkpt>
      <trkpt lat="42.61547" lon="1.65495">
        <ele>2404.592</ele>
        <time>2016-05-07T14:18:22Z</time>
      </trkpt>
      <trkpt lat="42.61543" lon="1.65464">
        <ele>2402.448</ele>
        <time>2016-05-07T14:18:42Z</time>
      </trkpt>
      <trkpt lat="42.61539" lon="1.65449">
        <ele>2402.661</ele>
        <time>2016-05-07T14:19:02Z</time>
      </trkpt>
      <trkpt lat="42.6153" lon="1.65431">
        <ele>2404.417</ele>
        <time>2016-05-07T14:19:22Z</time>
      </trkpt>
      <trkpt lat="42.61519" lon="1.65414">
        <ele>2404.308</ele>
        <time>2016-05-07T14:19:42Z</time>
      </trkpt>
      <trkpt lat="42.61517" lon="1.65399">
        <ele>2402.485</ele>
        <time>2016-05-07T14:20:02Z</time>
      </trkpt>
      <trkpt lat="42.61519" lon="1.65391">
        <ele>2402.467</ele>
        <time>2016-05-07T14:20:22Z</time>
      </trkpt>
      <trkpt lat="42.61517" lon="1.65392">
        <ele>2402.035</ele>
        <time>2016-05-07T14:20:42Z</time>
      </trkpt>
      <trkpt lat="42.61516" lon="1.6539">
        <ele>2401.633</ele>
        <time>2016-05-07T14:21:02Z</time>
      </trkpt>
      <trkpt lat="42.61521" lon="1.65373">
        <ele>2401.511</ele>
        <time>2016-05-07T14:21:22Z</time>
      </trkpt>
      <trkpt lat="42.61521" lon="1.65363">
        <ele>2400.972</ele>
        <time>2016-05-07T14:21:42Z</time>
      </trkpt>
      <trkpt lat="42.61525" lon="1.65345">
        <ele>2400.61</ele>
        <time>2016-05-07T14:22:02Z</time>
      </trkpt>
      <trkpt lat="42.61525" lon="1.6533">
        <ele>2399.198</ele>
        <time>2016-05-07T14:22:22Z</time>
      </trkpt>
      <trkpt lat="42.61522" lon="1.65317">
        <ele>2396.784</ele>
        <time>2016-05-07T14:22:42Z</time>
      </trkpt>
      <trkpt lat="42.61523" lon="1.65304">
        <ele>2393.907</ele>
        <time>2016-05-07T14:23:02Z</time>
      </trkpt>
      <trkpt lat="42.61522" lon="1.65297">
        <ele>2391.517</ele>
        <time>2016-05-07T14:23:22Z</time>
      </trkpt>
      <trkpt lat="42.6152" lon="1.65291">
        <ele>2389.808</ele>
        <time>2016-05-07T14:23:42Z</time>
      </trkpt>
      <trkpt lat="42.61518" lon="1.6528">
        <ele>2386.399</ele>
        <time>2016-05-07T14:24:02Z</time>
      </trkpt>
      <trkpt lat="42.61518" lon="1.65275">
        <ele>2384.631</ele>
        <time>2016-05-07T14:24:22Z</time>
      </trkpt>
      <trkpt lat="42.61522" lon="1.65269">
        <ele>2382.049</ele>
        <time>2016-05-07T14:24:42Z</time>
      </trkpt>
      <trkpt lat="42.61522" lon="1.65264">
        <ele>2380.757</ele>
        <time>2016-05-07T14:25:02Z</time>
      </trkpt>
      <trkpt lat="42.61517" lon="1.65254">
        <ele>2377.745</ele>
        <time>2016-05-07T14:25:22Z</time>
      </trkpt>
      <trkpt lat="42.61516" lon="1.65246">
        <ele>2374.956</ele>
        <time>2016-05-07T14:25:42Z</time>
      </trkpt>
      <trkpt lat="42.61519" lon="1.65241">
        <ele>2373.164</ele>
        <time>2016-05-07T14:26:02Z</time>
      </trkpt>
      <trkpt lat="42.61517" lon="1.65236">
        <ele>2371.382</ele>
        <time>2016-05-07T14:26:22Z</time>
      </trkpt>
      <trkpt lat="42.61516" lon="1.65228">
        <ele>2368.534</ele>
        <time>2016-05-07T14:26:42Z</time>
      </trkpt>
      <trkpt lat="42.61519" lon="1.65225">
        <ele>2367.755</ele>
        <time>2016-05-07T14:27:02Z</time>
      </trkpt>
      <trkpt lat="42.61523" lon="1.65227">
        <ele>2368.51</ele>
        <time>2016-05-07T14:27:22Z</time>
      </trkpt>
      <trkpt lat="42.61526" lon="1.65219">
        <ele>2365.708</ele>
        <time>2016-05-07T14:27:42Z</time>
      </trkpt>
      <trkpt lat="42.61526" lon="1.65213">
        <ele>2363.184</ele>
        <time>2016-05-07T14:28:02Z</time>
      </trkpt>
      <trkpt lat="42.61526" lon="1.65207">
        <ele>2360.346</ele>
        <time>2016-05-07T14:28:22Z</time>
      </trkpt>
      <trkpt lat="42.61528" lon="1.65204">
        <ele>2359.024</ele>
        <time>2016-05-07T14:28:42Z</time>
      </trkpt>
      <trkpt lat="42.61522" lon="1.65196">
        <ele>2355.522</ele>
        <time>2016-05-07T14:29:02Z</time>
      </trkpt>
      <trkpt lat="42.6152" lon="1.65185">
        <ele>2351.32</ele>
        <time>2016-05-07T14:29:22Z</time>
      </trkpt>
      <trkpt lat="42.61526" lon="1.65172">
        <ele>2346.061</ele>
        <time>2016-05-07T14:29:42Z</time>
      </trkpt>
      <trkpt lat="42.61522" lon="1.65162">
        <ele>2342.169</ele>
        <time>2016-05-07T14:30:02Z</time>
      </trkpt>
      <trkpt lat="42.6152" lon="1.65158">
        <ele>2340.617</ele>
        <time>2016-05-07T14:30:22Z</time>
      </trkpt>
      <trkpt lat="42.61517" lon="1.65154">
        <ele>2339.081</ele>
        <time>2016-05-07T14:30:42Z</time>
      </trkpt>
      <trkpt lat="42.61515" lon="1.65147">
        <ele>2336.061</ele>
        <time>2016-05-07T14:31:02Z</time>
      </trkpt>
      <trkpt lat="42.61513" lon="1.65135">
        <ele>2331.917</ele>
        <time>2016-05-07T14:31:22Z</time>
      </trkpt>
      <trkpt lat="42.61505" lon="1.6512">
        <ele>2327.408</ele>
        <time>2016-05-07T14:31:42Z</time>
      </trkpt>
      <trkpt lat="42.61502" lon="1.65112">
        <ele>2325.359</ele>
        <time>2016-05-07T14:32:02Z</time>
      </trkpt>
      <trkpt lat="42.61506" lon="1.65099">
        <ele>2321.881</ele>
        <time>2016-05-07T14:32:22Z</time>
      </trkpt>
      <trkpt lat="42.61518" lon="1.65098">
        <ele>2321.439</ele>
        <time>2016-05-07T14:32:42Z</time>
      </trkpt>
      <trkpt lat="42.61527" lon="1.65099">
        <ele>2321.537</ele>
        <time>2016-05-07T14:33:02Z</time>
      </trkpt>
      <trkpt lat="42.61528" lon="1.65093">
        <ele>2319.765</ele>
        <time>2016-05-07T14:33:22Z</time>
      </trkpt>
      <trkpt lat="42.61528" lon="1.65089">
        <ele>2318.556</ele>
        <time>2016-05-07T14:33:42Z</time>
      </trkpt>
      <trkpt lat="42.61536" lon="1.65095">
        <ele>2317.744</ele>
        <time>2016-05-07T14:34:02Z</time>
      </trkpt>
      <trkpt lat="42.61547" lon="1.65104">
        <ele>2317.032</ele>
        <time>2016-05-07T14:34:22Z</time>
      </trkpt>
      <trkpt lat="42.6155" lon="1.65107">
        <ele>2317.272</ele>
        <time>2016-05-07T14:34:42Z</time>
      </trkpt>
      <trkpt lat="42.61552" lon="1.65111">
        <ele>2318.013</ele>
        <time>2016-05-07T14:35:02Z</time>
      </trkpt>
      <trkpt lat="42.61559" lon="1.65123">
        <ele>2318.514</ele>
        <time>2016-05-07T14:35:22Z</time>
      </trkpt>
      <trkpt lat="42.61563" lon="1.65122">
        <ele>2316.708</ele>
        <time>2016-05-07T14:35:42Z</time>
      </trkpt>
      <trkpt lat="42.61567" lon="1.65125">
        <ele>2316.048</ele>
        <time>2016-05-07T14:36:02Z</time>
      </trkpt>
      <trkpt lat="42.6157" lon="1.65124">
        <ele>2314.29</ele>
        <time>2016-05-07T14:36:22Z</time>
      </trkpt>
      <trkpt lat="42.61572" lon="1.65119">
        <ele>2312.618</ele>
        <time>2016-05-07T14:36:42Z</time>
      </trkpt>
      <trkpt lat="42.61571" lon="1.65113">
        <ele>2311.346</ele>
        <time>2016-05-07T14:37:02Z</time>
      </trkpt>
      <trkpt lat="42.61578" lon="1.65108">
        <ele>2307.524</ele>
        <time>2016-05-07T14:37:22Z</time>
      </trkpt>
      <trkpt lat="42.61581" lon="1.651">
        <ele>2305.325</ele>
        <time>2016-05-07T14:37:42Z</time>
      </trkpt>
      <trkpt lat="42.6159" lon="1.651">
        <ele>2303.993</ele>
        <time>2016-05-07T14:38:02Z</time>
      </trkpt>
      <trkpt lat="42.61598" lon="1.65086">
        <ele>2301.761</ele>
        <time>2016-05-07T14:38:22Z</time>
      </trkpt>
      <trkpt lat="42.61605" lon="1.65076">
        <ele>2300.961</ele>
        <time>2016-05-07T14:38:42Z</time>
      </trkpt>
      <trkpt lat="42.61607" lon="1.65068">
        <ele>2300.521</ele>
        <time>2016-05-07T14:39:02Z</time>
      </trkpt>
      <trkpt lat="42.61613" lon="1.65067">
        <ele>2300.513</ele>
        <time>2016-05-07T14:39:22Z</time>
      </trkpt>
      <trkpt lat="42.61615" lon="1.65064">
        <ele>2300.708</ele>
        <time>2016-05-07T14:39:42Z</time>
      </trkpt>
      <trkpt lat="42.61617" lon="1.65061">
        <ele>2300.917</ele>
        <time>2016-05-07T14:40:02Z</time>
      </trkpt>
      <trkpt lat="42.6162" lon="1.65058">
        <ele>2301.289</ele>
        <time>2016-05-07T14:40:22Z</time>
      </trkpt>
      <trkpt lat="42.61633" lon="1.65057">
        <ele>2303.127</ele>
        <time>2016-05-07T14:40:42Z</time>
      </trkpt>
      <trkpt lat="42.61637" lon="1.65054">
        <ele>2304.125</ele>
        <time>2016-05-07T14:41:02Z</time>
      </trkpt>
      <trkpt lat="42.61638" lon="1.65052">
        <ele>2304.833</ele>
        <time>2016-05-07T14:41:22Z</time>
      </trkpt>
      <trkpt lat="42.6164" lon="1.6505">
        <ele>2306.034</ele>
        <time>2016-05-07T14:41:42Z</time>
      </trkpt>
      <trkpt lat="42.61636" lon="1.65039">
        <ele>2307.962</ele>
        <time>2016-05-07T14:42:02Z</time>
      </trkpt>
      <trkpt lat="42.61633" lon="1.65029">
        <ele>2309.89</ele>
        <time>2016-05-07T14:42:22Z</time>
      </trkpt>
      <trkpt lat="42.61628" lon="1.65018">
        <ele>2311.681</ele>
        <time>2016-05-07T14:42:42Z</time>
      </trkpt>
      <trkpt lat="42.61628" lon="1.65009">
        <ele>2314.161</ele>
        <time>2016-05-07T14:43:02Z</time>
      </trkpt>
      <trkpt lat="42.61622" lon="1.64998">
        <ele>2315.217</ele>
        <time>2016-05-07T14:43:22Z</time>
      </trkpt>
      <trkpt lat="42.61621" lon="1.64983">
        <ele>2318.208</ele>
        <time>2016-05-07T14:43:42Z</time>
      </trkpt>
      <trkpt lat="42.61618" lon="1.64965">
        <ele>2320.779</ele>
        <time>2016-05-07T14:44:02Z</time>
      </trkpt>
      <trkpt lat="42.61623" lon="1.64941">
        <ele>2324.671</ele>
        <time>2016-05-07T14:44:22Z</time>
      </trkpt>
      <trkpt lat="42.6163" lon="1.64916">
        <ele>2327.229</ele>
        <time>2016-05-07T14:44:42Z</time>
      </trkpt>
      <trkpt lat="42.61637" lon="1.64901">
        <ele>2328.347</ele>
        <time>2016-05-07T14:45:02Z</time>
      </trkpt>
      <trkpt lat="42.61637" lon="1.64886">
        <ele>2327.285</ele>
        <time>2016-05-07T14:45:22Z</time>
      </trkpt>
      <trkpt lat="42.61634" lon="1.64878">
        <ele>2325.796</ele>
        <time>2016-05-07T14:45:42Z</time>
      </trkpt>
      <trkpt lat="42.61633" lon="1.64863">
        <ele>2323.844</ele>
        <time>2016-05-07T14:46:02Z</time>
      </trkpt>
      <trkpt lat="42.61633" lon="1.64836">
        <ele>2319.762</ele>
        <time>2016-05-07T14:46:22Z</time>
      </trkpt>
      <trkpt lat="42.61644" lon="1.64825">
        <ele>2318.964</ele>
        <time>2016-05-07T14:46:42Z</time>
      </trkpt>
      <trkpt lat="42.6165" lon="1.64818">
        <ele>2318.606</ele>
        <time>2016-05-07T14:47:02Z</time>
      </trkpt>
      <trkpt lat="42.61653" lon="1.64809">
        <ele>2317.116</ele>
        <time>2016-05-07T14:47:22Z</time>
      </trkpt>
      <trkpt lat="42.61655" lon="1.64802">
        <ele>2315.808</ele>
        <time>2016-05-07T14:47:42Z</time>
      </trkpt>
      <trkpt lat="42.61659" lon="1.64796">
        <ele>2315.177</ele>
        <time>2016-05-07T14:48:02Z</time>
      </trkpt>
      <trkpt lat="42.61663" lon="1.64786">
        <ele>2313.339</ele>
        <time>2016-05-07T14:48:22Z</time>
      </trkpt>
      <trkpt lat="42.61664" lon="1.64777">
        <ele>2311.317</ele>
        <time>2016-05-07T14:48:42Z</time>
      </trkpt>
      <trkpt lat="42.61667" lon="1.64775">
        <ele>2311.725</ele>
        <time>2016-05-07T14:49:02Z</time>
      </trkpt>
      <trkpt lat="42.61665" lon="1.64769">
        <ele>2310.143</ele>
        <time>2016-05-07T14:49:22Z</time>
      </trkpt>
      <trkpt lat="42.61669" lon="1.64759">
        <ele>2309.444</ele>
        <time>2016-05-07T14:49:42Z</time>
      </trkpt>
      <trkpt lat="42.6167" lon="1.64749">
        <ele>2307.742</ele>
        <time>2016-05-07T14:50:02Z</time>
      </trkpt>
      <trkpt lat="42.61673" lon="1.64739">
        <ele>2306.66</ele>
        <time>2016-05-07T14:50:22Z</time>
      </trkpt>
      <trkpt lat="42.61673" lon="1.64731">
        <ele>2305.167</ele>
        <time>2016-05-07T14:50:42Z</time>
      </trkpt>
      <trkpt lat="42.61676" lon="1.6472">
        <ele>2303.381</ele>
        <time>2016-05-07T14:51:02Z</time>
      </trkpt>
      <trkpt lat="42.61676" lon="1.64711">
        <ele>2300.719</ele>
        <time>2016-05-07T14:51:22Z</time>
      </trkpt>
      <trkpt lat="42.61679" lon="1.647">
        <ele>2298.108</ele>
        <time>2016-05-07T14:51:42Z</time>
      </trkpt>
      <trkpt lat="42.61683" lon="1.64698">
        <ele>2297.747</ele>
        <time>2016-05-07T14:52:02Z</time>
      </trkpt>
      <trkpt lat="42.61682" lon="1.64689">
        <ele>2295.179</ele>
        <time>2016-05-07T14:52:22Z</time>
      </trkpt>
      <trkpt lat="42.61679" lon="1.6468">
        <ele>2292.557</ele>
        <time>2016-05-07T14:52:42Z</time>
      </trkpt>
      <trkpt lat="42.61675" lon="1.64675">
        <ele>2291.395</ele>
        <time>2016-05-07T14:53:02Z</time>
      </trkpt>
      <trkpt lat="42.61673" lon="1.64671">
        <ele>2290.663</ele>
        <time>2016-05-07T14:53:22Z</time>
      </trkpt>
      <trkpt lat="42.61678" lon="1.64667">
        <ele>2289.274</ele>
        <time>2016-05-07T14:53:42Z</time>
      </trkpt>
      <trkpt lat="42.61682" lon="1.6466">
        <ele>2288.042</ele>
        <time>2016-05-07T14:54:02Z</time>
      </trkpt>
      <trkpt lat="42.61686" lon="1.64658">
        <ele>2287.32</ele>
        <time>2016-05-07T14:54:22Z</time>
      </trkpt>
      <trkpt lat="42.6169" lon="1.64652">
        <ele>2285.938</ele>
        <time>2016-05-07T14:54:42Z</time>
      </trkpt>
      <trkpt lat="42.61692" lon="1.64644">
        <ele>2284.57</ele>
        <time>2016-05-07T14:55:02Z</time>
      </trkpt>
      <trkpt lat="42.61697" lon="1.64638">
        <ele>2283.217</ele>
        <time>2016-05-07T14:55:22Z</time>
      </trkpt>
      <trkpt lat="42.61705" lon="1.64622">
        <ele>2281.908</ele>
        <time>2016-05-07T14:55:42Z</time>
      </trkpt>
      <trkpt lat="42.61707" lon="1.64608">
        <ele>2280.034</ele>
        <time>2016-05-07T14:56:02Z</time>
      </trkpt>
      <trkpt lat="42.61711" lon="1.64588">
        <ele>2277.876</ele>
        <time>2016-05-07T14:56:22Z</time>
      </trkpt>
      <trkpt lat="42.61714" lon="1.64576">
        <ele>2276.624</ele>
        <time>2016-05-07T14:56:42Z</time>
      </trkpt>
      <trkpt lat="42.61719" lon="1.64559">
        <ele>2275.142</ele>
        <time>2016-05-07T14:57:02Z</time>
      </trkpt>
      <trkpt lat="42.61717" lon="1.64536">
        <ele>2271.53</ele>
        <time>2016-05-07T14:57:22Z</time>
      </trkpt>
      <trkpt lat="42.61716" lon="1.64523">
        <ele>2269.261</ele>
        <time>2016-05-07T14:57:42Z</time>
      </trkpt>
      <trkpt lat="42.61716" lon="1.64516">
        <ele>2268.119</ele>
        <time>2016-05-07T14:58:02Z</time>
      </trkpt>
      <trkpt lat="42.61718" lon="1.64506">
        <ele>2266.467</ele>
        <time>2016-05-07T14:58:22Z</time>
      </trkpt>
      <trkpt lat="42.61718" lon="1.64491">
        <ele>2263.674</ele>
        <time>2016-05-07T14:58:42Z</time>
      </trkpt>
      <trkpt lat="42.61716" lon="1.64474">
        <ele>2260.156</ele>
        <time>2016-05-07T14:59:02Z</time>
      </trkpt>
      <trkpt lat="42.61716" lon="1.64464">
        <ele>2258.121</ele>
        <time>2016-05-07T14:59:22Z</time>
      </trkpt>
      <trkpt lat="42.61715" lon="1.64455">
        <ele>2256.108</ele>
        <time>2016-05-07T14:59:42Z</time>
      </trkpt>
      <trkpt lat="42.61725" lon="1.6442">
        <ele>2252.028</ele>
        <time>2016-05-07T15:00:02Z</time>
      </trkpt>
      <trkpt lat="42.61728" lon="1.64406">
        <ele>2250.36</ele>
        <time>2016-05-07T15:00:22Z</time>
      </trkpt>
      <trkpt lat="42.6173" lon="1.64398">
        <ele>2249.638</ele>
        <time>2016-05-07T15:00:42Z</time>
      </trkpt>
      <trkpt lat="42.61733" lon="1.64397">
        <ele>2249.856</ele>
        <time>2016-05-07T15:01:02Z</time>
      </trkpt>
      <trkpt lat="42.61736" lon="1.64392">
        <ele>2249.424</ele>
        <time>2016-05-07T15:01:22Z</time>
      </trkpt>
      <trkpt lat="42.61736" lon="1.64387">
        <ele>2248.845</ele>
        <time>2016-05-07T15:01:42Z</time>
      </trkpt>
      <trkpt lat="42.61739" lon="1.64383">
        <ele>2248.663</ele>
        <time>2016-05-07T15:02:02Z</time>
      </trkpt>
      <trkpt lat="42.6174" lon="1.64369">
        <ele>2247.021</ele>
        <time>2016-05-07T15:02:22Z</time>
      </trkpt>
      <trkpt lat="42.61743" lon="1.64353">
        <ele>2245.887</ele>
        <time>2016-05-07T15:02:42Z</time>
      </trkpt>
      <trkpt lat="42.6174" lon="1.64332">
        <ele>2243.342</ele>
        <time>2016-05-07T15:03:02Z</time>
      </trkpt>
      <trkpt lat="42.61739" lon="1.6432">
        <ele>2240.626</ele>
        <time>2016-05-07T15:03:22Z</time>
      </trkpt>
      <trkpt lat="42.61741" lon="1.64316">
        <ele>2239.808</ele>
        <time>2016-05-07T15:03:42Z</time>
      </trkpt>
      <trkpt lat="42.61742" lon="1.64308">
        <ele>2238.089</ele>
        <time>2016-05-07T15:04:02Z</time>
      </trkpt>
      <trkpt lat="42.61743" lon="1.643">
        <ele>2235.381</ele>
        <time>2016-05-07T15:04:22Z</time>
      </trkpt>
      <trkpt lat="42.61747" lon="1.64288">
        <ele>2231.119</ele>
        <time>2016-05-07T15:04:42Z</time>
      </trkpt>
      <trkpt lat="42.61754" lon="1.64269">
        <ele>2225.287</ele>
        <time>2016-05-07T15:05:02Z</time>
      </trkpt>
      <trkpt lat="42.61763" lon="1.64253">
        <ele>2221.915</ele>
        <time>2016-05-07T15:05:22Z</time>
      </trkpt>
      <trkpt lat="42.61768" lon="1.64242">
        <ele>2220.476</ele>
        <time>2016-05-07T15:05:42Z</time>
      </trkpt>
      <trkpt lat="42.61776" lon="1.64233">
        <ele>2220.124</ele>
        <time>2016-05-07T15:06:02Z</time>
      </trkpt>
      <trkpt lat="42.61779" lon="1.64219">
        <ele>2217.452</ele>
        <time>2016-05-07T15:06:22Z</time>
      </trkpt>
      <trkpt lat="42.61801" lon="1.64192">
        <ele>2215.066</ele>
        <time>2016-05-07T15:06:42Z</time>
      </trkpt>
      <trkpt lat="42.61803" lon="1.64172">
        <ele>2212.329</ele>
        <time>2016-05-07T15:07:02Z</time>
      </trkpt>
      <trkpt lat="42.61809" lon="1.64162">
        <ele>2211.221</ele>
        <time>2016-05-07T15:07:22Z</time>
      </trkpt>
      <trkpt lat="42.61808" lon="1.64156">
        <ele>2210.708</ele>
        <time>2016-05-07T15:07:42Z</time>
      </trkpt>
      <trkpt lat="42.61812" lon="1.64153">
        <ele>2210.087</ele>
        <time>2016-05-07T15:08:02Z</time>
      </trkpt>
      <trkpt lat="42.61811" lon="1.64148">
        <ele>2209.679</ele>
        <time>2016-05-07T15:08:22Z</time>
      </trkpt>
      <trkpt lat="42.61814" lon="1.64142">
        <ele>2208.887</ele>
        <time>2016-05-07T15:08:42Z</time>
      </trkpt>
      <trkpt lat="42.61812" lon="1.64137">
        <ele>2208.365</ele>
        <time>2016-05-07T15:09:02Z</time>
      </trkpt>
      <trkpt lat="42.61817" lon="1.64128">
        <ele>2206.983</ele>
        <time>2016-05-07T15:09:22Z</time>
      </trkpt>
      <trkpt lat="42.61825" lon="1.64122">
        <ele>2206.034</ele>
        <time>2016-05-07T15:09:42Z</time>
      </trkpt>
      <trkpt lat="42.61828" lon="1.64112">
        <ele>2205.162</ele>
        <time>2016-05-07T15:10:02Z</time>
      </trkpt>
      <trkpt lat="42.61832" lon="1.64114">
        <ele>2205.27</ele>
        <time>2016-05-07T15:10:22Z</time>
      </trkpt>
      <trkpt lat="42.61836" lon="1.64106">
        <ele>2205.161</ele>
        <time>2016-05-07T15:10:42Z</time>
      </trkpt>
      <trkpt lat="42.61834" lon="1.64091">
        <ele>2204.321</ele>
        <time>2016-05-07T15:11:02Z</time>
      </trkpt>
      <trkpt lat="42.61843" lon="1.64067">
        <ele>2204.113</ele>
        <time>2016-05-07T15:11:22Z</time>
      </trkpt>
      <trkpt lat="42.61846" lon="1.64058">
        <ele>2204.008</ele>
        <time>2016-05-07T15:11:42Z</time>
      </trkpt>
      <trkpt lat="42.6185" lon="1.64046">
        <ele>2204.267</ele>
        <time>2016-05-07T15:12:02Z</time>
      </trkpt>
      <trkpt lat="42.61849" lon="1.64031">
        <ele>2204.149</ele>
        <time>2016-05-07T15:12:22Z</time>
      </trkpt>
      <trkpt lat="42.6185" lon="1.64019">
        <ele>2204.627</ele>
        <time>2016-05-07T15:12:42Z</time>
      </trkpt>
      <trkpt lat="42.61849" lon="1.64001">
        <ele>2205.215</ele>
        <time>2016-05-07T15:13:02Z</time>
      </trkpt>
      <trkpt lat="42.6185" lon="1.63984">
        <ele>2206.263</ele>
        <time>2016-05-07T15:13:22Z</time>
      </trkpt>
      <trkpt lat="42.6185" lon="1.6397">
        <ele>2206.964</ele>
        <time>2016-05-07T15:13:42Z</time>
      </trkpt>
      <trkpt lat="42.61844" lon="1.63962">
        <ele>2206.882</ele>
        <time>2016-05-07T15:14:02Z</time>
      </trkpt>
      <trkpt lat="42.61849" lon="1.63944">
        <ele>2208.28</ele>
        <time>2016-05-07T15:14:22Z</time>
      </trkpt>
      <trkpt lat="42.61849" lon="1.63937">
        <ele>2208.967</ele>
        <time>2016-05-07T15:14:42Z</time>
      </trkpt>
      <trkpt lat="42.6185" lon="1.63929">
        <ele>2209.881</ele>
        <time>2016-05-07T15:15:02Z</time>
      </trkpt>
      <trkpt lat="42.61852" lon="1.63917">
        <ele>2211.419</ele>
        <time>2016-05-07T15:15:22Z</time>
      </trkpt>
      <trkpt lat="42.61849" lon="1.63903">
        <ele>2212.808</ele>
        <time>2016-05-07T15:15:42Z</time>
      </trkpt>
      <trkpt lat="42.61847" lon="1.63896">
        <ele>2213.677</ele>
        <time>2016-05-07T15:16:02Z</time>
      </trkpt>
      <trkpt lat="42.61844" lon="1.63887">
        <ele>2214.519</ele>
        <time>2016-05-07T15:16:22Z</time>
      </trkpt>
      <trkpt lat="42.6184" lon="1.63875">
        <ele>2215.827</ele>
        <time>2016-05-07T15:16:42Z</time>
      </trkpt>
      <trkpt lat="42.61838" lon="1.63865">
        <ele>2216.855</ele>
        <time>2016-05-07T15:17:02Z</time>
      </trkpt>
      <trkpt lat="42.61838" lon="1.63859">
        <ele>2217.573</ele>
        <time>2016-05-07T15:17:22Z</time>
      </trkpt>
      <trkpt lat="42.61836" lon="1.63854">
        <ele>2217.714</ele>
        <time>2016-05-07T15:17:42Z</time>
      </trkpt>
      <trkpt lat="42.61833" lon="1.6385">
        <ele>2217.242</ele>
        <time>2016-05-07T15:18:02Z</time>
      </trkpt>
      <trkpt lat="42.61827" lon="1.63839">
        <ele>2216.24</ele>
        <time>2016-05-07T15:18:22Z</time>
      </trkpt>
      <trkpt lat="42.61823" lon="1.63834">
        <ele>2215.232</ele>
        <time>2016-05-07T15:18:42Z</time>
      </trkpt>
      <trkpt lat="42.61819" lon="1.63828">
        <ele>2214.292</ele>
        <time>2016-05-07T15:19:02Z</time>
      </trkpt>
      <trkpt lat="42.61817" lon="1.63825">
        <ele>2213.611</ele>
        <time>2016-05-07T15:19:22Z</time>
      </trkpt>
      <trkpt lat="42.61809" lon="1.6381">
        <ele>2210.608</ele>
        <time>2016-05-07T15:19:42Z</time>
      </trkpt>
      <trkpt lat="42.61806" lon="1.63809">
        <ele>2209.164</ele>
        <time>2016-05-07T15:20:02Z</time>
      </trkpt>
      <trkpt lat="42.61792" lon="1.63795">
        <ele>2204.796</ele>
        <time>2016-05-07T15:20:22Z</time>
      </trkpt>
      <trkpt lat="42.61786" lon="1.63791">
        <ele>2202.084</ele>
        <time>2016-05-07T15:20:42Z</time>
      </trkpt>
      <trkpt lat="42.61771" lon="1.63765">
        <ele>2200.172</ele>
        <time>2016-05-07T15:21:02Z</time>
      </trkpt>
      <trkpt lat="42.61762" lon="1.63755">
        <ele>2198.67</ele>
        <time>2016-05-07T15:21:22Z</time>
      </trkpt>
      <trkpt lat="42.61756" lon="1.63726">
        <ele>2204.741</ele>
        <time>2016-05-07T15:21:42Z</time>
      </trkpt>
      <trkpt lat="42.61749" lon="1.63714">
        <ele>2204.659</ele>
        <time>2016-05-07T15:22:02Z</time>
      </trkpt>
      <trkpt lat="42.61732" lon="1.6367">
        <ele>2207.627</ele>
        <time>2016-05-07T15:22:22Z</time>
      </trkpt>
      <trkpt lat="42.61731" lon="1.63647">
        <ele>2208.344</ele>
        <time>2016-05-07T15:22:42Z</time>
      </trkpt>
      <trkpt lat="42.61739" lon="1.63603">
        <ele>2212.605</ele>
        <time>2016-05-07T15:23:02Z</time>
      </trkpt>
      <trkpt lat="42.61743" lon="1.63586">
        <ele>2214.715</ele>
        <time>2016-05-07T15:23:22Z</time>
      </trkpt>
      <trkpt lat="42.61744" lon="1.63576">
        <ele>2215.208</ele>
        <time>2016-05-07T15:23:42Z</time>
      </trkpt>
      <trkpt lat="42.61743" lon="1.63569">
        <ele>2213.475</ele>
        <time>2016-05-07T15:24:02Z</time>
      </trkpt>
      <trkpt lat="42.61741" lon="1.63553">
        <ele>2211.477</ele>
        <time>2016-05-07T15:24:22Z</time>
      </trkpt>
      <trkpt lat="42.61743" lon="1.6354">
        <ele>2211.355</ele>
        <time>2016-05-07T15:24:42Z</time>
      </trkpt>
      <trkpt lat="42.61747" lon="1.63524">
        <ele>2212.653</ele>
        <time>2016-05-07T15:25:02Z</time>
      </trkpt>
      <trkpt lat="42.6175" lon="1.63508">
        <ele>2212.051</ele>
        <time>2016-05-07T15:25:22Z</time>
      </trkpt>
      <trkpt lat="42.61755" lon="1.63499">
        <ele>2213.222</ele>
        <time>2016-05-07T15:25:42Z</time>
      </trkpt>
      <trkpt lat="42.61758" lon="1.63489">
        <ele>2213.55</ele>
        <time>2016-05-07T15:26:02Z</time>
      </trkpt>
      <trkpt lat="42.61764" lon="1.63467">
        <ele>2214.888</ele>
        <time>2016-05-07T15:26:22Z</time>
      </trkpt>
      <trkpt lat="42.61771" lon="1.63445">
        <ele>2217.775</ele>
        <time>2016-05-07T15:26:42Z</time>
      </trkpt>
      <trkpt lat="42.61777" lon="1.63419">
        <ele>2219.928</ele>
        <time>2016-05-07T15:27:02Z</time>
      </trkpt>
      <trkpt lat="42.61781" lon="1.63407">
        <ele>2220.52</ele>
        <time>2016-05-07T15:27:22Z</time>
      </trkpt>
      <trkpt lat="42.61788" lon="1.63385">
        <ele>2222.008</ele>
        <time>2016-05-07T15:27:42Z</time>
      </trkpt>
      <trkpt lat="42.61818" lon="1.63236">
        <ele>2239.718</ele>
        <time>2016-05-07T15:28:02Z</time>
      </trkpt>
      <trkpt lat="42.61819" lon="1.63227">
        <ele>2241.57</ele>
        <time>2016-05-07T15:28:22Z</time>
      </trkpt>
      <trkpt lat="42.61823" lon="1.63213">
        <ele>2247.278</ele>
        <time>2016-05-07T15:28:42Z</time>
      </trkpt>
      <trkpt lat="42.6182" lon="1.63207">
        <ele>2246.156</ele>
        <time>2016-05-07T15:29:02Z</time>
      </trkpt>
      <trkpt lat="42.61817" lon="1.632">
        <ele>2245.414</ele>
        <time>2016-05-07T15:29:22Z</time>
      </trkpt>
      <trkpt lat="42.61817" lon="1.63192">
        <ele>2246.515</ele>
        <time>2016-05-07T15:29:42Z</time>
      </trkpt>
      <trkpt lat="42.61826" lon="1.63191">
        <ele>2253.633</ele>
        <time>2016-05-07T15:30:02Z</time>
      </trkpt>
      <trkpt lat="42.61837" lon="1.63188">
        <ele>2262.351</ele>
        <time>2016-05-07T15:30:22Z</time>
      </trkpt>
      <trkpt lat="42.61842" lon="1.63188">
        <ele>2266.683</ele>
        <time>2016-05-07T15:30:42Z</time>
      </trkpt>
      <trkpt lat="42.61854" lon="1.63171">
        <ele>2277.625</ele>
        <time>2016-05-07T15:31:02Z</time>
      </trkpt>
      <trkpt lat="42.61864" lon="1.63148">
        <ele>2285.917</ele>
        <time>2016-05-07T15:31:22Z</time>
      </trkpt>
      <trkpt lat="42.61868" lon="1.63132">
        <ele>2288.508</ele>
        <time>2016-05-07T15:31:42Z</time>
      </trkpt>
      <trkpt lat="42.61882" lon="1.6311">
        <ele>2296.939</ele>
        <time>2016-05-07T15:32:02Z</time>
      </trkpt>
      <trkpt lat="42.61884" lon="1.63102">
        <ele>2297.271</ele>
        <time>2016-05-07T15:32:22Z</time>
      </trkpt>
      <trkpt lat="42.61893" lon="1.6309">
        <ele>2301.429</ele>
        <time>2016-05-07T15:32:42Z</time>
      </trkpt>
      <trkpt lat="42.619" lon="1.63076">
        <ele>2302.917</ele>
        <time>2016-05-07T15:33:02Z</time>
      </trkpt>
      <trkpt lat="42.61906" lon="1.63068">
        <ele>2304.095</ele>
        <time>2016-05-07T15:33:22Z</time>
      </trkpt>
      <trkpt lat="42.61915" lon="1.63061">
        <ele>2307.666</ele>
        <time>2016-05-07T15:33:42Z</time>
      </trkpt>
      <trkpt lat="42.6193" lon="1.63052">
        <ele>2312.854</ele>
        <time>2016-05-07T15:34:02Z</time>
      </trkpt>
      <trkpt lat="42.61938" lon="1.63049">
        <ele>2316.812</ele>
        <time>2016-05-07T15:34:22Z</time>
      </trkpt>
      <trkpt lat="42.61948" lon="1.63041">
        <ele>2319.989</ele>
        <time>2016-05-07T15:34:42Z</time>
      </trkpt>
      <trkpt lat="42.61954" lon="1.63035">
        <ele>2321.506</ele>
        <time>2016-05-07T15:35:02Z</time>
      </trkpt>
      <trkpt lat="42.61955" lon="1.63029">
        <ele>2320.626</ele>
        <time>2016-05-07T15:35:22Z</time>
      </trkpt>
      <trkpt lat="42.61958" lon="1.63024">
        <ele>2321.408</ele>
        <time>2016-05-07T15:35:42Z</time>
      </trkpt>
      <trkpt lat="42.61972" lon="1.63014">
        <ele>2327.549</ele>
        <time>2016-05-07T15:36:02Z</time>
      </trkpt>
      <trkpt lat="42.61979" lon="1.63007">
        <ele>2327.921</ele>
        <time>2016-05-07T15:36:22Z</time>
      </trkpt>
      <trkpt lat="42.61987" lon="1.62999">
        <ele>2328.539</ele>
        <time>2016-05-07T15:36:42Z</time>
      </trkpt>
      <trkpt lat="42.6199" lon="1.62994">
        <ele>2329.197</ele>
        <time>2016-05-07T15:37:02Z</time>
      </trkpt>
      <trkpt lat="42.61997" lon="1.6299">
        <ele>2330.895</ele>
        <time>2016-05-07T15:37:22Z</time>
      </trkpt>
      <trkpt lat="42.62001" lon="1.6299">
        <ele>2331.976</ele>
        <time>2016-05-07T15:37:42Z</time>
      </trkpt>
      <trkpt lat="42.62006" lon="1.62989">
        <ele>2333.084</ele>
        <time>2016-05-07T15:38:02Z</time>
      </trkpt>
      <trkpt lat="42.62011" lon="1.62981">
        <ele>2333.722</ele>
        <time>2016-05-07T15:38:22Z</time>
      </trkpt>
      <trkpt lat="42.62018" lon="1.6297">
        <ele>2334.694</ele>
        <time>2016-05-07T15:38:42Z</time>
      </trkpt>
      <trkpt lat="42.62032" lon="1.62962">
        <ele>2336.057</ele>
        <time>2016-05-07T15:39:02Z</time>
      </trkpt>
      <trkpt lat="42.62059" lon="1.6295">
        <ele>2337.722</ele>
        <time>2016-05-07T15:39:22Z</time>
      </trkpt>
      <trkpt lat="42.62077" lon="1.62939">
        <ele>2337.508</ele>
        <time>2016-05-07T15:39:42Z</time>
      </trkpt>
      <trkpt lat="42.62097" lon="1.6292">
        <ele>2341.88</ele>
        <time>2016-05-07T15:40:02Z</time>
      </trkpt>
      <trkpt lat="42.62115" lon="1.62889">
        <ele>2351.992</ele>
        <time>2016-05-07T15:40:22Z</time>
      </trkpt>
      <trkpt lat="42.6213" lon="1.62857">
        <ele>2365.66</ele>
        <time>2016-05-07T15:40:42Z</time>
      </trkpt>
      <trkpt lat="42.62141" lon="1.62823">
        <ele>2378.648</ele>
        <time>2016-05-07T15:41:02Z</time>
      </trkpt>
      <trkpt lat="42.62153" lon="1.62786">
        <ele>2388.846</ele>
        <time>2016-05-07T15:41:22Z</time>
      </trkpt>
      <trkpt lat="42.62169" lon="1.62748">
        <ele>2396.747</ele>
        <time>2016-05-07T15:41:42Z</time>
      </trkpt>
      <trkpt lat="42.62179" lon="1.62714">
        <ele>2399.595</ele>
        <time>2016-05-07T15:42:02Z</time>
      </trkpt>
      <trkpt lat="42.62194" lon="1.62674">
        <ele>2403.663</ele>
        <time>2016-05-07T15:42:22Z</time>
      </trkpt>
      <trkpt lat="42.62212" lon="1.62632">
        <ele>2410.459</ele>
        <time>2016-05-07T15:42:42Z</time>
      </trkpt>
      <trkpt lat="42.62234" lon="1.62601">
        <ele>2420.503</ele>
        <time>2016-05-07T15:43:02Z</time>
      </trkpt>
      <trkpt lat="42.62253" lon="1.62566">
        <ele>2427.523</ele>
        <time>2016-05-07T15:43:22Z</time>
      </trkpt>
      <trkpt lat="42.62261" lon="1.62537">
        <ele>2432.508</ele>
        <time>2016-05-07T15:43:42Z</time>
      </trkpt>
      <trkpt lat="42.62273" lon="1.6251">
        <ele>2441.536</ele>
        <time>2016-05-07T15:44:02Z</time>
      </trkpt>
      <trkpt lat="42.62288" lon="1.62489">
        <ele>2450.988</ele>
        <time>2016-05-07T15:44:22Z</time>
      </trkpt>
      <trkpt lat="42.62302" lon="1.62469">
        <ele>2458.866</ele>
        <time>2016-05-07T15:44:42Z</time>
      </trkpt>
      <trkpt lat="42.62314" lon="1.6245">
        <ele>2466.664</ele>
        <time>2016-05-07T15:45:02Z</time>
      </trkpt>
      <trkpt lat="42.62325" lon="1.62421">
        <ele>2476.382</ele>
        <time>2016-05-07T15:45:22Z</time>
      </trkpt>
      <trkpt lat="42.6233" lon="1.62393">
        <ele>2481.083</ele>
        <time>2016-05-07T15:45:42Z</time>
      </trkpt>
      <trkpt lat="42.62333" lon="1.62363">
        <ele>2483.751</ele>
        <time>2016-05-07T15:46:02Z</time>
      </trkpt>
      <trkpt lat="42.6234" lon="1.62331">
        <ele>2490.449</ele>
        <time>2016-05-07T15:46:22Z</time>
      </trkpt>
      <trkpt lat="42.62343" lon="1.62304">
        <ele>2496.282</ele>
        <time>2016-05-07T15:46:42Z</time>
      </trkpt>
      <trkpt lat="42.62352" lon="1.62278">
        <ele>2502.243</ele>
        <time>2016-05-07T15:47:02Z</time>
      </trkpt>
      <trkpt lat="42.62353" lon="1.62248">
        <ele>2502.517</ele>
        <time>2016-05-07T15:47:22Z</time>
      </trkpt>
      <trkpt lat="42.62349" lon="1.62212">
        <ele>2504.808</ele>
        <time>2016-05-07T15:47:42Z</time>
      </trkpt>
      <trkpt lat="42.62336" lon="1.62171">
        <ele>2506.869</ele>
        <time>2016-05-07T15:48:02Z</time>
      </trkpt>
      <trkpt lat="42.62316" lon="1.62142">
        <ele>2505.951</ele>
        <time>2016-05-07T15:48:22Z</time>
      </trkpt>
      <trkpt lat="42.62298" lon="1.62113">
        <ele>2511.099</ele>
        <time>2016-05-07T15:48:42Z</time>
      </trkpt>
      <trkpt lat="42.6229" lon="1.62086">
        <ele>2515.377</ele>
        <time>2016-05-07T15:49:02Z</time>
      </trkpt>
      <trkpt lat="42.62288" lon="1.62047">
        <ele>2514.895</ele>
        <time>2016-05-07T15:49:22Z</time>
      </trkpt>
      <trkpt lat="42.62289" lon="1.61997">
        <ele>2507.816</ele>
        <time>2016-05-07T15:49:42Z</time>
      </trkpt>
      <trkpt lat="42.62297" lon="1.61968">
        <ele>2509.044</ele>
        <time>2016-05-07T15:50:02Z</time>
      </trkpt>
      <trkpt lat="42.62305" lon="1.61939">
        <ele>2510.372</ele>
        <time>2016-05-07T15:50:22Z</time>
      </trkpt>
      <trkpt lat="42.62307" lon="1.61907">
        <ele>2505.639</ele>
        <time>2016-05-07T15:50:42Z</time>
      </trkpt>
      <trkpt lat="42.62306" lon="1.61871">
        <ele>2499.401</ele>
        <time>2016-05-07T15:51:02Z</time>
      </trkpt>
      <trkpt lat="42.62304" lon="1.61826">
        <ele>2496.521</ele>
        <time>2016-05-07T15:51:22Z</time>
      </trkpt>
      <trkpt lat="42.62305" lon="1.61791">
        <ele>2497.808</ele>
        <time>2016-05-07T15:51:42Z</time>
      </trkpt>
      <trkpt lat="42.62295" lon="1.61747">
        <ele>2490.314</ele>
        <time>2016-05-07T15:52:02Z</time>
      </trkpt>
      <trkpt lat="42.6228" lon="1.61697">
        <ele>2487.646</ele>
        <time>2016-05-07T15:52:22Z</time>
      </trkpt>
      <trkpt lat="42.62264" lon="1.61658">
        <ele>2493.224</ele>
        <time>2016-05-07T15:52:42Z</time>
      </trkpt>
      <trkpt lat="42.62233" lon="1.61618">
        <ele>2491.212</ele>
        <time>2016-05-07T15:53:02Z</time>
      </trkpt>
      <trkpt lat="42.62216" lon="1.61596">
        <ele>2483.33</ele>
        <time>2016-05-07T15:53:22Z</time>
      </trkpt>
      <trkpt lat="42.62202" lon="1.61569">
        <ele>2482.481</ele>
        <time>2016-05-07T15:53:42Z</time>
      </trkpt>
      <trkpt lat="42.62188" lon="1.61545">
        <ele>2482.319</ele>
        <time>2016-05-07T15:54:02Z</time>
      </trkpt>
      <trkpt lat="42.62162" lon="1.61523">
        <ele>2478.297</ele>
        <time>2016-05-07T15:54:22Z</time>
      </trkpt>
      <trkpt lat="42.62134" lon="1.615">
        <ele>2476.413</ele>
        <time>2016-05-07T15:54:42Z</time>
      </trkpt>
      <trkpt lat="42.62104" lon="1.61481">
        <ele>2466.543</ele>
        <time>2016-05-07T15:55:02Z</time>
      </trkpt>
      <trkpt lat="42.62079" lon="1.61458">
        <ele>2463.307</ele>
        <time>2016-05-07T15:55:22Z</time>
      </trkpt>
      <trkpt lat="42.61991" lon="1.61323">
        <ele>2460.408</ele>
        <time>2016-05-07T15:55:42Z</time>
      </trkpt>
      <trkpt lat="42.61986" lon="1.61316">
        <ele>2460.872</ele>
        <time>2016-05-07T15:56:02Z</time>
      </trkpt>
      <trkpt lat="42.61982" lon="1.6131">
        <ele>2461.274</ele>
        <time>2016-05-07T15:56:22Z</time>
      </trkpt>
      <trkpt lat="42.61977" lon="1.61299">
        <ele>2463.322</ele>
        <time>2016-05-07T15:56:42Z</time>
      </trkpt>
      <trkpt lat="42.61968" lon="1.61287">
        <ele>2466.51</ele>
        <time>2016-05-07T15:57:02Z</time>
      </trkpt>
      <trkpt lat="42.61962" lon="1.61278">
        <ele>2469.878</ele>
        <time>2016-05-07T15:57:22Z</time>
      </trkpt>
      <trkpt lat="42.6195" lon="1.61269">
        <ele>2474.219</ele>
        <time>2016-05-07T15:57:42Z</time>
      </trkpt>
      <trkpt lat="42.61943" lon="1.61265">
        <ele>2477.067</ele>
        <time>2016-05-07T15:58:02Z</time>
      </trkpt>
      <trkpt lat="42.61937" lon="1.61261">
        <ele>2481.375</ele>
        <time>2016-05-07T15:58:22Z</time>
      </trkpt>
      <trkpt lat="42.61924" lon="1.61258">
        <ele>2487.219</ele>
        <time>2016-05-07T15:58:42Z</time>
      </trkpt>
      <trkpt lat="42.61914" lon="1.61262">
        <ele>2487.609</ele>
        <time>2016-05-07T15:59:02Z</time>
      </trkpt>
      <trkpt lat="42.61908" lon="1.61267">
        <ele>2486.819</ele>
        <time>2016-05-07T15:59:22Z</time>
      </trkpt>
      <trkpt lat="42.619" lon="1.61265">
        <ele>2489.108</ele>
        <time>2016-05-07T15:59:42Z</time>
      </trkpt>
      <trkpt lat="42.61899" lon="1.61245">
        <ele>2496.762</ele>
        <time>2016-05-07T16:00:02Z</time>
      </trkpt>
      <trkpt lat="42.61896" lon="1.61235">
        <ele>2499.884</ele>
        <time>2016-05-07T16:00:22Z</time>
      </trkpt>
      <trkpt lat="42.61893" lon="1.61223">
        <ele>2502.282</ele>
        <time>2016-05-07T16:00:42Z</time>
      </trkpt>
      <trkpt lat="42.6189" lon="1.61213">
        <ele>2503.05</ele>
        <time>2016-05-07T16:01:02Z</time>
      </trkpt>
      <trkpt lat="42.61889" lon="1.61203">
        <ele>2505.118</ele>
        <time>2016-05-07T16:01:22Z</time>
      </trkpt>
      <trkpt lat="42.61888" lon="1.61193">
        <ele>2507.469</ele>
        <time>2016-05-07T16:01:42Z</time>
      </trkpt>
      <trkpt lat="42.61886" lon="1.61181">
        <ele>2510.597</ele>
        <time>2016-05-07T16:02:02Z</time>
      </trkpt>
      <trkpt lat="42.6188" lon="1.61168">
        <ele>2513.035</ele>
        <time>2016-05-07T16:02:22Z</time>
      </trkpt>
      <trkpt lat="42.61881" lon="1.61124">
        <ele>2525.278</ele>
        <time>2016-05-07T16:02:42Z</time>
      </trkpt>
      <trkpt lat="42.61885" lon="1.61111">
        <ele>2528.333</ele>
        <time>2016-05-07T16:03:02Z</time>
      </trkpt>
      <trkpt lat="42.61884" lon="1.61103">
        <ele>2528.826</ele>
        <time>2016-05-07T16:03:22Z</time>
      </trkpt>
      <trkpt lat="42.61893" lon="1.6107">
        <ele>2535.008</ele>
        <time>2016-05-07T16:03:42Z</time>
      </trkpt>
      <trkpt lat="42.61893" lon="1.61059">
        <ele>2536.168</ele>
        <time>2016-05-07T16:04:02Z</time>
      </trkpt>
      <trkpt lat="42.61899" lon="1.61031">
        <ele>2539.46</ele>
        <time>2016-05-07T16:04:22Z</time>
      </trkpt>
      <trkpt lat="42.61902" lon="1.61016">
        <ele>2541.158</ele>
        <time>2016-05-07T16:04:42Z</time>
      </trkpt>
      <trkpt lat="42.61904" lon="1.61002">
        <ele>2542.166</ele>
        <time>2016-05-07T16:05:02Z</time>
      </trkpt>
      <trkpt lat="42.61911" lon="1.60977">
        <ele>2546.484</ele>
        <time>2016-05-07T16:05:22Z</time>
      </trkpt>
      <trkpt lat="42.61917" lon="1.60962">
        <ele>2550.595</ele>
        <time>2016-05-07T16:05:42Z</time>
      </trkpt>
      <trkpt lat="42.6192" lon="1.60954">
        <ele>2552.163</ele>
        <time>2016-05-07T16:06:02Z</time>
      </trkpt>
      <trkpt lat="42.61923" lon="1.6094">
        <ele>2554.591</ele>
        <time>2016-05-07T16:06:22Z</time>
      </trkpt>
      <trkpt lat="42.61928" lon="1.60921">
        <ele>2557.489</ele>
        <time>2016-05-07T16:06:42Z</time>
      </trkpt>
      <trkpt lat="42.61935" lon="1.60909">
        <ele>2562.006</ele>
        <time>2016-05-07T16:07:02Z</time>
      </trkpt>
      <trkpt lat="42.61944" lon="1.60898">
        <ele>2567.126</ele>
        <time>2016-05-07T16:07:22Z</time>
      </trkpt>
      <trkpt lat="42.61951" lon="1.6089">
        <ele>2571.808</ele>
        <time>2016-05-07T16:07:42Z</time>
      </trkpt>
      <trkpt lat="42.61954" lon="1.60886">
        <ele>2574.299</ele>
        <time>2016-05-07T16:08:02Z</time>
      </trkpt>
      <trkpt lat="42.61956" lon="1.60868">
        <ele>2577.451</ele>
        <time>2016-05-07T16:08:22Z</time>
      </trkpt>
      <trkpt lat="42.61967" lon="1.60813">
        <ele>2592.049</ele>
        <time>2016-05-07T16:08:42Z</time>
      </trkpt>
      <trkpt lat="42.61975" lon="1.60813">
        <ele>2596.427</ele>
        <time>2016-05-07T16:09:02Z</time>
      </trkpt>
      <trkpt lat="42.61979" lon="1.60813">
        <ele>2599.225</ele>
        <time>2016-05-07T16:09:22Z</time>
      </trkpt>
      <trkpt lat="42.62029" lon="1.60878">
        <ele>2620.856</ele>
        <time>2016-05-07T16:09:42Z</time>
      </trkpt>
      <trkpt lat="42.62036" lon="1.60875">
        <ele>2623.024</ele>
        <time>2016-05-07T16:10:02Z</time>
      </trkpt>
      <trkpt lat="42.62047" lon="1.60873">
        <ele>2626.272</ele>
        <time>2016-05-07T16:10:22Z</time>
      </trkpt>
      <trkpt lat="42.62059" lon="1.6087">
        <ele>2629.854</ele>
        <time>2016-05-07T16:10:42Z</time>
      </trkpt>
      <trkpt lat="42.62082" lon="1.6087">
        <ele>2636.656</ele>
        <time>2016-05-07T16:11:02Z</time>
      </trkpt>
      <trkpt lat="42.62101" lon="1.60866">
        <ele>2642.111</ele>
        <time>2016-05-07T16:11:22Z</time>
      </trkpt>
      <trkpt lat="42.62122" lon="1.6086">
        <ele>2647.508</ele>
        <time>2016-05-07T16:11:42Z</time>
      </trkpt>
      <trkpt lat="42.62135" lon="1.60858">
        <ele>2650.496</ele>
        <time>2016-05-07T16:12:02Z</time>
      </trkpt>
      <trkpt lat="42.62142" lon="1.60846">
        <ele>2652.958</ele>
        <time>2016-05-07T16:12:22Z</time>
      </trkpt>
      <trkpt lat="42.62145" lon="1.6084">
        <ele>2653.726</ele>
        <time>2016-05-07T16:12:42Z</time>
      </trkpt>
      <trkpt lat="42.62146" lon="1.60817">
        <ele>2657.034</ele>
        <time>2016-05-07T16:13:02Z</time>
      </trkpt>
      <trkpt lat="42.62146" lon="1.60801">
        <ele>2659.822</ele>
        <time>2016-05-07T16:13:22Z</time>
      </trkpt>
      <trkpt lat="42.62148" lon="1.60793">
        <ele>2661.723</ele>
        <time>2016-05-07T16:13:42Z</time>
      </trkpt>
      <trkpt lat="42.62151" lon="1.60782">
        <ele>2664.281</ele>
        <time>2016-05-07T16:14:02Z</time>
      </trkpt>
      <trkpt lat="42.62156" lon="1.60752">
        <ele>2670.989</ele>
        <time>2016-05-07T16:14:22Z</time>
      </trkpt>
      <trkpt lat="42.62148" lon="1.60731">
        <ele>2677.867</ele>
        <time>2016-05-07T16:14:42Z</time>
      </trkpt>
      <trkpt lat="42.62139" lon="1.60731">
        <ele>2680.681</ele>
        <time>2016-05-07T16:15:02Z</time>
      </trkpt>
      <trkpt lat="42.62134" lon="1.6071">
        <ele>2685.319</ele>
        <time>2016-05-07T16:15:22Z</time>
      </trkpt>
      <trkpt lat="42.62131" lon="1.60688">
        <ele>2691.108</ele>
        <time>2016-05-07T16:15:42Z</time>
      </trkpt>
      <trkpt lat="42.62127" lon="1.60668">
        <ele>2698.077</ele>
        <time>2016-05-07T16:16:02Z</time>
      </trkpt>
      <trkpt lat="42.62123" lon="1.6066">
        <ele>2701.559</ele>
        <time>2016-05-07T16:16:22Z</time>
      </trkpt>
      <trkpt lat="42.62118" lon="1.60651">
        <ele>2705.127</ele>
        <time>2016-05-07T16:16:42Z</time>
      </trkpt>
      <trkpt lat="42.62113" lon="1.60627">
        <ele>2714.735</ele>
        <time>2016-05-07T16:17:02Z</time>
      </trkpt>
      <trkpt lat="42.62112" lon="1.60613">
        <ele>2720.543</ele>
        <time>2016-05-07T16:17:22Z</time>
      </trkpt>
      <trkpt lat="42.62112" lon="1.60599">
        <ele>2718.684</ele>
        <time>2016-05-07T16:17:42Z</time>
      </trkpt>
      <trkpt lat="42.62111" lon="1.60584">
        <ele>2715.252</ele>
        <time>2016-05-07T16:18:02Z</time>
      </trkpt>
      <trkpt lat="42.62116" lon="1.60562">
        <ele>2710.49</ele>
        <time>2016-05-07T16:18:22Z</time>
      </trkpt>
      <trkpt lat="42.62116" lon="1.60557">
        <ele>2708.998</ele>
        <time>2016-05-07T16:18:42Z</time>
      </trkpt>
      <trkpt lat="42.62114" lon="1.60556">
        <ele>2707.115</ele>
        <time>2016-05-07T16:19:02Z</time>
      </trkpt>
      <trkpt lat="42.62106" lon="1.60556">
        <ele>2704.626</ele>
        <time>2016-05-07T16:19:22Z</time>
      </trkpt>
      <trkpt lat="42.62101" lon="1.60555">
        <ele>2703.008</ele>
        <time>2016-05-07T16:19:42Z</time>
      </trkpt>
      <trkpt lat="42.62098" lon="1.60556">
        <ele>2702.92</ele>
        <time>2016-05-07T16:20:02Z</time>
      </trkpt>
      <trkpt lat="42.62095" lon="1.60555">
        <ele>2701.762</ele>
        <time>2016-05-07T16:20:22Z</time>
      </trkpt>
      <trkpt lat="42.62089" lon="1.60555">
        <ele>2699.97</ele>
        <time>2016-05-07T16:20:42Z</time>
      </trkpt>
      <trkpt lat="42.62084" lon="1.60546">
        <ele>2694.728</ele>
        <time>2016-05-07T16:21:02Z</time>
      </trkpt>
      <trkpt lat="42.62083" lon="1.60543">
        <ele>2693.056</ele>
        <time>2016-05-07T16:21:22Z</time>
      </trkpt>
      <trkpt lat="42.62078" lon="1.60538">
        <ele>2690.217</ele>
        <time>2016-05-07T16:21:42Z</time>
      </trkpt>
      <trkpt lat="42.62071" lon="1.60538">
        <ele>2689.635</ele>
        <time>2016-05-07T16:22:02Z</time>
      </trkpt>
      <trkpt lat="42.62059" lon="1.60525">
        <ele>2682.243</ele>
        <time>2016-05-07T16:22:22Z</time>
      </trkpt>
      <trkpt lat="42.62054" lon="1.60517">
        <ele>2678.176</ele>
        <time>2016-05-07T16:22:42Z</time>
      </trkpt>
      <trkpt lat="42.6207" lon="1.60502">
        <ele>2673.99</ele>
        <time>2016-05-07T16:23:02Z</time>
      </trkpt>
      <trkpt lat="42.62058" lon="1.60492">
        <ele>2667.719</ele>
        <time>2016-05-07T16:23:22Z</time>
      </trkpt>
      <trkpt lat="42.62053" lon="1.60471">
        <ele>2658.308</ele>
        <time>2016-05-07T16:23:42Z</time>
      </trkpt>
      <trkpt lat="42.62048" lon="1.60459">
        <ele>2652.048</ele>
        <time>2016-05-07T16:24:02Z</time>
      </trkpt>
      <trkpt lat="42.62051" lon="1.60456">
        <ele>2650.86</ele>
        <time>2016-05-07T16:24:22Z</time>
      </trkpt>
      <trkpt lat="42.62054" lon="1.60451">
        <ele>2648.378</ele>
        <time>2016-05-07T16:24:42Z</time>
      </trkpt>
      <trkpt lat="42.6206" lon="1.60441">
        <ele>2643.956</ele>
        <time>2016-05-07T16:25:02Z</time>
      </trkpt>
      <trkpt lat="42.62065" lon="1.60429">
        <ele>2638.354</ele>
        <time>2016-05-07T16:25:22Z</time>
      </trkpt>
      <trkpt lat="42.62083" lon="1.60422">
        <ele>2637.635</ele>
        <time>2016-05-07T16:25:42Z</time>
      </trkpt>
      <trkpt lat="42.62062" lon="1.60403">
        <ele>2626.263</ele>
        <time>2016-05-07T16:26:02Z</time>
      </trkpt>
      <trkpt lat="42.62063" lon="1.60393">
        <ele>2622.481</ele>
        <time>2016-05-07T16:26:22Z</time>
      </trkpt>
      <trkpt lat="42.6206" lon="1.60385">
        <ele>2618.835</ele>
        <time>2016-05-07T16:26:42Z</time>
      </trkpt>
      <trkpt lat="42.6206" lon="1.60378">
        <ele>2616.586</ele>
        <time>2016-05-07T16:27:02Z</time>
      </trkpt>
      <trkpt lat="42.62057" lon="1.60367">
        <ele>2612.314</ele>
        <time>2016-05-07T16:27:22Z</time>
      </trkpt>
      <trkpt lat="42.62056" lon="1.60354">
        <ele>2608.208</ele>
        <time>2016-05-07T16:27:42Z</time>
      </trkpt>
      <trkpt lat="42.62054" lon="1.60347">
        <ele>2606.074</ele>
        <time>2016-05-07T16:28:02Z</time>
      </trkpt>
      <trkpt lat="42.62051" lon="1.60342">
        <ele>2604.146</ele>
        <time>2016-05-07T16:28:22Z</time>
      </trkpt>
      <trkpt lat="42.62042" lon="1.6034">
        <ele>2601.534</ele>
        <time>2016-05-07T16:28:42Z</time>
      </trkpt>
      <trkpt lat="42.62033" lon="1.60343">
        <ele>2599.942</ele>
        <time>2016-05-07T16:29:02Z</time>
      </trkpt>
      <trkpt lat="42.62031" lon="1.60345">
        <ele>2600.18</ele>
        <time>2016-05-07T16:29:22Z</time>
      </trkpt>
      <trkpt lat="42.62027" lon="1.60346">
        <ele>2599.671</ele>
        <time>2016-05-07T16:29:42Z</time>
      </trkpt>
      <trkpt lat="42.6202" lon="1.60342">
        <ele>2598.039</ele>
        <time>2016-05-07T16:30:02Z</time>
      </trkpt>
      <trkpt lat="42.62013" lon="1.60327">
        <ele>2593.367</ele>
        <time>2016-05-07T16:30:22Z</time>
      </trkpt>
      <trkpt lat="42.61986" lon="1.60296">
        <ele>2583.946</ele>
        <time>2016-05-07T16:30:42Z</time>
      </trkpt>
      <trkpt lat="42.61965" lon="1.60265">
        <ele>2577.888</ele>
        <time>2016-05-07T16:31:02Z</time>
      </trkpt>
      <trkpt lat="42.61954" lon="1.60248">
        <ele>2574.616</ele>
        <time>2016-05-07T16:31:22Z</time>
      </trkpt>
      <trkpt lat="42.61953" lon="1.60239">
        <ele>2573.108</ele>
        <time>2016-05-07T16:31:42Z</time>
      </trkpt>
      <trkpt lat="42.61948" lon="1.60206">
        <ele>2568.225</ele>
        <time>2016-05-07T16:32:02Z</time>
      </trkpt>
      <trkpt lat="42.61935" lon="1.60191">
        <ele>2565.327</ele>
        <time>2016-05-07T16:32:22Z</time>
      </trkpt>
      <trkpt lat="42.61933" lon="1.60168">
        <ele>2560.725</ele>
        <time>2016-05-07T16:32:42Z</time>
      </trkpt>
      <trkpt lat="42.61922" lon="1.6015">
        <ele>2556.563</ele>
        <time>2016-05-07T16:33:02Z</time>
      </trkpt>
      <trkpt lat="42.61904" lon="1.60135">
        <ele>2551.761</ele>
        <time>2016-05-07T16:33:22Z</time>
      </trkpt>
      <trkpt lat="42.61893" lon="1.60125">
        <ele>2548.682</ele>
        <time>2016-05-07T16:33:42Z</time>
      </trkpt>
      <trkpt lat="42.61878" lon="1.60106">
        <ele>2543.47</ele>
        <time>2016-05-07T16:34:02Z</time>
      </trkpt>
      <trkpt lat="42.61864" lon="1.6009">
        <ele>2539.758</ele>
        <time>2016-05-07T16:34:22Z</time>
      </trkpt>
      <trkpt lat="42.61861" lon="1.60068">
        <ele>2536.177</ele>
        <time>2016-05-07T16:34:42Z</time>
      </trkpt>
      <trkpt lat="42.61858" lon="1.60017">
        <ele>2526.261</ele>
        <time>2016-05-07T16:35:02Z</time>
      </trkpt>
      <trkpt lat="42.61858" lon="1.60001">
        <ele>2523.327</ele>
        <time>2016-05-07T16:35:22Z</time>
      </trkpt>
      <trkpt lat="42.61846" lon="1.59959">
        <ele>2520.108</ele>
        <time>2016-05-07T16:35:42Z</time>
      </trkpt>
      <trkpt lat="42.61847" lon="1.59934">
        <ele>2518.918</ele>
        <time>2016-05-07T16:36:02Z</time>
      </trkpt>
      <trkpt lat="42.61816" lon="1.59823">
        <ele>2507.19</ele>
        <time>2016-05-07T16:36:22Z</time>
      </trkpt>
      <trkpt lat="42.61796" lon="1.59705">
        <ele>2489.128</ele>
        <time>2016-05-07T16:36:42Z</time>
      </trkpt>
      <trkpt lat="42.61814" lon="1.59611">
        <ele>2475.366</ele>
        <time>2016-05-07T16:37:02Z</time>
      </trkpt>
      <trkpt lat="42.61828" lon="1.59561">
        <ele>2467.464</ele>
        <time>2016-05-07T16:37:22Z</time>
      </trkpt>
      <trkpt lat="42.61829" lon="1.59546">
        <ele>2464.625</ele>
        <time>2016-05-07T16:37:42Z</time>
      </trkpt>
      <trkpt lat="42.6183" lon="1.59535">
        <ele>2462.243</ele>
        <time>2016-05-07T16:38:02Z</time>
      </trkpt>
      <trkpt lat="42.61843" lon="1.595">
        <ele>2457.161</ele>
        <time>2016-05-07T16:38:22Z</time>
      </trkpt>
      <trkpt lat="42.61838" lon="1.59418">
        <ele>2449.894</ele>
        <time>2016-05-07T16:38:42Z</time>
      </trkpt>
      <trkpt lat="42.61845" lon="1.59315">
        <ele>2435.157</ele>
        <time>2016-05-07T16:39:02Z</time>
      </trkpt>
      <trkpt lat="42.6184" lon="1.59296">
        <ele>2430.222</ele>
        <time>2016-05-07T16:39:22Z</time>
      </trkpt>
      <trkpt lat="42.61815" lon="1.59282">
        <ele>2425.408</ele>
        <time>2016-05-07T16:39:42Z</time>
      </trkpt>
      <trkpt lat="42.61815" lon="1.59252">
        <ele>2422.27</ele>
        <time>2016-05-07T16:40:02Z</time>
      </trkpt>
      <trkpt lat="42.61832" lon="1.592">
        <ele>2418.362</ele>
        <time>2016-05-07T16:40:22Z</time>
      </trkpt>
      <trkpt lat="42.61834" lon="1.59193">
        <ele>2417.77</ele>
        <time>2016-05-07T16:40:42Z</time>
      </trkpt>
      <trkpt lat="42.61865" lon="1.59096">
        <ele>2404.178</ele>
        <time>2016-05-07T16:41:02Z</time>
      </trkpt>
      <trkpt lat="42.61912" lon="1.5897">
        <ele>2381.566</ele>
        <time>2016-05-07T16:41:22Z</time>
      </trkpt>
      <trkpt lat="42.61917" lon="1.58945">
        <ele>2376.137</ele>
        <time>2016-05-07T16:41:42Z</time>
      </trkpt>
      <trkpt lat="42.61929" lon="1.58917">
        <ele>2369.465</ele>
        <time>2016-05-07T16:42:02Z</time>
      </trkpt>
      <trkpt lat="42.61948" lon="1.58887">
        <ele>2361.363</ele>
        <time>2016-05-07T16:42:22Z</time>
      </trkpt>
      <trkpt lat="42.61974" lon="1.58864">
        <ele>2354.597</ele>
        <time>2016-05-07T16:42:42Z</time>
      </trkpt>
      <trkpt lat="42.61992" lon="1.58842">
        <ele>2351.823</ele>
        <time>2016-05-07T16:43:02Z</time>
      </trkpt>
      <trkpt lat="42.61997" lon="1.58828">
        <ele>2349.825</ele>
        <time>2016-05-07T16:43:22Z</time>
      </trkpt>
      <trkpt lat="42.62005" lon="1.5882">
        <ele>2350.008</ele>
        <time>2016-05-07T16:43:42Z</time>
      </trkpt>
      <trkpt lat="42.62014" lon="1.58809">
        <ele>2350.98</ele>
        <time>2016-05-07T16:44:02Z</time>
      </trkpt>
      <trkpt lat="42.62016" lon="1.58785">
        <ele>2347.392</ele>
        <time>2016-05-07T16:44:22Z</time>
      </trkpt>
      <trkpt lat="42.62016" lon="1.5877">
        <ele>2344.65</ele>
        <time>2016-05-07T16:44:42Z</time>
      </trkpt>
      <trkpt lat="42.62018" lon="1.58758">
        <ele>2343.128</ele>
        <time>2016-05-07T16:45:02Z</time>
      </trkpt>
      <trkpt lat="42.6202" lon="1.58745">
        <ele>2341.296</ele>
        <time>2016-05-07T16:45:22Z</time>
      </trkpt>
      <trkpt lat="42.62021" lon="1.58728">
        <ele>2337.917</ele>
        <time>2016-05-07T16:45:42Z</time>
      </trkpt>
      <trkpt lat="42.62021" lon="1.5871">
        <ele>2335.155</ele>
        <time>2016-05-07T16:46:02Z</time>
      </trkpt>
      <trkpt lat="42.62018" lon="1.58684">
        <ele>2330.083</ele>
        <time>2016-05-07T16:46:22Z</time>
      </trkpt>
      <trkpt lat="42.62011" lon="1.58675">
        <ele>2326.276</ele>
        <time>2016-05-07T16:46:42Z</time>
      </trkpt>
      <trkpt lat="42.62007" lon="1.58646">
        <ele>2321.39</ele>
        <time>2016-05-07T16:47:02Z</time>
      </trkpt>
      <trkpt lat="42.62003" lon="1.58616">
        <ele>2315.119</ele>
        <time>2016-05-07T16:47:22Z</time>
      </trkpt>
      <trkpt lat="42.62014" lon="1.58571">
        <ele>2309.708</ele>
        <time>2016-05-07T16:47:42Z</time>
      </trkpt>
      <trkpt lat="42.6201" lon="1.58523">
        <ele>2297.848</ele>
        <time>2016-05-07T16:48:02Z</time>
      </trkpt>
      <trkpt lat="42.62016" lon="1.58482">
        <ele>2291.37</ele>
        <time>2016-05-07T16:48:22Z</time>
      </trkpt>
      <trkpt lat="42.62019" lon="1.58461">
        <ele>2288.128</ele>
        <time>2016-05-07T16:48:42Z</time>
      </trkpt>
      <trkpt lat="42.62022" lon="1.5844">
        <ele>2284.976</ele>
        <time>2016-05-07T16:49:02Z</time>
      </trkpt>
      <trkpt lat="42.62026" lon="1.58386">
        <ele>2275.264</ele>
        <time>2016-05-07T16:49:22Z</time>
      </trkpt>
      <trkpt lat="42.62028" lon="1.58371">
        <ele>2272.355</ele>
        <time>2016-05-07T16:49:42Z</time>
      </trkpt>
      <trkpt lat="42.62021" lon="1.58363">
        <ele>2267.363</ele>
        <time>2016-05-07T16:50:02Z</time>
      </trkpt>
      <trkpt lat="42.62034" lon="1.58323">
        <ele>2262.241</ele>
        <time>2016-05-07T16:50:22Z</time>
      </trkpt>
      <trkpt lat="42.6204" lon="1.58299">
        <ele>2257.657</ele>
        <time>2016-05-07T16:50:42Z</time>
      </trkpt>
      <trkpt lat="42.62043" lon="1.58278">
        <ele>2252.7</ele>
        <time>2016-05-07T16:51:02Z</time>
      </trkpt>
      <trkpt lat="42.62053" lon="1.58258">
        <ele>2251.42</ele>
        <time>2016-05-07T16:51:22Z</time>
      </trkpt>
      <trkpt lat="42.62066" lon="1.58231">
        <ele>2247.808</ele>
        <time>2016-05-07T16:51:42Z</time>
      </trkpt>
      <trkpt lat="42.62068" lon="1.58213">
        <ele>2242.046</ele>
        <time>2016-05-07T16:52:02Z</time>
      </trkpt>
      <trkpt lat="42.62078" lon="1.58186">
        <ele>2237.458</ele>
        <time>2016-05-07T16:52:22Z</time>
      </trkpt>
      <trkpt lat="42.62088" lon="1.58169">
        <ele>2234.856</ele>
        <time>2016-05-07T16:52:42Z</time>
      </trkpt>
      <trkpt lat="42.62096" lon="1.58159">
        <ele>2234.434</ele>
        <time>2016-05-07T16:53:02Z</time>
      </trkpt>
      <trkpt lat="42.62105" lon="1.58138">
        <ele>2231.712</ele>
        <time>2016-05-07T16:53:22Z</time>
      </trkpt>
      <trkpt lat="42.62119" lon="1.58087">
        <ele>2225.063</ele>
        <time>2016-05-07T16:53:42Z</time>
      </trkpt>
      <trkpt lat="42.62133" lon="1.58075">
        <ele>2223.961</ele>
        <time>2016-05-07T16:54:02Z</time>
      </trkpt>
      <trkpt lat="42.62145" lon="1.58068">
        <ele>2221.749</ele>
        <time>2016-05-07T16:54:22Z</time>
      </trkpt>
      <trkpt lat="42.6215" lon="1.58083">
        <ele>2221.921</ele>
        <time>2016-05-07T16:54:42Z</time>
      </trkpt>
      <trkpt lat="42.62155" lon="1.58091">
        <ele>2222.041</ele>
        <time>2016-05-07T16:55:02Z</time>
      </trkpt>
      <trkpt lat="42.62168" lon="1.58099">
        <ele>2221.005</ele>
        <time>2016-05-07T16:55:22Z</time>
      </trkpt>
      <trkpt lat="42.62181" lon="1.58099">
        <ele>2223.208</ele>
        <time>2016-05-07T16:55:42Z</time>
      </trkpt>
      <trkpt lat="42.6219" lon="1.58094">
        <ele>2223.583</ele>
        <time>2016-05-07T16:56:02Z</time>
      </trkpt>
      <trkpt lat="42.622" lon="1.58085">
        <ele>2224.375</ele>
        <time>2016-05-07T16:56:22Z</time>
      </trkpt>
      <trkpt lat="42.62204" lon="1.58072">
        <ele>2224.773</ele>
        <time>2016-05-07T16:56:42Z</time>
      </trkpt>
      <trkpt lat="42.62211" lon="1.58054">
        <ele>2226.711</ele>
        <time>2016-05-07T16:57:02Z</time>
      </trkpt>
      <trkpt lat="42.62211" lon="1.58043">
        <ele>2224.929</ele>
        <time>2016-05-07T16:57:22Z</time>
      </trkpt>
      <trkpt lat="42.62212" lon="1.58024">
        <ele>2221.99</ele>
        <time>2016-05-07T16:57:42Z</time>
      </trkpt>
      <trkpt lat="42.62221" lon="1.58007">
        <ele>2222.578</ele>
        <time>2016-05-07T16:58:02Z</time>
      </trkpt>
      <trkpt lat="42.62234" lon="1.57995">
        <ele>2223.816</ele>
        <time>2016-05-07T16:58:22Z</time>
      </trkpt>
      <trkpt lat="42.62243" lon="1.57988">
        <ele>2226.442</ele>
        <time>2016-05-07T16:58:42Z</time>
      </trkpt>
      <trkpt lat="42.62253" lon="1.57988">
        <ele>2229.222</ele>
        <time>2016-05-07T16:59:02Z</time>
      </trkpt>
      <trkpt lat="42.62266" lon="1.5799">
        <ele>2230.114</ele>
        <time>2016-05-07T16:59:22Z</time>
      </trkpt>
      <trkpt lat="42.62277" lon="1.57991">
        <ele>2230.508</ele>
        <time>2016-05-07T16:59:42Z</time>
      </trkpt>
      <trkpt lat="42.6229" lon="1.57999">
        <ele>2223.445</ele>
        <time>2016-05-07T17:00:02Z</time>
      </trkpt>
      <trkpt lat="42.62295" lon="1.58">
        <ele>2220.917</ele>
        <time>2016-05-07T17:00:22Z</time>
      </trkpt>
      <trkpt lat="42.62303" lon="1.58012">
        <ele>2219.965</ele>
        <time>2016-05-07T17:00:42Z</time>
      </trkpt>
      <trkpt lat="42.6231" lon="1.58009">
        <ele>2215.613</ele>
        <time>2016-05-07T17:01:02Z</time>
      </trkpt>
      <trkpt lat="42.62314" lon="1.58007">
        <ele>2212.361</ele>
        <time>2016-05-07T17:01:22Z</time>
      </trkpt>
      <trkpt lat="42.62322" lon="1.58005">
        <ele>2206.422</ele>
        <time>2016-05-07T17:01:42Z</time>
      </trkpt>
      <trkpt lat="42.62328" lon="1.58015">
        <ele>2205.78</ele>
        <time>2016-05-07T17:02:02Z</time>
      </trkpt>
      <trkpt lat="42.62333" lon="1.58008">
        <ele>2200.718</ele>
        <time>2016-05-07T17:02:22Z</time>
      </trkpt>
      <trkpt lat="42.62334" lon="1.57988">
        <ele>2195.739</ele>
        <time>2016-05-07T17:02:42Z</time>
      </trkpt>
      <trkpt lat="42.62345" lon="1.57981">
        <ele>2188.701</ele>
        <time>2016-05-07T17:03:02Z</time>
      </trkpt>
      <trkpt lat="42.62355" lon="1.57997">
        <ele>2185.621</ele>
        <time>2016-05-07T17:03:22Z</time>
      </trkpt>
      <trkpt lat="42.62357" lon="1.58002">
        <ele>2185.608</ele>
        <time>2016-05-07T17:03:42Z</time>
      </trkpt>
      <trkpt lat="42.62366" lon="1.58014">
        <ele>2180.814</ele>
        <time>2016-05-07T17:04:02Z</time>
      </trkpt>
      <trkpt lat="42.6237" lon="1.58016">
        <ele>2178.486</ele>
        <time>2016-05-07T17:04:22Z</time>
      </trkpt>
      <trkpt lat="42.62373" lon="1.58022">
        <ele>2177.224</ele>
        <time>2016-05-07T17:04:42Z</time>
      </trkpt>
      <trkpt lat="42.62376" lon="1.58015">
        <ele>2174.722</ele>
        <time>2016-05-07T17:05:02Z</time>
      </trkpt>
      <trkpt lat="42.62379" lon="1.58008">
        <ele>2171.46</ele>
        <time>2016-05-07T17:05:22Z</time>
      </trkpt>
      <trkpt lat="42.62385" lon="1.58021">
        <ele>2170.151</ele>
        <time>2016-05-07T17:05:42Z</time>
      </trkpt>
      <trkpt lat="42.6239" lon="1.58016">
        <ele>2166.589</ele>
        <time>2016-05-07T17:06:02Z</time>
      </trkpt>
      <trkpt lat="42.62395" lon="1.58022">
        <ele>2167.677</ele>
        <time>2016-05-07T17:06:22Z</time>
      </trkpt>
      <trkpt lat="42.62391" lon="1.5803">
        <ele>2169.634</ele>
        <time>2016-05-07T17:06:42Z</time>
      </trkpt>
      <trkpt lat="42.62393" lon="1.58034">
        <ele>2170.555</ele>
        <time>2016-05-07T17:07:02Z</time>
      </trkpt>
      <trkpt lat="42.62395" lon="1.5803">
        <ele>2169.21</ele>
        <time>2016-05-07T17:07:22Z</time>
      </trkpt>
      <trkpt lat="42.62402" lon="1.58023">
        <ele>2167.608</ele>
        <time>2016-05-07T17:07:42Z</time>
      </trkpt>
      <trkpt lat="42.62406" lon="1.5802">
        <ele>2166.934</ele>
        <time>2016-05-07T17:08:02Z</time>
      </trkpt>
      <trkpt lat="42.6242" lon="1.58022">
        <ele>2168.626</ele>
        <time>2016-05-07T17:08:22Z</time>
      </trkpt>
      <trkpt lat="42.62423" lon="1.58018">
        <ele>2169.534</ele>
        <time>2016-05-07T17:08:42Z</time>
      </trkpt>
      <trkpt lat="42.62428" lon="1.58014">
        <ele>2171.882</ele>
        <time>2016-05-07T17:09:02Z</time>
      </trkpt>
      <trkpt lat="42.6243" lon="1.58012">
        <ele>2172.33</ele>
        <time>2016-05-07T17:09:22Z</time>
      </trkpt>
      <trkpt lat="42.62424" lon="1.5801">
        <ele>2169.071</ele>
        <time>2016-05-07T17:09:42Z</time>
      </trkpt>
      <trkpt lat="42.62429" lon="1.58004">
        <ele>2170.559</ele>
        <time>2016-05-07T17:10:02Z</time>
      </trkpt>
      <trkpt lat="42.62433" lon="1.57997">
        <ele>2171.697</ele>
        <time>2016-05-07T17:10:22Z</time>
      </trkpt>
      <trkpt lat="42.62435" lon="1.57997">
        <ele>2172.672</ele>
        <time>2016-05-07T17:10:42Z</time>
      </trkpt>
      <trkpt lat="42.62433" lon="1.5799">
        <ele>2170.513</ele>
        <time>2016-05-07T17:11:02Z</time>
      </trkpt>
      <trkpt lat="42.6243" lon="1.57984">
        <ele>2167.714</ele>
        <time>2016-05-07T17:11:22Z</time>
      </trkpt>
      <trkpt lat="42.62429" lon="1.57978">
        <ele>2165.908</ele>
        <time>2016-05-07T17:11:42Z</time>
      </trkpt>
      <trkpt lat="42.62429" lon="1.57973">
        <ele>2164.778</ele>
        <time>2016-05-07T17:12:02Z</time>
      </trkpt>
      <trkpt lat="42.62428" lon="1.57967">
        <ele>2163.07</ele>
        <time>2016-05-07T17:12:22Z</time>
      </trkpt>
      <trkpt lat="42.62432" lon="1.57964">
        <ele>2164.378</ele>
        <time>2016-05-07T17:12:42Z</time>
      </trkpt>
      <trkpt lat="42.62424" lon="1.57957">
        <ele>2158.946</ele>
        <time>2016-05-07T17:13:02Z</time>
      </trkpt>
      <trkpt lat="42.6242" lon="1.57951">
        <ele>2155.114</ele>
        <time>2016-05-07T17:13:22Z</time>
      </trkpt>
      <trkpt lat="42.62418" lon="1.57941">
        <ele>2152.345</ele>
        <time>2016-05-07T17:13:42Z</time>
      </trkpt>
      <trkpt lat="42.62417" lon="1.57929">
        <ele>2149.753</ele>
        <time>2016-05-07T17:14:02Z</time>
      </trkpt>
      <trkpt lat="42.62414" lon="1.5792">
        <ele>2148.261</ele>
        <time>2016-05-07T17:14:22Z</time>
      </trkpt>
      <trkpt lat="42.62409" lon="1.57904">
        <ele>2144.699</ele>
        <time>2016-05-07T17:14:42Z</time>
      </trkpt>
      <trkpt lat="42.62406" lon="1.5789">
        <ele>2140.907</ele>
        <time>2016-05-07T17:15:02Z</time>
      </trkpt>
      <trkpt lat="42.62403" lon="1.57881">
        <ele>2138.027</ele>
        <time>2016-05-07T17:15:22Z</time>
      </trkpt>
      <trkpt lat="42.62402" lon="1.57869">
        <ele>2134.608</ele>
        <time>2016-05-07T17:15:42Z</time>
      </trkpt>
      <trkpt lat="42.62399" lon="1.57853">
        <ele>2129.98</ele>
        <time>2016-05-07T17:16:02Z</time>
      </trkpt>
      <trkpt lat="42.62402" lon="1.57837">
        <ele>2127.022</ele>
        <time>2016-05-07T17:16:22Z</time>
      </trkpt>
      <trkpt lat="42.62399" lon="1.57797">
        <ele>2117.63</ele>
        <time>2016-05-07T17:16:42Z</time>
      </trkpt>
      <trkpt lat="42.62396" lon="1.57773">
        <ele>2112.318</ele>
        <time>2016-05-07T17:17:02Z</time>
      </trkpt>
      <trkpt lat="42.62398" lon="1.57713">
        <ele>2100.736</ele>
        <time>2016-05-07T17:17:22Z</time>
      </trkpt>
      <trkpt lat="42.62416" lon="1.57649">
        <ele>2093.677</ele>
        <time>2016-05-07T17:17:42Z</time>
      </trkpt>
      <trkpt lat="42.62408" lon="1.57542">
        <ele>2072.125</ele>
        <time>2016-05-07T17:18:02Z</time>
      </trkpt>
      <trkpt lat="42.62408" lon="1.57504">
        <ele>2062.873</ele>
        <time>2016-05-07T17:18:22Z</time>
      </trkpt>
      <trkpt lat="42.624" lon="1.57501">
        <ele>2058.673</ele>
        <time>2016-05-07T17:18:42Z</time>
      </trkpt>
      <trkpt lat="42.62397" lon="1.57488">
        <ele>2054.585</ele>
        <time>2016-05-07T17:19:02Z</time>
      </trkpt>
      <trkpt lat="42.62393" lon="1.57474">
        <ele>2049.913</ele>
        <time>2016-05-07T17:19:22Z</time>
      </trkpt>
      <trkpt lat="42.62386" lon="1.57464">
        <ele>2046.008</ele>
        <time>2016-05-07T17:19:42Z</time>
      </trkpt>
      <trkpt lat="42.62388" lon="1.57444">
        <ele>2042.788</ele>
        <time>2016-05-07T17:20:02Z</time>
      </trkpt>
      <trkpt lat="42.62377" lon="1.57427">
        <ele>2038.09</ele>
        <time>2016-05-07T17:20:22Z</time>
      </trkpt>
      <trkpt lat="42.62377" lon="1.57399">
        <ele>2033.778</ele>
        <time>2016-05-07T17:20:42Z</time>
      </trkpt>
      <trkpt lat="42.62379" lon="1.57391">
        <ele>2032.996</ele>
        <time>2016-05-07T17:21:02Z</time>
      </trkpt>
      <trkpt lat="42.62376" lon="1.57387">
        <ele>2031.914</ele>
        <time>2016-05-07T17:21:22Z</time>
      </trkpt>
      <trkpt lat="42.62374" lon="1.57383">
        <ele>2031.355</ele>
        <time>2016-05-07T17:21:42Z</time>
      </trkpt>
      <trkpt lat="42.62372" lon="1.57382">
        <ele>2030.823</ele>
        <time>2016-05-07T17:22:02Z</time>
      </trkpt>
      <trkpt lat="42.6237" lon="1.57381">
        <ele>2030.441</ele>
        <time>2016-05-07T17:22:22Z</time>
      </trkpt>
      <trkpt lat="42.62366" lon="1.57378">
        <ele>2029.616</ele>
        <time>2016-05-07T17:22:42Z</time>
      </trkpt>
      <trkpt lat="42.62365" lon="1.57373">
        <ele>2028.876</ele>
        <time>2016-05-07T17:23:02Z</time>
      </trkpt>
      <trkpt lat="42.62365" lon="1.57364">
        <ele>2027.813</ele>
        <time>2016-05-07T17:23:22Z</time>
      </trkpt>
      <trkpt lat="42.62363" lon="1.57358">
        <ele>2027.108</ele>
        <time>2016-05-07T17:23:42Z</time>
      </trkpt>
      <trkpt lat="42.62361" lon="1.57345">
        <ele>2025.822</ele>
        <time>2016-05-07T17:24:02Z</time>
      </trkpt>
      <trkpt lat="42.62363" lon="1.57329">
        <ele>2024.944</ele>
        <time>2016-05-07T17:24:22Z</time>
      </trkpt>
      <trkpt lat="42.62362" lon="1.5732">
        <ele>2024.272</ele>
        <time>2016-05-07T17:24:42Z</time>
      </trkpt>
      <trkpt lat="42.62364" lon="1.57313">
        <ele>2023.99</ele>
        <time>2016-05-07T17:25:02Z</time>
      </trkpt>
      <trkpt lat="42.62363" lon="1.57307">
        <ele>2023.478</ele>
        <time>2016-05-07T17:25:22Z</time>
      </trkpt>
      <trkpt lat="42.62362" lon="1.57305">
        <ele>2023.179</ele>
        <time>2016-05-07T17:25:42Z</time>
      </trkpt>
      <trkpt lat="42.62366" lon="1.57306">
        <ele>2023.737</ele>
        <time>2016-05-07T17:26:02Z</time>
      </trkpt>
      <trkpt lat="42.62364" lon="1.5729">
        <ele>2022.445</ele>
        <time>2016-05-07T17:26:22Z</time>
      </trkpt>
      <trkpt lat="42.62363" lon="1.57275">
        <ele>2021.233</ele>
        <time>2016-05-07T17:26:42Z</time>
      </trkpt>
      <trkpt lat="42.62362" lon="1.57263">
        <ele>2020.123</ele>
        <time>2016-05-07T17:27:02Z</time>
      </trkpt>
      <trkpt lat="42.62362" lon="1.57252">
        <ele>2019.215</ele>
        <time>2016-05-07T17:27:22Z</time>
      </trkpt>
      <trkpt lat="42.62365" lon="1.57247">
        <ele>2019.408</ele>
        <time>2016-05-07T17:27:42Z</time>
      </trkpt>
      <trkpt lat="42.62369" lon="1.57233">
        <ele>2019.434</ele>
        <time>2016-05-07T17:28:02Z</time>
      </trkpt>
      <trkpt lat="42.62368" lon="1.57214">
        <ele>2018.686</ele>
        <time>2016-05-07T17:28:22Z</time>
      </trkpt>
      <trkpt lat="42.62368" lon="1.57201">
        <ele>2018.674</ele>
        <time>2016-05-07T17:28:42Z</time>
      </trkpt>
      <trkpt lat="42.62369" lon="1.57193">
        <ele>2018.932</ele>
        <time>2016-05-07T17:29:02Z</time>
      </trkpt>
      <trkpt lat="42.62368" lon="1.57186">
        <ele>2018.82</ele>
        <time>2016-05-07T17:29:22Z</time>
      </trkpt>
      <trkpt lat="42.62369" lon="1.57181">
        <ele>2019.251</ele>
        <time>2016-05-07T17:29:42Z</time>
      </trkpt>
      <trkpt lat="42.62367" lon="1.57172">
        <ele>2018.539</ele>
        <time>2016-05-07T17:30:02Z</time>
      </trkpt>
      <trkpt lat="42.62368" lon="1.5716">
        <ele>2018.857</ele>
        <time>2016-05-07T17:30:22Z</time>
      </trkpt>
      <trkpt lat="42.62366" lon="1.57149">
        <ele>2018.143</ele>
        <time>2016-05-07T17:30:42Z</time>
      </trkpt>
      <trkpt lat="42.62368" lon="1.57123">
        <ele>2017.864</ele>
        <time>2016-05-07T17:31:02Z</time>
      </trkpt>
      <trkpt lat="42.62368" lon="1.57095">
        <ele>2017.61</ele>
        <time>2016-05-07T17:31:22Z</time>
      </trkpt>
      <trkpt lat="42.62359" lon="1.5706">
        <ele>2014.408</ele>
        <time>2016-05-07T17:31:42Z</time>
      </trkpt>
      <trkpt lat="42.62356" lon="1.57035">
        <ele>2014.535</ele>
        <time>2016-05-07T17:32:02Z</time>
      </trkpt>
      <trkpt lat="42.62345" lon="1.57003">
        <ele>2011.847</ele>
        <time>2016-05-07T17:32:22Z</time>
      </trkpt>
      <trkpt lat="42.62344" lon="1.56963">
        <ele>2008.955</ele>
        <time>2016-05-07T17:32:42Z</time>
      </trkpt>
      <trkpt lat="42.62339" lon="1.56947">
        <ele>2007.543</ele>
        <time>2016-05-07T17:33:02Z</time>
      </trkpt>
      <trkpt lat="42.62338" lon="1.56921">
        <ele>2006.751</ele>
        <time>2016-05-07T17:33:22Z</time>
      </trkpt>
      <trkpt lat="42.62326" lon="1.56875">
        <ele>2004.452</ele>
        <time>2016-05-07T17:33:42Z</time>
      </trkpt>
      <trkpt lat="42.62325" lon="1.56833">
        <ele>2004.01</ele>
        <time>2016-05-07T17:34:02Z</time>
      </trkpt>
      <trkpt lat="42.62321" lon="1.56789">
        <ele>2001.928</ele>
        <time>2016-05-07T17:34:22Z</time>
      </trkpt>
      <trkpt lat="42.62318" lon="1.56735">
        <ele>1999.719</ele>
        <time>2016-05-07T17:34:42Z</time>
      </trkpt>
      <trkpt lat="42.62317" lon="1.5669">
        <ele>1997.709</ele>
        <time>2016-05-07T17:35:02Z</time>
      </trkpt>
      <trkpt lat="42.62313" lon="1.56649">
        <ele>1993.319</ele>
        <time>2016-05-07T17:35:22Z</time>
      </trkpt>
      <trkpt lat="42.62311" lon="1.56602">
        <ele>1990.008</ele>
        <time>2016-05-07T17:35:42Z</time>
      </trkpt>
      <trkpt lat="42.62303" lon="1.56535">
        <ele>1986.522</ele>
        <time>2016-05-07T17:36:02Z</time>
      </trkpt>
      <trkpt lat="42.62306" lon="1.56506">
        <ele>1986.354</ele>
        <time>2016-05-07T17:36:22Z</time>
      </trkpt>
      <trkpt lat="42.62299" lon="1.56464">
        <ele>1982.932</ele>
        <time>2016-05-07T17:36:42Z</time>
      </trkpt>
      <trkpt lat="42.62296" lon="1.56453">
        <ele>1981.52</ele>
        <time>2016-05-07T17:37:02Z</time>
      </trkpt>
      <trkpt lat="42.62292" lon="1.56441">
        <ele>1980.018</ele>
        <time>2016-05-07T17:37:22Z</time>
      </trkpt>
      <trkpt lat="42.62287" lon="1.56429">
        <ele>1977.579</ele>
        <time>2016-05-07T17:37:42Z</time>
      </trkpt>
      <trkpt lat="42.62285" lon="1.5642">
        <ele>1976.227</ele>
        <time>2016-05-07T17:38:02Z</time>
      </trkpt>
      <trkpt lat="42.62277" lon="1.56407">
        <ele>1972.585</ele>
        <time>2016-05-07T17:38:22Z</time>
      </trkpt>
      <trkpt lat="42.62273" lon="1.56402">
        <ele>1971.096</ele>
        <time>2016-05-07T17:38:42Z</time>
      </trkpt>
      <trkpt lat="42.62269" lon="1.56399">
        <ele>1969.631</ele>
        <time>2016-05-07T17:39:02Z</time>
      </trkpt>
      <trkpt lat="42.62262" lon="1.56392">
        <ele>1967.224</ele>
        <time>2016-05-07T17:39:22Z</time>
      </trkpt>
      <trkpt lat="42.62258" lon="1.56383">
        <ele>1965.508</ele>
        <time>2016-05-07T17:39:42Z</time>
      </trkpt>
      <trkpt lat="42.62225" lon="1.56248">
        <ele>1945.02</ele>
        <time>2016-05-07T17:40:02Z</time>
      </trkpt>
      <trkpt lat="42.62201" lon="1.56151">
        <ele>1930.262</ele>
        <time>2016-05-07T17:40:22Z</time>
      </trkpt>
      <trkpt lat="42.62192" lon="1.56072">
        <ele>1922.29</ele>
        <time>2016-05-07T17:40:42Z</time>
      </trkpt>
      <trkpt lat="42.62182" lon="1.55963">
        <ele>1911.028</ele>
        <time>2016-05-07T17:41:02Z</time>
      </trkpt>
      <trkpt lat="42.62156" lon="1.5589">
        <ele>1904.276</ele>
        <time>2016-05-07T17:41:22Z</time>
      </trkpt>
      <trkpt lat="42.62136" lon="1.5584">
        <ele>1899.367</ele>
        <time>2016-05-07T17:41:42Z</time>
      </trkpt>
      <trkpt lat="42.6215" lon="1.55781">
        <ele>1897.055</ele>
        <time>2016-05-07T17:42:02Z</time>
      </trkpt>
      <trkpt lat="42.62162" lon="1.55664">
        <ele>1890.413</ele>
        <time>2016-05-07T17:42:22Z</time>
      </trkpt>
      <trkpt lat="42.62163" lon="1.55601">
        <ele>1881.984</ele>
        <time>2016-05-07T17:42:42Z</time>
      </trkpt>
      <trkpt lat="42.6221" lon="1.55518">
        <ele>1877.407</ele>
        <time>2016-05-07T17:43:02Z</time>
      </trkpt>
      <trkpt lat="42.62233" lon="1.55483">
        <ele>1874.717</ele>
        <time>2016-05-07T17:43:22Z</time>
      </trkpt>
      <trkpt lat="42.62248" lon="1.55461">
        <ele>1872.008</ele>
        <time>2016-05-07T17:43:42Z</time>
      </trkpt>
      <trkpt lat="42.6226" lon="1.55398">
        <ele>1868.099</ele>
        <time>2016-05-07T17:44:02Z</time>
      </trkpt>
      <trkpt lat="42.62296" lon="1.55336">
        <ele>1870.391</ele>
        <time>2016-05-07T17:44:22Z</time>
      </trkpt>
      <trkpt lat="42.62298" lon="1.5532">
        <ele>1863.729</ele>
        <time>2016-05-07T17:44:42Z</time>
      </trkpt>
      <trkpt lat="42.62296" lon="1.55316">
        <ele>1861.677</ele>
        <time>2016-05-07T17:45:02Z</time>
      </trkpt>
      <trkpt lat="42.62293" lon="1.55312">
        <ele>1859.815</ele>
        <time>2016-05-07T17:45:22Z</time>
      </trkpt>
      <trkpt lat="42.62293" lon="1.55307">
        <ele>1858.176</ele>
        <time>2016-05-07T17:45:42Z</time>
      </trkpt>
      <trkpt lat="42.62294" lon="1.55302">
        <ele>1855.584</ele>
        <time>2016-05-07T17:46:02Z</time>
      </trkpt>
      <trkpt lat="42.62294" lon="1.55297">
        <ele>1852.892</ele>
        <time>2016-05-07T17:46:22Z</time>
      </trkpt>
      <trkpt lat="42.62291" lon="1.55293">
        <ele>1851.045</ele>
        <time>2016-05-07T17:46:42Z</time>
      </trkpt>
      <trkpt lat="42.62287" lon="1.55287">
        <ele>1847.547</ele>
        <time>2016-05-07T17:47:02Z</time>
      </trkpt>
      <trkpt lat="42.62292" lon="1.55283">
        <ele>1845.911</ele>
        <time>2016-05-07T17:47:22Z</time>
      </trkpt>
      <trkpt lat="42.62297" lon="1.55282">
        <ele>1845.308</ele>
        <time>2016-05-07T17:47:42Z</time>
      </trkpt>
      <trkpt lat="42.62302" lon="1.55273">
        <ele>1841.275</ele>
        <time>2016-05-07T17:48:02Z</time>
      </trkpt>
      <trkpt lat="42.62305" lon="1.5526">
        <ele>1835.537</ele>
        <time>2016-05-07T17:48:22Z</time>
      </trkpt>
      <trkpt lat="42.62307" lon="1.55254">
        <ele>1833.085</ele>
        <time>2016-05-07T17:48:42Z</time>
      </trkpt>
      <trkpt lat="42.6231" lon="1.5525">
        <ele>1831.623</ele>
        <time>2016-05-07T17:49:02Z</time>
      </trkpt>
      <trkpt lat="42.62318" lon="1.55242">
        <ele>1829.661</ele>
        <time>2016-05-07T17:49:22Z</time>
      </trkpt>
      <trkpt lat="42.62324" lon="1.55229">
        <ele>1825.212</ele>
        <time>2016-05-07T17:49:42Z</time>
      </trkpt>
      <trkpt lat="42.62328" lon="1.55223">
        <ele>1822.81</ele>
        <time>2016-05-07T17:50:02Z</time>
      </trkpt>
      <trkpt lat="42.62333" lon="1.55218">
        <ele>1820.948</ele>
        <time>2016-05-07T17:50:22Z</time>
      </trkpt>
      <trkpt lat="42.62337" lon="1.55213">
        <ele>1818.577</ele>
        <time>2016-05-07T17:50:42Z</time>
      </trkpt>
      <trkpt lat="42.6234" lon="1.55207">
        <ele>1815.861</ele>
        <time>2016-05-07T17:51:02Z</time>
      </trkpt>
      <trkpt lat="42.62342" lon="1.55202">
        <ele>1813.127</ele>
        <time>2016-05-07T17:51:22Z</time>
      </trkpt>
      <trkpt lat="42.62345" lon="1.55198">
        <ele>1810.608</ele>
        <time>2016-05-07T17:51:42Z</time>
      </trkpt>
      <trkpt lat="42.62346" lon="1.55193">
        <ele>1808.218</ele>
        <time>2016-05-07T17:52:02Z</time>
      </trkpt>
      <trkpt lat="42.62344" lon="1.55188">
        <ele>1806.68</ele>
        <time>2016-05-07T17:52:22Z</time>
      </trkpt>
      <trkpt lat="42.62338" lon="1.55186">
        <ele>1806.748</ele>
        <time>2016-05-07T17:52:42Z</time>
      </trkpt>
      <trkpt lat="42.62335" lon="1.55182">
        <ele>1805.976</ele>
        <time>2016-05-07T17:53:02Z</time>
      </trkpt>
      <trkpt lat="42.6233" lon="1.5518">
        <ele>1805.644</ele>
        <time>2016-05-07T17:53:22Z</time>
      </trkpt>
      <trkpt lat="42.62326" lon="1.55175">
        <ele>1804.255</ele>
        <time>2016-05-07T17:53:42Z</time>
      </trkpt>
      <trkpt lat="42.62322" lon="1.5517">
        <ele>1803.023</ele>
        <time>2016-05-07T17:54:02Z</time>
      </trkpt>
      <trkpt lat="42.62317" lon="1.55163">
        <ele>1800.831</ele>
        <time>2016-05-07T17:54:22Z</time>
      </trkpt>
      <trkpt lat="42.62303" lon="1.55157">
        <ele>1799.574</ele>
        <time>2016-05-07T17:54:42Z</time>
      </trkpt>
      <trkpt lat="42.62296" lon="1.55151">
        <ele>1796.356</ele>
        <time>2016-05-07T17:55:02Z</time>
      </trkpt>
      <trkpt lat="42.62278" lon="1.55159">
        <ele>1796.421</ele>
        <time>2016-05-07T17:55:22Z</time>
      </trkpt>
      <trkpt lat="42.62276" lon="1.55147">
        <ele>1791.508</ele>
        <time>2016-05-07T17:55:42Z</time>
      </trkpt>
      <trkpt lat="42.62281" lon="1.55136">
        <ele>1788.538</ele>
        <time>2016-05-07T17:56:02Z</time>
      </trkpt>
      <trkpt lat="42.62284" lon="1.55131">
        <ele>1787.18</ele>
        <time>2016-05-07T17:56:22Z</time>
      </trkpt>
      <trkpt lat="42.6229" lon="1.55117">
        <ele>1782.198</ele>
        <time>2016-05-07T17:56:42Z</time>
      </trkpt>
      <trkpt lat="42.62295" lon="1.5511">
        <ele>1780.176</ele>
        <time>2016-05-07T17:57:02Z</time>
      </trkpt>
      <trkpt lat="42.623" lon="1.55104">
        <ele>1778.724</ele>
        <time>2016-05-07T17:57:22Z</time>
      </trkpt>
      <trkpt lat="42.62305" lon="1.551">
        <ele>1778.085</ele>
        <time>2016-05-07T17:57:42Z</time>
      </trkpt>
      <trkpt lat="42.62312" lon="1.55097">
        <ele>1775.893</ele>
        <time>2016-05-07T17:58:02Z</time>
      </trkpt>
      <trkpt lat="42.6232" lon="1.55097">
        <ele>1774.181</ele>
        <time>2016-05-07T17:58:22Z</time>
      </trkpt>
      <trkpt lat="42.62323" lon="1.55091">
        <ele>1771.845</ele>
        <time>2016-05-07T17:58:42Z</time>
      </trkpt>
      <trkpt lat="42.62323" lon="1.55087">
        <ele>1770.747</ele>
        <time>2016-05-07T17:59:02Z</time>
      </trkpt>
      <trkpt lat="42.62323" lon="1.55078">
        <ele>1767.411</ele>
        <time>2016-05-07T17:59:22Z</time>
      </trkpt>
      <trkpt lat="42.6232" lon="1.55076">
        <ele>1766.908</ele>
        <time>2016-05-07T17:59:42Z</time>
      </trkpt>
      <trkpt lat="42.62318" lon="1.55071">
        <ele>1765.485</ele>
        <time>2016-05-07T18:00:02Z</time>
      </trkpt>
      <trkpt lat="42.62317" lon="1.55067">
        <ele>1764.077</ele>
        <time>2016-05-07T18:00:22Z</time>
      </trkpt>
      <trkpt lat="42.62318" lon="1.55059">
        <ele>1761.085</ele>
        <time>2016-05-07T18:00:42Z</time>
      </trkpt>
      <trkpt lat="42.62319" lon="1.55053">
        <ele>1758.783</ele>
        <time>2016-05-07T18:01:02Z</time>
      </trkpt>
      <trkpt lat="42.62323" lon="1.55046">
        <ele>1756.731</ele>
        <time>2016-05-07T18:01:22Z</time>
      </trkpt>
      <trkpt lat="42.62352" lon="1.5506">
        <ele>1753.892</ele>
        <time>2016-05-07T18:01:42Z</time>
      </trkpt>
      <trkpt lat="42.62353" lon="1.55048">
        <ele>1749.69</ele>
        <time>2016-05-07T18:02:02Z</time>
      </trkpt>
      <trkpt lat="42.62347" lon="1.55032">
        <ele>1747.138</ele>
        <time>2016-05-07T18:02:22Z</time>
      </trkpt>
      <trkpt lat="42.62342" lon="1.55031">
        <ele>1748.877</ele>
        <time>2016-05-07T18:02:42Z</time>
      </trkpt>
      <trkpt lat="42.62339" lon="1.55018">
        <ele>1745.361</ele>
        <time>2016-05-07T18:03:02Z</time>
      </trkpt>
      <trkpt lat="42.62376" lon="1.55013">
        <ele>1732.927</ele>
        <time>2016-05-07T18:03:22Z</time>
      </trkpt>
      <trkpt lat="42.62369" lon="1.54994">
        <ele>1728.908</ele>
        <time>2016-05-07T18:03:42Z</time>
      </trkpt>
      <trkpt lat="42.62387" lon="1.55">
        <ele>1726.588</ele>
        <time>2016-05-07T18:04:02Z</time>
      </trkpt>
      <trkpt lat="42.62404" lon="1.54973">
        <ele>1716.51</ele>
        <time>2016-05-07T18:04:22Z</time>
      </trkpt>
      <trkpt lat="42.62385" lon="1.54958">
        <ele>1714.948</ele>
        <time>2016-05-07T18:04:42Z</time>
      </trkpt>
      <trkpt lat="42.62377" lon="1.54934">
        <ele>1711.756</ele>
        <time>2016-05-07T18:05:02Z</time>
      </trkpt>
      <trkpt lat="42.62389" lon="1.54934">
        <ele>1707.694</ele>
        <time>2016-05-07T18:05:22Z</time>
      </trkpt>
      <trkpt lat="42.62381" lon="1.54913">
        <ele>1705.735</ele>
        <time>2016-05-07T18:05:42Z</time>
      </trkpt>
      <trkpt lat="42.62387" lon="1.54898">
        <ele>1699.713</ele>
        <time>2016-05-07T18:06:02Z</time>
      </trkpt>
      <trkpt lat="42.62384" lon="1.54878">
        <ele>1697.111</ele>
        <time>2016-05-07T18:06:22Z</time>
      </trkpt>
      <trkpt lat="42.62384" lon="1.54864">
        <ele>1694.932</ele>
        <time>2016-05-07T18:06:42Z</time>
      </trkpt>
      <trkpt lat="42.62386" lon="1.54838">
        <ele>1690.492</ele>
        <time>2016-05-07T18:07:02Z</time>
      </trkpt>
      <trkpt lat="42.62383" lon="1.54828">
        <ele>1689.411</ele>
        <time>2016-05-07T18:07:22Z</time>
      </trkpt>
      <trkpt lat="42.62386" lon="1.54805">
        <ele>1684.408</ele>
        <time>2016-05-07T18:07:42Z</time>
      </trkpt>
      <trkpt lat="42.62378" lon="1.54791">
        <ele>1683.384</ele>
        <time>2016-05-07T18:08:02Z</time>
      </trkpt>
      <trkpt lat="42.62374" lon="1.54765">
        <ele>1678.576</ele>
        <time>2016-05-07T18:08:22Z</time>
      </trkpt>
      <trkpt lat="42.62367" lon="1.5474">
        <ele>1674.214</ele>
        <time>2016-05-07T18:08:42Z</time>
      </trkpt>
      <trkpt lat="42.62368" lon="1.54731">
        <ele>1673.582</ele>
        <time>2016-05-07T18:09:02Z</time>
      </trkpt>
      <trkpt lat="42.62368" lon="1.54722">
        <ele>1672.83</ele>
        <time>2016-05-07T18:09:22Z</time>
      </trkpt>
      <trkpt lat="42.62364" lon="1.54715">
        <ele>1671.131</ele>
        <time>2016-05-07T18:09:42Z</time>
      </trkpt>
      <trkpt lat="42.62359" lon="1.54707">
        <ele>1669.969</ele>
        <time>2016-05-07T18:10:02Z</time>
      </trkpt>
      <trkpt lat="42.62344" lon="1.54693">
        <ele>1667.777</ele>
        <time>2016-05-07T18:10:22Z</time>
      </trkpt>
      <trkpt lat="42.62335" lon="1.54678">
        <ele>1664.322</ele>
        <time>2016-05-07T18:10:42Z</time>
      </trkpt>
      <trkpt lat="42.62324" lon="1.5465">
        <ele>1662.562</ele>
        <time>2016-05-07T18:11:02Z</time>
      </trkpt>
      <trkpt lat="42.62318" lon="1.54633">
        <ele>1660.608</ele>
        <time>2016-05-07T18:11:22Z</time>
      </trkpt>
      <trkpt lat="42.62313" lon="1.54629">
        <ele>1659.908</ele>
        <time>2016-05-07T18:11:42Z</time>
      </trkpt>
      <trkpt lat="42.62311" lon="1.54602">
        <ele>1657.323</ele>
        <time>2016-05-07T18:12:02Z</time>
      </trkpt>
      <trkpt lat="42.62313" lon="1.54585">
        <ele>1658.145</ele>
        <time>2016-05-07T18:12:22Z</time>
      </trkpt>
      <trkpt lat="42.62288" lon="1.5455">
        <ele>1653.543</ele>
        <time>2016-05-07T18:12:42Z</time>
      </trkpt>
      <trkpt lat="42.62281" lon="1.54529">
        <ele>1651.611</ele>
        <time>2016-05-07T18:13:02Z</time>
      </trkpt>
      <trkpt lat="42.62259" lon="1.54502">
        <ele>1647.719</ele>
        <time>2016-05-07T18:13:22Z</time>
      </trkpt>
      <trkpt lat="42.62257" lon="1.54491">
        <ele>1649.09</ele>
        <time>2016-05-07T18:13:42Z</time>
      </trkpt>
      <trkpt lat="42.62236" lon="1.54463">
        <ele>1646.868</ele>
        <time>2016-05-07T18:14:02Z</time>
      </trkpt>
      <trkpt lat="42.62229" lon="1.54451">
        <ele>1647.246</ele>
        <time>2016-05-07T18:14:22Z</time>
      </trkpt>
      <trkpt lat="42.6223" lon="1.54451">
        <ele>1647.739</ele>
        <time>2016-05-07T18:14:42Z</time>
      </trkpt>
      <trkpt lat="42.62225" lon="1.54443">
        <ele>1647.301</ele>
        <time>2016-05-07T18:15:02Z</time>
      </trkpt>
      <trkpt lat="42.62213" lon="1.54428">
        <ele>1646.121</ele>
        <time>2016-05-07T18:15:22Z</time>
      </trkpt>
      <trkpt lat="42.622" lon="1.54396">
        <ele>1647.108</ele>
        <time>2016-05-07T18:15:42Z</time>
      </trkpt>
      <trkpt lat="42.62189" lon="1.54379">
        <ele>1643.724</ele>
        <time>2016-05-07T18:16:02Z</time>
      </trkpt>
      <trkpt lat="42.6218" lon="1.5436">
        <ele>1642.686</ele>
        <time>2016-05-07T18:16:22Z</time>
      </trkpt>
      <trkpt lat="42.62164" lon="1.54339">
        <ele>1639.474</ele>
        <time>2016-05-07T18:16:42Z</time>
      </trkpt>
      <trkpt lat="42.62155" lon="1.54327">
        <ele>1638.672</ele>
        <time>2016-05-07T18:17:02Z</time>
      </trkpt>
      <trkpt lat="42.62133" lon="1.54314">
        <ele>1633.85</ele>
        <time>2016-05-07T18:17:22Z</time>
      </trkpt>
      <trkpt lat="42.62117" lon="1.54292">
        <ele>1631.181</ele>
        <time>2016-05-07T18:17:42Z</time>
      </trkpt>
      <trkpt lat="42.62114" lon="1.54282">
        <ele>1630.849</ele>
        <time>2016-05-07T18:18:02Z</time>
      </trkpt>
      <trkpt lat="42.62111" lon="1.54271">
        <ele>1631.197</ele>
        <time>2016-05-07T18:18:22Z</time>
      </trkpt>
      <trkpt lat="42.62108" lon="1.54258">
        <ele>1631.258</ele>
        <time>2016-05-07T18:18:42Z</time>
      </trkpt>
      <trkpt lat="42.62099" lon="1.54248">
        <ele>1628.352</ele>
        <time>2016-05-07T18:19:02Z</time>
      </trkpt>
      <trkpt lat="42.621" lon="1.54269">
        <ele>1626.317</ele>
        <time>2016-05-07T18:19:22Z</time>
      </trkpt>
      <trkpt lat="42.62087" lon="1.54279">
        <ele>1619.708</ele>
        <time>2016-05-07T18:19:42Z</time>
      </trkpt>
      <trkpt lat="42.62078" lon="1.54266">
        <ele>1617.836</ele>
        <time>2016-05-07T18:20:02Z</time>
      </trkpt>
      <trkpt lat="42.6207" lon="1.54246">
        <ele>1617.188</ele>
        <time>2016-05-07T18:20:22Z</time>
      </trkpt>
      <trkpt lat="42.62063" lon="1.54225">
        <ele>1616.376</ele>
        <time>2016-05-07T18:20:42Z</time>
      </trkpt>
      <trkpt lat="42.62057" lon="1.54206">
        <ele>1614.784</ele>
        <time>2016-05-07T18:21:02Z</time>
      </trkpt>
      <trkpt lat="42.62052" lon="1.54177">
        <ele>1611.462</ele>
        <time>2016-05-07T18:21:22Z</time>
      </trkpt>
      <trkpt lat="42.62049" lon="1.54156">
        <ele>1609.723</ele>
        <time>2016-05-07T18:21:42Z</time>
      </trkpt>
      <trkpt lat="42.62045" lon="1.54143">
        <ele>1608.341</ele>
        <time>2016-05-07T18:22:02Z</time>
      </trkpt>
      <trkpt lat="42.62039" lon="1.54129">
        <ele>1606.439</ele>
        <time>2016-05-07T18:22:22Z</time>
      </trkpt>
      <trkpt lat="42.62031" lon="1.5411">
        <ele>1604.587</ele>
        <time>2016-05-07T18:22:42Z</time>
      </trkpt>
      <trkpt lat="42.62022" lon="1.54092">
        <ele>1603.042</ele>
        <time>2016-05-07T18:23:02Z</time>
      </trkpt>
      <trkpt lat="42.62016" lon="1.5407">
        <ele>1601.926</ele>
        <time>2016-05-07T18:23:22Z</time>
      </trkpt>
      <trkpt lat="42.6201" lon="1.54047">
        <ele>1601.108</ele>
        <time>2016-05-07T18:23:42Z</time>
      </trkpt>
      <trkpt lat="42.62006" lon="1.54017">
        <ele>1600.729</ele>
        <time>2016-05-07T18:24:02Z</time>
      </trkpt>
      <trkpt lat="42.62003" lon="1.54001">
        <ele>1599.381</ele>
        <time>2016-05-07T18:24:22Z</time>
      </trkpt>
      <trkpt lat="42.61996" lon="1.53977">
        <ele>1596.269</ele>
        <time>2016-05-07T18:24:42Z</time>
      </trkpt>
      <trkpt lat="42.61989" lon="1.53951">
        <ele>1593.837</ele>
        <time>2016-05-07T18:25:02Z</time>
      </trkpt>
      <trkpt lat="42.6198" lon="1.53933">
        <ele>1592.415</ele>
        <time>2016-05-07T18:25:22Z</time>
      </trkpt>
      <trkpt lat="42.61972" lon="1.53922">
        <ele>1590.966</ele>
        <time>2016-05-07T18:25:42Z</time>
      </trkpt>
      <trkpt lat="42.61962" lon="1.53914">
        <ele>1588.734</ele>
        <time>2016-05-07T18:26:02Z</time>
      </trkpt>
      <trkpt lat="42.61954" lon="1.53906">
        <ele>1586.652</ele>
        <time>2016-05-07T18:26:22Z</time>
      </trkpt>
      <trkpt lat="42.61947" lon="1.53884">
        <ele>1584.536</ele>
        <time>2016-05-07T18:26:42Z</time>
      </trkpt>
      <trkpt lat="42.61948" lon="1.53869">
        <ele>1582.817</ele>
        <time>2016-05-07T18:27:02Z</time>
      </trkpt>
      <trkpt lat="42.61949" lon="1.53854">
        <ele>1581.318</ele>
        <time>2016-05-07T18:27:22Z</time>
      </trkpt>
      <trkpt lat="42.61948" lon="1.53848">
        <ele>1580.108</ele>
        <time>2016-05-07T18:27:42Z</time>
      </trkpt>
      <trkpt lat="42.61941" lon="1.53849">
        <ele>1577.744</ele>
        <time>2016-05-07T18:28:02Z</time>
      </trkpt>
      <trkpt lat="42.61937" lon="1.53855">
        <ele>1577.216</ele>
        <time>2016-05-07T18:28:22Z</time>
      </trkpt>
      <trkpt lat="42.61932" lon="1.53856">
        <ele>1575.774</ele>
        <time>2016-05-07T18:28:42Z</time>
      </trkpt>
      <trkpt lat="42.61927" lon="1.53861">
        <ele>1575.052</ele>
        <time>2016-05-07T18:29:02Z</time>
      </trkpt>
      <trkpt lat="42.61923" lon="1.53867">
        <ele>1574.77</ele>
        <time>2016-05-07T18:29:22Z</time>
      </trkpt>
      <trkpt lat="42.61921" lon="1.53874">
        <ele>1575.111</ele>
        <time>2016-05-07T18:29:42Z</time>
      </trkpt>
      <trkpt lat="42.61915" lon="1.53888">
        <ele>1575.289</ele>
        <time>2016-05-07T18:30:02Z</time>
      </trkpt>
      <trkpt lat="42.6191" lon="1.53894">
        <ele>1573.487</ele>
        <time>2016-05-07T18:30:22Z</time>
      </trkpt>
      <trkpt lat="42.61906" lon="1.53897">
        <ele>1571.833</ele>
        <time>2016-05-07T18:30:42Z</time>
      </trkpt>
      <trkpt lat="42.619" lon="1.53898">
        <ele>1569.723</ele>
        <time>2016-05-07T18:31:02Z</time>
      </trkpt>
      <trkpt lat="42.6189" lon="1.53897">
        <ele>1566.515</ele>
        <time>2016-05-07T18:31:22Z</time>
      </trkpt>
      <trkpt lat="42.61884" lon="1.53896">
        <ele>1564.608</ele>
        <time>2016-05-07T18:31:42Z</time>
      </trkpt>
      <trkpt lat="42.61879" lon="1.53895">
        <ele>1563.174</ele>
        <time>2016-05-07T18:32:02Z</time>
      </trkpt>
      <trkpt lat="42.61873" lon="1.53897">
        <ele>1561.576</ele>
        <time>2016-05-07T18:32:22Z</time>
      </trkpt>
      <trkpt lat="42.61866" lon="1.53897">
        <ele>1559.484</ele>
        <time>2016-05-07T18:32:42Z</time>
      </trkpt>
      <trkpt lat="42.61861" lon="1.53896">
        <ele>1557.952</ele>
        <time>2016-05-07T18:33:02Z</time>
      </trkpt>
      <trkpt lat="42.61857" lon="1.53895">
        <ele>1557.02</ele>
        <time>2016-05-07T18:33:22Z</time>
      </trkpt>
      <trkpt lat="42.61849" lon="1.5389">
        <ele>1555.041</ele>
        <time>2016-05-07T18:33:42Z</time>
      </trkpt>
      <trkpt lat="42.61842" lon="1.53875">
        <ele>1553.559</ele>
        <time>2016-05-07T18:34:02Z</time>
      </trkpt>
      <trkpt lat="42.61837" lon="1.53865">
        <ele>1552.587</ele>
        <time>2016-05-07T18:34:22Z</time>
      </trkpt>
      <trkpt lat="42.61837" lon="1.53849">
        <ele>1551.751</ele>
        <time>2016-05-07T18:34:42Z</time>
      </trkpt>
      <trkpt lat="42.61834" lon="1.53838">
        <ele>1550.501</ele>
        <time>2016-05-07T18:35:02Z</time>
      </trkpt>
      <trkpt lat="42.61822" lon="1.53825">
        <ele>1547.711</ele>
        <time>2016-05-07T18:35:22Z</time>
      </trkpt>
      <trkpt lat="42.61818" lon="1.53809">
        <ele>1545.508</ele>
        <time>2016-05-07T18:35:42Z</time>
      </trkpt>
      <trkpt lat="42.61824" lon="1.53795">
        <ele>1544.846</ele>
        <time>2016-05-07T18:36:02Z</time>
      </trkpt>
      <trkpt lat="42.61821" lon="1.53778">
        <ele>1541.678</ele>
        <time>2016-05-07T18:36:22Z</time>
      </trkpt>
      <trkpt lat="42.61806" lon="1.53784">
        <ele>1538.426</ele>
        <time>2016-05-07T18:36:42Z</time>
      </trkpt>
      <trkpt lat="42.61786" lon="1.53793">
        <ele>1534.094</ele>
        <time>2016-05-07T18:37:02Z</time>
      </trkpt>
      <trkpt lat="42.6177" lon="1.53791">
        <ele>1528.542</ele>
        <time>2016-05-07T18:37:22Z</time>
      </trkpt>
      <trkpt lat="42.61769" lon="1.53754">
        <ele>1525.153</ele>
        <time>2016-05-07T18:37:42Z</time>
      </trkpt>
      <trkpt lat="42.61775" lon="1.53722">
        <ele>1524.871</ele>
        <time>2016-05-07T18:38:02Z</time>
      </trkpt>
      <trkpt lat="42.61767" lon="1.53699">
        <ele>1526.669</ele>
        <time>2016-05-07T18:38:22Z</time>
      </trkpt>
      <trkpt lat="42.61759" lon="1.53693">
        <ele>1527.476</ele>
        <time>2016-05-07T18:38:42Z</time>
      </trkpt>
      <trkpt lat="42.61752" lon="1.53684">
        <ele>1529.39</ele>
        <time>2016-05-07T18:39:02Z</time>
      </trkpt>
      <trkpt lat="42.61743" lon="1.53674">
        <ele>1531.819</ele>
        <time>2016-05-07T18:39:22Z</time>
      </trkpt>
      <trkpt lat="42.61727" lon="1.53675">
        <ele>1532.608</ele>
        <time>2016-05-07T18:39:42Z</time>
      </trkpt>
      <trkpt lat="42.61719" lon="1.53678">
        <ele>1532.378</ele>
        <time>2016-05-07T18:40:02Z</time>
      </trkpt>
      <trkpt lat="42.61708" lon="1.5368">
        <ele>1532.32</ele>
        <time>2016-05-07T18:40:22Z</time>
      </trkpt>
      <trkpt lat="42.61699" lon="1.53684">
        <ele>1531.948</ele>
        <time>2016-05-07T18:40:42Z</time>
      </trkpt>
      <trkpt lat="42.61687" lon="1.53688">
        <ele>1531.746</ele>
        <time>2016-05-07T18:41:02Z</time>
      </trkpt>
      <trkpt lat="42.61673" lon="1.53684">
        <ele>1533.024</ele>
        <time>2016-05-07T18:41:22Z</time>
      </trkpt>
      <trkpt lat="42.61666" lon="1.53686">
        <ele>1532.915</ele>
        <time>2016-05-07T18:41:42Z</time>
      </trkpt>
      <trkpt lat="42.61658" lon="1.53682">
        <ele>1533.413</ele>
        <time>2016-05-07T18:42:02Z</time>
      </trkpt>
      <trkpt lat="42.61643" lon="1.5368">
        <ele>1533.321</ele>
        <time>2016-05-07T18:42:22Z</time>
      </trkpt>
      <trkpt lat="42.61633" lon="1.5368">
        <ele>1532.994</ele>
        <time>2016-05-07T18:42:42Z</time>
      </trkpt>
      <trkpt lat="42.61619" lon="1.53678">
        <ele>1532.957</ele>
        <time>2016-05-07T18:43:02Z</time>
      </trkpt>
      <trkpt lat="42.61609" lon="1.53674">
        <ele>1533.422</ele>
        <time>2016-05-07T18:43:22Z</time>
      </trkpt>
      <trkpt lat="42.61601" lon="1.53671">
        <ele>1533.708</ele>
        <time>2016-05-07T18:43:42Z</time>
      </trkpt>
      <trkpt lat="42.61594" lon="1.53664">
        <ele>1535.19</ele>
        <time>2016-05-07T18:44:02Z</time>
      </trkpt>
      <trkpt lat="42.61587" lon="1.53666">
        <ele>1534.482</ele>
        <time>2016-05-07T18:44:22Z</time>
      </trkpt>
      <trkpt lat="42.61577" lon="1.53662">
        <ele>1535.19</ele>
        <time>2016-05-07T18:44:42Z</time>
      </trkpt>
      <trkpt lat="42.6156" lon="1.53664">
        <ele>1534.058</ele>
        <time>2016-05-07T18:45:02Z</time>
      </trkpt>
      <trkpt lat="42.61548" lon="1.53661">
        <ele>1534.386</ele>
        <time>2016-05-07T18:45:22Z</time>
      </trkpt>
      <trkpt lat="42.61538" lon="1.53661">
        <ele>1533.867</ele>
        <time>2016-05-07T18:45:42Z</time>
      </trkpt>
      <trkpt lat="42.6153" lon="1.53657">
        <ele>1534.665</ele>
        <time>2016-05-07T18:46:02Z</time>
      </trkpt>
      <trkpt lat="42.61515" lon="1.53659">
        <ele>1531.123</ele>
        <time>2016-05-07T18:46:22Z</time>
      </trkpt>
      <trkpt lat="42.61503" lon="1.53654">
        <ele>1530.686</ele>
        <time>2016-05-07T18:46:42Z</time>
      </trkpt>
      <trkpt lat="42.61487" lon="1.53654">
        <ele>1528.36</ele>
        <time>2016-05-07T18:47:02Z</time>
      </trkpt>
      <trkpt lat="42.61471" lon="1.53651">
        <ele>1527.626</ele>
        <time>2016-05-07T18:47:22Z</time>
      </trkpt>
      <trkpt lat="42.61462" lon="1.53646">
        <ele>1528.708</ele>
        <time>2016-05-07T18:47:42Z</time>
      </trkpt>
      <trkpt lat="42.61453" lon="1.53644">
        <ele>1528.919</ele>
        <time>2016-05-07T18:48:02Z</time>
      </trkpt>
      <trkpt lat="42.61444" lon="1.53643">
        <ele>1528.561</ele>
        <time>2016-05-07T18:48:22Z</time>
      </trkpt>
      <trkpt lat="42.61435" lon="1.53638">
        <ele>1529.419</ele>
        <time>2016-05-07T18:48:42Z</time>
      </trkpt>
      <trkpt lat="42.61425" lon="1.53631">
        <ele>1531.167</ele>
        <time>2016-05-07T18:49:02Z</time>
      </trkpt>
      <trkpt lat="42.61416" lon="1.5362">
        <ele>1534.295</ele>
        <time>2016-05-07T18:49:22Z</time>
      </trkpt>
      <trkpt lat="42.614" lon="1.53613">
        <ele>1534.466</ele>
        <time>2016-05-07T18:49:42Z</time>
      </trkpt>
      <trkpt lat="42.61388" lon="1.536">
        <ele>1538.024</ele>
        <time>2016-05-07T18:50:02Z</time>
      </trkpt>
      <trkpt lat="42.61367" lon="1.53596">
        <ele>1536.782</ele>
        <time>2016-05-07T18:50:22Z</time>
      </trkpt>
      <trkpt lat="42.61353" lon="1.53594">
        <ele>1535.873</ele>
        <time>2016-05-07T18:50:42Z</time>
      </trkpt>
      <trkpt lat="42.61334" lon="1.53589">
        <ele>1535.085</ele>
        <time>2016-05-07T18:51:02Z</time>
      </trkpt>
      <trkpt lat="42.61315" lon="1.53583">
        <ele>1535.713</ele>
        <time>2016-05-07T18:51:22Z</time>
      </trkpt>
      <trkpt lat="42.61299" lon="1.53584">
        <ele>1534.208</ele>
        <time>2016-05-07T18:51:42Z</time>
      </trkpt>
      <trkpt lat="42.61284" lon="1.53581">
        <ele>1534.258</ele>
        <time>2016-05-07T18:52:02Z</time>
      </trkpt>
      <trkpt lat="42.61268" lon="1.53582">
        <ele>1532.46</ele>
        <time>2016-05-07T18:52:22Z</time>
      </trkpt>
      <trkpt lat="42.61252" lon="1.53587">
        <ele>1529.188</ele>
        <time>2016-05-07T18:52:42Z</time>
      </trkpt>
      <trkpt lat="42.61237" lon="1.5359">
        <ele>1527.896</ele>
        <time>2016-05-07T18:53:02Z</time>
      </trkpt>
      <trkpt lat="42.61225" lon="1.53592">
        <ele>1527.294</ele>
        <time>2016-05-07T18:53:22Z</time>
      </trkpt>
      <trkpt lat="42.6121" lon="1.53593">
        <ele>1526.485</ele>
        <time>2016-05-07T18:53:42Z</time>
      </trkpt>
      <trkpt lat="42.6119" lon="1.53594">
        <ele>1525.493</ele>
        <time>2016-05-07T18:54:02Z</time>
      </trkpt>
      <trkpt lat="42.61172" lon="1.53597">
        <ele>1524.331</ele>
        <time>2016-05-07T18:54:22Z</time>
      </trkpt>
      <trkpt lat="42.61157" lon="1.53592">
        <ele>1524.751</ele>
        <time>2016-05-07T18:54:42Z</time>
      </trkpt>
      <trkpt lat="42.61144" lon="1.53596">
        <ele>1522.601</ele>
        <time>2016-05-07T18:55:02Z</time>
      </trkpt>
      <trkpt lat="42.61131" lon="1.53606">
        <ele>1519.111</ele>
        <time>2016-05-07T18:55:22Z</time>
      </trkpt>
      <trkpt lat="42.61117" lon="1.53611">
        <ele>1517.208</ele>
        <time>2016-05-07T18:55:42Z</time>
      </trkpt>
      <trkpt lat="42.61108" lon="1.53614">
        <ele>1516.456</ele>
        <time>2016-05-07T18:56:02Z</time>
      </trkpt>
      <trkpt lat="42.61103" lon="1.53618">
        <ele>1515.718</ele>
        <time>2016-05-07T18:56:22Z</time>
      </trkpt>
      <trkpt lat="42.61098" lon="1.5362">
        <ele>1515.346</ele>
        <time>2016-05-07T18:56:42Z</time>
      </trkpt>
      <trkpt lat="42.61092" lon="1.53621">
        <ele>1515.484</ele>
        <time>2016-05-07T18:57:02Z</time>
      </trkpt>
      <trkpt lat="42.61085" lon="1.53621">
        <ele>1515.742</ele>
        <time>2016-05-07T18:57:22Z</time>
      </trkpt>
      <trkpt lat="42.6108" lon="1.53621">
        <ele>1515.553</ele>
        <time>2016-05-07T18:57:42Z</time>
      </trkpt>
      <trkpt lat="42.61071" lon="1.53619">
        <ele>1515.251</ele>
        <time>2016-05-07T18:58:02Z</time>
      </trkpt>
      <trkpt lat="42.61064" lon="1.53616">
        <ele>1515.049</ele>
        <time>2016-05-07T18:58:22Z</time>
      </trkpt>
      <trkpt lat="42.61058" lon="1.53612">
        <ele>1515.164</ele>
        <time>2016-05-07T18:58:42Z</time>
      </trkpt>
      <trkpt lat="42.61054" lon="1.53607">
        <ele>1515.706</ele>
        <time>2016-05-07T18:59:02Z</time>
      </trkpt>
      <trkpt lat="42.61047" lon="1.53605">
        <ele>1515.016</ele>
        <time>2016-05-07T18:59:22Z</time>
      </trkpt>
      <trkpt lat="42.61042" lon="1.53601">
        <ele>1514.708</ele>
        <time>2016-05-07T18:59:42Z</time>
      </trkpt>
      <trkpt lat="42.61038" lon="1.53597">
        <ele>1514.497</ele>
        <time>2016-05-07T19:00:02Z</time>
      </trkpt>
      <trkpt lat="42.61031" lon="1.53593">
        <ele>1513.549</ele>
        <time>2016-05-07T19:00:22Z</time>
      </trkpt>
      <trkpt lat="42.61027" lon="1.53587">
        <ele>1513.077</ele>
        <time>2016-05-07T19:00:42Z</time>
      </trkpt>
      <trkpt lat="42.61021" lon="1.53581">
        <ele>1512.185</ele>
        <time>2016-05-07T19:01:02Z</time>
      </trkpt>
      <trkpt lat="42.61016" lon="1.53576">
        <ele>1511.473</ele>
        <time>2016-05-07T19:01:22Z</time>
      </trkpt>
      <trkpt lat="42.61012" lon="1.53572">
        <ele>1511.014</ele>
        <time>2016-05-07T19:01:42Z</time>
      </trkpt>
      <trkpt lat="42.61005" lon="1.53568">
        <ele>1509.542</ele>
        <time>2016-05-07T19:02:02Z</time>
      </trkpt>
      <trkpt lat="42.60997" lon="1.53563">
        <ele>1508.54</ele>
        <time>2016-05-07T19:02:22Z</time>
      </trkpt>
      <trkpt lat="42.60991" lon="1.53561">
        <ele>1507.764</ele>
        <time>2016-05-07T19:02:42Z</time>
      </trkpt>
      <trkpt lat="42.60983" lon="1.5356">
        <ele>1506.106</ele>
        <time>2016-05-07T19:03:02Z</time>
      </trkpt>
      <trkpt lat="42.60978" lon="1.5356">
        <ele>1505.016</ele>
        <time>2016-05-07T19:03:22Z</time>
      </trkpt>
      <trkpt lat="42.60972" lon="1.53559">
        <ele>1504.008</ele>
        <time>2016-05-07T19:03:42Z</time>
      </trkpt>
      <trkpt lat="42.60968" lon="1.53559">
        <ele>1503.317</ele>
        <time>2016-05-07T19:04:02Z</time>
      </trkpt>
      <trkpt lat="42.60961" lon="1.53558">
        <ele>1502.759</ele>
        <time>2016-05-07T19:04:22Z</time>
      </trkpt>
      <trkpt lat="42.60955" lon="1.53557">
        <ele>1502.397</ele>
        <time>2016-05-07T19:04:42Z</time>
      </trkpt>
      <trkpt lat="42.6095" lon="1.53555">
        <ele>1502.055</ele>
        <time>2016-05-07T19:05:02Z</time>
      </trkpt>
      <trkpt lat="42.60946" lon="1.53553">
        <ele>1502.663</ele>
        <time>2016-05-07T19:05:22Z</time>
      </trkpt>
      <trkpt lat="42.60943" lon="1.5355">
        <ele>1503.654</ele>
        <time>2016-05-07T19:05:42Z</time>
      </trkpt>
      <trkpt lat="42.60936" lon="1.53548">
        <ele>1503.492</ele>
        <time>2016-05-07T19:06:02Z</time>
      </trkpt>
      <trkpt lat="42.60932" lon="1.53545">
        <ele>1504.47</ele>
        <time>2016-05-07T19:06:22Z</time>
      </trkpt>
      <trkpt lat="42.60927" lon="1.53543">
        <ele>1504.421</ele>
        <time>2016-05-07T19:06:42Z</time>
      </trkpt>
      <trkpt lat="42.60924" lon="1.53546">
        <ele>1502.241</ele>
        <time>2016-05-07T19:07:02Z</time>
      </trkpt>
      <trkpt lat="42.60918" lon="1.53551">
        <ele>1499.005</ele>
        <time>2016-05-07T19:07:22Z</time>
      </trkpt>
      <trkpt lat="42.60911" lon="1.5355">
        <ele>1498.708</ele>
        <time>2016-05-07T19:07:42Z</time>
      </trkpt>
      <trkpt lat="42.60902" lon="1.53549">
        <ele>1498.323</ele>
        <time>2016-05-07T19:08:02Z</time>
      </trkpt>
      <trkpt lat="42.60896" lon="1.53549">
        <ele>1498.135</ele>
        <time>2016-05-07T19:08:22Z</time>
      </trkpt>
      <trkpt lat="42.60886" lon="1.53547">
        <ele>1498.233</ele>
        <time>2016-05-07T19:08:42Z</time>
      </trkpt>
      <trkpt lat="42.6088" lon="1.53546">
        <ele>1498.021</ele>
        <time>2016-05-07T19:09:02Z</time>
      </trkpt>
      <trkpt lat="42.60873" lon="1.53545">
        <ele>1498.069</ele>
        <time>2016-05-07T19:09:22Z</time>
      </trkpt>
      <trkpt lat="42.60866" lon="1.53545">
        <ele>1497.57</ele>
        <time>2016-05-07T19:09:42Z</time>
      </trkpt>
      <trkpt lat="42.60858" lon="1.53546">
        <ele>1496.328</ele>
        <time>2016-05-07T19:10:02Z</time>
      </trkpt>
      <trkpt lat="42.60852" lon="1.53544">
        <ele>1496.396</ele>
        <time>2016-05-07T19:10:22Z</time>
      </trkpt>
      <trkpt lat="42.60847" lon="1.53543">
        <ele>1496.479</ele>
        <time>2016-05-07T19:10:42Z</time>
      </trkpt>
      <trkpt lat="42.60828" lon="1.5354">
        <ele>1495.905</ele>
        <time>2016-05-07T19:11:02Z</time>
      </trkpt>
      <trkpt lat="42.60817" lon="1.5354">
        <ele>1494.425</ele>
        <time>2016-05-07T19:11:22Z</time>
      </trkpt>
      <trkpt lat="42.6081" lon="1.53542">
        <ele>1492.708</ele>
        <time>2016-05-07T19:11:42Z</time>
      </trkpt>
      <trkpt lat="42.60803" lon="1.53543">
        <ele>1491.938</ele>
        <time>2016-05-07T19:12:02Z</time>
      </trkpt>
      <trkpt lat="42.60797" lon="1.53546">
        <ele>1491.35</ele>
        <time>2016-05-07T19:12:22Z</time>
      </trkpt>
      <trkpt lat="42.60788" lon="1.5355">
        <ele>1490.078</ele>
        <time>2016-05-07T19:12:42Z</time>
      </trkpt>
      <trkpt lat="42.60782" lon="1.53552">
        <ele>1489.136</ele>
        <time>2016-05-07T19:13:02Z</time>
      </trkpt>
      <trkpt lat="42.60774" lon="1.53555">
        <ele>1488.534</ele>
        <time>2016-05-07T19:13:22Z</time>
      </trkpt>
      <trkpt lat="42.60765" lon="1.53556">
        <ele>1488.385</ele>
        <time>2016-05-07T19:13:42Z</time>
      </trkpt>
      <trkpt lat="42.60758" lon="1.53559">
        <ele>1487.843</ele>
        <time>2016-05-07T19:14:02Z</time>
      </trkpt>
      <trkpt lat="42.6075" lon="1.5356">
        <ele>1487.871</ele>
        <time>2016-05-07T19:14:22Z</time>
      </trkpt>
      <trkpt lat="42.60742" lon="1.53561">
        <ele>1487.797</ele>
        <time>2016-05-07T19:14:42Z</time>
      </trkpt>
      <trkpt lat="42.60733" lon="1.5356">
        <ele>1487.923</ele>
        <time>2016-05-07T19:15:02Z</time>
      </trkpt>
      <trkpt lat="42.60727" lon="1.53559">
        <ele>1488.125</ele>
        <time>2016-05-07T19:15:22Z</time>
      </trkpt>
      <trkpt lat="42.60716" lon="1.53553">
        <ele>1488.608</ele>
        <time>2016-05-07T19:15:42Z</time>
      </trkpt>
      <trkpt lat="42.60708" lon="1.53548">
        <ele>1488.69</ele>
        <time>2016-05-07T19:16:02Z</time>
      </trkpt>
      <trkpt lat="42.60702" lon="1.53546">
        <ele>1488.072</ele>
        <time>2016-05-07T19:16:22Z</time>
      </trkpt>
      <trkpt lat="42.60694" lon="1.53541">
        <ele>1487.54</ele>
        <time>2016-05-07T19:16:42Z</time>
      </trkpt>
      <trkpt lat="42.60688" lon="1.53539">
        <ele>1486.378</ele>
        <time>2016-05-07T19:17:02Z</time>
      </trkpt>
      <trkpt lat="42.60682" lon="1.53533">
        <ele>1485.616</ele>
        <time>2016-05-07T19:17:22Z</time>
      </trkpt>
      <trkpt lat="42.60675" lon="1.5353">
        <ele>1484.147</ele>
        <time>2016-05-07T19:17:42Z</time>
      </trkpt>
      <trkpt lat="42.60671" lon="1.53528">
        <ele>1483.365</ele>
        <time>2016-05-07T19:18:02Z</time>
      </trkpt>
      <trkpt lat="42.60664" lon="1.5353">
        <ele>1481.263</ele>
        <time>2016-05-07T19:18:22Z</time>
      </trkpt>
      <trkpt lat="42.6066" lon="1.53531">
        <ele>1480.051</ele>
        <time>2016-05-07T19:18:42Z</time>
      </trkpt>
      <trkpt lat="42.60658" lon="1.53536">
        <ele>1478.401</ele>
        <time>2016-05-07T19:19:02Z</time>
      </trkpt>
      <trkpt lat="42.60654" lon="1.53542">
        <ele>1476.111</ele>
        <time>2016-05-07T19:19:22Z</time>
      </trkpt>
      <trkpt lat="42.60648" lon="1.53544">
        <ele>1474.408</ele>
        <time>2016-05-07T19:19:42Z</time>
      </trkpt>
      <trkpt lat="42.60642" lon="1.53544">
        <ele>1472.996</ele>
        <time>2016-05-07T19:20:02Z</time>
      </trkpt>
      <trkpt lat="42.60636" lon="1.53545">
        <ele>1471.248</ele>
        <time>2016-05-07T19:20:22Z</time>
      </trkpt>
      <trkpt lat="42.6063" lon="1.53544">
        <ele>1470.156</ele>
        <time>2016-05-07T19:20:42Z</time>
      </trkpt>
      <trkpt lat="42.60625" lon="1.53546">
        <ele>1468.114</ele>
        <time>2016-05-07T19:21:02Z</time>
      </trkpt>
      <trkpt lat="42.60619" lon="1.53547">
        <ele>1466.132</ele>
        <time>2016-05-07T19:21:22Z</time>
      </trkpt>
      <trkpt lat="42.60615" lon="1.53545">
        <ele>1465.793</ele>
        <time>2016-05-07T19:21:42Z</time>
      </trkpt>
      <trkpt lat="42.60611" lon="1.53544">
        <ele>1465.361</ele>
        <time>2016-05-07T19:22:02Z</time>
      </trkpt>
      <trkpt lat="42.60602" lon="1.53544">
        <ele>1462.999</ele>
        <time>2016-05-07T19:22:22Z</time>
      </trkpt>
      <trkpt lat="42.60595" lon="1.53546">
        <ele>1460.664</ele>
        <time>2016-05-07T19:22:42Z</time>
      </trkpt>
      <trkpt lat="42.60586" lon="1.53546">
        <ele>1458.606</ele>
        <time>2016-05-07T19:23:02Z</time>
      </trkpt>
      <trkpt lat="42.60581" lon="1.53547">
        <ele>1457.116</ele>
        <time>2016-05-07T19:23:22Z</time>
      </trkpt>
      <trkpt lat="42.60572" lon="1.53548">
        <ele>1454.708</ele>
        <time>2016-05-07T19:23:42Z</time>
      </trkpt>
      <trkpt lat="42.60566" lon="1.5355">
        <ele>1453.277</ele>
        <time>2016-05-07T19:24:02Z</time>
      </trkpt>
      <trkpt lat="42.6056" lon="1.53549">
        <ele>1452.079</ele>
        <time>2016-05-07T19:24:22Z</time>
      </trkpt>
      <trkpt lat="42.60553" lon="1.53552">
        <ele>1450.137</ele>
        <time>2016-05-07T19:24:42Z</time>
      </trkpt>
      <trkpt lat="42.60546" lon="1.53551">
        <ele>1449.265</ele>
        <time>2016-05-07T19:25:02Z</time>
      </trkpt>
      <trkpt lat="42.60543" lon="1.5355">
        <ele>1449.093</ele>
        <time>2016-05-07T19:25:22Z</time>
      </trkpt>
      <trkpt lat="42.60538" lon="1.5355">
        <ele>1448.554</ele>
        <time>2016-05-07T19:25:42Z</time>
      </trkpt>
      <trkpt lat="42.60525" lon="1.53546">
        <ele>1447.632</ele>
        <time>2016-05-07T19:26:02Z</time>
      </trkpt>
      <trkpt lat="42.6052" lon="1.53541">
        <ele>1447.81</ele>
        <time>2016-05-07T19:26:22Z</time>
      </trkpt>
      <trkpt lat="42.60515" lon="1.53539">
        <ele>1447.562</ele>
        <time>2016-05-07T19:26:42Z</time>
      </trkpt>
      <trkpt lat="42.60507" lon="1.53534">
        <ele>1446.383</ele>
        <time>2016-05-07T19:27:02Z</time>
      </trkpt>
      <trkpt lat="42.60499" lon="1.53529">
        <ele>1444.711</ele>
        <time>2016-05-07T19:27:22Z</time>
      </trkpt>
      <trkpt lat="42.60492" lon="1.53525">
        <ele>1445.308</ele>
        <time>2016-05-07T19:27:42Z</time>
      </trkpt>
      <trkpt lat="42.60484" lon="1.53523">
        <ele>1445.647</ele>
        <time>2016-05-07T19:28:02Z</time>
      </trkpt>
      <trkpt lat="42.60477" lon="1.53519">
        <ele>1446.849</ele>
        <time>2016-05-07T19:28:22Z</time>
      </trkpt>
      <trkpt lat="42.60463" lon="1.53517">
        <ele>1446.477</ele>
        <time>2016-05-07T19:28:42Z</time>
      </trkpt>
      <trkpt lat="42.60448" lon="1.53516">
        <ele>1446.095</ele>
        <time>2016-05-07T19:29:02Z</time>
      </trkpt>
      <trkpt lat="42.6044" lon="1.53518">
        <ele>1444.693</ele>
        <time>2016-05-07T19:29:22Z</time>
      </trkpt>
      <trkpt lat="42.60426" lon="1.5352">
        <ele>1442.454</ele>
        <time>2016-05-07T19:29:42Z</time>
      </trkpt>
      <trkpt lat="42.60422" lon="1.53515">
        <ele>1443.472</ele>
        <time>2016-05-07T19:30:02Z</time>
      </trkpt>
      <trkpt lat="42.60408" lon="1.53506">
        <ele>1444.05</ele>
        <time>2016-05-07T19:30:22Z</time>
      </trkpt>
      <trkpt lat="42.60369" lon="1.53495">
        <ele>1441.837</ele>
        <time>2016-05-07T19:30:42Z</time>
      </trkpt>
      <trkpt lat="42.60351" lon="1.53495">
        <ele>1439.949</ele>
        <time>2016-05-07T19:31:02Z</time>
      </trkpt>
      <trkpt lat="42.60281" lon="1.53453">
        <ele>1437.213</ele>
        <time>2016-05-07T19:31:22Z</time>
      </trkpt>
      <trkpt lat="42.60234" lon="1.53419">
        <ele>1437.108</ele>
        <time>2016-05-07T19:31:42Z</time>
      </trkpt>
      <trkpt lat="42.60198" lon="1.5342">
        <ele>1432.114</ele>
        <time>2016-05-07T19:32:02Z</time>
      </trkpt>
      <trkpt lat="42.60124" lon="1.53363">
        <ele>1433.346</ele>
        <time>2016-05-07T19:32:22Z</time>
      </trkpt>
      <trkpt lat="42.60064" lon="1.53248">
        <ele>1430.434</ele>
        <time>2016-05-07T19:32:42Z</time>
      </trkpt>
      <trkpt lat="42.60021" lon="1.53199">
        <ele>1428.322</ele>
        <time>2016-05-07T19:33:02Z</time>
      </trkpt>
      <trkpt lat="42.59985" lon="1.5316">
        <ele>1429.19</ele>
        <time>2016-05-07T19:33:22Z</time>
      </trkpt>
      <trkpt lat="42.59977" lon="1.53151">
        <ele>1429.861</ele>
        <time>2016-05-07T19:33:42Z</time>
      </trkpt>
      <trkpt lat="42.59975" lon="1.53146">
        <ele>1430.149</ele>
        <time>2016-05-07T19:34:02Z</time>
      </trkpt>
      <trkpt lat="42.59969" lon="1.53142">
        <ele>1429.367</ele>
        <time>2016-05-07T19:34:22Z</time>
      </trkpt>
      <trkpt lat="42.59966" lon="1.53138">
        <ele>1429.519</ele>
        <time>2016-05-07T19:34:42Z</time>
      </trkpt>
      <trkpt lat="42.5996" lon="1.53135">
        <ele>1429.009</ele>
        <time>2016-05-07T19:35:02Z</time>
      </trkpt>
      <trkpt lat="42.59954" lon="1.53131">
        <ele>1428.219</ele>
        <time>2016-05-07T19:35:22Z</time>
      </trkpt>
      <trkpt lat="42.59952" lon="1.53129">
        <ele>1428.108</ele>
        <time>2016-05-07T19:35:42Z</time>
      </trkpt>
      <trkpt lat="42.59943" lon="1.53128">
        <ele>1425.062</ele>
        <time>2016-05-07T19:36:02Z</time>
      </trkpt>
      <trkpt lat="42.59939" lon="1.53129">
        <ele>1423.914</ele>
        <time>2016-05-07T19:36:22Z</time>
      </trkpt>
      <trkpt lat="42.59936" lon="1.5313">
        <ele>1422.872</ele>
        <time>2016-05-07T19:36:42Z</time>
      </trkpt>
      <trkpt lat="42.59976" lon="1.53223">
        <ele>1421.95</ele>
        <time>2016-05-07T19:37:02Z</time>
      </trkpt>
      <trkpt lat="42.59959" lon="1.5322">
        <ele>1423.168</ele>
        <time>2016-05-07T19:37:22Z</time>
      </trkpt>
      <trkpt lat="42.59935" lon="1.53212">
        <ele>1427.289</ele>
        <time>2016-05-07T19:37:42Z</time>
      </trkpt>
      <trkpt lat="42.5992" lon="1.53166">
        <ele>1419.157</ele>
        <time>2016-05-07T19:38:02Z</time>
      </trkpt>
      <trkpt lat="42.59906" lon="1.53155">
        <ele>1419.865</ele>
        <time>2016-05-07T19:38:22Z</time>
      </trkpt>
      <trkpt lat="42.59894" lon="1.53146">
        <ele>1420.095</ele>
        <time>2016-05-07T19:38:42Z</time>
      </trkpt>
      <trkpt lat="42.59867" lon="1.53132">
        <ele>1420.649</ele>
        <time>2016-05-07T19:39:02Z</time>
      </trkpt>
      <trkpt lat="42.59851" lon="1.53122">
        <ele>1420.123</ele>
        <time>2016-05-07T19:39:22Z</time>
      </trkpt>
      <trkpt lat="42.59831" lon="1.53113">
        <ele>1419.808</ele>
        <time>2016-05-07T19:39:42Z</time>
      </trkpt>
      <trkpt lat="42.59829" lon="1.53114">
        <ele>1420.17</ele>
        <time>2016-05-07T19:40:02Z</time>
      </trkpt>
      <trkpt lat="42.5979" lon="1.53089">
        <ele>1418.142</ele>
        <time>2016-05-07T19:40:22Z</time>
      </trkpt>
      <trkpt lat="42.59768" lon="1.53059">
        <ele>1414.89</ele>
        <time>2016-05-07T19:40:42Z</time>
      </trkpt>
      <trkpt lat="42.5972" lon="1.53011">
        <ele>1413.758</ele>
        <time>2016-05-07T19:41:02Z</time>
      </trkpt>
      <trkpt lat="42.59705" lon="1.52989">
        <ele>1413.966</ele>
        <time>2016-05-07T19:41:22Z</time>
      </trkpt>
      <trkpt lat="42.59673" lon="1.52955">
        <ele>1412.787</ele>
        <time>2016-05-07T19:41:42Z</time>
      </trkpt>
      <trkpt lat="42.59656" lon="1.52931">
        <ele>1411.375</ele>
        <time>2016-05-07T19:42:02Z</time>
      </trkpt>
      <trkpt lat="42.59649" lon="1.52916">
        <ele>1410.063</ele>
        <time>2016-05-07T19:42:22Z</time>
      </trkpt>
      <trkpt lat="42.59645" lon="1.52908">
        <ele>1409.893</ele>
        <time>2016-05-07T19:42:42Z</time>
      </trkpt>
      <trkpt lat="42.59632" lon="1.52892">
        <ele>1409.465</ele>
        <time>2016-05-07T19:43:02Z</time>
      </trkpt>
      <trkpt lat="42.59623" lon="1.5288">
        <ele>1409.121</ele>
        <time>2016-05-07T19:43:22Z</time>
      </trkpt>
      <trkpt lat="42.59615" lon="1.52868">
        <ele>1408.408</ele>
        <time>2016-05-07T19:43:42Z</time>
      </trkpt>
      <trkpt lat="42.5961" lon="1.52857">
        <ele>1407.79</ele>
        <time>2016-05-07T19:44:02Z</time>
      </trkpt>
      <trkpt lat="42.59605" lon="1.52848">
        <ele>1407.192</ele>
        <time>2016-05-07T19:44:22Z</time>
      </trkpt>
      <trkpt lat="42.59599" lon="1.52842">
        <ele>1406.97</ele>
        <time>2016-05-07T19:44:42Z</time>
      </trkpt>
      <trkpt lat="42.59591" lon="1.52835">
        <ele>1406.748</ele>
        <time>2016-05-07T19:45:02Z</time>
      </trkpt>
      <trkpt lat="42.59531" lon="1.5281">
        <ele>1407.186</ele>
        <time>2016-05-07T19:45:22Z</time>
      </trkpt>
      <trkpt lat="42.59515" lon="1.52783">
        <ele>1405.967</ele>
        <time>2016-05-07T19:45:42Z</time>
      </trkpt>
      <trkpt lat="42.59484" lon="1.52764">
        <ele>1402.515</ele>
        <time>2016-05-07T19:46:02Z</time>
      </trkpt>
      <trkpt lat="42.59472" lon="1.52758">
        <ele>1400.923</ele>
        <time>2016-05-07T19:46:22Z</time>
      </trkpt>
      <trkpt lat="42.59425" lon="1.52741">
        <ele>1398.066</ele>
        <time>2016-05-07T19:46:42Z</time>
      </trkpt>
      <trkpt lat="42.59409" lon="1.52736">
        <ele>1396.729</ele>
        <time>2016-05-07T19:47:02Z</time>
      </trkpt>
      <trkpt lat="42.59392" lon="1.5273">
        <ele>1396.221</ele>
        <time>2016-05-07T19:47:22Z</time>
      </trkpt>
      <trkpt lat="42.59375" lon="1.52724">
        <ele>1395.508</ele>
        <time>2016-05-07T19:47:42Z</time>
      </trkpt>
      <trkpt lat="42.59333" lon="1.52697">
        <ele>1394.037</ele>
        <time>2016-05-07T19:48:02Z</time>
      </trkpt>
      <trkpt lat="42.59312" lon="1.52687">
        <ele>1392.489</ele>
        <time>2016-05-07T19:48:22Z</time>
      </trkpt>
      <trkpt lat="42.59298" lon="1.52683">
        <ele>1391.387</ele>
        <time>2016-05-07T19:48:42Z</time>
      </trkpt>
      <trkpt lat="42.59292" lon="1.52681">
        <ele>1391.065</ele>
        <time>2016-05-07T19:49:02Z</time>
      </trkpt>
      <trkpt lat="42.59249" lon="1.52684">
        <ele>1390.023</ele>
        <time>2016-05-07T19:49:22Z</time>
      </trkpt>
      <trkpt lat="42.59216" lon="1.52713">
        <ele>1392.034</ele>
        <time>2016-05-07T19:49:42Z</time>
      </trkpt>
      <trkpt lat="42.59208" lon="1.52714">
        <ele>1393.752</ele>
        <time>2016-05-07T19:50:02Z</time>
      </trkpt>
      <trkpt lat="42.59194" lon="1.52703">
        <ele>1392.87</ele>
        <time>2016-05-07T19:50:22Z</time>
      </trkpt>
      <trkpt lat="42.59181" lon="1.52685">
        <ele>1391.249</ele>
        <time>2016-05-07T19:50:42Z</time>
      </trkpt>
      <trkpt lat="42.59146" lon="1.52642">
        <ele>1386.302</ele>
        <time>2016-05-07T19:51:02Z</time>
      </trkpt>
      <trkpt lat="42.59109" lon="1.52599">
        <ele>1384.722</ele>
        <time>2016-05-07T19:51:22Z</time>
      </trkpt>
      <trkpt lat="42.59061" lon="1.52598">
        <ele>1387.308</ele>
        <time>2016-05-07T19:51:42Z</time>
      </trkpt>
      <trkpt lat="42.5902" lon="1.52585">
        <ele>1386.185</ele>
        <time>2016-05-07T19:52:02Z</time>
      </trkpt>
      <trkpt lat="42.58968" lon="1.52569">
        <ele>1385.937</ele>
        <time>2016-05-07T19:52:22Z</time>
      </trkpt>
      <trkpt lat="42.58927" lon="1.52562">
        <ele>1387.135</ele>
        <time>2016-05-07T19:52:42Z</time>
      </trkpt>
      <trkpt lat="42.5888" lon="1.52525">
        <ele>1381.963</ele>
        <time>2016-05-07T19:53:02Z</time>
      </trkpt>
      <trkpt lat="42.58866" lon="1.5247">
        <ele>1378.511</ele>
        <time>2016-05-07T19:53:22Z</time>
      </trkpt>
      <trkpt lat="42.58846" lon="1.52472">
        <ele>1381.882</ele>
        <time>2016-05-07T19:53:42Z</time>
      </trkpt>
      <trkpt lat="42.58836" lon="1.52468">
        <ele>1383.26</ele>
        <time>2016-05-07T19:54:02Z</time>
      </trkpt>
      <trkpt lat="42.58821" lon="1.52461">
        <ele>1384.228</ele>
        <time>2016-05-07T19:54:22Z</time>
      </trkpt>
      <trkpt lat="42.58801" lon="1.5244">
        <ele>1385.387</ele>
        <time>2016-05-07T19:54:42Z</time>
      </trkpt>
      <trkpt lat="42.58787" lon="1.5242">
        <ele>1385.242</ele>
        <time>2016-05-07T19:55:02Z</time>
      </trkpt>
      <trkpt lat="42.58737" lon="1.524">
        <ele>1386.326</ele>
        <time>2016-05-07T19:55:22Z</time>
      </trkpt>
      <trkpt lat="42.58695" lon="1.52387">
        <ele>1385.708</ele>
        <time>2016-05-07T19:55:42Z</time>
      </trkpt>
      <trkpt lat="42.58649" lon="1.52414">
        <ele>1387.089</ele>
        <time>2016-05-07T19:56:02Z</time>
      </trkpt>
      <trkpt lat="42.58648" lon="1.52411">
        <ele>1386.551</ele>
        <time>2016-05-07T19:56:22Z</time>
      </trkpt>
      <trkpt lat="42.58618" lon="1.52324">
        <ele>1374.729</ele>
        <time>2016-05-07T19:56:42Z</time>
      </trkpt>
      <trkpt lat="42.58592" lon="1.5232">
        <ele>1374.137</ele>
        <time>2016-05-07T19:57:02Z</time>
      </trkpt>
      <trkpt lat="42.58576" lon="1.52311">
        <ele>1372.895</ele>
        <time>2016-05-07T19:57:22Z</time>
      </trkpt>
      <trkpt lat="42.58482" lon="1.52318">
        <ele>1372.856</ele>
        <time>2016-05-07T19:57:42Z</time>
      </trkpt>
      <trkpt lat="42.5844" lon="1.52301">
        <ele>1371.134</ele>
        <time>2016-05-07T19:58:02Z</time>
      </trkpt>
      <trkpt lat="42.58394" lon="1.52293">
        <ele>1372.242</ele>
        <time>2016-05-07T19:58:22Z</time>
      </trkpt>
      <trkpt lat="42.58357" lon="1.52237">
        <ele>1368.533</ele>
        <time>2016-05-07T19:58:42Z</time>
      </trkpt>
      <trkpt lat="42.58319" lon="1.52194">
        <ele>1367.023</ele>
        <time>2016-05-07T19:59:02Z</time>
      </trkpt>
      <trkpt lat="42.58278" lon="1.52154">
        <ele>1364.915</ele>
        <time>2016-05-07T19:59:22Z</time>
      </trkpt>
      <trkpt lat="42.58254" lon="1.52131">
        <ele>1366.608</ele>
        <time>2016-05-07T19:59:42Z</time>
      </trkpt>
      <trkpt lat="42.58238" lon="1.52092">
        <ele>1361.994</ele>
        <time>2016-05-07T20:00:02Z</time>
      </trkpt>
      <trkpt lat="42.58226" lon="1.52076">
        <ele>1360.096</ele>
        <time>2016-05-07T20:00:22Z</time>
      </trkpt>
      <trkpt lat="42.58214" lon="1.52066">
        <ele>1359.164</ele>
        <time>2016-05-07T20:00:42Z</time>
      </trkpt>
      <trkpt lat="42.58194" lon="1.52063">
        <ele>1359.882</ele>
        <time>2016-05-07T20:01:02Z</time>
      </trkpt>
      <trkpt lat="42.58179" lon="1.52065">
        <ele>1360.77</ele>
        <time>2016-05-07T20:01:22Z</time>
      </trkpt>
      <trkpt lat="42.58163" lon="1.52069">
        <ele>1362.361</ele>
        <time>2016-05-07T20:01:42Z</time>
      </trkpt>
      <trkpt lat="42.58154" lon="1.52063">
        <ele>1360.619</ele>
        <time>2016-05-07T20:02:02Z</time>
      </trkpt>
      <trkpt lat="42.58139" lon="1.52054">
        <ele>1357.997</ele>
        <time>2016-05-07T20:02:22Z</time>
      </trkpt>
      <trkpt lat="42.58119" lon="1.52047">
        <ele>1358.692</ele>
        <time>2016-05-07T20:02:42Z</time>
      </trkpt>
      <trkpt lat="42.58098" lon="1.52049">
        <ele>1360.473</ele>
        <time>2016-05-07T20:03:02Z</time>
      </trkpt>
      <trkpt lat="42.58072" lon="1.52035">
        <ele>1358.42</ele>
        <time>2016-05-07T20:03:22Z</time>
      </trkpt>
      <trkpt lat="42.58056" lon="1.52028">
        <ele>1357.908</ele>
        <time>2016-05-07T20:03:42Z</time>
      </trkpt>
      <trkpt lat="42.58044" lon="1.52018">
        <ele>1358.26</ele>
        <time>2016-05-07T20:04:02Z</time>
      </trkpt>
      <trkpt lat="42.58037" lon="1.52014">
        <ele>1358.362</ele>
        <time>2016-05-07T20:04:22Z</time>
      </trkpt>
      <trkpt lat="42.58027" lon="1.52008">
        <ele>1357.87</ele>
        <time>2016-05-07T20:04:42Z</time>
      </trkpt>
      <trkpt lat="42.57993" lon="1.51987">
        <ele>1354.458</ele>
        <time>2016-05-07T20:05:02Z</time>
      </trkpt>
      <trkpt lat="42.57955" lon="1.51983">
        <ele>1355.846</ele>
        <time>2016-05-07T20:05:22Z</time>
      </trkpt>
      <trkpt lat="42.57938" lon="1.51965">
        <ele>1351.877</ele>
        <time>2016-05-07T20:05:42Z</time>
      </trkpt>
      <trkpt lat="42.57897" lon="1.51951">
        <ele>1348.785</ele>
        <time>2016-05-07T20:06:02Z</time>
      </trkpt>
      <trkpt lat="42.57874" lon="1.51945">
        <ele>1347.693</ele>
        <time>2016-05-07T20:06:22Z</time>
      </trkpt>
      <trkpt lat="42.57842" lon="1.5191">
        <ele>1347.898</ele>
        <time>2016-05-07T20:06:42Z</time>
      </trkpt>
      <trkpt lat="42.57805" lon="1.51837">
        <ele>1345.315</ele>
        <time>2016-05-07T20:07:02Z</time>
      </trkpt>
      <trkpt lat="42.57788" lon="1.51812">
        <ele>1343.526</ele>
        <time>2016-05-07T20:07:22Z</time>
      </trkpt>
      <trkpt lat="42.57796" lon="1.51795">
        <ele>1345.508</ele>
        <time>2016-05-07T20:07:42Z</time>
      </trkpt>
      <trkpt lat="42.57791" lon="1.51787">
        <ele>1344.99</ele>
        <time>2016-05-07T20:08:02Z</time>
      </trkpt>
      <trkpt lat="42.57786" lon="1.51781">
        <ele>1344.232</ele>
        <time>2016-05-07T20:08:22Z</time>
      </trkpt>
      <trkpt lat="42.57781" lon="1.51774">
        <ele>1343.47</ele>
        <time>2016-05-07T20:08:42Z</time>
      </trkpt>
      <trkpt lat="42.57773" lon="1.51767">
        <ele>1342.918</ele>
        <time>2016-05-07T20:09:02Z</time>
      </trkpt>
      <trkpt lat="42.57769" lon="1.51762">
        <ele>1342.846</ele>
        <time>2016-05-07T20:09:22Z</time>
      </trkpt>
      <trkpt lat="42.57766" lon="1.51757">
        <ele>1342.827</ele>
        <time>2016-05-07T20:09:42Z</time>
      </trkpt>
      <trkpt lat="42.57762" lon="1.51753">
        <ele>1342.365</ele>
        <time>2016-05-07T20:10:02Z</time>
      </trkpt>
      <trkpt lat="42.57757" lon="1.51748">
        <ele>1341.853</ele>
        <time>2016-05-07T20:10:22Z</time>
      </trkpt>
      <trkpt lat="42.57753" lon="1.51745">
        <ele>1341.597</ele>
        <time>2016-05-07T20:10:42Z</time>
      </trkpt>
      <trkpt lat="42.57749" lon="1.51742">
        <ele>1341.423</ele>
        <time>2016-05-07T20:11:02Z</time>
      </trkpt>
      <trkpt lat="42.57739" lon="1.51735">
        <ele>1341.525</ele>
        <time>2016-05-07T20:11:22Z</time>
      </trkpt>
      <trkpt lat="42.57731" lon="1.51737">
        <ele>1340.308</ele>
        <time>2016-05-07T20:11:42Z</time>
      </trkpt>
      <trkpt lat="42.57727" lon="1.51737">
        <ele>1339.87</ele>
        <time>2016-05-07T20:12:02Z</time>
      </trkpt>
      <trkpt lat="42.57722" lon="1.51739">
        <ele>1339.152</ele>
        <time>2016-05-07T20:12:22Z</time>
      </trkpt>
      <trkpt lat="42.57709" lon="1.51748">
        <ele>1337.84</ele>
        <time>2016-05-07T20:12:42Z</time>
      </trkpt>
      <trkpt lat="42.57702" lon="1.51754">
        <ele>1337.578</ele>
        <time>2016-05-07T20:13:02Z</time>
      </trkpt>
      <trkpt lat="42.57696" lon="1.51761">
        <ele>1336.816</ele>
        <time>2016-05-07T20:13:22Z</time>
      </trkpt>
      <trkpt lat="42.57686" lon="1.51774">
        <ele>1336.027</ele>
        <time>2016-05-07T20:13:42Z</time>
      </trkpt>
      <trkpt lat="42.5768" lon="1.51788">
        <ele>1335.875</ele>
        <time>2016-05-07T20:14:02Z</time>
      </trkpt>
      <trkpt lat="42.57678" lon="1.51794">
        <ele>1335.743</ele>
        <time>2016-05-07T20:14:22Z</time>
      </trkpt>
      <trkpt lat="42.57672" lon="1.51805">
        <ele>1335.276</ele>
        <time>2016-05-07T20:14:42Z</time>
      </trkpt>
      <trkpt lat="42.57665" lon="1.51815">
        <ele>1335.09</ele>
        <time>2016-05-07T20:15:02Z</time>
      </trkpt>
      <trkpt lat="42.5766" lon="1.51823">
        <ele>1334.919</ele>
        <time>2016-05-07T20:15:22Z</time>
      </trkpt>
      <trkpt lat="42.57656" lon="1.51833">
        <ele>1334.608</ele>
        <time>2016-05-07T20:15:42Z</time>
      </trkpt>
      <trkpt lat="42.57652" lon="1.51839">
        <ele>1334.368</ele>
        <time>2016-05-07T20:16:02Z</time>
      </trkpt>
      <trkpt lat="42.57647" lon="1.51848">
        <ele>1333.68</ele>
        <time>2016-05-07T20:16:22Z</time>
      </trkpt>
      <trkpt lat="42.57643" lon="1.51855">
        <ele>1332.898</ele>
        <time>2016-05-07T20:16:42Z</time>
      </trkpt>
      <trkpt lat="42.57639" lon="1.5186">
        <ele>1332.126</ele>
        <time>2016-05-07T20:17:02Z</time>
      </trkpt>
      <trkpt lat="42.57635" lon="1.51866">
        <ele>1332.264</ele>
        <time>2016-05-07T20:17:22Z</time>
      </trkpt>
      <trkpt lat="42.5763" lon="1.51871">
        <ele>1332.395</ele>
        <time>2016-05-07T20:17:42Z</time>
      </trkpt>
      <trkpt lat="42.57625" lon="1.51876">
        <ele>1332.353</ele>
        <time>2016-05-07T20:18:02Z</time>
      </trkpt>
      <trkpt lat="42.57603" lon="1.51877">
        <ele>1331.131</ele>
        <time>2016-05-07T20:18:22Z</time>
      </trkpt>
      <trkpt lat="42.57602" lon="1.51881">
        <ele>1331.197</ele>
        <time>2016-05-07T20:18:42Z</time>
      </trkpt>
      <trkpt lat="42.576" lon="1.51882">
        <ele>1331.123</ele>
        <time>2016-05-07T20:19:02Z</time>
      </trkpt>
      <trkpt lat="42.57596" lon="1.51887">
        <ele>1330.925</ele>
        <time>2016-05-07T20:19:22Z</time>
      </trkpt>
      <trkpt lat="42.57586" lon="1.51906">
        <ele>1332.508</ele>
        <time>2016-05-07T20:19:42Z</time>
      </trkpt>
      <trkpt lat="42.57581" lon="1.5191">
        <ele>1332.12</ele>
        <time>2016-05-07T20:20:02Z</time>
      </trkpt>
      <trkpt lat="42.57577" lon="1.51916">
        <ele>1332.582</ele>
        <time>2016-05-07T20:20:22Z</time>
      </trkpt>
      <trkpt lat="42.57574" lon="1.51918">
        <ele>1332.75</ele>
        <time>2016-05-07T20:20:42Z</time>
      </trkpt>
      <trkpt lat="42.57568" lon="1.51925">
        <ele>1333.428</ele>
        <time>2016-05-07T20:21:02Z</time>
      </trkpt>
      <trkpt lat="42.57562" lon="1.5193">
        <ele>1333.566</ele>
        <time>2016-05-07T20:21:22Z</time>
      </trkpt>
      <trkpt lat="42.57557" lon="1.51932">
        <ele>1332.967</ele>
        <time>2016-05-07T20:21:42Z</time>
      </trkpt>
      <trkpt lat="42.5755" lon="1.51936">
        <ele>1332.575</ele>
        <time>2016-05-07T20:22:02Z</time>
      </trkpt>
      <trkpt lat="42.57546" lon="1.51937">
        <ele>1332.393</ele>
        <time>2016-05-07T20:22:22Z</time>
      </trkpt>
      <trkpt lat="42.57541" lon="1.51935">
        <ele>1331.796</ele>
        <time>2016-05-07T20:22:42Z</time>
      </trkpt>
      <trkpt lat="42.57539" lon="1.51932">
        <ele>1331.431</ele>
        <time>2016-05-07T20:23:02Z</time>
      </trkpt>
      <trkpt lat="42.57536" lon="1.51927">
        <ele>1330.924</ele>
        <time>2016-05-07T20:23:22Z</time>
      </trkpt>
      <trkpt lat="42.57533" lon="1.5192">
        <ele>1330.308</ele>
        <time>2016-05-07T20:23:42Z</time>
      </trkpt>
      <trkpt lat="42.5753" lon="1.51912">
        <ele>1330.19</ele>
        <time>2016-05-07T20:24:02Z</time>
      </trkpt>
      <trkpt lat="42.57526" lon="1.51904">
        <ele>1329.912</ele>
        <time>2016-05-07T20:24:22Z</time>
      </trkpt>
      <trkpt lat="42.57522" lon="1.51892">
        <ele>1329.89</ele>
        <time>2016-05-07T20:24:42Z</time>
      </trkpt>
      <trkpt lat="42.5752" lon="1.51885">
        <ele>1329.898</ele>
        <time>2016-05-07T20:25:02Z</time>
      </trkpt>
      <trkpt lat="42.57518" lon="1.51875">
        <ele>1329.836</ele>
        <time>2016-05-07T20:25:22Z</time>
      </trkpt>
      <trkpt lat="42.57516" lon="1.5187">
        <ele>1329.957</ele>
        <time>2016-05-07T20:25:42Z</time>
      </trkpt>
      <trkpt lat="42.57513" lon="1.51865">
        <ele>1329.955</ele>
        <time>2016-05-07T20:26:02Z</time>
      </trkpt>
      <trkpt lat="42.57511" lon="1.51864">
        <ele>1329.933</ele>
        <time>2016-05-07T20:26:22Z</time>
      </trkpt>
      <trkpt lat="42.57502" lon="1.51866">
        <ele>1329.823</ele>
        <time>2016-05-07T20:26:42Z</time>
      </trkpt>
      <trkpt lat="42.57493" lon="1.51868">
        <ele>1329.583</ele>
        <time>2016-05-07T20:27:02Z</time>
      </trkpt>
      <trkpt lat="42.57476" lon="1.51877">
        <ele>1328.511</ele>
        <time>2016-05-07T20:27:22Z</time>
      </trkpt>
      <trkpt lat="42.57469" lon="1.51888">
        <ele>1327.808</ele>
        <time>2016-05-07T20:27:42Z</time>
      </trkpt>
      <trkpt lat="42.57447" lon="1.51893">
        <ele>1326.373</ele>
        <time>2016-05-07T20:28:02Z</time>
      </trkpt>
      <trkpt lat="42.5744" lon="1.51896">
        <ele>1326.145</ele>
        <time>2016-05-07T20:28:22Z</time>
      </trkpt>
      <trkpt lat="42.57434" lon="1.51911">
        <ele>1326.173</ele>
        <time>2016-05-07T20:28:42Z</time>
      </trkpt>
      <trkpt lat="42.57429" lon="1.51933">
        <ele>1326.531</ele>
        <time>2016-05-07T20:29:02Z</time>
      </trkpt>
      <trkpt lat="42.57429" lon="1.5196">
        <ele>1327.459</ele>
        <time>2016-05-07T20:29:22Z</time>
      </trkpt>
      <trkpt lat="42.57432" lon="1.51963">
        <ele>1327.82</ele>
        <time>2016-05-07T20:29:42Z</time>
      </trkpt>
      <trkpt lat="42.57439" lon="1.51967">
        <ele>1328.448</ele>
        <time>2016-05-07T20:30:02Z</time>
      </trkpt>
      <trkpt lat="42.57443" lon="1.51975">
        <ele>1329.146</ele>
        <time>2016-05-07T20:30:22Z</time>
      </trkpt>
      <trkpt lat="42.57448" lon="1.51983">
        <ele>1329.997</ele>
        <time>2016-05-07T20:30:42Z</time>
      </trkpt>
      <trkpt lat="42.5745" lon="1.51988">
        <ele>1330.523</ele>
        <time>2016-05-07T20:31:02Z</time>
      </trkpt>
      <trkpt lat="42.57454" lon="1.51995">
        <ele>1331.525</ele>
        <time>2016-05-07T20:31:22Z</time>
      </trkpt>
      <trkpt lat="42.57455" lon="1.51999">
        <ele>1332.008</ele>
        <time>2016-05-07T20:31:42Z</time>
      </trkpt>
      <trkpt lat="42.57458" lon="1.52005">
        <ele>1334.03</ele>
        <time>2016-05-07T20:32:02Z</time>
      </trkpt>
      <trkpt lat="42.57459" lon="1.52013">
        <ele>1336.972</ele>
        <time>2016-05-07T20:32:22Z</time>
      </trkpt>
      <trkpt lat="42.57455" lon="1.52018">
        <ele>1337.39</ele>
        <time>2016-05-07T20:32:42Z</time>
      </trkpt>
      <trkpt lat="42.57449" lon="1.52024">
        <ele>1336.718</ele>
        <time>2016-05-07T20:33:02Z</time>
      </trkpt>
      <trkpt lat="42.57441" lon="1.52034">
        <ele>1336.436</ele>
        <time>2016-05-07T20:33:22Z</time>
      </trkpt>
      <trkpt lat="42.5743" lon="1.52045">
        <ele>1336.747</ele>
        <time>2016-05-07T20:33:42Z</time>
      </trkpt>
      <trkpt lat="42.57422" lon="1.52082">
        <ele>1343.435</ele>
        <time>2016-05-07T20:34:02Z</time>
      </trkpt>
      <trkpt lat="42.57402" lon="1.52129">
        <ele>1354.283</ele>
        <time>2016-05-07T20:34:22Z</time>
      </trkpt>
      <trkpt lat="42.57394" lon="1.52157">
        <ele>1360.874</ele>
        <time>2016-05-07T20:34:42Z</time>
      </trkpt>
      <trkpt lat="42.57393" lon="1.52166">
        <ele>1363.356</ele>
        <time>2016-05-07T20:35:02Z</time>
      </trkpt>
      <trkpt lat="42.57371" lon="1.52194">
        <ele>1365.721</ele>
        <time>2016-05-07T20:35:22Z</time>
      </trkpt>
      <trkpt lat="42.57349" lon="1.52211">
        <ele>1366.608</ele>
        <time>2016-05-07T20:35:42Z</time>
      </trkpt>
      <trkpt lat="42.57337" lon="1.52226">
        <ele>1368.958</ele>
        <time>2016-05-07T20:36:02Z</time>
      </trkpt>
      <trkpt lat="42.57332" lon="1.52232">
        <ele>1369.11</ele>
        <time>2016-05-07T20:36:22Z</time>
      </trkpt>
      <trkpt lat="42.57324" lon="1.52244">
        <ele>1370.838</ele>
        <time>2016-05-07T20:36:42Z</time>
      </trkpt>
      <trkpt lat="42.57317" lon="1.52253">
        <ele>1370.656</ele>
        <time>2016-05-07T20:37:02Z</time>
      </trkpt>
      <trkpt lat="42.57308" lon="1.52267">
        <ele>1370.274</ele>
        <time>2016-05-07T20:37:22Z</time>
      </trkpt>
      <trkpt lat="42.573" lon="1.52272">
        <ele>1368.155</ele>
        <time>2016-05-07T20:37:42Z</time>
      </trkpt>
      <trkpt lat="42.57291" lon="1.5228">
        <ele>1366.683</ele>
        <time>2016-05-07T20:38:02Z</time>
      </trkpt>
      <trkpt lat="42.57285" lon="1.52285">
        <ele>1364.941</ele>
        <time>2016-05-07T20:38:22Z</time>
      </trkpt>
      <trkpt lat="42.5728" lon="1.52289">
        <ele>1363.541</ele>
        <time>2016-05-07T20:38:42Z</time>
      </trkpt>
      <trkpt lat="42.57275" lon="1.52295">
        <ele>1363.581</ele>
        <time>2016-05-07T20:39:02Z</time>
      </trkpt>
      <trkpt lat="42.5727" lon="1.52282">
        <ele>1358.009</ele>
        <time>2016-05-07T20:39:22Z</time>
      </trkpt>
      <trkpt lat="42.57261" lon="1.52262">
        <ele>1350.308</ele>
        <time>2016-05-07T20:39:42Z</time>
      </trkpt>
      <trkpt lat="42.57259" lon="1.52254">
        <ele>1347.585</ele>
        <time>2016-05-07T20:40:02Z</time>
      </trkpt>
      <trkpt lat="42.57252" lon="1.52238">
        <ele>1341.857</ele>
        <time>2016-05-07T20:40:22Z</time>
      </trkpt>
      <trkpt lat="42.57233" lon="1.52196">
        <ele>1333.025</ele>
        <time>2016-05-07T20:40:42Z</time>
      </trkpt>
      <trkpt lat="42.57223" lon="1.52193">
        <ele>1331.993</ele>
        <time>2016-05-07T20:41:02Z</time>
      </trkpt>
      <trkpt lat="42.57211" lon="1.52193">
        <ele>1332.631</ele>
        <time>2016-05-07T20:41:22Z</time>
      </trkpt>
      <trkpt lat="42.57199" lon="1.52197">
        <ele>1334.632</ele>
        <time>2016-05-07T20:41:42Z</time>
      </trkpt>
      <trkpt lat="42.57187" lon="1.52206">
        <ele>1338.12</ele>
        <time>2016-05-07T20:42:02Z</time>
      </trkpt>
      <trkpt lat="42.5718" lon="1.52213">
        <ele>1340.738</ele>
        <time>2016-05-07T20:42:22Z</time>
      </trkpt>
      <trkpt lat="42.57168" lon="1.52215">
        <ele>1340.957</ele>
        <time>2016-05-07T20:42:42Z</time>
      </trkpt>
      <trkpt lat="42.5715" lon="1.52218">
        <ele>1339.9</ele>
        <time>2016-05-07T20:43:02Z</time>
      </trkpt>
      <trkpt lat="42.57133" lon="1.52211">
        <ele>1333.22</ele>
        <time>2016-05-07T20:43:22Z</time>
      </trkpt>
      <trkpt lat="42.57121" lon="1.52214">
        <ele>1332.708</ele>
        <time>2016-05-07T20:43:42Z</time>
      </trkpt>
      <trkpt lat="42.57112" lon="1.52218">
        <ele>1333.646</ele>
        <time>2016-05-07T20:44:02Z</time>
      </trkpt>
      <trkpt lat="42.57096" lon="1.52221">
        <ele>1331.368</ele>
        <time>2016-05-07T20:44:22Z</time>
      </trkpt>
      <trkpt lat="42.5707" lon="1.52205">
        <ele>1321.446</ele>
        <time>2016-05-07T20:44:42Z</time>
      </trkpt>
      <trkpt lat="42.57036" lon="1.52192">
        <ele>1316.294</ele>
        <time>2016-05-07T20:45:02Z</time>
      </trkpt>
      <trkpt lat="42.5703" lon="1.52191">
        <ele>1316.042</ele>
        <time>2016-05-07T20:45:22Z</time>
      </trkpt>
      <trkpt lat="42.57011" lon="1.52188">
        <ele>1314.913</ele>
        <time>2016-05-07T20:45:42Z</time>
      </trkpt>
      <trkpt lat="42.56997" lon="1.52187">
        <ele>1315.371</ele>
        <time>2016-05-07T20:46:02Z</time>
      </trkpt>
      <trkpt lat="42.56986" lon="1.52184">
        <ele>1316.559</ele>
        <time>2016-05-07T20:46:22Z</time>
      </trkpt>
      <trkpt lat="42.56945" lon="1.52169">
        <ele>1311.221</ele>
        <time>2016-05-07T20:46:42Z</time>
      </trkpt>
      <trkpt lat="42.56934" lon="1.52164">
        <ele>1309.741</ele>
        <time>2016-05-07T20:47:02Z</time>
      </trkpt>
      <trkpt lat="42.56927" lon="1.52163">
        <ele>1309.505</ele>
        <time>2016-05-07T20:47:22Z</time>
      </trkpt>
      <trkpt lat="42.56912" lon="1.52167">
        <ele>1308.508</ele>
        <time>2016-05-07T20:47:42Z</time>
      </trkpt>
      <trkpt lat="42.56906" lon="1.52172">
        <ele>1308.333</ele>
        <time>2016-05-07T20:48:02Z</time>
      </trkpt>
      <trkpt lat="42.56897" lon="1.52178">
        <ele>1307.485</ele>
        <time>2016-05-07T20:48:22Z</time>
      </trkpt>
      <trkpt lat="42.56886" lon="1.52187">
        <ele>1305.933</ele>
        <time>2016-05-07T20:48:42Z</time>
      </trkpt>
      <trkpt lat="42.5688" lon="1.52192">
        <ele>1305.721</ele>
        <time>2016-05-07T20:49:02Z</time>
      </trkpt>
      <trkpt lat="42.56874" lon="1.52208">
        <ele>1306.049</ele>
        <time>2016-05-07T20:49:22Z</time>
      </trkpt>
      <trkpt lat="42.56867" lon="1.52223">
        <ele>1305.79</ele>
        <time>2016-05-07T20:49:42Z</time>
      </trkpt>
      <trkpt lat="42.56867" lon="1.52232">
        <ele>1306.368</ele>
        <time>2016-05-07T20:50:02Z</time>
      </trkpt>
      <trkpt lat="42.56861" lon="1.52275">
        <ele>1308.766</ele>
        <time>2016-05-07T20:50:22Z</time>
      </trkpt>
      <trkpt lat="42.56858" lon="1.523">
        <ele>1314.491</ele>
        <time>2016-05-07T20:50:42Z</time>
      </trkpt>
      <trkpt lat="42.56846" lon="1.52317">
        <ele>1313.881</ele>
        <time>2016-05-07T20:51:02Z</time>
      </trkpt>
      <trkpt lat="42.56841" lon="1.52341">
        <ele>1315.419</ele>
        <time>2016-05-07T20:51:22Z</time>
      </trkpt>
      <trkpt lat="42.56833" lon="1.52366">
        <ele>1317.008</ele>
        <time>2016-05-07T20:51:42Z</time>
      </trkpt>
      <trkpt lat="42.56826" lon="1.52383">
        <ele>1321.13</ele>
        <time>2016-05-07T20:52:02Z</time>
      </trkpt>
      <trkpt lat="42.56815" lon="1.52396">
        <ele>1319.772</ele>
        <time>2016-05-07T20:52:22Z</time>
      </trkpt>
      <trkpt lat="42.56805" lon="1.52406">
        <ele>1318.76</ele>
        <time>2016-05-07T20:52:42Z</time>
      </trkpt>
      <trkpt lat="42.56803" lon="1.52408">
        <ele>1318.278</ele>
        <time>2016-05-07T20:53:02Z</time>
      </trkpt>
      <trkpt lat="42.56801" lon="1.52409">
        <ele>1317.626</ele>
        <time>2016-05-07T20:53:22Z</time>
      </trkpt>
      <trkpt lat="42.56784" lon="1.52428">
        <ele>1312.747</ele>
        <time>2016-05-07T20:53:42Z</time>
      </trkpt>
      <trkpt lat="42.56779" lon="1.52438">
        <ele>1312.955</ele>
        <time>2016-05-07T20:54:02Z</time>
      </trkpt>
      <trkpt lat="42.56772" lon="1.52449">
        <ele>1314.523</ele>
        <time>2016-05-07T20:54:22Z</time>
      </trkpt>
      <trkpt lat="42.5676" lon="1.52461">
        <ele>1314.424</ele>
        <time>2016-05-07T20:54:42Z</time>
      </trkpt>
      <trkpt lat="42.56753" lon="1.52458">
        <ele>1309.004</ele>
        <time>2016-05-07T20:55:02Z</time>
      </trkpt>
      <trkpt lat="42.56742" lon="1.52468">
        <ele>1309.214</ele>
        <time>2016-05-07T20:55:22Z</time>
      </trkpt>
      <trkpt lat="42.56734" lon="1.52478">
        <ele>1309.808</ele>
        <time>2016-05-07T20:55:42Z</time>
      </trkpt>
      <trkpt lat="42.56715" lon="1.5248">
        <ele>1304.973</ele>
        <time>2016-05-07T20:56:02Z</time>
      </trkpt>
      <trkpt lat="42.56698" lon="1.52481">
        <ele>1302.745</ele>
        <time>2016-05-07T20:56:22Z</time>
      </trkpt>
      <trkpt lat="42.56688" lon="1.52485">
        <ele>1303.053</ele>
        <time>2016-05-07T20:56:42Z</time>
      </trkpt>
      <trkpt lat="42.5668" lon="1.52487">
        <ele>1303.111</ele>
        <time>2016-05-07T20:57:02Z</time>
      </trkpt>
      <trkpt lat="42.56671" lon="1.52482">
        <ele>1301.559</ele>
        <time>2016-05-07T20:57:22Z</time>
      </trkpt>
      <trkpt lat="42.56651" lon="1.52479">
        <ele>1298.41</ele>
        <time>2016-05-07T20:57:42Z</time>
      </trkpt>
      <trkpt lat="42.56639" lon="1.52478">
        <ele>1296.448</ele>
        <time>2016-05-07T20:58:02Z</time>
      </trkpt>
      <trkpt lat="42.56614" lon="1.52481">
        <ele>1295.566</ele>
        <time>2016-05-07T20:58:22Z</time>
      </trkpt>
      <trkpt lat="42.56598" lon="1.52482">
        <ele>1295.522</ele>
        <time>2016-05-07T20:58:42Z</time>
      </trkpt>
      <trkpt lat="42.56585" lon="1.52464">
        <ele>1296.662</ele>
        <time>2016-05-07T20:59:02Z</time>
      </trkpt>
      <trkpt lat="42.56558" lon="1.52457">
        <ele>1298.008</ele>
        <time>2016-05-07T20:59:22Z</time>
      </trkpt>
      <trkpt lat="42.56526" lon="1.52444">
        <ele>1300.208</ele>
        <time>2016-05-07T20:59:42Z</time>
      </trkpt>
      <trkpt lat="42.5651" lon="1.52455">
        <ele>1300.543</ele>
        <time>2016-05-07T21:00:02Z</time>
      </trkpt>
      <trkpt lat="42.56485" lon="1.52472">
        <ele>1299.625</ele>
        <time>2016-05-07T21:00:22Z</time>
      </trkpt>
      <trkpt lat="42.56456" lon="1.52513">
        <ele>1297.123</ele>
        <time>2016-05-07T21:00:42Z</time>
      </trkpt>
      <trkpt lat="42.56437" lon="1.52537">
        <ele>1296.261</ele>
        <time>2016-05-07T21:01:02Z</time>
      </trkpt>
      <trkpt lat="42.56422" lon="1.52554">
        <ele>1294.669</ele>
        <time>2016-05-07T21:01:22Z</time>
      </trkpt>
      <trkpt lat="42.56406" lon="1.52576">
        <ele>1293.04</ele>
        <time>2016-05-07T21:01:42Z</time>
      </trkpt>
      <trkpt lat="42.56392" lon="1.52597">
        <ele>1291.028</ele>
        <time>2016-05-07T21:02:02Z</time>
      </trkpt>
      <trkpt lat="42.56382" lon="1.52611">
        <ele>1291.156</ele>
        <time>2016-05-07T21:02:22Z</time>
      </trkpt>
      <trkpt lat="42.56378" lon="1.52618">
        <ele>1291.382</ele>
        <time>2016-05-07T21:02:42Z</time>
      </trkpt>
      <trkpt lat="42.56371" lon="1.52628">
        <ele>1291.443</ele>
        <time>2016-05-07T21:03:02Z</time>
      </trkpt>
      <trkpt lat="42.56362" lon="1.52642">
        <ele>1290.817</ele>
        <time>2016-05-07T21:03:22Z</time>
      </trkpt>
      <trkpt lat="42.56354" lon="1.52654">
        <ele>1291.208</ele>
        <time>2016-05-07T21:03:42Z</time>
      </trkpt>
      <trkpt lat="42.56351" lon="1.52666">
        <ele>1290.429</ele>
        <time>2016-05-07T21:04:02Z</time>
      </trkpt>
      <trkpt lat="42.56345" lon="1.52682">
        <ele>1290.311</ele>
        <time>2016-05-07T21:04:22Z</time>
      </trkpt>
      <trkpt lat="42.5634" lon="1.52698">
        <ele>1289.929</ele>
        <time>2016-05-07T21:04:42Z</time>
      </trkpt>
      <trkpt lat="42.56336" lon="1.52708">
        <ele>1289.627</ele>
        <time>2016-05-07T21:05:02Z</time>
      </trkpt>
      <trkpt lat="42.56329" lon="1.52705">
        <ele>1290.385</ele>
        <time>2016-05-07T21:05:22Z</time>
      </trkpt>
      <trkpt lat="42.56323" lon="1.52713">
        <ele>1290.986</ele>
        <time>2016-05-07T21:05:42Z</time>
      </trkpt>
      <trkpt lat="42.56317" lon="1.52736">
        <ele>1289.044</ele>
        <time>2016-05-07T21:06:02Z</time>
      </trkpt>
      <trkpt lat="42.56314" lon="1.52745">
        <ele>1287.662</ele>
        <time>2016-05-07T21:06:22Z</time>
      </trkpt>
      <trkpt lat="42.56312" lon="1.52751">
        <ele>1286.793</ele>
        <time>2016-05-07T21:06:42Z</time>
      </trkpt>
      <trkpt lat="42.56309" lon="1.52758">
        <ele>1286.465</ele>
        <time>2016-05-07T21:07:02Z</time>
      </trkpt>
      <trkpt lat="42.56303" lon="1.52772">
        <ele>1286.421</ele>
        <time>2016-05-07T21:07:22Z</time>
      </trkpt>
      <trkpt lat="42.56272" lon="1.52851">
        <ele>1285.408</ele>
        <time>2016-05-07T21:07:42Z</time>
      </trkpt>
      <trkpt lat="42.56252" lon="1.52892">
        <ele>1282.57</ele>
        <time>2016-05-07T21:08:02Z</time>
      </trkpt>
      <trkpt lat="42.56247" lon="1.52899">
        <ele>1282.122</ele>
        <time>2016-05-07T21:08:22Z</time>
      </trkpt>
      <trkpt lat="42.56232" lon="1.52914">
        <ele>1281.62</ele>
        <time>2016-05-07T21:08:42Z</time>
      </trkpt>
      <trkpt lat="42.56226" lon="1.5292">
        <ele>1281.758</ele>
        <time>2016-05-07T21:09:02Z</time>
      </trkpt>
      <trkpt lat="42.56207" lon="1.5293">
        <ele>1281.666</ele>
        <time>2016-05-07T21:09:22Z</time>
      </trkpt>
      <trkpt lat="42.562" lon="1.52934">
        <ele>1281.577</ele>
        <time>2016-05-07T21:09:42Z</time>
      </trkpt>
      <trkpt lat="42.56193" lon="1.52937">
        <ele>1281.445</ele>
        <time>2016-05-07T21:10:02Z</time>
      </trkpt>
      <trkpt lat="42.56185" lon="1.52941">
        <ele>1281.293</ele>
        <time>2016-05-07T21:10:22Z</time>
      </trkpt>
      <trkpt lat="42.56175" lon="1.52947">
        <ele>1280.924</ele>
        <time>2016-05-07T21:10:42Z</time>
      </trkpt>
      <trkpt lat="42.56163" lon="1.52956">
        <ele>1280.704</ele>
        <time>2016-05-07T21:11:02Z</time>
      </trkpt>
      <trkpt lat="42.56151" lon="1.5297">
        <ele>1280.814</ele>
        <time>2016-05-07T21:11:22Z</time>
      </trkpt>
      <trkpt lat="42.56143" lon="1.52982">
        <ele>1280.808</ele>
        <time>2016-05-07T21:11:42Z</time>
      </trkpt>
      <trkpt lat="42.56135" lon="1.52994">
        <ele>1280.393</ele>
        <time>2016-05-07T21:12:02Z</time>
      </trkpt>
      <trkpt lat="42.56096" lon="1.53056">
        <ele>1279.495</ele>
        <time>2016-05-07T21:12:22Z</time>
      </trkpt>
      <trkpt lat="42.56085" lon="1.53073">
        <ele>1279.543</ele>
        <time>2016-05-07T21:12:42Z</time>
      </trkpt>
      <trkpt lat="42.56072" lon="1.53088">
        <ele>1279.061</ele>
        <time>2016-05-07T21:13:02Z</time>
      </trkpt>
      <trkpt lat="42.56052" lon="1.53099">
        <ele>1277.439</ele>
        <time>2016-05-07T21:13:22Z</time>
      </trkpt>
      <trkpt lat="42.56049" lon="1.531">
        <ele>1277.32</ele>
        <time>2016-05-07T21:13:42Z</time>
      </trkpt>
      <trkpt lat="42.56032" lon="1.53109">
        <ele>1276.368</ele>
        <time>2016-05-07T21:14:02Z</time>
      </trkpt>
      <trkpt lat="42.56012" lon="1.53118">
        <ele>1276.656</ele>
        <time>2016-05-07T21:14:22Z</time>
      </trkpt>
      <trkpt lat="42.55995" lon="1.53129">
        <ele>1276.396</ele>
        <time>2016-05-07T21:14:42Z</time>
      </trkpt>
      <trkpt lat="42.55977" lon="1.53143">
        <ele>1275.831</ele>
        <time>2016-05-07T21:15:02Z</time>
      </trkpt>
      <trkpt lat="42.55961" lon="1.53156">
        <ele>1275.924</ele>
        <time>2016-05-07T21:15:22Z</time>
      </trkpt>
      <trkpt lat="42.55923" lon="1.53195">
        <ele>1276.108</ele>
        <time>2016-05-07T21:15:42Z</time>
      </trkpt>
      <trkpt lat="42.55929" lon="1.53189">
        <ele>1276.06</ele>
        <time>2016-05-07T21:16:02Z</time>
      </trkpt>
      <trkpt lat="42.55913" lon="1.53205">
        <ele>1277.432</ele>
        <time>2016-05-07T21:16:22Z</time>
      </trkpt>
      <trkpt lat="42.55904" lon="1.53214">
        <ele>1279.01</ele>
        <time>2016-05-07T21:16:42Z</time>
      </trkpt>
      <trkpt lat="42.55886" lon="1.53227">
        <ele>1280.398</ele>
        <time>2016-05-07T21:17:02Z</time>
      </trkpt>
      <trkpt lat="42.55872" lon="1.53237">
        <ele>1279.766</ele>
        <time>2016-05-07T21:17:22Z</time>
      </trkpt>
      <trkpt lat="42.5586" lon="1.53243">
        <ele>1279.237</ele>
        <time>2016-05-07T21:17:42Z</time>
      </trkpt>
      <trkpt lat="42.55848" lon="1.53246">
        <ele>1280.475</ele>
        <time>2016-05-07T21:18:02Z</time>
      </trkpt>
      <trkpt lat="42.5584" lon="1.53247">
        <ele>1281.443</ele>
        <time>2016-05-07T21:18:22Z</time>
      </trkpt>
      <trkpt lat="42.55826" lon="1.53248">
        <ele>1282.341</ele>
        <time>2016-05-07T21:18:42Z</time>
      </trkpt>
      <trkpt lat="42.55818" lon="1.53249">
        <ele>1282.681</ele>
        <time>2016-05-07T21:19:02Z</time>
      </trkpt>
      <trkpt lat="42.55808" lon="1.53252">
        <ele>1284.209</ele>
        <time>2016-05-07T21:19:22Z</time>
      </trkpt>
      <trkpt lat="42.55793" lon="1.53252">
        <ele>1284.308</ele>
        <time>2016-05-07T21:19:42Z</time>
      </trkpt>
      <trkpt lat="42.5579" lon="1.53252">
        <ele>1284.675</ele>
        <time>2016-05-07T21:20:02Z</time>
      </trkpt>
      <trkpt lat="42.55783" lon="1.53251">
        <ele>1284.697</ele>
        <time>2016-05-07T21:20:22Z</time>
      </trkpt>
      <trkpt lat="42.55776" lon="1.53252">
        <ele>1285.475</ele>
        <time>2016-05-07T21:20:42Z</time>
      </trkpt>
      <trkpt lat="42.55768" lon="1.53251">
        <ele>1285.953</ele>
        <time>2016-05-07T21:21:02Z</time>
      </trkpt>
      <trkpt lat="42.55763" lon="1.53251">
        <ele>1286.121</ele>
        <time>2016-05-07T21:21:22Z</time>
      </trkpt>
      <trkpt lat="42.55716" lon="1.53252">
        <ele>1289.392</ele>
        <time>2016-05-07T21:21:42Z</time>
      </trkpt>
      <trkpt lat="42.55708" lon="1.53253">
        <ele>1290.46</ele>
        <time>2016-05-07T21:22:02Z</time>
      </trkpt>
      <trkpt lat="42.55701" lon="1.53254">
        <ele>1291.378</ele>
        <time>2016-05-07T21:22:22Z</time>
      </trkpt>
      <trkpt lat="42.55689" lon="1.53256">
        <ele>1292.632</ele>
        <time>2016-05-07T21:22:42Z</time>
      </trkpt>
      <trkpt lat="42.5568" lon="1.5326">
        <ele>1293.792</ele>
        <time>2016-05-07T21:23:02Z</time>
      </trkpt>
      <trkpt lat="42.55676" lon="1.53265">
        <ele>1294.811</ele>
        <time>2016-05-07T21:23:22Z</time>
      </trkpt>
      <trkpt lat="42.55673" lon="1.53281">
        <ele>1297.208</ele>
        <time>2016-05-07T21:23:42Z</time>
      </trkpt>
      <trkpt lat="42.55681" lon="1.53326">
        <ele>1301.924</ele>
        <time>2016-05-07T21:24:02Z</time>
      </trkpt>
    </trkseg>
  </trk>
</gpx>